<?xml version="1.0" encoding="UTF-8" standalone="no" ?>
<gpx xmlns="http://www.topografix.com/GPX/1/1" xmlns:xsi="http://www.w3.org/2001/XMLSchema-instance" xsi:schemaLocation="http://www.topografix.com/GPX/1/1 http://www.topografix.com/GPX/1/1/gpx.xsd" version="1.1" creator="VisuGPX - https://www.visugpx.com">
  <metadata>
    <name>2015-12-12 Bike ride-Georges de Reneins O</name>
    <desc><![CDATA[2015-12-12 Bike ride-Georges de Reneins O]]></desc>
  </metadata>
  <wpt lat="45.92443" lon="4.73718">
    <ele>163.5</ele>
    <name><![CDATA[2015-12-12 10:10 (Start)]]></name>
  </wpt>
  <wpt lat="45.92459" lon="4.7371">
    <ele>176.7</ele>
    <name><![CDATA[2015-12-12 10:10 (End)]]></name>
    <desc><![CDATA[Created by Google My Tracks on Android  Name: 2015-12-12 10:10 Activity type: biking Description: - Total distance: 49.73 km (30.9 mi) Total time: 2:24:55 Moving time: 2:18:23 Average speed: 20.59 km/h (12.8 mi/h) Average moving speed: 21.56 km/h (13.4 mi/h) Max speed: 41.51 km/h (25.8 mi/h) Average pace: 2:55 min/km (4:41 min/mi) Average moving pace: 2:47 min/km (4:29 min/mi) Fastest pace: 1:27 min/km (2:20 min/mi) Max elevation: 244 m (802 ft) Min elevation: 162 m (533 ft) Elevation gain: 668 m (2192 ft) Max grade: 35 % Min grade: -14 % Recorded: 12/12/2015 10:10]]></desc>
  </wpt>
  <trk>
    <name><![CDATA[2015-12-12 10:10]]></name>
    <trkseg>
      <trkpt lat="45.92443" lon="4.73718">
        <ele>163.5</ele>
        <time>2015-12-12T09:10:49.989Z</time>
      </trkpt>
      <trkpt lat="45.92449" lon="4.73723">
        <ele>168.100006104</ele>
        <time>2015-12-12T09:11:09.804Z</time>
      </trkpt>
      <trkpt lat="45.92452" lon="4.73726">
        <ele>172.300003052</ele>
        <time>2015-12-12T09:11:10.772Z</time>
      </trkpt>
      <trkpt lat="45.92456" lon="4.73718">
        <ele>176.600006104</ele>
        <time>2015-12-12T09:11:21.824Z</time>
      </trkpt>
      <trkpt lat="45.92457" lon="4.73712">
        <ele>170.199996948</ele>
        <time>2015-12-12T09:11:22.808Z</time>
      </trkpt>
      <trkpt lat="45.92459" lon="4.73711">
        <ele>171.399993896</ele>
        <time>2015-12-12T09:12:29.885Z</time>
      </trkpt>
      <trkpt lat="45.92466" lon="4.73708">
        <ele>174.899993896</ele>
        <time>2015-12-12T09:12:30.807Z</time>
      </trkpt>
      <trkpt lat="45.9247" lon="4.73699">
        <ele>174.100006104</ele>
        <time>2015-12-12T09:12:35.818Z</time>
      </trkpt>
      <trkpt lat="45.9247" lon="4.73695">
        <ele>174.100006104</ele>
        <time>2015-12-12T09:12:36.797Z</time>
      </trkpt>
      <trkpt lat="45.9247" lon="4.73682">
        <ele>174.600006104</ele>
        <time>2015-12-12T09:12:39.87Z</time>
      </trkpt>
      <trkpt lat="45.9247" lon="4.73678">
        <ele>175</ele>
        <time>2015-12-12T09:12:40.812Z</time>
      </trkpt>
      <trkpt lat="45.92471" lon="4.73668">
        <ele>175.699996948</ele>
        <time>2015-12-12T09:12:42.798Z</time>
      </trkpt>
      <trkpt lat="45.92471" lon="4.73662">
        <ele>175.899993896</ele>
        <time>2015-12-12T09:12:43.803Z</time>
      </trkpt>
      <trkpt lat="45.92474" lon="4.73654">
        <ele>176.5</ele>
        <time>2015-12-12T09:12:45.797Z</time>
      </trkpt>
      <trkpt lat="45.92477" lon="4.73651">
        <ele>177.199996948</ele>
        <time>2015-12-12T09:12:46.778Z</time>
      </trkpt>
      <trkpt lat="45.92483" lon="4.73647">
        <ele>178.100006104</ele>
        <time>2015-12-12T09:12:48.838Z</time>
      </trkpt>
      <trkpt lat="45.92487" lon="4.73647">
        <ele>178.600006104</ele>
        <time>2015-12-12T09:12:49.777Z</time>
      </trkpt>
      <trkpt lat="45.92495" lon="4.73647">
        <ele>179.199996948</ele>
        <time>2015-12-12T09:12:51.795Z</time>
      </trkpt>
      <trkpt lat="45.92499" lon="4.73647">
        <ele>179.5</ele>
        <time>2015-12-12T09:12:52.777Z</time>
      </trkpt>
      <trkpt lat="45.92503" lon="4.73647">
        <ele>179.899993896</ele>
        <time>2015-12-12T09:12:53.8Z</time>
      </trkpt>
      <trkpt lat="45.92508" lon="4.73648">
        <ele>180.300003052</ele>
        <time>2015-12-12T09:12:54.777Z</time>
      </trkpt>
      <trkpt lat="45.92513" lon="4.73647">
        <ele>180.600006104</ele>
        <time>2015-12-12T09:12:55.8Z</time>
      </trkpt>
      <trkpt lat="45.92518" lon="4.73647">
        <ele>180.199996948</ele>
        <time>2015-12-12T09:12:56.795Z</time>
      </trkpt>
      <trkpt lat="45.92523" lon="4.73646">
        <ele>180.399993896</ele>
        <time>2015-12-12T09:12:57.797Z</time>
      </trkpt>
      <trkpt lat="45.92529" lon="4.73646">
        <ele>180.600006104</ele>
        <time>2015-12-12T09:12:58.776Z</time>
      </trkpt>
      <trkpt lat="45.92534" lon="4.73645">
        <ele>181</ele>
        <time>2015-12-12T09:12:59.799Z</time>
      </trkpt>
      <trkpt lat="45.92539" lon="4.73645">
        <ele>180.899993896</ele>
        <time>2015-12-12T09:13:00.793Z</time>
      </trkpt>
      <trkpt lat="45.92544" lon="4.73644">
        <ele>181.399993896</ele>
        <time>2015-12-12T09:13:01.871Z</time>
      </trkpt>
      <trkpt lat="45.92549" lon="4.73643">
        <ele>182.199996948</ele>
        <time>2015-12-12T09:13:02.783Z</time>
      </trkpt>
      <trkpt lat="45.92554" lon="4.73642">
        <ele>182.800003052</ele>
        <time>2015-12-12T09:13:03.853Z</time>
      </trkpt>
      <trkpt lat="45.9256" lon="4.73641">
        <ele>182.399993896</ele>
        <time>2015-12-12T09:13:04.784Z</time>
      </trkpt>
      <trkpt lat="45.92565" lon="4.73639">
        <ele>182.800003052</ele>
        <time>2015-12-12T09:13:05.826Z</time>
      </trkpt>
      <trkpt lat="45.9257" lon="4.73638">
        <ele>183.100006104</ele>
        <time>2015-12-12T09:13:06.793Z</time>
      </trkpt>
      <trkpt lat="45.92575" lon="4.73636">
        <ele>183.399993896</ele>
        <time>2015-12-12T09:13:07.821Z</time>
      </trkpt>
      <trkpt lat="45.9258" lon="4.73636">
        <ele>184</ele>
        <time>2015-12-12T09:13:08.8Z</time>
      </trkpt>
      <trkpt lat="45.92584" lon="4.73635">
        <ele>184.5</ele>
        <time>2015-12-12T09:13:09.821Z</time>
      </trkpt>
      <trkpt lat="45.9259" lon="4.73635">
        <ele>185.100006104</ele>
        <time>2015-12-12T09:13:10.782Z</time>
      </trkpt>
      <trkpt lat="45.92594" lon="4.73633">
        <ele>185.399993896</ele>
        <time>2015-12-12T09:13:11.8Z</time>
      </trkpt>
      <trkpt lat="45.926" lon="4.73634">
        <ele>185.699996948</ele>
        <time>2015-12-12T09:13:12.779Z</time>
      </trkpt>
      <trkpt lat="45.92606" lon="4.73633">
        <ele>184.800003052</ele>
        <time>2015-12-12T09:13:13.797Z</time>
      </trkpt>
      <trkpt lat="45.92611" lon="4.73633">
        <ele>183.600006104</ele>
        <time>2015-12-12T09:13:14.779Z</time>
      </trkpt>
      <trkpt lat="45.92616" lon="4.73636">
        <ele>182.600006104</ele>
        <time>2015-12-12T09:13:15.797Z</time>
      </trkpt>
      <trkpt lat="45.92621" lon="4.73642">
        <ele>181.699996948</ele>
        <time>2015-12-12T09:13:16.792Z</time>
      </trkpt>
      <trkpt lat="45.92625" lon="4.73648">
        <ele>181.399993896</ele>
        <time>2015-12-12T09:13:17.86Z</time>
      </trkpt>
      <trkpt lat="45.92628" lon="4.73654">
        <ele>181.300003052</ele>
        <time>2015-12-12T09:13:18.781Z</time>
      </trkpt>
      <trkpt lat="45.92631" lon="4.73661">
        <ele>180.800003052</ele>
        <time>2015-12-12T09:13:19.797Z</time>
      </trkpt>
      <trkpt lat="45.92634" lon="4.73668">
        <ele>179.899993896</ele>
        <time>2015-12-12T09:13:20.776Z</time>
      </trkpt>
      <trkpt lat="45.92637" lon="4.73674">
        <ele>179.800003052</ele>
        <time>2015-12-12T09:13:21.797Z</time>
      </trkpt>
      <trkpt lat="45.9264" lon="4.7368">
        <ele>179.699996948</ele>
        <time>2015-12-12T09:13:22.777Z</time>
      </trkpt>
      <trkpt lat="45.92644" lon="4.73686">
        <ele>179.600006104</ele>
        <time>2015-12-12T09:13:23.814Z</time>
      </trkpt>
      <trkpt lat="45.92649" lon="4.73691">
        <ele>179.800003052</ele>
        <time>2015-12-12T09:13:24.804Z</time>
      </trkpt>
      <trkpt lat="45.92653" lon="4.73696">
        <ele>179.800003052</ele>
        <time>2015-12-12T09:13:25.835Z</time>
      </trkpt>
      <trkpt lat="45.92658" lon="4.737">
        <ele>179.800003052</ele>
        <time>2015-12-12T09:13:26.778Z</time>
      </trkpt>
      <trkpt lat="45.92663" lon="4.73704">
        <ele>179.699996948</ele>
        <time>2015-12-12T09:13:27.797Z</time>
      </trkpt>
      <trkpt lat="45.92669" lon="4.73708">
        <ele>179.699996948</ele>
        <time>2015-12-12T09:13:28.776Z</time>
      </trkpt>
      <trkpt lat="45.92674" lon="4.73711">
        <ele>179.5</ele>
        <time>2015-12-12T09:13:29.803Z</time>
      </trkpt>
      <trkpt lat="45.9268" lon="4.73713">
        <ele>179.300003052</ele>
        <time>2015-12-12T09:13:30.823Z</time>
      </trkpt>
      <trkpt lat="45.92686" lon="4.73715">
        <ele>179.300003052</ele>
        <time>2015-12-12T09:13:31.795Z</time>
      </trkpt>
      <trkpt lat="45.92692" lon="4.73718">
        <ele>179.5</ele>
        <time>2015-12-12T09:13:32.777Z</time>
      </trkpt>
      <trkpt lat="45.92698" lon="4.73719">
        <ele>179.5</ele>
        <time>2015-12-12T09:13:33.811Z</time>
      </trkpt>
      <trkpt lat="45.92703" lon="4.73721">
        <ele>179.300003052</ele>
        <time>2015-12-12T09:13:34.777Z</time>
      </trkpt>
      <trkpt lat="45.92709" lon="4.73721">
        <ele>179.600006104</ele>
        <time>2015-12-12T09:13:35.8Z</time>
      </trkpt>
      <trkpt lat="45.92715" lon="4.73722">
        <ele>179.399993896</ele>
        <time>2015-12-12T09:13:36.777Z</time>
      </trkpt>
      <trkpt lat="45.92721" lon="4.73723">
        <ele>179.399993896</ele>
        <time>2015-12-12T09:13:37.796Z</time>
      </trkpt>
      <trkpt lat="45.92726" lon="4.73724">
        <ele>179.199996948</ele>
        <time>2015-12-12T09:13:38.777Z</time>
      </trkpt>
      <trkpt lat="45.92732" lon="4.73724">
        <ele>179.300003052</ele>
        <time>2015-12-12T09:13:39.803Z</time>
      </trkpt>
      <trkpt lat="45.92738" lon="4.73725">
        <ele>179.300003052</ele>
        <time>2015-12-12T09:13:40.781Z</time>
      </trkpt>
      <trkpt lat="45.92743" lon="4.73726">
        <ele>179.600006104</ele>
        <time>2015-12-12T09:13:41.799Z</time>
      </trkpt>
      <trkpt lat="45.92748" lon="4.73726">
        <ele>179.899993896</ele>
        <time>2015-12-12T09:13:42.777Z</time>
      </trkpt>
      <trkpt lat="45.92753" lon="4.73727">
        <ele>180.199996948</ele>
        <time>2015-12-12T09:13:43.829Z</time>
      </trkpt>
      <trkpt lat="45.92758" lon="4.73728">
        <ele>180.100006104</ele>
        <time>2015-12-12T09:13:44.781Z</time>
      </trkpt>
      <trkpt lat="45.92763" lon="4.73731">
        <ele>181.300003052</ele>
        <time>2015-12-12T09:13:45.801Z</time>
      </trkpt>
      <trkpt lat="45.92768" lon="4.73733">
        <ele>181.699996948</ele>
        <time>2015-12-12T09:13:46.782Z</time>
      </trkpt>
      <trkpt lat="45.92776" lon="4.73736">
        <ele>182.5</ele>
        <time>2015-12-12T09:13:48.887Z</time>
      </trkpt>
      <trkpt lat="45.92781" lon="4.73738">
        <ele>182.199996948</ele>
        <time>2015-12-12T09:13:49.793Z</time>
      </trkpt>
      <trkpt lat="45.92787" lon="4.73733">
        <ele>182</ele>
        <time>2015-12-12T09:13:51.795Z</time>
      </trkpt>
      <trkpt lat="45.92789" lon="4.73727">
        <ele>182.300003052</ele>
        <time>2015-12-12T09:13:52.787Z</time>
      </trkpt>
      <trkpt lat="45.9279" lon="4.7372">
        <ele>181.800003052</ele>
        <time>2015-12-12T09:13:53.962Z</time>
      </trkpt>
      <trkpt lat="45.92792" lon="4.73713">
        <ele>181.600006104</ele>
        <time>2015-12-12T09:13:54.847Z</time>
      </trkpt>
      <trkpt lat="45.92793" lon="4.73706">
        <ele>181.699996948</ele>
        <time>2015-12-12T09:13:55.797Z</time>
      </trkpt>
      <trkpt lat="45.92795" lon="4.73698">
        <ele>181.399993896</ele>
        <time>2015-12-12T09:13:56.778Z</time>
      </trkpt>
      <trkpt lat="45.92796" lon="4.73691">
        <ele>181.100006104</ele>
        <time>2015-12-12T09:13:57.795Z</time>
      </trkpt>
      <trkpt lat="45.92797" lon="4.73684">
        <ele>181</ele>
        <time>2015-12-12T09:13:58.776Z</time>
      </trkpt>
      <trkpt lat="45.92799" lon="4.73677">
        <ele>181.199996948</ele>
        <time>2015-12-12T09:13:59.799Z</time>
      </trkpt>
      <trkpt lat="45.928" lon="4.73671">
        <ele>181</ele>
        <time>2015-12-12T09:14:00.776Z</time>
      </trkpt>
      <trkpt lat="45.92801" lon="4.73664">
        <ele>181.100006104</ele>
        <time>2015-12-12T09:14:01.795Z</time>
      </trkpt>
      <trkpt lat="45.92803" lon="4.73657">
        <ele>181</ele>
        <time>2015-12-12T09:14:02.776Z</time>
      </trkpt>
      <trkpt lat="45.92806" lon="4.73646">
        <ele>180.899993896</ele>
        <time>2015-12-12T09:14:04.812Z</time>
      </trkpt>
      <trkpt lat="45.92806" lon="4.73643">
        <ele>180.800003052</ele>
        <time>2015-12-12T09:14:05.78Z</time>
      </trkpt>
      <trkpt lat="45.92814" lon="4.73639">
        <ele>179</ele>
        <time>2015-12-12T09:14:13.796Z</time>
      </trkpt>
      <trkpt lat="45.92815" lon="4.73638">
        <ele>179.100006104</ele>
        <time>2015-12-12T09:14:14.777Z</time>
      </trkpt>
      <trkpt lat="45.92816" lon="4.73636">
        <ele>179.100006104</ele>
        <time>2015-12-12T09:14:15.795Z</time>
      </trkpt>
      <trkpt lat="45.92817" lon="4.73633">
        <ele>178.899993896</ele>
        <time>2015-12-12T09:14:16.778Z</time>
      </trkpt>
      <trkpt lat="45.92819" lon="4.73621">
        <ele>178.399993896</ele>
        <time>2015-12-12T09:14:18.832Z</time>
      </trkpt>
      <trkpt lat="45.92819" lon="4.73614">
        <ele>177.699996948</ele>
        <time>2015-12-12T09:14:19.789Z</time>
      </trkpt>
      <trkpt lat="45.92819" lon="4.73607">
        <ele>177.399993896</ele>
        <time>2015-12-12T09:14:20.796Z</time>
      </trkpt>
      <trkpt lat="45.92819" lon="4.736">
        <ele>177.100006104</ele>
        <time>2015-12-12T09:14:21.778Z</time>
      </trkpt>
      <trkpt lat="45.9282" lon="4.73593">
        <ele>177.100006104</ele>
        <time>2015-12-12T09:14:22.882Z</time>
      </trkpt>
      <trkpt lat="45.9282" lon="4.73586">
        <ele>176.899993896</ele>
        <time>2015-12-12T09:14:23.779Z</time>
      </trkpt>
      <trkpt lat="45.9282" lon="4.73578">
        <ele>176.800003052</ele>
        <time>2015-12-12T09:14:24.805Z</time>
      </trkpt>
      <trkpt lat="45.9282" lon="4.73571">
        <ele>176.5</ele>
        <time>2015-12-12T09:14:25.792Z</time>
      </trkpt>
      <trkpt lat="45.92821" lon="4.73563">
        <ele>176.399993896</ele>
        <time>2015-12-12T09:14:26.802Z</time>
      </trkpt>
      <trkpt lat="45.92822" lon="4.73556">
        <ele>176.100006104</ele>
        <time>2015-12-12T09:14:27.778Z</time>
      </trkpt>
      <trkpt lat="45.92822" lon="4.73547">
        <ele>175.899993896</ele>
        <time>2015-12-12T09:14:28.795Z</time>
      </trkpt>
      <trkpt lat="45.92823" lon="4.73539">
        <ele>175.800003052</ele>
        <time>2015-12-12T09:14:29.78Z</time>
      </trkpt>
      <trkpt lat="45.92824" lon="4.73532">
        <ele>175.899993896</ele>
        <time>2015-12-12T09:14:30.797Z</time>
      </trkpt>
      <trkpt lat="45.92824" lon="4.73523">
        <ele>175.800003052</ele>
        <time>2015-12-12T09:14:31.777Z</time>
      </trkpt>
      <trkpt lat="45.92826" lon="4.73515">
        <ele>175.600006104</ele>
        <time>2015-12-12T09:14:32.794Z</time>
      </trkpt>
      <trkpt lat="45.92826" lon="4.73506">
        <ele>175.699996948</ele>
        <time>2015-12-12T09:14:33.777Z</time>
      </trkpt>
      <trkpt lat="45.92827" lon="4.73497">
        <ele>175.600006104</ele>
        <time>2015-12-12T09:14:34.851Z</time>
      </trkpt>
      <trkpt lat="45.92828" lon="4.73488">
        <ele>175.5</ele>
        <time>2015-12-12T09:14:35.78Z</time>
      </trkpt>
      <trkpt lat="45.92829" lon="4.73479">
        <ele>175.399993896</ele>
        <time>2015-12-12T09:14:36.804Z</time>
      </trkpt>
      <trkpt lat="45.92831" lon="4.7347">
        <ele>175.5</ele>
        <time>2015-12-12T09:14:37.777Z</time>
      </trkpt>
      <trkpt lat="45.92833" lon="4.73461">
        <ele>175.399993896</ele>
        <time>2015-12-12T09:14:38.794Z</time>
      </trkpt>
      <trkpt lat="45.92834" lon="4.73452">
        <ele>175.300003052</ele>
        <time>2015-12-12T09:14:39.776Z</time>
      </trkpt>
      <trkpt lat="45.92836" lon="4.73442">
        <ele>175.199996948</ele>
        <time>2015-12-12T09:14:40.795Z</time>
      </trkpt>
      <trkpt lat="45.92837" lon="4.73433">
        <ele>175.199996948</ele>
        <time>2015-12-12T09:14:41.78Z</time>
      </trkpt>
      <trkpt lat="45.92838" lon="4.73424">
        <ele>175.199996948</ele>
        <time>2015-12-12T09:14:42.795Z</time>
      </trkpt>
      <trkpt lat="45.92839" lon="4.73415">
        <ele>175.300003052</ele>
        <time>2015-12-12T09:14:43.778Z</time>
      </trkpt>
      <trkpt lat="45.92839" lon="4.73406">
        <ele>175.300003052</ele>
        <time>2015-12-12T09:14:44.803Z</time>
      </trkpt>
      <trkpt lat="45.9284" lon="4.73396">
        <ele>175</ele>
        <time>2015-12-12T09:14:45.776Z</time>
      </trkpt>
      <trkpt lat="45.92841" lon="4.73387">
        <ele>174.800003052</ele>
        <time>2015-12-12T09:14:46.819Z</time>
      </trkpt>
      <trkpt lat="45.92842" lon="4.73378">
        <ele>174.600006104</ele>
        <time>2015-12-12T09:14:47.78Z</time>
      </trkpt>
      <trkpt lat="45.92844" lon="4.73369">
        <ele>174.800003052</ele>
        <time>2015-12-12T09:14:48.836Z</time>
      </trkpt>
      <trkpt lat="45.92845" lon="4.73361">
        <ele>174.800003052</ele>
        <time>2015-12-12T09:14:49.777Z</time>
      </trkpt>
      <trkpt lat="45.92846" lon="4.73352">
        <ele>174.800003052</ele>
        <time>2015-12-12T09:14:50.796Z</time>
      </trkpt>
      <trkpt lat="45.92847" lon="4.73342">
        <ele>174.800003052</ele>
        <time>2015-12-12T09:14:51.776Z</time>
      </trkpt>
      <trkpt lat="45.92848" lon="4.73333">
        <ele>175.100006104</ele>
        <time>2015-12-12T09:14:52.795Z</time>
      </trkpt>
      <trkpt lat="45.92849" lon="4.73324">
        <ele>175.100006104</ele>
        <time>2015-12-12T09:14:53.779Z</time>
      </trkpt>
      <trkpt lat="45.9285" lon="4.73314">
        <ele>175.199996948</ele>
        <time>2015-12-12T09:14:54.794Z</time>
      </trkpt>
      <trkpt lat="45.92851" lon="4.73305">
        <ele>175.399993896</ele>
        <time>2015-12-12T09:14:55.778Z</time>
      </trkpt>
      <trkpt lat="45.92853" lon="4.73296">
        <ele>175.600006104</ele>
        <time>2015-12-12T09:14:56.808Z</time>
      </trkpt>
      <trkpt lat="45.92854" lon="4.73286">
        <ele>175.800003052</ele>
        <time>2015-12-12T09:14:57.776Z</time>
      </trkpt>
      <trkpt lat="45.92855" lon="4.73277">
        <ele>176</ele>
        <time>2015-12-12T09:14:58.863Z</time>
      </trkpt>
      <trkpt lat="45.92857" lon="4.73267">
        <ele>175.800003052</ele>
        <time>2015-12-12T09:14:59.779Z</time>
      </trkpt>
      <trkpt lat="45.92858" lon="4.73257">
        <ele>175.300003052</ele>
        <time>2015-12-12T09:15:00.794Z</time>
      </trkpt>
      <trkpt lat="45.92859" lon="4.73248">
        <ele>174.899993896</ele>
        <time>2015-12-12T09:15:01.776Z</time>
      </trkpt>
      <trkpt lat="45.92861" lon="4.73238">
        <ele>175.100006104</ele>
        <time>2015-12-12T09:15:02.797Z</time>
      </trkpt>
      <trkpt lat="45.92862" lon="4.73228">
        <ele>175.100006104</ele>
        <time>2015-12-12T09:15:03.776Z</time>
      </trkpt>
      <trkpt lat="45.92862" lon="4.73219">
        <ele>174.899993896</ele>
        <time>2015-12-12T09:15:04.795Z</time>
      </trkpt>
      <trkpt lat="45.92864" lon="4.73209">
        <ele>174.5</ele>
        <time>2015-12-12T09:15:05.779Z</time>
      </trkpt>
      <trkpt lat="45.92865" lon="4.73199">
        <ele>174</ele>
        <time>2015-12-12T09:15:06.803Z</time>
      </trkpt>
      <trkpt lat="45.92866" lon="4.7319">
        <ele>173</ele>
        <time>2015-12-12T09:15:07.792Z</time>
      </trkpt>
      <trkpt lat="45.92867" lon="4.7318">
        <ele>172.800003052</ele>
        <time>2015-12-12T09:15:08.794Z</time>
      </trkpt>
      <trkpt lat="45.92868" lon="4.7317">
        <ele>172.699996948</ele>
        <time>2015-12-12T09:15:09.777Z</time>
      </trkpt>
      <trkpt lat="45.92869" lon="4.73161">
        <ele>172.399993896</ele>
        <time>2015-12-12T09:15:10.795Z</time>
      </trkpt>
      <trkpt lat="45.92871" lon="4.73151">
        <ele>172</ele>
        <time>2015-12-12T09:15:11.78Z</time>
      </trkpt>
      <trkpt lat="45.92872" lon="4.73141">
        <ele>172</ele>
        <time>2015-12-12T09:15:12.797Z</time>
      </trkpt>
      <trkpt lat="45.92874" lon="4.73132">
        <ele>172.300003052</ele>
        <time>2015-12-12T09:15:13.777Z</time>
      </trkpt>
      <trkpt lat="45.92876" lon="4.73122">
        <ele>172.300003052</ele>
        <time>2015-12-12T09:15:14.796Z</time>
      </trkpt>
      <trkpt lat="45.92878" lon="4.73114">
        <ele>172.5</ele>
        <time>2015-12-12T09:15:15.776Z</time>
      </trkpt>
      <trkpt lat="45.9288" lon="4.73105">
        <ele>172.600006104</ele>
        <time>2015-12-12T09:15:16.804Z</time>
      </trkpt>
      <trkpt lat="45.92883" lon="4.73096">
        <ele>172.600006104</ele>
        <time>2015-12-12T09:15:17.779Z</time>
      </trkpt>
      <trkpt lat="45.92886" lon="4.73088">
        <ele>172.699996948</ele>
        <time>2015-12-12T09:15:18.795Z</time>
      </trkpt>
      <trkpt lat="45.9289" lon="4.73079">
        <ele>172.800003052</ele>
        <time>2015-12-12T09:15:19.779Z</time>
      </trkpt>
      <trkpt lat="45.92894" lon="4.73072">
        <ele>172.699996948</ele>
        <time>2015-12-12T09:15:20.798Z</time>
      </trkpt>
      <trkpt lat="45.92898" lon="4.73064">
        <ele>172.5</ele>
        <time>2015-12-12T09:15:21.777Z</time>
      </trkpt>
      <trkpt lat="45.92901" lon="4.73057">
        <ele>172.399993896</ele>
        <time>2015-12-12T09:15:22.799Z</time>
      </trkpt>
      <trkpt lat="45.92906" lon="4.73049">
        <ele>172.399993896</ele>
        <time>2015-12-12T09:15:23.78Z</time>
      </trkpt>
      <trkpt lat="45.9291" lon="4.73042">
        <ele>172.300003052</ele>
        <time>2015-12-12T09:15:24.795Z</time>
      </trkpt>
      <trkpt lat="45.92915" lon="4.73035">
        <ele>172.399993896</ele>
        <time>2015-12-12T09:15:25.778Z</time>
      </trkpt>
      <trkpt lat="45.9292" lon="4.73029">
        <ele>172.399993896</ele>
        <time>2015-12-12T09:15:26.806Z</time>
      </trkpt>
      <trkpt lat="45.92925" lon="4.73023">
        <ele>172.300003052</ele>
        <time>2015-12-12T09:15:27.777Z</time>
      </trkpt>
      <trkpt lat="45.9293" lon="4.73016">
        <ele>172.199996948</ele>
        <time>2015-12-12T09:15:28.794Z</time>
      </trkpt>
      <trkpt lat="45.92935" lon="4.7301">
        <ele>172.100006104</ele>
        <time>2015-12-12T09:15:29.779Z</time>
      </trkpt>
      <trkpt lat="45.9294" lon="4.73003">
        <ele>172.100006104</ele>
        <time>2015-12-12T09:15:30.795Z</time>
      </trkpt>
      <trkpt lat="45.92945" lon="4.72997">
        <ele>172.199996948</ele>
        <time>2015-12-12T09:15:31.776Z</time>
      </trkpt>
      <trkpt lat="45.9295" lon="4.72991">
        <ele>172.100006104</ele>
        <time>2015-12-12T09:15:32.796Z</time>
      </trkpt>
      <trkpt lat="45.92956" lon="4.72985">
        <ele>172.199996948</ele>
        <time>2015-12-12T09:15:33.777Z</time>
      </trkpt>
      <trkpt lat="45.92961" lon="4.72979">
        <ele>172.600006104</ele>
        <time>2015-12-12T09:15:34.932Z</time>
      </trkpt>
      <trkpt lat="45.92966" lon="4.72973">
        <ele>172.699996948</ele>
        <time>2015-12-12T09:15:35.779Z</time>
      </trkpt>
      <trkpt lat="45.92971" lon="4.72967">
        <ele>172.899993896</ele>
        <time>2015-12-12T09:15:36.806Z</time>
      </trkpt>
      <trkpt lat="45.92976" lon="4.72961">
        <ele>173.100006104</ele>
        <time>2015-12-12T09:15:37.777Z</time>
      </trkpt>
      <trkpt lat="45.92981" lon="4.72955">
        <ele>173.399993896</ele>
        <time>2015-12-12T09:15:38.811Z</time>
      </trkpt>
      <trkpt lat="45.92986" lon="4.72949">
        <ele>173.300003052</ele>
        <time>2015-12-12T09:15:39.776Z</time>
      </trkpt>
      <trkpt lat="45.92992" lon="4.72943">
        <ele>173.399993896</ele>
        <time>2015-12-12T09:15:40.795Z</time>
      </trkpt>
      <trkpt lat="45.92996" lon="4.72936">
        <ele>173.5</ele>
        <time>2015-12-12T09:15:41.779Z</time>
      </trkpt>
      <trkpt lat="45.93002" lon="4.7293">
        <ele>173.5</ele>
        <time>2015-12-12T09:15:42.794Z</time>
      </trkpt>
      <trkpt lat="45.93007" lon="4.72924">
        <ele>173.600006104</ele>
        <time>2015-12-12T09:15:43.777Z</time>
      </trkpt>
      <trkpt lat="45.93012" lon="4.72917">
        <ele>173.600006104</ele>
        <time>2015-12-12T09:15:44.795Z</time>
      </trkpt>
      <trkpt lat="45.93018" lon="4.72911">
        <ele>174</ele>
        <time>2015-12-12T09:15:45.775Z</time>
      </trkpt>
      <trkpt lat="45.93023" lon="4.72905">
        <ele>174.100006104</ele>
        <time>2015-12-12T09:15:46.81Z</time>
      </trkpt>
      <trkpt lat="45.93029" lon="4.72898">
        <ele>173.899993896</ele>
        <time>2015-12-12T09:15:47.779Z</time>
      </trkpt>
      <trkpt lat="45.93034" lon="4.72892">
        <ele>173.800003052</ele>
        <time>2015-12-12T09:15:48.863Z</time>
      </trkpt>
      <trkpt lat="45.93039" lon="4.72885">
        <ele>173.600006104</ele>
        <time>2015-12-12T09:15:49.778Z</time>
      </trkpt>
      <trkpt lat="45.93045" lon="4.72879">
        <ele>173.699996948</ele>
        <time>2015-12-12T09:15:50.797Z</time>
      </trkpt>
      <trkpt lat="45.9305" lon="4.72873">
        <ele>173.800003052</ele>
        <time>2015-12-12T09:15:51.776Z</time>
      </trkpt>
      <trkpt lat="45.93055" lon="4.72866">
        <ele>173.899993896</ele>
        <time>2015-12-12T09:15:52.794Z</time>
      </trkpt>
      <trkpt lat="45.9306" lon="4.7286">
        <ele>173.899993896</ele>
        <time>2015-12-12T09:15:53.779Z</time>
      </trkpt>
      <trkpt lat="45.93065" lon="4.72855">
        <ele>174</ele>
        <time>2015-12-12T09:15:54.795Z</time>
      </trkpt>
      <trkpt lat="45.9307" lon="4.7285">
        <ele>174</ele>
        <time>2015-12-12T09:15:55.777Z</time>
      </trkpt>
      <trkpt lat="45.93076" lon="4.72845">
        <ele>174</ele>
        <time>2015-12-12T09:15:56.809Z</time>
      </trkpt>
      <trkpt lat="45.93081" lon="4.7284">
        <ele>174.100006104</ele>
        <time>2015-12-12T09:15:57.776Z</time>
      </trkpt>
      <trkpt lat="45.93086" lon="4.72835">
        <ele>174.100006104</ele>
        <time>2015-12-12T09:15:58.794Z</time>
      </trkpt>
      <trkpt lat="45.93091" lon="4.7283">
        <ele>174.100006104</ele>
        <time>2015-12-12T09:15:59.794Z</time>
      </trkpt>
      <trkpt lat="45.93097" lon="4.72821">
        <ele>173.800003052</ele>
        <time>2015-12-12T09:16:00.794Z</time>
      </trkpt>
      <trkpt lat="45.93102" lon="4.72814">
        <ele>173.800003052</ele>
        <time>2015-12-12T09:16:01.776Z</time>
      </trkpt>
      <trkpt lat="45.93107" lon="4.72806">
        <ele>173.600006104</ele>
        <time>2015-12-12T09:16:02.793Z</time>
      </trkpt>
      <trkpt lat="45.93113" lon="4.728">
        <ele>173.399993896</ele>
        <time>2015-12-12T09:16:03.776Z</time>
      </trkpt>
      <trkpt lat="45.93119" lon="4.72794">
        <ele>173.399993896</ele>
        <time>2015-12-12T09:16:04.794Z</time>
      </trkpt>
      <trkpt lat="45.93124" lon="4.72788">
        <ele>173.399993896</ele>
        <time>2015-12-12T09:16:05.779Z</time>
      </trkpt>
      <trkpt lat="45.93129" lon="4.72781">
        <ele>173.699996948</ele>
        <time>2015-12-12T09:16:06.811Z</time>
      </trkpt>
      <trkpt lat="45.93134" lon="4.72775">
        <ele>174</ele>
        <time>2015-12-12T09:16:07.778Z</time>
      </trkpt>
      <trkpt lat="45.9314" lon="4.72769">
        <ele>174.100006104</ele>
        <time>2015-12-12T09:16:08.795Z</time>
      </trkpt>
      <trkpt lat="45.93145" lon="4.72764">
        <ele>174.100006104</ele>
        <time>2015-12-12T09:16:09.776Z</time>
      </trkpt>
      <trkpt lat="45.93151" lon="4.72758">
        <ele>174.100006104</ele>
        <time>2015-12-12T09:16:10.809Z</time>
      </trkpt>
      <trkpt lat="45.93156" lon="4.72752">
        <ele>174</ele>
        <time>2015-12-12T09:16:11.91Z</time>
      </trkpt>
      <trkpt lat="45.93161" lon="4.72746">
        <ele>174</ele>
        <time>2015-12-12T09:16:12.795Z</time>
      </trkpt>
      <trkpt lat="45.93166" lon="4.7274">
        <ele>174.199996948</ele>
        <time>2015-12-12T09:16:13.777Z</time>
      </trkpt>
      <trkpt lat="45.93172" lon="4.72733">
        <ele>174.399993896</ele>
        <time>2015-12-12T09:16:14.797Z</time>
      </trkpt>
      <trkpt lat="45.93177" lon="4.72727">
        <ele>174.699996948</ele>
        <time>2015-12-12T09:16:15.776Z</time>
      </trkpt>
      <trkpt lat="45.93182" lon="4.72721">
        <ele>174.800003052</ele>
        <time>2015-12-12T09:16:16.812Z</time>
      </trkpt>
      <trkpt lat="45.93187" lon="4.72715">
        <ele>175.100006104</ele>
        <time>2015-12-12T09:16:17.779Z</time>
      </trkpt>
      <trkpt lat="45.93192" lon="4.72709">
        <ele>175.300003052</ele>
        <time>2015-12-12T09:16:18.795Z</time>
      </trkpt>
      <trkpt lat="45.93197" lon="4.72703">
        <ele>175.399993896</ele>
        <time>2015-12-12T09:16:19.777Z</time>
      </trkpt>
      <trkpt lat="45.93202" lon="4.72696">
        <ele>175.199996948</ele>
        <time>2015-12-12T09:16:20.795Z</time>
      </trkpt>
      <trkpt lat="45.93207" lon="4.7269">
        <ele>174.800003052</ele>
        <time>2015-12-12T09:16:21.774Z</time>
      </trkpt>
      <trkpt lat="45.93212" lon="4.72683">
        <ele>174.5</ele>
        <time>2015-12-12T09:16:22.935Z</time>
      </trkpt>
      <trkpt lat="45.93217" lon="4.72677">
        <ele>174.5</ele>
        <time>2015-12-12T09:16:23.779Z</time>
      </trkpt>
      <trkpt lat="45.93222" lon="4.72671">
        <ele>174.100006104</ele>
        <time>2015-12-12T09:16:24.793Z</time>
      </trkpt>
      <trkpt lat="45.93227" lon="4.72665">
        <ele>173.800003052</ele>
        <time>2015-12-12T09:16:25.778Z</time>
      </trkpt>
      <trkpt lat="45.93232" lon="4.72658">
        <ele>173.100006104</ele>
        <time>2015-12-12T09:16:26.834Z</time>
      </trkpt>
      <trkpt lat="45.93237" lon="4.72652">
        <ele>173</ele>
        <time>2015-12-12T09:16:27.776Z</time>
      </trkpt>
      <trkpt lat="45.93242" lon="4.72646">
        <ele>172.5</ele>
        <time>2015-12-12T09:16:28.793Z</time>
      </trkpt>
      <trkpt lat="45.93248" lon="4.7264">
        <ele>172.5</ele>
        <time>2015-12-12T09:16:29.779Z</time>
      </trkpt>
      <trkpt lat="45.93253" lon="4.72634">
        <ele>172.100006104</ele>
        <time>2015-12-12T09:16:30.795Z</time>
      </trkpt>
      <trkpt lat="45.93258" lon="4.72628">
        <ele>172</ele>
        <time>2015-12-12T09:16:31.777Z</time>
      </trkpt>
      <trkpt lat="45.93263" lon="4.72622">
        <ele>172.199996948</ele>
        <time>2015-12-12T09:16:32.846Z</time>
      </trkpt>
      <trkpt lat="45.93269" lon="4.72616">
        <ele>172.199996948</ele>
        <time>2015-12-12T09:16:33.777Z</time>
      </trkpt>
      <trkpt lat="45.93274" lon="4.7261">
        <ele>172</ele>
        <time>2015-12-12T09:16:34.795Z</time>
      </trkpt>
      <trkpt lat="45.93279" lon="4.72604">
        <ele>171.699996948</ele>
        <time>2015-12-12T09:16:35.779Z</time>
      </trkpt>
      <trkpt lat="45.93284" lon="4.72598">
        <ele>171.699996948</ele>
        <time>2015-12-12T09:16:36.813Z</time>
      </trkpt>
      <trkpt lat="45.93289" lon="4.72592">
        <ele>171.899993896</ele>
        <time>2015-12-12T09:16:37.778Z</time>
      </trkpt>
      <trkpt lat="45.93294" lon="4.72586">
        <ele>171.800003052</ele>
        <time>2015-12-12T09:16:38.794Z</time>
      </trkpt>
      <trkpt lat="45.93299" lon="4.72579">
        <ele>172.100006104</ele>
        <time>2015-12-12T09:16:39.776Z</time>
      </trkpt>
      <trkpt lat="45.93304" lon="4.72574">
        <ele>172.199996948</ele>
        <time>2015-12-12T09:16:40.795Z</time>
      </trkpt>
      <trkpt lat="45.9331" lon="4.72568">
        <ele>172.699996948</ele>
        <time>2015-12-12T09:16:41.779Z</time>
      </trkpt>
      <trkpt lat="45.93315" lon="4.72562">
        <ele>172.899993896</ele>
        <time>2015-12-12T09:16:42.793Z</time>
      </trkpt>
      <trkpt lat="45.93321" lon="4.72556">
        <ele>173.199996948</ele>
        <time>2015-12-12T09:16:43.777Z</time>
      </trkpt>
      <trkpt lat="45.93326" lon="4.7255">
        <ele>173.399993896</ele>
        <time>2015-12-12T09:16:44.793Z</time>
      </trkpt>
      <trkpt lat="45.93331" lon="4.72543">
        <ele>173.399993896</ele>
        <time>2015-12-12T09:16:45.777Z</time>
      </trkpt>
      <trkpt lat="45.93337" lon="4.72537">
        <ele>173.5</ele>
        <time>2015-12-12T09:16:46.814Z</time>
      </trkpt>
      <trkpt lat="45.93342" lon="4.72531">
        <ele>173.800003052</ele>
        <time>2015-12-12T09:16:47.793Z</time>
      </trkpt>
      <trkpt lat="45.93347" lon="4.72525">
        <ele>173.699996948</ele>
        <time>2015-12-12T09:16:48.793Z</time>
      </trkpt>
      <trkpt lat="45.93352" lon="4.72519">
        <ele>173.5</ele>
        <time>2015-12-12T09:16:49.777Z</time>
      </trkpt>
      <trkpt lat="45.93358" lon="4.72513">
        <ele>173.199996948</ele>
        <time>2015-12-12T09:16:50.796Z</time>
      </trkpt>
      <trkpt lat="45.93363" lon="4.72507">
        <ele>173</ele>
        <time>2015-12-12T09:16:51.776Z</time>
      </trkpt>
      <trkpt lat="45.93368" lon="4.72501">
        <ele>173.199996948</ele>
        <time>2015-12-12T09:16:52.793Z</time>
      </trkpt>
      <trkpt lat="45.93373" lon="4.72495">
        <ele>173.199996948</ele>
        <time>2015-12-12T09:16:53.779Z</time>
      </trkpt>
      <trkpt lat="45.93378" lon="4.7249">
        <ele>173</ele>
        <time>2015-12-12T09:16:54.793Z</time>
      </trkpt>
      <trkpt lat="45.93383" lon="4.72485">
        <ele>173</ele>
        <time>2015-12-12T09:16:55.777Z</time>
      </trkpt>
      <trkpt lat="45.93388" lon="4.7248">
        <ele>173.399993896</ele>
        <time>2015-12-12T09:16:56.818Z</time>
      </trkpt>
      <trkpt lat="45.93392" lon="4.72474">
        <ele>173.800003052</ele>
        <time>2015-12-12T09:16:57.801Z</time>
      </trkpt>
      <trkpt lat="45.93395" lon="4.72469">
        <ele>174.300003052</ele>
        <time>2015-12-12T09:16:58.971Z</time>
      </trkpt>
      <trkpt lat="45.93398" lon="4.72462">
        <ele>174.399993896</ele>
        <time>2015-12-12T09:16:59.779Z</time>
      </trkpt>
      <trkpt lat="45.934" lon="4.72455">
        <ele>174.699996948</ele>
        <time>2015-12-12T09:17:00.794Z</time>
      </trkpt>
      <trkpt lat="45.93402" lon="4.72448">
        <ele>174.800003052</ele>
        <time>2015-12-12T09:17:01.776Z</time>
      </trkpt>
      <trkpt lat="45.93405" lon="4.72441">
        <ele>174.899993896</ele>
        <time>2015-12-12T09:17:02.793Z</time>
      </trkpt>
      <trkpt lat="45.93408" lon="4.72434">
        <ele>175.399993896</ele>
        <time>2015-12-12T09:17:03.776Z</time>
      </trkpt>
      <trkpt lat="45.93411" lon="4.72428">
        <ele>175.100006104</ele>
        <time>2015-12-12T09:17:04.793Z</time>
      </trkpt>
      <trkpt lat="45.93415" lon="4.72422">
        <ele>175.100006104</ele>
        <time>2015-12-12T09:17:05.779Z</time>
      </trkpt>
      <trkpt lat="45.93421" lon="4.72418">
        <ele>175.100006104</ele>
        <time>2015-12-12T09:17:06.821Z</time>
      </trkpt>
      <trkpt lat="45.93426" lon="4.72415">
        <ele>174.899993896</ele>
        <time>2015-12-12T09:17:07.778Z</time>
      </trkpt>
      <trkpt lat="45.93432" lon="4.72412">
        <ele>174.600006104</ele>
        <time>2015-12-12T09:17:08.81Z</time>
      </trkpt>
      <trkpt lat="45.93437" lon="4.72409">
        <ele>175.100006104</ele>
        <time>2015-12-12T09:17:09.776Z</time>
      </trkpt>
      <trkpt lat="45.93443" lon="4.72406">
        <ele>175.100006104</ele>
        <time>2015-12-12T09:17:10.931Z</time>
      </trkpt>
      <trkpt lat="45.93448" lon="4.72401">
        <ele>175.699996948</ele>
        <time>2015-12-12T09:17:11.78Z</time>
      </trkpt>
      <trkpt lat="45.93453" lon="4.72396">
        <ele>176.300003052</ele>
        <time>2015-12-12T09:17:12.793Z</time>
      </trkpt>
      <trkpt lat="45.93459" lon="4.72391">
        <ele>176.100006104</ele>
        <time>2015-12-12T09:17:13.777Z</time>
      </trkpt>
      <trkpt lat="45.93464" lon="4.72386">
        <ele>176</ele>
        <time>2015-12-12T09:17:14.794Z</time>
      </trkpt>
      <trkpt lat="45.93469" lon="4.7238">
        <ele>175.800003052</ele>
        <time>2015-12-12T09:17:15.776Z</time>
      </trkpt>
      <trkpt lat="45.93474" lon="4.72374">
        <ele>175.899993896</ele>
        <time>2015-12-12T09:17:16.817Z</time>
      </trkpt>
      <trkpt lat="45.93478" lon="4.72367">
        <ele>175.800003052</ele>
        <time>2015-12-12T09:17:17.779Z</time>
      </trkpt>
      <trkpt lat="45.93482" lon="4.72361">
        <ele>175.699996948</ele>
        <time>2015-12-12T09:17:18.807Z</time>
      </trkpt>
      <trkpt lat="45.93487" lon="4.72355">
        <ele>175.600006104</ele>
        <time>2015-12-12T09:17:19.777Z</time>
      </trkpt>
      <trkpt lat="45.93492" lon="4.72349">
        <ele>175.5</ele>
        <time>2015-12-12T09:17:20.793Z</time>
      </trkpt>
      <trkpt lat="45.93496" lon="4.72343">
        <ele>175.399993896</ele>
        <time>2015-12-12T09:17:21.776Z</time>
      </trkpt>
      <trkpt lat="45.93501" lon="4.72337">
        <ele>175.399993896</ele>
        <time>2015-12-12T09:17:22.793Z</time>
      </trkpt>
      <trkpt lat="45.93505" lon="4.72331">
        <ele>175.399993896</ele>
        <time>2015-12-12T09:17:23.779Z</time>
      </trkpt>
      <trkpt lat="45.93509" lon="4.72325">
        <ele>175.800003052</ele>
        <time>2015-12-12T09:17:24.857Z</time>
      </trkpt>
      <trkpt lat="45.93513" lon="4.72318">
        <ele>176.399993896</ele>
        <time>2015-12-12T09:17:25.777Z</time>
      </trkpt>
      <trkpt lat="45.93517" lon="4.72312">
        <ele>176.399993896</ele>
        <time>2015-12-12T09:17:26.821Z</time>
      </trkpt>
      <trkpt lat="45.9352" lon="4.72307">
        <ele>176.5</ele>
        <time>2015-12-12T09:17:27.776Z</time>
      </trkpt>
      <trkpt lat="45.93524" lon="4.723">
        <ele>176.600006104</ele>
        <time>2015-12-12T09:17:28.793Z</time>
      </trkpt>
      <trkpt lat="45.93526" lon="4.72294">
        <ele>176.600006104</ele>
        <time>2015-12-12T09:17:29.779Z</time>
      </trkpt>
      <trkpt lat="45.93529" lon="4.72287">
        <ele>176.399993896</ele>
        <time>2015-12-12T09:17:30.792Z</time>
      </trkpt>
      <trkpt lat="45.93532" lon="4.72281">
        <ele>176.5</ele>
        <time>2015-12-12T09:17:31.776Z</time>
      </trkpt>
      <trkpt lat="45.93535" lon="4.72274">
        <ele>176.5</ele>
        <time>2015-12-12T09:17:32.803Z</time>
      </trkpt>
      <trkpt lat="45.93537" lon="4.72268">
        <ele>176.300003052</ele>
        <time>2015-12-12T09:17:33.776Z</time>
      </trkpt>
      <trkpt lat="45.9354" lon="4.72261">
        <ele>176.100006104</ele>
        <time>2015-12-12T09:17:34.792Z</time>
      </trkpt>
      <trkpt lat="45.93542" lon="4.72254">
        <ele>175.800003052</ele>
        <time>2015-12-12T09:17:35.779Z</time>
      </trkpt>
      <trkpt lat="45.93545" lon="4.72247">
        <ele>175.5</ele>
        <time>2015-12-12T09:17:36.82Z</time>
      </trkpt>
      <trkpt lat="45.93548" lon="4.7224">
        <ele>175.300003052</ele>
        <time>2015-12-12T09:17:37.777Z</time>
      </trkpt>
      <trkpt lat="45.93551" lon="4.72234">
        <ele>174.800003052</ele>
        <time>2015-12-12T09:17:38.794Z</time>
      </trkpt>
      <trkpt lat="45.93555" lon="4.72227">
        <ele>174.699996948</ele>
        <time>2015-12-12T09:17:39.777Z</time>
      </trkpt>
      <trkpt lat="45.9356" lon="4.72221">
        <ele>174.600006104</ele>
        <time>2015-12-12T09:17:40.813Z</time>
      </trkpt>
      <trkpt lat="45.93564" lon="4.72216">
        <ele>174.899993896</ele>
        <time>2015-12-12T09:17:41.78Z</time>
      </trkpt>
      <trkpt lat="45.93569" lon="4.7221">
        <ele>174.600006104</ele>
        <time>2015-12-12T09:17:42.794Z</time>
      </trkpt>
      <trkpt lat="45.93574" lon="4.72205">
        <ele>174.5</ele>
        <time>2015-12-12T09:17:43.777Z</time>
      </trkpt>
      <trkpt lat="45.93579" lon="4.722">
        <ele>173.699996948</ele>
        <time>2015-12-12T09:17:44.794Z</time>
      </trkpt>
      <trkpt lat="45.93584" lon="4.72195">
        <ele>173.399993896</ele>
        <time>2015-12-12T09:17:45.776Z</time>
      </trkpt>
      <trkpt lat="45.93589" lon="4.7219">
        <ele>173.199996948</ele>
        <time>2015-12-12T09:17:46.827Z</time>
      </trkpt>
      <trkpt lat="45.93595" lon="4.72186">
        <ele>173</ele>
        <time>2015-12-12T09:17:47.908Z</time>
      </trkpt>
      <trkpt lat="45.936" lon="4.72181">
        <ele>172.899993896</ele>
        <time>2015-12-12T09:17:48.793Z</time>
      </trkpt>
      <trkpt lat="45.93606" lon="4.72176">
        <ele>172.699996948</ele>
        <time>2015-12-12T09:17:49.773Z</time>
      </trkpt>
      <trkpt lat="45.93611" lon="4.72172">
        <ele>173.100006104</ele>
        <time>2015-12-12T09:17:50.795Z</time>
      </trkpt>
      <trkpt lat="45.93616" lon="4.72167">
        <ele>173</ele>
        <time>2015-12-12T09:17:51.777Z</time>
      </trkpt>
      <trkpt lat="45.93621" lon="4.72162">
        <ele>173.600006104</ele>
        <time>2015-12-12T09:17:52.793Z</time>
      </trkpt>
      <trkpt lat="45.93626" lon="4.72156">
        <ele>173.600006104</ele>
        <time>2015-12-12T09:17:53.779Z</time>
      </trkpt>
      <trkpt lat="45.9363" lon="4.7215">
        <ele>173.800003052</ele>
        <time>2015-12-12T09:17:54.792Z</time>
      </trkpt>
      <trkpt lat="45.93635" lon="4.72145">
        <ele>174.100006104</ele>
        <time>2015-12-12T09:17:55.777Z</time>
      </trkpt>
      <trkpt lat="45.93638" lon="4.72139">
        <ele>174.399993896</ele>
        <time>2015-12-12T09:17:56.84Z</time>
      </trkpt>
      <trkpt lat="45.93642" lon="4.72132">
        <ele>174.300003052</ele>
        <time>2015-12-12T09:17:57.776Z</time>
      </trkpt>
      <trkpt lat="45.93645" lon="4.72126">
        <ele>174.399993896</ele>
        <time>2015-12-12T09:17:58.796Z</time>
      </trkpt>
      <trkpt lat="45.93648" lon="4.7212">
        <ele>174.699996948</ele>
        <time>2015-12-12T09:17:59.779Z</time>
      </trkpt>
      <trkpt lat="45.93652" lon="4.72114">
        <ele>174.600006104</ele>
        <time>2015-12-12T09:18:00.793Z</time>
      </trkpt>
      <trkpt lat="45.93655" lon="4.72108">
        <ele>174.699996948</ele>
        <time>2015-12-12T09:18:01.776Z</time>
      </trkpt>
      <trkpt lat="45.93659" lon="4.72102">
        <ele>174.899993896</ele>
        <time>2015-12-12T09:18:02.792Z</time>
      </trkpt>
      <trkpt lat="45.93663" lon="4.72096">
        <ele>174.699996948</ele>
        <time>2015-12-12T09:18:03.776Z</time>
      </trkpt>
      <trkpt lat="45.93666" lon="4.72089">
        <ele>174.699996948</ele>
        <time>2015-12-12T09:18:04.794Z</time>
      </trkpt>
      <trkpt lat="45.9367" lon="4.72083">
        <ele>174.800003052</ele>
        <time>2015-12-12T09:18:05.779Z</time>
      </trkpt>
      <trkpt lat="45.93674" lon="4.72076">
        <ele>175.100006104</ele>
        <time>2015-12-12T09:18:06.821Z</time>
      </trkpt>
      <trkpt lat="45.93678" lon="4.72069">
        <ele>175.300003052</ele>
        <time>2015-12-12T09:18:07.778Z</time>
      </trkpt>
      <trkpt lat="45.93681" lon="4.72062">
        <ele>175.399993896</ele>
        <time>2015-12-12T09:18:08.793Z</time>
      </trkpt>
      <trkpt lat="45.93685" lon="4.72055">
        <ele>175.5</ele>
        <time>2015-12-12T09:18:09.776Z</time>
      </trkpt>
      <trkpt lat="45.93689" lon="4.72048">
        <ele>175.699996948</ele>
        <time>2015-12-12T09:18:10.793Z</time>
      </trkpt>
      <trkpt lat="45.93693" lon="4.72041">
        <ele>175.699996948</ele>
        <time>2015-12-12T09:18:11.78Z</time>
      </trkpt>
      <trkpt lat="45.93697" lon="4.72034">
        <ele>175.800003052</ele>
        <time>2015-12-12T09:18:12.831Z</time>
      </trkpt>
      <trkpt lat="45.93701" lon="4.72028">
        <ele>175.800003052</ele>
        <time>2015-12-12T09:18:13.777Z</time>
      </trkpt>
      <trkpt lat="45.93705" lon="4.72022">
        <ele>175.800003052</ele>
        <time>2015-12-12T09:18:14.795Z</time>
      </trkpt>
      <trkpt lat="45.9371" lon="4.72015">
        <ele>175.399993896</ele>
        <time>2015-12-12T09:18:15.776Z</time>
      </trkpt>
      <trkpt lat="45.93714" lon="4.72008">
        <ele>175.300003052</ele>
        <time>2015-12-12T09:18:16.821Z</time>
      </trkpt>
      <trkpt lat="45.93718" lon="4.72">
        <ele>175.100006104</ele>
        <time>2015-12-12T09:18:17.796Z</time>
      </trkpt>
      <trkpt lat="45.93722" lon="4.71993">
        <ele>175.100006104</ele>
        <time>2015-12-12T09:18:18.796Z</time>
      </trkpt>
      <trkpt lat="45.93726" lon="4.71986">
        <ele>175.199996948</ele>
        <time>2015-12-12T09:18:19.778Z</time>
      </trkpt>
      <trkpt lat="45.93731" lon="4.71981">
        <ele>175.399993896</ele>
        <time>2015-12-12T09:18:20.794Z</time>
      </trkpt>
      <trkpt lat="45.93735" lon="4.71975">
        <ele>175.600006104</ele>
        <time>2015-12-12T09:18:21.776Z</time>
      </trkpt>
      <trkpt lat="45.9374" lon="4.71968">
        <ele>175.899993896</ele>
        <time>2015-12-12T09:18:22.793Z</time>
      </trkpt>
      <trkpt lat="45.93745" lon="4.71965">
        <ele>176.5</ele>
        <time>2015-12-12T09:18:23.779Z</time>
      </trkpt>
      <trkpt lat="45.93749" lon="4.71961">
        <ele>176.699996948</ele>
        <time>2015-12-12T09:18:24.795Z</time>
      </trkpt>
      <trkpt lat="45.93753" lon="4.71957">
        <ele>176.800003052</ele>
        <time>2015-12-12T09:18:25.778Z</time>
      </trkpt>
      <trkpt lat="45.93757" lon="4.71953">
        <ele>176.699996948</ele>
        <time>2015-12-12T09:18:26.817Z</time>
      </trkpt>
      <trkpt lat="45.9376" lon="4.71949">
        <ele>176.699996948</ele>
        <time>2015-12-12T09:18:27.776Z</time>
      </trkpt>
      <trkpt lat="45.93763" lon="4.71943">
        <ele>177</ele>
        <time>2015-12-12T09:18:28.792Z</time>
      </trkpt>
      <trkpt lat="45.93766" lon="4.71938">
        <ele>177.300003052</ele>
        <time>2015-12-12T09:18:29.779Z</time>
      </trkpt>
      <trkpt lat="45.9377" lon="4.71932">
        <ele>177.5</ele>
        <time>2015-12-12T09:18:30.792Z</time>
      </trkpt>
      <trkpt lat="45.93774" lon="4.71927">
        <ele>177.699996948</ele>
        <time>2015-12-12T09:18:31.776Z</time>
      </trkpt>
      <trkpt lat="45.93777" lon="4.7192">
        <ele>177.800003052</ele>
        <time>2015-12-12T09:18:32.793Z</time>
      </trkpt>
      <trkpt lat="45.9378" lon="4.71912">
        <ele>177.899993896</ele>
        <time>2015-12-12T09:18:33.777Z</time>
      </trkpt>
      <trkpt lat="45.93782" lon="4.71904">
        <ele>177.899993896</ele>
        <time>2015-12-12T09:18:34.793Z</time>
      </trkpt>
      <trkpt lat="45.93783" lon="4.71895">
        <ele>177.899993896</ele>
        <time>2015-12-12T09:18:35.779Z</time>
      </trkpt>
      <trkpt lat="45.93784" lon="4.71887">
        <ele>178</ele>
        <time>2015-12-12T09:18:36.816Z</time>
      </trkpt>
      <trkpt lat="45.93786" lon="4.7188">
        <ele>178</ele>
        <time>2015-12-12T09:18:37.777Z</time>
      </trkpt>
      <trkpt lat="45.9379" lon="4.71873">
        <ele>178.100006104</ele>
        <time>2015-12-12T09:18:38.808Z</time>
      </trkpt>
      <trkpt lat="45.93794" lon="4.71867">
        <ele>178</ele>
        <time>2015-12-12T09:18:39.777Z</time>
      </trkpt>
      <trkpt lat="45.93799" lon="4.7186">
        <ele>178.199996948</ele>
        <time>2015-12-12T09:18:40.841Z</time>
      </trkpt>
      <trkpt lat="45.93803" lon="4.71853">
        <ele>178.300003052</ele>
        <time>2015-12-12T09:18:41.779Z</time>
      </trkpt>
      <trkpt lat="45.93808" lon="4.71846">
        <ele>178.399993896</ele>
        <time>2015-12-12T09:18:42.793Z</time>
      </trkpt>
      <trkpt lat="45.93812" lon="4.7184">
        <ele>178.600006104</ele>
        <time>2015-12-12T09:18:43.777Z</time>
      </trkpt>
      <trkpt lat="45.93816" lon="4.71832">
        <ele>178.699996948</ele>
        <time>2015-12-12T09:18:44.793Z</time>
      </trkpt>
      <trkpt lat="45.93821" lon="4.71825">
        <ele>178.800003052</ele>
        <time>2015-12-12T09:18:45.776Z</time>
      </trkpt>
      <trkpt lat="45.93826" lon="4.71818">
        <ele>178.899993896</ele>
        <time>2015-12-12T09:18:46.811Z</time>
      </trkpt>
      <trkpt lat="45.9383" lon="4.7181">
        <ele>179.100006104</ele>
        <time>2015-12-12T09:18:47.779Z</time>
      </trkpt>
      <trkpt lat="45.93834" lon="4.71802">
        <ele>179.100006104</ele>
        <time>2015-12-12T09:18:48.792Z</time>
      </trkpt>
      <trkpt lat="45.93839" lon="4.71795">
        <ele>179.600006104</ele>
        <time>2015-12-12T09:18:49.774Z</time>
      </trkpt>
      <trkpt lat="45.93845" lon="4.7179">
        <ele>179.300003052</ele>
        <time>2015-12-12T09:18:50.798Z</time>
      </trkpt>
      <trkpt lat="45.93849" lon="4.71782">
        <ele>179.5</ele>
        <time>2015-12-12T09:18:51.776Z</time>
      </trkpt>
      <trkpt lat="45.93854" lon="4.71775">
        <ele>179.399993896</ele>
        <time>2015-12-12T09:18:52.831Z</time>
      </trkpt>
      <trkpt lat="45.93859" lon="4.71769">
        <ele>179.5</ele>
        <time>2015-12-12T09:18:53.779Z</time>
      </trkpt>
      <trkpt lat="45.93864" lon="4.71762">
        <ele>179.800003052</ele>
        <time>2015-12-12T09:18:54.8Z</time>
      </trkpt>
      <trkpt lat="45.93868" lon="4.71756">
        <ele>179.899993896</ele>
        <time>2015-12-12T09:18:55.777Z</time>
      </trkpt>
      <trkpt lat="45.93873" lon="4.7175">
        <ele>179.800003052</ele>
        <time>2015-12-12T09:18:56.809Z</time>
      </trkpt>
      <trkpt lat="45.93878" lon="4.71744">
        <ele>179.600006104</ele>
        <time>2015-12-12T09:18:57.776Z</time>
      </trkpt>
      <trkpt lat="45.93883" lon="4.71738">
        <ele>179.399993896</ele>
        <time>2015-12-12T09:18:58.792Z</time>
      </trkpt>
      <trkpt lat="45.93889" lon="4.71733">
        <ele>179.600006104</ele>
        <time>2015-12-12T09:18:59.779Z</time>
      </trkpt>
      <trkpt lat="45.93894" lon="4.71727">
        <ele>179.5</ele>
        <time>2015-12-12T09:19:00.792Z</time>
      </trkpt>
      <trkpt lat="45.939" lon="4.71721">
        <ele>179.699996948</ele>
        <time>2015-12-12T09:19:01.776Z</time>
      </trkpt>
      <trkpt lat="45.93905" lon="4.71716">
        <ele>179.600006104</ele>
        <time>2015-12-12T09:19:02.792Z</time>
      </trkpt>
      <trkpt lat="45.9391" lon="4.7171">
        <ele>179.800003052</ele>
        <time>2015-12-12T09:19:03.776Z</time>
      </trkpt>
      <trkpt lat="45.93917" lon="4.71706">
        <ele>179.899993896</ele>
        <time>2015-12-12T09:19:04.793Z</time>
      </trkpt>
      <trkpt lat="45.93923" lon="4.71703">
        <ele>179.800003052</ele>
        <time>2015-12-12T09:19:05.779Z</time>
      </trkpt>
      <trkpt lat="45.9393" lon="4.71701">
        <ele>179.600006104</ele>
        <time>2015-12-12T09:19:06.808Z</time>
      </trkpt>
      <trkpt lat="45.93937" lon="4.71698">
        <ele>179.600006104</ele>
        <time>2015-12-12T09:19:07.777Z</time>
      </trkpt>
      <trkpt lat="45.93943" lon="4.71695">
        <ele>179.5</ele>
        <time>2015-12-12T09:19:08.807Z</time>
      </trkpt>
      <trkpt lat="45.9395" lon="4.71692">
        <ele>179.5</ele>
        <time>2015-12-12T09:19:09.776Z</time>
      </trkpt>
      <trkpt lat="45.93956" lon="4.71689">
        <ele>179.800003052</ele>
        <time>2015-12-12T09:19:10.808Z</time>
      </trkpt>
      <trkpt lat="45.93961" lon="4.71686">
        <ele>179.800003052</ele>
        <time>2015-12-12T09:19:11.779Z</time>
      </trkpt>
      <trkpt lat="45.93967" lon="4.71682">
        <ele>179.899993896</ele>
        <time>2015-12-12T09:19:12.793Z</time>
      </trkpt>
      <trkpt lat="45.93972" lon="4.71679">
        <ele>179.300003052</ele>
        <time>2015-12-12T09:19:13.777Z</time>
      </trkpt>
      <trkpt lat="45.93977" lon="4.71676">
        <ele>179.199996948</ele>
        <time>2015-12-12T09:19:14.793Z</time>
      </trkpt>
      <trkpt lat="45.93981" lon="4.71674">
        <ele>179.699996948</ele>
        <time>2015-12-12T09:19:15.775Z</time>
      </trkpt>
      <trkpt lat="45.93987" lon="4.71674">
        <ele>179.699996948</ele>
        <time>2015-12-12T09:19:17.796Z</time>
      </trkpt>
      <trkpt lat="45.9399" lon="4.71675">
        <ele>179.600006104</ele>
        <time>2015-12-12T09:19:18.776Z</time>
      </trkpt>
      <trkpt lat="45.93995" lon="4.71679">
        <ele>179.600006104</ele>
        <time>2015-12-12T09:19:20.793Z</time>
      </trkpt>
      <trkpt lat="45.93998" lon="4.71683">
        <ele>179.399993896</ele>
        <time>2015-12-12T09:19:21.776Z</time>
      </trkpt>
      <trkpt lat="45.94006" lon="4.71687">
        <ele>179.399993896</ele>
        <time>2015-12-12T09:19:23.796Z</time>
      </trkpt>
      <trkpt lat="45.94011" lon="4.71687">
        <ele>179.399993896</ele>
        <time>2015-12-12T09:19:24.788Z</time>
      </trkpt>
      <trkpt lat="45.94016" lon="4.71686">
        <ele>179.199996948</ele>
        <time>2015-12-12T09:19:25.795Z</time>
      </trkpt>
      <trkpt lat="45.94018" lon="4.71679">
        <ele>179.199996948</ele>
        <time>2015-12-12T09:19:26.795Z</time>
      </trkpt>
      <trkpt lat="45.94021" lon="4.71667">
        <ele>179</ele>
        <time>2015-12-12T09:19:28.794Z</time>
      </trkpt>
      <trkpt lat="45.94024" lon="4.71661">
        <ele>179</ele>
        <time>2015-12-12T09:19:29.779Z</time>
      </trkpt>
      <trkpt lat="45.94028" lon="4.71657">
        <ele>179.100006104</ele>
        <time>2015-12-12T09:19:30.793Z</time>
      </trkpt>
      <trkpt lat="45.94032" lon="4.71653">
        <ele>178.800003052</ele>
        <time>2015-12-12T09:19:31.777Z</time>
      </trkpt>
      <trkpt lat="45.94037" lon="4.71651">
        <ele>178.899993896</ele>
        <time>2015-12-12T09:19:32.793Z</time>
      </trkpt>
      <trkpt lat="45.94043" lon="4.71649">
        <ele>178.600006104</ele>
        <time>2015-12-12T09:19:33.776Z</time>
      </trkpt>
      <trkpt lat="45.94049" lon="4.71647">
        <ele>178.5</ele>
        <time>2015-12-12T09:19:34.794Z</time>
      </trkpt>
      <trkpt lat="45.94054" lon="4.71645">
        <ele>178.300003052</ele>
        <time>2015-12-12T09:19:35.779Z</time>
      </trkpt>
      <trkpt lat="45.9406" lon="4.71643">
        <ele>178.199996948</ele>
        <time>2015-12-12T09:19:36.8Z</time>
      </trkpt>
      <trkpt lat="45.94066" lon="4.7164">
        <ele>178</ele>
        <time>2015-12-12T09:19:37.777Z</time>
      </trkpt>
      <trkpt lat="45.94072" lon="4.71638">
        <ele>178.100006104</ele>
        <time>2015-12-12T09:19:38.793Z</time>
      </trkpt>
      <trkpt lat="45.94078" lon="4.71636">
        <ele>178.199996948</ele>
        <time>2015-12-12T09:19:39.776Z</time>
      </trkpt>
      <trkpt lat="45.94084" lon="4.71635">
        <ele>178.5</ele>
        <time>2015-12-12T09:19:40.793Z</time>
      </trkpt>
      <trkpt lat="45.9409" lon="4.71632">
        <ele>178.399993896</ele>
        <time>2015-12-12T09:19:41.779Z</time>
      </trkpt>
      <trkpt lat="45.94096" lon="4.7163">
        <ele>178.399993896</ele>
        <time>2015-12-12T09:19:42.795Z</time>
      </trkpt>
      <trkpt lat="45.94102" lon="4.71627">
        <ele>178.300003052</ele>
        <time>2015-12-12T09:19:43.777Z</time>
      </trkpt>
      <trkpt lat="45.94108" lon="4.71625">
        <ele>178.699996948</ele>
        <time>2015-12-12T09:19:44.793Z</time>
      </trkpt>
      <trkpt lat="45.94115" lon="4.71624">
        <ele>179.100006104</ele>
        <time>2015-12-12T09:19:45.775Z</time>
      </trkpt>
      <trkpt lat="45.94122" lon="4.71623">
        <ele>179.199996948</ele>
        <time>2015-12-12T09:19:46.798Z</time>
      </trkpt>
      <trkpt lat="45.94128" lon="4.71621">
        <ele>179.5</ele>
        <time>2015-12-12T09:19:47.793Z</time>
      </trkpt>
      <trkpt lat="45.94135" lon="4.71619">
        <ele>179.600006104</ele>
        <time>2015-12-12T09:19:48.793Z</time>
      </trkpt>
      <trkpt lat="45.94141" lon="4.71617">
        <ele>180.100006104</ele>
        <time>2015-12-12T09:19:49.776Z</time>
      </trkpt>
      <trkpt lat="45.94147" lon="4.71615">
        <ele>180.600006104</ele>
        <time>2015-12-12T09:19:50.794Z</time>
      </trkpt>
      <trkpt lat="45.94153" lon="4.71612">
        <ele>181.100006104</ele>
        <time>2015-12-12T09:19:51.775Z</time>
      </trkpt>
      <trkpt lat="45.94159" lon="4.71609">
        <ele>181.399993896</ele>
        <time>2015-12-12T09:19:52.791Z</time>
      </trkpt>
      <trkpt lat="45.94165" lon="4.71606">
        <ele>181.5</ele>
        <time>2015-12-12T09:19:53.779Z</time>
      </trkpt>
      <trkpt lat="45.94171" lon="4.71604">
        <ele>181.800003052</ele>
        <time>2015-12-12T09:19:54.792Z</time>
      </trkpt>
      <trkpt lat="45.94177" lon="4.71601">
        <ele>181.899993896</ele>
        <time>2015-12-12T09:19:55.777Z</time>
      </trkpt>
      <trkpt lat="45.94184" lon="4.71599">
        <ele>182.199996948</ele>
        <time>2015-12-12T09:19:56.792Z</time>
      </trkpt>
      <trkpt lat="45.9419" lon="4.71596">
        <ele>182.600006104</ele>
        <time>2015-12-12T09:19:57.775Z</time>
      </trkpt>
      <trkpt lat="45.94197" lon="4.71594">
        <ele>183</ele>
        <time>2015-12-12T09:19:58.793Z</time>
      </trkpt>
      <trkpt lat="45.94203" lon="4.71591">
        <ele>183</ele>
        <time>2015-12-12T09:19:59.778Z</time>
      </trkpt>
      <trkpt lat="45.9421" lon="4.71589">
        <ele>183.300003052</ele>
        <time>2015-12-12T09:20:00.792Z</time>
      </trkpt>
      <trkpt lat="45.94216" lon="4.71586">
        <ele>183.300003052</ele>
        <time>2015-12-12T09:20:01.775Z</time>
      </trkpt>
      <trkpt lat="45.94223" lon="4.71584">
        <ele>183.399993896</ele>
        <time>2015-12-12T09:20:02.792Z</time>
      </trkpt>
      <trkpt lat="45.94229" lon="4.71581">
        <ele>183.399993896</ele>
        <time>2015-12-12T09:20:03.775Z</time>
      </trkpt>
      <trkpt lat="45.94235" lon="4.71579">
        <ele>183.300003052</ele>
        <time>2015-12-12T09:20:04.792Z</time>
      </trkpt>
      <trkpt lat="45.94241" lon="4.71577">
        <ele>183.399993896</ele>
        <time>2015-12-12T09:20:05.779Z</time>
      </trkpt>
      <trkpt lat="45.94247" lon="4.71575">
        <ele>182.899993896</ele>
        <time>2015-12-12T09:20:06.823Z</time>
      </trkpt>
      <trkpt lat="45.94252" lon="4.71572">
        <ele>182.899993896</ele>
        <time>2015-12-12T09:20:07.776Z</time>
      </trkpt>
      <trkpt lat="45.94258" lon="4.7157">
        <ele>183.100006104</ele>
        <time>2015-12-12T09:20:08.811Z</time>
      </trkpt>
      <trkpt lat="45.94264" lon="4.71568">
        <ele>183.600006104</ele>
        <time>2015-12-12T09:20:09.775Z</time>
      </trkpt>
      <trkpt lat="45.94269" lon="4.71566">
        <ele>184.100006104</ele>
        <time>2015-12-12T09:20:10.792Z</time>
      </trkpt>
      <trkpt lat="45.94275" lon="4.71563">
        <ele>184.199996948</ele>
        <time>2015-12-12T09:20:11.778Z</time>
      </trkpt>
      <trkpt lat="45.94281" lon="4.71561">
        <ele>184.300003052</ele>
        <time>2015-12-12T09:20:12.791Z</time>
      </trkpt>
      <trkpt lat="45.94286" lon="4.71559">
        <ele>184.199996948</ele>
        <time>2015-12-12T09:20:13.776Z</time>
      </trkpt>
      <trkpt lat="45.94292" lon="4.71557">
        <ele>184.399993896</ele>
        <time>2015-12-12T09:20:14.791Z</time>
      </trkpt>
      <trkpt lat="45.94298" lon="4.71554">
        <ele>184.699996948</ele>
        <time>2015-12-12T09:20:15.775Z</time>
      </trkpt>
      <trkpt lat="45.94304" lon="4.71552">
        <ele>184.899993896</ele>
        <time>2015-12-12T09:20:16.792Z</time>
      </trkpt>
      <trkpt lat="45.9431" lon="4.71548">
        <ele>184.5</ele>
        <time>2015-12-12T09:20:17.778Z</time>
      </trkpt>
      <trkpt lat="45.94316" lon="4.71545">
        <ele>184.600006104</ele>
        <time>2015-12-12T09:20:18.793Z</time>
      </trkpt>
      <trkpt lat="45.94321" lon="4.71542">
        <ele>185</ele>
        <time>2015-12-12T09:20:19.777Z</time>
      </trkpt>
      <trkpt lat="45.94327" lon="4.71541">
        <ele>185.5</ele>
        <time>2015-12-12T09:20:20.792Z</time>
      </trkpt>
      <trkpt lat="45.94333" lon="4.71539">
        <ele>186</ele>
        <time>2015-12-12T09:20:21.775Z</time>
      </trkpt>
      <trkpt lat="45.94339" lon="4.71538">
        <ele>186.5</ele>
        <time>2015-12-12T09:20:22.793Z</time>
      </trkpt>
      <trkpt lat="45.94344" lon="4.71536">
        <ele>187</ele>
        <time>2015-12-12T09:20:23.779Z</time>
      </trkpt>
      <trkpt lat="45.94349" lon="4.71533">
        <ele>187.600006104</ele>
        <time>2015-12-12T09:20:24.946Z</time>
      </trkpt>
      <trkpt lat="45.94354" lon="4.71531">
        <ele>188.100006104</ele>
        <time>2015-12-12T09:20:25.775Z</time>
      </trkpt>
      <trkpt lat="45.94362" lon="4.71532">
        <ele>188.100006104</ele>
        <time>2015-12-12T09:20:26.792Z</time>
      </trkpt>
      <trkpt lat="45.94368" lon="4.71531">
        <ele>188.600006104</ele>
        <time>2015-12-12T09:20:27.776Z</time>
      </trkpt>
      <trkpt lat="45.94373" lon="4.71529">
        <ele>189.199996948</ele>
        <time>2015-12-12T09:20:28.792Z</time>
      </trkpt>
      <trkpt lat="45.94379" lon="4.71528">
        <ele>189.800003052</ele>
        <time>2015-12-12T09:20:29.779Z</time>
      </trkpt>
      <trkpt lat="45.94384" lon="4.71526">
        <ele>190.100006104</ele>
        <time>2015-12-12T09:20:30.792Z</time>
      </trkpt>
      <trkpt lat="45.9439" lon="4.71524">
        <ele>190.399993896</ele>
        <time>2015-12-12T09:20:31.775Z</time>
      </trkpt>
      <trkpt lat="45.94395" lon="4.71521">
        <ele>190.5</ele>
        <time>2015-12-12T09:20:32.793Z</time>
      </trkpt>
      <trkpt lat="45.944" lon="4.71519">
        <ele>190.699996948</ele>
        <time>2015-12-12T09:20:33.775Z</time>
      </trkpt>
      <trkpt lat="45.94406" lon="4.71516">
        <ele>190.800003052</ele>
        <time>2015-12-12T09:20:34.798Z</time>
      </trkpt>
      <trkpt lat="45.94411" lon="4.71514">
        <ele>191.100006104</ele>
        <time>2015-12-12T09:20:35.779Z</time>
      </trkpt>
      <trkpt lat="45.94416" lon="4.71512">
        <ele>191.199996948</ele>
        <time>2015-12-12T09:20:36.791Z</time>
      </trkpt>
      <trkpt lat="45.94421" lon="4.7151">
        <ele>191</ele>
        <time>2015-12-12T09:20:37.908Z</time>
      </trkpt>
      <trkpt lat="45.94426" lon="4.71507">
        <ele>190.800003052</ele>
        <time>2015-12-12T09:20:38.792Z</time>
      </trkpt>
      <trkpt lat="45.94431" lon="4.71505">
        <ele>190.899993896</ele>
        <time>2015-12-12T09:20:39.775Z</time>
      </trkpt>
      <trkpt lat="45.94437" lon="4.71503">
        <ele>190.800003052</ele>
        <time>2015-12-12T09:20:40.806Z</time>
      </trkpt>
      <trkpt lat="45.94442" lon="4.71501">
        <ele>190.800003052</ele>
        <time>2015-12-12T09:20:41.778Z</time>
      </trkpt>
      <trkpt lat="45.94447" lon="4.71499">
        <ele>191.100006104</ele>
        <time>2015-12-12T09:20:42.792Z</time>
      </trkpt>
      <trkpt lat="45.94453" lon="4.71497">
        <ele>191.300003052</ele>
        <time>2015-12-12T09:20:43.777Z</time>
      </trkpt>
      <trkpt lat="45.94458" lon="4.71495">
        <ele>191.399993896</ele>
        <time>2015-12-12T09:20:44.792Z</time>
      </trkpt>
      <trkpt lat="45.94464" lon="4.71492">
        <ele>191.600006104</ele>
        <time>2015-12-12T09:20:45.775Z</time>
      </trkpt>
      <trkpt lat="45.94469" lon="4.71489">
        <ele>191.399993896</ele>
        <time>2015-12-12T09:20:46.792Z</time>
      </trkpt>
      <trkpt lat="45.94474" lon="4.71486">
        <ele>190.899993896</ele>
        <time>2015-12-12T09:20:47.778Z</time>
      </trkpt>
      <trkpt lat="45.9448" lon="4.71484">
        <ele>191</ele>
        <time>2015-12-12T09:20:48.85Z</time>
      </trkpt>
      <trkpt lat="45.94485" lon="4.71483">
        <ele>191.199996948</ele>
        <time>2015-12-12T09:20:49.777Z</time>
      </trkpt>
      <trkpt lat="45.9449" lon="4.71481">
        <ele>191.699996948</ele>
        <time>2015-12-12T09:20:50.794Z</time>
      </trkpt>
      <trkpt lat="45.94495" lon="4.7148">
        <ele>192</ele>
        <time>2015-12-12T09:20:51.775Z</time>
      </trkpt>
      <trkpt lat="45.94501" lon="4.71478">
        <ele>192.100006104</ele>
        <time>2015-12-12T09:20:52.792Z</time>
      </trkpt>
      <trkpt lat="45.94506" lon="4.71476">
        <ele>192.600006104</ele>
        <time>2015-12-12T09:20:53.779Z</time>
      </trkpt>
      <trkpt lat="45.94511" lon="4.71475">
        <ele>192.800003052</ele>
        <time>2015-12-12T09:20:54.792Z</time>
      </trkpt>
      <trkpt lat="45.94516" lon="4.71472">
        <ele>193</ele>
        <time>2015-12-12T09:20:55.776Z</time>
      </trkpt>
      <trkpt lat="45.94521" lon="4.7147">
        <ele>193.199996948</ele>
        <time>2015-12-12T09:20:56.808Z</time>
      </trkpt>
      <trkpt lat="45.94527" lon="4.71469">
        <ele>193.399993896</ele>
        <time>2015-12-12T09:20:57.775Z</time>
      </trkpt>
      <trkpt lat="45.94532" lon="4.71467">
        <ele>193.399993896</ele>
        <time>2015-12-12T09:20:58.803Z</time>
      </trkpt>
      <trkpt lat="45.94537" lon="4.71464">
        <ele>193.5</ele>
        <time>2015-12-12T09:20:59.778Z</time>
      </trkpt>
      <trkpt lat="45.94543" lon="4.71462">
        <ele>193.600006104</ele>
        <time>2015-12-12T09:21:00.851Z</time>
      </trkpt>
      <trkpt lat="45.94548" lon="4.71461">
        <ele>194</ele>
        <time>2015-12-12T09:21:01.775Z</time>
      </trkpt>
      <trkpt lat="45.94553" lon="4.71459">
        <ele>194.5</ele>
        <time>2015-12-12T09:21:02.791Z</time>
      </trkpt>
      <trkpt lat="45.94559" lon="4.71458">
        <ele>195.300003052</ele>
        <time>2015-12-12T09:21:03.775Z</time>
      </trkpt>
      <trkpt lat="45.94564" lon="4.71456">
        <ele>194.600006104</ele>
        <time>2015-12-12T09:21:04.791Z</time>
      </trkpt>
      <trkpt lat="45.94569" lon="4.71455">
        <ele>195</ele>
        <time>2015-12-12T09:21:05.778Z</time>
      </trkpt>
      <trkpt lat="45.94575" lon="4.71455">
        <ele>195.800003052</ele>
        <time>2015-12-12T09:21:06.792Z</time>
      </trkpt>
      <trkpt lat="45.9458" lon="4.71454">
        <ele>196</ele>
        <time>2015-12-12T09:21:07.777Z</time>
      </trkpt>
      <trkpt lat="45.94585" lon="4.71454">
        <ele>195.600006104</ele>
        <time>2015-12-12T09:21:08.8Z</time>
      </trkpt>
      <trkpt lat="45.94591" lon="4.71453">
        <ele>195</ele>
        <time>2015-12-12T09:21:09.775Z</time>
      </trkpt>
      <trkpt lat="45.94596" lon="4.71453">
        <ele>194.899993896</ele>
        <time>2015-12-12T09:21:10.792Z</time>
      </trkpt>
      <trkpt lat="45.94602" lon="4.71453">
        <ele>194.899993896</ele>
        <time>2015-12-12T09:21:11.778Z</time>
      </trkpt>
      <trkpt lat="45.94607" lon="4.71454">
        <ele>194.699996948</ele>
        <time>2015-12-12T09:21:12.793Z</time>
      </trkpt>
      <trkpt lat="45.94612" lon="4.71454">
        <ele>194.699996948</ele>
        <time>2015-12-12T09:21:13.776Z</time>
      </trkpt>
      <trkpt lat="45.94617" lon="4.71455">
        <ele>194.699996948</ele>
        <time>2015-12-12T09:21:14.791Z</time>
      </trkpt>
      <trkpt lat="45.94623" lon="4.71455">
        <ele>194.699996948</ele>
        <time>2015-12-12T09:21:15.775Z</time>
      </trkpt>
      <trkpt lat="45.94628" lon="4.71455">
        <ele>193.899993896</ele>
        <time>2015-12-12T09:21:16.791Z</time>
      </trkpt>
      <trkpt lat="45.94634" lon="4.71455">
        <ele>193.699996948</ele>
        <time>2015-12-12T09:21:17.792Z</time>
      </trkpt>
      <trkpt lat="45.9464" lon="4.71456">
        <ele>193.199996948</ele>
        <time>2015-12-12T09:21:18.807Z</time>
      </trkpt>
      <trkpt lat="45.94645" lon="4.71456">
        <ele>192.5</ele>
        <time>2015-12-12T09:21:19.776Z</time>
      </trkpt>
      <trkpt lat="45.94651" lon="4.71457">
        <ele>192.300003052</ele>
        <time>2015-12-12T09:21:20.835Z</time>
      </trkpt>
      <trkpt lat="45.94657" lon="4.71458">
        <ele>192.100006104</ele>
        <time>2015-12-12T09:21:21.775Z</time>
      </trkpt>
      <trkpt lat="45.94663" lon="4.71458">
        <ele>192.199996948</ele>
        <time>2015-12-12T09:21:22.791Z</time>
      </trkpt>
      <trkpt lat="45.94668" lon="4.71458">
        <ele>192.399993896</ele>
        <time>2015-12-12T09:21:23.778Z</time>
      </trkpt>
      <trkpt lat="45.94674" lon="4.71459">
        <ele>192.600006104</ele>
        <time>2015-12-12T09:21:24.791Z</time>
      </trkpt>
      <trkpt lat="45.9468" lon="4.7146">
        <ele>193</ele>
        <time>2015-12-12T09:21:25.775Z</time>
      </trkpt>
      <trkpt lat="45.94686" lon="4.7146">
        <ele>192.699996948</ele>
        <time>2015-12-12T09:21:26.793Z</time>
      </trkpt>
      <trkpt lat="45.94692" lon="4.7146">
        <ele>192.699996948</ele>
        <time>2015-12-12T09:21:27.775Z</time>
      </trkpt>
      <trkpt lat="45.94698" lon="4.71461">
        <ele>192.800003052</ele>
        <time>2015-12-12T09:21:28.804Z</time>
      </trkpt>
      <trkpt lat="45.94704" lon="4.71461">
        <ele>193</ele>
        <time>2015-12-12T09:21:29.778Z</time>
      </trkpt>
      <trkpt lat="45.94709" lon="4.71462">
        <ele>193</ele>
        <time>2015-12-12T09:21:30.792Z</time>
      </trkpt>
      <trkpt lat="45.94716" lon="4.71462">
        <ele>193.100006104</ele>
        <time>2015-12-12T09:21:31.774Z</time>
      </trkpt>
      <trkpt lat="45.94722" lon="4.71462">
        <ele>192.800003052</ele>
        <time>2015-12-12T09:21:32.791Z</time>
      </trkpt>
      <trkpt lat="45.94728" lon="4.71463">
        <ele>192.600006104</ele>
        <time>2015-12-12T09:21:33.801Z</time>
      </trkpt>
      <trkpt lat="45.94734" lon="4.71463">
        <ele>192</ele>
        <time>2015-12-12T09:21:34.791Z</time>
      </trkpt>
      <trkpt lat="45.9474" lon="4.71463">
        <ele>192.199996948</ele>
        <time>2015-12-12T09:21:35.783Z</time>
      </trkpt>
      <trkpt lat="45.94747" lon="4.71464">
        <ele>192.100006104</ele>
        <time>2015-12-12T09:21:36.792Z</time>
      </trkpt>
      <trkpt lat="45.94753" lon="4.71464">
        <ele>192.100006104</ele>
        <time>2015-12-12T09:21:37.915Z</time>
      </trkpt>
      <trkpt lat="45.9476" lon="4.71465">
        <ele>192.399993896</ele>
        <time>2015-12-12T09:21:38.801Z</time>
      </trkpt>
      <trkpt lat="45.94767" lon="4.71464">
        <ele>192</ele>
        <time>2015-12-12T09:21:39.775Z</time>
      </trkpt>
      <trkpt lat="45.94774" lon="4.71464">
        <ele>192</ele>
        <time>2015-12-12T09:21:40.791Z</time>
      </trkpt>
      <trkpt lat="45.9478" lon="4.71464">
        <ele>191.5</ele>
        <time>2015-12-12T09:21:41.778Z</time>
      </trkpt>
      <trkpt lat="45.94787" lon="4.71465">
        <ele>191.300003052</ele>
        <time>2015-12-12T09:21:42.791Z</time>
      </trkpt>
      <trkpt lat="45.94793" lon="4.71465">
        <ele>190.899993896</ele>
        <time>2015-12-12T09:21:43.776Z</time>
      </trkpt>
      <trkpt lat="45.94799" lon="4.71464">
        <ele>190.600006104</ele>
        <time>2015-12-12T09:21:44.791Z</time>
      </trkpt>
      <trkpt lat="45.94806" lon="4.71464">
        <ele>190.5</ele>
        <time>2015-12-12T09:21:45.774Z</time>
      </trkpt>
      <trkpt lat="45.94812" lon="4.71465">
        <ele>190</ele>
        <time>2015-12-12T09:21:46.791Z</time>
      </trkpt>
      <trkpt lat="45.94819" lon="4.71465">
        <ele>189.899993896</ele>
        <time>2015-12-12T09:21:47.778Z</time>
      </trkpt>
      <trkpt lat="45.94826" lon="4.71466">
        <ele>190</ele>
        <time>2015-12-12T09:21:48.827Z</time>
      </trkpt>
      <trkpt lat="45.94832" lon="4.71467">
        <ele>189.899993896</ele>
        <time>2015-12-12T09:21:49.776Z</time>
      </trkpt>
      <trkpt lat="45.9484" lon="4.71469">
        <ele>189.699996948</ele>
        <time>2015-12-12T09:21:50.794Z</time>
      </trkpt>
      <trkpt lat="45.94848" lon="4.7147">
        <ele>189.699996948</ele>
        <time>2015-12-12T09:21:51.775Z</time>
      </trkpt>
      <trkpt lat="45.94855" lon="4.7147">
        <ele>189</ele>
        <time>2015-12-12T09:21:52.794Z</time>
      </trkpt>
      <trkpt lat="45.94862" lon="4.71471">
        <ele>188.800003052</ele>
        <time>2015-12-12T09:21:53.778Z</time>
      </trkpt>
      <trkpt lat="45.94869" lon="4.71472">
        <ele>189</ele>
        <time>2015-12-12T09:21:54.792Z</time>
      </trkpt>
      <trkpt lat="45.94876" lon="4.71473">
        <ele>188.899993896</ele>
        <time>2015-12-12T09:21:55.774Z</time>
      </trkpt>
      <trkpt lat="45.94883" lon="4.71474">
        <ele>188.699996948</ele>
        <time>2015-12-12T09:21:56.791Z</time>
      </trkpt>
      <trkpt lat="45.94889" lon="4.71475">
        <ele>188.5</ele>
        <time>2015-12-12T09:21:57.774Z</time>
      </trkpt>
      <trkpt lat="45.94895" lon="4.71476">
        <ele>188.100006104</ele>
        <time>2015-12-12T09:21:58.841Z</time>
      </trkpt>
      <trkpt lat="45.94901" lon="4.71477">
        <ele>187.800003052</ele>
        <time>2015-12-12T09:21:59.778Z</time>
      </trkpt>
      <trkpt lat="45.94907" lon="4.71477">
        <ele>187.300003052</ele>
        <time>2015-12-12T09:22:00.792Z</time>
      </trkpt>
      <trkpt lat="45.94913" lon="4.71477">
        <ele>187.399993896</ele>
        <time>2015-12-12T09:22:01.774Z</time>
      </trkpt>
      <trkpt lat="45.94919" lon="4.71477">
        <ele>187.600006104</ele>
        <time>2015-12-12T09:22:02.791Z</time>
      </trkpt>
      <trkpt lat="45.94924" lon="4.71477">
        <ele>187.100006104</ele>
        <time>2015-12-12T09:22:03.774Z</time>
      </trkpt>
      <trkpt lat="45.94928" lon="4.71477">
        <ele>186.800003052</ele>
        <time>2015-12-12T09:22:04.791Z</time>
      </trkpt>
      <trkpt lat="45.94933" lon="4.71477">
        <ele>187.5</ele>
        <time>2015-12-12T09:22:05.778Z</time>
      </trkpt>
      <trkpt lat="45.94938" lon="4.71477">
        <ele>187.800003052</ele>
        <time>2015-12-12T09:22:06.791Z</time>
      </trkpt>
      <trkpt lat="45.94942" lon="4.71478">
        <ele>188.100006104</ele>
        <time>2015-12-12T09:22:07.776Z</time>
      </trkpt>
      <trkpt lat="45.94946" lon="4.7148">
        <ele>188</ele>
        <time>2015-12-12T09:22:08.799Z</time>
      </trkpt>
      <trkpt lat="45.94951" lon="4.71483">
        <ele>188</ele>
        <time>2015-12-12T09:22:09.774Z</time>
      </trkpt>
      <trkpt lat="45.94955" lon="4.71487">
        <ele>187.800003052</ele>
        <time>2015-12-12T09:22:10.791Z</time>
      </trkpt>
      <trkpt lat="45.9496" lon="4.71492">
        <ele>188.399993896</ele>
        <time>2015-12-12T09:22:11.778Z</time>
      </trkpt>
      <trkpt lat="45.94966" lon="4.71494">
        <ele>188.5</ele>
        <time>2015-12-12T09:22:12.792Z</time>
      </trkpt>
      <trkpt lat="45.94971" lon="4.71494">
        <ele>188.800003052</ele>
        <time>2015-12-12T09:22:13.776Z</time>
      </trkpt>
      <trkpt lat="45.94977" lon="4.71492">
        <ele>189.199996948</ele>
        <time>2015-12-12T09:22:14.807Z</time>
      </trkpt>
      <trkpt lat="45.94983" lon="4.7149">
        <ele>189.399993896</ele>
        <time>2015-12-12T09:22:15.773Z</time>
      </trkpt>
      <trkpt lat="45.94988" lon="4.71487">
        <ele>189.600006104</ele>
        <time>2015-12-12T09:22:16.791Z</time>
      </trkpt>
      <trkpt lat="45.94994" lon="4.71485">
        <ele>189.899993896</ele>
        <time>2015-12-12T09:22:17.778Z</time>
      </trkpt>
      <trkpt lat="45.95" lon="4.71484">
        <ele>189.800003052</ele>
        <time>2015-12-12T09:22:18.793Z</time>
      </trkpt>
      <trkpt lat="45.95006" lon="4.71485">
        <ele>190</ele>
        <time>2015-12-12T09:22:19.775Z</time>
      </trkpt>
      <trkpt lat="45.95013" lon="4.71485">
        <ele>190.199996948</ele>
        <time>2015-12-12T09:22:20.791Z</time>
      </trkpt>
      <trkpt lat="45.9502" lon="4.71486">
        <ele>190.300003052</ele>
        <time>2015-12-12T09:22:21.774Z</time>
      </trkpt>
      <trkpt lat="45.95028" lon="4.71487">
        <ele>190.100006104</ele>
        <time>2015-12-12T09:22:22.792Z</time>
      </trkpt>
      <trkpt lat="45.95036" lon="4.71489">
        <ele>189.800003052</ele>
        <time>2015-12-12T09:22:23.778Z</time>
      </trkpt>
      <trkpt lat="45.95043" lon="4.7149">
        <ele>189.699996948</ele>
        <time>2015-12-12T09:22:24.791Z</time>
      </trkpt>
      <trkpt lat="45.95051" lon="4.7149">
        <ele>189.100006104</ele>
        <time>2015-12-12T09:22:25.776Z</time>
      </trkpt>
      <trkpt lat="45.95059" lon="4.7149">
        <ele>188.600006104</ele>
        <time>2015-12-12T09:22:26.792Z</time>
      </trkpt>
      <trkpt lat="45.95067" lon="4.71491">
        <ele>188.199996948</ele>
        <time>2015-12-12T09:22:27.774Z</time>
      </trkpt>
      <trkpt lat="45.95075" lon="4.71491">
        <ele>187.800003052</ele>
        <time>2015-12-12T09:22:28.791Z</time>
      </trkpt>
      <trkpt lat="45.95084" lon="4.7149">
        <ele>187.300003052</ele>
        <time>2015-12-12T09:22:29.778Z</time>
      </trkpt>
      <trkpt lat="45.95093" lon="4.7149">
        <ele>186.899993896</ele>
        <time>2015-12-12T09:22:30.818Z</time>
      </trkpt>
      <trkpt lat="45.95102" lon="4.7149">
        <ele>186.600006104</ele>
        <time>2015-12-12T09:22:31.774Z</time>
      </trkpt>
      <trkpt lat="45.95102" lon="4.7149">
        <ele>186.600006104</ele>
        <time>2015-12-12T09:22:31.793Z</time>
      </trkpt>
      <trkpt lat="45.95111" lon="4.7149">
        <ele>185.699996948</ele>
        <time>2015-12-12T09:22:32.774Z</time>
      </trkpt>
      <trkpt lat="45.95119" lon="4.7149">
        <ele>185.5</ele>
        <time>2015-12-12T09:22:33.792Z</time>
      </trkpt>
      <trkpt lat="45.95128" lon="4.7149">
        <ele>185.300003052</ele>
        <time>2015-12-12T09:22:34.775Z</time>
      </trkpt>
      <trkpt lat="45.95136" lon="4.7149">
        <ele>184.600006104</ele>
        <time>2015-12-12T09:22:35.795Z</time>
      </trkpt>
      <trkpt lat="45.95145" lon="4.7149">
        <ele>184.100006104</ele>
        <time>2015-12-12T09:22:36.774Z</time>
      </trkpt>
      <trkpt lat="45.95154" lon="4.71491">
        <ele>183.699996948</ele>
        <time>2015-12-12T09:22:37.812Z</time>
      </trkpt>
      <trkpt lat="45.95163" lon="4.71491">
        <ele>183.600006104</ele>
        <time>2015-12-12T09:22:38.774Z</time>
      </trkpt>
      <trkpt lat="45.95171" lon="4.71492">
        <ele>182.699996948</ele>
        <time>2015-12-12T09:22:39.791Z</time>
      </trkpt>
      <trkpt lat="45.9518" lon="4.71492">
        <ele>182.300003052</ele>
        <time>2015-12-12T09:22:40.774Z</time>
      </trkpt>
      <trkpt lat="45.9518" lon="4.71492">
        <ele>182.300003052</ele>
        <time>2015-12-12T09:22:40.795Z</time>
      </trkpt>
      <trkpt lat="45.95189" lon="4.71493">
        <ele>182</ele>
        <time>2015-12-12T09:22:41.778Z</time>
      </trkpt>
      <trkpt lat="45.95189" lon="4.71493">
        <ele>182</ele>
        <time>2015-12-12T09:22:41.799Z</time>
      </trkpt>
      <trkpt lat="45.95198" lon="4.71493">
        <ele>181.399993896</ele>
        <time>2015-12-12T09:22:42.775Z</time>
      </trkpt>
      <trkpt lat="45.95207" lon="4.71493">
        <ele>181.100006104</ele>
        <time>2015-12-12T09:22:43.793Z</time>
      </trkpt>
      <trkpt lat="45.95216" lon="4.71493">
        <ele>180.600006104</ele>
        <time>2015-12-12T09:22:44.775Z</time>
      </trkpt>
      <trkpt lat="45.95225" lon="4.71493">
        <ele>180.5</ele>
        <time>2015-12-12T09:22:45.791Z</time>
      </trkpt>
      <trkpt lat="45.95233" lon="4.71493">
        <ele>180.199996948</ele>
        <time>2015-12-12T09:22:46.774Z</time>
      </trkpt>
      <trkpt lat="45.95242" lon="4.71494">
        <ele>179.800003052</ele>
        <time>2015-12-12T09:22:47.795Z</time>
      </trkpt>
      <trkpt lat="45.95251" lon="4.71495">
        <ele>179.800003052</ele>
        <time>2015-12-12T09:22:48.792Z</time>
      </trkpt>
      <trkpt lat="45.95259" lon="4.71495">
        <ele>179.199996948</ele>
        <time>2015-12-12T09:22:49.793Z</time>
      </trkpt>
      <trkpt lat="45.95268" lon="4.71496">
        <ele>179.199996948</ele>
        <time>2015-12-12T09:22:50.777Z</time>
      </trkpt>
      <trkpt lat="45.95276" lon="4.71496">
        <ele>179.399993896</ele>
        <time>2015-12-12T09:22:51.805Z</time>
      </trkpt>
      <trkpt lat="45.95284" lon="4.71497">
        <ele>179.600006104</ele>
        <time>2015-12-12T09:22:52.774Z</time>
      </trkpt>
      <trkpt lat="45.95292" lon="4.71498">
        <ele>180.199996948</ele>
        <time>2015-12-12T09:22:53.794Z</time>
      </trkpt>
      <trkpt lat="45.95301" lon="4.71501">
        <ele>180.300003052</ele>
        <time>2015-12-12T09:22:54.774Z</time>
      </trkpt>
      <trkpt lat="45.95309" lon="4.71503">
        <ele>180.5</ele>
        <time>2015-12-12T09:22:55.791Z</time>
      </trkpt>
      <trkpt lat="45.95317" lon="4.71503">
        <ele>180.100006104</ele>
        <time>2015-12-12T09:22:56.774Z</time>
      </trkpt>
      <trkpt lat="45.95326" lon="4.71503">
        <ele>179.5</ele>
        <time>2015-12-12T09:22:57.792Z</time>
      </trkpt>
      <trkpt lat="45.95334" lon="4.71503">
        <ele>179.199996948</ele>
        <time>2015-12-12T09:22:58.775Z</time>
      </trkpt>
      <trkpt lat="45.95341" lon="4.71503">
        <ele>179</ele>
        <time>2015-12-12T09:22:59.795Z</time>
      </trkpt>
      <trkpt lat="45.95348" lon="4.71504">
        <ele>178.600006104</ele>
        <time>2015-12-12T09:23:00.775Z</time>
      </trkpt>
      <trkpt lat="45.95356" lon="4.71504">
        <ele>178.5</ele>
        <time>2015-12-12T09:23:01.791Z</time>
      </trkpt>
      <trkpt lat="45.95363" lon="4.71504">
        <ele>178.399993896</ele>
        <time>2015-12-12T09:23:02.775Z</time>
      </trkpt>
      <trkpt lat="45.95371" lon="4.71505">
        <ele>178.100006104</ele>
        <time>2015-12-12T09:23:03.791Z</time>
      </trkpt>
      <trkpt lat="45.95378" lon="4.71505">
        <ele>177.600006104</ele>
        <time>2015-12-12T09:23:04.774Z</time>
      </trkpt>
      <trkpt lat="45.95386" lon="4.71505">
        <ele>176.800003052</ele>
        <time>2015-12-12T09:23:05.794Z</time>
      </trkpt>
      <trkpt lat="45.95394" lon="4.71505">
        <ele>177</ele>
        <time>2015-12-12T09:23:06.774Z</time>
      </trkpt>
      <trkpt lat="45.95402" lon="4.71505">
        <ele>176.699996948</ele>
        <time>2015-12-12T09:23:07.807Z</time>
      </trkpt>
      <trkpt lat="45.95409" lon="4.71506">
        <ele>177.800003052</ele>
        <time>2015-12-12T09:23:08.774Z</time>
      </trkpt>
      <trkpt lat="45.95417" lon="4.71506">
        <ele>177.899993896</ele>
        <time>2015-12-12T09:23:09.801Z</time>
      </trkpt>
      <trkpt lat="45.95424" lon="4.71506">
        <ele>177.699996948</ele>
        <time>2015-12-12T09:23:10.774Z</time>
      </trkpt>
      <trkpt lat="45.95432" lon="4.71507">
        <ele>178.199996948</ele>
        <time>2015-12-12T09:23:11.795Z</time>
      </trkpt>
      <trkpt lat="45.95439" lon="4.71507">
        <ele>178.699996948</ele>
        <time>2015-12-12T09:23:12.774Z</time>
      </trkpt>
      <trkpt lat="45.95446" lon="4.71508">
        <ele>179.399993896</ele>
        <time>2015-12-12T09:23:13.791Z</time>
      </trkpt>
      <trkpt lat="45.95453" lon="4.71508">
        <ele>179.399993896</ele>
        <time>2015-12-12T09:23:14.774Z</time>
      </trkpt>
      <trkpt lat="45.95461" lon="4.71509">
        <ele>179.300003052</ele>
        <time>2015-12-12T09:23:15.791Z</time>
      </trkpt>
      <trkpt lat="45.95468" lon="4.71509">
        <ele>179.100006104</ele>
        <time>2015-12-12T09:23:16.774Z</time>
      </trkpt>
      <trkpt lat="45.95475" lon="4.71509">
        <ele>179.300003052</ele>
        <time>2015-12-12T09:23:17.795Z</time>
      </trkpt>
      <trkpt lat="45.95481" lon="4.7151">
        <ele>179</ele>
        <time>2015-12-12T09:23:18.774Z</time>
      </trkpt>
      <trkpt lat="45.95488" lon="4.7151">
        <ele>179</ele>
        <time>2015-12-12T09:23:19.81Z</time>
      </trkpt>
      <trkpt lat="45.95495" lon="4.71511">
        <ele>179.100006104</ele>
        <time>2015-12-12T09:23:20.774Z</time>
      </trkpt>
      <trkpt lat="45.95502" lon="4.71511">
        <ele>179.199996948</ele>
        <time>2015-12-12T09:23:21.793Z</time>
      </trkpt>
      <trkpt lat="45.95508" lon="4.71512">
        <ele>179.199996948</ele>
        <time>2015-12-12T09:23:22.776Z</time>
      </trkpt>
      <trkpt lat="45.95515" lon="4.71512">
        <ele>179</ele>
        <time>2015-12-12T09:23:23.813Z</time>
      </trkpt>
      <trkpt lat="45.95522" lon="4.71513">
        <ele>179.399993896</ele>
        <time>2015-12-12T09:23:24.776Z</time>
      </trkpt>
      <trkpt lat="45.95529" lon="4.71514">
        <ele>179.899993896</ele>
        <time>2015-12-12T09:23:25.841Z</time>
      </trkpt>
      <trkpt lat="45.95535" lon="4.71515">
        <ele>180.100006104</ele>
        <time>2015-12-12T09:23:26.775Z</time>
      </trkpt>
      <trkpt lat="45.95541" lon="4.71515">
        <ele>180.199996948</ele>
        <time>2015-12-12T09:23:27.791Z</time>
      </trkpt>
      <trkpt lat="45.95548" lon="4.71515">
        <ele>179.600006104</ele>
        <time>2015-12-12T09:23:28.775Z</time>
      </trkpt>
      <trkpt lat="45.95555" lon="4.71515">
        <ele>179.600006104</ele>
        <time>2015-12-12T09:23:29.844Z</time>
      </trkpt>
      <trkpt lat="45.95561" lon="4.71515">
        <ele>179.800003052</ele>
        <time>2015-12-12T09:23:30.774Z</time>
      </trkpt>
      <trkpt lat="45.95568" lon="4.71516">
        <ele>180.199996948</ele>
        <time>2015-12-12T09:23:31.791Z</time>
      </trkpt>
      <trkpt lat="45.95574" lon="4.71516">
        <ele>180.399993896</ele>
        <time>2015-12-12T09:23:32.774Z</time>
      </trkpt>
      <trkpt lat="45.9558" lon="4.71516">
        <ele>180.300003052</ele>
        <time>2015-12-12T09:23:33.792Z</time>
      </trkpt>
      <trkpt lat="45.95587" lon="4.71517">
        <ele>180.199996948</ele>
        <time>2015-12-12T09:23:34.775Z</time>
      </trkpt>
      <trkpt lat="45.95593" lon="4.71517">
        <ele>180.100006104</ele>
        <time>2015-12-12T09:23:35.795Z</time>
      </trkpt>
      <trkpt lat="45.95599" lon="4.71518">
        <ele>180</ele>
        <time>2015-12-12T09:23:36.774Z</time>
      </trkpt>
      <trkpt lat="45.95606" lon="4.71518">
        <ele>179.800003052</ele>
        <time>2015-12-12T09:23:37.792Z</time>
      </trkpt>
      <trkpt lat="45.95612" lon="4.71518">
        <ele>179.399993896</ele>
        <time>2015-12-12T09:23:38.774Z</time>
      </trkpt>
      <trkpt lat="45.95618" lon="4.71518">
        <ele>179.699996948</ele>
        <time>2015-12-12T09:23:39.805Z</time>
      </trkpt>
      <trkpt lat="45.95624" lon="4.71519">
        <ele>179.899993896</ele>
        <time>2015-12-12T09:23:40.775Z</time>
      </trkpt>
      <trkpt lat="45.95631" lon="4.71519">
        <ele>180.199996948</ele>
        <time>2015-12-12T09:23:41.794Z</time>
      </trkpt>
      <trkpt lat="45.95637" lon="4.71519">
        <ele>180.800003052</ele>
        <time>2015-12-12T09:23:42.774Z</time>
      </trkpt>
      <trkpt lat="45.95643" lon="4.71519">
        <ele>180.800003052</ele>
        <time>2015-12-12T09:23:43.791Z</time>
      </trkpt>
      <trkpt lat="45.95649" lon="4.71519">
        <ele>180.800003052</ele>
        <time>2015-12-12T09:23:44.774Z</time>
      </trkpt>
      <trkpt lat="45.95655" lon="4.7152">
        <ele>180.600006104</ele>
        <time>2015-12-12T09:23:45.799Z</time>
      </trkpt>
      <trkpt lat="45.95661" lon="4.71521">
        <ele>180.5</ele>
        <time>2015-12-12T09:23:46.774Z</time>
      </trkpt>
      <trkpt lat="45.95667" lon="4.71522">
        <ele>180.399993896</ele>
        <time>2015-12-12T09:23:47.796Z</time>
      </trkpt>
      <trkpt lat="45.95673" lon="4.71522">
        <ele>180.5</ele>
        <time>2015-12-12T09:23:48.775Z</time>
      </trkpt>
      <trkpt lat="45.95679" lon="4.71522">
        <ele>180.399993896</ele>
        <time>2015-12-12T09:23:49.933Z</time>
      </trkpt>
      <trkpt lat="45.95686" lon="4.71523">
        <ele>180.199996948</ele>
        <time>2015-12-12T09:23:50.777Z</time>
      </trkpt>
      <trkpt lat="45.95691" lon="4.71523">
        <ele>180</ele>
        <time>2015-12-12T09:23:51.79Z</time>
      </trkpt>
      <trkpt lat="45.95697" lon="4.71523">
        <ele>179.699996948</ele>
        <time>2015-12-12T09:23:52.774Z</time>
      </trkpt>
      <trkpt lat="45.95703" lon="4.71523">
        <ele>179</ele>
        <time>2015-12-12T09:23:53.795Z</time>
      </trkpt>
      <trkpt lat="45.95709" lon="4.71523">
        <ele>179</ele>
        <time>2015-12-12T09:23:54.775Z</time>
      </trkpt>
      <trkpt lat="45.95715" lon="4.71524">
        <ele>179.399993896</ele>
        <time>2015-12-12T09:23:55.791Z</time>
      </trkpt>
      <trkpt lat="45.9572" lon="4.71525">
        <ele>179.699996948</ele>
        <time>2015-12-12T09:23:56.774Z</time>
      </trkpt>
      <trkpt lat="45.95726" lon="4.71526">
        <ele>180.399993896</ele>
        <time>2015-12-12T09:23:57.791Z</time>
      </trkpt>
      <trkpt lat="45.95731" lon="4.71527">
        <ele>180.699996948</ele>
        <time>2015-12-12T09:23:58.774Z</time>
      </trkpt>
      <trkpt lat="45.95737" lon="4.71527">
        <ele>181</ele>
        <time>2015-12-12T09:23:59.795Z</time>
      </trkpt>
      <trkpt lat="45.95742" lon="4.71528">
        <ele>181.199996948</ele>
        <time>2015-12-12T09:24:00.774Z</time>
      </trkpt>
      <trkpt lat="45.95748" lon="4.71528">
        <ele>181.300003052</ele>
        <time>2015-12-12T09:24:01.926Z</time>
      </trkpt>
      <trkpt lat="45.95753" lon="4.71528">
        <ele>181.300003052</ele>
        <time>2015-12-12T09:24:02.774Z</time>
      </trkpt>
      <trkpt lat="45.95759" lon="4.71528">
        <ele>181.300003052</ele>
        <time>2015-12-12T09:24:03.79Z</time>
      </trkpt>
      <trkpt lat="45.95764" lon="4.71529">
        <ele>181.800003052</ele>
        <time>2015-12-12T09:24:04.774Z</time>
      </trkpt>
      <trkpt lat="45.95769" lon="4.71529">
        <ele>182</ele>
        <time>2015-12-12T09:24:05.794Z</time>
      </trkpt>
      <trkpt lat="45.95775" lon="4.7153">
        <ele>182.300003052</ele>
        <time>2015-12-12T09:24:06.774Z</time>
      </trkpt>
      <trkpt lat="45.9578" lon="4.7153">
        <ele>182.199996948</ele>
        <time>2015-12-12T09:24:07.793Z</time>
      </trkpt>
      <trkpt lat="45.95786" lon="4.7153">
        <ele>182.399993896</ele>
        <time>2015-12-12T09:24:08.774Z</time>
      </trkpt>
      <trkpt lat="45.95791" lon="4.7153">
        <ele>182.800003052</ele>
        <time>2015-12-12T09:24:09.831Z</time>
      </trkpt>
      <trkpt lat="45.95797" lon="4.71531">
        <ele>183</ele>
        <time>2015-12-12T09:24:10.774Z</time>
      </trkpt>
      <trkpt lat="45.95802" lon="4.71531">
        <ele>183.100006104</ele>
        <time>2015-12-12T09:24:11.795Z</time>
      </trkpt>
      <trkpt lat="45.95808" lon="4.71532">
        <ele>183.199996948</ele>
        <time>2015-12-12T09:24:12.774Z</time>
      </trkpt>
      <trkpt lat="45.95813" lon="4.71532">
        <ele>183.199996948</ele>
        <time>2015-12-12T09:24:13.805Z</time>
      </trkpt>
      <trkpt lat="45.95819" lon="4.71532">
        <ele>183.199996948</ele>
        <time>2015-12-12T09:24:14.774Z</time>
      </trkpt>
      <trkpt lat="45.95824" lon="4.71533">
        <ele>183.300003052</ele>
        <time>2015-12-12T09:24:15.791Z</time>
      </trkpt>
      <trkpt lat="45.9583" lon="4.71533">
        <ele>183.399993896</ele>
        <time>2015-12-12T09:24:16.773Z</time>
      </trkpt>
      <trkpt lat="45.95835" lon="4.71534">
        <ele>183.5</ele>
        <time>2015-12-12T09:24:17.794Z</time>
      </trkpt>
      <trkpt lat="45.95841" lon="4.71534">
        <ele>183.600006104</ele>
        <time>2015-12-12T09:24:18.774Z</time>
      </trkpt>
      <trkpt lat="45.95846" lon="4.71534">
        <ele>183.699996948</ele>
        <time>2015-12-12T09:24:19.792Z</time>
      </trkpt>
      <trkpt lat="45.95852" lon="4.71535">
        <ele>183.800003052</ele>
        <time>2015-12-12T09:24:20.774Z</time>
      </trkpt>
      <trkpt lat="45.95857" lon="4.71536">
        <ele>183.899993896</ele>
        <time>2015-12-12T09:24:21.808Z</time>
      </trkpt>
      <trkpt lat="45.95863" lon="4.71536">
        <ele>184</ele>
        <time>2015-12-12T09:24:22.774Z</time>
      </trkpt>
      <trkpt lat="45.95869" lon="4.71537">
        <ele>184.100006104</ele>
        <time>2015-12-12T09:24:23.968Z</time>
      </trkpt>
      <trkpt lat="45.95874" lon="4.71538">
        <ele>184.100006104</ele>
        <time>2015-12-12T09:24:24.774Z</time>
      </trkpt>
      <trkpt lat="45.9588" lon="4.71538">
        <ele>184.199996948</ele>
        <time>2015-12-12T09:24:25.791Z</time>
      </trkpt>
      <trkpt lat="45.95885" lon="4.71539">
        <ele>184.300003052</ele>
        <time>2015-12-12T09:24:26.774Z</time>
      </trkpt>
      <trkpt lat="45.95891" lon="4.71539">
        <ele>184.399993896</ele>
        <time>2015-12-12T09:24:27.791Z</time>
      </trkpt>
      <trkpt lat="45.95897" lon="4.71539">
        <ele>184.600006104</ele>
        <time>2015-12-12T09:24:28.774Z</time>
      </trkpt>
      <trkpt lat="45.95902" lon="4.7154">
        <ele>184.699996948</ele>
        <time>2015-12-12T09:24:29.795Z</time>
      </trkpt>
      <trkpt lat="45.95908" lon="4.7154">
        <ele>184.800003052</ele>
        <time>2015-12-12T09:24:30.774Z</time>
      </trkpt>
      <trkpt lat="45.95913" lon="4.71541">
        <ele>184.899993896</ele>
        <time>2015-12-12T09:24:31.793Z</time>
      </trkpt>
      <trkpt lat="45.95918" lon="4.71541">
        <ele>185.199996948</ele>
        <time>2015-12-12T09:24:32.772Z</time>
      </trkpt>
      <trkpt lat="45.95924" lon="4.71542">
        <ele>185.199996948</ele>
        <time>2015-12-12T09:24:33.791Z</time>
      </trkpt>
      <trkpt lat="45.95929" lon="4.71542">
        <ele>185.300003052</ele>
        <time>2015-12-12T09:24:34.774Z</time>
      </trkpt>
      <trkpt lat="45.95934" lon="4.71542">
        <ele>185.300003052</ele>
        <time>2015-12-12T09:24:35.794Z</time>
      </trkpt>
      <trkpt lat="45.9594" lon="4.71542">
        <ele>185.399993896</ele>
        <time>2015-12-12T09:24:36.775Z</time>
      </trkpt>
      <trkpt lat="45.95945" lon="4.71542">
        <ele>185.300003052</ele>
        <time>2015-12-12T09:24:37.814Z</time>
      </trkpt>
      <trkpt lat="45.95951" lon="4.71542">
        <ele>185.199996948</ele>
        <time>2015-12-12T09:24:38.774Z</time>
      </trkpt>
      <trkpt lat="45.95956" lon="4.71543">
        <ele>185.100006104</ele>
        <time>2015-12-12T09:24:39.818Z</time>
      </trkpt>
      <trkpt lat="45.95961" lon="4.71545">
        <ele>185.199996948</ele>
        <time>2015-12-12T09:24:40.774Z</time>
      </trkpt>
      <trkpt lat="45.95966" lon="4.71546">
        <ele>185.300003052</ele>
        <time>2015-12-12T09:24:41.795Z</time>
      </trkpt>
      <trkpt lat="45.95971" lon="4.71549">
        <ele>185.5</ele>
        <time>2015-12-12T09:24:42.774Z</time>
      </trkpt>
      <trkpt lat="45.95975" lon="4.71552">
        <ele>185.800003052</ele>
        <time>2015-12-12T09:24:43.791Z</time>
      </trkpt>
      <trkpt lat="45.95981" lon="4.71554">
        <ele>186.100006104</ele>
        <time>2015-12-12T09:24:44.774Z</time>
      </trkpt>
      <trkpt lat="45.95986" lon="4.71555">
        <ele>186.399993896</ele>
        <time>2015-12-12T09:24:45.791Z</time>
      </trkpt>
      <trkpt lat="45.95991" lon="4.71554">
        <ele>186.800003052</ele>
        <time>2015-12-12T09:24:46.774Z</time>
      </trkpt>
      <trkpt lat="45.95996" lon="4.71552">
        <ele>187.399993896</ele>
        <time>2015-12-12T09:24:47.794Z</time>
      </trkpt>
      <trkpt lat="45.96001" lon="4.7155">
        <ele>187.800003052</ele>
        <time>2015-12-12T09:24:48.774Z</time>
      </trkpt>
      <trkpt lat="45.96006" lon="4.71548">
        <ele>187.899993896</ele>
        <time>2015-12-12T09:24:49.802Z</time>
      </trkpt>
      <trkpt lat="45.96011" lon="4.71547">
        <ele>188</ele>
        <time>2015-12-12T09:24:50.776Z</time>
      </trkpt>
      <trkpt lat="45.96017" lon="4.71546">
        <ele>187.199996948</ele>
        <time>2015-12-12T09:24:51.791Z</time>
      </trkpt>
      <trkpt lat="45.96022" lon="4.71547">
        <ele>187.300003052</ele>
        <time>2015-12-12T09:24:52.774Z</time>
      </trkpt>
      <trkpt lat="45.96028" lon="4.71547">
        <ele>187.199996948</ele>
        <time>2015-12-12T09:24:53.81Z</time>
      </trkpt>
      <trkpt lat="45.96034" lon="4.71547">
        <ele>187.100006104</ele>
        <time>2015-12-12T09:24:54.774Z</time>
      </trkpt>
      <trkpt lat="45.96039" lon="4.71548">
        <ele>187.199996948</ele>
        <time>2015-12-12T09:24:55.793Z</time>
      </trkpt>
      <trkpt lat="45.96045" lon="4.71548">
        <ele>187.5</ele>
        <time>2015-12-12T09:24:56.774Z</time>
      </trkpt>
      <trkpt lat="45.96051" lon="4.71549">
        <ele>187.699996948</ele>
        <time>2015-12-12T09:24:57.791Z</time>
      </trkpt>
      <trkpt lat="45.96057" lon="4.7155">
        <ele>187.800003052</ele>
        <time>2015-12-12T09:24:58.774Z</time>
      </trkpt>
      <trkpt lat="45.96064" lon="4.71552">
        <ele>187.699996948</ele>
        <time>2015-12-12T09:24:59.81Z</time>
      </trkpt>
      <trkpt lat="45.96071" lon="4.71554">
        <ele>187.800003052</ele>
        <time>2015-12-12T09:25:00.774Z</time>
      </trkpt>
      <trkpt lat="45.96077" lon="4.71556">
        <ele>187.699996948</ele>
        <time>2015-12-12T09:25:01.792Z</time>
      </trkpt>
      <trkpt lat="45.96083" lon="4.71557">
        <ele>187.800003052</ele>
        <time>2015-12-12T09:25:02.774Z</time>
      </trkpt>
      <trkpt lat="45.9609" lon="4.71558">
        <ele>187.5</ele>
        <time>2015-12-12T09:25:03.792Z</time>
      </trkpt>
      <trkpt lat="45.96096" lon="4.71559">
        <ele>187.399993896</ele>
        <time>2015-12-12T09:25:04.774Z</time>
      </trkpt>
      <trkpt lat="45.96102" lon="4.71559">
        <ele>187.399993896</ele>
        <time>2015-12-12T09:25:05.797Z</time>
      </trkpt>
      <trkpt lat="45.96108" lon="4.7156">
        <ele>187.5</ele>
        <time>2015-12-12T09:25:06.774Z</time>
      </trkpt>
      <trkpt lat="45.96115" lon="4.71561">
        <ele>187.5</ele>
        <time>2015-12-12T09:25:07.8Z</time>
      </trkpt>
      <trkpt lat="45.96121" lon="4.71562">
        <ele>187.199996948</ele>
        <time>2015-12-12T09:25:08.772Z</time>
      </trkpt>
      <trkpt lat="45.96128" lon="4.71563">
        <ele>186.699996948</ele>
        <time>2015-12-12T09:25:09.944Z</time>
      </trkpt>
      <trkpt lat="45.96135" lon="4.71564">
        <ele>186.5</ele>
        <time>2015-12-12T09:25:10.774Z</time>
      </trkpt>
      <trkpt lat="45.96142" lon="4.71565">
        <ele>186.699996948</ele>
        <time>2015-12-12T09:25:11.794Z</time>
      </trkpt>
      <trkpt lat="45.9615" lon="4.71566">
        <ele>186.399993896</ele>
        <time>2015-12-12T09:25:12.774Z</time>
      </trkpt>
      <trkpt lat="45.96157" lon="4.71567">
        <ele>186.199996948</ele>
        <time>2015-12-12T09:25:13.791Z</time>
      </trkpt>
      <trkpt lat="45.96164" lon="4.71568">
        <ele>186.300003052</ele>
        <time>2015-12-12T09:25:14.774Z</time>
      </trkpt>
      <trkpt lat="45.96171" lon="4.71569">
        <ele>186.5</ele>
        <time>2015-12-12T09:25:15.79Z</time>
      </trkpt>
      <trkpt lat="45.96178" lon="4.7157">
        <ele>186</ele>
        <time>2015-12-12T09:25:16.774Z</time>
      </trkpt>
      <trkpt lat="45.96186" lon="4.71571">
        <ele>185.899993896</ele>
        <time>2015-12-12T09:25:17.794Z</time>
      </trkpt>
      <trkpt lat="45.96193" lon="4.71572">
        <ele>185.699996948</ele>
        <time>2015-12-12T09:25:18.774Z</time>
      </trkpt>
      <trkpt lat="45.962" lon="4.71573">
        <ele>185.5</ele>
        <time>2015-12-12T09:25:19.791Z</time>
      </trkpt>
      <trkpt lat="45.96208" lon="4.71575">
        <ele>185.300003052</ele>
        <time>2015-12-12T09:25:20.773Z</time>
      </trkpt>
      <trkpt lat="45.96215" lon="4.71576">
        <ele>185</ele>
        <time>2015-12-12T09:25:21.791Z</time>
      </trkpt>
      <trkpt lat="45.96223" lon="4.71577">
        <ele>184.800003052</ele>
        <time>2015-12-12T09:25:22.774Z</time>
      </trkpt>
      <trkpt lat="45.9623" lon="4.71578">
        <ele>184.699996948</ele>
        <time>2015-12-12T09:25:23.794Z</time>
      </trkpt>
      <trkpt lat="45.96238" lon="4.71579">
        <ele>184.600006104</ele>
        <time>2015-12-12T09:25:24.774Z</time>
      </trkpt>
      <trkpt lat="45.96246" lon="4.7158">
        <ele>184.5</ele>
        <time>2015-12-12T09:25:25.806Z</time>
      </trkpt>
      <trkpt lat="45.96254" lon="4.71581">
        <ele>184.399993896</ele>
        <time>2015-12-12T09:25:26.774Z</time>
      </trkpt>
      <trkpt lat="45.96262" lon="4.71583">
        <ele>184.399993896</ele>
        <time>2015-12-12T09:25:27.814Z</time>
      </trkpt>
      <trkpt lat="45.9627" lon="4.71584">
        <ele>184.300003052</ele>
        <time>2015-12-12T09:25:28.774Z</time>
      </trkpt>
      <trkpt lat="45.96277" lon="4.71586">
        <ele>184.100006104</ele>
        <time>2015-12-12T09:25:29.795Z</time>
      </trkpt>
      <trkpt lat="45.96285" lon="4.71587">
        <ele>184</ele>
        <time>2015-12-12T09:25:30.774Z</time>
      </trkpt>
      <trkpt lat="45.96292" lon="4.71587">
        <ele>183.600006104</ele>
        <time>2015-12-12T09:25:31.793Z</time>
      </trkpt>
      <trkpt lat="45.96299" lon="4.71588">
        <ele>183.600006104</ele>
        <time>2015-12-12T09:25:32.774Z</time>
      </trkpt>
      <trkpt lat="45.96307" lon="4.71589">
        <ele>183.699996948</ele>
        <time>2015-12-12T09:25:33.792Z</time>
      </trkpt>
      <trkpt lat="45.96313" lon="4.7159">
        <ele>183.699996948</ele>
        <time>2015-12-12T09:25:34.774Z</time>
      </trkpt>
      <trkpt lat="45.9632" lon="4.71591">
        <ele>183.5</ele>
        <time>2015-12-12T09:25:35.794Z</time>
      </trkpt>
      <trkpt lat="45.96327" lon="4.71592">
        <ele>183.699996948</ele>
        <time>2015-12-12T09:25:36.774Z</time>
      </trkpt>
      <trkpt lat="45.96333" lon="4.71594">
        <ele>183.5</ele>
        <time>2015-12-12T09:25:37.792Z</time>
      </trkpt>
      <trkpt lat="45.9634" lon="4.71595">
        <ele>183.399993896</ele>
        <time>2015-12-12T09:25:38.774Z</time>
      </trkpt>
      <trkpt lat="45.96346" lon="4.71595">
        <ele>183.199996948</ele>
        <time>2015-12-12T09:25:39.792Z</time>
      </trkpt>
      <trkpt lat="45.96352" lon="4.71596">
        <ele>183.199996948</ele>
        <time>2015-12-12T09:25:40.774Z</time>
      </trkpt>
      <trkpt lat="45.96358" lon="4.71598">
        <ele>183.399993896</ele>
        <time>2015-12-12T09:25:41.81Z</time>
      </trkpt>
      <trkpt lat="45.96365" lon="4.71599">
        <ele>183.300003052</ele>
        <time>2015-12-12T09:25:42.774Z</time>
      </trkpt>
      <trkpt lat="45.96371" lon="4.716">
        <ele>183.300003052</ele>
        <time>2015-12-12T09:25:43.793Z</time>
      </trkpt>
      <trkpt lat="45.96378" lon="4.71601">
        <ele>183.399993896</ele>
        <time>2015-12-12T09:25:44.774Z</time>
      </trkpt>
      <trkpt lat="45.96384" lon="4.71602">
        <ele>183.5</ele>
        <time>2015-12-12T09:25:45.79Z</time>
      </trkpt>
      <trkpt lat="45.96391" lon="4.71603">
        <ele>183.5</ele>
        <time>2015-12-12T09:25:46.774Z</time>
      </trkpt>
      <trkpt lat="45.96397" lon="4.71604">
        <ele>183.600006104</ele>
        <time>2015-12-12T09:25:47.794Z</time>
      </trkpt>
      <trkpt lat="45.96404" lon="4.71605">
        <ele>183.699996948</ele>
        <time>2015-12-12T09:25:48.774Z</time>
      </trkpt>
      <trkpt lat="45.96411" lon="4.71606">
        <ele>183.800003052</ele>
        <time>2015-12-12T09:25:49.791Z</time>
      </trkpt>
      <trkpt lat="45.96417" lon="4.71607">
        <ele>183.899993896</ele>
        <time>2015-12-12T09:25:50.776Z</time>
      </trkpt>
      <trkpt lat="45.96424" lon="4.71608">
        <ele>184</ele>
        <time>2015-12-12T09:25:51.792Z</time>
      </trkpt>
      <trkpt lat="45.9643" lon="4.71609">
        <ele>184.100006104</ele>
        <time>2015-12-12T09:25:52.773Z</time>
      </trkpt>
      <trkpt lat="45.96437" lon="4.7161">
        <ele>184</ele>
        <time>2015-12-12T09:25:53.794Z</time>
      </trkpt>
      <trkpt lat="45.96443" lon="4.71611">
        <ele>184.100006104</ele>
        <time>2015-12-12T09:25:54.774Z</time>
      </trkpt>
      <trkpt lat="45.9645" lon="4.71612">
        <ele>184</ele>
        <time>2015-12-12T09:25:55.791Z</time>
      </trkpt>
      <trkpt lat="45.96457" lon="4.71613">
        <ele>184</ele>
        <time>2015-12-12T09:25:56.774Z</time>
      </trkpt>
      <trkpt lat="45.96463" lon="4.71614">
        <ele>183.899993896</ele>
        <time>2015-12-12T09:25:57.933Z</time>
      </trkpt>
      <trkpt lat="45.9647" lon="4.71616">
        <ele>184</ele>
        <time>2015-12-12T09:25:58.774Z</time>
      </trkpt>
      <trkpt lat="45.96476" lon="4.71617">
        <ele>184.100006104</ele>
        <time>2015-12-12T09:25:59.803Z</time>
      </trkpt>
      <trkpt lat="45.96483" lon="4.71618">
        <ele>184.199996948</ele>
        <time>2015-12-12T09:26:00.774Z</time>
      </trkpt>
      <trkpt lat="45.96489" lon="4.71619">
        <ele>184.300003052</ele>
        <time>2015-12-12T09:26:01.798Z</time>
      </trkpt>
      <trkpt lat="45.96495" lon="4.71621">
        <ele>184.199996948</ele>
        <time>2015-12-12T09:26:02.774Z</time>
      </trkpt>
      <trkpt lat="45.96501" lon="4.71622">
        <ele>184.300003052</ele>
        <time>2015-12-12T09:26:03.79Z</time>
      </trkpt>
      <trkpt lat="45.96506" lon="4.71623">
        <ele>184.300003052</ele>
        <time>2015-12-12T09:26:04.772Z</time>
      </trkpt>
      <trkpt lat="45.96511" lon="4.71625">
        <ele>184.300003052</ele>
        <time>2015-12-12T09:26:05.795Z</time>
      </trkpt>
      <trkpt lat="45.96516" lon="4.71628">
        <ele>184.300003052</ele>
        <time>2015-12-12T09:26:06.774Z</time>
      </trkpt>
      <trkpt lat="45.9652" lon="4.71633">
        <ele>184.300003052</ele>
        <time>2015-12-12T09:26:07.792Z</time>
      </trkpt>
      <trkpt lat="45.96524" lon="4.71638">
        <ele>184.399993896</ele>
        <time>2015-12-12T09:26:08.788Z</time>
      </trkpt>
      <trkpt lat="45.96528" lon="4.71641">
        <ele>184.300003052</ele>
        <time>2015-12-12T09:26:09.791Z</time>
      </trkpt>
      <trkpt lat="45.96533" lon="4.71643">
        <ele>184.199996948</ele>
        <time>2015-12-12T09:26:10.775Z</time>
      </trkpt>
      <trkpt lat="45.96538" lon="4.71642">
        <ele>184.300003052</ele>
        <time>2015-12-12T09:26:11.794Z</time>
      </trkpt>
      <trkpt lat="45.96543" lon="4.7164">
        <ele>184.5</ele>
        <time>2015-12-12T09:26:12.774Z</time>
      </trkpt>
      <trkpt lat="45.96549" lon="4.71637">
        <ele>184.699996948</ele>
        <time>2015-12-12T09:26:13.791Z</time>
      </trkpt>
      <trkpt lat="45.96554" lon="4.71633">
        <ele>184.5</ele>
        <time>2015-12-12T09:26:14.774Z</time>
      </trkpt>
      <trkpt lat="45.9656" lon="4.71631">
        <ele>184.399993896</ele>
        <time>2015-12-12T09:26:15.791Z</time>
      </trkpt>
      <trkpt lat="45.96566" lon="4.71631">
        <ele>184.399993896</ele>
        <time>2015-12-12T09:26:16.774Z</time>
      </trkpt>
      <trkpt lat="45.96571" lon="4.71632">
        <ele>184.699996948</ele>
        <time>2015-12-12T09:26:17.795Z</time>
      </trkpt>
      <trkpt lat="45.96577" lon="4.71634">
        <ele>184.600006104</ele>
        <time>2015-12-12T09:26:18.774Z</time>
      </trkpt>
      <trkpt lat="45.96582" lon="4.71635">
        <ele>184.699996948</ele>
        <time>2015-12-12T09:26:19.808Z</time>
      </trkpt>
      <trkpt lat="45.96588" lon="4.71635">
        <ele>184.5</ele>
        <time>2015-12-12T09:26:20.774Z</time>
      </trkpt>
      <trkpt lat="45.96594" lon="4.71636">
        <ele>184.800003052</ele>
        <time>2015-12-12T09:26:21.79Z</time>
      </trkpt>
      <trkpt lat="45.96599" lon="4.71636">
        <ele>185.100006104</ele>
        <time>2015-12-12T09:26:22.774Z</time>
      </trkpt>
      <trkpt lat="45.96605" lon="4.71637">
        <ele>185.300003052</ele>
        <time>2015-12-12T09:26:23.794Z</time>
      </trkpt>
      <trkpt lat="45.96611" lon="4.71637">
        <ele>185.100006104</ele>
        <time>2015-12-12T09:26:24.774Z</time>
      </trkpt>
      <trkpt lat="45.96617" lon="4.71639">
        <ele>185.399993896</ele>
        <time>2015-12-12T09:26:25.793Z</time>
      </trkpt>
      <trkpt lat="45.96623" lon="4.7164">
        <ele>185.199996948</ele>
        <time>2015-12-12T09:26:26.774Z</time>
      </trkpt>
      <trkpt lat="45.96629" lon="4.71641">
        <ele>185.5</ele>
        <time>2015-12-12T09:26:27.791Z</time>
      </trkpt>
      <trkpt lat="45.96634" lon="4.71641">
        <ele>186.199996948</ele>
        <time>2015-12-12T09:26:28.774Z</time>
      </trkpt>
      <trkpt lat="45.9664" lon="4.71642">
        <ele>185.800003052</ele>
        <time>2015-12-12T09:26:29.795Z</time>
      </trkpt>
      <trkpt lat="45.96646" lon="4.71643">
        <ele>186.199996948</ele>
        <time>2015-12-12T09:26:30.774Z</time>
      </trkpt>
      <trkpt lat="45.96651" lon="4.71644">
        <ele>186.300003052</ele>
        <time>2015-12-12T09:26:31.792Z</time>
      </trkpt>
      <trkpt lat="45.96657" lon="4.71645">
        <ele>186.199996948</ele>
        <time>2015-12-12T09:26:32.774Z</time>
      </trkpt>
      <trkpt lat="45.96663" lon="4.71646">
        <ele>187</ele>
        <time>2015-12-12T09:26:33.924Z</time>
      </trkpt>
      <trkpt lat="45.96669" lon="4.71647">
        <ele>186.800003052</ele>
        <time>2015-12-12T09:26:34.774Z</time>
      </trkpt>
      <trkpt lat="45.96674" lon="4.71648">
        <ele>186.899993896</ele>
        <time>2015-12-12T09:26:35.812Z</time>
      </trkpt>
      <trkpt lat="45.9668" lon="4.71649">
        <ele>187.300003052</ele>
        <time>2015-12-12T09:26:36.776Z</time>
      </trkpt>
      <trkpt lat="45.96686" lon="4.71649">
        <ele>187.600006104</ele>
        <time>2015-12-12T09:26:37.795Z</time>
      </trkpt>
      <trkpt lat="45.96691" lon="4.7165">
        <ele>187.899993896</ele>
        <time>2015-12-12T09:26:38.776Z</time>
      </trkpt>
      <trkpt lat="45.96697" lon="4.71651">
        <ele>187.899993896</ele>
        <time>2015-12-12T09:26:39.792Z</time>
      </trkpt>
      <trkpt lat="45.96702" lon="4.71652">
        <ele>188.300003052</ele>
        <time>2015-12-12T09:26:40.776Z</time>
      </trkpt>
      <trkpt lat="45.96708" lon="4.71653">
        <ele>188.300003052</ele>
        <time>2015-12-12T09:26:41.796Z</time>
      </trkpt>
      <trkpt lat="45.96714" lon="4.71654">
        <ele>188.600006104</ele>
        <time>2015-12-12T09:26:42.776Z</time>
      </trkpt>
      <trkpt lat="45.96719" lon="4.71655">
        <ele>188.699996948</ele>
        <time>2015-12-12T09:26:43.793Z</time>
      </trkpt>
      <trkpt lat="45.96725" lon="4.71656">
        <ele>188.800003052</ele>
        <time>2015-12-12T09:26:44.776Z</time>
      </trkpt>
      <trkpt lat="45.96731" lon="4.71657">
        <ele>188.300003052</ele>
        <time>2015-12-12T09:26:45.791Z</time>
      </trkpt>
      <trkpt lat="45.96737" lon="4.71658">
        <ele>188.300003052</ele>
        <time>2015-12-12T09:26:46.775Z</time>
      </trkpt>
      <trkpt lat="45.96743" lon="4.71659">
        <ele>188.5</ele>
        <time>2015-12-12T09:26:47.795Z</time>
      </trkpt>
      <trkpt lat="45.96748" lon="4.7166">
        <ele>188.399993896</ele>
        <time>2015-12-12T09:26:48.776Z</time>
      </trkpt>
      <trkpt lat="45.96754" lon="4.71661">
        <ele>188.800003052</ele>
        <time>2015-12-12T09:26:49.792Z</time>
      </trkpt>
      <trkpt lat="45.9676" lon="4.71662">
        <ele>188.600006104</ele>
        <time>2015-12-12T09:26:50.783Z</time>
      </trkpt>
      <trkpt lat="45.96766" lon="4.71662">
        <ele>188.699996948</ele>
        <time>2015-12-12T09:26:51.81Z</time>
      </trkpt>
      <trkpt lat="45.96771" lon="4.71663">
        <ele>188.800003052</ele>
        <time>2015-12-12T09:26:52.776Z</time>
      </trkpt>
      <trkpt lat="45.96777" lon="4.71664">
        <ele>189.399993896</ele>
        <time>2015-12-12T09:26:53.795Z</time>
      </trkpt>
      <trkpt lat="45.96783" lon="4.71665">
        <ele>189.399993896</ele>
        <time>2015-12-12T09:26:54.775Z</time>
      </trkpt>
      <trkpt lat="45.96788" lon="4.71666">
        <ele>189.399993896</ele>
        <time>2015-12-12T09:26:55.793Z</time>
      </trkpt>
      <trkpt lat="45.96794" lon="4.71667">
        <ele>189.600006104</ele>
        <time>2015-12-12T09:26:56.774Z</time>
      </trkpt>
      <trkpt lat="45.968" lon="4.71668">
        <ele>189.800003052</ele>
        <time>2015-12-12T09:26:57.792Z</time>
      </trkpt>
      <trkpt lat="45.96805" lon="4.71669">
        <ele>190</ele>
        <time>2015-12-12T09:26:58.774Z</time>
      </trkpt>
      <trkpt lat="45.96811" lon="4.7167">
        <ele>190.100006104</ele>
        <time>2015-12-12T09:26:59.799Z</time>
      </trkpt>
      <trkpt lat="45.96817" lon="4.71671">
        <ele>190.199996948</ele>
        <time>2015-12-12T09:27:00.775Z</time>
      </trkpt>
      <trkpt lat="45.96822" lon="4.71672">
        <ele>190.399993896</ele>
        <time>2015-12-12T09:27:01.792Z</time>
      </trkpt>
      <trkpt lat="45.96828" lon="4.71673">
        <ele>190.600006104</ele>
        <time>2015-12-12T09:27:02.775Z</time>
      </trkpt>
      <trkpt lat="45.96834" lon="4.71674">
        <ele>190.800003052</ele>
        <time>2015-12-12T09:27:03.792Z</time>
      </trkpt>
      <trkpt lat="45.9684" lon="4.71675">
        <ele>191.300003052</ele>
        <time>2015-12-12T09:27:04.775Z</time>
      </trkpt>
      <trkpt lat="45.96846" lon="4.71676">
        <ele>191.600006104</ele>
        <time>2015-12-12T09:27:05.796Z</time>
      </trkpt>
      <trkpt lat="45.96852" lon="4.71677">
        <ele>191.899993896</ele>
        <time>2015-12-12T09:27:06.775Z</time>
      </trkpt>
      <trkpt lat="45.96858" lon="4.71677">
        <ele>192</ele>
        <time>2015-12-12T09:27:07.82Z</time>
      </trkpt>
      <trkpt lat="45.96864" lon="4.71678">
        <ele>192.5</ele>
        <time>2015-12-12T09:27:08.775Z</time>
      </trkpt>
      <trkpt lat="45.9687" lon="4.71679">
        <ele>192.699996948</ele>
        <time>2015-12-12T09:27:09.791Z</time>
      </trkpt>
      <trkpt lat="45.96876" lon="4.7168">
        <ele>193</ele>
        <time>2015-12-12T09:27:10.774Z</time>
      </trkpt>
      <trkpt lat="45.96881" lon="4.7168">
        <ele>193.199996948</ele>
        <time>2015-12-12T09:27:11.795Z</time>
      </trkpt>
      <trkpt lat="45.96887" lon="4.7168">
        <ele>193.300003052</ele>
        <time>2015-12-12T09:27:12.775Z</time>
      </trkpt>
      <trkpt lat="45.96893" lon="4.71681">
        <ele>193.300003052</ele>
        <time>2015-12-12T09:27:13.792Z</time>
      </trkpt>
      <trkpt lat="45.96899" lon="4.71682">
        <ele>193.699996948</ele>
        <time>2015-12-12T09:27:14.774Z</time>
      </trkpt>
      <trkpt lat="45.96905" lon="4.71682">
        <ele>193.699996948</ele>
        <time>2015-12-12T09:27:15.79Z</time>
      </trkpt>
      <trkpt lat="45.96911" lon="4.71682">
        <ele>193.899993896</ele>
        <time>2015-12-12T09:27:16.774Z</time>
      </trkpt>
      <trkpt lat="45.96917" lon="4.71683">
        <ele>194.100006104</ele>
        <time>2015-12-12T09:27:17.794Z</time>
      </trkpt>
      <trkpt lat="45.96923" lon="4.71683">
        <ele>194.199996948</ele>
        <time>2015-12-12T09:27:18.789Z</time>
      </trkpt>
      <trkpt lat="45.96929" lon="4.71683">
        <ele>194.800003052</ele>
        <time>2015-12-12T09:27:19.793Z</time>
      </trkpt>
      <trkpt lat="45.96935" lon="4.71684">
        <ele>194.600006104</ele>
        <time>2015-12-12T09:27:20.775Z</time>
      </trkpt>
      <trkpt lat="45.96941" lon="4.71685">
        <ele>194.300003052</ele>
        <time>2015-12-12T09:27:21.792Z</time>
      </trkpt>
      <trkpt lat="45.96947" lon="4.71685">
        <ele>193.899993896</ele>
        <time>2015-12-12T09:27:22.774Z</time>
      </trkpt>
      <trkpt lat="45.96953" lon="4.71686">
        <ele>194.100006104</ele>
        <time>2015-12-12T09:27:23.795Z</time>
      </trkpt>
      <trkpt lat="45.96959" lon="4.71688">
        <ele>194</ele>
        <time>2015-12-12T09:27:24.774Z</time>
      </trkpt>
      <trkpt lat="45.96966" lon="4.71689">
        <ele>194.300003052</ele>
        <time>2015-12-12T09:27:25.794Z</time>
      </trkpt>
      <trkpt lat="45.96971" lon="4.7169">
        <ele>194.100006104</ele>
        <time>2015-12-12T09:27:26.774Z</time>
      </trkpt>
      <trkpt lat="45.96977" lon="4.71691">
        <ele>193.699996948</ele>
        <time>2015-12-12T09:27:27.791Z</time>
      </trkpt>
      <trkpt lat="45.96983" lon="4.71691">
        <ele>193.800003052</ele>
        <time>2015-12-12T09:27:28.774Z</time>
      </trkpt>
      <trkpt lat="45.96989" lon="4.71691">
        <ele>193.5</ele>
        <time>2015-12-12T09:27:29.794Z</time>
      </trkpt>
      <trkpt lat="45.96994" lon="4.7169">
        <ele>193.199996948</ele>
        <time>2015-12-12T09:27:30.774Z</time>
      </trkpt>
      <trkpt lat="45.96999" lon="4.7169">
        <ele>193.100006104</ele>
        <time>2015-12-12T09:27:31.793Z</time>
      </trkpt>
      <trkpt lat="45.97004" lon="4.71689">
        <ele>192.800003052</ele>
        <time>2015-12-12T09:27:32.774Z</time>
      </trkpt>
      <trkpt lat="45.97011" lon="4.71691">
        <ele>192.699996948</ele>
        <time>2015-12-12T09:27:33.798Z</time>
      </trkpt>
      <trkpt lat="45.97017" lon="4.71692">
        <ele>193</ele>
        <time>2015-12-12T09:27:34.774Z</time>
      </trkpt>
      <trkpt lat="45.97024" lon="4.71692">
        <ele>193.100006104</ele>
        <time>2015-12-12T09:27:35.794Z</time>
      </trkpt>
      <trkpt lat="45.9703" lon="4.71692">
        <ele>192.600006104</ele>
        <time>2015-12-12T09:27:36.774Z</time>
      </trkpt>
      <trkpt lat="45.97036" lon="4.71693">
        <ele>192.699996948</ele>
        <time>2015-12-12T09:27:37.792Z</time>
      </trkpt>
      <trkpt lat="45.97041" lon="4.71693">
        <ele>192.300003052</ele>
        <time>2015-12-12T09:27:38.774Z</time>
      </trkpt>
      <trkpt lat="45.97047" lon="4.71694">
        <ele>192.300003052</ele>
        <time>2015-12-12T09:27:39.791Z</time>
      </trkpt>
      <trkpt lat="45.97053" lon="4.71694">
        <ele>192.199996948</ele>
        <time>2015-12-12T09:27:40.774Z</time>
      </trkpt>
      <trkpt lat="45.97059" lon="4.71695">
        <ele>191.899993896</ele>
        <time>2015-12-12T09:27:41.795Z</time>
      </trkpt>
      <trkpt lat="45.97065" lon="4.71695">
        <ele>191.5</ele>
        <time>2015-12-12T09:27:42.774Z</time>
      </trkpt>
      <trkpt lat="45.97071" lon="4.71695">
        <ele>191.100006104</ele>
        <time>2015-12-12T09:27:43.791Z</time>
      </trkpt>
      <trkpt lat="45.97077" lon="4.71695">
        <ele>190.899993896</ele>
        <time>2015-12-12T09:27:44.774Z</time>
      </trkpt>
      <trkpt lat="45.97083" lon="4.71696">
        <ele>190.800003052</ele>
        <time>2015-12-12T09:27:45.791Z</time>
      </trkpt>
      <trkpt lat="45.97088" lon="4.71697">
        <ele>190.600006104</ele>
        <time>2015-12-12T09:27:46.775Z</time>
      </trkpt>
      <trkpt lat="45.97093" lon="4.71698">
        <ele>190.800003052</ele>
        <time>2015-12-12T09:27:47.795Z</time>
      </trkpt>
      <trkpt lat="45.97098" lon="4.71699">
        <ele>190.699996948</ele>
        <time>2015-12-12T09:27:48.774Z</time>
      </trkpt>
      <trkpt lat="45.97104" lon="4.71699">
        <ele>190.199996948</ele>
        <time>2015-12-12T09:27:49.791Z</time>
      </trkpt>
      <trkpt lat="45.97108" lon="4.71699">
        <ele>190.100006104</ele>
        <time>2015-12-12T09:27:50.777Z</time>
      </trkpt>
      <trkpt lat="45.97114" lon="4.717">
        <ele>190</ele>
        <time>2015-12-12T09:27:51.794Z</time>
      </trkpt>
      <trkpt lat="45.97119" lon="4.717">
        <ele>190</ele>
        <time>2015-12-12T09:27:52.774Z</time>
      </trkpt>
      <trkpt lat="45.97125" lon="4.717">
        <ele>190.199996948</ele>
        <time>2015-12-12T09:27:53.795Z</time>
      </trkpt>
      <trkpt lat="45.9713" lon="4.71701">
        <ele>190.5</ele>
        <time>2015-12-12T09:27:54.774Z</time>
      </trkpt>
      <trkpt lat="45.97136" lon="4.71702">
        <ele>190.899993896</ele>
        <time>2015-12-12T09:27:55.791Z</time>
      </trkpt>
      <trkpt lat="45.97142" lon="4.71702">
        <ele>191.199996948</ele>
        <time>2015-12-12T09:27:56.774Z</time>
      </trkpt>
      <trkpt lat="45.97147" lon="4.71703">
        <ele>191.199996948</ele>
        <time>2015-12-12T09:27:57.79Z</time>
      </trkpt>
      <trkpt lat="45.97153" lon="4.71703">
        <ele>191.300003052</ele>
        <time>2015-12-12T09:27:58.774Z</time>
      </trkpt>
      <trkpt lat="45.97159" lon="4.71705">
        <ele>191.699996948</ele>
        <time>2015-12-12T09:27:59.794Z</time>
      </trkpt>
      <trkpt lat="45.97165" lon="4.71706">
        <ele>192.199996948</ele>
        <time>2015-12-12T09:28:00.774Z</time>
      </trkpt>
      <trkpt lat="45.97171" lon="4.71706">
        <ele>192.5</ele>
        <time>2015-12-12T09:28:01.792Z</time>
      </trkpt>
      <trkpt lat="45.97177" lon="4.71707">
        <ele>193.100006104</ele>
        <time>2015-12-12T09:28:02.774Z</time>
      </trkpt>
      <trkpt lat="45.97183" lon="4.71707">
        <ele>193.600006104</ele>
        <time>2015-12-12T09:28:03.791Z</time>
      </trkpt>
      <trkpt lat="45.97189" lon="4.71707">
        <ele>194.100006104</ele>
        <time>2015-12-12T09:28:04.774Z</time>
      </trkpt>
      <trkpt lat="45.97195" lon="4.71707">
        <ele>194.100006104</ele>
        <time>2015-12-12T09:28:05.794Z</time>
      </trkpt>
      <trkpt lat="45.97202" lon="4.71708">
        <ele>194.699996948</ele>
        <time>2015-12-12T09:28:06.774Z</time>
      </trkpt>
      <trkpt lat="45.97207" lon="4.71709">
        <ele>195.300003052</ele>
        <time>2015-12-12T09:28:07.806Z</time>
      </trkpt>
      <trkpt lat="45.97213" lon="4.71709">
        <ele>195.800003052</ele>
        <time>2015-12-12T09:28:08.774Z</time>
      </trkpt>
      <trkpt lat="45.97219" lon="4.7171">
        <ele>196.699996948</ele>
        <time>2015-12-12T09:28:09.819Z</time>
      </trkpt>
      <trkpt lat="45.97224" lon="4.71711">
        <ele>197.100006104</ele>
        <time>2015-12-12T09:28:10.775Z</time>
      </trkpt>
      <trkpt lat="45.9723" lon="4.71712">
        <ele>197.100006104</ele>
        <time>2015-12-12T09:28:11.795Z</time>
      </trkpt>
      <trkpt lat="45.97235" lon="4.71712">
        <ele>197</ele>
        <time>2015-12-12T09:28:12.775Z</time>
      </trkpt>
      <trkpt lat="45.97241" lon="4.71713">
        <ele>197</ele>
        <time>2015-12-12T09:28:13.792Z</time>
      </trkpt>
      <trkpt lat="45.97246" lon="4.71714">
        <ele>196.899993896</ele>
        <time>2015-12-12T09:28:14.775Z</time>
      </trkpt>
      <trkpt lat="45.97251" lon="4.71715">
        <ele>196.600006104</ele>
        <time>2015-12-12T09:28:15.791Z</time>
      </trkpt>
      <trkpt lat="45.97256" lon="4.71717">
        <ele>196.800003052</ele>
        <time>2015-12-12T09:28:16.774Z</time>
      </trkpt>
      <trkpt lat="45.97261" lon="4.71718">
        <ele>196.5</ele>
        <time>2015-12-12T09:28:17.797Z</time>
      </trkpt>
      <trkpt lat="45.97267" lon="4.71719">
        <ele>196.699996948</ele>
        <time>2015-12-12T09:28:18.774Z</time>
      </trkpt>
      <trkpt lat="45.97272" lon="4.7172">
        <ele>196.699996948</ele>
        <time>2015-12-12T09:28:19.936Z</time>
      </trkpt>
      <trkpt lat="45.97277" lon="4.71721">
        <ele>196.600006104</ele>
        <time>2015-12-12T09:28:20.774Z</time>
      </trkpt>
      <trkpt lat="45.97282" lon="4.71723">
        <ele>196.800003052</ele>
        <time>2015-12-12T09:28:21.791Z</time>
      </trkpt>
      <trkpt lat="45.97286" lon="4.71726">
        <ele>196.199996948</ele>
        <time>2015-12-12T09:28:22.774Z</time>
      </trkpt>
      <trkpt lat="45.9729" lon="4.71731">
        <ele>196.399993896</ele>
        <time>2015-12-12T09:28:23.794Z</time>
      </trkpt>
      <trkpt lat="45.97294" lon="4.71735">
        <ele>196.199996948</ele>
        <time>2015-12-12T09:28:24.774Z</time>
      </trkpt>
      <trkpt lat="45.97298" lon="4.71739">
        <ele>196.100006104</ele>
        <time>2015-12-12T09:28:25.791Z</time>
      </trkpt>
      <trkpt lat="45.97303" lon="4.71741">
        <ele>196</ele>
        <time>2015-12-12T09:28:26.775Z</time>
      </trkpt>
      <trkpt lat="45.97309" lon="4.71741">
        <ele>196.100006104</ele>
        <time>2015-12-12T09:28:27.793Z</time>
      </trkpt>
      <trkpt lat="45.97315" lon="4.71738">
        <ele>196</ele>
        <time>2015-12-12T09:28:28.776Z</time>
      </trkpt>
      <trkpt lat="45.9732" lon="4.71734">
        <ele>195.800003052</ele>
        <time>2015-12-12T09:28:29.797Z</time>
      </trkpt>
      <trkpt lat="45.97325" lon="4.71729">
        <ele>195.699996948</ele>
        <time>2015-12-12T09:28:30.776Z</time>
      </trkpt>
      <trkpt lat="45.9733" lon="4.71725">
        <ele>195.600006104</ele>
        <time>2015-12-12T09:28:31.945Z</time>
      </trkpt>
      <trkpt lat="45.97335" lon="4.71722">
        <ele>195.600006104</ele>
        <time>2015-12-12T09:28:32.774Z</time>
      </trkpt>
      <trkpt lat="45.97341" lon="4.71721">
        <ele>195.600006104</ele>
        <time>2015-12-12T09:28:33.838Z</time>
      </trkpt>
      <trkpt lat="45.97346" lon="4.71722">
        <ele>195.300003052</ele>
        <time>2015-12-12T09:28:34.774Z</time>
      </trkpt>
      <trkpt lat="45.97352" lon="4.71724">
        <ele>195.199996948</ele>
        <time>2015-12-12T09:28:35.794Z</time>
      </trkpt>
      <trkpt lat="45.97358" lon="4.71725">
        <ele>195.5</ele>
        <time>2015-12-12T09:28:36.774Z</time>
      </trkpt>
      <trkpt lat="45.97364" lon="4.71726">
        <ele>195.899993896</ele>
        <time>2015-12-12T09:28:37.792Z</time>
      </trkpt>
      <trkpt lat="45.9737" lon="4.71727">
        <ele>196.300003052</ele>
        <time>2015-12-12T09:28:38.774Z</time>
      </trkpt>
      <trkpt lat="45.97376" lon="4.71727">
        <ele>196.100006104</ele>
        <time>2015-12-12T09:28:39.79Z</time>
      </trkpt>
      <trkpt lat="45.97381" lon="4.71727">
        <ele>196.399993896</ele>
        <time>2015-12-12T09:28:40.774Z</time>
      </trkpt>
      <trkpt lat="45.97387" lon="4.71728">
        <ele>196.5</ele>
        <time>2015-12-12T09:28:41.795Z</time>
      </trkpt>
      <trkpt lat="45.97393" lon="4.71728">
        <ele>196.800003052</ele>
        <time>2015-12-12T09:28:42.774Z</time>
      </trkpt>
      <trkpt lat="45.97399" lon="4.71729">
        <ele>196.699996948</ele>
        <time>2015-12-12T09:28:43.795Z</time>
      </trkpt>
      <trkpt lat="45.97405" lon="4.71729">
        <ele>196.199996948</ele>
        <time>2015-12-12T09:28:44.907Z</time>
      </trkpt>
      <trkpt lat="45.97412" lon="4.71729">
        <ele>196.5</ele>
        <time>2015-12-12T09:28:45.791Z</time>
      </trkpt>
      <trkpt lat="45.97418" lon="4.7173">
        <ele>196.5</ele>
        <time>2015-12-12T09:28:46.774Z</time>
      </trkpt>
      <trkpt lat="45.97424" lon="4.7173">
        <ele>196.699996948</ele>
        <time>2015-12-12T09:28:47.808Z</time>
      </trkpt>
      <trkpt lat="45.97431" lon="4.71731">
        <ele>196.5</ele>
        <time>2015-12-12T09:28:48.774Z</time>
      </trkpt>
      <trkpt lat="45.97437" lon="4.71731">
        <ele>196.5</ele>
        <time>2015-12-12T09:28:49.792Z</time>
      </trkpt>
      <trkpt lat="45.97443" lon="4.71732">
        <ele>196.5</ele>
        <time>2015-12-12T09:28:50.777Z</time>
      </trkpt>
      <trkpt lat="45.9745" lon="4.71732">
        <ele>196.800003052</ele>
        <time>2015-12-12T09:28:51.79Z</time>
      </trkpt>
      <trkpt lat="45.97456" lon="4.71733">
        <ele>197</ele>
        <time>2015-12-12T09:28:52.773Z</time>
      </trkpt>
      <trkpt lat="45.97462" lon="4.71733">
        <ele>196.800003052</ele>
        <time>2015-12-12T09:28:53.796Z</time>
      </trkpt>
      <trkpt lat="45.97468" lon="4.71733">
        <ele>196.399993896</ele>
        <time>2015-12-12T09:28:54.774Z</time>
      </trkpt>
      <trkpt lat="45.97473" lon="4.71734">
        <ele>196.399993896</ele>
        <time>2015-12-12T09:28:55.791Z</time>
      </trkpt>
      <trkpt lat="45.97479" lon="4.71734">
        <ele>196.399993896</ele>
        <time>2015-12-12T09:28:56.774Z</time>
      </trkpt>
      <trkpt lat="45.97484" lon="4.71735">
        <ele>196.399993896</ele>
        <time>2015-12-12T09:28:57.804Z</time>
      </trkpt>
      <trkpt lat="45.9749" lon="4.71735">
        <ele>196.5</ele>
        <time>2015-12-12T09:28:58.774Z</time>
      </trkpt>
      <trkpt lat="45.97496" lon="4.71735">
        <ele>196.5</ele>
        <time>2015-12-12T09:28:59.794Z</time>
      </trkpt>
      <trkpt lat="45.97502" lon="4.71736">
        <ele>196.5</ele>
        <time>2015-12-12T09:29:00.774Z</time>
      </trkpt>
      <trkpt lat="45.97508" lon="4.71737">
        <ele>196.399993896</ele>
        <time>2015-12-12T09:29:01.791Z</time>
      </trkpt>
      <trkpt lat="45.97514" lon="4.71737">
        <ele>196.5</ele>
        <time>2015-12-12T09:29:02.774Z</time>
      </trkpt>
      <trkpt lat="45.9752" lon="4.71738">
        <ele>196.399993896</ele>
        <time>2015-12-12T09:29:03.807Z</time>
      </trkpt>
      <trkpt lat="45.97527" lon="4.71738">
        <ele>196.600006104</ele>
        <time>2015-12-12T09:29:04.773Z</time>
      </trkpt>
      <trkpt lat="45.97533" lon="4.71739">
        <ele>196.899993896</ele>
        <time>2015-12-12T09:29:05.794Z</time>
      </trkpt>
      <trkpt lat="45.97539" lon="4.7174">
        <ele>196.899993896</ele>
        <time>2015-12-12T09:29:06.774Z</time>
      </trkpt>
      <trkpt lat="45.97545" lon="4.7174">
        <ele>197</ele>
        <time>2015-12-12T09:29:07.792Z</time>
      </trkpt>
      <trkpt lat="45.97551" lon="4.71741">
        <ele>197.199996948</ele>
        <time>2015-12-12T09:29:08.774Z</time>
      </trkpt>
      <trkpt lat="45.97557" lon="4.71742">
        <ele>197.5</ele>
        <time>2015-12-12T09:29:09.791Z</time>
      </trkpt>
      <trkpt lat="45.97563" lon="4.71743">
        <ele>197.600006104</ele>
        <time>2015-12-12T09:29:10.774Z</time>
      </trkpt>
      <trkpt lat="45.97568" lon="4.71742">
        <ele>197.699996948</ele>
        <time>2015-12-12T09:29:11.795Z</time>
      </trkpt>
      <trkpt lat="45.97574" lon="4.71742">
        <ele>197.800003052</ele>
        <time>2015-12-12T09:29:12.774Z</time>
      </trkpt>
      <trkpt lat="45.9758" lon="4.71743">
        <ele>198.199996948</ele>
        <time>2015-12-12T09:29:13.791Z</time>
      </trkpt>
      <trkpt lat="45.97586" lon="4.71744">
        <ele>198.699996948</ele>
        <time>2015-12-12T09:29:14.774Z</time>
      </trkpt>
      <trkpt lat="45.97592" lon="4.71745">
        <ele>198.199996948</ele>
        <time>2015-12-12T09:29:15.79Z</time>
      </trkpt>
      <trkpt lat="45.97597" lon="4.71747">
        <ele>197.899993896</ele>
        <time>2015-12-12T09:29:16.774Z</time>
      </trkpt>
      <trkpt lat="45.97602" lon="4.71751">
        <ele>197.300003052</ele>
        <time>2015-12-12T09:29:17.794Z</time>
      </trkpt>
      <trkpt lat="45.97607" lon="4.71756">
        <ele>196.600006104</ele>
        <time>2015-12-12T09:29:18.774Z</time>
      </trkpt>
      <trkpt lat="45.97612" lon="4.71759">
        <ele>195.899993896</ele>
        <time>2015-12-12T09:29:19.821Z</time>
      </trkpt>
      <trkpt lat="45.97619" lon="4.71761">
        <ele>195.399993896</ele>
        <time>2015-12-12T09:29:20.774Z</time>
      </trkpt>
      <trkpt lat="45.97626" lon="4.7176">
        <ele>195.399993896</ele>
        <time>2015-12-12T09:29:21.791Z</time>
      </trkpt>
      <trkpt lat="45.97632" lon="4.71758">
        <ele>195.399993896</ele>
        <time>2015-12-12T09:29:22.774Z</time>
      </trkpt>
      <trkpt lat="45.97637" lon="4.71755">
        <ele>195.399993896</ele>
        <time>2015-12-12T09:29:23.794Z</time>
      </trkpt>
      <trkpt lat="45.97643" lon="4.71752">
        <ele>195.199996948</ele>
        <time>2015-12-12T09:29:24.773Z</time>
      </trkpt>
      <trkpt lat="45.9765" lon="4.71751">
        <ele>195.199996948</ele>
        <time>2015-12-12T09:29:25.792Z</time>
      </trkpt>
      <trkpt lat="45.97656" lon="4.71752">
        <ele>195.399993896</ele>
        <time>2015-12-12T09:29:26.774Z</time>
      </trkpt>
      <trkpt lat="45.97663" lon="4.71753">
        <ele>195.5</ele>
        <time>2015-12-12T09:29:27.791Z</time>
      </trkpt>
      <trkpt lat="45.9767" lon="4.71754">
        <ele>195.5</ele>
        <time>2015-12-12T09:29:28.774Z</time>
      </trkpt>
      <trkpt lat="45.97677" lon="4.71754">
        <ele>195.399993896</ele>
        <time>2015-12-12T09:29:29.807Z</time>
      </trkpt>
      <trkpt lat="45.97683" lon="4.71755">
        <ele>195.800003052</ele>
        <time>2015-12-12T09:29:30.774Z</time>
      </trkpt>
      <trkpt lat="45.9769" lon="4.71756">
        <ele>195.899993896</ele>
        <time>2015-12-12T09:29:31.792Z</time>
      </trkpt>
      <trkpt lat="45.97696" lon="4.71756">
        <ele>196.399993896</ele>
        <time>2015-12-12T09:29:32.773Z</time>
      </trkpt>
      <trkpt lat="45.97702" lon="4.71757">
        <ele>196.800003052</ele>
        <time>2015-12-12T09:29:33.79Z</time>
      </trkpt>
      <trkpt lat="45.97709" lon="4.71758">
        <ele>197</ele>
        <time>2015-12-12T09:29:34.774Z</time>
      </trkpt>
      <trkpt lat="45.97715" lon="4.71759">
        <ele>197.199996948</ele>
        <time>2015-12-12T09:29:35.809Z</time>
      </trkpt>
      <trkpt lat="45.97722" lon="4.71759">
        <ele>197.5</ele>
        <time>2015-12-12T09:29:36.774Z</time>
      </trkpt>
      <trkpt lat="45.97729" lon="4.7176">
        <ele>197.800003052</ele>
        <time>2015-12-12T09:29:37.792Z</time>
      </trkpt>
      <trkpt lat="45.97735" lon="4.7176">
        <ele>197.699996948</ele>
        <time>2015-12-12T09:29:38.774Z</time>
      </trkpt>
      <trkpt lat="45.97742" lon="4.71761">
        <ele>197.600006104</ele>
        <time>2015-12-12T09:29:39.804Z</time>
      </trkpt>
      <trkpt lat="45.9775" lon="4.71762">
        <ele>197.800003052</ele>
        <time>2015-12-12T09:29:40.774Z</time>
      </trkpt>
      <trkpt lat="45.97757" lon="4.71763">
        <ele>198</ele>
        <time>2015-12-12T09:29:41.795Z</time>
      </trkpt>
      <trkpt lat="45.97764" lon="4.71763">
        <ele>198.100006104</ele>
        <time>2015-12-12T09:29:42.774Z</time>
      </trkpt>
      <trkpt lat="45.97772" lon="4.71763">
        <ele>198.800003052</ele>
        <time>2015-12-12T09:29:43.791Z</time>
      </trkpt>
      <trkpt lat="45.97779" lon="4.71763">
        <ele>199.100006104</ele>
        <time>2015-12-12T09:29:44.774Z</time>
      </trkpt>
      <trkpt lat="45.97786" lon="4.71764">
        <ele>199.899993896</ele>
        <time>2015-12-12T09:29:45.79Z</time>
      </trkpt>
      <trkpt lat="45.97793" lon="4.71764">
        <ele>200.5</ele>
        <time>2015-12-12T09:29:46.774Z</time>
      </trkpt>
      <trkpt lat="45.978" lon="4.71765">
        <ele>200.699996948</ele>
        <time>2015-12-12T09:29:47.801Z</time>
      </trkpt>
      <trkpt lat="45.97807" lon="4.71766">
        <ele>201</ele>
        <time>2015-12-12T09:29:48.774Z</time>
      </trkpt>
      <trkpt lat="45.97813" lon="4.71766">
        <ele>201</ele>
        <time>2015-12-12T09:29:49.808Z</time>
      </trkpt>
      <trkpt lat="45.9782" lon="4.71767">
        <ele>200.699996948</ele>
        <time>2015-12-12T09:29:50.776Z</time>
      </trkpt>
      <trkpt lat="45.97825" lon="4.71767">
        <ele>201.100006104</ele>
        <time>2015-12-12T09:29:51.805Z</time>
      </trkpt>
      <trkpt lat="45.9783" lon="4.71767">
        <ele>201.100006104</ele>
        <time>2015-12-12T09:29:52.774Z</time>
      </trkpt>
      <trkpt lat="45.97838" lon="4.71768">
        <ele>201.399993896</ele>
        <time>2015-12-12T09:29:54.79Z</time>
      </trkpt>
      <trkpt lat="45.97841" lon="4.71768">
        <ele>201.199996948</ele>
        <time>2015-12-12T09:29:55.774Z</time>
      </trkpt>
      <trkpt lat="45.97848" lon="4.71767">
        <ele>199.5</ele>
        <time>2015-12-12T09:30:05.794Z</time>
      </trkpt>
      <trkpt lat="45.97851" lon="4.71768">
        <ele>198.600006104</ele>
        <time>2015-12-12T09:30:06.774Z</time>
      </trkpt>
      <trkpt lat="45.97858" lon="4.71774">
        <ele>198.100006104</ele>
        <time>2015-12-12T09:30:09.79Z</time>
      </trkpt>
      <trkpt lat="45.9786" lon="4.71777">
        <ele>197.899993896</ele>
        <time>2015-12-12T09:30:10.774Z</time>
      </trkpt>
      <trkpt lat="45.97864" lon="4.71781">
        <ele>197.5</ele>
        <time>2015-12-12T09:30:11.794Z</time>
      </trkpt>
      <trkpt lat="45.97869" lon="4.71784">
        <ele>197.600006104</ele>
        <time>2015-12-12T09:30:12.774Z</time>
      </trkpt>
      <trkpt lat="45.97873" lon="4.71786">
        <ele>197.300003052</ele>
        <time>2015-12-12T09:30:13.791Z</time>
      </trkpt>
      <trkpt lat="45.97878" lon="4.71787">
        <ele>197.199996948</ele>
        <time>2015-12-12T09:30:14.774Z</time>
      </trkpt>
      <trkpt lat="45.97883" lon="4.71786">
        <ele>197.100006104</ele>
        <time>2015-12-12T09:30:15.791Z</time>
      </trkpt>
      <trkpt lat="45.97889" lon="4.71783">
        <ele>196.899993896</ele>
        <time>2015-12-12T09:30:16.773Z</time>
      </trkpt>
      <trkpt lat="45.97894" lon="4.71778">
        <ele>196.699996948</ele>
        <time>2015-12-12T09:30:17.794Z</time>
      </trkpt>
      <trkpt lat="45.97898" lon="4.71771">
        <ele>196.699996948</ele>
        <time>2015-12-12T09:30:18.774Z</time>
      </trkpt>
      <trkpt lat="45.979" lon="4.71763">
        <ele>196.600006104</ele>
        <time>2015-12-12T09:30:19.791Z</time>
      </trkpt>
      <trkpt lat="45.97901" lon="4.71755">
        <ele>196.399993896</ele>
        <time>2015-12-12T09:30:20.773Z</time>
      </trkpt>
      <trkpt lat="45.97902" lon="4.71745">
        <ele>196</ele>
        <time>2015-12-12T09:30:21.791Z</time>
      </trkpt>
      <trkpt lat="45.97901" lon="4.71736">
        <ele>195.699996948</ele>
        <time>2015-12-12T09:30:22.774Z</time>
      </trkpt>
      <trkpt lat="45.97902" lon="4.71727">
        <ele>195.399993896</ele>
        <time>2015-12-12T09:30:23.811Z</time>
      </trkpt>
      <trkpt lat="45.97903" lon="4.71718">
        <ele>195.300003052</ele>
        <time>2015-12-12T09:30:24.773Z</time>
      </trkpt>
      <trkpt lat="45.97905" lon="4.71709">
        <ele>195.199996948</ele>
        <time>2015-12-12T09:30:25.792Z</time>
      </trkpt>
      <trkpt lat="45.97908" lon="4.71702">
        <ele>195</ele>
        <time>2015-12-12T09:30:26.774Z</time>
      </trkpt>
      <trkpt lat="45.97912" lon="4.71695">
        <ele>195</ele>
        <time>2015-12-12T09:30:27.79Z</time>
      </trkpt>
      <trkpt lat="45.97916" lon="4.71689">
        <ele>195.100006104</ele>
        <time>2015-12-12T09:30:28.774Z</time>
      </trkpt>
      <trkpt lat="45.97922" lon="4.71684">
        <ele>195.399993896</ele>
        <time>2015-12-12T09:30:29.795Z</time>
      </trkpt>
      <trkpt lat="45.97928" lon="4.71679">
        <ele>195.199996948</ele>
        <time>2015-12-12T09:30:30.774Z</time>
      </trkpt>
      <trkpt lat="45.97934" lon="4.71674">
        <ele>195.399993896</ele>
        <time>2015-12-12T09:30:31.792Z</time>
      </trkpt>
      <trkpt lat="45.97939" lon="4.7167">
        <ele>195.399993896</ele>
        <time>2015-12-12T09:30:32.775Z</time>
      </trkpt>
      <trkpt lat="45.97945" lon="4.71666">
        <ele>195.5</ele>
        <time>2015-12-12T09:30:33.865Z</time>
      </trkpt>
      <trkpt lat="45.97951" lon="4.71663">
        <ele>195.300003052</ele>
        <time>2015-12-12T09:30:34.774Z</time>
      </trkpt>
      <trkpt lat="45.97957" lon="4.7166">
        <ele>195</ele>
        <time>2015-12-12T09:30:35.794Z</time>
      </trkpt>
      <trkpt lat="45.97962" lon="4.71656">
        <ele>194.800003052</ele>
        <time>2015-12-12T09:30:36.774Z</time>
      </trkpt>
      <trkpt lat="45.97967" lon="4.71651">
        <ele>195.199996948</ele>
        <time>2015-12-12T09:30:37.792Z</time>
      </trkpt>
      <trkpt lat="45.97971" lon="4.71645">
        <ele>196.300003052</ele>
        <time>2015-12-12T09:30:38.774Z</time>
      </trkpt>
      <trkpt lat="45.97976" lon="4.71641">
        <ele>196.800003052</ele>
        <time>2015-12-12T09:30:39.808Z</time>
      </trkpt>
      <trkpt lat="45.97981" lon="4.71637">
        <ele>197.100006104</ele>
        <time>2015-12-12T09:30:40.774Z</time>
      </trkpt>
      <trkpt lat="45.97987" lon="4.71634">
        <ele>197.199996948</ele>
        <time>2015-12-12T09:30:41.794Z</time>
      </trkpt>
      <trkpt lat="45.97992" lon="4.7163">
        <ele>197.399993896</ele>
        <time>2015-12-12T09:30:42.774Z</time>
      </trkpt>
      <trkpt lat="45.97996" lon="4.71627">
        <ele>197.300003052</ele>
        <time>2015-12-12T09:30:43.791Z</time>
      </trkpt>
      <trkpt lat="45.98" lon="4.71623">
        <ele>197.5</ele>
        <time>2015-12-12T09:30:44.774Z</time>
      </trkpt>
      <trkpt lat="45.98005" lon="4.7162">
        <ele>197.5</ele>
        <time>2015-12-12T09:30:45.79Z</time>
      </trkpt>
      <trkpt lat="45.9801" lon="4.71618">
        <ele>197.300003052</ele>
        <time>2015-12-12T09:30:46.774Z</time>
      </trkpt>
      <trkpt lat="45.98014" lon="4.71614">
        <ele>197.5</ele>
        <time>2015-12-12T09:30:47.794Z</time>
      </trkpt>
      <trkpt lat="45.98018" lon="4.71611">
        <ele>197.600006104</ele>
        <time>2015-12-12T09:30:48.774Z</time>
      </trkpt>
      <trkpt lat="45.98026" lon="4.71605">
        <ele>197.699996948</ele>
        <time>2015-12-12T09:30:50.793Z</time>
      </trkpt>
      <trkpt lat="45.98029" lon="4.71603">
        <ele>197.800003052</ele>
        <time>2015-12-12T09:30:51.774Z</time>
      </trkpt>
      <trkpt lat="45.98036" lon="4.71597">
        <ele>197.600006104</ele>
        <time>2015-12-12T09:30:53.795Z</time>
      </trkpt>
      <trkpt lat="45.9804" lon="4.71595">
        <ele>197.699996948</ele>
        <time>2015-12-12T09:30:54.774Z</time>
      </trkpt>
      <trkpt lat="45.98046" lon="4.7159">
        <ele>198</ele>
        <time>2015-12-12T09:30:56.79Z</time>
      </trkpt>
      <trkpt lat="45.98049" lon="4.71588">
        <ele>198.100006104</ele>
        <time>2015-12-12T09:30:57.774Z</time>
      </trkpt>
      <trkpt lat="45.98054" lon="4.71584">
        <ele>198.100006104</ele>
        <time>2015-12-12T09:30:59.793Z</time>
      </trkpt>
      <trkpt lat="45.98057" lon="4.71582">
        <ele>198.199996948</ele>
        <time>2015-12-12T09:31:00.774Z</time>
      </trkpt>
      <trkpt lat="45.98064" lon="4.71577">
        <ele>198.699996948</ele>
        <time>2015-12-12T09:31:04.79Z</time>
      </trkpt>
      <trkpt lat="45.98066" lon="4.71576">
        <ele>198.5</ele>
        <time>2015-12-12T09:31:05.778Z</time>
      </trkpt>
      <trkpt lat="45.98072" lon="4.71572">
        <ele>198.899993896</ele>
        <time>2015-12-12T09:31:07.791Z</time>
      </trkpt>
      <trkpt lat="45.98075" lon="4.7157">
        <ele>199.300003052</ele>
        <time>2015-12-12T09:31:08.774Z</time>
      </trkpt>
      <trkpt lat="45.98083" lon="4.71565">
        <ele>199.5</ele>
        <time>2015-12-12T09:31:10.79Z</time>
      </trkpt>
      <trkpt lat="45.98087" lon="4.71562">
        <ele>199.600006104</ele>
        <time>2015-12-12T09:31:11.774Z</time>
      </trkpt>
      <trkpt lat="45.98091" lon="4.71558">
        <ele>199.899993896</ele>
        <time>2015-12-12T09:31:12.79Z</time>
      </trkpt>
      <trkpt lat="45.98096" lon="4.71556">
        <ele>200.399993896</ele>
        <time>2015-12-12T09:31:13.775Z</time>
      </trkpt>
      <trkpt lat="45.98101" lon="4.71553">
        <ele>200.600006104</ele>
        <time>2015-12-12T09:31:14.793Z</time>
      </trkpt>
      <trkpt lat="45.98105" lon="4.7155">
        <ele>200.800003052</ele>
        <time>2015-12-12T09:31:15.774Z</time>
      </trkpt>
      <trkpt lat="45.9811" lon="4.71547">
        <ele>200.800003052</ele>
        <time>2015-12-12T09:31:16.79Z</time>
      </trkpt>
      <trkpt lat="45.98115" lon="4.71544">
        <ele>201.5</ele>
        <time>2015-12-12T09:31:17.777Z</time>
      </trkpt>
      <trkpt lat="45.98121" lon="4.71541">
        <ele>201.800003052</ele>
        <time>2015-12-12T09:31:18.791Z</time>
      </trkpt>
      <trkpt lat="45.98126" lon="4.71538">
        <ele>202.300003052</ele>
        <time>2015-12-12T09:31:19.774Z</time>
      </trkpt>
      <trkpt lat="45.98131" lon="4.71535">
        <ele>202.399993896</ele>
        <time>2015-12-12T09:31:20.791Z</time>
      </trkpt>
      <trkpt lat="45.98135" lon="4.71532">
        <ele>202.600006104</ele>
        <time>2015-12-12T09:31:21.774Z</time>
      </trkpt>
      <trkpt lat="45.98141" lon="4.71529">
        <ele>202.899993896</ele>
        <time>2015-12-12T09:31:22.791Z</time>
      </trkpt>
      <trkpt lat="45.98146" lon="4.71526">
        <ele>202.300003052</ele>
        <time>2015-12-12T09:31:23.777Z</time>
      </trkpt>
      <trkpt lat="45.98152" lon="4.71523">
        <ele>201.899993896</ele>
        <time>2015-12-12T09:31:24.79Z</time>
      </trkpt>
      <trkpt lat="45.98156" lon="4.7152">
        <ele>201.899993896</ele>
        <time>2015-12-12T09:31:25.775Z</time>
      </trkpt>
      <trkpt lat="45.98161" lon="4.71518">
        <ele>201.5</ele>
        <time>2015-12-12T09:31:26.79Z</time>
      </trkpt>
      <trkpt lat="45.98165" lon="4.71516">
        <ele>201.699996948</ele>
        <time>2015-12-12T09:31:27.775Z</time>
      </trkpt>
      <trkpt lat="45.9817" lon="4.71514">
        <ele>201.699996948</ele>
        <time>2015-12-12T09:31:28.803Z</time>
      </trkpt>
      <trkpt lat="45.98174" lon="4.71512">
        <ele>201.899993896</ele>
        <time>2015-12-12T09:31:29.778Z</time>
      </trkpt>
      <trkpt lat="45.98178" lon="4.7151">
        <ele>201.899993896</ele>
        <time>2015-12-12T09:31:30.791Z</time>
      </trkpt>
      <trkpt lat="45.98183" lon="4.7151">
        <ele>202.399993896</ele>
        <time>2015-12-12T09:31:31.776Z</time>
      </trkpt>
      <trkpt lat="45.98189" lon="4.7151">
        <ele>202.600006104</ele>
        <time>2015-12-12T09:31:32.792Z</time>
      </trkpt>
      <trkpt lat="45.98194" lon="4.7151">
        <ele>202.899993896</ele>
        <time>2015-12-12T09:31:33.773Z</time>
      </trkpt>
      <trkpt lat="45.982" lon="4.71511">
        <ele>202.899993896</ele>
        <time>2015-12-12T09:31:34.802Z</time>
      </trkpt>
      <trkpt lat="45.98206" lon="4.71513">
        <ele>202.899993896</ele>
        <time>2015-12-12T09:31:35.908Z</time>
      </trkpt>
      <trkpt lat="45.98212" lon="4.71514">
        <ele>202.199996948</ele>
        <time>2015-12-12T09:31:36.79Z</time>
      </trkpt>
      <trkpt lat="45.98218" lon="4.71516">
        <ele>202.300003052</ele>
        <time>2015-12-12T09:31:37.79Z</time>
      </trkpt>
      <trkpt lat="45.98224" lon="4.71519">
        <ele>201.5</ele>
        <time>2015-12-12T09:31:38.79Z</time>
      </trkpt>
      <trkpt lat="45.9823" lon="4.71522">
        <ele>201.399993896</ele>
        <time>2015-12-12T09:31:39.774Z</time>
      </trkpt>
      <trkpt lat="45.98236" lon="4.71525">
        <ele>201.199996948</ele>
        <time>2015-12-12T09:31:40.793Z</time>
      </trkpt>
      <trkpt lat="45.98242" lon="4.71527">
        <ele>200.600006104</ele>
        <time>2015-12-12T09:31:41.777Z</time>
      </trkpt>
      <trkpt lat="45.98248" lon="4.7153">
        <ele>200.399993896</ele>
        <time>2015-12-12T09:31:42.791Z</time>
      </trkpt>
      <trkpt lat="45.98254" lon="4.71533">
        <ele>200.100006104</ele>
        <time>2015-12-12T09:31:43.774Z</time>
      </trkpt>
      <trkpt lat="45.9826" lon="4.71536">
        <ele>199.699996948</ele>
        <time>2015-12-12T09:31:44.79Z</time>
      </trkpt>
      <trkpt lat="45.98266" lon="4.7154">
        <ele>199.699996948</ele>
        <time>2015-12-12T09:31:45.773Z</time>
      </trkpt>
      <trkpt lat="45.98271" lon="4.71543">
        <ele>199.199996948</ele>
        <time>2015-12-12T09:31:46.79Z</time>
      </trkpt>
      <trkpt lat="45.98277" lon="4.71547">
        <ele>199.300003052</ele>
        <time>2015-12-12T09:31:47.778Z</time>
      </trkpt>
      <trkpt lat="45.98283" lon="4.71552">
        <ele>198.899993896</ele>
        <time>2015-12-12T09:31:48.789Z</time>
      </trkpt>
      <trkpt lat="45.98289" lon="4.71556">
        <ele>198.800003052</ele>
        <time>2015-12-12T09:31:49.774Z</time>
      </trkpt>
      <trkpt lat="45.98296" lon="4.7156">
        <ele>198.600006104</ele>
        <time>2015-12-12T09:31:50.792Z</time>
      </trkpt>
      <trkpt lat="45.98302" lon="4.71564">
        <ele>198.399993896</ele>
        <time>2015-12-12T09:31:51.773Z</time>
      </trkpt>
      <trkpt lat="45.98308" lon="4.71568">
        <ele>198.800003052</ele>
        <time>2015-12-12T09:31:52.791Z</time>
      </trkpt>
      <trkpt lat="45.98314" lon="4.71571">
        <ele>199.100006104</ele>
        <time>2015-12-12T09:31:53.777Z</time>
      </trkpt>
      <trkpt lat="45.9832" lon="4.71575">
        <ele>199.100006104</ele>
        <time>2015-12-12T09:31:54.79Z</time>
      </trkpt>
      <trkpt lat="45.98325" lon="4.71578">
        <ele>199.199996948</ele>
        <time>2015-12-12T09:31:55.774Z</time>
      </trkpt>
      <trkpt lat="45.98331" lon="4.71582">
        <ele>198.699996948</ele>
        <time>2015-12-12T09:31:56.79Z</time>
      </trkpt>
      <trkpt lat="45.98336" lon="4.71586">
        <ele>197.699996948</ele>
        <time>2015-12-12T09:31:57.773Z</time>
      </trkpt>
      <trkpt lat="45.98341" lon="4.71589">
        <ele>197</ele>
        <time>2015-12-12T09:31:58.805Z</time>
      </trkpt>
      <trkpt lat="45.98346" lon="4.71591">
        <ele>196.899993896</ele>
        <time>2015-12-12T09:31:59.777Z</time>
      </trkpt>
      <trkpt lat="45.98351" lon="4.71594">
        <ele>196.699996948</ele>
        <time>2015-12-12T09:32:00.916Z</time>
      </trkpt>
      <trkpt lat="45.98356" lon="4.71598">
        <ele>196.600006104</ele>
        <time>2015-12-12T09:32:01.775Z</time>
      </trkpt>
      <trkpt lat="45.98361" lon="4.71601">
        <ele>196.5</ele>
        <time>2015-12-12T09:32:02.789Z</time>
      </trkpt>
      <trkpt lat="45.98365" lon="4.71603">
        <ele>196.5</ele>
        <time>2015-12-12T09:32:03.773Z</time>
      </trkpt>
      <trkpt lat="45.9837" lon="4.71605">
        <ele>196.699996948</ele>
        <time>2015-12-12T09:32:04.79Z</time>
      </trkpt>
      <trkpt lat="45.98374" lon="4.71606">
        <ele>197.300003052</ele>
        <time>2015-12-12T09:32:05.777Z</time>
      </trkpt>
      <trkpt lat="45.98379" lon="4.71605">
        <ele>197.300003052</ele>
        <time>2015-12-12T09:32:06.797Z</time>
      </trkpt>
      <trkpt lat="45.98384" lon="4.71603">
        <ele>197.100006104</ele>
        <time>2015-12-12T09:32:07.774Z</time>
      </trkpt>
      <trkpt lat="45.98389" lon="4.716">
        <ele>196.699996948</ele>
        <time>2015-12-12T09:32:08.79Z</time>
      </trkpt>
      <trkpt lat="45.98394" lon="4.71597">
        <ele>196.399993896</ele>
        <time>2015-12-12T09:32:09.773Z</time>
      </trkpt>
      <trkpt lat="45.98399" lon="4.71592">
        <ele>196.199996948</ele>
        <time>2015-12-12T09:32:10.789Z</time>
      </trkpt>
      <trkpt lat="45.98403" lon="4.71587">
        <ele>195.600006104</ele>
        <time>2015-12-12T09:32:11.777Z</time>
      </trkpt>
      <trkpt lat="45.98408" lon="4.71581">
        <ele>195.800003052</ele>
        <time>2015-12-12T09:32:12.789Z</time>
      </trkpt>
      <trkpt lat="45.98412" lon="4.71576">
        <ele>196</ele>
        <time>2015-12-12T09:32:13.774Z</time>
      </trkpt>
      <trkpt lat="45.98417" lon="4.71572">
        <ele>195.800003052</ele>
        <time>2015-12-12T09:32:14.805Z</time>
      </trkpt>
      <trkpt lat="45.98422" lon="4.71566">
        <ele>195.899993896</ele>
        <time>2015-12-12T09:32:15.773Z</time>
      </trkpt>
      <trkpt lat="45.98427" lon="4.7156">
        <ele>195.899993896</ele>
        <time>2015-12-12T09:32:16.789Z</time>
      </trkpt>
      <trkpt lat="45.98432" lon="4.71554">
        <ele>195.699996948</ele>
        <time>2015-12-12T09:32:17.777Z</time>
      </trkpt>
      <trkpt lat="45.98437" lon="4.71549">
        <ele>195.5</ele>
        <time>2015-12-12T09:32:18.815Z</time>
      </trkpt>
      <trkpt lat="45.98442" lon="4.71544">
        <ele>195.5</ele>
        <time>2015-12-12T09:32:19.775Z</time>
      </trkpt>
      <trkpt lat="45.98447" lon="4.71541">
        <ele>195.5</ele>
        <time>2015-12-12T09:32:20.79Z</time>
      </trkpt>
      <trkpt lat="45.98451" lon="4.7154">
        <ele>195.800003052</ele>
        <time>2015-12-12T09:32:21.773Z</time>
      </trkpt>
      <trkpt lat="45.98457" lon="4.71537">
        <ele>195.399993896</ele>
        <time>2015-12-12T09:32:23.794Z</time>
      </trkpt>
      <trkpt lat="45.98458" lon="4.71537">
        <ele>195.600006104</ele>
        <time>2015-12-12T09:32:24.773Z</time>
      </trkpt>
      <trkpt lat="45.98459" lon="4.71534">
        <ele>195.5</ele>
        <time>2015-12-12T09:32:30.79Z</time>
      </trkpt>
      <trkpt lat="45.98462" lon="4.71535">
        <ele>195.399993896</ele>
        <time>2015-12-12T09:32:31.774Z</time>
      </trkpt>
      <trkpt lat="45.98466" lon="4.71535">
        <ele>195.5</ele>
        <time>2015-12-12T09:32:32.793Z</time>
      </trkpt>
      <trkpt lat="45.98471" lon="4.71535">
        <ele>195.399993896</ele>
        <time>2015-12-12T09:32:33.773Z</time>
      </trkpt>
      <trkpt lat="45.98476" lon="4.71533">
        <ele>195.199996948</ele>
        <time>2015-12-12T09:32:34.79Z</time>
      </trkpt>
      <trkpt lat="45.98481" lon="4.7153">
        <ele>195.199996948</ele>
        <time>2015-12-12T09:32:35.792Z</time>
      </trkpt>
      <trkpt lat="45.98487" lon="4.71529">
        <ele>195</ele>
        <time>2015-12-12T09:32:36.789Z</time>
      </trkpt>
      <trkpt lat="45.98493" lon="4.71528">
        <ele>194.800003052</ele>
        <time>2015-12-12T09:32:37.774Z</time>
      </trkpt>
      <trkpt lat="45.985" lon="4.71528">
        <ele>194.699996948</ele>
        <time>2015-12-12T09:32:38.789Z</time>
      </trkpt>
      <trkpt lat="45.98506" lon="4.71527">
        <ele>194.699996948</ele>
        <time>2015-12-12T09:32:39.773Z</time>
      </trkpt>
      <trkpt lat="45.98513" lon="4.71526">
        <ele>194.600006104</ele>
        <time>2015-12-12T09:32:40.79Z</time>
      </trkpt>
      <trkpt lat="45.98519" lon="4.71525">
        <ele>194.600006104</ele>
        <time>2015-12-12T09:32:41.776Z</time>
      </trkpt>
      <trkpt lat="45.98526" lon="4.71524">
        <ele>194.600006104</ele>
        <time>2015-12-12T09:32:42.789Z</time>
      </trkpt>
      <trkpt lat="45.98534" lon="4.71523">
        <ele>194.600006104</ele>
        <time>2015-12-12T09:32:43.774Z</time>
      </trkpt>
      <trkpt lat="45.98541" lon="4.71521">
        <ele>194.5</ele>
        <time>2015-12-12T09:32:44.789Z</time>
      </trkpt>
      <trkpt lat="45.98547" lon="4.71519">
        <ele>194.399993896</ele>
        <time>2015-12-12T09:32:45.773Z</time>
      </trkpt>
      <trkpt lat="45.98552" lon="4.71518">
        <ele>194.199996948</ele>
        <time>2015-12-12T09:32:46.79Z</time>
      </trkpt>
      <trkpt lat="45.98558" lon="4.71515">
        <ele>194.199996948</ele>
        <time>2015-12-12T09:32:47.777Z</time>
      </trkpt>
      <trkpt lat="45.98564" lon="4.71513">
        <ele>194</ele>
        <time>2015-12-12T09:32:48.789Z</time>
      </trkpt>
      <trkpt lat="45.98571" lon="4.71512">
        <ele>194.600006104</ele>
        <time>2015-12-12T09:32:49.774Z</time>
      </trkpt>
      <trkpt lat="45.98578" lon="4.7151">
        <ele>194.800003052</ele>
        <time>2015-12-12T09:32:50.793Z</time>
      </trkpt>
      <trkpt lat="45.98585" lon="4.71509">
        <ele>195.199996948</ele>
        <time>2015-12-12T09:32:51.773Z</time>
      </trkpt>
      <trkpt lat="45.98592" lon="4.71509">
        <ele>196.100006104</ele>
        <time>2015-12-12T09:32:52.79Z</time>
      </trkpt>
      <trkpt lat="45.98599" lon="4.71507">
        <ele>195.899993896</ele>
        <time>2015-12-12T09:32:53.777Z</time>
      </trkpt>
      <trkpt lat="45.98606" lon="4.71505">
        <ele>195.699996948</ele>
        <time>2015-12-12T09:32:54.789Z</time>
      </trkpt>
      <trkpt lat="45.98613" lon="4.71504">
        <ele>195.300003052</ele>
        <time>2015-12-12T09:32:55.773Z</time>
      </trkpt>
      <trkpt lat="45.9862" lon="4.71503">
        <ele>195.399993896</ele>
        <time>2015-12-12T09:32:56.789Z</time>
      </trkpt>
      <trkpt lat="45.98627" lon="4.71501">
        <ele>195.399993896</ele>
        <time>2015-12-12T09:32:57.774Z</time>
      </trkpt>
      <trkpt lat="45.98634" lon="4.71499">
        <ele>195.300003052</ele>
        <time>2015-12-12T09:32:58.792Z</time>
      </trkpt>
      <trkpt lat="45.98641" lon="4.715">
        <ele>195.100006104</ele>
        <time>2015-12-12T09:32:59.776Z</time>
      </trkpt>
      <trkpt lat="45.98646" lon="4.71499">
        <ele>195.100006104</ele>
        <time>2015-12-12T09:33:00.932Z</time>
      </trkpt>
      <trkpt lat="45.98651" lon="4.71497">
        <ele>194.199996948</ele>
        <time>2015-12-12T09:33:01.773Z</time>
      </trkpt>
      <trkpt lat="45.98659" lon="4.71494">
        <ele>193.600006104</ele>
        <time>2015-12-12T09:33:03.789Z</time>
      </trkpt>
      <trkpt lat="45.98662" lon="4.71493">
        <ele>193.5</ele>
        <time>2015-12-12T09:33:04.773Z</time>
      </trkpt>
      <trkpt lat="45.98666" lon="4.71493">
        <ele>194.399993896</ele>
        <time>2015-12-12T09:33:06.804Z</time>
      </trkpt>
      <trkpt lat="45.98666" lon="4.71493">
        <ele>194.399993896</ele>
        <time>2015-12-12T09:33:07.775Z</time>
      </trkpt>
      <trkpt lat="45.98664" lon="4.71487">
        <ele>192.899993896</ele>
        <time>2015-12-12T09:33:30.789Z</time>
      </trkpt>
      <trkpt lat="45.98665" lon="4.71487">
        <ele>192.899993896</ele>
        <time>2015-12-12T09:33:31.775Z</time>
      </trkpt>
      <trkpt lat="45.98672" lon="4.71488">
        <ele>192.399993896</ele>
        <time>2015-12-12T09:33:33.791Z</time>
      </trkpt>
      <trkpt lat="45.98676" lon="4.71488">
        <ele>192.699996948</ele>
        <time>2015-12-12T09:33:34.774Z</time>
      </trkpt>
      <trkpt lat="45.98682" lon="4.71488">
        <ele>192.800003052</ele>
        <time>2015-12-12T09:33:35.795Z</time>
      </trkpt>
      <trkpt lat="45.98687" lon="4.71488">
        <ele>192.699996948</ele>
        <time>2015-12-12T09:33:36.773Z</time>
      </trkpt>
      <trkpt lat="45.98692" lon="4.71488">
        <ele>192.5</ele>
        <time>2015-12-12T09:33:37.792Z</time>
      </trkpt>
      <trkpt lat="45.98698" lon="4.71492">
        <ele>191.600006104</ele>
        <time>2015-12-12T09:33:38.773Z</time>
      </trkpt>
      <trkpt lat="45.98705" lon="4.71495">
        <ele>190.899993896</ele>
        <time>2015-12-12T09:33:39.789Z</time>
      </trkpt>
      <trkpt lat="45.9871" lon="4.71496">
        <ele>190.699996948</ele>
        <time>2015-12-12T09:33:40.773Z</time>
      </trkpt>
      <trkpt lat="45.98716" lon="4.71498">
        <ele>190.399993896</ele>
        <time>2015-12-12T09:33:41.794Z</time>
      </trkpt>
      <trkpt lat="45.98722" lon="4.71499">
        <ele>190.300003052</ele>
        <time>2015-12-12T09:33:42.772Z</time>
      </trkpt>
      <trkpt lat="45.98728" lon="4.71501">
        <ele>190.399993896</ele>
        <time>2015-12-12T09:33:43.802Z</time>
      </trkpt>
      <trkpt lat="45.98734" lon="4.71501">
        <ele>189.899993896</ele>
        <time>2015-12-12T09:33:44.773Z</time>
      </trkpt>
      <trkpt lat="45.98741" lon="4.71502">
        <ele>189.699996948</ele>
        <time>2015-12-12T09:33:45.789Z</time>
      </trkpt>
      <trkpt lat="45.98747" lon="4.71502">
        <ele>188.699996948</ele>
        <time>2015-12-12T09:33:46.773Z</time>
      </trkpt>
      <trkpt lat="45.98753" lon="4.71502">
        <ele>187.800003052</ele>
        <time>2015-12-12T09:33:47.803Z</time>
      </trkpt>
      <trkpt lat="45.9876" lon="4.71503">
        <ele>187</ele>
        <time>2015-12-12T09:33:48.787Z</time>
      </trkpt>
      <trkpt lat="45.98765" lon="4.71503">
        <ele>186.600006104</ele>
        <time>2015-12-12T09:33:49.79Z</time>
      </trkpt>
      <trkpt lat="45.98769" lon="4.71503">
        <ele>186.399993896</ele>
        <time>2015-12-12T09:33:50.775Z</time>
      </trkpt>
      <trkpt lat="45.98777" lon="4.71502">
        <ele>187.100006104</ele>
        <time>2015-12-12T09:33:53.793Z</time>
      </trkpt>
      <trkpt lat="45.9878" lon="4.71501">
        <ele>187.300003052</ele>
        <time>2015-12-12T09:33:54.773Z</time>
      </trkpt>
      <trkpt lat="45.98787" lon="4.71503">
        <ele>187.300003052</ele>
        <time>2015-12-12T09:33:56.788Z</time>
      </trkpt>
      <trkpt lat="45.98791" lon="4.71504">
        <ele>187.399993896</ele>
        <time>2015-12-12T09:33:57.773Z</time>
      </trkpt>
      <trkpt lat="45.98796" lon="4.71505">
        <ele>187.300003052</ele>
        <time>2015-12-12T09:33:58.789Z</time>
      </trkpt>
      <trkpt lat="45.98801" lon="4.71505">
        <ele>187.100006104</ele>
        <time>2015-12-12T09:33:59.774Z</time>
      </trkpt>
      <trkpt lat="45.98807" lon="4.71505">
        <ele>186.699996948</ele>
        <time>2015-12-12T09:34:00.789Z</time>
      </trkpt>
      <trkpt lat="45.98812" lon="4.71505">
        <ele>185.899993896</ele>
        <time>2015-12-12T09:34:01.774Z</time>
      </trkpt>
      <trkpt lat="45.98817" lon="4.71506">
        <ele>186.100006104</ele>
        <time>2015-12-12T09:34:02.791Z</time>
      </trkpt>
      <trkpt lat="45.98822" lon="4.71507">
        <ele>185.699996948</ele>
        <time>2015-12-12T09:34:03.773Z</time>
      </trkpt>
      <trkpt lat="45.98828" lon="4.71507">
        <ele>185.399993896</ele>
        <time>2015-12-12T09:34:04.789Z</time>
      </trkpt>
      <trkpt lat="45.98833" lon="4.71508">
        <ele>184.899993896</ele>
        <time>2015-12-12T09:34:05.777Z</time>
      </trkpt>
      <trkpt lat="45.98838" lon="4.71508">
        <ele>184.399993896</ele>
        <time>2015-12-12T09:34:06.79Z</time>
      </trkpt>
      <trkpt lat="45.98843" lon="4.71508">
        <ele>183.699996948</ele>
        <time>2015-12-12T09:34:07.774Z</time>
      </trkpt>
      <trkpt lat="45.98849" lon="4.71508">
        <ele>183.800003052</ele>
        <time>2015-12-12T09:34:08.791Z</time>
      </trkpt>
      <trkpt lat="45.98855" lon="4.71509">
        <ele>183.600006104</ele>
        <time>2015-12-12T09:34:09.774Z</time>
      </trkpt>
      <trkpt lat="45.98861" lon="4.7151">
        <ele>183.300003052</ele>
        <time>2015-12-12T09:34:10.79Z</time>
      </trkpt>
      <trkpt lat="45.98868" lon="4.71511">
        <ele>183</ele>
        <time>2015-12-12T09:34:11.777Z</time>
      </trkpt>
      <trkpt lat="45.98875" lon="4.71512">
        <ele>183.100006104</ele>
        <time>2015-12-12T09:34:12.79Z</time>
      </trkpt>
      <trkpt lat="45.98882" lon="4.71514">
        <ele>183.5</ele>
        <time>2015-12-12T09:34:13.774Z</time>
      </trkpt>
      <trkpt lat="45.98888" lon="4.71515">
        <ele>183.399993896</ele>
        <time>2015-12-12T09:34:14.789Z</time>
      </trkpt>
      <trkpt lat="45.98894" lon="4.71516">
        <ele>183.699996948</ele>
        <time>2015-12-12T09:34:15.801Z</time>
      </trkpt>
      <trkpt lat="45.989" lon="4.71517">
        <ele>184.199996948</ele>
        <time>2015-12-12T09:34:16.792Z</time>
      </trkpt>
      <trkpt lat="45.98905" lon="4.71518">
        <ele>184.5</ele>
        <time>2015-12-12T09:34:17.778Z</time>
      </trkpt>
      <trkpt lat="45.9891" lon="4.71518">
        <ele>184.399993896</ele>
        <time>2015-12-12T09:34:18.789Z</time>
      </trkpt>
      <trkpt lat="45.98914" lon="4.71519">
        <ele>183.300003052</ele>
        <time>2015-12-12T09:34:19.773Z</time>
      </trkpt>
      <trkpt lat="45.98919" lon="4.71519">
        <ele>183.100006104</ele>
        <time>2015-12-12T09:34:20.806Z</time>
      </trkpt>
      <trkpt lat="45.98924" lon="4.7152">
        <ele>182.800003052</ele>
        <time>2015-12-12T09:34:21.773Z</time>
      </trkpt>
      <trkpt lat="45.98929" lon="4.7152">
        <ele>182.800003052</ele>
        <time>2015-12-12T09:34:22.789Z</time>
      </trkpt>
      <trkpt lat="45.98933" lon="4.7152">
        <ele>183</ele>
        <time>2015-12-12T09:34:23.777Z</time>
      </trkpt>
      <trkpt lat="45.9894" lon="4.71522">
        <ele>183.300003052</ele>
        <time>2015-12-12T09:34:25.79Z</time>
      </trkpt>
      <trkpt lat="45.98942" lon="4.71523">
        <ele>183</ele>
        <time>2015-12-12T09:34:26.773Z</time>
      </trkpt>
      <trkpt lat="45.98944" lon="4.71523">
        <ele>183</ele>
        <time>2015-12-12T09:34:27.79Z</time>
      </trkpt>
      <trkpt lat="45.98944" lon="4.71523">
        <ele>183.5</ele>
        <time>2015-12-12T09:34:28.773Z</time>
      </trkpt>
      <trkpt lat="45.98945" lon="4.71524">
        <ele>183.5</ele>
        <time>2015-12-12T09:34:56.788Z</time>
      </trkpt>
      <trkpt lat="45.98946" lon="4.71524">
        <ele>183.5</ele>
        <time>2015-12-12T09:34:57.788Z</time>
      </trkpt>
      <trkpt lat="45.9895" lon="4.71526">
        <ele>183.199996948</ele>
        <time>2015-12-12T09:34:59.793Z</time>
      </trkpt>
      <trkpt lat="45.98955" lon="4.71527">
        <ele>183.199996948</ele>
        <time>2015-12-12T09:35:00.773Z</time>
      </trkpt>
      <trkpt lat="45.9896" lon="4.71527">
        <ele>183.300003052</ele>
        <time>2015-12-12T09:35:01.79Z</time>
      </trkpt>
      <trkpt lat="45.98965" lon="4.71526">
        <ele>183.399993896</ele>
        <time>2015-12-12T09:35:02.773Z</time>
      </trkpt>
      <trkpt lat="45.9897" lon="4.71526">
        <ele>183.5</ele>
        <time>2015-12-12T09:35:03.789Z</time>
      </trkpt>
      <trkpt lat="45.98975" lon="4.71525">
        <ele>183.600006104</ele>
        <time>2015-12-12T09:35:04.772Z</time>
      </trkpt>
      <trkpt lat="45.9898" lon="4.71524">
        <ele>183.600006104</ele>
        <time>2015-12-12T09:35:05.845Z</time>
      </trkpt>
      <trkpt lat="45.98985" lon="4.71523">
        <ele>183.899993896</ele>
        <time>2015-12-12T09:35:06.773Z</time>
      </trkpt>
      <trkpt lat="45.98989" lon="4.71523">
        <ele>184.199996948</ele>
        <time>2015-12-12T09:35:07.798Z</time>
      </trkpt>
      <trkpt lat="45.98994" lon="4.71522">
        <ele>184.399993896</ele>
        <time>2015-12-12T09:35:08.773Z</time>
      </trkpt>
      <trkpt lat="45.98999" lon="4.71521">
        <ele>184.399993896</ele>
        <time>2015-12-12T09:35:09.79Z</time>
      </trkpt>
      <trkpt lat="45.99004" lon="4.71521">
        <ele>184.699996948</ele>
        <time>2015-12-12T09:35:10.773Z</time>
      </trkpt>
      <trkpt lat="45.99008" lon="4.7152">
        <ele>184.899993896</ele>
        <time>2015-12-12T09:35:11.793Z</time>
      </trkpt>
      <trkpt lat="45.99013" lon="4.7152">
        <ele>184.899993896</ele>
        <time>2015-12-12T09:35:12.773Z</time>
      </trkpt>
      <trkpt lat="45.99021" lon="4.71519">
        <ele>185.199996948</ele>
        <time>2015-12-12T09:35:14.789Z</time>
      </trkpt>
      <trkpt lat="45.99026" lon="4.7152">
        <ele>185.600006104</ele>
        <time>2015-12-12T09:35:15.772Z</time>
      </trkpt>
      <trkpt lat="45.99031" lon="4.7152">
        <ele>186.199996948</ele>
        <time>2015-12-12T09:35:16.791Z</time>
      </trkpt>
      <trkpt lat="45.99035" lon="4.71519">
        <ele>186.600006104</ele>
        <time>2015-12-12T09:35:17.777Z</time>
      </trkpt>
      <trkpt lat="45.9904" lon="4.71519">
        <ele>187.5</ele>
        <time>2015-12-12T09:35:18.803Z</time>
      </trkpt>
      <trkpt lat="45.99046" lon="4.7152">
        <ele>188.100006104</ele>
        <time>2015-12-12T09:35:19.773Z</time>
      </trkpt>
      <trkpt lat="45.9905" lon="4.71519">
        <ele>188.600006104</ele>
        <time>2015-12-12T09:35:20.789Z</time>
      </trkpt>
      <trkpt lat="45.99055" lon="4.71519">
        <ele>188.5</ele>
        <time>2015-12-12T09:35:21.773Z</time>
      </trkpt>
      <trkpt lat="45.99063" lon="4.71519">
        <ele>190</ele>
        <time>2015-12-12T09:35:23.794Z</time>
      </trkpt>
      <trkpt lat="45.99067" lon="4.71519">
        <ele>190.600006104</ele>
        <time>2015-12-12T09:35:24.773Z</time>
      </trkpt>
      <trkpt lat="45.99075" lon="4.71519">
        <ele>191.600006104</ele>
        <time>2015-12-12T09:35:26.789Z</time>
      </trkpt>
      <trkpt lat="45.99079" lon="4.71518">
        <ele>193</ele>
        <time>2015-12-12T09:35:27.772Z</time>
      </trkpt>
      <trkpt lat="45.99086" lon="4.71514">
        <ele>196.399993896</ele>
        <time>2015-12-12T09:35:29.793Z</time>
      </trkpt>
      <trkpt lat="45.99091" lon="4.71514">
        <ele>197.300003052</ele>
        <time>2015-12-12T09:35:30.773Z</time>
      </trkpt>
      <trkpt lat="45.99099" lon="4.71512">
        <ele>199</ele>
        <time>2015-12-12T09:35:32.789Z</time>
      </trkpt>
      <trkpt lat="45.99102" lon="4.7151">
        <ele>199</ele>
        <time>2015-12-12T09:35:33.772Z</time>
      </trkpt>
      <trkpt lat="45.99109" lon="4.71508">
        <ele>199.199996948</ele>
        <time>2015-12-12T09:35:35.794Z</time>
      </trkpt>
      <trkpt lat="45.99114" lon="4.71507">
        <ele>199.399993896</ele>
        <time>2015-12-12T09:35:36.772Z</time>
      </trkpt>
      <trkpt lat="45.99118" lon="4.71507">
        <ele>198.699996948</ele>
        <time>2015-12-12T09:35:37.793Z</time>
      </trkpt>
      <trkpt lat="45.99123" lon="4.71505">
        <ele>199.199996948</ele>
        <time>2015-12-12T09:35:38.772Z</time>
      </trkpt>
      <trkpt lat="45.99127" lon="4.71505">
        <ele>199.5</ele>
        <time>2015-12-12T09:35:39.789Z</time>
      </trkpt>
      <trkpt lat="45.99132" lon="4.71505">
        <ele>199.399993896</ele>
        <time>2015-12-12T09:35:40.773Z</time>
      </trkpt>
      <trkpt lat="45.99141" lon="4.71506">
        <ele>200</ele>
        <time>2015-12-12T09:35:42.789Z</time>
      </trkpt>
      <trkpt lat="45.99145" lon="4.71505">
        <ele>200.800003052</ele>
        <time>2015-12-12T09:35:43.774Z</time>
      </trkpt>
      <trkpt lat="45.99154" lon="4.71505">
        <ele>202.399993896</ele>
        <time>2015-12-12T09:35:45.789Z</time>
      </trkpt>
      <trkpt lat="45.99158" lon="4.71507">
        <ele>202.399993896</ele>
        <time>2015-12-12T09:35:46.773Z</time>
      </trkpt>
      <trkpt lat="45.99167" lon="4.71508">
        <ele>202.800003052</ele>
        <time>2015-12-12T09:35:48.789Z</time>
      </trkpt>
      <trkpt lat="45.99171" lon="4.71509">
        <ele>203.600006104</ele>
        <time>2015-12-12T09:35:49.773Z</time>
      </trkpt>
      <trkpt lat="45.99176" lon="4.71509">
        <ele>203.800003052</ele>
        <time>2015-12-12T09:35:50.809Z</time>
      </trkpt>
      <trkpt lat="45.9918" lon="4.71509">
        <ele>204.300003052</ele>
        <time>2015-12-12T09:35:51.772Z</time>
      </trkpt>
      <trkpt lat="45.99185" lon="4.71509">
        <ele>204.399993896</ele>
        <time>2015-12-12T09:35:52.789Z</time>
      </trkpt>
      <trkpt lat="45.9919" lon="4.71509">
        <ele>204.899993896</ele>
        <time>2015-12-12T09:35:53.777Z</time>
      </trkpt>
      <trkpt lat="45.99199" lon="4.71509">
        <ele>206.399993896</ele>
        <time>2015-12-12T09:35:55.789Z</time>
      </trkpt>
      <trkpt lat="45.99203" lon="4.71508">
        <ele>206.600006104</ele>
        <time>2015-12-12T09:35:56.773Z</time>
      </trkpt>
      <trkpt lat="45.99208" lon="4.71508">
        <ele>206.199996948</ele>
        <time>2015-12-12T09:35:57.79Z</time>
      </trkpt>
      <trkpt lat="45.99212" lon="4.71507">
        <ele>206.600006104</ele>
        <time>2015-12-12T09:35:58.772Z</time>
      </trkpt>
      <trkpt lat="45.99217" lon="4.71507">
        <ele>206.800003052</ele>
        <time>2015-12-12T09:35:59.807Z</time>
      </trkpt>
      <trkpt lat="45.99222" lon="4.71508">
        <ele>205.699996948</ele>
        <time>2015-12-12T09:36:00.773Z</time>
      </trkpt>
      <trkpt lat="45.99227" lon="4.71509">
        <ele>206</ele>
        <time>2015-12-12T09:36:01.79Z</time>
      </trkpt>
      <trkpt lat="45.99232" lon="4.7151">
        <ele>204.899993896</ele>
        <time>2015-12-12T09:36:02.772Z</time>
      </trkpt>
      <trkpt lat="45.9924" lon="4.7151">
        <ele>205.600006104</ele>
        <time>2015-12-12T09:36:04.789Z</time>
      </trkpt>
      <trkpt lat="45.99244" lon="4.71511">
        <ele>205.800003052</ele>
        <time>2015-12-12T09:36:05.777Z</time>
      </trkpt>
      <trkpt lat="45.99253" lon="4.71511">
        <ele>207</ele>
        <time>2015-12-12T09:36:07.791Z</time>
      </trkpt>
      <trkpt lat="45.99258" lon="4.71511">
        <ele>207.5</ele>
        <time>2015-12-12T09:36:08.772Z</time>
      </trkpt>
      <trkpt lat="45.99262" lon="4.71511">
        <ele>208.199996948</ele>
        <time>2015-12-12T09:36:09.788Z</time>
      </trkpt>
      <trkpt lat="45.9927" lon="4.7152">
        <ele>203.300003052</ele>
        <time>2015-12-12T09:36:10.773Z</time>
      </trkpt>
      <trkpt lat="45.99276" lon="4.71523">
        <ele>202.5</ele>
        <time>2015-12-12T09:36:11.795Z</time>
      </trkpt>
      <trkpt lat="45.99281" lon="4.71524">
        <ele>201.399993896</ele>
        <time>2015-12-12T09:36:12.773Z</time>
      </trkpt>
      <trkpt lat="45.99286" lon="4.71524">
        <ele>201.300003052</ele>
        <time>2015-12-12T09:36:13.79Z</time>
      </trkpt>
      <trkpt lat="45.99291" lon="4.71524">
        <ele>201</ele>
        <time>2015-12-12T09:36:14.772Z</time>
      </trkpt>
      <trkpt lat="45.99296" lon="4.71524">
        <ele>201.100006104</ele>
        <time>2015-12-12T09:36:15.789Z</time>
      </trkpt>
      <trkpt lat="45.993" lon="4.71524">
        <ele>200.899993896</ele>
        <time>2015-12-12T09:36:16.772Z</time>
      </trkpt>
      <trkpt lat="45.99305" lon="4.71523">
        <ele>200.899993896</ele>
        <time>2015-12-12T09:36:17.794Z</time>
      </trkpt>
      <trkpt lat="45.9931" lon="4.71523">
        <ele>200.399993896</ele>
        <time>2015-12-12T09:36:18.773Z</time>
      </trkpt>
      <trkpt lat="45.99315" lon="4.71523">
        <ele>200.800003052</ele>
        <time>2015-12-12T09:36:19.791Z</time>
      </trkpt>
      <trkpt lat="45.9932" lon="4.71522">
        <ele>200.600006104</ele>
        <time>2015-12-12T09:36:20.772Z</time>
      </trkpt>
      <trkpt lat="45.99325" lon="4.71522">
        <ele>200.399993896</ele>
        <time>2015-12-12T09:36:21.788Z</time>
      </trkpt>
      <trkpt lat="45.9933" lon="4.71522">
        <ele>200.399993896</ele>
        <time>2015-12-12T09:36:22.772Z</time>
      </trkpt>
      <trkpt lat="45.99335" lon="4.71521">
        <ele>201.100006104</ele>
        <time>2015-12-12T09:36:23.792Z</time>
      </trkpt>
      <trkpt lat="45.9934" lon="4.7152">
        <ele>201.899993896</ele>
        <time>2015-12-12T09:36:24.773Z</time>
      </trkpt>
      <trkpt lat="45.99345" lon="4.7152">
        <ele>201.800003052</ele>
        <time>2015-12-12T09:36:25.79Z</time>
      </trkpt>
      <trkpt lat="45.9935" lon="4.71519">
        <ele>202.300003052</ele>
        <time>2015-12-12T09:36:26.772Z</time>
      </trkpt>
      <trkpt lat="45.99355" lon="4.7152">
        <ele>202.600006104</ele>
        <time>2015-12-12T09:36:27.811Z</time>
      </trkpt>
      <trkpt lat="45.9936" lon="4.7152">
        <ele>203.300003052</ele>
        <time>2015-12-12T09:36:28.772Z</time>
      </trkpt>
      <trkpt lat="45.99365" lon="4.71519">
        <ele>203.600006104</ele>
        <time>2015-12-12T09:36:29.793Z</time>
      </trkpt>
      <trkpt lat="45.9937" lon="4.71519">
        <ele>204.199996948</ele>
        <time>2015-12-12T09:36:30.772Z</time>
      </trkpt>
      <trkpt lat="45.99375" lon="4.71519">
        <ele>204.199996948</ele>
        <time>2015-12-12T09:36:31.79Z</time>
      </trkpt>
      <trkpt lat="45.99381" lon="4.71519">
        <ele>204.600006104</ele>
        <time>2015-12-12T09:36:32.772Z</time>
      </trkpt>
      <trkpt lat="45.99386" lon="4.71519">
        <ele>204.5</ele>
        <time>2015-12-12T09:36:33.788Z</time>
      </trkpt>
      <trkpt lat="45.9939" lon="4.71518">
        <ele>204.199996948</ele>
        <time>2015-12-12T09:36:34.772Z</time>
      </trkpt>
      <trkpt lat="45.99395" lon="4.71517">
        <ele>204.199996948</ele>
        <time>2015-12-12T09:36:35.799Z</time>
      </trkpt>
      <trkpt lat="45.994" lon="4.71516">
        <ele>204.5</ele>
        <time>2015-12-12T09:36:36.773Z</time>
      </trkpt>
      <trkpt lat="45.99405" lon="4.71516">
        <ele>205.100006104</ele>
        <time>2015-12-12T09:36:37.793Z</time>
      </trkpt>
      <trkpt lat="45.99409" lon="4.71515">
        <ele>205</ele>
        <time>2015-12-12T09:36:38.772Z</time>
      </trkpt>
      <trkpt lat="45.99414" lon="4.71514">
        <ele>205.199996948</ele>
        <time>2015-12-12T09:36:39.789Z</time>
      </trkpt>
      <trkpt lat="45.99419" lon="4.71513">
        <ele>205.100006104</ele>
        <time>2015-12-12T09:36:40.772Z</time>
      </trkpt>
      <trkpt lat="45.99424" lon="4.71513">
        <ele>204.899993896</ele>
        <time>2015-12-12T09:36:41.792Z</time>
      </trkpt>
      <trkpt lat="45.99429" lon="4.71514">
        <ele>204.399993896</ele>
        <time>2015-12-12T09:36:42.772Z</time>
      </trkpt>
      <trkpt lat="45.99434" lon="4.71515">
        <ele>204.300003052</ele>
        <time>2015-12-12T09:36:43.804Z</time>
      </trkpt>
      <trkpt lat="45.99438" lon="4.71515">
        <ele>204.199996948</ele>
        <time>2015-12-12T09:36:44.772Z</time>
      </trkpt>
      <trkpt lat="45.99444" lon="4.71516">
        <ele>204.100006104</ele>
        <time>2015-12-12T09:36:45.788Z</time>
      </trkpt>
      <trkpt lat="45.99449" lon="4.71516">
        <ele>203.199996948</ele>
        <time>2015-12-12T09:36:46.772Z</time>
      </trkpt>
      <trkpt lat="45.99454" lon="4.71516">
        <ele>202.5</ele>
        <time>2015-12-12T09:36:47.794Z</time>
      </trkpt>
      <trkpt lat="45.99459" lon="4.71516">
        <ele>201.600006104</ele>
        <time>2015-12-12T09:36:48.772Z</time>
      </trkpt>
      <trkpt lat="45.99464" lon="4.71515">
        <ele>200.699996948</ele>
        <time>2015-12-12T09:36:49.802Z</time>
      </trkpt>
      <trkpt lat="45.99469" lon="4.71515">
        <ele>200.199996948</ele>
        <time>2015-12-12T09:36:50.775Z</time>
      </trkpt>
      <trkpt lat="45.99474" lon="4.71515">
        <ele>199.800003052</ele>
        <time>2015-12-12T09:36:51.789Z</time>
      </trkpt>
      <trkpt lat="45.9948" lon="4.71515">
        <ele>199.699996948</ele>
        <time>2015-12-12T09:36:52.773Z</time>
      </trkpt>
      <trkpt lat="45.99485" lon="4.71514">
        <ele>199.5</ele>
        <time>2015-12-12T09:36:53.794Z</time>
      </trkpt>
      <trkpt lat="45.9949" lon="4.71514">
        <ele>200.300003052</ele>
        <time>2015-12-12T09:36:54.773Z</time>
      </trkpt>
      <trkpt lat="45.99495" lon="4.71514">
        <ele>200.199996948</ele>
        <time>2015-12-12T09:36:55.789Z</time>
      </trkpt>
      <trkpt lat="45.995" lon="4.71514">
        <ele>200.899993896</ele>
        <time>2015-12-12T09:36:56.773Z</time>
      </trkpt>
      <trkpt lat="45.99505" lon="4.71513">
        <ele>201.100006104</ele>
        <time>2015-12-12T09:36:57.789Z</time>
      </trkpt>
      <trkpt lat="45.9951" lon="4.71513">
        <ele>201.300003052</ele>
        <time>2015-12-12T09:36:58.773Z</time>
      </trkpt>
      <trkpt lat="45.99515" lon="4.71514">
        <ele>201.699996948</ele>
        <time>2015-12-12T09:36:59.82Z</time>
      </trkpt>
      <trkpt lat="45.99519" lon="4.71514">
        <ele>202</ele>
        <time>2015-12-12T09:37:00.773Z</time>
      </trkpt>
      <trkpt lat="45.99528" lon="4.71514">
        <ele>202.800003052</ele>
        <time>2015-12-12T09:37:02.79Z</time>
      </trkpt>
      <trkpt lat="45.99533" lon="4.71514">
        <ele>203</ele>
        <time>2015-12-12T09:37:03.773Z</time>
      </trkpt>
      <trkpt lat="45.99538" lon="4.71514">
        <ele>203.100006104</ele>
        <time>2015-12-12T09:37:04.789Z</time>
      </trkpt>
      <trkpt lat="45.99544" lon="4.71514">
        <ele>203.199996948</ele>
        <time>2015-12-12T09:37:05.777Z</time>
      </trkpt>
      <trkpt lat="45.99549" lon="4.71514">
        <ele>203.5</ele>
        <time>2015-12-12T09:37:06.831Z</time>
      </trkpt>
      <trkpt lat="45.99554" lon="4.71514">
        <ele>203.399993896</ele>
        <time>2015-12-12T09:37:07.775Z</time>
      </trkpt>
      <trkpt lat="45.9956" lon="4.71514">
        <ele>204.199996948</ele>
        <time>2015-12-12T09:37:08.788Z</time>
      </trkpt>
      <trkpt lat="45.99565" lon="4.71514">
        <ele>203.899993896</ele>
        <time>2015-12-12T09:37:09.773Z</time>
      </trkpt>
      <trkpt lat="45.99571" lon="4.71513">
        <ele>203.699996948</ele>
        <time>2015-12-12T09:37:10.789Z</time>
      </trkpt>
      <trkpt lat="45.99575" lon="4.71514">
        <ele>203.699996948</ele>
        <time>2015-12-12T09:37:11.777Z</time>
      </trkpt>
      <trkpt lat="45.99582" lon="4.71518">
        <ele>203.100006104</ele>
        <time>2015-12-12T09:37:14.789Z</time>
      </trkpt>
      <trkpt lat="45.99583" lon="4.71518">
        <ele>202.600006104</ele>
        <time>2015-12-12T09:37:15.773Z</time>
      </trkpt>
      <trkpt lat="45.99585" lon="4.71524">
        <ele>201.600006104</ele>
        <time>2015-12-12T09:37:20.808Z</time>
      </trkpt>
      <trkpt lat="45.99586" lon="4.71527">
        <ele>201.399993896</ele>
        <time>2015-12-12T09:37:21.773Z</time>
      </trkpt>
      <trkpt lat="45.9959" lon="4.71533">
        <ele>200.800003052</ele>
        <time>2015-12-12T09:37:23.794Z</time>
      </trkpt>
      <trkpt lat="45.99594" lon="4.71536">
        <ele>200.5</ele>
        <time>2015-12-12T09:37:24.773Z</time>
      </trkpt>
      <trkpt lat="45.99602" lon="4.71538">
        <ele>200.399993896</ele>
        <time>2015-12-12T09:37:26.79Z</time>
      </trkpt>
      <trkpt lat="45.99607" lon="4.71536">
        <ele>200.399993896</ele>
        <time>2015-12-12T09:37:27.774Z</time>
      </trkpt>
      <trkpt lat="45.99611" lon="4.71532">
        <ele>200.199996948</ele>
        <time>2015-12-12T09:37:28.79Z</time>
      </trkpt>
      <trkpt lat="45.99614" lon="4.71527">
        <ele>199.699996948</ele>
        <time>2015-12-12T09:37:29.777Z</time>
      </trkpt>
      <trkpt lat="45.99615" lon="4.71519">
        <ele>199.100006104</ele>
        <time>2015-12-12T09:37:30.791Z</time>
      </trkpt>
      <trkpt lat="45.99615" lon="4.71512">
        <ele>198.300003052</ele>
        <time>2015-12-12T09:37:31.775Z</time>
      </trkpt>
      <trkpt lat="45.99614" lon="4.71504">
        <ele>197.899993896</ele>
        <time>2015-12-12T09:37:32.791Z</time>
      </trkpt>
      <trkpt lat="45.99613" lon="4.71496">
        <ele>197.600006104</ele>
        <time>2015-12-12T09:37:33.773Z</time>
      </trkpt>
      <trkpt lat="45.99612" lon="4.71487">
        <ele>196.899993896</ele>
        <time>2015-12-12T09:37:34.789Z</time>
      </trkpt>
      <trkpt lat="45.99613" lon="4.71479">
        <ele>196.699996948</ele>
        <time>2015-12-12T09:37:35.777Z</time>
      </trkpt>
      <trkpt lat="45.99615" lon="4.71473">
        <ele>195.899993896</ele>
        <time>2015-12-12T09:37:36.789Z</time>
      </trkpt>
      <trkpt lat="45.99618" lon="4.71467">
        <ele>195.5</ele>
        <time>2015-12-12T09:37:37.775Z</time>
      </trkpt>
      <trkpt lat="45.99622" lon="4.7146">
        <ele>195.699996948</ele>
        <time>2015-12-12T09:37:38.854Z</time>
      </trkpt>
      <trkpt lat="45.99625" lon="4.71454">
        <ele>195.199996948</ele>
        <time>2015-12-12T09:37:39.773Z</time>
      </trkpt>
      <trkpt lat="45.99629" lon="4.71447">
        <ele>195</ele>
        <time>2015-12-12T09:37:40.789Z</time>
      </trkpt>
      <trkpt lat="45.99632" lon="4.7144">
        <ele>194.699996948</ele>
        <time>2015-12-12T09:37:41.776Z</time>
      </trkpt>
      <trkpt lat="45.99636" lon="4.71433">
        <ele>194.699996948</ele>
        <time>2015-12-12T09:37:42.79Z</time>
      </trkpt>
      <trkpt lat="45.9964" lon="4.71427">
        <ele>194.399993896</ele>
        <time>2015-12-12T09:37:43.775Z</time>
      </trkpt>
      <trkpt lat="45.99643" lon="4.7142">
        <ele>194.300003052</ele>
        <time>2015-12-12T09:37:44.789Z</time>
      </trkpt>
      <trkpt lat="45.99646" lon="4.71413">
        <ele>194</ele>
        <time>2015-12-12T09:37:45.773Z</time>
      </trkpt>
      <trkpt lat="45.9965" lon="4.71406">
        <ele>193.899993896</ele>
        <time>2015-12-12T09:37:46.804Z</time>
      </trkpt>
      <trkpt lat="45.99654" lon="4.71399">
        <ele>193.800003052</ele>
        <time>2015-12-12T09:37:47.777Z</time>
      </trkpt>
      <trkpt lat="45.99658" lon="4.71392">
        <ele>193.600006104</ele>
        <time>2015-12-12T09:37:48.841Z</time>
      </trkpt>
      <trkpt lat="45.99662" lon="4.71384">
        <ele>193.5</ele>
        <time>2015-12-12T09:37:49.774Z</time>
      </trkpt>
      <trkpt lat="45.99665" lon="4.71378">
        <ele>193.5</ele>
        <time>2015-12-12T09:37:50.845Z</time>
      </trkpt>
      <trkpt lat="45.99669" lon="4.71371">
        <ele>193.300003052</ele>
        <time>2015-12-12T09:37:51.773Z</time>
      </trkpt>
      <trkpt lat="45.99673" lon="4.71364">
        <ele>193.399993896</ele>
        <time>2015-12-12T09:37:52.789Z</time>
      </trkpt>
      <trkpt lat="45.99677" lon="4.71356">
        <ele>193.399993896</ele>
        <time>2015-12-12T09:37:53.777Z</time>
      </trkpt>
      <trkpt lat="45.9968" lon="4.71349">
        <ele>193.699996948</ele>
        <time>2015-12-12T09:37:54.79Z</time>
      </trkpt>
      <trkpt lat="45.99684" lon="4.71341">
        <ele>193.5</ele>
        <time>2015-12-12T09:37:55.774Z</time>
      </trkpt>
      <trkpt lat="45.99688" lon="4.71334">
        <ele>193.800003052</ele>
        <time>2015-12-12T09:37:56.789Z</time>
      </trkpt>
      <trkpt lat="45.99692" lon="4.71327">
        <ele>194</ele>
        <time>2015-12-12T09:37:57.774Z</time>
      </trkpt>
      <trkpt lat="45.99695" lon="4.7132">
        <ele>193.800003052</ele>
        <time>2015-12-12T09:37:58.79Z</time>
      </trkpt>
      <trkpt lat="45.99698" lon="4.71313">
        <ele>193.600006104</ele>
        <time>2015-12-12T09:37:59.777Z</time>
      </trkpt>
      <trkpt lat="45.99702" lon="4.71307">
        <ele>193.5</ele>
        <time>2015-12-12T09:38:00.926Z</time>
      </trkpt>
      <trkpt lat="45.99705" lon="4.713">
        <ele>193.899993896</ele>
        <time>2015-12-12T09:38:01.774Z</time>
      </trkpt>
      <trkpt lat="45.9971" lon="4.71292">
        <ele>194</ele>
        <time>2015-12-12T09:38:02.789Z</time>
      </trkpt>
      <trkpt lat="45.99713" lon="4.71286">
        <ele>194.199996948</ele>
        <time>2015-12-12T09:38:03.773Z</time>
      </trkpt>
      <trkpt lat="45.99717" lon="4.71279">
        <ele>194.100006104</ele>
        <time>2015-12-12T09:38:04.788Z</time>
      </trkpt>
      <trkpt lat="45.99721" lon="4.71271">
        <ele>194.300003052</ele>
        <time>2015-12-12T09:38:05.81Z</time>
      </trkpt>
      <trkpt lat="45.99724" lon="4.71264">
        <ele>194.399993896</ele>
        <time>2015-12-12T09:38:06.79Z</time>
      </trkpt>
      <trkpt lat="45.99728" lon="4.71256">
        <ele>194.5</ele>
        <time>2015-12-12T09:38:07.792Z</time>
      </trkpt>
      <trkpt lat="45.99731" lon="4.71249">
        <ele>194.300003052</ele>
        <time>2015-12-12T09:38:08.791Z</time>
      </trkpt>
      <trkpt lat="45.99736" lon="4.71241">
        <ele>194.699996948</ele>
        <time>2015-12-12T09:38:09.773Z</time>
      </trkpt>
      <trkpt lat="45.9974" lon="4.71234">
        <ele>194.899993896</ele>
        <time>2015-12-12T09:38:10.789Z</time>
      </trkpt>
      <trkpt lat="45.99744" lon="4.71226">
        <ele>194.800003052</ele>
        <time>2015-12-12T09:38:11.774Z</time>
      </trkpt>
      <trkpt lat="45.99748" lon="4.71219">
        <ele>194.699996948</ele>
        <time>2015-12-12T09:38:12.793Z</time>
      </trkpt>
      <trkpt lat="45.99751" lon="4.71212">
        <ele>194.600006104</ele>
        <time>2015-12-12T09:38:13.774Z</time>
      </trkpt>
      <trkpt lat="45.99755" lon="4.71205">
        <ele>194.600006104</ele>
        <time>2015-12-12T09:38:14.789Z</time>
      </trkpt>
      <trkpt lat="45.99759" lon="4.71198">
        <ele>194.699996948</ele>
        <time>2015-12-12T09:38:15.773Z</time>
      </trkpt>
      <trkpt lat="45.99762" lon="4.71191">
        <ele>194.5</ele>
        <time>2015-12-12T09:38:16.789Z</time>
      </trkpt>
      <trkpt lat="45.99766" lon="4.71185">
        <ele>194.899993896</ele>
        <time>2015-12-12T09:38:17.777Z</time>
      </trkpt>
      <trkpt lat="45.99769" lon="4.71179">
        <ele>194.800003052</ele>
        <time>2015-12-12T09:38:18.789Z</time>
      </trkpt>
      <trkpt lat="45.99772" lon="4.71173">
        <ele>194.800003052</ele>
        <time>2015-12-12T09:38:19.774Z</time>
      </trkpt>
      <trkpt lat="45.99775" lon="4.71167">
        <ele>194.699996948</ele>
        <time>2015-12-12T09:38:20.79Z</time>
      </trkpt>
      <trkpt lat="45.99778" lon="4.71161">
        <ele>194.600006104</ele>
        <time>2015-12-12T09:38:21.772Z</time>
      </trkpt>
      <trkpt lat="45.99783" lon="4.71153">
        <ele>194.800003052</ele>
        <time>2015-12-12T09:38:23.794Z</time>
      </trkpt>
      <trkpt lat="45.99784" lon="4.7115">
        <ele>194.600006104</ele>
        <time>2015-12-12T09:38:24.773Z</time>
      </trkpt>
      <trkpt lat="45.99786" lon="4.71147">
        <ele>194.399993896</ele>
        <time>2015-12-12T09:38:25.79Z</time>
      </trkpt>
      <trkpt lat="45.99786" lon="4.71146">
        <ele>194.399993896</ele>
        <time>2015-12-12T09:38:26.773Z</time>
      </trkpt>
      <trkpt lat="45.9979" lon="4.71141">
        <ele>193.800003052</ele>
        <time>2015-12-12T09:38:30.789Z</time>
      </trkpt>
      <trkpt lat="45.99791" lon="4.71138">
        <ele>193.800003052</ele>
        <time>2015-12-12T09:38:31.774Z</time>
      </trkpt>
      <trkpt lat="45.99795" lon="4.7113">
        <ele>193.600006104</ele>
        <time>2015-12-12T09:38:33.789Z</time>
      </trkpt>
      <trkpt lat="45.99797" lon="4.71126">
        <ele>193.600006104</ele>
        <time>2015-12-12T09:38:34.773Z</time>
      </trkpt>
      <trkpt lat="45.998" lon="4.71114">
        <ele>193.5</ele>
        <time>2015-12-12T09:38:36.791Z</time>
      </trkpt>
      <trkpt lat="45.99802" lon="4.71108">
        <ele>193.600006104</ele>
        <time>2015-12-12T09:38:37.777Z</time>
      </trkpt>
      <trkpt lat="45.99803" lon="4.71101">
        <ele>193.600006104</ele>
        <time>2015-12-12T09:38:38.792Z</time>
      </trkpt>
      <trkpt lat="45.99804" lon="4.71093">
        <ele>193.600006104</ele>
        <time>2015-12-12T09:38:39.775Z</time>
      </trkpt>
      <trkpt lat="45.99805" lon="4.71085">
        <ele>193.600006104</ele>
        <time>2015-12-12T09:38:40.791Z</time>
      </trkpt>
      <trkpt lat="45.99806" lon="4.71078">
        <ele>193.600006104</ele>
        <time>2015-12-12T09:38:41.777Z</time>
      </trkpt>
      <trkpt lat="45.99808" lon="4.7107">
        <ele>193.699996948</ele>
        <time>2015-12-12T09:38:42.789Z</time>
      </trkpt>
      <trkpt lat="45.99809" lon="4.71062">
        <ele>193.800003052</ele>
        <time>2015-12-12T09:38:43.774Z</time>
      </trkpt>
      <trkpt lat="45.99811" lon="4.71054">
        <ele>193.699996948</ele>
        <time>2015-12-12T09:38:44.789Z</time>
      </trkpt>
      <trkpt lat="45.99812" lon="4.71046">
        <ele>193.699996948</ele>
        <time>2015-12-12T09:38:45.772Z</time>
      </trkpt>
      <trkpt lat="45.99813" lon="4.71038">
        <ele>193.600006104</ele>
        <time>2015-12-12T09:38:46.789Z</time>
      </trkpt>
      <trkpt lat="45.99815" lon="4.71029">
        <ele>193.600006104</ele>
        <time>2015-12-12T09:38:47.778Z</time>
      </trkpt>
      <trkpt lat="45.99817" lon="4.71021">
        <ele>193.800003052</ele>
        <time>2015-12-12T09:38:48.79Z</time>
      </trkpt>
      <trkpt lat="45.99818" lon="4.71012">
        <ele>194.100006104</ele>
        <time>2015-12-12T09:38:49.774Z</time>
      </trkpt>
      <trkpt lat="45.9982" lon="4.71004">
        <ele>194.199996948</ele>
        <time>2015-12-12T09:38:50.792Z</time>
      </trkpt>
      <trkpt lat="45.99821" lon="4.70996">
        <ele>194.5</ele>
        <time>2015-12-12T09:38:51.772Z</time>
      </trkpt>
      <trkpt lat="45.99823" lon="4.70989">
        <ele>194.800003052</ele>
        <time>2015-12-12T09:38:52.789Z</time>
      </trkpt>
      <trkpt lat="45.99824" lon="4.70982">
        <ele>194.600006104</ele>
        <time>2015-12-12T09:38:53.777Z</time>
      </trkpt>
      <trkpt lat="45.99825" lon="4.70974">
        <ele>194.699996948</ele>
        <time>2015-12-12T09:38:54.803Z</time>
      </trkpt>
      <trkpt lat="45.99827" lon="4.70966">
        <ele>195.100006104</ele>
        <time>2015-12-12T09:38:55.774Z</time>
      </trkpt>
      <trkpt lat="45.99828" lon="4.70958">
        <ele>195.100006104</ele>
        <time>2015-12-12T09:38:56.789Z</time>
      </trkpt>
      <trkpt lat="45.9983" lon="4.7095">
        <ele>195.199996948</ele>
        <time>2015-12-12T09:38:57.775Z</time>
      </trkpt>
      <trkpt lat="45.99831" lon="4.70942">
        <ele>195.300003052</ele>
        <time>2015-12-12T09:38:58.789Z</time>
      </trkpt>
      <trkpt lat="45.99833" lon="4.70934">
        <ele>195.5</ele>
        <time>2015-12-12T09:38:59.777Z</time>
      </trkpt>
      <trkpt lat="45.99834" lon="4.70926">
        <ele>195.800003052</ele>
        <time>2015-12-12T09:39:00.791Z</time>
      </trkpt>
      <trkpt lat="45.99836" lon="4.70918">
        <ele>195.800003052</ele>
        <time>2015-12-12T09:39:01.773Z</time>
      </trkpt>
      <trkpt lat="45.99837" lon="4.7091">
        <ele>196</ele>
        <time>2015-12-12T09:39:02.789Z</time>
      </trkpt>
      <trkpt lat="45.99839" lon="4.70902">
        <ele>196.300003052</ele>
        <time>2015-12-12T09:39:03.773Z</time>
      </trkpt>
      <trkpt lat="45.9984" lon="4.70893">
        <ele>196.5</ele>
        <time>2015-12-12T09:39:04.788Z</time>
      </trkpt>
      <trkpt lat="45.99842" lon="4.70884">
        <ele>196.699996948</ele>
        <time>2015-12-12T09:39:05.777Z</time>
      </trkpt>
      <trkpt lat="45.99844" lon="4.70875">
        <ele>196.800003052</ele>
        <time>2015-12-12T09:39:06.789Z</time>
      </trkpt>
      <trkpt lat="45.99845" lon="4.70866">
        <ele>196.800003052</ele>
        <time>2015-12-12T09:39:07.775Z</time>
      </trkpt>
      <trkpt lat="45.99846" lon="4.70857">
        <ele>196.899993896</ele>
        <time>2015-12-12T09:39:08.789Z</time>
      </trkpt>
      <trkpt lat="45.99847" lon="4.70849">
        <ele>197</ele>
        <time>2015-12-12T09:39:09.772Z</time>
      </trkpt>
      <trkpt lat="45.99848" lon="4.70842">
        <ele>197</ele>
        <time>2015-12-12T09:39:10.805Z</time>
      </trkpt>
      <trkpt lat="45.9985" lon="4.70834">
        <ele>196.800003052</ele>
        <time>2015-12-12T09:39:11.776Z</time>
      </trkpt>
      <trkpt lat="45.99851" lon="4.70827">
        <ele>196.800003052</ele>
        <time>2015-12-12T09:39:12.789Z</time>
      </trkpt>
      <trkpt lat="45.99853" lon="4.7082">
        <ele>196.800003052</ele>
        <time>2015-12-12T09:39:13.773Z</time>
      </trkpt>
      <trkpt lat="45.99854" lon="4.70811">
        <ele>196.600006104</ele>
        <time>2015-12-12T09:39:14.789Z</time>
      </trkpt>
      <trkpt lat="45.99855" lon="4.70804">
        <ele>196.699996948</ele>
        <time>2015-12-12T09:39:15.773Z</time>
      </trkpt>
      <trkpt lat="45.99857" lon="4.70796">
        <ele>196.600006104</ele>
        <time>2015-12-12T09:39:16.789Z</time>
      </trkpt>
      <trkpt lat="45.99859" lon="4.70788">
        <ele>196.5</ele>
        <time>2015-12-12T09:39:17.781Z</time>
      </trkpt>
      <trkpt lat="45.9986" lon="4.7078">
        <ele>196.399993896</ele>
        <time>2015-12-12T09:39:18.789Z</time>
      </trkpt>
      <trkpt lat="45.99862" lon="4.70772">
        <ele>196.399993896</ele>
        <time>2015-12-12T09:39:19.774Z</time>
      </trkpt>
      <trkpt lat="45.99862" lon="4.70764">
        <ele>196.600006104</ele>
        <time>2015-12-12T09:39:20.789Z</time>
      </trkpt>
      <trkpt lat="45.99864" lon="4.70756">
        <ele>196.600006104</ele>
        <time>2015-12-12T09:39:21.773Z</time>
      </trkpt>
      <trkpt lat="45.99865" lon="4.70749">
        <ele>196.5</ele>
        <time>2015-12-12T09:39:22.789Z</time>
      </trkpt>
      <trkpt lat="45.99867" lon="4.70741">
        <ele>196.399993896</ele>
        <time>2015-12-12T09:39:23.777Z</time>
      </trkpt>
      <trkpt lat="45.99868" lon="4.70733">
        <ele>196.399993896</ele>
        <time>2015-12-12T09:39:24.789Z</time>
      </trkpt>
      <trkpt lat="45.99869" lon="4.70727">
        <ele>196.399993896</ele>
        <time>2015-12-12T09:39:25.774Z</time>
      </trkpt>
      <trkpt lat="45.9987" lon="4.7072">
        <ele>196.5</ele>
        <time>2015-12-12T09:39:26.788Z</time>
      </trkpt>
      <trkpt lat="45.99871" lon="4.70712">
        <ele>196.399993896</ele>
        <time>2015-12-12T09:39:27.775Z</time>
      </trkpt>
      <trkpt lat="45.99872" lon="4.70706">
        <ele>196.399993896</ele>
        <time>2015-12-12T09:39:28.803Z</time>
      </trkpt>
      <trkpt lat="45.99873" lon="4.70699">
        <ele>196.600006104</ele>
        <time>2015-12-12T09:39:29.777Z</time>
      </trkpt>
      <trkpt lat="45.99875" lon="4.70688">
        <ele>196.600006104</ele>
        <time>2015-12-12T09:39:31.791Z</time>
      </trkpt>
      <trkpt lat="45.99876" lon="4.70684">
        <ele>196.399993896</ele>
        <time>2015-12-12T09:39:32.773Z</time>
      </trkpt>
      <trkpt lat="45.99878" lon="4.70678">
        <ele>196.300003052</ele>
        <time>2015-12-12T09:39:34.789Z</time>
      </trkpt>
      <trkpt lat="45.99879" lon="4.70676">
        <ele>196.5</ele>
        <time>2015-12-12T09:39:35.776Z</time>
      </trkpt>
      <trkpt lat="45.99881" lon="4.70673">
        <ele>196.5</ele>
        <time>2015-12-12T09:39:39.789Z</time>
      </trkpt>
      <trkpt lat="45.99882" lon="4.7067">
        <ele>196.399993896</ele>
        <time>2015-12-12T09:39:40.773Z</time>
      </trkpt>
      <trkpt lat="45.99886" lon="4.70662">
        <ele>196.5</ele>
        <time>2015-12-12T09:39:42.79Z</time>
      </trkpt>
      <trkpt lat="45.99889" lon="4.70658">
        <ele>196.699996948</ele>
        <time>2015-12-12T09:39:43.773Z</time>
      </trkpt>
      <trkpt lat="45.99894" lon="4.70655">
        <ele>196.800003052</ele>
        <time>2015-12-12T09:39:44.789Z</time>
      </trkpt>
      <trkpt lat="45.99899" lon="4.70653">
        <ele>197</ele>
        <time>2015-12-12T09:39:45.773Z</time>
      </trkpt>
      <trkpt lat="45.99904" lon="4.70651">
        <ele>197.199996948</ele>
        <time>2015-12-12T09:39:46.789Z</time>
      </trkpt>
      <trkpt lat="45.9991" lon="4.7065">
        <ele>197.300003052</ele>
        <time>2015-12-12T09:39:47.78Z</time>
      </trkpt>
      <trkpt lat="45.99916" lon="4.70649">
        <ele>197.600006104</ele>
        <time>2015-12-12T09:39:48.802Z</time>
      </trkpt>
      <trkpt lat="45.99922" lon="4.70648">
        <ele>197.800003052</ele>
        <time>2015-12-12T09:39:49.775Z</time>
      </trkpt>
      <trkpt lat="45.99927" lon="4.70647">
        <ele>198</ele>
        <time>2015-12-12T09:39:50.793Z</time>
      </trkpt>
      <trkpt lat="45.99933" lon="4.70645">
        <ele>198.300003052</ele>
        <time>2015-12-12T09:39:51.773Z</time>
      </trkpt>
      <trkpt lat="45.99939" lon="4.70644">
        <ele>198.199996948</ele>
        <time>2015-12-12T09:39:52.79Z</time>
      </trkpt>
      <trkpt lat="45.99945" lon="4.70643">
        <ele>198.199996948</ele>
        <time>2015-12-12T09:39:53.777Z</time>
      </trkpt>
      <trkpt lat="45.9995" lon="4.70641">
        <ele>198.399993896</ele>
        <time>2015-12-12T09:39:54.789Z</time>
      </trkpt>
      <trkpt lat="45.99956" lon="4.70639">
        <ele>198.699996948</ele>
        <time>2015-12-12T09:39:55.774Z</time>
      </trkpt>
      <trkpt lat="45.99961" lon="4.70638">
        <ele>199.100006104</ele>
        <time>2015-12-12T09:39:56.789Z</time>
      </trkpt>
      <trkpt lat="45.99967" lon="4.70636">
        <ele>199</ele>
        <time>2015-12-12T09:39:57.805Z</time>
      </trkpt>
      <trkpt lat="45.99973" lon="4.70634">
        <ele>199.899993896</ele>
        <time>2015-12-12T09:39:58.813Z</time>
      </trkpt>
      <trkpt lat="45.99979" lon="4.70632">
        <ele>199.699996948</ele>
        <time>2015-12-12T09:39:59.776Z</time>
      </trkpt>
      <trkpt lat="45.99985" lon="4.7063">
        <ele>200.100006104</ele>
        <time>2015-12-12T09:40:00.789Z</time>
      </trkpt>
      <trkpt lat="45.99991" lon="4.70628">
        <ele>200</ele>
        <time>2015-12-12T09:40:01.774Z</time>
      </trkpt>
      <trkpt lat="45.99997" lon="4.70627">
        <ele>200.300003052</ele>
        <time>2015-12-12T09:40:02.95Z</time>
      </trkpt>
      <trkpt lat="46.00003" lon="4.70625">
        <ele>200.600006104</ele>
        <time>2015-12-12T09:40:03.773Z</time>
      </trkpt>
      <trkpt lat="46.00009" lon="4.70623">
        <ele>200.699996948</ele>
        <time>2015-12-12T09:40:04.789Z</time>
      </trkpt>
      <trkpt lat="46.00015" lon="4.70622">
        <ele>201</ele>
        <time>2015-12-12T09:40:05.776Z</time>
      </trkpt>
      <trkpt lat="46.00022" lon="4.7062">
        <ele>201.199996948</ele>
        <time>2015-12-12T09:40:06.79Z</time>
      </trkpt>
      <trkpt lat="46.00028" lon="4.70619">
        <ele>201.399993896</ele>
        <time>2015-12-12T09:40:07.776Z</time>
      </trkpt>
      <trkpt lat="46.00034" lon="4.70618">
        <ele>201.800003052</ele>
        <time>2015-12-12T09:40:08.789Z</time>
      </trkpt>
      <trkpt lat="46.0004" lon="4.70616">
        <ele>201.800003052</ele>
        <time>2015-12-12T09:40:09.772Z</time>
      </trkpt>
      <trkpt lat="46.00046" lon="4.70616">
        <ele>202.199996948</ele>
        <time>2015-12-12T09:40:10.789Z</time>
      </trkpt>
      <trkpt lat="46.00052" lon="4.70614">
        <ele>202.600006104</ele>
        <time>2015-12-12T09:40:11.776Z</time>
      </trkpt>
      <trkpt lat="46.00058" lon="4.70614">
        <ele>202.800003052</ele>
        <time>2015-12-12T09:40:12.789Z</time>
      </trkpt>
      <trkpt lat="46.00063" lon="4.70611">
        <ele>203</ele>
        <time>2015-12-12T09:40:13.773Z</time>
      </trkpt>
      <trkpt lat="46.00068" lon="4.7061">
        <ele>203.300003052</ele>
        <time>2015-12-12T09:40:14.791Z</time>
      </trkpt>
      <trkpt lat="46.00073" lon="4.70609">
        <ele>203.199996948</ele>
        <time>2015-12-12T09:40:15.773Z</time>
      </trkpt>
      <trkpt lat="46.00078" lon="4.70608">
        <ele>203.300003052</ele>
        <time>2015-12-12T09:40:16.79Z</time>
      </trkpt>
      <trkpt lat="46.00084" lon="4.70607">
        <ele>203.199996948</ele>
        <time>2015-12-12T09:40:17.782Z</time>
      </trkpt>
      <trkpt lat="46.0009" lon="4.70604">
        <ele>202.5</ele>
        <time>2015-12-12T09:40:18.805Z</time>
      </trkpt>
      <trkpt lat="46.00095" lon="4.70601">
        <ele>202.199996948</ele>
        <time>2015-12-12T09:40:19.773Z</time>
      </trkpt>
      <trkpt lat="46.00101" lon="4.70597">
        <ele>201.899993896</ele>
        <time>2015-12-12T09:40:20.789Z</time>
      </trkpt>
      <trkpt lat="46.00107" lon="4.70593">
        <ele>201.600006104</ele>
        <time>2015-12-12T09:40:21.772Z</time>
      </trkpt>
      <trkpt lat="46.00113" lon="4.70588">
        <ele>201.199996948</ele>
        <time>2015-12-12T09:40:22.79Z</time>
      </trkpt>
      <trkpt lat="46.00118" lon="4.70584">
        <ele>200.699996948</ele>
        <time>2015-12-12T09:40:23.776Z</time>
      </trkpt>
      <trkpt lat="46.00123" lon="4.7058">
        <ele>200.899993896</ele>
        <time>2015-12-12T09:40:24.788Z</time>
      </trkpt>
      <trkpt lat="46.00128" lon="4.70575">
        <ele>200.800003052</ele>
        <time>2015-12-12T09:40:25.775Z</time>
      </trkpt>
      <trkpt lat="46.00133" lon="4.70571">
        <ele>200.899993896</ele>
        <time>2015-12-12T09:40:26.931Z</time>
      </trkpt>
      <trkpt lat="46.00138" lon="4.70567">
        <ele>201</ele>
        <time>2015-12-12T09:40:27.781Z</time>
      </trkpt>
      <trkpt lat="46.00144" lon="4.70565">
        <ele>200.899993896</ele>
        <time>2015-12-12T09:40:28.802Z</time>
      </trkpt>
      <trkpt lat="46.00149" lon="4.70563">
        <ele>200.600006104</ele>
        <time>2015-12-12T09:40:29.776Z</time>
      </trkpt>
      <trkpt lat="46.00154" lon="4.7056">
        <ele>200.300003052</ele>
        <time>2015-12-12T09:40:30.789Z</time>
      </trkpt>
      <trkpt lat="46.0016" lon="4.70557">
        <ele>199.899993896</ele>
        <time>2015-12-12T09:40:31.773Z</time>
      </trkpt>
      <trkpt lat="46.00164" lon="4.70553">
        <ele>199.399993896</ele>
        <time>2015-12-12T09:40:32.789Z</time>
      </trkpt>
      <trkpt lat="46.00169" lon="4.70549">
        <ele>199.100006104</ele>
        <time>2015-12-12T09:40:33.772Z</time>
      </trkpt>
      <trkpt lat="46.00174" lon="4.70546">
        <ele>198.800003052</ele>
        <time>2015-12-12T09:40:34.804Z</time>
      </trkpt>
      <trkpt lat="46.0018" lon="4.70544">
        <ele>198.5</ele>
        <time>2015-12-12T09:40:35.776Z</time>
      </trkpt>
      <trkpt lat="46.00186" lon="4.70543">
        <ele>198</ele>
        <time>2015-12-12T09:40:36.788Z</time>
      </trkpt>
      <trkpt lat="46.00191" lon="4.70542">
        <ele>197.699996948</ele>
        <time>2015-12-12T09:40:37.775Z</time>
      </trkpt>
      <trkpt lat="46.00197" lon="4.70541">
        <ele>197.300003052</ele>
        <time>2015-12-12T09:40:38.789Z</time>
      </trkpt>
      <trkpt lat="46.00203" lon="4.7054">
        <ele>197.100006104</ele>
        <time>2015-12-12T09:40:39.772Z</time>
      </trkpt>
      <trkpt lat="46.00209" lon="4.70539">
        <ele>196.600006104</ele>
        <time>2015-12-12T09:40:40.788Z</time>
      </trkpt>
      <trkpt lat="46.00215" lon="4.70537">
        <ele>196.5</ele>
        <time>2015-12-12T09:40:41.776Z</time>
      </trkpt>
      <trkpt lat="46.00221" lon="4.70536">
        <ele>196.399993896</ele>
        <time>2015-12-12T09:40:42.789Z</time>
      </trkpt>
      <trkpt lat="46.00227" lon="4.70534">
        <ele>196.199996948</ele>
        <time>2015-12-12T09:40:43.773Z</time>
      </trkpt>
      <trkpt lat="46.00233" lon="4.70532">
        <ele>195.699996948</ele>
        <time>2015-12-12T09:40:44.789Z</time>
      </trkpt>
      <trkpt lat="46.00239" lon="4.7053">
        <ele>195.199996948</ele>
        <time>2015-12-12T09:40:45.773Z</time>
      </trkpt>
      <trkpt lat="46.00245" lon="4.70529">
        <ele>195.199996948</ele>
        <time>2015-12-12T09:40:46.789Z</time>
      </trkpt>
      <trkpt lat="46.00251" lon="4.70527">
        <ele>194.899993896</ele>
        <time>2015-12-12T09:40:47.778Z</time>
      </trkpt>
      <trkpt lat="46.00256" lon="4.70525">
        <ele>195.199996948</ele>
        <time>2015-12-12T09:40:48.788Z</time>
      </trkpt>
      <trkpt lat="46.00262" lon="4.70524">
        <ele>194.899993896</ele>
        <time>2015-12-12T09:40:49.773Z</time>
      </trkpt>
      <trkpt lat="46.00268" lon="4.70522">
        <ele>194.800003052</ele>
        <time>2015-12-12T09:40:50.812Z</time>
      </trkpt>
      <trkpt lat="46.00274" lon="4.70521">
        <ele>195</ele>
        <time>2015-12-12T09:40:51.774Z</time>
      </trkpt>
      <trkpt lat="46.0028" lon="4.70519">
        <ele>194.600006104</ele>
        <time>2015-12-12T09:40:52.789Z</time>
      </trkpt>
      <trkpt lat="46.00285" lon="4.70518">
        <ele>194.800003052</ele>
        <time>2015-12-12T09:40:53.776Z</time>
      </trkpt>
      <trkpt lat="46.00291" lon="4.70517">
        <ele>194.699996948</ele>
        <time>2015-12-12T09:40:54.788Z</time>
      </trkpt>
      <trkpt lat="46.00296" lon="4.70516">
        <ele>194.5</ele>
        <time>2015-12-12T09:40:55.773Z</time>
      </trkpt>
      <trkpt lat="46.00301" lon="4.70515">
        <ele>194.399993896</ele>
        <time>2015-12-12T09:40:56.788Z</time>
      </trkpt>
      <trkpt lat="46.00306" lon="4.70514">
        <ele>194.399993896</ele>
        <time>2015-12-12T09:40:57.781Z</time>
      </trkpt>
      <trkpt lat="46.00311" lon="4.70513">
        <ele>194.399993896</ele>
        <time>2015-12-12T09:40:58.789Z</time>
      </trkpt>
      <trkpt lat="46.00316" lon="4.70512">
        <ele>194.300003052</ele>
        <time>2015-12-12T09:40:59.776Z</time>
      </trkpt>
      <trkpt lat="46.00322" lon="4.70511">
        <ele>194.399993896</ele>
        <time>2015-12-12T09:41:00.789Z</time>
      </trkpt>
      <trkpt lat="46.00327" lon="4.7051">
        <ele>194.5</ele>
        <time>2015-12-12T09:41:01.773Z</time>
      </trkpt>
      <trkpt lat="46.00333" lon="4.70509">
        <ele>194.600006104</ele>
        <time>2015-12-12T09:41:02.788Z</time>
      </trkpt>
      <trkpt lat="46.00338" lon="4.70508">
        <ele>194.5</ele>
        <time>2015-12-12T09:41:03.772Z</time>
      </trkpt>
      <trkpt lat="46.00344" lon="4.70507">
        <ele>194.5</ele>
        <time>2015-12-12T09:41:04.788Z</time>
      </trkpt>
      <trkpt lat="46.00349" lon="4.70506">
        <ele>194.5</ele>
        <time>2015-12-12T09:41:05.776Z</time>
      </trkpt>
      <trkpt lat="46.00354" lon="4.70505">
        <ele>194.699996948</ele>
        <time>2015-12-12T09:41:06.804Z</time>
      </trkpt>
      <trkpt lat="46.0036" lon="4.70503">
        <ele>194.699996948</ele>
        <time>2015-12-12T09:41:07.778Z</time>
      </trkpt>
      <trkpt lat="46.00365" lon="4.70502">
        <ele>194.899993896</ele>
        <time>2015-12-12T09:41:08.789Z</time>
      </trkpt>
      <trkpt lat="46.0037" lon="4.70501">
        <ele>194.699996948</ele>
        <time>2015-12-12T09:41:09.773Z</time>
      </trkpt>
      <trkpt lat="46.00376" lon="4.705">
        <ele>194.399993896</ele>
        <time>2015-12-12T09:41:10.79Z</time>
      </trkpt>
      <trkpt lat="46.00381" lon="4.70499">
        <ele>194.5</ele>
        <time>2015-12-12T09:41:11.776Z</time>
      </trkpt>
      <trkpt lat="46.00387" lon="4.70499">
        <ele>194.600006104</ele>
        <time>2015-12-12T09:41:12.789Z</time>
      </trkpt>
      <trkpt lat="46.00392" lon="4.70498">
        <ele>194.5</ele>
        <time>2015-12-12T09:41:13.773Z</time>
      </trkpt>
      <trkpt lat="46.00398" lon="4.70498">
        <ele>194.800003052</ele>
        <time>2015-12-12T09:41:14.928Z</time>
      </trkpt>
      <trkpt lat="46.00404" lon="4.70498">
        <ele>194.899993896</ele>
        <time>2015-12-12T09:41:15.772Z</time>
      </trkpt>
      <trkpt lat="46.00409" lon="4.70498">
        <ele>194.899993896</ele>
        <time>2015-12-12T09:41:16.788Z</time>
      </trkpt>
      <trkpt lat="46.00415" lon="4.70499">
        <ele>195.199996948</ele>
        <time>2015-12-12T09:41:17.778Z</time>
      </trkpt>
      <trkpt lat="46.00419" lon="4.70499">
        <ele>195.199996948</ele>
        <time>2015-12-12T09:41:18.798Z</time>
      </trkpt>
      <trkpt lat="46.00425" lon="4.70499">
        <ele>195.5</ele>
        <time>2015-12-12T09:41:19.773Z</time>
      </trkpt>
      <trkpt lat="46.0043" lon="4.705">
        <ele>195.300003052</ele>
        <time>2015-12-12T09:41:20.789Z</time>
      </trkpt>
      <trkpt lat="46.00435" lon="4.705">
        <ele>195.399993896</ele>
        <time>2015-12-12T09:41:21.772Z</time>
      </trkpt>
      <trkpt lat="46.0044" lon="4.70501">
        <ele>195.300003052</ele>
        <time>2015-12-12T09:41:22.788Z</time>
      </trkpt>
      <trkpt lat="46.00446" lon="4.70501">
        <ele>195.300003052</ele>
        <time>2015-12-12T09:41:23.776Z</time>
      </trkpt>
      <trkpt lat="46.00451" lon="4.70503">
        <ele>195.300003052</ele>
        <time>2015-12-12T09:41:24.788Z</time>
      </trkpt>
      <trkpt lat="46.00456" lon="4.70505">
        <ele>195.199996948</ele>
        <time>2015-12-12T09:41:25.773Z</time>
      </trkpt>
      <trkpt lat="46.0046" lon="4.70508">
        <ele>195.600006104</ele>
        <time>2015-12-12T09:41:26.789Z</time>
      </trkpt>
      <trkpt lat="46.00464" lon="4.70512">
        <ele>195.600006104</ele>
        <time>2015-12-12T09:41:27.799Z</time>
      </trkpt>
      <trkpt lat="46.00468" lon="4.70517">
        <ele>195.600006104</ele>
        <time>2015-12-12T09:41:28.809Z</time>
      </trkpt>
      <trkpt lat="46.0047" lon="4.70523">
        <ele>195.600006104</ele>
        <time>2015-12-12T09:41:29.776Z</time>
      </trkpt>
      <trkpt lat="46.00472" lon="4.70529">
        <ele>195.5</ele>
        <time>2015-12-12T09:41:30.788Z</time>
      </trkpt>
      <trkpt lat="46.00474" lon="4.70536">
        <ele>195.699996948</ele>
        <time>2015-12-12T09:41:31.774Z</time>
      </trkpt>
      <trkpt lat="46.00477" lon="4.70541">
        <ele>196</ele>
        <time>2015-12-12T09:41:32.788Z</time>
      </trkpt>
      <trkpt lat="46.00481" lon="4.70545">
        <ele>196.199996948</ele>
        <time>2015-12-12T09:41:33.772Z</time>
      </trkpt>
      <trkpt lat="46.00486" lon="4.70547">
        <ele>196.600006104</ele>
        <time>2015-12-12T09:41:34.789Z</time>
      </trkpt>
      <trkpt lat="46.00491" lon="4.70546">
        <ele>196.600006104</ele>
        <time>2015-12-12T09:41:35.776Z</time>
      </trkpt>
      <trkpt lat="46.00495" lon="4.70544">
        <ele>197</ele>
        <time>2015-12-12T09:41:36.789Z</time>
      </trkpt>
      <trkpt lat="46.00499" lon="4.7054">
        <ele>196.899993896</ele>
        <time>2015-12-12T09:41:37.774Z</time>
      </trkpt>
      <trkpt lat="46.00502" lon="4.70535">
        <ele>197.100006104</ele>
        <time>2015-12-12T09:41:38.834Z</time>
      </trkpt>
      <trkpt lat="46.00505" lon="4.70529">
        <ele>197.199996948</ele>
        <time>2015-12-12T09:41:39.772Z</time>
      </trkpt>
      <trkpt lat="46.00508" lon="4.70524">
        <ele>197.199996948</ele>
        <time>2015-12-12T09:41:40.788Z</time>
      </trkpt>
      <trkpt lat="46.00511" lon="4.70519">
        <ele>197.5</ele>
        <time>2015-12-12T09:41:41.776Z</time>
      </trkpt>
      <trkpt lat="46.00514" lon="4.70514">
        <ele>197.600006104</ele>
        <time>2015-12-12T09:41:42.788Z</time>
      </trkpt>
      <trkpt lat="46.00518" lon="4.70511">
        <ele>198.100006104</ele>
        <time>2015-12-12T09:41:43.773Z</time>
      </trkpt>
      <trkpt lat="46.00523" lon="4.70512">
        <ele>198.399993896</ele>
        <time>2015-12-12T09:41:44.788Z</time>
      </trkpt>
      <trkpt lat="46.0053" lon="4.70516">
        <ele>198.199996948</ele>
        <time>2015-12-12T09:41:45.777Z</time>
      </trkpt>
      <trkpt lat="46.00535" lon="4.70517">
        <ele>198.300003052</ele>
        <time>2015-12-12T09:41:46.789Z</time>
      </trkpt>
      <trkpt lat="46.00541" lon="4.70517">
        <ele>198.399993896</ele>
        <time>2015-12-12T09:41:47.775Z</time>
      </trkpt>
      <trkpt lat="46.00546" lon="4.70517">
        <ele>198.600006104</ele>
        <time>2015-12-12T09:41:48.789Z</time>
      </trkpt>
      <trkpt lat="46.00551" lon="4.70517">
        <ele>198.800003052</ele>
        <time>2015-12-12T09:41:49.773Z</time>
      </trkpt>
      <trkpt lat="46.00556" lon="4.70517">
        <ele>199.199996948</ele>
        <time>2015-12-12T09:41:50.791Z</time>
      </trkpt>
      <trkpt lat="46.00561" lon="4.70517">
        <ele>199.5</ele>
        <time>2015-12-12T09:41:51.771Z</time>
      </trkpt>
      <trkpt lat="46.00566" lon="4.70516">
        <ele>199.5</ele>
        <time>2015-12-12T09:41:52.789Z</time>
      </trkpt>
      <trkpt lat="46.0057" lon="4.70515">
        <ele>199.600006104</ele>
        <time>2015-12-12T09:41:53.775Z</time>
      </trkpt>
      <trkpt lat="46.00579" lon="4.70514">
        <ele>200</ele>
        <time>2015-12-12T09:41:55.789Z</time>
      </trkpt>
      <trkpt lat="46.00584" lon="4.70514">
        <ele>200.199996948</ele>
        <time>2015-12-12T09:41:56.772Z</time>
      </trkpt>
      <trkpt lat="46.00588" lon="4.70512">
        <ele>200.399993896</ele>
        <time>2015-12-12T09:41:57.798Z</time>
      </trkpt>
      <trkpt lat="46.00593" lon="4.70512">
        <ele>201</ele>
        <time>2015-12-12T09:41:58.771Z</time>
      </trkpt>
      <trkpt lat="46.00598" lon="4.7051">
        <ele>201.399993896</ele>
        <time>2015-12-12T09:41:59.792Z</time>
      </trkpt>
      <trkpt lat="46.00603" lon="4.7051">
        <ele>201.600006104</ele>
        <time>2015-12-12T09:42:00.772Z</time>
      </trkpt>
      <trkpt lat="46.00608" lon="4.70509">
        <ele>201.899993896</ele>
        <time>2015-12-12T09:42:01.79Z</time>
      </trkpt>
      <trkpt lat="46.00613" lon="4.70508">
        <ele>202</ele>
        <time>2015-12-12T09:42:02.771Z</time>
      </trkpt>
      <trkpt lat="46.00619" lon="4.70507">
        <ele>202.199996948</ele>
        <time>2015-12-12T09:42:03.787Z</time>
      </trkpt>
      <trkpt lat="46.00625" lon="4.70506">
        <ele>202.399993896</ele>
        <time>2015-12-12T09:42:04.772Z</time>
      </trkpt>
      <trkpt lat="46.0063" lon="4.70505">
        <ele>202.800003052</ele>
        <time>2015-12-12T09:42:05.791Z</time>
      </trkpt>
      <trkpt lat="46.00635" lon="4.70504">
        <ele>203.100006104</ele>
        <time>2015-12-12T09:42:06.772Z</time>
      </trkpt>
      <trkpt lat="46.00641" lon="4.70505">
        <ele>203.100006104</ele>
        <time>2015-12-12T09:42:07.798Z</time>
      </trkpt>
      <trkpt lat="46.00647" lon="4.70504">
        <ele>203.399993896</ele>
        <time>2015-12-12T09:42:08.772Z</time>
      </trkpt>
      <trkpt lat="46.00652" lon="4.70503">
        <ele>203.199996948</ele>
        <time>2015-12-12T09:42:09.789Z</time>
      </trkpt>
      <trkpt lat="46.00658" lon="4.70503">
        <ele>203.899993896</ele>
        <time>2015-12-12T09:42:10.771Z</time>
      </trkpt>
      <trkpt lat="46.00663" lon="4.70503">
        <ele>204.899993896</ele>
        <time>2015-12-12T09:42:11.791Z</time>
      </trkpt>
      <trkpt lat="46.00667" lon="4.70502">
        <ele>204.600006104</ele>
        <time>2015-12-12T09:42:12.771Z</time>
      </trkpt>
      <trkpt lat="46.00672" lon="4.70501">
        <ele>204.699996948</ele>
        <time>2015-12-12T09:42:13.79Z</time>
      </trkpt>
      <trkpt lat="46.00677" lon="4.70501">
        <ele>204.899993896</ele>
        <time>2015-12-12T09:42:14.771Z</time>
      </trkpt>
      <trkpt lat="46.00682" lon="4.70501">
        <ele>204.800003052</ele>
        <time>2015-12-12T09:42:15.802Z</time>
      </trkpt>
      <trkpt lat="46.00686" lon="4.70502">
        <ele>204.600006104</ele>
        <time>2015-12-12T09:42:16.771Z</time>
      </trkpt>
      <trkpt lat="46.00691" lon="4.70502">
        <ele>204.600006104</ele>
        <time>2015-12-12T09:42:17.818Z</time>
      </trkpt>
      <trkpt lat="46.00697" lon="4.70504">
        <ele>205.399993896</ele>
        <time>2015-12-12T09:42:18.771Z</time>
      </trkpt>
      <trkpt lat="46.00702" lon="4.70505">
        <ele>205.5</ele>
        <time>2015-12-12T09:42:19.79Z</time>
      </trkpt>
      <trkpt lat="46.00708" lon="4.70506">
        <ele>205.199996948</ele>
        <time>2015-12-12T09:42:20.772Z</time>
      </trkpt>
      <trkpt lat="46.00714" lon="4.70507">
        <ele>205.100006104</ele>
        <time>2015-12-12T09:42:21.788Z</time>
      </trkpt>
      <trkpt lat="46.0072" lon="4.70507">
        <ele>204.5</ele>
        <time>2015-12-12T09:42:22.771Z</time>
      </trkpt>
      <trkpt lat="46.00726" lon="4.70508">
        <ele>204.300003052</ele>
        <time>2015-12-12T09:42:23.791Z</time>
      </trkpt>
      <trkpt lat="46.00732" lon="4.7051">
        <ele>203.5</ele>
        <time>2015-12-12T09:42:24.771Z</time>
      </trkpt>
      <trkpt lat="46.00738" lon="4.70511">
        <ele>203.199996948</ele>
        <time>2015-12-12T09:42:25.79Z</time>
      </trkpt>
      <trkpt lat="46.00745" lon="4.70513">
        <ele>202.800003052</ele>
        <time>2015-12-12T09:42:26.771Z</time>
      </trkpt>
      <trkpt lat="46.00751" lon="4.70515">
        <ele>202.300003052</ele>
        <time>2015-12-12T09:42:27.787Z</time>
      </trkpt>
      <trkpt lat="46.00757" lon="4.70517">
        <ele>201.800003052</ele>
        <time>2015-12-12T09:42:28.771Z</time>
      </trkpt>
      <trkpt lat="46.00763" lon="4.70519">
        <ele>201.699996948</ele>
        <time>2015-12-12T09:42:29.791Z</time>
      </trkpt>
      <trkpt lat="46.0077" lon="4.70521">
        <ele>201.399993896</ele>
        <time>2015-12-12T09:42:30.774Z</time>
      </trkpt>
      <trkpt lat="46.00776" lon="4.70523">
        <ele>201.300003052</ele>
        <time>2015-12-12T09:42:31.813Z</time>
      </trkpt>
      <trkpt lat="46.00782" lon="4.70525">
        <ele>201</ele>
        <time>2015-12-12T09:42:32.771Z</time>
      </trkpt>
      <trkpt lat="46.00788" lon="4.70528">
        <ele>201.100006104</ele>
        <time>2015-12-12T09:42:33.789Z</time>
      </trkpt>
      <trkpt lat="46.00795" lon="4.7053">
        <ele>201.100006104</ele>
        <time>2015-12-12T09:42:34.771Z</time>
      </trkpt>
      <trkpt lat="46.00801" lon="4.70533">
        <ele>200.800003052</ele>
        <time>2015-12-12T09:42:35.791Z</time>
      </trkpt>
      <trkpt lat="46.00807" lon="4.70536">
        <ele>200.699996948</ele>
        <time>2015-12-12T09:42:36.771Z</time>
      </trkpt>
      <trkpt lat="46.00814" lon="4.7054">
        <ele>200.199996948</ele>
        <time>2015-12-12T09:42:37.807Z</time>
      </trkpt>
      <trkpt lat="46.0082" lon="4.70543">
        <ele>199.800003052</ele>
        <time>2015-12-12T09:42:38.771Z</time>
      </trkpt>
      <trkpt lat="46.00827" lon="4.70546">
        <ele>199.300003052</ele>
        <time>2015-12-12T09:42:39.789Z</time>
      </trkpt>
      <trkpt lat="46.00834" lon="4.7055">
        <ele>198.899993896</ele>
        <time>2015-12-12T09:42:40.771Z</time>
      </trkpt>
      <trkpt lat="46.00841" lon="4.70552">
        <ele>198.300003052</ele>
        <time>2015-12-12T09:42:41.791Z</time>
      </trkpt>
      <trkpt lat="46.00849" lon="4.70555">
        <ele>197.899993896</ele>
        <time>2015-12-12T09:42:42.771Z</time>
      </trkpt>
      <trkpt lat="46.00856" lon="4.70559">
        <ele>197.5</ele>
        <time>2015-12-12T09:42:43.789Z</time>
      </trkpt>
      <trkpt lat="46.00863" lon="4.70562">
        <ele>196.899993896</ele>
        <time>2015-12-12T09:42:44.771Z</time>
      </trkpt>
      <trkpt lat="46.00871" lon="4.70565">
        <ele>196.699996948</ele>
        <time>2015-12-12T09:42:45.789Z</time>
      </trkpt>
      <trkpt lat="46.00878" lon="4.70569">
        <ele>196.5</ele>
        <time>2015-12-12T09:42:46.771Z</time>
      </trkpt>
      <trkpt lat="46.00885" lon="4.70572">
        <ele>196.199996948</ele>
        <time>2015-12-12T09:42:47.796Z</time>
      </trkpt>
      <trkpt lat="46.00893" lon="4.70576">
        <ele>195.899993896</ele>
        <time>2015-12-12T09:42:48.772Z</time>
      </trkpt>
      <trkpt lat="46.009" lon="4.70579">
        <ele>195.5</ele>
        <time>2015-12-12T09:42:49.812Z</time>
      </trkpt>
      <trkpt lat="46.00907" lon="4.70582">
        <ele>194.899993896</ele>
        <time>2015-12-12T09:42:50.773Z</time>
      </trkpt>
      <trkpt lat="46.00914" lon="4.70585">
        <ele>194.5</ele>
        <time>2015-12-12T09:42:51.788Z</time>
      </trkpt>
      <trkpt lat="46.00921" lon="4.70588">
        <ele>194.199996948</ele>
        <time>2015-12-12T09:42:52.771Z</time>
      </trkpt>
      <trkpt lat="46.00929" lon="4.70592">
        <ele>193.899993896</ele>
        <time>2015-12-12T09:42:53.791Z</time>
      </trkpt>
      <trkpt lat="46.00936" lon="4.70595">
        <ele>193.600006104</ele>
        <time>2015-12-12T09:42:54.771Z</time>
      </trkpt>
      <trkpt lat="46.00943" lon="4.70598">
        <ele>193.300003052</ele>
        <time>2015-12-12T09:42:55.789Z</time>
      </trkpt>
      <trkpt lat="46.0095" lon="4.70602">
        <ele>193.100006104</ele>
        <time>2015-12-12T09:42:56.774Z</time>
      </trkpt>
      <trkpt lat="46.00958" lon="4.70605">
        <ele>193</ele>
        <time>2015-12-12T09:42:57.789Z</time>
      </trkpt>
      <trkpt lat="46.00965" lon="4.70608">
        <ele>192.800003052</ele>
        <time>2015-12-12T09:42:58.771Z</time>
      </trkpt>
      <trkpt lat="46.00972" lon="4.70611">
        <ele>192.600006104</ele>
        <time>2015-12-12T09:42:59.803Z</time>
      </trkpt>
      <trkpt lat="46.0098" lon="4.70615">
        <ele>192.199996948</ele>
        <time>2015-12-12T09:43:00.771Z</time>
      </trkpt>
      <trkpt lat="46.00987" lon="4.70618">
        <ele>192</ele>
        <time>2015-12-12T09:43:01.789Z</time>
      </trkpt>
      <trkpt lat="46.00995" lon="4.70622">
        <ele>192</ele>
        <time>2015-12-12T09:43:02.771Z</time>
      </trkpt>
      <trkpt lat="46.01003" lon="4.70625">
        <ele>191.800003052</ele>
        <time>2015-12-12T09:43:03.788Z</time>
      </trkpt>
      <trkpt lat="46.01011" lon="4.70628">
        <ele>191.5</ele>
        <time>2015-12-12T09:43:04.771Z</time>
      </trkpt>
      <trkpt lat="46.01019" lon="4.70632">
        <ele>191.300003052</ele>
        <time>2015-12-12T09:43:05.791Z</time>
      </trkpt>
      <trkpt lat="46.01027" lon="4.70636">
        <ele>191.199996948</ele>
        <time>2015-12-12T09:43:06.771Z</time>
      </trkpt>
      <trkpt lat="46.01035" lon="4.70639">
        <ele>191</ele>
        <time>2015-12-12T09:43:07.788Z</time>
      </trkpt>
      <trkpt lat="46.01042" lon="4.70643">
        <ele>191.100006104</ele>
        <time>2015-12-12T09:43:08.772Z</time>
      </trkpt>
      <trkpt lat="46.0105" lon="4.70646">
        <ele>191.300003052</ele>
        <time>2015-12-12T09:43:09.802Z</time>
      </trkpt>
      <trkpt lat="46.01057" lon="4.70649">
        <ele>190.800003052</ele>
        <time>2015-12-12T09:43:10.771Z</time>
      </trkpt>
      <trkpt lat="46.01064" lon="4.70652">
        <ele>191</ele>
        <time>2015-12-12T09:43:11.792Z</time>
      </trkpt>
      <trkpt lat="46.01071" lon="4.70655">
        <ele>191</ele>
        <time>2015-12-12T09:43:12.771Z</time>
      </trkpt>
      <trkpt lat="46.01077" lon="4.70658">
        <ele>190.699996948</ele>
        <time>2015-12-12T09:43:13.804Z</time>
      </trkpt>
      <trkpt lat="46.01084" lon="4.70661">
        <ele>190.699996948</ele>
        <time>2015-12-12T09:43:14.771Z</time>
      </trkpt>
      <trkpt lat="46.0109" lon="4.70664">
        <ele>190.899993896</ele>
        <time>2015-12-12T09:43:15.787Z</time>
      </trkpt>
      <trkpt lat="46.01097" lon="4.70667">
        <ele>190.600006104</ele>
        <time>2015-12-12T09:43:16.771Z</time>
      </trkpt>
      <trkpt lat="46.01104" lon="4.7067">
        <ele>190.5</ele>
        <time>2015-12-12T09:43:17.791Z</time>
      </trkpt>
      <trkpt lat="46.0111" lon="4.70672">
        <ele>190.300003052</ele>
        <time>2015-12-12T09:43:18.771Z</time>
      </trkpt>
      <trkpt lat="46.01117" lon="4.70675">
        <ele>190.399993896</ele>
        <time>2015-12-12T09:43:19.815Z</time>
      </trkpt>
      <trkpt lat="46.01124" lon="4.70678">
        <ele>190.399993896</ele>
        <time>2015-12-12T09:43:20.771Z</time>
      </trkpt>
      <trkpt lat="46.0113" lon="4.70681">
        <ele>190.600006104</ele>
        <time>2015-12-12T09:43:21.788Z</time>
      </trkpt>
      <trkpt lat="46.01137" lon="4.70684">
        <ele>190.5</ele>
        <time>2015-12-12T09:43:22.774Z</time>
      </trkpt>
      <trkpt lat="46.01144" lon="4.70688">
        <ele>190.800003052</ele>
        <time>2015-12-12T09:43:23.793Z</time>
      </trkpt>
      <trkpt lat="46.01151" lon="4.70691">
        <ele>190.800003052</ele>
        <time>2015-12-12T09:43:24.771Z</time>
      </trkpt>
      <trkpt lat="46.01158" lon="4.70694">
        <ele>190.800003052</ele>
        <time>2015-12-12T09:43:25.789Z</time>
      </trkpt>
      <trkpt lat="46.01165" lon="4.70697">
        <ele>190.899993896</ele>
        <time>2015-12-12T09:43:26.771Z</time>
      </trkpt>
      <trkpt lat="46.01172" lon="4.70701">
        <ele>191.199996948</ele>
        <time>2015-12-12T09:43:27.788Z</time>
      </trkpt>
      <trkpt lat="46.01178" lon="4.70703">
        <ele>191.399993896</ele>
        <time>2015-12-12T09:43:28.771Z</time>
      </trkpt>
      <trkpt lat="46.01185" lon="4.70706">
        <ele>191.5</ele>
        <time>2015-12-12T09:43:29.806Z</time>
      </trkpt>
      <trkpt lat="46.01191" lon="4.70709">
        <ele>191.5</ele>
        <time>2015-12-12T09:43:30.772Z</time>
      </trkpt>
      <trkpt lat="46.01197" lon="4.70712">
        <ele>191.600006104</ele>
        <time>2015-12-12T09:43:31.789Z</time>
      </trkpt>
      <trkpt lat="46.01203" lon="4.70714">
        <ele>191.699996948</ele>
        <time>2015-12-12T09:43:32.771Z</time>
      </trkpt>
      <trkpt lat="46.01209" lon="4.70717">
        <ele>191.5</ele>
        <time>2015-12-12T09:43:33.791Z</time>
      </trkpt>
      <trkpt lat="46.01215" lon="4.70719">
        <ele>191.600006104</ele>
        <time>2015-12-12T09:43:34.772Z</time>
      </trkpt>
      <trkpt lat="46.01221" lon="4.70722">
        <ele>191.699996948</ele>
        <time>2015-12-12T09:43:35.795Z</time>
      </trkpt>
      <trkpt lat="46.01227" lon="4.70724">
        <ele>192</ele>
        <time>2015-12-12T09:43:36.773Z</time>
      </trkpt>
      <trkpt lat="46.01234" lon="4.70727">
        <ele>192</ele>
        <time>2015-12-12T09:43:37.792Z</time>
      </trkpt>
      <trkpt lat="46.01241" lon="4.70729">
        <ele>191.899993896</ele>
        <time>2015-12-12T09:43:38.772Z</time>
      </trkpt>
      <trkpt lat="46.01247" lon="4.70731">
        <ele>192.100006104</ele>
        <time>2015-12-12T09:43:39.812Z</time>
      </trkpt>
      <trkpt lat="46.01254" lon="4.70733">
        <ele>192.100006104</ele>
        <time>2015-12-12T09:43:40.776Z</time>
      </trkpt>
      <trkpt lat="46.01261" lon="4.70736">
        <ele>192.199996948</ele>
        <time>2015-12-12T09:43:41.804Z</time>
      </trkpt>
      <trkpt lat="46.01268" lon="4.70738">
        <ele>192</ele>
        <time>2015-12-12T09:43:42.776Z</time>
      </trkpt>
      <trkpt lat="46.01275" lon="4.7074">
        <ele>191.899993896</ele>
        <time>2015-12-12T09:43:43.799Z</time>
      </trkpt>
      <trkpt lat="46.01282" lon="4.70742">
        <ele>191.399993896</ele>
        <time>2015-12-12T09:43:44.776Z</time>
      </trkpt>
      <trkpt lat="46.01289" lon="4.70744">
        <ele>191</ele>
        <time>2015-12-12T09:43:45.812Z</time>
      </trkpt>
      <trkpt lat="46.01296" lon="4.70745">
        <ele>190.399993896</ele>
        <time>2015-12-12T09:43:46.773Z</time>
      </trkpt>
      <trkpt lat="46.01303" lon="4.70747">
        <ele>190.100006104</ele>
        <time>2015-12-12T09:43:47.795Z</time>
      </trkpt>
      <trkpt lat="46.0131" lon="4.70748">
        <ele>190.100006104</ele>
        <time>2015-12-12T09:43:48.776Z</time>
      </trkpt>
      <trkpt lat="46.01318" lon="4.70749">
        <ele>189.800003052</ele>
        <time>2015-12-12T09:43:49.795Z</time>
      </trkpt>
      <trkpt lat="46.01326" lon="4.7075">
        <ele>189.699996948</ele>
        <time>2015-12-12T09:43:50.777Z</time>
      </trkpt>
      <trkpt lat="46.01334" lon="4.70751">
        <ele>189.199996948</ele>
        <time>2015-12-12T09:43:51.794Z</time>
      </trkpt>
      <trkpt lat="46.01341" lon="4.70751">
        <ele>189.100006104</ele>
        <time>2015-12-12T09:43:52.773Z</time>
      </trkpt>
      <trkpt lat="46.01349" lon="4.70752">
        <ele>189.100006104</ele>
        <time>2015-12-12T09:43:53.805Z</time>
      </trkpt>
      <trkpt lat="46.01357" lon="4.70752">
        <ele>189</ele>
        <time>2015-12-12T09:43:54.774Z</time>
      </trkpt>
      <trkpt lat="46.01364" lon="4.70752">
        <ele>188.5</ele>
        <time>2015-12-12T09:43:55.794Z</time>
      </trkpt>
      <trkpt lat="46.01372" lon="4.70751">
        <ele>188.699996948</ele>
        <time>2015-12-12T09:43:56.773Z</time>
      </trkpt>
      <trkpt lat="46.01379" lon="4.7075">
        <ele>188.5</ele>
        <time>2015-12-12T09:43:57.813Z</time>
      </trkpt>
      <trkpt lat="46.01386" lon="4.7075">
        <ele>188.300003052</ele>
        <time>2015-12-12T09:43:58.773Z</time>
      </trkpt>
      <trkpt lat="46.01394" lon="4.7075">
        <ele>188.399993896</ele>
        <time>2015-12-12T09:43:59.796Z</time>
      </trkpt>
      <trkpt lat="46.01401" lon="4.70749">
        <ele>188.300003052</ele>
        <time>2015-12-12T09:44:00.774Z</time>
      </trkpt>
      <trkpt lat="46.01408" lon="4.70749">
        <ele>188.199996948</ele>
        <time>2015-12-12T09:44:01.81Z</time>
      </trkpt>
      <trkpt lat="46.01416" lon="4.70748">
        <ele>188.100006104</ele>
        <time>2015-12-12T09:44:02.774Z</time>
      </trkpt>
      <trkpt lat="46.01423" lon="4.70748">
        <ele>188.100006104</ele>
        <time>2015-12-12T09:44:03.794Z</time>
      </trkpt>
      <trkpt lat="46.01431" lon="4.70747">
        <ele>188.199996948</ele>
        <time>2015-12-12T09:44:04.774Z</time>
      </trkpt>
      <trkpt lat="46.01439" lon="4.70746">
        <ele>188.199996948</ele>
        <time>2015-12-12T09:44:05.797Z</time>
      </trkpt>
      <trkpt lat="46.01447" lon="4.70745">
        <ele>188</ele>
        <time>2015-12-12T09:44:06.773Z</time>
      </trkpt>
      <trkpt lat="46.01455" lon="4.70744">
        <ele>187.800003052</ele>
        <time>2015-12-12T09:44:07.808Z</time>
      </trkpt>
      <trkpt lat="46.01462" lon="4.70743">
        <ele>187.399993896</ele>
        <time>2015-12-12T09:44:08.773Z</time>
      </trkpt>
      <trkpt lat="46.0147" lon="4.70742">
        <ele>187.100006104</ele>
        <time>2015-12-12T09:44:09.793Z</time>
      </trkpt>
      <trkpt lat="46.01478" lon="4.70741">
        <ele>187.300003052</ele>
        <time>2015-12-12T09:44:10.776Z</time>
      </trkpt>
      <trkpt lat="46.01485" lon="4.7074">
        <ele>187.199996948</ele>
        <time>2015-12-12T09:44:11.794Z</time>
      </trkpt>
      <trkpt lat="46.01492" lon="4.70739">
        <ele>187.100006104</ele>
        <time>2015-12-12T09:44:12.772Z</time>
      </trkpt>
      <trkpt lat="46.015" lon="4.70738">
        <ele>187.300003052</ele>
        <time>2015-12-12T09:44:13.797Z</time>
      </trkpt>
      <trkpt lat="46.01507" lon="4.70738">
        <ele>187.100006104</ele>
        <time>2015-12-12T09:44:14.774Z</time>
      </trkpt>
      <trkpt lat="46.01514" lon="4.70737">
        <ele>186.899993896</ele>
        <time>2015-12-12T09:44:15.793Z</time>
      </trkpt>
      <trkpt lat="46.01521" lon="4.70736">
        <ele>186.5</ele>
        <time>2015-12-12T09:44:16.772Z</time>
      </trkpt>
      <trkpt lat="46.01528" lon="4.70736">
        <ele>186.100006104</ele>
        <time>2015-12-12T09:44:17.794Z</time>
      </trkpt>
      <trkpt lat="46.01535" lon="4.70735">
        <ele>186.100006104</ele>
        <time>2015-12-12T09:44:18.772Z</time>
      </trkpt>
      <trkpt lat="46.01543" lon="4.70734">
        <ele>185.899993896</ele>
        <time>2015-12-12T09:44:19.801Z</time>
      </trkpt>
      <trkpt lat="46.0155" lon="4.70733">
        <ele>185.5</ele>
        <time>2015-12-12T09:44:20.772Z</time>
      </trkpt>
      <trkpt lat="46.01557" lon="4.70731">
        <ele>185</ele>
        <time>2015-12-12T09:44:21.791Z</time>
      </trkpt>
      <trkpt lat="46.01564" lon="4.7073">
        <ele>184.399993896</ele>
        <time>2015-12-12T09:44:22.772Z</time>
      </trkpt>
      <trkpt lat="46.01572" lon="4.7073">
        <ele>184.100006104</ele>
        <time>2015-12-12T09:44:23.796Z</time>
      </trkpt>
      <trkpt lat="46.0158" lon="4.70729">
        <ele>184.300003052</ele>
        <time>2015-12-12T09:44:24.771Z</time>
      </trkpt>
      <trkpt lat="46.01588" lon="4.70728">
        <ele>184.199996948</ele>
        <time>2015-12-12T09:44:25.79Z</time>
      </trkpt>
      <trkpt lat="46.01595" lon="4.70727">
        <ele>184.199996948</ele>
        <time>2015-12-12T09:44:26.772Z</time>
      </trkpt>
      <trkpt lat="46.01602" lon="4.70727">
        <ele>184.300003052</ele>
        <time>2015-12-12T09:44:27.805Z</time>
      </trkpt>
      <trkpt lat="46.01609" lon="4.70726">
        <ele>184.300003052</ele>
        <time>2015-12-12T09:44:28.772Z</time>
      </trkpt>
      <trkpt lat="46.01617" lon="4.70725">
        <ele>184</ele>
        <time>2015-12-12T09:44:29.811Z</time>
      </trkpt>
      <trkpt lat="46.01624" lon="4.70724">
        <ele>183.899993896</ele>
        <time>2015-12-12T09:44:30.772Z</time>
      </trkpt>
      <trkpt lat="46.01631" lon="4.70723">
        <ele>183.899993896</ele>
        <time>2015-12-12T09:44:31.79Z</time>
      </trkpt>
      <trkpt lat="46.01638" lon="4.70722">
        <ele>184</ele>
        <time>2015-12-12T09:44:32.772Z</time>
      </trkpt>
      <trkpt lat="46.01645" lon="4.70722">
        <ele>183.899993896</ele>
        <time>2015-12-12T09:44:33.792Z</time>
      </trkpt>
      <trkpt lat="46.01652" lon="4.70721">
        <ele>184</ele>
        <time>2015-12-12T09:44:34.772Z</time>
      </trkpt>
      <trkpt lat="46.01659" lon="4.7072">
        <ele>184</ele>
        <time>2015-12-12T09:44:35.797Z</time>
      </trkpt>
      <trkpt lat="46.01665" lon="4.70719">
        <ele>183.699996948</ele>
        <time>2015-12-12T09:44:36.772Z</time>
      </trkpt>
      <trkpt lat="46.01672" lon="4.70718">
        <ele>183.899993896</ele>
        <time>2015-12-12T09:44:37.831Z</time>
      </trkpt>
      <trkpt lat="46.01679" lon="4.70717">
        <ele>183.800003052</ele>
        <time>2015-12-12T09:44:38.772Z</time>
      </trkpt>
      <trkpt lat="46.01687" lon="4.70716">
        <ele>183.399993896</ele>
        <time>2015-12-12T09:44:39.804Z</time>
      </trkpt>
      <trkpt lat="46.01695" lon="4.70716">
        <ele>183.5</ele>
        <time>2015-12-12T09:44:40.775Z</time>
      </trkpt>
      <trkpt lat="46.01703" lon="4.70715">
        <ele>183</ele>
        <time>2015-12-12T09:44:41.796Z</time>
      </trkpt>
      <trkpt lat="46.0171" lon="4.70714">
        <ele>182.600006104</ele>
        <time>2015-12-12T09:44:42.772Z</time>
      </trkpt>
      <trkpt lat="46.01718" lon="4.70713">
        <ele>183.300003052</ele>
        <time>2015-12-12T09:44:43.793Z</time>
      </trkpt>
      <trkpt lat="46.01726" lon="4.70712">
        <ele>182.800003052</ele>
        <time>2015-12-12T09:44:44.771Z</time>
      </trkpt>
      <trkpt lat="46.01734" lon="4.70712">
        <ele>182.399993896</ele>
        <time>2015-12-12T09:44:45.79Z</time>
      </trkpt>
      <trkpt lat="46.01743" lon="4.70712">
        <ele>182</ele>
        <time>2015-12-12T09:44:46.771Z</time>
      </trkpt>
      <trkpt lat="46.01751" lon="4.70711">
        <ele>180.800003052</ele>
        <time>2015-12-12T09:44:47.795Z</time>
      </trkpt>
      <trkpt lat="46.0176" lon="4.7071">
        <ele>180.5</ele>
        <time>2015-12-12T09:44:48.771Z</time>
      </trkpt>
      <trkpt lat="46.01769" lon="4.70709">
        <ele>180.899993896</ele>
        <time>2015-12-12T09:44:49.801Z</time>
      </trkpt>
      <trkpt lat="46.01778" lon="4.70708">
        <ele>180.800003052</ele>
        <time>2015-12-12T09:44:50.774Z</time>
      </trkpt>
      <trkpt lat="46.01786" lon="4.70708">
        <ele>180.600006104</ele>
        <time>2015-12-12T09:44:51.8Z</time>
      </trkpt>
      <trkpt lat="46.01795" lon="4.70707">
        <ele>180.5</ele>
        <time>2015-12-12T09:44:52.771Z</time>
      </trkpt>
      <trkpt lat="46.01804" lon="4.70705">
        <ele>180.5</ele>
        <time>2015-12-12T09:44:53.795Z</time>
      </trkpt>
      <trkpt lat="46.01812" lon="4.70705">
        <ele>180.5</ele>
        <time>2015-12-12T09:44:54.772Z</time>
      </trkpt>
      <trkpt lat="46.01821" lon="4.70704">
        <ele>180.300003052</ele>
        <time>2015-12-12T09:44:55.792Z</time>
      </trkpt>
      <trkpt lat="46.01829" lon="4.70703">
        <ele>180.699996948</ele>
        <time>2015-12-12T09:44:56.772Z</time>
      </trkpt>
      <trkpt lat="46.01838" lon="4.70702">
        <ele>180.5</ele>
        <time>2015-12-12T09:44:57.79Z</time>
      </trkpt>
      <trkpt lat="46.01847" lon="4.70702">
        <ele>180.399993896</ele>
        <time>2015-12-12T09:44:58.772Z</time>
      </trkpt>
      <trkpt lat="46.01855" lon="4.70701">
        <ele>180</ele>
        <time>2015-12-12T09:44:59.954Z</time>
      </trkpt>
      <trkpt lat="46.01864" lon="4.707">
        <ele>179.399993896</ele>
        <time>2015-12-12T09:45:00.772Z</time>
      </trkpt>
      <trkpt lat="46.01864" lon="4.707">
        <ele>179.399993896</ele>
        <time>2015-12-12T09:45:00.791Z</time>
      </trkpt>
      <trkpt lat="46.01873" lon="4.707">
        <ele>179.699996948</ele>
        <time>2015-12-12T09:45:01.773Z</time>
      </trkpt>
      <trkpt lat="46.01882" lon="4.707">
        <ele>179.399993896</ele>
        <time>2015-12-12T09:45:02.791Z</time>
      </trkpt>
      <trkpt lat="46.01891" lon="4.707">
        <ele>179.199996948</ele>
        <time>2015-12-12T09:45:03.772Z</time>
      </trkpt>
      <trkpt lat="46.019" lon="4.707">
        <ele>179.300003052</ele>
        <time>2015-12-12T09:45:04.792Z</time>
      </trkpt>
      <trkpt lat="46.01908" lon="4.70701">
        <ele>179.100006104</ele>
        <time>2015-12-12T09:45:05.776Z</time>
      </trkpt>
      <trkpt lat="46.01917" lon="4.70701">
        <ele>178.699996948</ele>
        <time>2015-12-12T09:45:06.832Z</time>
      </trkpt>
      <trkpt lat="46.01925" lon="4.70702">
        <ele>178.5</ele>
        <time>2015-12-12T09:45:07.773Z</time>
      </trkpt>
      <trkpt lat="46.01933" lon="4.70704">
        <ele>178</ele>
        <time>2015-12-12T09:45:08.79Z</time>
      </trkpt>
      <trkpt lat="46.01941" lon="4.70705">
        <ele>177.800003052</ele>
        <time>2015-12-12T09:45:09.772Z</time>
      </trkpt>
      <trkpt lat="46.0195" lon="4.70707">
        <ele>177.800003052</ele>
        <time>2015-12-12T09:45:10.806Z</time>
      </trkpt>
      <trkpt lat="46.01957" lon="4.70708">
        <ele>177.899993896</ele>
        <time>2015-12-12T09:45:11.775Z</time>
      </trkpt>
      <trkpt lat="46.01965" lon="4.70709">
        <ele>178.100006104</ele>
        <time>2015-12-12T09:45:12.791Z</time>
      </trkpt>
      <trkpt lat="46.01973" lon="4.70711">
        <ele>178.100006104</ele>
        <time>2015-12-12T09:45:13.772Z</time>
      </trkpt>
      <trkpt lat="46.0198" lon="4.70712">
        <ele>178.100006104</ele>
        <time>2015-12-12T09:45:14.79Z</time>
      </trkpt>
      <trkpt lat="46.01988" lon="4.70713">
        <ele>178.199996948</ele>
        <time>2015-12-12T09:45:15.772Z</time>
      </trkpt>
      <trkpt lat="46.01996" lon="4.70714">
        <ele>177.100006104</ele>
        <time>2015-12-12T09:45:16.79Z</time>
      </trkpt>
      <trkpt lat="46.02004" lon="4.70715">
        <ele>176.699996948</ele>
        <time>2015-12-12T09:45:17.776Z</time>
      </trkpt>
      <trkpt lat="46.02012" lon="4.70717">
        <ele>176.699996948</ele>
        <time>2015-12-12T09:45:18.792Z</time>
      </trkpt>
      <trkpt lat="46.0202" lon="4.70719">
        <ele>176.399993896</ele>
        <time>2015-12-12T09:45:19.773Z</time>
      </trkpt>
      <trkpt lat="46.02028" lon="4.70721">
        <ele>176.399993896</ele>
        <time>2015-12-12T09:45:20.792Z</time>
      </trkpt>
      <trkpt lat="46.02037" lon="4.70722">
        <ele>176.199996948</ele>
        <time>2015-12-12T09:45:21.773Z</time>
      </trkpt>
      <trkpt lat="46.02045" lon="4.70724">
        <ele>176</ele>
        <time>2015-12-12T09:45:22.791Z</time>
      </trkpt>
      <trkpt lat="46.02053" lon="4.70725">
        <ele>175.800003052</ele>
        <time>2015-12-12T09:45:23.775Z</time>
      </trkpt>
      <trkpt lat="46.02061" lon="4.70726">
        <ele>175.600006104</ele>
        <time>2015-12-12T09:45:24.921Z</time>
      </trkpt>
      <trkpt lat="46.02069" lon="4.70727">
        <ele>175.300003052</ele>
        <time>2015-12-12T09:45:25.773Z</time>
      </trkpt>
      <trkpt lat="46.02077" lon="4.70728">
        <ele>175</ele>
        <time>2015-12-12T09:45:26.803Z</time>
      </trkpt>
      <trkpt lat="46.02085" lon="4.7073">
        <ele>175</ele>
        <time>2015-12-12T09:45:27.772Z</time>
      </trkpt>
      <trkpt lat="46.02092" lon="4.70731">
        <ele>174.899993896</ele>
        <time>2015-12-12T09:45:28.791Z</time>
      </trkpt>
      <trkpt lat="46.021" lon="4.70733">
        <ele>174.899993896</ele>
        <time>2015-12-12T09:45:29.775Z</time>
      </trkpt>
      <trkpt lat="46.02107" lon="4.70734">
        <ele>174.899993896</ele>
        <time>2015-12-12T09:45:30.789Z</time>
      </trkpt>
      <trkpt lat="46.02115" lon="4.70736">
        <ele>174.899993896</ele>
        <time>2015-12-12T09:45:31.773Z</time>
      </trkpt>
      <trkpt lat="46.02123" lon="4.70737">
        <ele>174.899993896</ele>
        <time>2015-12-12T09:45:32.793Z</time>
      </trkpt>
      <trkpt lat="46.0213" lon="4.70738">
        <ele>174.800003052</ele>
        <time>2015-12-12T09:45:33.772Z</time>
      </trkpt>
      <trkpt lat="46.02138" lon="4.7074">
        <ele>174.600006104</ele>
        <time>2015-12-12T09:45:34.791Z</time>
      </trkpt>
      <trkpt lat="46.02145" lon="4.70741">
        <ele>174.5</ele>
        <time>2015-12-12T09:45:35.776Z</time>
      </trkpt>
      <trkpt lat="46.02153" lon="4.70743">
        <ele>174.199996948</ele>
        <time>2015-12-12T09:45:36.792Z</time>
      </trkpt>
      <trkpt lat="46.02161" lon="4.70744">
        <ele>174.100006104</ele>
        <time>2015-12-12T09:45:37.773Z</time>
      </trkpt>
      <trkpt lat="46.02169" lon="4.70746">
        <ele>174</ele>
        <time>2015-12-12T09:45:38.796Z</time>
      </trkpt>
      <trkpt lat="46.02176" lon="4.70748">
        <ele>173.899993896</ele>
        <time>2015-12-12T09:45:39.772Z</time>
      </trkpt>
      <trkpt lat="46.02183" lon="4.70749">
        <ele>174</ele>
        <time>2015-12-12T09:45:40.792Z</time>
      </trkpt>
      <trkpt lat="46.02191" lon="4.7075">
        <ele>174</ele>
        <time>2015-12-12T09:45:41.776Z</time>
      </trkpt>
      <trkpt lat="46.02198" lon="4.70751">
        <ele>174.100006104</ele>
        <time>2015-12-12T09:45:42.792Z</time>
      </trkpt>
      <trkpt lat="46.02206" lon="4.70751">
        <ele>174.100006104</ele>
        <time>2015-12-12T09:45:43.814Z</time>
      </trkpt>
      <trkpt lat="46.02214" lon="4.70753">
        <ele>174.199996948</ele>
        <time>2015-12-12T09:45:44.79Z</time>
      </trkpt>
      <trkpt lat="46.02221" lon="4.70754">
        <ele>174</ele>
        <time>2015-12-12T09:45:45.772Z</time>
      </trkpt>
      <trkpt lat="46.02228" lon="4.70756">
        <ele>174</ele>
        <time>2015-12-12T09:45:46.789Z</time>
      </trkpt>
      <trkpt lat="46.02235" lon="4.70757">
        <ele>174.100006104</ele>
        <time>2015-12-12T09:45:47.79Z</time>
      </trkpt>
      <trkpt lat="46.02242" lon="4.70758">
        <ele>174.199996948</ele>
        <time>2015-12-12T09:45:48.789Z</time>
      </trkpt>
      <trkpt lat="46.02249" lon="4.70759">
        <ele>174</ele>
        <time>2015-12-12T09:45:49.773Z</time>
      </trkpt>
      <trkpt lat="46.02255" lon="4.7076">
        <ele>174</ele>
        <time>2015-12-12T09:45:50.792Z</time>
      </trkpt>
      <trkpt lat="46.02261" lon="4.70762">
        <ele>174.199996948</ele>
        <time>2015-12-12T09:45:51.772Z</time>
      </trkpt>
      <trkpt lat="46.02268" lon="4.70763">
        <ele>174.300003052</ele>
        <time>2015-12-12T09:45:52.791Z</time>
      </trkpt>
      <trkpt lat="46.02275" lon="4.70764">
        <ele>173.899993896</ele>
        <time>2015-12-12T09:45:53.775Z</time>
      </trkpt>
      <trkpt lat="46.02281" lon="4.70765">
        <ele>173.899993896</ele>
        <time>2015-12-12T09:45:54.789Z</time>
      </trkpt>
      <trkpt lat="46.02287" lon="4.70767">
        <ele>174</ele>
        <time>2015-12-12T09:45:55.772Z</time>
      </trkpt>
      <trkpt lat="46.02293" lon="4.70768">
        <ele>174.300003052</ele>
        <time>2015-12-12T09:45:56.79Z</time>
      </trkpt>
      <trkpt lat="46.02299" lon="4.70769">
        <ele>174.100006104</ele>
        <time>2015-12-12T09:45:57.771Z</time>
      </trkpt>
      <trkpt lat="46.02304" lon="4.70771">
        <ele>174.399993896</ele>
        <time>2015-12-12T09:45:58.81Z</time>
      </trkpt>
      <trkpt lat="46.02309" lon="4.70772">
        <ele>174.600006104</ele>
        <time>2015-12-12T09:45:59.775Z</time>
      </trkpt>
      <trkpt lat="46.02315" lon="4.70772">
        <ele>174.899993896</ele>
        <time>2015-12-12T09:46:00.789Z</time>
      </trkpt>
      <trkpt lat="46.0232" lon="4.70773">
        <ele>175.5</ele>
        <time>2015-12-12T09:46:01.772Z</time>
      </trkpt>
      <trkpt lat="46.02325" lon="4.70773">
        <ele>175.5</ele>
        <time>2015-12-12T09:46:02.79Z</time>
      </trkpt>
      <trkpt lat="46.02331" lon="4.70774">
        <ele>175.300003052</ele>
        <time>2015-12-12T09:46:03.772Z</time>
      </trkpt>
      <trkpt lat="46.02336" lon="4.70776">
        <ele>175.699996948</ele>
        <time>2015-12-12T09:46:04.789Z</time>
      </trkpt>
      <trkpt lat="46.02341" lon="4.70776">
        <ele>175.800003052</ele>
        <time>2015-12-12T09:46:05.776Z</time>
      </trkpt>
      <trkpt lat="46.02346" lon="4.70777">
        <ele>175.800003052</ele>
        <time>2015-12-12T09:46:06.791Z</time>
      </trkpt>
      <trkpt lat="46.02351" lon="4.70778">
        <ele>175.600006104</ele>
        <time>2015-12-12T09:46:07.772Z</time>
      </trkpt>
      <trkpt lat="46.02356" lon="4.70779">
        <ele>175.699996948</ele>
        <time>2015-12-12T09:46:08.862Z</time>
      </trkpt>
      <trkpt lat="46.02361" lon="4.7078">
        <ele>175.699996948</ele>
        <time>2015-12-12T09:46:09.772Z</time>
      </trkpt>
      <trkpt lat="46.02365" lon="4.70781">
        <ele>175.899993896</ele>
        <time>2015-12-12T09:46:10.789Z</time>
      </trkpt>
      <trkpt lat="46.0237" lon="4.70782">
        <ele>176.5</ele>
        <time>2015-12-12T09:46:11.775Z</time>
      </trkpt>
      <trkpt lat="46.02375" lon="4.70784">
        <ele>176.699996948</ele>
        <time>2015-12-12T09:46:12.791Z</time>
      </trkpt>
      <trkpt lat="46.02379" lon="4.70785">
        <ele>177.5</ele>
        <time>2015-12-12T09:46:13.772Z</time>
      </trkpt>
      <trkpt lat="46.02384" lon="4.70786">
        <ele>178</ele>
        <time>2015-12-12T09:46:14.789Z</time>
      </trkpt>
      <trkpt lat="46.02388" lon="4.70787">
        <ele>178.600006104</ele>
        <time>2015-12-12T09:46:15.771Z</time>
      </trkpt>
      <trkpt lat="46.02393" lon="4.70787">
        <ele>179.199996948</ele>
        <time>2015-12-12T09:46:16.79Z</time>
      </trkpt>
      <trkpt lat="46.02397" lon="4.70788">
        <ele>179.5</ele>
        <time>2015-12-12T09:46:17.775Z</time>
      </trkpt>
      <trkpt lat="46.02406" lon="4.70788">
        <ele>180.100006104</ele>
        <time>2015-12-12T09:46:19.805Z</time>
      </trkpt>
      <trkpt lat="46.0241" lon="4.70787">
        <ele>180.399993896</ele>
        <time>2015-12-12T09:46:20.772Z</time>
      </trkpt>
      <trkpt lat="46.02418" lon="4.70785">
        <ele>181.199996948</ele>
        <time>2015-12-12T09:46:22.789Z</time>
      </trkpt>
      <trkpt lat="46.02422" lon="4.70785">
        <ele>181.699996948</ele>
        <time>2015-12-12T09:46:23.775Z</time>
      </trkpt>
      <trkpt lat="46.0243" lon="4.70782">
        <ele>182</ele>
        <time>2015-12-12T09:46:25.79Z</time>
      </trkpt>
      <trkpt lat="46.02434" lon="4.70779">
        <ele>182.199996948</ele>
        <time>2015-12-12T09:46:26.771Z</time>
      </trkpt>
      <trkpt lat="46.02439" lon="4.70769">
        <ele>182.399993896</ele>
        <time>2015-12-12T09:46:28.789Z</time>
      </trkpt>
      <trkpt lat="46.02441" lon="4.70763">
        <ele>182.699996948</ele>
        <time>2015-12-12T09:46:29.775Z</time>
      </trkpt>
      <trkpt lat="46.02444" lon="4.70757">
        <ele>182.800003052</ele>
        <time>2015-12-12T09:46:30.805Z</time>
      </trkpt>
      <trkpt lat="46.02447" lon="4.70751">
        <ele>182.800003052</ele>
        <time>2015-12-12T09:46:31.772Z</time>
      </trkpt>
      <trkpt lat="46.0245" lon="4.70745">
        <ele>183</ele>
        <time>2015-12-12T09:46:32.791Z</time>
      </trkpt>
      <trkpt lat="46.02452" lon="4.70739">
        <ele>182.899993896</ele>
        <time>2015-12-12T09:46:33.771Z</time>
      </trkpt>
      <trkpt lat="46.02454" lon="4.70732">
        <ele>182.899993896</ele>
        <time>2015-12-12T09:46:34.791Z</time>
      </trkpt>
      <trkpt lat="46.02456" lon="4.70725">
        <ele>183</ele>
        <time>2015-12-12T09:46:35.775Z</time>
      </trkpt>
      <trkpt lat="46.02458" lon="4.70718">
        <ele>182.699996948</ele>
        <time>2015-12-12T09:46:36.791Z</time>
      </trkpt>
      <trkpt lat="46.0246" lon="4.70711">
        <ele>182.600006104</ele>
        <time>2015-12-12T09:46:37.773Z</time>
      </trkpt>
      <trkpt lat="46.02462" lon="4.70704">
        <ele>182.5</ele>
        <time>2015-12-12T09:46:38.788Z</time>
      </trkpt>
      <trkpt lat="46.02463" lon="4.70696">
        <ele>182.600006104</ele>
        <time>2015-12-12T09:46:39.771Z</time>
      </trkpt>
      <trkpt lat="46.02465" lon="4.70689">
        <ele>182.5</ele>
        <time>2015-12-12T09:46:40.789Z</time>
      </trkpt>
      <trkpt lat="46.02467" lon="4.70681">
        <ele>182.399993896</ele>
        <time>2015-12-12T09:46:41.775Z</time>
      </trkpt>
      <trkpt lat="46.02469" lon="4.70674">
        <ele>182.399993896</ele>
        <time>2015-12-12T09:46:42.789Z</time>
      </trkpt>
      <trkpt lat="46.02471" lon="4.70665">
        <ele>182.699996948</ele>
        <time>2015-12-12T09:46:43.772Z</time>
      </trkpt>
      <trkpt lat="46.02473" lon="4.70658">
        <ele>182.899993896</ele>
        <time>2015-12-12T09:46:44.789Z</time>
      </trkpt>
      <trkpt lat="46.02474" lon="4.7065">
        <ele>183.100006104</ele>
        <time>2015-12-12T09:46:45.785Z</time>
      </trkpt>
      <trkpt lat="46.02476" lon="4.70643">
        <ele>183.199996948</ele>
        <time>2015-12-12T09:46:46.789Z</time>
      </trkpt>
      <trkpt lat="46.02478" lon="4.70635">
        <ele>184</ele>
        <time>2015-12-12T09:46:47.775Z</time>
      </trkpt>
      <trkpt lat="46.0248" lon="4.70629">
        <ele>184.699996948</ele>
        <time>2015-12-12T09:46:48.918Z</time>
      </trkpt>
      <trkpt lat="46.02483" lon="4.70624">
        <ele>184.899993896</ele>
        <time>2015-12-12T09:46:49.773Z</time>
      </trkpt>
      <trkpt lat="46.02487" lon="4.70621">
        <ele>185.5</ele>
        <time>2015-12-12T09:46:50.794Z</time>
      </trkpt>
      <trkpt lat="46.02492" lon="4.7062">
        <ele>185.800003052</ele>
        <time>2015-12-12T09:46:51.771Z</time>
      </trkpt>
      <trkpt lat="46.025" lon="4.70623">
        <ele>186.600006104</ele>
        <time>2015-12-12T09:46:53.792Z</time>
      </trkpt>
      <trkpt lat="46.02505" lon="4.70625">
        <ele>186.899993896</ele>
        <time>2015-12-12T09:46:54.771Z</time>
      </trkpt>
      <trkpt lat="46.0251" lon="4.70626">
        <ele>187.300003052</ele>
        <time>2015-12-12T09:46:55.79Z</time>
      </trkpt>
      <trkpt lat="46.02516" lon="4.70628">
        <ele>187.100006104</ele>
        <time>2015-12-12T09:46:56.772Z</time>
      </trkpt>
      <trkpt lat="46.02521" lon="4.7063">
        <ele>187.800003052</ele>
        <time>2015-12-12T09:46:57.788Z</time>
      </trkpt>
      <trkpt lat="46.02526" lon="4.70632">
        <ele>188.199996948</ele>
        <time>2015-12-12T09:46:58.771Z</time>
      </trkpt>
      <trkpt lat="46.02531" lon="4.70634">
        <ele>188.100006104</ele>
        <time>2015-12-12T09:46:59.803Z</time>
      </trkpt>
      <trkpt lat="46.02536" lon="4.70636">
        <ele>188</ele>
        <time>2015-12-12T09:47:00.772Z</time>
      </trkpt>
      <trkpt lat="46.02541" lon="4.70638">
        <ele>187.100006104</ele>
        <time>2015-12-12T09:47:01.804Z</time>
      </trkpt>
      <trkpt lat="46.02547" lon="4.70639">
        <ele>186.5</ele>
        <time>2015-12-12T09:47:02.772Z</time>
      </trkpt>
      <trkpt lat="46.02552" lon="4.7064">
        <ele>186.100006104</ele>
        <time>2015-12-12T09:47:03.789Z</time>
      </trkpt>
      <trkpt lat="46.02557" lon="4.70642">
        <ele>185.5</ele>
        <time>2015-12-12T09:47:04.771Z</time>
      </trkpt>
      <trkpt lat="46.02562" lon="4.70643">
        <ele>185.300003052</ele>
        <time>2015-12-12T09:47:05.794Z</time>
      </trkpt>
      <trkpt lat="46.02568" lon="4.70645">
        <ele>185</ele>
        <time>2015-12-12T09:47:06.771Z</time>
      </trkpt>
      <trkpt lat="46.02573" lon="4.70646">
        <ele>185.399993896</ele>
        <time>2015-12-12T09:47:07.791Z</time>
      </trkpt>
      <trkpt lat="46.02578" lon="4.70647">
        <ele>184.699996948</ele>
        <time>2015-12-12T09:47:08.771Z</time>
      </trkpt>
      <trkpt lat="46.02583" lon="4.70649">
        <ele>184.899993896</ele>
        <time>2015-12-12T09:47:09.804Z</time>
      </trkpt>
      <trkpt lat="46.02588" lon="4.7065">
        <ele>185.199996948</ele>
        <time>2015-12-12T09:47:10.771Z</time>
      </trkpt>
      <trkpt lat="46.02593" lon="4.70651">
        <ele>185.300003052</ele>
        <time>2015-12-12T09:47:11.793Z</time>
      </trkpt>
      <trkpt lat="46.02599" lon="4.70652">
        <ele>184.899993896</ele>
        <time>2015-12-12T09:47:12.771Z</time>
      </trkpt>
      <trkpt lat="46.02604" lon="4.70653">
        <ele>185</ele>
        <time>2015-12-12T09:47:13.79Z</time>
      </trkpt>
      <trkpt lat="46.0261" lon="4.70654">
        <ele>184.800003052</ele>
        <time>2015-12-12T09:47:14.771Z</time>
      </trkpt>
      <trkpt lat="46.02615" lon="4.70656">
        <ele>184.699996948</ele>
        <time>2015-12-12T09:47:15.788Z</time>
      </trkpt>
      <trkpt lat="46.02621" lon="4.70656">
        <ele>184.600006104</ele>
        <time>2015-12-12T09:47:16.773Z</time>
      </trkpt>
      <trkpt lat="46.02626" lon="4.70657">
        <ele>184.399993896</ele>
        <time>2015-12-12T09:47:17.811Z</time>
      </trkpt>
      <trkpt lat="46.02632" lon="4.70657">
        <ele>183.899993896</ele>
        <time>2015-12-12T09:47:18.772Z</time>
      </trkpt>
      <trkpt lat="46.02637" lon="4.70658">
        <ele>183.800003052</ele>
        <time>2015-12-12T09:47:19.808Z</time>
      </trkpt>
      <trkpt lat="46.02642" lon="4.70658">
        <ele>183.899993896</ele>
        <time>2015-12-12T09:47:20.772Z</time>
      </trkpt>
      <trkpt lat="46.02647" lon="4.70659">
        <ele>184.100006104</ele>
        <time>2015-12-12T09:47:21.79Z</time>
      </trkpt>
      <trkpt lat="46.02653" lon="4.70658">
        <ele>184.100006104</ele>
        <time>2015-12-12T09:47:22.771Z</time>
      </trkpt>
      <trkpt lat="46.02658" lon="4.70658">
        <ele>184</ele>
        <time>2015-12-12T09:47:23.793Z</time>
      </trkpt>
      <trkpt lat="46.02664" lon="4.70659">
        <ele>184</ele>
        <time>2015-12-12T09:47:24.771Z</time>
      </trkpt>
      <trkpt lat="46.02669" lon="4.70659">
        <ele>183.800003052</ele>
        <time>2015-12-12T09:47:25.789Z</time>
      </trkpt>
      <trkpt lat="46.02675" lon="4.7066">
        <ele>183.5</ele>
        <time>2015-12-12T09:47:26.771Z</time>
      </trkpt>
      <trkpt lat="46.0268" lon="4.7066">
        <ele>183.300003052</ele>
        <time>2015-12-12T09:47:27.79Z</time>
      </trkpt>
      <trkpt lat="46.02685" lon="4.7066">
        <ele>183.300003052</ele>
        <time>2015-12-12T09:47:28.772Z</time>
      </trkpt>
      <trkpt lat="46.02691" lon="4.70661">
        <ele>183.300003052</ele>
        <time>2015-12-12T09:47:29.805Z</time>
      </trkpt>
      <trkpt lat="46.02696" lon="4.70662">
        <ele>183.399993896</ele>
        <time>2015-12-12T09:47:30.771Z</time>
      </trkpt>
      <trkpt lat="46.027" lon="4.70662">
        <ele>183.300003052</ele>
        <time>2015-12-12T09:47:31.79Z</time>
      </trkpt>
      <trkpt lat="46.02705" lon="4.70662">
        <ele>183</ele>
        <time>2015-12-12T09:47:32.771Z</time>
      </trkpt>
      <trkpt lat="46.02709" lon="4.70662">
        <ele>182.199996948</ele>
        <time>2015-12-12T09:47:33.789Z</time>
      </trkpt>
      <trkpt lat="46.02714" lon="4.70662">
        <ele>182.199996948</ele>
        <time>2015-12-12T09:47:34.771Z</time>
      </trkpt>
      <trkpt lat="46.02718" lon="4.70663">
        <ele>182.600006104</ele>
        <time>2015-12-12T09:47:35.793Z</time>
      </trkpt>
      <trkpt lat="46.02723" lon="4.70664">
        <ele>182.800003052</ele>
        <time>2015-12-12T09:47:36.771Z</time>
      </trkpt>
      <trkpt lat="46.02728" lon="4.70665">
        <ele>182.899993896</ele>
        <time>2015-12-12T09:47:37.79Z</time>
      </trkpt>
      <trkpt lat="46.02733" lon="4.70666">
        <ele>182.899993896</ele>
        <time>2015-12-12T09:47:38.785Z</time>
      </trkpt>
      <trkpt lat="46.02739" lon="4.70668">
        <ele>182.899993896</ele>
        <time>2015-12-12T09:47:39.806Z</time>
      </trkpt>
      <trkpt lat="46.02744" lon="4.70668">
        <ele>182.899993896</ele>
        <time>2015-12-12T09:47:40.771Z</time>
      </trkpt>
      <trkpt lat="46.0275" lon="4.70669">
        <ele>183</ele>
        <time>2015-12-12T09:47:41.792Z</time>
      </trkpt>
      <trkpt lat="46.02755" lon="4.7067">
        <ele>182.899993896</ele>
        <time>2015-12-12T09:47:42.771Z</time>
      </trkpt>
      <trkpt lat="46.0276" lon="4.70671">
        <ele>183.100006104</ele>
        <time>2015-12-12T09:47:43.79Z</time>
      </trkpt>
      <trkpt lat="46.02765" lon="4.70672">
        <ele>183.199996948</ele>
        <time>2015-12-12T09:47:44.771Z</time>
      </trkpt>
      <trkpt lat="46.0277" lon="4.70673">
        <ele>183.300003052</ele>
        <time>2015-12-12T09:47:45.788Z</time>
      </trkpt>
      <trkpt lat="46.02775" lon="4.70673">
        <ele>183.300003052</ele>
        <time>2015-12-12T09:47:46.771Z</time>
      </trkpt>
      <trkpt lat="46.0278" lon="4.70674">
        <ele>183.199996948</ele>
        <time>2015-12-12T09:47:47.792Z</time>
      </trkpt>
      <trkpt lat="46.02784" lon="4.70674">
        <ele>183.100006104</ele>
        <time>2015-12-12T09:47:48.771Z</time>
      </trkpt>
      <trkpt lat="46.0279" lon="4.70675">
        <ele>183.100006104</ele>
        <time>2015-12-12T09:47:50Z</time>
      </trkpt>
      <trkpt lat="46.02795" lon="4.70674">
        <ele>183</ele>
        <time>2015-12-12T09:47:50.773Z</time>
      </trkpt>
      <trkpt lat="46.028" lon="4.70674">
        <ele>182.800003052</ele>
        <time>2015-12-12T09:47:51.838Z</time>
      </trkpt>
      <trkpt lat="46.02805" lon="4.70674">
        <ele>182.899993896</ele>
        <time>2015-12-12T09:47:52.771Z</time>
      </trkpt>
      <trkpt lat="46.02811" lon="4.70674">
        <ele>182.699996948</ele>
        <time>2015-12-12T09:47:53.796Z</time>
      </trkpt>
      <trkpt lat="46.02816" lon="4.70674">
        <ele>182.800003052</ele>
        <time>2015-12-12T09:47:54.771Z</time>
      </trkpt>
      <trkpt lat="46.02821" lon="4.70673">
        <ele>182.5</ele>
        <time>2015-12-12T09:47:55.792Z</time>
      </trkpt>
      <trkpt lat="46.02827" lon="4.70672">
        <ele>182.399993896</ele>
        <time>2015-12-12T09:47:56.771Z</time>
      </trkpt>
      <trkpt lat="46.02833" lon="4.7067">
        <ele>182.199996948</ele>
        <time>2015-12-12T09:47:57.789Z</time>
      </trkpt>
      <trkpt lat="46.02838" lon="4.70669">
        <ele>182</ele>
        <time>2015-12-12T09:47:58.771Z</time>
      </trkpt>
      <trkpt lat="46.02844" lon="4.70667">
        <ele>181.899993896</ele>
        <time>2015-12-12T09:47:59.803Z</time>
      </trkpt>
      <trkpt lat="46.0285" lon="4.70666">
        <ele>181.899993896</ele>
        <time>2015-12-12T09:48:00.771Z</time>
      </trkpt>
      <trkpt lat="46.02856" lon="4.70665">
        <ele>181.600006104</ele>
        <time>2015-12-12T09:48:01.792Z</time>
      </trkpt>
      <trkpt lat="46.02862" lon="4.70664">
        <ele>181.699996948</ele>
        <time>2015-12-12T09:48:02.771Z</time>
      </trkpt>
      <trkpt lat="46.02868" lon="4.70664">
        <ele>181.899993896</ele>
        <time>2015-12-12T09:48:03.791Z</time>
      </trkpt>
      <trkpt lat="46.02874" lon="4.70664">
        <ele>181.800003052</ele>
        <time>2015-12-12T09:48:04.771Z</time>
      </trkpt>
      <trkpt lat="46.0288" lon="4.70664">
        <ele>181.800003052</ele>
        <time>2015-12-12T09:48:05.794Z</time>
      </trkpt>
      <trkpt lat="46.02886" lon="4.70664">
        <ele>182</ele>
        <time>2015-12-12T09:48:06.771Z</time>
      </trkpt>
      <trkpt lat="46.02892" lon="4.70664">
        <ele>181.899993896</ele>
        <time>2015-12-12T09:48:07.789Z</time>
      </trkpt>
      <trkpt lat="46.02899" lon="4.70664">
        <ele>182</ele>
        <time>2015-12-12T09:48:08.771Z</time>
      </trkpt>
      <trkpt lat="46.02905" lon="4.70664">
        <ele>181.899993896</ele>
        <time>2015-12-12T09:48:09.803Z</time>
      </trkpt>
      <trkpt lat="46.0291" lon="4.70663">
        <ele>182.100006104</ele>
        <time>2015-12-12T09:48:10.771Z</time>
      </trkpt>
      <trkpt lat="46.02916" lon="4.70661">
        <ele>182</ele>
        <time>2015-12-12T09:48:11.794Z</time>
      </trkpt>
      <trkpt lat="46.02922" lon="4.70657">
        <ele>181.899993896</ele>
        <time>2015-12-12T09:48:12.771Z</time>
      </trkpt>
      <trkpt lat="46.02927" lon="4.70652">
        <ele>181.800003052</ele>
        <time>2015-12-12T09:48:13.789Z</time>
      </trkpt>
      <trkpt lat="46.0293" lon="4.70646">
        <ele>182</ele>
        <time>2015-12-12T09:48:14.771Z</time>
      </trkpt>
      <trkpt lat="46.02933" lon="4.70638">
        <ele>181.899993896</ele>
        <time>2015-12-12T09:48:15.788Z</time>
      </trkpt>
      <trkpt lat="46.02935" lon="4.70629">
        <ele>181.5</ele>
        <time>2015-12-12T09:48:16.771Z</time>
      </trkpt>
      <trkpt lat="46.02936" lon="4.7062">
        <ele>181.399993896</ele>
        <time>2015-12-12T09:48:17.792Z</time>
      </trkpt>
      <trkpt lat="46.02938" lon="4.70612">
        <ele>181.199996948</ele>
        <time>2015-12-12T09:48:18.771Z</time>
      </trkpt>
      <trkpt lat="46.0294" lon="4.70604">
        <ele>181.300003052</ele>
        <time>2015-12-12T09:48:19.809Z</time>
      </trkpt>
      <trkpt lat="46.02942" lon="4.70596">
        <ele>181.5</ele>
        <time>2015-12-12T09:48:20.771Z</time>
      </trkpt>
      <trkpt lat="46.02945" lon="4.70589">
        <ele>181.5</ele>
        <time>2015-12-12T09:48:21.788Z</time>
      </trkpt>
      <trkpt lat="46.02947" lon="4.70581">
        <ele>181.899993896</ele>
        <time>2015-12-12T09:48:22.77Z</time>
      </trkpt>
      <trkpt lat="46.0295" lon="4.70574">
        <ele>181.800003052</ele>
        <time>2015-12-12T09:48:23.798Z</time>
      </trkpt>
      <trkpt lat="46.02953" lon="4.70568">
        <ele>181.800003052</ele>
        <time>2015-12-12T09:48:24.784Z</time>
      </trkpt>
      <trkpt lat="46.02957" lon="4.70561">
        <ele>182</ele>
        <time>2015-12-12T09:48:25.808Z</time>
      </trkpt>
      <trkpt lat="46.02962" lon="4.70555">
        <ele>182.300003052</ele>
        <time>2015-12-12T09:48:26.771Z</time>
      </trkpt>
      <trkpt lat="46.02967" lon="4.7055">
        <ele>182.600006104</ele>
        <time>2015-12-12T09:48:27.79Z</time>
      </trkpt>
      <trkpt lat="46.02971" lon="4.70545">
        <ele>183.100006104</ele>
        <time>2015-12-12T09:48:28.771Z</time>
      </trkpt>
      <trkpt lat="46.02976" lon="4.70541">
        <ele>183.300003052</ele>
        <time>2015-12-12T09:48:29.817Z</time>
      </trkpt>
      <trkpt lat="46.02981" lon="4.70536">
        <ele>183.300003052</ele>
        <time>2015-12-12T09:48:30.771Z</time>
      </trkpt>
      <trkpt lat="46.02987" lon="4.70531">
        <ele>183.199996948</ele>
        <time>2015-12-12T09:48:31.789Z</time>
      </trkpt>
      <trkpt lat="46.02992" lon="4.70526">
        <ele>183.199996948</ele>
        <time>2015-12-12T09:48:32.771Z</time>
      </trkpt>
      <trkpt lat="46.02997" lon="4.70521">
        <ele>183.199996948</ele>
        <time>2015-12-12T09:48:33.789Z</time>
      </trkpt>
      <trkpt lat="46.03002" lon="4.70516">
        <ele>183.300003052</ele>
        <time>2015-12-12T09:48:34.771Z</time>
      </trkpt>
      <trkpt lat="46.03007" lon="4.70511">
        <ele>183.5</ele>
        <time>2015-12-12T09:48:35.792Z</time>
      </trkpt>
      <trkpt lat="46.03011" lon="4.70506">
        <ele>183.800003052</ele>
        <time>2015-12-12T09:48:36.771Z</time>
      </trkpt>
      <trkpt lat="46.03016" lon="4.70502">
        <ele>183.699996948</ele>
        <time>2015-12-12T09:48:37.944Z</time>
      </trkpt>
      <trkpt lat="46.03021" lon="4.70497">
        <ele>183.899993896</ele>
        <time>2015-12-12T09:48:38.771Z</time>
      </trkpt>
      <trkpt lat="46.03026" lon="4.70493">
        <ele>184.100006104</ele>
        <time>2015-12-12T09:48:39.809Z</time>
      </trkpt>
      <trkpt lat="46.03031" lon="4.70488">
        <ele>184.199996948</ele>
        <time>2015-12-12T09:48:40.771Z</time>
      </trkpt>
      <trkpt lat="46.03036" lon="4.70483">
        <ele>184.5</ele>
        <time>2015-12-12T09:48:41.808Z</time>
      </trkpt>
      <trkpt lat="46.03041" lon="4.70479">
        <ele>184.800003052</ele>
        <time>2015-12-12T09:48:42.771Z</time>
      </trkpt>
      <trkpt lat="46.03045" lon="4.70475">
        <ele>184.699996948</ele>
        <time>2015-12-12T09:48:43.789Z</time>
      </trkpt>
      <trkpt lat="46.03049" lon="4.70471">
        <ele>184.699996948</ele>
        <time>2015-12-12T09:48:44.771Z</time>
      </trkpt>
      <trkpt lat="46.03053" lon="4.70467">
        <ele>184.600006104</ele>
        <time>2015-12-12T09:48:45.793Z</time>
      </trkpt>
      <trkpt lat="46.03058" lon="4.70463">
        <ele>184.5</ele>
        <time>2015-12-12T09:48:46.773Z</time>
      </trkpt>
      <trkpt lat="46.03063" lon="4.70458">
        <ele>184.5</ele>
        <time>2015-12-12T09:48:47.794Z</time>
      </trkpt>
      <trkpt lat="46.03067" lon="4.70455">
        <ele>185</ele>
        <time>2015-12-12T09:48:48.772Z</time>
      </trkpt>
      <trkpt lat="46.03072" lon="4.70451">
        <ele>185.300003052</ele>
        <time>2015-12-12T09:48:49.804Z</time>
      </trkpt>
      <trkpt lat="46.03077" lon="4.70449">
        <ele>185.699996948</ele>
        <time>2015-12-12T09:48:50.775Z</time>
      </trkpt>
      <trkpt lat="46.03082" lon="4.70446">
        <ele>185.800003052</ele>
        <time>2015-12-12T09:48:51.788Z</time>
      </trkpt>
      <trkpt lat="46.03087" lon="4.70444">
        <ele>186.199996948</ele>
        <time>2015-12-12T09:48:52.771Z</time>
      </trkpt>
      <trkpt lat="46.03092" lon="4.70442">
        <ele>186.199996948</ele>
        <time>2015-12-12T09:48:53.792Z</time>
      </trkpt>
      <trkpt lat="46.03098" lon="4.70439">
        <ele>185.899993896</ele>
        <time>2015-12-12T09:48:54.771Z</time>
      </trkpt>
      <trkpt lat="46.03103" lon="4.70437">
        <ele>185.800003052</ele>
        <time>2015-12-12T09:48:55.79Z</time>
      </trkpt>
      <trkpt lat="46.03108" lon="4.70434">
        <ele>185.600006104</ele>
        <time>2015-12-12T09:48:56.771Z</time>
      </trkpt>
      <trkpt lat="46.03113" lon="4.70432">
        <ele>185.300003052</ele>
        <time>2015-12-12T09:48:57.803Z</time>
      </trkpt>
      <trkpt lat="46.03118" lon="4.70429">
        <ele>185.300003052</ele>
        <time>2015-12-12T09:48:58.771Z</time>
      </trkpt>
      <trkpt lat="46.03124" lon="4.70427">
        <ele>185.5</ele>
        <time>2015-12-12T09:48:59.792Z</time>
      </trkpt>
      <trkpt lat="46.03129" lon="4.70424">
        <ele>185.600006104</ele>
        <time>2015-12-12T09:49:00.771Z</time>
      </trkpt>
      <trkpt lat="46.03135" lon="4.70422">
        <ele>185.5</ele>
        <time>2015-12-12T09:49:01.789Z</time>
      </trkpt>
      <trkpt lat="46.03141" lon="4.70419">
        <ele>185.600006104</ele>
        <time>2015-12-12T09:49:02.771Z</time>
      </trkpt>
      <trkpt lat="46.03147" lon="4.70416">
        <ele>186.100006104</ele>
        <time>2015-12-12T09:49:03.788Z</time>
      </trkpt>
      <trkpt lat="46.03152" lon="4.70413">
        <ele>186.5</ele>
        <time>2015-12-12T09:49:04.771Z</time>
      </trkpt>
      <trkpt lat="46.03158" lon="4.70411">
        <ele>186.800003052</ele>
        <time>2015-12-12T09:49:05.792Z</time>
      </trkpt>
      <trkpt lat="46.03163" lon="4.70408">
        <ele>186.899993896</ele>
        <time>2015-12-12T09:49:06.771Z</time>
      </trkpt>
      <trkpt lat="46.03169" lon="4.70406">
        <ele>187.199996948</ele>
        <time>2015-12-12T09:49:07.79Z</time>
      </trkpt>
      <trkpt lat="46.03174" lon="4.70404">
        <ele>187.399993896</ele>
        <time>2015-12-12T09:49:08.771Z</time>
      </trkpt>
      <trkpt lat="46.03179" lon="4.70402">
        <ele>187.600006104</ele>
        <time>2015-12-12T09:49:09.789Z</time>
      </trkpt>
      <trkpt lat="46.03184" lon="4.70399">
        <ele>187.899993896</ele>
        <time>2015-12-12T09:49:10.771Z</time>
      </trkpt>
      <trkpt lat="46.03189" lon="4.70397">
        <ele>188.199996948</ele>
        <time>2015-12-12T09:49:11.8Z</time>
      </trkpt>
      <trkpt lat="46.03194" lon="4.70394">
        <ele>188.5</ele>
        <time>2015-12-12T09:49:12.77Z</time>
      </trkpt>
      <trkpt lat="46.03199" lon="4.70391">
        <ele>188.100006104</ele>
        <time>2015-12-12T09:49:13.94Z</time>
      </trkpt>
      <trkpt lat="46.03205" lon="4.70388">
        <ele>187.699996948</ele>
        <time>2015-12-12T09:49:14.771Z</time>
      </trkpt>
      <trkpt lat="46.0321" lon="4.70385">
        <ele>187.800003052</ele>
        <time>2015-12-12T09:49:15.788Z</time>
      </trkpt>
      <trkpt lat="46.03216" lon="4.70383">
        <ele>187.5</ele>
        <time>2015-12-12T09:49:16.771Z</time>
      </trkpt>
      <trkpt lat="46.03221" lon="4.7038">
        <ele>187.5</ele>
        <time>2015-12-12T09:49:17.792Z</time>
      </trkpt>
      <trkpt lat="46.03227" lon="4.70377">
        <ele>187.399993896</ele>
        <time>2015-12-12T09:49:18.771Z</time>
      </trkpt>
      <trkpt lat="46.03233" lon="4.70375">
        <ele>187.800003052</ele>
        <time>2015-12-12T09:49:19.79Z</time>
      </trkpt>
      <trkpt lat="46.03239" lon="4.70373">
        <ele>188</ele>
        <time>2015-12-12T09:49:20.771Z</time>
      </trkpt>
      <trkpt lat="46.03244" lon="4.70369">
        <ele>187.899993896</ele>
        <time>2015-12-12T09:49:21.789Z</time>
      </trkpt>
      <trkpt lat="46.0325" lon="4.70367">
        <ele>187.5</ele>
        <time>2015-12-12T09:49:22.771Z</time>
      </trkpt>
      <trkpt lat="46.03256" lon="4.70364">
        <ele>187.5</ele>
        <time>2015-12-12T09:49:23.792Z</time>
      </trkpt>
      <trkpt lat="46.03261" lon="4.70362">
        <ele>187.399993896</ele>
        <time>2015-12-12T09:49:24.771Z</time>
      </trkpt>
      <trkpt lat="46.03266" lon="4.7036">
        <ele>187.5</ele>
        <time>2015-12-12T09:49:25.789Z</time>
      </trkpt>
      <trkpt lat="46.03272" lon="4.70358">
        <ele>187.5</ele>
        <time>2015-12-12T09:49:26.771Z</time>
      </trkpt>
      <trkpt lat="46.03277" lon="4.70356">
        <ele>187.699996948</ele>
        <time>2015-12-12T09:49:27.809Z</time>
      </trkpt>
      <trkpt lat="46.03283" lon="4.70354">
        <ele>187.699996948</ele>
        <time>2015-12-12T09:49:28.771Z</time>
      </trkpt>
      <trkpt lat="46.03288" lon="4.70352">
        <ele>187.699996948</ele>
        <time>2015-12-12T09:49:29.806Z</time>
      </trkpt>
      <trkpt lat="46.03295" lon="4.7035">
        <ele>187.199996948</ele>
        <time>2015-12-12T09:49:30.771Z</time>
      </trkpt>
      <trkpt lat="46.03301" lon="4.70347">
        <ele>187.199996948</ele>
        <time>2015-12-12T09:49:31.789Z</time>
      </trkpt>
      <trkpt lat="46.03307" lon="4.70345">
        <ele>187.399993896</ele>
        <time>2015-12-12T09:49:32.771Z</time>
      </trkpt>
      <trkpt lat="46.03313" lon="4.70343">
        <ele>187.399993896</ele>
        <time>2015-12-12T09:49:33.806Z</time>
      </trkpt>
      <trkpt lat="46.0332" lon="4.7034">
        <ele>187.100006104</ele>
        <time>2015-12-12T09:49:34.771Z</time>
      </trkpt>
      <trkpt lat="46.03326" lon="4.70338">
        <ele>186.899993896</ele>
        <time>2015-12-12T09:49:35.794Z</time>
      </trkpt>
      <trkpt lat="46.03333" lon="4.70336">
        <ele>187.300003052</ele>
        <time>2015-12-12T09:49:36.771Z</time>
      </trkpt>
      <trkpt lat="46.03339" lon="4.70333">
        <ele>187.199996948</ele>
        <time>2015-12-12T09:49:37.789Z</time>
      </trkpt>
      <trkpt lat="46.03346" lon="4.70331">
        <ele>186.899993896</ele>
        <time>2015-12-12T09:49:38.771Z</time>
      </trkpt>
      <trkpt lat="46.03352" lon="4.70328">
        <ele>186.699996948</ele>
        <time>2015-12-12T09:49:39.788Z</time>
      </trkpt>
      <trkpt lat="46.03358" lon="4.70326">
        <ele>186.699996948</ele>
        <time>2015-12-12T09:49:40.771Z</time>
      </trkpt>
      <trkpt lat="46.03365" lon="4.70324">
        <ele>186.5</ele>
        <time>2015-12-12T09:49:41.792Z</time>
      </trkpt>
      <trkpt lat="46.03372" lon="4.70322">
        <ele>186.300003052</ele>
        <time>2015-12-12T09:49:42.771Z</time>
      </trkpt>
      <trkpt lat="46.03379" lon="4.7032">
        <ele>186.399993896</ele>
        <time>2015-12-12T09:49:43.789Z</time>
      </trkpt>
      <trkpt lat="46.03386" lon="4.70317">
        <ele>186.5</ele>
        <time>2015-12-12T09:49:44.771Z</time>
      </trkpt>
      <trkpt lat="46.03393" lon="4.70314">
        <ele>185.899993896</ele>
        <time>2015-12-12T09:49:45.804Z</time>
      </trkpt>
      <trkpt lat="46.034" lon="4.70311">
        <ele>185.5</ele>
        <time>2015-12-12T09:49:46.77Z</time>
      </trkpt>
      <trkpt lat="46.03407" lon="4.70308">
        <ele>185.5</ele>
        <time>2015-12-12T09:49:47.793Z</time>
      </trkpt>
      <trkpt lat="46.03414" lon="4.70305">
        <ele>185.300003052</ele>
        <time>2015-12-12T09:49:48.771Z</time>
      </trkpt>
      <trkpt lat="46.03421" lon="4.70303">
        <ele>185.399993896</ele>
        <time>2015-12-12T09:49:49.942Z</time>
      </trkpt>
      <trkpt lat="46.03428" lon="4.70301">
        <ele>185.199996948</ele>
        <time>2015-12-12T09:49:50.772Z</time>
      </trkpt>
      <trkpt lat="46.03436" lon="4.70299">
        <ele>185</ele>
        <time>2015-12-12T09:49:51.787Z</time>
      </trkpt>
      <trkpt lat="46.03443" lon="4.70296">
        <ele>185.100006104</ele>
        <time>2015-12-12T09:49:52.77Z</time>
      </trkpt>
      <trkpt lat="46.03451" lon="4.70294">
        <ele>185.199996948</ele>
        <time>2015-12-12T09:49:53.792Z</time>
      </trkpt>
      <trkpt lat="46.03458" lon="4.70292">
        <ele>185.300003052</ele>
        <time>2015-12-12T09:49:54.771Z</time>
      </trkpt>
      <trkpt lat="46.03465" lon="4.70289">
        <ele>185.5</ele>
        <time>2015-12-12T09:49:55.789Z</time>
      </trkpt>
      <trkpt lat="46.03472" lon="4.70287">
        <ele>186.100006104</ele>
        <time>2015-12-12T09:49:56.771Z</time>
      </trkpt>
      <trkpt lat="46.03479" lon="4.70285">
        <ele>186.600006104</ele>
        <time>2015-12-12T09:49:57.787Z</time>
      </trkpt>
      <trkpt lat="46.03486" lon="4.70283">
        <ele>186.800003052</ele>
        <time>2015-12-12T09:49:58.77Z</time>
      </trkpt>
      <trkpt lat="46.03492" lon="4.70281">
        <ele>187.600006104</ele>
        <time>2015-12-12T09:49:59.806Z</time>
      </trkpt>
      <trkpt lat="46.03499" lon="4.7028">
        <ele>188</ele>
        <time>2015-12-12T09:50:00.771Z</time>
      </trkpt>
      <trkpt lat="46.03504" lon="4.70279">
        <ele>188.399993896</ele>
        <time>2015-12-12T09:50:01.831Z</time>
      </trkpt>
      <trkpt lat="46.0351" lon="4.70277">
        <ele>189</ele>
        <time>2015-12-12T09:50:02.77Z</time>
      </trkpt>
      <trkpt lat="46.03515" lon="4.70275">
        <ele>189.199996948</ele>
        <time>2015-12-12T09:50:03.787Z</time>
      </trkpt>
      <trkpt lat="46.03521" lon="4.70272">
        <ele>189.300003052</ele>
        <time>2015-12-12T09:50:04.77Z</time>
      </trkpt>
      <trkpt lat="46.03527" lon="4.7027">
        <ele>189.5</ele>
        <time>2015-12-12T09:50:05.79Z</time>
      </trkpt>
      <trkpt lat="46.03532" lon="4.70268">
        <ele>190.100006104</ele>
        <time>2015-12-12T09:50:06.77Z</time>
      </trkpt>
      <trkpt lat="46.03538" lon="4.70266">
        <ele>190.300003052</ele>
        <time>2015-12-12T09:50:07.789Z</time>
      </trkpt>
      <trkpt lat="46.03544" lon="4.70264">
        <ele>190.5</ele>
        <time>2015-12-12T09:50:08.771Z</time>
      </trkpt>
      <trkpt lat="46.03549" lon="4.70262">
        <ele>190.699996948</ele>
        <time>2015-12-12T09:50:09.806Z</time>
      </trkpt>
      <trkpt lat="46.03555" lon="4.7026">
        <ele>191.399993896</ele>
        <time>2015-12-12T09:50:10.771Z</time>
      </trkpt>
      <trkpt lat="46.03561" lon="4.70258">
        <ele>191.699996948</ele>
        <time>2015-12-12T09:50:11.791Z</time>
      </trkpt>
      <trkpt lat="46.03567" lon="4.70255">
        <ele>191.600006104</ele>
        <time>2015-12-12T09:50:12.77Z</time>
      </trkpt>
      <trkpt lat="46.03572" lon="4.70253">
        <ele>191.699996948</ele>
        <time>2015-12-12T09:50:13.922Z</time>
      </trkpt>
      <trkpt lat="46.03578" lon="4.7025">
        <ele>191.800003052</ele>
        <time>2015-12-12T09:50:14.77Z</time>
      </trkpt>
      <trkpt lat="46.03584" lon="4.70248">
        <ele>192.100006104</ele>
        <time>2015-12-12T09:50:15.786Z</time>
      </trkpt>
      <trkpt lat="46.03589" lon="4.70246">
        <ele>192.300003052</ele>
        <time>2015-12-12T09:50:16.77Z</time>
      </trkpt>
      <trkpt lat="46.03594" lon="4.70245">
        <ele>192.800003052</ele>
        <time>2015-12-12T09:50:17.805Z</time>
      </trkpt>
      <trkpt lat="46.036" lon="4.70243">
        <ele>193.399993896</ele>
        <time>2015-12-12T09:50:18.77Z</time>
      </trkpt>
      <trkpt lat="46.03605" lon="4.70242">
        <ele>193.800003052</ele>
        <time>2015-12-12T09:50:19.812Z</time>
      </trkpt>
      <trkpt lat="46.03611" lon="4.7024">
        <ele>194.199996948</ele>
        <time>2015-12-12T09:50:20.77Z</time>
      </trkpt>
      <trkpt lat="46.03617" lon="4.70237">
        <ele>194.399993896</ele>
        <time>2015-12-12T09:50:21.788Z</time>
      </trkpt>
      <trkpt lat="46.03623" lon="4.70236">
        <ele>194.600006104</ele>
        <time>2015-12-12T09:50:22.77Z</time>
      </trkpt>
      <trkpt lat="46.03629" lon="4.70235">
        <ele>195.100006104</ele>
        <time>2015-12-12T09:50:23.79Z</time>
      </trkpt>
      <trkpt lat="46.03635" lon="4.70233">
        <ele>195.399993896</ele>
        <time>2015-12-12T09:50:24.77Z</time>
      </trkpt>
      <trkpt lat="46.0364" lon="4.70232">
        <ele>195.600006104</ele>
        <time>2015-12-12T09:50:25.831Z</time>
      </trkpt>
      <trkpt lat="46.03646" lon="4.70231">
        <ele>195.899993896</ele>
        <time>2015-12-12T09:50:26.77Z</time>
      </trkpt>
      <trkpt lat="46.03652" lon="4.7023">
        <ele>195.800003052</ele>
        <time>2015-12-12T09:50:27.787Z</time>
      </trkpt>
      <trkpt lat="46.03658" lon="4.70228">
        <ele>195.600006104</ele>
        <time>2015-12-12T09:50:28.77Z</time>
      </trkpt>
      <trkpt lat="46.03664" lon="4.70226">
        <ele>195.800003052</ele>
        <time>2015-12-12T09:50:29.792Z</time>
      </trkpt>
      <trkpt lat="46.0367" lon="4.70224">
        <ele>195.899993896</ele>
        <time>2015-12-12T09:50:30.77Z</time>
      </trkpt>
      <trkpt lat="46.03675" lon="4.70222">
        <ele>196.100006104</ele>
        <time>2015-12-12T09:50:31.789Z</time>
      </trkpt>
      <trkpt lat="46.03682" lon="4.70219">
        <ele>195.699996948</ele>
        <time>2015-12-12T09:50:32.77Z</time>
      </trkpt>
      <trkpt lat="46.03688" lon="4.70215">
        <ele>194</ele>
        <time>2015-12-12T09:50:33.801Z</time>
      </trkpt>
      <trkpt lat="46.03694" lon="4.70212">
        <ele>193.399993896</ele>
        <time>2015-12-12T09:50:34.77Z</time>
      </trkpt>
      <trkpt lat="46.037" lon="4.7021">
        <ele>192.899993896</ele>
        <time>2015-12-12T09:50:35.793Z</time>
      </trkpt>
      <trkpt lat="46.03706" lon="4.70207">
        <ele>192.800003052</ele>
        <time>2015-12-12T09:50:36.77Z</time>
      </trkpt>
      <trkpt lat="46.03711" lon="4.70205">
        <ele>192.5</ele>
        <time>2015-12-12T09:50:37.788Z</time>
      </trkpt>
      <trkpt lat="46.03716" lon="4.70203">
        <ele>192.300003052</ele>
        <time>2015-12-12T09:50:38.77Z</time>
      </trkpt>
      <trkpt lat="46.03725" lon="4.70199">
        <ele>192</ele>
        <time>2015-12-12T09:50:40.787Z</time>
      </trkpt>
      <trkpt lat="46.03728" lon="4.70198">
        <ele>191.800003052</ele>
        <time>2015-12-12T09:50:41.774Z</time>
      </trkpt>
      <trkpt lat="46.03734" lon="4.7019">
        <ele>187.800003052</ele>
        <time>2015-12-12T09:50:46.787Z</time>
      </trkpt>
      <trkpt lat="46.03734" lon="4.70189">
        <ele>187.199996948</ele>
        <time>2015-12-12T09:50:47.774Z</time>
      </trkpt>
      <trkpt lat="46.03734" lon="4.70189">
        <ele>187.199996948</ele>
        <time>2015-12-12T09:50:50.791Z</time>
      </trkpt>
      <trkpt lat="46.03735" lon="4.70188">
        <ele>187</ele>
        <time>2015-12-12T09:50:51.77Z</time>
      </trkpt>
      <trkpt lat="46.03737" lon="4.70188">
        <ele>187</ele>
        <time>2015-12-12T09:52:40.786Z</time>
      </trkpt>
      <trkpt lat="46.03739" lon="4.70181">
        <ele>186.699996948</ele>
        <time>2015-12-12T09:52:41.773Z</time>
      </trkpt>
      <trkpt lat="46.03745" lon="4.70177">
        <ele>186.800003052</ele>
        <time>2015-12-12T09:52:44.786Z</time>
      </trkpt>
      <trkpt lat="46.03749" lon="4.70176">
        <ele>186.699996948</ele>
        <time>2015-12-12T09:52:45.769Z</time>
      </trkpt>
      <trkpt lat="46.03756" lon="4.70175">
        <ele>186.699996948</ele>
        <time>2015-12-12T09:52:47.802Z</time>
      </trkpt>
      <trkpt lat="46.0376" lon="4.70174">
        <ele>186.699996948</ele>
        <time>2015-12-12T09:52:48.769Z</time>
      </trkpt>
      <trkpt lat="46.03769" lon="4.70171">
        <ele>186.800003052</ele>
        <time>2015-12-12T09:52:50.793Z</time>
      </trkpt>
      <trkpt lat="46.03774" lon="4.7017">
        <ele>187</ele>
        <time>2015-12-12T09:52:51.769Z</time>
      </trkpt>
      <trkpt lat="46.03779" lon="4.70169">
        <ele>187</ele>
        <time>2015-12-12T09:52:52.786Z</time>
      </trkpt>
      <trkpt lat="46.03784" lon="4.70168">
        <ele>187</ele>
        <time>2015-12-12T09:52:53.773Z</time>
      </trkpt>
      <trkpt lat="46.03789" lon="4.70166">
        <ele>187.300003052</ele>
        <time>2015-12-12T09:52:54.797Z</time>
      </trkpt>
      <trkpt lat="46.03794" lon="4.70165">
        <ele>187.5</ele>
        <time>2015-12-12T09:52:55.801Z</time>
      </trkpt>
      <trkpt lat="46.03799" lon="4.70163">
        <ele>187.600006104</ele>
        <time>2015-12-12T09:52:56.8Z</time>
      </trkpt>
      <trkpt lat="46.03805" lon="4.70161">
        <ele>187.699996948</ele>
        <time>2015-12-12T09:52:57.77Z</time>
      </trkpt>
      <trkpt lat="46.03811" lon="4.70159">
        <ele>188.100006104</ele>
        <time>2015-12-12T09:52:58.786Z</time>
      </trkpt>
      <trkpt lat="46.03817" lon="4.70157">
        <ele>188.399993896</ele>
        <time>2015-12-12T09:52:59.773Z</time>
      </trkpt>
      <trkpt lat="46.03822" lon="4.70155">
        <ele>188.800003052</ele>
        <time>2015-12-12T09:53:00.786Z</time>
      </trkpt>
      <trkpt lat="46.03828" lon="4.70153">
        <ele>189.699996948</ele>
        <time>2015-12-12T09:53:01.771Z</time>
      </trkpt>
      <trkpt lat="46.03834" lon="4.70151">
        <ele>190</ele>
        <time>2015-12-12T09:53:02.786Z</time>
      </trkpt>
      <trkpt lat="46.03839" lon="4.70149">
        <ele>190.699996948</ele>
        <time>2015-12-12T09:53:03.769Z</time>
      </trkpt>
      <trkpt lat="46.03844" lon="4.70147">
        <ele>191.199996948</ele>
        <time>2015-12-12T09:53:04.785Z</time>
      </trkpt>
      <trkpt lat="46.03849" lon="4.70144">
        <ele>191.5</ele>
        <time>2015-12-12T09:53:05.773Z</time>
      </trkpt>
      <trkpt lat="46.03854" lon="4.70143">
        <ele>191.899993896</ele>
        <time>2015-12-12T09:53:06.786Z</time>
      </trkpt>
      <trkpt lat="46.03858" lon="4.7014">
        <ele>191.600006104</ele>
        <time>2015-12-12T09:53:07.77Z</time>
      </trkpt>
      <trkpt lat="46.03863" lon="4.70139">
        <ele>191.5</ele>
        <time>2015-12-12T09:53:08.787Z</time>
      </trkpt>
      <trkpt lat="46.03868" lon="4.70137">
        <ele>191.699996948</ele>
        <time>2015-12-12T09:53:09.77Z</time>
      </trkpt>
      <trkpt lat="46.03873" lon="4.70135">
        <ele>192.199996948</ele>
        <time>2015-12-12T09:53:10.787Z</time>
      </trkpt>
      <trkpt lat="46.03878" lon="4.70133">
        <ele>192.5</ele>
        <time>2015-12-12T09:53:11.773Z</time>
      </trkpt>
      <trkpt lat="46.03884" lon="4.70131">
        <ele>193.399993896</ele>
        <time>2015-12-12T09:53:12.786Z</time>
      </trkpt>
      <trkpt lat="46.0389" lon="4.70129">
        <ele>193.800003052</ele>
        <time>2015-12-12T09:53:13.77Z</time>
      </trkpt>
      <trkpt lat="46.03896" lon="4.70128">
        <ele>194.300003052</ele>
        <time>2015-12-12T09:53:14.786Z</time>
      </trkpt>
      <trkpt lat="46.03904" lon="4.70126">
        <ele>194.899993896</ele>
        <time>2015-12-12T09:53:15.772Z</time>
      </trkpt>
      <trkpt lat="46.03912" lon="4.70126">
        <ele>195.5</ele>
        <time>2015-12-12T09:53:16.798Z</time>
      </trkpt>
      <trkpt lat="46.03918" lon="4.70126">
        <ele>195.699996948</ele>
        <time>2015-12-12T09:53:17.787Z</time>
      </trkpt>
      <trkpt lat="46.03924" lon="4.70126">
        <ele>196.300003052</ele>
        <time>2015-12-12T09:53:18.786Z</time>
      </trkpt>
      <trkpt lat="46.03929" lon="4.70126">
        <ele>197</ele>
        <time>2015-12-12T09:53:19.77Z</time>
      </trkpt>
      <trkpt lat="46.03933" lon="4.70124">
        <ele>197.399993896</ele>
        <time>2015-12-12T09:53:20.786Z</time>
      </trkpt>
      <trkpt lat="46.03938" lon="4.70124">
        <ele>197.800003052</ele>
        <time>2015-12-12T09:53:21.769Z</time>
      </trkpt>
      <trkpt lat="46.03943" lon="4.70123">
        <ele>198.100006104</ele>
        <time>2015-12-12T09:53:22.786Z</time>
      </trkpt>
      <trkpt lat="46.03948" lon="4.70122">
        <ele>198.600006104</ele>
        <time>2015-12-12T09:53:23.773Z</time>
      </trkpt>
      <trkpt lat="46.03953" lon="4.70121">
        <ele>199.5</ele>
        <time>2015-12-12T09:53:24.786Z</time>
      </trkpt>
      <trkpt lat="46.03957" lon="4.7012">
        <ele>199.800003052</ele>
        <time>2015-12-12T09:53:25.77Z</time>
      </trkpt>
      <trkpt lat="46.03966" lon="4.70119">
        <ele>201.5</ele>
        <time>2015-12-12T09:53:27.934Z</time>
      </trkpt>
      <trkpt lat="46.03971" lon="4.70118">
        <ele>201.800003052</ele>
        <time>2015-12-12T09:53:28.769Z</time>
      </trkpt>
      <trkpt lat="46.03975" lon="4.70117">
        <ele>202.300003052</ele>
        <time>2015-12-12T09:53:29.789Z</time>
      </trkpt>
      <trkpt lat="46.0398" lon="4.70116">
        <ele>202.100006104</ele>
        <time>2015-12-12T09:53:30.769Z</time>
      </trkpt>
      <trkpt lat="46.03984" lon="4.70115">
        <ele>202.100006104</ele>
        <time>2015-12-12T09:53:31.786Z</time>
      </trkpt>
      <trkpt lat="46.03989" lon="4.70113">
        <ele>201.800003052</ele>
        <time>2015-12-12T09:53:32.769Z</time>
      </trkpt>
      <trkpt lat="46.03994" lon="4.70111">
        <ele>202.100006104</ele>
        <time>2015-12-12T09:53:33.786Z</time>
      </trkpt>
      <trkpt lat="46.03999" lon="4.7011">
        <ele>202.300003052</ele>
        <time>2015-12-12T09:53:34.769Z</time>
      </trkpt>
      <trkpt lat="46.04004" lon="4.70109">
        <ele>202</ele>
        <time>2015-12-12T09:53:35.79Z</time>
      </trkpt>
      <trkpt lat="46.04008" lon="4.70109">
        <ele>201.699996948</ele>
        <time>2015-12-12T09:53:36.769Z</time>
      </trkpt>
      <trkpt lat="46.04013" lon="4.70108">
        <ele>201.399993896</ele>
        <time>2015-12-12T09:53:37.787Z</time>
      </trkpt>
      <trkpt lat="46.04017" lon="4.70108">
        <ele>201.600006104</ele>
        <time>2015-12-12T09:53:38.783Z</time>
      </trkpt>
      <trkpt lat="46.04022" lon="4.70108">
        <ele>201.899993896</ele>
        <time>2015-12-12T09:53:39.796Z</time>
      </trkpt>
      <trkpt lat="46.04027" lon="4.70108">
        <ele>202.5</ele>
        <time>2015-12-12T09:53:40.769Z</time>
      </trkpt>
      <trkpt lat="46.04033" lon="4.70108">
        <ele>202.600006104</ele>
        <time>2015-12-12T09:53:41.789Z</time>
      </trkpt>
      <trkpt lat="46.04038" lon="4.70108">
        <ele>201.399993896</ele>
        <time>2015-12-12T09:53:42.769Z</time>
      </trkpt>
      <trkpt lat="46.04044" lon="4.70108">
        <ele>201.600006104</ele>
        <time>2015-12-12T09:53:43.786Z</time>
      </trkpt>
      <trkpt lat="46.04049" lon="4.70108">
        <ele>201.5</ele>
        <time>2015-12-12T09:53:44.769Z</time>
      </trkpt>
      <trkpt lat="46.04054" lon="4.70108">
        <ele>200.199996948</ele>
        <time>2015-12-12T09:53:45.786Z</time>
      </trkpt>
      <trkpt lat="46.04064" lon="4.70108">
        <ele>199.699996948</ele>
        <time>2015-12-12T09:53:46.769Z</time>
      </trkpt>
      <trkpt lat="46.04072" lon="4.70105">
        <ele>199.5</ele>
        <time>2015-12-12T09:53:47.789Z</time>
      </trkpt>
      <trkpt lat="46.04078" lon="4.70103">
        <ele>199.699996948</ele>
        <time>2015-12-12T09:53:48.769Z</time>
      </trkpt>
      <trkpt lat="46.04085" lon="4.70101">
        <ele>200</ele>
        <time>2015-12-12T09:53:49.803Z</time>
      </trkpt>
      <trkpt lat="46.0409" lon="4.70098">
        <ele>200.100006104</ele>
        <time>2015-12-12T09:53:50.772Z</time>
      </trkpt>
      <trkpt lat="46.04096" lon="4.70095">
        <ele>200.300003052</ele>
        <time>2015-12-12T09:53:51.788Z</time>
      </trkpt>
      <trkpt lat="46.04101" lon="4.7009">
        <ele>199.800003052</ele>
        <time>2015-12-12T09:53:52.771Z</time>
      </trkpt>
      <trkpt lat="46.04106" lon="4.70087">
        <ele>199.5</ele>
        <time>2015-12-12T09:53:53.79Z</time>
      </trkpt>
      <trkpt lat="46.04112" lon="4.70083">
        <ele>199.800003052</ele>
        <time>2015-12-12T09:53:54.771Z</time>
      </trkpt>
      <trkpt lat="46.04117" lon="4.7008">
        <ele>199.600006104</ele>
        <time>2015-12-12T09:53:55.796Z</time>
      </trkpt>
      <trkpt lat="46.04122" lon="4.70077">
        <ele>199.699996948</ele>
        <time>2015-12-12T09:53:56.769Z</time>
      </trkpt>
      <trkpt lat="46.04127" lon="4.70074">
        <ele>200</ele>
        <time>2015-12-12T09:53:57.785Z</time>
      </trkpt>
      <trkpt lat="46.04132" lon="4.70071">
        <ele>199.899993896</ele>
        <time>2015-12-12T09:53:58.769Z</time>
      </trkpt>
      <trkpt lat="46.04136" lon="4.70068">
        <ele>200</ele>
        <time>2015-12-12T09:53:59.804Z</time>
      </trkpt>
      <trkpt lat="46.04142" lon="4.70065">
        <ele>200.300003052</ele>
        <time>2015-12-12T09:54:00.769Z</time>
      </trkpt>
      <trkpt lat="46.04147" lon="4.70062">
        <ele>200.800003052</ele>
        <time>2015-12-12T09:54:01.786Z</time>
      </trkpt>
      <trkpt lat="46.04152" lon="4.70059">
        <ele>201.5</ele>
        <time>2015-12-12T09:54:02.769Z</time>
      </trkpt>
      <trkpt lat="46.04157" lon="4.70056">
        <ele>202</ele>
        <time>2015-12-12T09:54:03.786Z</time>
      </trkpt>
      <trkpt lat="46.04163" lon="4.70053">
        <ele>202.100006104</ele>
        <time>2015-12-12T09:54:04.769Z</time>
      </trkpt>
      <trkpt lat="46.04168" lon="4.7005">
        <ele>201.300003052</ele>
        <time>2015-12-12T09:54:05.79Z</time>
      </trkpt>
      <trkpt lat="46.04172" lon="4.70048">
        <ele>201</ele>
        <time>2015-12-12T09:54:06.769Z</time>
      </trkpt>
      <trkpt lat="46.04178" lon="4.70044">
        <ele>200.5</ele>
        <time>2015-12-12T09:54:07.787Z</time>
      </trkpt>
      <trkpt lat="46.04184" lon="4.70039">
        <ele>200.100006104</ele>
        <time>2015-12-12T09:54:08.769Z</time>
      </trkpt>
      <trkpt lat="46.04189" lon="4.70035">
        <ele>199.600006104</ele>
        <time>2015-12-12T09:54:09.786Z</time>
      </trkpt>
      <trkpt lat="46.04194" lon="4.70032">
        <ele>200.199996948</ele>
        <time>2015-12-12T09:54:10.769Z</time>
      </trkpt>
      <trkpt lat="46.04199" lon="4.70027">
        <ele>199.699996948</ele>
        <time>2015-12-12T09:54:11.789Z</time>
      </trkpt>
      <trkpt lat="46.04203" lon="4.70022">
        <ele>199.600006104</ele>
        <time>2015-12-12T09:54:12.769Z</time>
      </trkpt>
      <trkpt lat="46.04208" lon="4.70017">
        <ele>199.600006104</ele>
        <time>2015-12-12T09:54:13.787Z</time>
      </trkpt>
      <trkpt lat="46.04212" lon="4.70013">
        <ele>199.699996948</ele>
        <time>2015-12-12T09:54:14.769Z</time>
      </trkpt>
      <trkpt lat="46.04216" lon="4.70009">
        <ele>199.100006104</ele>
        <time>2015-12-12T09:54:15.801Z</time>
      </trkpt>
      <trkpt lat="46.0422" lon="4.70005">
        <ele>198.399993896</ele>
        <time>2015-12-12T09:54:16.769Z</time>
      </trkpt>
      <trkpt lat="46.04227" lon="4.7">
        <ele>198.100006104</ele>
        <time>2015-12-12T09:54:17.789Z</time>
      </trkpt>
      <trkpt lat="46.04235" lon="4.69992">
        <ele>197.5</ele>
        <time>2015-12-12T09:54:18.77Z</time>
      </trkpt>
      <trkpt lat="46.04241" lon="4.69985">
        <ele>196.699996948</ele>
        <time>2015-12-12T09:54:19.786Z</time>
      </trkpt>
      <trkpt lat="46.04246" lon="4.69978">
        <ele>196</ele>
        <time>2015-12-12T09:54:20.769Z</time>
      </trkpt>
      <trkpt lat="46.04252" lon="4.69972">
        <ele>195.199996948</ele>
        <time>2015-12-12T09:54:21.786Z</time>
      </trkpt>
      <trkpt lat="46.04256" lon="4.69967">
        <ele>194.300003052</ele>
        <time>2015-12-12T09:54:22.769Z</time>
      </trkpt>
      <trkpt lat="46.04261" lon="4.69961">
        <ele>193.399993896</ele>
        <time>2015-12-12T09:54:23.789Z</time>
      </trkpt>
      <trkpt lat="46.04265" lon="4.69956">
        <ele>192.800003052</ele>
        <time>2015-12-12T09:54:24.769Z</time>
      </trkpt>
      <trkpt lat="46.0427" lon="4.69951">
        <ele>192.399993896</ele>
        <time>2015-12-12T09:54:25.786Z</time>
      </trkpt>
      <trkpt lat="46.04274" lon="4.69946">
        <ele>191.699996948</ele>
        <time>2015-12-12T09:54:26.899Z</time>
      </trkpt>
      <trkpt lat="46.04278" lon="4.69942">
        <ele>191.199996948</ele>
        <time>2015-12-12T09:54:27.797Z</time>
      </trkpt>
      <trkpt lat="46.04281" lon="4.69937">
        <ele>190.899993896</ele>
        <time>2015-12-12T09:54:28.803Z</time>
      </trkpt>
      <trkpt lat="46.04285" lon="4.69933">
        <ele>190.5</ele>
        <time>2015-12-12T09:54:29.821Z</time>
      </trkpt>
      <trkpt lat="46.04289" lon="4.69928">
        <ele>190.100006104</ele>
        <time>2015-12-12T09:54:30.77Z</time>
      </trkpt>
      <trkpt lat="46.04292" lon="4.69924">
        <ele>189.600006104</ele>
        <time>2015-12-12T09:54:31.791Z</time>
      </trkpt>
      <trkpt lat="46.04296" lon="4.6992">
        <ele>189.399993896</ele>
        <time>2015-12-12T09:54:32.774Z</time>
      </trkpt>
      <trkpt lat="46.043" lon="4.69915">
        <ele>189.100006104</ele>
        <time>2015-12-12T09:54:33.793Z</time>
      </trkpt>
      <trkpt lat="46.04304" lon="4.69911">
        <ele>188.699996948</ele>
        <time>2015-12-12T09:54:34.769Z</time>
      </trkpt>
      <trkpt lat="46.04307" lon="4.69906">
        <ele>188.5</ele>
        <time>2015-12-12T09:54:35.791Z</time>
      </trkpt>
      <trkpt lat="46.04311" lon="4.69901">
        <ele>188.199996948</ele>
        <time>2015-12-12T09:54:36.769Z</time>
      </trkpt>
      <trkpt lat="46.04314" lon="4.69894">
        <ele>187.600006104</ele>
        <time>2015-12-12T09:54:37.801Z</time>
      </trkpt>
      <trkpt lat="46.04317" lon="4.69889">
        <ele>187.399993896</ele>
        <time>2015-12-12T09:54:38.769Z</time>
      </trkpt>
      <trkpt lat="46.04321" lon="4.69883">
        <ele>187.300003052</ele>
        <time>2015-12-12T09:54:39.785Z</time>
      </trkpt>
      <trkpt lat="46.04324" lon="4.69877">
        <ele>187.100006104</ele>
        <time>2015-12-12T09:54:40.769Z</time>
      </trkpt>
      <trkpt lat="46.04327" lon="4.69871">
        <ele>187</ele>
        <time>2015-12-12T09:54:41.79Z</time>
      </trkpt>
      <trkpt lat="46.0433" lon="4.69866">
        <ele>186.899993896</ele>
        <time>2015-12-12T09:54:42.769Z</time>
      </trkpt>
      <trkpt lat="46.04333" lon="4.6986">
        <ele>186.699996948</ele>
        <time>2015-12-12T09:54:43.792Z</time>
      </trkpt>
      <trkpt lat="46.04337" lon="4.69855">
        <ele>186.800003052</ele>
        <time>2015-12-12T09:54:44.77Z</time>
      </trkpt>
      <trkpt lat="46.04341" lon="4.69851">
        <ele>187.300003052</ele>
        <time>2015-12-12T09:54:45.786Z</time>
      </trkpt>
      <trkpt lat="46.04345" lon="4.69847">
        <ele>187.399993896</ele>
        <time>2015-12-12T09:54:46.774Z</time>
      </trkpt>
      <trkpt lat="46.0435" lon="4.69844">
        <ele>187.800003052</ele>
        <time>2015-12-12T09:54:47.789Z</time>
      </trkpt>
      <trkpt lat="46.04354" lon="4.69841">
        <ele>188.199996948</ele>
        <time>2015-12-12T09:54:48.769Z</time>
      </trkpt>
      <trkpt lat="46.04359" lon="4.69838">
        <ele>188.800003052</ele>
        <time>2015-12-12T09:54:49.786Z</time>
      </trkpt>
      <trkpt lat="46.04363" lon="4.69836">
        <ele>188.899993896</ele>
        <time>2015-12-12T09:54:50.774Z</time>
      </trkpt>
      <trkpt lat="46.04368" lon="4.69834">
        <ele>189.100006104</ele>
        <time>2015-12-12T09:54:51.786Z</time>
      </trkpt>
      <trkpt lat="46.04372" lon="4.69831">
        <ele>189.5</ele>
        <time>2015-12-12T09:54:52.769Z</time>
      </trkpt>
      <trkpt lat="46.04377" lon="4.69828">
        <ele>189.300003052</ele>
        <time>2015-12-12T09:54:53.79Z</time>
      </trkpt>
      <trkpt lat="46.04381" lon="4.69826">
        <ele>189.399993896</ele>
        <time>2015-12-12T09:54:54.769Z</time>
      </trkpt>
      <trkpt lat="46.04386" lon="4.69823">
        <ele>189.300003052</ele>
        <time>2015-12-12T09:54:55.787Z</time>
      </trkpt>
      <trkpt lat="46.0439" lon="4.69821">
        <ele>189.300003052</ele>
        <time>2015-12-12T09:54:56.769Z</time>
      </trkpt>
      <trkpt lat="46.04395" lon="4.6982">
        <ele>189.5</ele>
        <time>2015-12-12T09:54:57.786Z</time>
      </trkpt>
      <trkpt lat="46.044" lon="4.69818">
        <ele>189.699996948</ele>
        <time>2015-12-12T09:54:58.769Z</time>
      </trkpt>
      <trkpt lat="46.04405" lon="4.69817">
        <ele>189.600006104</ele>
        <time>2015-12-12T09:54:59.791Z</time>
      </trkpt>
      <trkpt lat="46.04409" lon="4.69816">
        <ele>189.899993896</ele>
        <time>2015-12-12T09:55:00.769Z</time>
      </trkpt>
      <trkpt lat="46.04414" lon="4.69814">
        <ele>190.100006104</ele>
        <time>2015-12-12T09:55:01.786Z</time>
      </trkpt>
      <trkpt lat="46.04419" lon="4.69813">
        <ele>190.399993896</ele>
        <time>2015-12-12T09:55:02.769Z</time>
      </trkpt>
      <trkpt lat="46.04423" lon="4.69812">
        <ele>190.800003052</ele>
        <time>2015-12-12T09:55:03.8Z</time>
      </trkpt>
      <trkpt lat="46.04427" lon="4.6981">
        <ele>190.800003052</ele>
        <time>2015-12-12T09:55:04.769Z</time>
      </trkpt>
      <trkpt lat="46.04432" lon="4.69809">
        <ele>190.800003052</ele>
        <time>2015-12-12T09:55:05.789Z</time>
      </trkpt>
      <trkpt lat="46.04436" lon="4.69807">
        <ele>190.899993896</ele>
        <time>2015-12-12T09:55:06.769Z</time>
      </trkpt>
      <trkpt lat="46.04441" lon="4.69806">
        <ele>191</ele>
        <time>2015-12-12T09:55:07.787Z</time>
      </trkpt>
      <trkpt lat="46.04446" lon="4.69805">
        <ele>191.300003052</ele>
        <time>2015-12-12T09:55:08.769Z</time>
      </trkpt>
      <trkpt lat="46.0445" lon="4.69804">
        <ele>191.899993896</ele>
        <time>2015-12-12T09:55:09.786Z</time>
      </trkpt>
      <trkpt lat="46.04455" lon="4.69803">
        <ele>192.300003052</ele>
        <time>2015-12-12T09:55:10.77Z</time>
      </trkpt>
      <trkpt lat="46.04463" lon="4.69801">
        <ele>192.199996948</ele>
        <time>2015-12-12T09:55:12.784Z</time>
      </trkpt>
      <trkpt lat="46.04468" lon="4.698">
        <ele>192.5</ele>
        <time>2015-12-12T09:55:13.771Z</time>
      </trkpt>
      <trkpt lat="46.04472" lon="4.69799">
        <ele>192.600006104</ele>
        <time>2015-12-12T09:55:14.785Z</time>
      </trkpt>
      <trkpt lat="46.04477" lon="4.69798">
        <ele>192.899993896</ele>
        <time>2015-12-12T09:55:15.769Z</time>
      </trkpt>
      <trkpt lat="46.04485" lon="4.69795">
        <ele>193.399993896</ele>
        <time>2015-12-12T09:55:17.789Z</time>
      </trkpt>
      <trkpt lat="46.04489" lon="4.69794">
        <ele>193.600006104</ele>
        <time>2015-12-12T09:55:18.769Z</time>
      </trkpt>
      <trkpt lat="46.04494" lon="4.69793">
        <ele>193.800003052</ele>
        <time>2015-12-12T09:55:19.787Z</time>
      </trkpt>
      <trkpt lat="46.04498" lon="4.69792">
        <ele>193.800003052</ele>
        <time>2015-12-12T09:55:20.769Z</time>
      </trkpt>
      <trkpt lat="46.04507" lon="4.6979">
        <ele>194</ele>
        <time>2015-12-12T09:55:22.786Z</time>
      </trkpt>
      <trkpt lat="46.04511" lon="4.6979">
        <ele>194</ele>
        <time>2015-12-12T09:55:23.773Z</time>
      </trkpt>
      <trkpt lat="46.04519" lon="4.69791">
        <ele>193.399993896</ele>
        <time>2015-12-12T09:55:25.786Z</time>
      </trkpt>
      <trkpt lat="46.04523" lon="4.69792">
        <ele>193.199996948</ele>
        <time>2015-12-12T09:55:26.769Z</time>
      </trkpt>
      <trkpt lat="46.04531" lon="4.69792">
        <ele>193.300003052</ele>
        <time>2015-12-12T09:55:28.785Z</time>
      </trkpt>
      <trkpt lat="46.04535" lon="4.69792">
        <ele>193.600006104</ele>
        <time>2015-12-12T09:55:29.773Z</time>
      </trkpt>
      <trkpt lat="46.04544" lon="4.69792">
        <ele>193.699996948</ele>
        <time>2015-12-12T09:55:31.786Z</time>
      </trkpt>
      <trkpt lat="46.04548" lon="4.69793">
        <ele>193.899993896</ele>
        <time>2015-12-12T09:55:32.769Z</time>
      </trkpt>
      <trkpt lat="46.04557" lon="4.69794">
        <ele>193.800003052</ele>
        <time>2015-12-12T09:55:34.786Z</time>
      </trkpt>
      <trkpt lat="46.04561" lon="4.69795">
        <ele>193.800003052</ele>
        <time>2015-12-12T09:55:35.773Z</time>
      </trkpt>
      <trkpt lat="46.04569" lon="4.69797">
        <ele>193.699996948</ele>
        <time>2015-12-12T09:55:37.786Z</time>
      </trkpt>
      <trkpt lat="46.04574" lon="4.69799">
        <ele>193.899993896</ele>
        <time>2015-12-12T09:55:38.769Z</time>
      </trkpt>
      <trkpt lat="46.04578" lon="4.69801">
        <ele>193.899993896</ele>
        <time>2015-12-12T09:55:39.786Z</time>
      </trkpt>
      <trkpt lat="46.04583" lon="4.69803">
        <ele>194</ele>
        <time>2015-12-12T09:55:40.769Z</time>
      </trkpt>
      <trkpt lat="46.04588" lon="4.69804">
        <ele>193.899993896</ele>
        <time>2015-12-12T09:55:41.789Z</time>
      </trkpt>
      <trkpt lat="46.04593" lon="4.69806">
        <ele>193.899993896</ele>
        <time>2015-12-12T09:55:42.769Z</time>
      </trkpt>
      <trkpt lat="46.04597" lon="4.69807">
        <ele>194.100006104</ele>
        <time>2015-12-12T09:55:43.801Z</time>
      </trkpt>
      <trkpt lat="46.04602" lon="4.69809">
        <ele>194</ele>
        <time>2015-12-12T09:55:44.769Z</time>
      </trkpt>
      <trkpt lat="46.04607" lon="4.69811">
        <ele>194</ele>
        <time>2015-12-12T09:55:45.786Z</time>
      </trkpt>
      <trkpt lat="46.04611" lon="4.69812">
        <ele>194</ele>
        <time>2015-12-12T09:55:46.77Z</time>
      </trkpt>
      <trkpt lat="46.04616" lon="4.69814">
        <ele>193.899993896</ele>
        <time>2015-12-12T09:55:47.791Z</time>
      </trkpt>
      <trkpt lat="46.04621" lon="4.69815">
        <ele>193.800003052</ele>
        <time>2015-12-12T09:55:48.77Z</time>
      </trkpt>
      <trkpt lat="46.04626" lon="4.69817">
        <ele>193.699996948</ele>
        <time>2015-12-12T09:55:49.934Z</time>
      </trkpt>
      <trkpt lat="46.04631" lon="4.69819">
        <ele>193.600006104</ele>
        <time>2015-12-12T09:55:50.772Z</time>
      </trkpt>
      <trkpt lat="46.04636" lon="4.69821">
        <ele>193.699996948</ele>
        <time>2015-12-12T09:55:51.785Z</time>
      </trkpt>
      <trkpt lat="46.04641" lon="4.69824">
        <ele>193.699996948</ele>
        <time>2015-12-12T09:55:52.769Z</time>
      </trkpt>
      <trkpt lat="46.04645" lon="4.69826">
        <ele>193.800003052</ele>
        <time>2015-12-12T09:55:53.791Z</time>
      </trkpt>
      <trkpt lat="46.0465" lon="4.69828">
        <ele>193.800003052</ele>
        <time>2015-12-12T09:55:54.769Z</time>
      </trkpt>
      <trkpt lat="46.04655" lon="4.6983">
        <ele>193.899993896</ele>
        <time>2015-12-12T09:55:55.789Z</time>
      </trkpt>
      <trkpt lat="46.0466" lon="4.69831">
        <ele>194</ele>
        <time>2015-12-12T09:55:56.769Z</time>
      </trkpt>
      <trkpt lat="46.04665" lon="4.69833">
        <ele>194</ele>
        <time>2015-12-12T09:55:57.786Z</time>
      </trkpt>
      <trkpt lat="46.04669" lon="4.69834">
        <ele>194.100006104</ele>
        <time>2015-12-12T09:55:58.769Z</time>
      </trkpt>
      <trkpt lat="46.04674" lon="4.69836">
        <ele>194.199996948</ele>
        <time>2015-12-12T09:55:59.806Z</time>
      </trkpt>
      <trkpt lat="46.04679" lon="4.69838">
        <ele>194.199996948</ele>
        <time>2015-12-12T09:56:00.769Z</time>
      </trkpt>
      <trkpt lat="46.04684" lon="4.69839">
        <ele>194.399993896</ele>
        <time>2015-12-12T09:56:01.803Z</time>
      </trkpt>
      <trkpt lat="46.04689" lon="4.6984">
        <ele>194.5</ele>
        <time>2015-12-12T09:56:02.77Z</time>
      </trkpt>
      <trkpt lat="46.04695" lon="4.69841">
        <ele>194.699996948</ele>
        <time>2015-12-12T09:56:03.785Z</time>
      </trkpt>
      <trkpt lat="46.047" lon="4.69842">
        <ele>194.800003052</ele>
        <time>2015-12-12T09:56:04.769Z</time>
      </trkpt>
      <trkpt lat="46.04705" lon="4.69842">
        <ele>195.100006104</ele>
        <time>2015-12-12T09:56:05.791Z</time>
      </trkpt>
      <trkpt lat="46.0471" lon="4.69843">
        <ele>195.300003052</ele>
        <time>2015-12-12T09:56:06.769Z</time>
      </trkpt>
      <trkpt lat="46.04715" lon="4.69843">
        <ele>195.199996948</ele>
        <time>2015-12-12T09:56:07.787Z</time>
      </trkpt>
      <trkpt lat="46.0472" lon="4.69843">
        <ele>195.199996948</ele>
        <time>2015-12-12T09:56:08.817Z</time>
      </trkpt>
      <trkpt lat="46.04725" lon="4.69843">
        <ele>195.399993896</ele>
        <time>2015-12-12T09:56:09.797Z</time>
      </trkpt>
      <trkpt lat="46.0473" lon="4.69842">
        <ele>195.800003052</ele>
        <time>2015-12-12T09:56:10.769Z</time>
      </trkpt>
      <trkpt lat="46.04735" lon="4.69841">
        <ele>196</ele>
        <time>2015-12-12T09:56:11.797Z</time>
      </trkpt>
      <trkpt lat="46.0474" lon="4.69841">
        <ele>196.300003052</ele>
        <time>2015-12-12T09:56:12.769Z</time>
      </trkpt>
      <trkpt lat="46.04749" lon="4.6984">
        <ele>197.399993896</ele>
        <time>2015-12-12T09:56:14.786Z</time>
      </trkpt>
      <trkpt lat="46.04753" lon="4.6984">
        <ele>197.699996948</ele>
        <time>2015-12-12T09:56:15.769Z</time>
      </trkpt>
      <trkpt lat="46.04761" lon="4.6984">
        <ele>198.199996948</ele>
        <time>2015-12-12T09:56:17.79Z</time>
      </trkpt>
      <trkpt lat="46.04765" lon="4.69841">
        <ele>198.399993896</ele>
        <time>2015-12-12T09:56:18.77Z</time>
      </trkpt>
      <trkpt lat="46.04773" lon="4.69842">
        <ele>198.300003052</ele>
        <time>2015-12-12T09:56:20.787Z</time>
      </trkpt>
      <trkpt lat="46.04777" lon="4.69843">
        <ele>198.399993896</ele>
        <time>2015-12-12T09:56:21.769Z</time>
      </trkpt>
      <trkpt lat="46.04785" lon="4.69842">
        <ele>198.699996948</ele>
        <time>2015-12-12T09:56:23.79Z</time>
      </trkpt>
      <trkpt lat="46.0479" lon="4.69843">
        <ele>198.100006104</ele>
        <time>2015-12-12T09:56:24.769Z</time>
      </trkpt>
      <trkpt lat="46.04795" lon="4.69834">
        <ele>198.399993896</ele>
        <time>2015-12-12T09:56:26.785Z</time>
      </trkpt>
      <trkpt lat="46.04796" lon="4.69828">
        <ele>198.800003052</ele>
        <time>2015-12-12T09:56:27.783Z</time>
      </trkpt>
      <trkpt lat="46.04801" lon="4.69817">
        <ele>198</ele>
        <time>2015-12-12T09:56:29.789Z</time>
      </trkpt>
      <trkpt lat="46.04803" lon="4.69813">
        <ele>198.199996948</ele>
        <time>2015-12-12T09:56:30.769Z</time>
      </trkpt>
      <trkpt lat="46.04809" lon="4.69812">
        <ele>198.300003052</ele>
        <time>2015-12-12T09:56:32.786Z</time>
      </trkpt>
      <trkpt lat="46.04812" lon="4.69813">
        <ele>198.5</ele>
        <time>2015-12-12T09:56:33.769Z</time>
      </trkpt>
      <trkpt lat="46.04819" lon="4.69816">
        <ele>199</ele>
        <time>2015-12-12T09:56:35.79Z</time>
      </trkpt>
      <trkpt lat="46.04823" lon="4.69819">
        <ele>199.199996948</ele>
        <time>2015-12-12T09:56:36.769Z</time>
      </trkpt>
      <trkpt lat="46.04831" lon="4.69824">
        <ele>199.699996948</ele>
        <time>2015-12-12T09:56:38.923Z</time>
      </trkpt>
      <trkpt lat="46.04836" lon="4.69826">
        <ele>199.699996948</ele>
        <time>2015-12-12T09:56:39.769Z</time>
      </trkpt>
      <trkpt lat="46.04841" lon="4.6983">
        <ele>199.699996948</ele>
        <time>2015-12-12T09:56:40.785Z</time>
      </trkpt>
      <trkpt lat="46.04846" lon="4.69833">
        <ele>199.800003052</ele>
        <time>2015-12-12T09:56:41.773Z</time>
      </trkpt>
      <trkpt lat="46.04851" lon="4.69835">
        <ele>199.600006104</ele>
        <time>2015-12-12T09:56:42.787Z</time>
      </trkpt>
      <trkpt lat="46.04856" lon="4.69837">
        <ele>199.899993896</ele>
        <time>2015-12-12T09:56:43.784Z</time>
      </trkpt>
      <trkpt lat="46.04861" lon="4.6984">
        <ele>200.100006104</ele>
        <time>2015-12-12T09:56:44.786Z</time>
      </trkpt>
      <trkpt lat="46.04866" lon="4.69842">
        <ele>200.199996948</ele>
        <time>2015-12-12T09:56:45.769Z</time>
      </trkpt>
      <trkpt lat="46.04871" lon="4.69845">
        <ele>200.300003052</ele>
        <time>2015-12-12T09:56:46.786Z</time>
      </trkpt>
      <trkpt lat="46.04876" lon="4.69849">
        <ele>200.100006104</ele>
        <time>2015-12-12T09:56:47.773Z</time>
      </trkpt>
      <trkpt lat="46.0488" lon="4.69852">
        <ele>200.100006104</ele>
        <time>2015-12-12T09:56:48.786Z</time>
      </trkpt>
      <trkpt lat="46.04885" lon="4.69855">
        <ele>200.100006104</ele>
        <time>2015-12-12T09:56:49.77Z</time>
      </trkpt>
      <trkpt lat="46.04889" lon="4.69858">
        <ele>200.100006104</ele>
        <time>2015-12-12T09:56:50.923Z</time>
      </trkpt>
      <trkpt lat="46.04895" lon="4.6986">
        <ele>200.199996948</ele>
        <time>2015-12-12T09:56:51.769Z</time>
      </trkpt>
      <trkpt lat="46.049" lon="4.69863">
        <ele>200.300003052</ele>
        <time>2015-12-12T09:56:52.786Z</time>
      </trkpt>
      <trkpt lat="46.04905" lon="4.69867">
        <ele>200.199996948</ele>
        <time>2015-12-12T09:56:53.773Z</time>
      </trkpt>
      <trkpt lat="46.0491" lon="4.69871">
        <ele>200.300003052</ele>
        <time>2015-12-12T09:56:54.831Z</time>
      </trkpt>
      <trkpt lat="46.04916" lon="4.69874">
        <ele>200.5</ele>
        <time>2015-12-12T09:56:55.771Z</time>
      </trkpt>
      <trkpt lat="46.0492" lon="4.69877">
        <ele>200.5</ele>
        <time>2015-12-12T09:56:56.786Z</time>
      </trkpt>
      <trkpt lat="46.04925" lon="4.69881">
        <ele>200.5</ele>
        <time>2015-12-12T09:56:57.769Z</time>
      </trkpt>
      <trkpt lat="46.04929" lon="4.69884">
        <ele>200.600006104</ele>
        <time>2015-12-12T09:56:58.786Z</time>
      </trkpt>
      <trkpt lat="46.04933" lon="4.69888">
        <ele>200.5</ele>
        <time>2015-12-12T09:56:59.773Z</time>
      </trkpt>
      <trkpt lat="46.04937" lon="4.69892">
        <ele>200.600006104</ele>
        <time>2015-12-12T09:57:00.786Z</time>
      </trkpt>
      <trkpt lat="46.04941" lon="4.69897">
        <ele>201</ele>
        <time>2015-12-12T09:57:01.77Z</time>
      </trkpt>
      <trkpt lat="46.04945" lon="4.69901">
        <ele>201.100006104</ele>
        <time>2015-12-12T09:57:02.786Z</time>
      </trkpt>
      <trkpt lat="46.04949" lon="4.69906">
        <ele>201.199996948</ele>
        <time>2015-12-12T09:57:03.769Z</time>
      </trkpt>
      <trkpt lat="46.04953" lon="4.69909">
        <ele>201.699996948</ele>
        <time>2015-12-12T09:57:04.8Z</time>
      </trkpt>
      <trkpt lat="46.04957" lon="4.69914">
        <ele>202</ele>
        <time>2015-12-12T09:57:05.773Z</time>
      </trkpt>
      <trkpt lat="46.0496" lon="4.69919">
        <ele>202.199996948</ele>
        <time>2015-12-12T09:57:06.786Z</time>
      </trkpt>
      <trkpt lat="46.04964" lon="4.69923">
        <ele>202.399993896</ele>
        <time>2015-12-12T09:57:07.77Z</time>
      </trkpt>
      <trkpt lat="46.04967" lon="4.69929">
        <ele>202.300003052</ele>
        <time>2015-12-12T09:57:08.786Z</time>
      </trkpt>
      <trkpt lat="46.04971" lon="4.69934">
        <ele>202.399993896</ele>
        <time>2015-12-12T09:57:09.769Z</time>
      </trkpt>
      <trkpt lat="46.04974" lon="4.6994">
        <ele>202.600006104</ele>
        <time>2015-12-12T09:57:10.786Z</time>
      </trkpt>
      <trkpt lat="46.04978" lon="4.69947">
        <ele>202.600006104</ele>
        <time>2015-12-12T09:57:11.773Z</time>
      </trkpt>
      <trkpt lat="46.04981" lon="4.69954">
        <ele>202.899993896</ele>
        <time>2015-12-12T09:57:12.786Z</time>
      </trkpt>
      <trkpt lat="46.04985" lon="4.6996">
        <ele>203.100006104</ele>
        <time>2015-12-12T09:57:13.77Z</time>
      </trkpt>
      <trkpt lat="46.04988" lon="4.69965">
        <ele>202</ele>
        <time>2015-12-12T09:57:14.786Z</time>
      </trkpt>
      <trkpt lat="46.04993" lon="4.69971">
        <ele>202.100006104</ele>
        <time>2015-12-12T09:57:15.769Z</time>
      </trkpt>
      <trkpt lat="46.04997" lon="4.69978">
        <ele>201.899993896</ele>
        <time>2015-12-12T09:57:16.801Z</time>
      </trkpt>
      <trkpt lat="46.05001" lon="4.69984">
        <ele>202.399993896</ele>
        <time>2015-12-12T09:57:17.773Z</time>
      </trkpt>
      <trkpt lat="46.05006" lon="4.6999">
        <ele>202.5</ele>
        <time>2015-12-12T09:57:18.785Z</time>
      </trkpt>
      <trkpt lat="46.0501" lon="4.69996">
        <ele>201.699996948</ele>
        <time>2015-12-12T09:57:19.77Z</time>
      </trkpt>
      <trkpt lat="46.05015" lon="4.70002">
        <ele>201.300003052</ele>
        <time>2015-12-12T09:57:20.805Z</time>
      </trkpt>
      <trkpt lat="46.05019" lon="4.70007">
        <ele>201.199996948</ele>
        <time>2015-12-12T09:57:21.769Z</time>
      </trkpt>
      <trkpt lat="46.05024" lon="4.70012">
        <ele>201.199996948</ele>
        <time>2015-12-12T09:57:22.786Z</time>
      </trkpt>
      <trkpt lat="46.05029" lon="4.70016">
        <ele>201.100006104</ele>
        <time>2015-12-12T09:57:23.773Z</time>
      </trkpt>
      <trkpt lat="46.05034" lon="4.7002">
        <ele>201.199996948</ele>
        <time>2015-12-12T09:57:24.786Z</time>
      </trkpt>
      <trkpt lat="46.05039" lon="4.70024">
        <ele>201</ele>
        <time>2015-12-12T09:57:25.77Z</time>
      </trkpt>
      <trkpt lat="46.05044" lon="4.70028">
        <ele>200.800003052</ele>
        <time>2015-12-12T09:57:26.923Z</time>
      </trkpt>
      <trkpt lat="46.05049" lon="4.70031">
        <ele>201.199996948</ele>
        <time>2015-12-12T09:57:27.769Z</time>
      </trkpt>
      <trkpt lat="46.05054" lon="4.70034">
        <ele>200.899993896</ele>
        <time>2015-12-12T09:57:28.785Z</time>
      </trkpt>
      <trkpt lat="46.05059" lon="4.70037">
        <ele>200.600006104</ele>
        <time>2015-12-12T09:57:29.773Z</time>
      </trkpt>
      <trkpt lat="46.05063" lon="4.7004">
        <ele>200.600006104</ele>
        <time>2015-12-12T09:57:30.785Z</time>
      </trkpt>
      <trkpt lat="46.05068" lon="4.70041">
        <ele>200.100006104</ele>
        <time>2015-12-12T09:57:31.77Z</time>
      </trkpt>
      <trkpt lat="46.05074" lon="4.7004">
        <ele>200</ele>
        <time>2015-12-12T09:57:32.786Z</time>
      </trkpt>
      <trkpt lat="46.05079" lon="4.70038">
        <ele>199.800003052</ele>
        <time>2015-12-12T09:57:33.769Z</time>
      </trkpt>
      <trkpt lat="46.05084" lon="4.70035">
        <ele>199.699996948</ele>
        <time>2015-12-12T09:57:34.785Z</time>
      </trkpt>
      <trkpt lat="46.05088" lon="4.70031">
        <ele>199.699996948</ele>
        <time>2015-12-12T09:57:35.773Z</time>
      </trkpt>
      <trkpt lat="46.05092" lon="4.70025">
        <ele>199.600006104</ele>
        <time>2015-12-12T09:57:36.801Z</time>
      </trkpt>
      <trkpt lat="46.05095" lon="4.70019">
        <ele>199.5</ele>
        <time>2015-12-12T09:57:37.771Z</time>
      </trkpt>
      <trkpt lat="46.05096" lon="4.70011">
        <ele>199.899993896</ele>
        <time>2015-12-12T09:57:38.786Z</time>
      </trkpt>
      <trkpt lat="46.05098" lon="4.70003">
        <ele>200</ele>
        <time>2015-12-12T09:57:39.769Z</time>
      </trkpt>
      <trkpt lat="46.05099" lon="4.69994">
        <ele>200.300003052</ele>
        <time>2015-12-12T09:57:40.785Z</time>
      </trkpt>
      <trkpt lat="46.05101" lon="4.69986">
        <ele>199.399993896</ele>
        <time>2015-12-12T09:57:41.773Z</time>
      </trkpt>
      <trkpt lat="46.05102" lon="4.69978">
        <ele>199.199996948</ele>
        <time>2015-12-12T09:57:42.786Z</time>
      </trkpt>
      <trkpt lat="46.05104" lon="4.6997">
        <ele>199.199996948</ele>
        <time>2015-12-12T09:57:43.77Z</time>
      </trkpt>
      <trkpt lat="46.05105" lon="4.69962">
        <ele>199</ele>
        <time>2015-12-12T09:57:44.786Z</time>
      </trkpt>
      <trkpt lat="46.05107" lon="4.69955">
        <ele>199.100006104</ele>
        <time>2015-12-12T09:57:45.769Z</time>
      </trkpt>
      <trkpt lat="46.05108" lon="4.69948">
        <ele>199.100006104</ele>
        <time>2015-12-12T09:57:46.789Z</time>
      </trkpt>
      <trkpt lat="46.0511" lon="4.69941">
        <ele>199.199996948</ele>
        <time>2015-12-12T09:57:47.773Z</time>
      </trkpt>
      <trkpt lat="46.05111" lon="4.69934">
        <ele>199.300003052</ele>
        <time>2015-12-12T09:57:48.786Z</time>
      </trkpt>
      <trkpt lat="46.05111" lon="4.69927">
        <ele>199.300003052</ele>
        <time>2015-12-12T09:57:49.77Z</time>
      </trkpt>
      <trkpt lat="46.05113" lon="4.6992">
        <ele>199.5</ele>
        <time>2015-12-12T09:57:50.788Z</time>
      </trkpt>
      <trkpt lat="46.05114" lon="4.69912">
        <ele>199.300003052</ele>
        <time>2015-12-12T09:57:51.769Z</time>
      </trkpt>
      <trkpt lat="46.05115" lon="4.69905">
        <ele>199.199996948</ele>
        <time>2015-12-12T09:57:52.787Z</time>
      </trkpt>
      <trkpt lat="46.05116" lon="4.69897">
        <ele>199</ele>
        <time>2015-12-12T09:57:53.773Z</time>
      </trkpt>
      <trkpt lat="46.05117" lon="4.6989">
        <ele>199</ele>
        <time>2015-12-12T09:57:54.787Z</time>
      </trkpt>
      <trkpt lat="46.05118" lon="4.69882">
        <ele>199</ele>
        <time>2015-12-12T09:57:55.77Z</time>
      </trkpt>
      <trkpt lat="46.0512" lon="4.69875">
        <ele>199.100006104</ele>
        <time>2015-12-12T09:57:56.785Z</time>
      </trkpt>
      <trkpt lat="46.05121" lon="4.69867">
        <ele>199.300003052</ele>
        <time>2015-12-12T09:57:57.769Z</time>
      </trkpt>
      <trkpt lat="46.05122" lon="4.6986">
        <ele>199.399993896</ele>
        <time>2015-12-12T09:57:58.786Z</time>
      </trkpt>
      <trkpt lat="46.05124" lon="4.69852">
        <ele>199.100006104</ele>
        <time>2015-12-12T09:57:59.773Z</time>
      </trkpt>
      <trkpt lat="46.05126" lon="4.69845">
        <ele>198.800003052</ele>
        <time>2015-12-12T09:58:00.787Z</time>
      </trkpt>
      <trkpt lat="46.05128" lon="4.69839">
        <ele>198.800003052</ele>
        <time>2015-12-12T09:58:01.77Z</time>
      </trkpt>
      <trkpt lat="46.05132" lon="4.69835">
        <ele>198.800003052</ele>
        <time>2015-12-12T09:58:02.803Z</time>
      </trkpt>
      <trkpt lat="46.05135" lon="4.69831">
        <ele>198.699996948</ele>
        <time>2015-12-12T09:58:03.769Z</time>
      </trkpt>
      <trkpt lat="46.0514" lon="4.6983">
        <ele>198.699996948</ele>
        <time>2015-12-12T09:58:04.785Z</time>
      </trkpt>
      <trkpt lat="46.05145" lon="4.6983">
        <ele>198.399993896</ele>
        <time>2015-12-12T09:58:05.773Z</time>
      </trkpt>
      <trkpt lat="46.05151" lon="4.69831">
        <ele>198.100006104</ele>
        <time>2015-12-12T09:58:06.785Z</time>
      </trkpt>
      <trkpt lat="46.05156" lon="4.69834">
        <ele>197.899993896</ele>
        <time>2015-12-12T09:58:07.77Z</time>
      </trkpt>
      <trkpt lat="46.05162" lon="4.69836">
        <ele>197.300003052</ele>
        <time>2015-12-12T09:58:08.786Z</time>
      </trkpt>
      <trkpt lat="46.05168" lon="4.69839">
        <ele>197.199996948</ele>
        <time>2015-12-12T09:58:09.769Z</time>
      </trkpt>
      <trkpt lat="46.05174" lon="4.69841">
        <ele>197</ele>
        <time>2015-12-12T09:58:10.786Z</time>
      </trkpt>
      <trkpt lat="46.05181" lon="4.69844">
        <ele>196.600006104</ele>
        <time>2015-12-12T09:58:11.774Z</time>
      </trkpt>
      <trkpt lat="46.05188" lon="4.69846">
        <ele>196.100006104</ele>
        <time>2015-12-12T09:58:12.789Z</time>
      </trkpt>
      <trkpt lat="46.05195" lon="4.69848">
        <ele>195.600006104</ele>
        <time>2015-12-12T09:58:13.77Z</time>
      </trkpt>
      <trkpt lat="46.05202" lon="4.6985">
        <ele>195.300003052</ele>
        <time>2015-12-12T09:58:14.924Z</time>
      </trkpt>
      <trkpt lat="46.05208" lon="4.69852">
        <ele>195.100006104</ele>
        <time>2015-12-12T09:58:15.769Z</time>
      </trkpt>
      <trkpt lat="46.05215" lon="4.69855">
        <ele>194.800003052</ele>
        <time>2015-12-12T09:58:16.785Z</time>
      </trkpt>
      <trkpt lat="46.05223" lon="4.69858">
        <ele>193.800003052</ele>
        <time>2015-12-12T09:58:17.773Z</time>
      </trkpt>
      <trkpt lat="46.0523" lon="4.69861">
        <ele>193.600006104</ele>
        <time>2015-12-12T09:58:18.785Z</time>
      </trkpt>
      <trkpt lat="46.05237" lon="4.69863">
        <ele>193.300003052</ele>
        <time>2015-12-12T09:58:19.77Z</time>
      </trkpt>
      <trkpt lat="46.05244" lon="4.69865">
        <ele>192.899993896</ele>
        <time>2015-12-12T09:58:20.785Z</time>
      </trkpt>
      <trkpt lat="46.05252" lon="4.69866">
        <ele>192.800003052</ele>
        <time>2015-12-12T09:58:21.769Z</time>
      </trkpt>
      <trkpt lat="46.0526" lon="4.69868">
        <ele>192.600006104</ele>
        <time>2015-12-12T09:58:22.786Z</time>
      </trkpt>
      <trkpt lat="46.05267" lon="4.6987">
        <ele>192.199996948</ele>
        <time>2015-12-12T09:58:23.773Z</time>
      </trkpt>
      <trkpt lat="46.05274" lon="4.69872">
        <ele>192.100006104</ele>
        <time>2015-12-12T09:58:24.786Z</time>
      </trkpt>
      <trkpt lat="46.05281" lon="4.69873">
        <ele>191.699996948</ele>
        <time>2015-12-12T09:58:25.77Z</time>
      </trkpt>
      <trkpt lat="46.05288" lon="4.69875">
        <ele>191.600006104</ele>
        <time>2015-12-12T09:58:26.785Z</time>
      </trkpt>
      <trkpt lat="46.05295" lon="4.69876">
        <ele>191.300003052</ele>
        <time>2015-12-12T09:58:27.769Z</time>
      </trkpt>
      <trkpt lat="46.05302" lon="4.69877">
        <ele>191.100006104</ele>
        <time>2015-12-12T09:58:28.808Z</time>
      </trkpt>
      <trkpt lat="46.05308" lon="4.69879">
        <ele>190.899993896</ele>
        <time>2015-12-12T09:58:29.773Z</time>
      </trkpt>
      <trkpt lat="46.05315" lon="4.6988">
        <ele>190.899993896</ele>
        <time>2015-12-12T09:58:30.785Z</time>
      </trkpt>
      <trkpt lat="46.05322" lon="4.69881">
        <ele>190.699996948</ele>
        <time>2015-12-12T09:58:31.77Z</time>
      </trkpt>
      <trkpt lat="46.05328" lon="4.69883">
        <ele>190.600006104</ele>
        <time>2015-12-12T09:58:32.785Z</time>
      </trkpt>
      <trkpt lat="46.05335" lon="4.69884">
        <ele>190.5</ele>
        <time>2015-12-12T09:58:33.769Z</time>
      </trkpt>
      <trkpt lat="46.05342" lon="4.69886">
        <ele>190.399993896</ele>
        <time>2015-12-12T09:58:34.785Z</time>
      </trkpt>
      <trkpt lat="46.05349" lon="4.69889">
        <ele>190</ele>
        <time>2015-12-12T09:58:35.773Z</time>
      </trkpt>
      <trkpt lat="46.05355" lon="4.69891">
        <ele>189.899993896</ele>
        <time>2015-12-12T09:58:36.785Z</time>
      </trkpt>
      <trkpt lat="46.05362" lon="4.69893">
        <ele>189.899993896</ele>
        <time>2015-12-12T09:58:37.77Z</time>
      </trkpt>
      <trkpt lat="46.05369" lon="4.69895">
        <ele>189.699996948</ele>
        <time>2015-12-12T09:58:38.881Z</time>
      </trkpt>
      <trkpt lat="46.05377" lon="4.69898">
        <ele>189.300003052</ele>
        <time>2015-12-12T09:58:39.769Z</time>
      </trkpt>
      <trkpt lat="46.05384" lon="4.699">
        <ele>189.199996948</ele>
        <time>2015-12-12T09:58:40.785Z</time>
      </trkpt>
      <trkpt lat="46.05391" lon="4.69903">
        <ele>189.100006104</ele>
        <time>2015-12-12T09:58:41.773Z</time>
      </trkpt>
      <trkpt lat="46.05398" lon="4.69905">
        <ele>188.899993896</ele>
        <time>2015-12-12T09:58:42.785Z</time>
      </trkpt>
      <trkpt lat="46.05405" lon="4.69906">
        <ele>188.699996948</ele>
        <time>2015-12-12T09:58:43.77Z</time>
      </trkpt>
      <trkpt lat="46.05412" lon="4.69906">
        <ele>188.800003052</ele>
        <time>2015-12-12T09:58:44.786Z</time>
      </trkpt>
      <trkpt lat="46.05419" lon="4.69905">
        <ele>188.800003052</ele>
        <time>2015-12-12T09:58:45.769Z</time>
      </trkpt>
      <trkpt lat="46.05426" lon="4.69904">
        <ele>188.800003052</ele>
        <time>2015-12-12T09:58:46.786Z</time>
      </trkpt>
      <trkpt lat="46.05433" lon="4.69901">
        <ele>189</ele>
        <time>2015-12-12T09:58:47.773Z</time>
      </trkpt>
      <trkpt lat="46.0544" lon="4.69899">
        <ele>189.199996948</ele>
        <time>2015-12-12T09:58:48.806Z</time>
      </trkpt>
      <trkpt lat="46.05447" lon="4.69897">
        <ele>189.5</ele>
        <time>2015-12-12T09:58:49.784Z</time>
      </trkpt>
      <trkpt lat="46.05453" lon="4.69895">
        <ele>190.199996948</ele>
        <time>2015-12-12T09:58:50.851Z</time>
      </trkpt>
      <trkpt lat="46.05459" lon="4.69892">
        <ele>190</ele>
        <time>2015-12-12T09:58:51.769Z</time>
      </trkpt>
      <trkpt lat="46.05466" lon="4.6989">
        <ele>190.399993896</ele>
        <time>2015-12-12T09:58:52.785Z</time>
      </trkpt>
      <trkpt lat="46.05472" lon="4.69888">
        <ele>190.600006104</ele>
        <time>2015-12-12T09:58:53.773Z</time>
      </trkpt>
      <trkpt lat="46.05478" lon="4.69886">
        <ele>190.5</ele>
        <time>2015-12-12T09:58:54.785Z</time>
      </trkpt>
      <trkpt lat="46.05484" lon="4.69884">
        <ele>190.800003052</ele>
        <time>2015-12-12T09:58:55.77Z</time>
      </trkpt>
      <trkpt lat="46.05489" lon="4.69883">
        <ele>191.199996948</ele>
        <time>2015-12-12T09:58:56.788Z</time>
      </trkpt>
      <trkpt lat="46.05494" lon="4.69882">
        <ele>191.199996948</ele>
        <time>2015-12-12T09:58:57.771Z</time>
      </trkpt>
      <trkpt lat="46.055" lon="4.69881">
        <ele>191.699996948</ele>
        <time>2015-12-12T09:58:58.788Z</time>
      </trkpt>
      <trkpt lat="46.05506" lon="4.69879">
        <ele>191.600006104</ele>
        <time>2015-12-12T09:58:59.775Z</time>
      </trkpt>
      <trkpt lat="46.05511" lon="4.69877">
        <ele>191.5</ele>
        <time>2015-12-12T09:59:00.789Z</time>
      </trkpt>
      <trkpt lat="46.05517" lon="4.69875">
        <ele>191.699996948</ele>
        <time>2015-12-12T09:59:01.772Z</time>
      </trkpt>
      <trkpt lat="46.05524" lon="4.69872">
        <ele>192</ele>
        <time>2015-12-12T09:59:02.786Z</time>
      </trkpt>
      <trkpt lat="46.0553" lon="4.6987">
        <ele>192.199996948</ele>
        <time>2015-12-12T09:59:03.901Z</time>
      </trkpt>
      <trkpt lat="46.05536" lon="4.69868">
        <ele>192.199996948</ele>
        <time>2015-12-12T09:59:04.789Z</time>
      </trkpt>
      <trkpt lat="46.05542" lon="4.69866">
        <ele>192.399993896</ele>
        <time>2015-12-12T09:59:05.773Z</time>
      </trkpt>
      <trkpt lat="46.05548" lon="4.69864">
        <ele>191.899993896</ele>
        <time>2015-12-12T09:59:06.832Z</time>
      </trkpt>
      <trkpt lat="46.05553" lon="4.69862">
        <ele>191.899993896</ele>
        <time>2015-12-12T09:59:07.77Z</time>
      </trkpt>
      <trkpt lat="46.05558" lon="4.6986">
        <ele>192</ele>
        <time>2015-12-12T09:59:08.786Z</time>
      </trkpt>
      <trkpt lat="46.05562" lon="4.6986">
        <ele>192.100006104</ele>
        <time>2015-12-12T09:59:09.769Z</time>
      </trkpt>
      <trkpt lat="46.05571" lon="4.69863">
        <ele>192.5</ele>
        <time>2015-12-12T09:59:11.789Z</time>
      </trkpt>
      <trkpt lat="46.05574" lon="4.69868">
        <ele>192.100006104</ele>
        <time>2015-12-12T09:59:12.769Z</time>
      </trkpt>
      <trkpt lat="46.05577" lon="4.69873">
        <ele>191.800003052</ele>
        <time>2015-12-12T09:59:13.787Z</time>
      </trkpt>
      <trkpt lat="46.0558" lon="4.69879">
        <ele>191.800003052</ele>
        <time>2015-12-12T09:59:14.769Z</time>
      </trkpt>
      <trkpt lat="46.05584" lon="4.69885">
        <ele>192</ele>
        <time>2015-12-12T09:59:15.785Z</time>
      </trkpt>
      <trkpt lat="46.05587" lon="4.69892">
        <ele>192.300003052</ele>
        <time>2015-12-12T09:59:16.769Z</time>
      </trkpt>
      <trkpt lat="46.05591" lon="4.69899">
        <ele>192.5</ele>
        <time>2015-12-12T09:59:17.789Z</time>
      </trkpt>
      <trkpt lat="46.05595" lon="4.69906">
        <ele>192.600006104</ele>
        <time>2015-12-12T09:59:18.769Z</time>
      </trkpt>
      <trkpt lat="46.05599" lon="4.69914">
        <ele>192.899993896</ele>
        <time>2015-12-12T09:59:19.804Z</time>
      </trkpt>
      <trkpt lat="46.05602" lon="4.69922">
        <ele>193.199996948</ele>
        <time>2015-12-12T09:59:20.769Z</time>
      </trkpt>
      <trkpt lat="46.05606" lon="4.69929">
        <ele>193.300003052</ele>
        <time>2015-12-12T09:59:21.785Z</time>
      </trkpt>
      <trkpt lat="46.0561" lon="4.69936">
        <ele>193.5</ele>
        <time>2015-12-12T09:59:22.769Z</time>
      </trkpt>
      <trkpt lat="46.05613" lon="4.69945">
        <ele>193.600006104</ele>
        <time>2015-12-12T09:59:23.79Z</time>
      </trkpt>
      <trkpt lat="46.05617" lon="4.69952">
        <ele>193.899993896</ele>
        <time>2015-12-12T09:59:24.769Z</time>
      </trkpt>
      <trkpt lat="46.05621" lon="4.6996">
        <ele>194.100006104</ele>
        <time>2015-12-12T09:59:25.787Z</time>
      </trkpt>
      <trkpt lat="46.05625" lon="4.69967">
        <ele>194.300003052</ele>
        <time>2015-12-12T09:59:26.77Z</time>
      </trkpt>
      <trkpt lat="46.05629" lon="4.69974">
        <ele>194.5</ele>
        <time>2015-12-12T09:59:27.786Z</time>
      </trkpt>
      <trkpt lat="46.05633" lon="4.69981">
        <ele>194.699996948</ele>
        <time>2015-12-12T09:59:28.769Z</time>
      </trkpt>
      <trkpt lat="46.05636" lon="4.69989">
        <ele>195</ele>
        <time>2015-12-12T09:59:29.803Z</time>
      </trkpt>
      <trkpt lat="46.0564" lon="4.69995">
        <ele>195.300003052</ele>
        <time>2015-12-12T09:59:30.801Z</time>
      </trkpt>
      <trkpt lat="46.05643" lon="4.70001">
        <ele>195.5</ele>
        <time>2015-12-12T09:59:31.803Z</time>
      </trkpt>
      <trkpt lat="46.05646" lon="4.70007">
        <ele>195.699996948</ele>
        <time>2015-12-12T09:59:32.769Z</time>
      </trkpt>
      <trkpt lat="46.05648" lon="4.70014">
        <ele>195.800003052</ele>
        <time>2015-12-12T09:59:33.786Z</time>
      </trkpt>
      <trkpt lat="46.05651" lon="4.7002">
        <ele>195.899993896</ele>
        <time>2015-12-12T09:59:34.769Z</time>
      </trkpt>
      <trkpt lat="46.05655" lon="4.70026">
        <ele>195.800003052</ele>
        <time>2015-12-12T09:59:35.831Z</time>
      </trkpt>
      <trkpt lat="46.05657" lon="4.70033">
        <ele>195.300003052</ele>
        <time>2015-12-12T09:59:36.769Z</time>
      </trkpt>
      <trkpt lat="46.05661" lon="4.70041">
        <ele>195.300003052</ele>
        <time>2015-12-12T09:59:37.786Z</time>
      </trkpt>
      <trkpt lat="46.05664" lon="4.70049">
        <ele>195.600006104</ele>
        <time>2015-12-12T09:59:38.769Z</time>
      </trkpt>
      <trkpt lat="46.05668" lon="4.70057">
        <ele>195.5</ele>
        <time>2015-12-12T09:59:39.787Z</time>
      </trkpt>
      <trkpt lat="46.05672" lon="4.70064">
        <ele>195.5</ele>
        <time>2015-12-12T09:59:40.899Z</time>
      </trkpt>
      <trkpt lat="46.05676" lon="4.70071">
        <ele>195.300003052</ele>
        <time>2015-12-12T09:59:41.789Z</time>
      </trkpt>
      <trkpt lat="46.05681" lon="4.70079">
        <ele>194.800003052</ele>
        <time>2015-12-12T09:59:42.77Z</time>
      </trkpt>
      <trkpt lat="46.05685" lon="4.70086">
        <ele>194.699996948</ele>
        <time>2015-12-12T09:59:43.786Z</time>
      </trkpt>
      <trkpt lat="46.05688" lon="4.70093">
        <ele>194.899993896</ele>
        <time>2015-12-12T09:59:44.769Z</time>
      </trkpt>
      <trkpt lat="46.05693" lon="4.701">
        <ele>195</ele>
        <time>2015-12-12T09:59:45.785Z</time>
      </trkpt>
      <trkpt lat="46.05697" lon="4.70108">
        <ele>195</ele>
        <time>2015-12-12T09:59:46.769Z</time>
      </trkpt>
      <trkpt lat="46.057" lon="4.70115">
        <ele>195</ele>
        <time>2015-12-12T09:59:47.832Z</time>
      </trkpt>
      <trkpt lat="46.05704" lon="4.70122">
        <ele>195</ele>
        <time>2015-12-12T09:59:48.77Z</time>
      </trkpt>
      <trkpt lat="46.05708" lon="4.70129">
        <ele>195</ele>
        <time>2015-12-12T09:59:49.786Z</time>
      </trkpt>
      <trkpt lat="46.05712" lon="4.70137">
        <ele>194.800003052</ele>
        <time>2015-12-12T09:59:50.772Z</time>
      </trkpt>
      <trkpt lat="46.05716" lon="4.70145">
        <ele>194.5</ele>
        <time>2015-12-12T09:59:51.786Z</time>
      </trkpt>
      <trkpt lat="46.0572" lon="4.70152">
        <ele>194.5</ele>
        <time>2015-12-12T09:59:52.769Z</time>
      </trkpt>
      <trkpt lat="46.05724" lon="4.7016">
        <ele>194.5</ele>
        <time>2015-12-12T09:59:53.789Z</time>
      </trkpt>
      <trkpt lat="46.05728" lon="4.70168">
        <ele>194.300003052</ele>
        <time>2015-12-12T09:59:54.769Z</time>
      </trkpt>
      <trkpt lat="46.05732" lon="4.70175">
        <ele>194.5</ele>
        <time>2015-12-12T09:59:55.786Z</time>
      </trkpt>
      <trkpt lat="46.05737" lon="4.70182">
        <ele>194.300003052</ele>
        <time>2015-12-12T09:59:56.769Z</time>
      </trkpt>
      <trkpt lat="46.05741" lon="4.7019">
        <ele>194</ele>
        <time>2015-12-12T09:59:57.792Z</time>
      </trkpt>
      <trkpt lat="46.05747" lon="4.70198">
        <ele>193.899993896</ele>
        <time>2015-12-12T09:59:58.769Z</time>
      </trkpt>
      <trkpt lat="46.05751" lon="4.70205">
        <ele>193.800003052</ele>
        <time>2015-12-12T09:59:59.789Z</time>
      </trkpt>
      <trkpt lat="46.05755" lon="4.70214">
        <ele>193.699996948</ele>
        <time>2015-12-12T10:00:00.769Z</time>
      </trkpt>
      <trkpt lat="46.0576" lon="4.7022">
        <ele>193.600006104</ele>
        <time>2015-12-12T10:00:01.787Z</time>
      </trkpt>
      <trkpt lat="46.05764" lon="4.70227">
        <ele>193.600006104</ele>
        <time>2015-12-12T10:00:02.768Z</time>
      </trkpt>
      <trkpt lat="46.05768" lon="4.70234">
        <ele>193.5</ele>
        <time>2015-12-12T10:00:03.8Z</time>
      </trkpt>
      <trkpt lat="46.05773" lon="4.70242">
        <ele>193.899993896</ele>
        <time>2015-12-12T10:00:04.769Z</time>
      </trkpt>
      <trkpt lat="46.05777" lon="4.70248">
        <ele>193.100006104</ele>
        <time>2015-12-12T10:00:05.789Z</time>
      </trkpt>
      <trkpt lat="46.05781" lon="4.70254">
        <ele>193</ele>
        <time>2015-12-12T10:00:06.772Z</time>
      </trkpt>
      <trkpt lat="46.05785" lon="4.70261">
        <ele>192.399993896</ele>
        <time>2015-12-12T10:00:07.787Z</time>
      </trkpt>
      <trkpt lat="46.05789" lon="4.70268">
        <ele>192.399993896</ele>
        <time>2015-12-12T10:00:08.769Z</time>
      </trkpt>
      <trkpt lat="46.05793" lon="4.70275">
        <ele>192</ele>
        <time>2015-12-12T10:00:09.785Z</time>
      </trkpt>
      <trkpt lat="46.05798" lon="4.70281">
        <ele>191.899993896</ele>
        <time>2015-12-12T10:00:10.769Z</time>
      </trkpt>
      <trkpt lat="46.05802" lon="4.70288">
        <ele>191.699996948</ele>
        <time>2015-12-12T10:00:11.789Z</time>
      </trkpt>
      <trkpt lat="46.05806" lon="4.70295">
        <ele>191.300003052</ele>
        <time>2015-12-12T10:00:12.769Z</time>
      </trkpt>
      <trkpt lat="46.05811" lon="4.70303">
        <ele>191.100006104</ele>
        <time>2015-12-12T10:00:13.786Z</time>
      </trkpt>
      <trkpt lat="46.05816" lon="4.7031">
        <ele>191.100006104</ele>
        <time>2015-12-12T10:00:14.769Z</time>
      </trkpt>
      <trkpt lat="46.05821" lon="4.70317">
        <ele>191.100006104</ele>
        <time>2015-12-12T10:00:15.926Z</time>
      </trkpt>
      <trkpt lat="46.05825" lon="4.70324">
        <ele>191</ele>
        <time>2015-12-12T10:00:16.769Z</time>
      </trkpt>
      <trkpt lat="46.0583" lon="4.70331">
        <ele>190.800003052</ele>
        <time>2015-12-12T10:00:17.789Z</time>
      </trkpt>
      <trkpt lat="46.05836" lon="4.70337">
        <ele>190.600006104</ele>
        <time>2015-12-12T10:00:18.769Z</time>
      </trkpt>
      <trkpt lat="46.05841" lon="4.70345">
        <ele>190.600006104</ele>
        <time>2015-12-12T10:00:19.808Z</time>
      </trkpt>
      <trkpt lat="46.05846" lon="4.70352">
        <ele>190.300003052</ele>
        <time>2015-12-12T10:00:20.769Z</time>
      </trkpt>
      <trkpt lat="46.05851" lon="4.7036">
        <ele>189.800003052</ele>
        <time>2015-12-12T10:00:21.786Z</time>
      </trkpt>
      <trkpt lat="46.05856" lon="4.70367">
        <ele>189.300003052</ele>
        <time>2015-12-12T10:00:22.769Z</time>
      </trkpt>
      <trkpt lat="46.05861" lon="4.70375">
        <ele>189</ele>
        <time>2015-12-12T10:00:23.789Z</time>
      </trkpt>
      <trkpt lat="46.05866" lon="4.70383">
        <ele>188.5</ele>
        <time>2015-12-12T10:00:24.769Z</time>
      </trkpt>
      <trkpt lat="46.05871" lon="4.70391">
        <ele>188.300003052</ele>
        <time>2015-12-12T10:00:25.786Z</time>
      </trkpt>
      <trkpt lat="46.05875" lon="4.70398">
        <ele>188.300003052</ele>
        <time>2015-12-12T10:00:26.768Z</time>
      </trkpt>
      <trkpt lat="46.0588" lon="4.70406">
        <ele>187.899993896</ele>
        <time>2015-12-12T10:00:27.785Z</time>
      </trkpt>
      <trkpt lat="46.05884" lon="4.70413">
        <ele>187.399993896</ele>
        <time>2015-12-12T10:00:28.769Z</time>
      </trkpt>
      <trkpt lat="46.05889" lon="4.7042">
        <ele>187.100006104</ele>
        <time>2015-12-12T10:00:29.802Z</time>
      </trkpt>
      <trkpt lat="46.05895" lon="4.70427">
        <ele>186.899993896</ele>
        <time>2015-12-12T10:00:30.784Z</time>
      </trkpt>
      <trkpt lat="46.05899" lon="4.70434">
        <ele>186.600006104</ele>
        <time>2015-12-12T10:00:31.823Z</time>
      </trkpt>
      <trkpt lat="46.05903" lon="4.70441">
        <ele>186.5</ele>
        <time>2015-12-12T10:00:32.784Z</time>
      </trkpt>
      <trkpt lat="46.05907" lon="4.70449">
        <ele>186.300003052</ele>
        <time>2015-12-12T10:00:33.812Z</time>
      </trkpt>
      <trkpt lat="46.05912" lon="4.70456">
        <ele>186.399993896</ele>
        <time>2015-12-12T10:00:34.774Z</time>
      </trkpt>
      <trkpt lat="46.05915" lon="4.70463">
        <ele>186.300003052</ele>
        <time>2015-12-12T10:00:35.883Z</time>
      </trkpt>
      <trkpt lat="46.05919" lon="4.70469">
        <ele>186.399993896</ele>
        <time>2015-12-12T10:00:36.784Z</time>
      </trkpt>
      <trkpt lat="46.05923" lon="4.70477">
        <ele>186.100006104</ele>
        <time>2015-12-12T10:00:37.812Z</time>
      </trkpt>
      <trkpt lat="46.05925" lon="4.70485">
        <ele>185.800003052</ele>
        <time>2015-12-12T10:00:38.784Z</time>
      </trkpt>
      <trkpt lat="46.05927" lon="4.70494">
        <ele>185.300003052</ele>
        <time>2015-12-12T10:00:39.808Z</time>
      </trkpt>
      <trkpt lat="46.05929" lon="4.70502">
        <ele>185.100006104</ele>
        <time>2015-12-12T10:00:40.769Z</time>
      </trkpt>
      <trkpt lat="46.0593" lon="4.70511">
        <ele>185</ele>
        <time>2015-12-12T10:00:41.788Z</time>
      </trkpt>
      <trkpt lat="46.0593" lon="4.7052">
        <ele>184.899993896</ele>
        <time>2015-12-12T10:00:42.769Z</time>
      </trkpt>
      <trkpt lat="46.05928" lon="4.70529">
        <ele>185</ele>
        <time>2015-12-12T10:00:43.787Z</time>
      </trkpt>
      <trkpt lat="46.05927" lon="4.70537">
        <ele>185.199996948</ele>
        <time>2015-12-12T10:00:44.769Z</time>
      </trkpt>
      <trkpt lat="46.05924" lon="4.70545">
        <ele>185.5</ele>
        <time>2015-12-12T10:00:45.791Z</time>
      </trkpt>
      <trkpt lat="46.05921" lon="4.70553">
        <ele>186.300003052</ele>
        <time>2015-12-12T10:00:46.769Z</time>
      </trkpt>
      <trkpt lat="46.05918" lon="4.7056">
        <ele>186.699996948</ele>
        <time>2015-12-12T10:00:47.789Z</time>
      </trkpt>
      <trkpt lat="46.05915" lon="4.70568">
        <ele>186.800003052</ele>
        <time>2015-12-12T10:00:48.769Z</time>
      </trkpt>
      <trkpt lat="46.05913" lon="4.70576">
        <ele>186.699996948</ele>
        <time>2015-12-12T10:00:49.786Z</time>
      </trkpt>
      <trkpt lat="46.05911" lon="4.70586">
        <ele>186.5</ele>
        <time>2015-12-12T10:00:50.771Z</time>
      </trkpt>
      <trkpt lat="46.0591" lon="4.70595">
        <ele>186.300003052</ele>
        <time>2015-12-12T10:00:51.799Z</time>
      </trkpt>
      <trkpt lat="46.05909" lon="4.70604">
        <ele>186.300003052</ele>
        <time>2015-12-12T10:00:52.768Z</time>
      </trkpt>
      <trkpt lat="46.05908" lon="4.70613">
        <ele>186.100006104</ele>
        <time>2015-12-12T10:00:53.788Z</time>
      </trkpt>
      <trkpt lat="46.05906" lon="4.70622">
        <ele>186.300003052</ele>
        <time>2015-12-12T10:00:54.783Z</time>
      </trkpt>
      <trkpt lat="46.05905" lon="4.7063">
        <ele>186.5</ele>
        <time>2015-12-12T10:00:55.794Z</time>
      </trkpt>
      <trkpt lat="46.05904" lon="4.70639">
        <ele>186.600006104</ele>
        <time>2015-12-12T10:00:56.769Z</time>
      </trkpt>
      <trkpt lat="46.05904" lon="4.70647">
        <ele>186.699996948</ele>
        <time>2015-12-12T10:00:57.786Z</time>
      </trkpt>
      <trkpt lat="46.05904" lon="4.70655">
        <ele>186.899993896</ele>
        <time>2015-12-12T10:00:58.772Z</time>
      </trkpt>
      <trkpt lat="46.05904" lon="4.70663">
        <ele>187.5</ele>
        <time>2015-12-12T10:00:59.79Z</time>
      </trkpt>
      <trkpt lat="46.05906" lon="4.70672">
        <ele>187.800003052</ele>
        <time>2015-12-12T10:01:00.769Z</time>
      </trkpt>
      <trkpt lat="46.05906" lon="4.7068">
        <ele>187.699996948</ele>
        <time>2015-12-12T10:01:01.787Z</time>
      </trkpt>
      <trkpt lat="46.05906" lon="4.7069">
        <ele>188</ele>
        <time>2015-12-12T10:01:02.769Z</time>
      </trkpt>
      <trkpt lat="46.05906" lon="4.70699">
        <ele>187.899993896</ele>
        <time>2015-12-12T10:01:03.821Z</time>
      </trkpt>
      <trkpt lat="46.05906" lon="4.70708">
        <ele>187.600006104</ele>
        <time>2015-12-12T10:01:04.769Z</time>
      </trkpt>
      <trkpt lat="46.05908" lon="4.70717">
        <ele>187.600006104</ele>
        <time>2015-12-12T10:01:05.789Z</time>
      </trkpt>
      <trkpt lat="46.05909" lon="4.70726">
        <ele>187.399993896</ele>
        <time>2015-12-12T10:01:06.769Z</time>
      </trkpt>
      <trkpt lat="46.05911" lon="4.70736">
        <ele>187.199996948</ele>
        <time>2015-12-12T10:01:07.8Z</time>
      </trkpt>
      <trkpt lat="46.05913" lon="4.70745">
        <ele>187</ele>
        <time>2015-12-12T10:01:08.769Z</time>
      </trkpt>
      <trkpt lat="46.05915" lon="4.70754">
        <ele>187.199996948</ele>
        <time>2015-12-12T10:01:09.786Z</time>
      </trkpt>
      <trkpt lat="46.05917" lon="4.70763">
        <ele>187.300003052</ele>
        <time>2015-12-12T10:01:10.769Z</time>
      </trkpt>
      <trkpt lat="46.05919" lon="4.70772">
        <ele>187.199996948</ele>
        <time>2015-12-12T10:01:11.842Z</time>
      </trkpt>
      <trkpt lat="46.0592" lon="4.70781">
        <ele>187.100006104</ele>
        <time>2015-12-12T10:01:12.769Z</time>
      </trkpt>
      <trkpt lat="46.05921" lon="4.70791">
        <ele>187.100006104</ele>
        <time>2015-12-12T10:01:13.786Z</time>
      </trkpt>
      <trkpt lat="46.05922" lon="4.70799">
        <ele>186.699996948</ele>
        <time>2015-12-12T10:01:14.769Z</time>
      </trkpt>
      <trkpt lat="46.05923" lon="4.70809">
        <ele>186.300003052</ele>
        <time>2015-12-12T10:01:15.786Z</time>
      </trkpt>
      <trkpt lat="46.05924" lon="4.70818">
        <ele>186</ele>
        <time>2015-12-12T10:01:16.769Z</time>
      </trkpt>
      <trkpt lat="46.05925" lon="4.70826">
        <ele>185.699996948</ele>
        <time>2015-12-12T10:01:17.788Z</time>
      </trkpt>
      <trkpt lat="46.05925" lon="4.70835">
        <ele>185.199996948</ele>
        <time>2015-12-12T10:01:18.769Z</time>
      </trkpt>
      <trkpt lat="46.05925" lon="4.70844">
        <ele>184.899993896</ele>
        <time>2015-12-12T10:01:19.785Z</time>
      </trkpt>
      <trkpt lat="46.05926" lon="4.70853">
        <ele>184.899993896</ele>
        <time>2015-12-12T10:01:20.769Z</time>
      </trkpt>
      <trkpt lat="46.05927" lon="4.70862">
        <ele>185</ele>
        <time>2015-12-12T10:01:21.785Z</time>
      </trkpt>
      <trkpt lat="46.05928" lon="4.70872">
        <ele>185.199996948</ele>
        <time>2015-12-12T10:01:22.769Z</time>
      </trkpt>
      <trkpt lat="46.05929" lon="4.70881">
        <ele>185.300003052</ele>
        <time>2015-12-12T10:01:23.789Z</time>
      </trkpt>
      <trkpt lat="46.05929" lon="4.70891">
        <ele>185.399993896</ele>
        <time>2015-12-12T10:01:24.771Z</time>
      </trkpt>
      <trkpt lat="46.0593" lon="4.709">
        <ele>185.399993896</ele>
        <time>2015-12-12T10:01:25.787Z</time>
      </trkpt>
      <trkpt lat="46.05932" lon="4.7091">
        <ele>185.5</ele>
        <time>2015-12-12T10:01:26.769Z</time>
      </trkpt>
      <trkpt lat="46.05933" lon="4.70919">
        <ele>185.800003052</ele>
        <time>2015-12-12T10:01:27.798Z</time>
      </trkpt>
      <trkpt lat="46.05935" lon="4.70929">
        <ele>186</ele>
        <time>2015-12-12T10:01:28.769Z</time>
      </trkpt>
      <trkpt lat="46.05937" lon="4.70939">
        <ele>186.100006104</ele>
        <time>2015-12-12T10:01:29.788Z</time>
      </trkpt>
      <trkpt lat="46.05939" lon="4.70948">
        <ele>186</ele>
        <time>2015-12-12T10:01:30.768Z</time>
      </trkpt>
      <trkpt lat="46.05941" lon="4.70958">
        <ele>186</ele>
        <time>2015-12-12T10:01:31.787Z</time>
      </trkpt>
      <trkpt lat="46.05944" lon="4.70968">
        <ele>185.699996948</ele>
        <time>2015-12-12T10:01:32.769Z</time>
      </trkpt>
      <trkpt lat="46.05946" lon="4.70977">
        <ele>185.5</ele>
        <time>2015-12-12T10:01:33.785Z</time>
      </trkpt>
      <trkpt lat="46.05949" lon="4.70987">
        <ele>185.300003052</ele>
        <time>2015-12-12T10:01:34.769Z</time>
      </trkpt>
      <trkpt lat="46.05952" lon="4.70996">
        <ele>185.300003052</ele>
        <time>2015-12-12T10:01:35.789Z</time>
      </trkpt>
      <trkpt lat="46.05955" lon="4.71005">
        <ele>185.300003052</ele>
        <time>2015-12-12T10:01:36.769Z</time>
      </trkpt>
      <trkpt lat="46.05958" lon="4.71015">
        <ele>185.199996948</ele>
        <time>2015-12-12T10:01:37.785Z</time>
      </trkpt>
      <trkpt lat="46.05962" lon="4.71025">
        <ele>185</ele>
        <time>2015-12-12T10:01:38.783Z</time>
      </trkpt>
      <trkpt lat="46.05965" lon="4.71034">
        <ele>184.899993896</ele>
        <time>2015-12-12T10:01:39.785Z</time>
      </trkpt>
      <trkpt lat="46.05969" lon="4.71043">
        <ele>185</ele>
        <time>2015-12-12T10:01:40.769Z</time>
      </trkpt>
      <trkpt lat="46.05973" lon="4.71052">
        <ele>185</ele>
        <time>2015-12-12T10:01:41.79Z</time>
      </trkpt>
      <trkpt lat="46.05977" lon="4.71061">
        <ele>185.100006104</ele>
        <time>2015-12-12T10:01:42.768Z</time>
      </trkpt>
      <trkpt lat="46.0598" lon="4.7107">
        <ele>185</ele>
        <time>2015-12-12T10:01:43.786Z</time>
      </trkpt>
      <trkpt lat="46.05984" lon="4.71078">
        <ele>185</ele>
        <time>2015-12-12T10:01:44.768Z</time>
      </trkpt>
      <trkpt lat="46.05987" lon="4.71086">
        <ele>185</ele>
        <time>2015-12-12T10:01:45.785Z</time>
      </trkpt>
      <trkpt lat="46.05991" lon="4.71095">
        <ele>185.100006104</ele>
        <time>2015-12-12T10:01:46.769Z</time>
      </trkpt>
      <trkpt lat="46.05994" lon="4.71103">
        <ele>185.100006104</ele>
        <time>2015-12-12T10:01:47.789Z</time>
      </trkpt>
      <trkpt lat="46.05998" lon="4.71111">
        <ele>185.300003052</ele>
        <time>2015-12-12T10:01:48.769Z</time>
      </trkpt>
      <trkpt lat="46.06001" lon="4.7112">
        <ele>185.199996948</ele>
        <time>2015-12-12T10:01:49.786Z</time>
      </trkpt>
      <trkpt lat="46.06004" lon="4.71128">
        <ele>185.300003052</ele>
        <time>2015-12-12T10:01:50.774Z</time>
      </trkpt>
      <trkpt lat="46.06008" lon="4.71136">
        <ele>185.100006104</ele>
        <time>2015-12-12T10:01:51.787Z</time>
      </trkpt>
      <trkpt lat="46.06011" lon="4.71145">
        <ele>185.399993896</ele>
        <time>2015-12-12T10:01:52.769Z</time>
      </trkpt>
      <trkpt lat="46.06014" lon="4.71153">
        <ele>185.600006104</ele>
        <time>2015-12-12T10:01:53.789Z</time>
      </trkpt>
      <trkpt lat="46.06017" lon="4.71162">
        <ele>186.100006104</ele>
        <time>2015-12-12T10:01:54.783Z</time>
      </trkpt>
      <trkpt lat="46.0602" lon="4.71171">
        <ele>186.300003052</ele>
        <time>2015-12-12T10:01:55.786Z</time>
      </trkpt>
      <trkpt lat="46.06024" lon="4.7118">
        <ele>186.5</ele>
        <time>2015-12-12T10:01:56.769Z</time>
      </trkpt>
      <trkpt lat="46.06027" lon="4.71188">
        <ele>186.300003052</ele>
        <time>2015-12-12T10:01:57.785Z</time>
      </trkpt>
      <trkpt lat="46.0603" lon="4.71196">
        <ele>186.300003052</ele>
        <time>2015-12-12T10:01:58.768Z</time>
      </trkpt>
      <trkpt lat="46.06033" lon="4.71205">
        <ele>186.399993896</ele>
        <time>2015-12-12T10:01:59.817Z</time>
      </trkpt>
      <trkpt lat="46.06036" lon="4.71214">
        <ele>186.399993896</ele>
        <time>2015-12-12T10:02:00.768Z</time>
      </trkpt>
      <trkpt lat="46.0604" lon="4.71224">
        <ele>186.300003052</ele>
        <time>2015-12-12T10:02:01.788Z</time>
      </trkpt>
      <trkpt lat="46.06043" lon="4.71232">
        <ele>186.399993896</ele>
        <time>2015-12-12T10:02:02.8Z</time>
      </trkpt>
      <trkpt lat="46.06046" lon="4.71241">
        <ele>186.399993896</ele>
        <time>2015-12-12T10:02:03.786Z</time>
      </trkpt>
      <trkpt lat="46.06049" lon="4.7125">
        <ele>186.899993896</ele>
        <time>2015-12-12T10:02:04.769Z</time>
      </trkpt>
      <trkpt lat="46.06052" lon="4.71259">
        <ele>186.899993896</ele>
        <time>2015-12-12T10:02:05.789Z</time>
      </trkpt>
      <trkpt lat="46.06054" lon="4.71267">
        <ele>186.899993896</ele>
        <time>2015-12-12T10:02:06.769Z</time>
      </trkpt>
      <trkpt lat="46.06057" lon="4.71275">
        <ele>186.800003052</ele>
        <time>2015-12-12T10:02:07.786Z</time>
      </trkpt>
      <trkpt lat="46.0606" lon="4.71283">
        <ele>186.800003052</ele>
        <time>2015-12-12T10:02:08.768Z</time>
      </trkpt>
      <trkpt lat="46.06063" lon="4.71291">
        <ele>186.699996948</ele>
        <time>2015-12-12T10:02:09.803Z</time>
      </trkpt>
      <trkpt lat="46.06066" lon="4.71299">
        <ele>186.800003052</ele>
        <time>2015-12-12T10:02:10.769Z</time>
      </trkpt>
      <trkpt lat="46.06069" lon="4.71308">
        <ele>186.699996948</ele>
        <time>2015-12-12T10:02:11.789Z</time>
      </trkpt>
      <trkpt lat="46.06072" lon="4.71316">
        <ele>186.699996948</ele>
        <time>2015-12-12T10:02:12.769Z</time>
      </trkpt>
      <trkpt lat="46.06076" lon="4.71324">
        <ele>186.699996948</ele>
        <time>2015-12-12T10:02:13.794Z</time>
      </trkpt>
      <trkpt lat="46.06079" lon="4.71333">
        <ele>186.699996948</ele>
        <time>2015-12-12T10:02:14.768Z</time>
      </trkpt>
      <trkpt lat="46.06082" lon="4.71341">
        <ele>186.699996948</ele>
        <time>2015-12-12T10:02:15.945Z</time>
      </trkpt>
      <trkpt lat="46.06085" lon="4.7135">
        <ele>186.399993896</ele>
        <time>2015-12-12T10:02:16.771Z</time>
      </trkpt>
      <trkpt lat="46.06088" lon="4.71359">
        <ele>186.199996948</ele>
        <time>2015-12-12T10:02:17.79Z</time>
      </trkpt>
      <trkpt lat="46.06091" lon="4.71367">
        <ele>186.199996948</ele>
        <time>2015-12-12T10:02:18.768Z</time>
      </trkpt>
      <trkpt lat="46.06094" lon="4.71374">
        <ele>186.300003052</ele>
        <time>2015-12-12T10:02:19.786Z</time>
      </trkpt>
      <trkpt lat="46.06095" lon="4.71382">
        <ele>186.199996948</ele>
        <time>2015-12-12T10:02:20.769Z</time>
      </trkpt>
      <trkpt lat="46.06097" lon="4.71391">
        <ele>186.100006104</ele>
        <time>2015-12-12T10:02:21.785Z</time>
      </trkpt>
      <trkpt lat="46.06099" lon="4.71398">
        <ele>186.199996948</ele>
        <time>2015-12-12T10:02:22.769Z</time>
      </trkpt>
      <trkpt lat="46.06101" lon="4.71405">
        <ele>186.199996948</ele>
        <time>2015-12-12T10:02:23.789Z</time>
      </trkpt>
      <trkpt lat="46.06104" lon="4.71412">
        <ele>186.399993896</ele>
        <time>2015-12-12T10:02:24.769Z</time>
      </trkpt>
      <trkpt lat="46.06106" lon="4.7142">
        <ele>186.399993896</ele>
        <time>2015-12-12T10:02:25.787Z</time>
      </trkpt>
      <trkpt lat="46.06108" lon="4.71428">
        <ele>186.399993896</ele>
        <time>2015-12-12T10:02:26.769Z</time>
      </trkpt>
      <trkpt lat="46.06111" lon="4.71435">
        <ele>186.399993896</ele>
        <time>2015-12-12T10:02:27.785Z</time>
      </trkpt>
      <trkpt lat="46.06113" lon="4.71443">
        <ele>186.399993896</ele>
        <time>2015-12-12T10:02:28.769Z</time>
      </trkpt>
      <trkpt lat="46.06115" lon="4.71451">
        <ele>186.399993896</ele>
        <time>2015-12-12T10:02:29.788Z</time>
      </trkpt>
      <trkpt lat="46.06118" lon="4.71459">
        <ele>186.199996948</ele>
        <time>2015-12-12T10:02:30.769Z</time>
      </trkpt>
      <trkpt lat="46.0612" lon="4.71468">
        <ele>186.100006104</ele>
        <time>2015-12-12T10:02:31.801Z</time>
      </trkpt>
      <trkpt lat="46.06121" lon="4.71476">
        <ele>186</ele>
        <time>2015-12-12T10:02:32.768Z</time>
      </trkpt>
      <trkpt lat="46.06124" lon="4.71487">
        <ele>186.100006104</ele>
        <time>2015-12-12T10:02:33.785Z</time>
      </trkpt>
      <trkpt lat="46.06127" lon="4.71496">
        <ele>186.100006104</ele>
        <time>2015-12-12T10:02:34.769Z</time>
      </trkpt>
      <trkpt lat="46.06131" lon="4.71505">
        <ele>186.100006104</ele>
        <time>2015-12-12T10:02:35.789Z</time>
      </trkpt>
      <trkpt lat="46.06134" lon="4.71513">
        <ele>186.199996948</ele>
        <time>2015-12-12T10:02:36.769Z</time>
      </trkpt>
      <trkpt lat="46.06139" lon="4.71521">
        <ele>186.300003052</ele>
        <time>2015-12-12T10:02:37.786Z</time>
      </trkpt>
      <trkpt lat="46.06142" lon="4.71529">
        <ele>186.199996948</ele>
        <time>2015-12-12T10:02:38.769Z</time>
      </trkpt>
      <trkpt lat="46.06147" lon="4.71536">
        <ele>186.199996948</ele>
        <time>2015-12-12T10:02:39.785Z</time>
      </trkpt>
      <trkpt lat="46.06151" lon="4.71542">
        <ele>186.199996948</ele>
        <time>2015-12-12T10:02:40.768Z</time>
      </trkpt>
      <trkpt lat="46.06157" lon="4.71549">
        <ele>186</ele>
        <time>2015-12-12T10:02:41.788Z</time>
      </trkpt>
      <trkpt lat="46.06161" lon="4.71556">
        <ele>185.600006104</ele>
        <time>2015-12-12T10:02:42.771Z</time>
      </trkpt>
      <trkpt lat="46.06166" lon="4.71563">
        <ele>185.399993896</ele>
        <time>2015-12-12T10:02:43.787Z</time>
      </trkpt>
      <trkpt lat="46.06171" lon="4.71568">
        <ele>185.100006104</ele>
        <time>2015-12-12T10:02:44.769Z</time>
      </trkpt>
      <trkpt lat="46.06176" lon="4.71574">
        <ele>184.800003052</ele>
        <time>2015-12-12T10:02:45.785Z</time>
      </trkpt>
      <trkpt lat="46.06181" lon="4.7158">
        <ele>184.600006104</ele>
        <time>2015-12-12T10:02:46.768Z</time>
      </trkpt>
      <trkpt lat="46.06185" lon="4.71586">
        <ele>184.5</ele>
        <time>2015-12-12T10:02:47.816Z</time>
      </trkpt>
      <trkpt lat="46.0619" lon="4.71593">
        <ele>184.5</ele>
        <time>2015-12-12T10:02:48.768Z</time>
      </trkpt>
      <trkpt lat="46.06195" lon="4.716">
        <ele>184.300003052</ele>
        <time>2015-12-12T10:02:49.785Z</time>
      </trkpt>
      <trkpt lat="46.06199" lon="4.71608">
        <ele>183.899993896</ele>
        <time>2015-12-12T10:02:50.771Z</time>
      </trkpt>
      <trkpt lat="46.06203" lon="4.71615">
        <ele>183.399993896</ele>
        <time>2015-12-12T10:02:51.785Z</time>
      </trkpt>
      <trkpt lat="46.06208" lon="4.71622">
        <ele>183.199996948</ele>
        <time>2015-12-12T10:02:52.768Z</time>
      </trkpt>
      <trkpt lat="46.06212" lon="4.71629">
        <ele>183.100006104</ele>
        <time>2015-12-12T10:02:53.788Z</time>
      </trkpt>
      <trkpt lat="46.06217" lon="4.71636">
        <ele>183</ele>
        <time>2015-12-12T10:02:54.768Z</time>
      </trkpt>
      <trkpt lat="46.06221" lon="4.71643">
        <ele>182.899993896</ele>
        <time>2015-12-12T10:02:55.786Z</time>
      </trkpt>
      <trkpt lat="46.06225" lon="4.7165">
        <ele>182.899993896</ele>
        <time>2015-12-12T10:02:56.769Z</time>
      </trkpt>
      <trkpt lat="46.06229" lon="4.71658">
        <ele>182.899993896</ele>
        <time>2015-12-12T10:02:57.785Z</time>
      </trkpt>
      <trkpt lat="46.06233" lon="4.71665">
        <ele>182.699996948</ele>
        <time>2015-12-12T10:02:58.768Z</time>
      </trkpt>
      <trkpt lat="46.06237" lon="4.71673">
        <ele>182.600006104</ele>
        <time>2015-12-12T10:02:59.79Z</time>
      </trkpt>
      <trkpt lat="46.0624" lon="4.71681">
        <ele>182.399993896</ele>
        <time>2015-12-12T10:03:00.769Z</time>
      </trkpt>
      <trkpt lat="46.06243" lon="4.71688">
        <ele>182.300003052</ele>
        <time>2015-12-12T10:03:01.786Z</time>
      </trkpt>
      <trkpt lat="46.06245" lon="4.71696">
        <ele>182.199996948</ele>
        <time>2015-12-12T10:03:02.768Z</time>
      </trkpt>
      <trkpt lat="46.06248" lon="4.71705">
        <ele>182.100006104</ele>
        <time>2015-12-12T10:03:03.851Z</time>
      </trkpt>
      <trkpt lat="46.06251" lon="4.71713">
        <ele>182.100006104</ele>
        <time>2015-12-12T10:03:04.768Z</time>
      </trkpt>
      <trkpt lat="46.06253" lon="4.71721">
        <ele>182.100006104</ele>
        <time>2015-12-12T10:03:05.788Z</time>
      </trkpt>
      <trkpt lat="46.06255" lon="4.71729">
        <ele>182.199996948</ele>
        <time>2015-12-12T10:03:06.768Z</time>
      </trkpt>
      <trkpt lat="46.06257" lon="4.71736">
        <ele>182.300003052</ele>
        <time>2015-12-12T10:03:07.785Z</time>
      </trkpt>
      <trkpt lat="46.06261" lon="4.71744">
        <ele>182.199996948</ele>
        <time>2015-12-12T10:03:08.771Z</time>
      </trkpt>
      <trkpt lat="46.06264" lon="4.71752">
        <ele>182.399993896</ele>
        <time>2015-12-12T10:03:09.803Z</time>
      </trkpt>
      <trkpt lat="46.06267" lon="4.7176">
        <ele>182.399993896</ele>
        <time>2015-12-12T10:03:10.768Z</time>
      </trkpt>
      <trkpt lat="46.0627" lon="4.71769">
        <ele>182.600006104</ele>
        <time>2015-12-12T10:03:11.789Z</time>
      </trkpt>
      <trkpt lat="46.06273" lon="4.71778">
        <ele>183</ele>
        <time>2015-12-12T10:03:12.768Z</time>
      </trkpt>
      <trkpt lat="46.06276" lon="4.71787">
        <ele>183.100006104</ele>
        <time>2015-12-12T10:03:13.785Z</time>
      </trkpt>
      <trkpt lat="46.06278" lon="4.71795">
        <ele>182.600006104</ele>
        <time>2015-12-12T10:03:14.768Z</time>
      </trkpt>
      <trkpt lat="46.0628" lon="4.71804">
        <ele>182.600006104</ele>
        <time>2015-12-12T10:03:15.785Z</time>
      </trkpt>
      <trkpt lat="46.06283" lon="4.71814">
        <ele>182.399993896</ele>
        <time>2015-12-12T10:03:16.768Z</time>
      </trkpt>
      <trkpt lat="46.06285" lon="4.71824">
        <ele>182.5</ele>
        <time>2015-12-12T10:03:17.788Z</time>
      </trkpt>
      <trkpt lat="46.06288" lon="4.71833">
        <ele>182.699996948</ele>
        <time>2015-12-12T10:03:18.768Z</time>
      </trkpt>
      <trkpt lat="46.0629" lon="4.71843">
        <ele>182.600006104</ele>
        <time>2015-12-12T10:03:19.809Z</time>
      </trkpt>
      <trkpt lat="46.06292" lon="4.71853">
        <ele>182.699996948</ele>
        <time>2015-12-12T10:03:20.768Z</time>
      </trkpt>
      <trkpt lat="46.06295" lon="4.71863">
        <ele>182.899993896</ele>
        <time>2015-12-12T10:03:21.785Z</time>
      </trkpt>
      <trkpt lat="46.06297" lon="4.71874">
        <ele>182.800003052</ele>
        <time>2015-12-12T10:03:22.768Z</time>
      </trkpt>
      <trkpt lat="46.063" lon="4.71884">
        <ele>182.899993896</ele>
        <time>2015-12-12T10:03:23.788Z</time>
      </trkpt>
      <trkpt lat="46.06302" lon="4.71894">
        <ele>183</ele>
        <time>2015-12-12T10:03:24.768Z</time>
      </trkpt>
      <trkpt lat="46.06305" lon="4.71903">
        <ele>183.100006104</ele>
        <time>2015-12-12T10:03:25.786Z</time>
      </trkpt>
      <trkpt lat="46.06307" lon="4.71912">
        <ele>183.100006104</ele>
        <time>2015-12-12T10:03:26.768Z</time>
      </trkpt>
      <trkpt lat="46.06309" lon="4.7192">
        <ele>183.199996948</ele>
        <time>2015-12-12T10:03:27.785Z</time>
      </trkpt>
      <trkpt lat="46.0631" lon="4.71929">
        <ele>183.300003052</ele>
        <time>2015-12-12T10:03:28.768Z</time>
      </trkpt>
      <trkpt lat="46.06311" lon="4.71936">
        <ele>183</ele>
        <time>2015-12-12T10:03:29.798Z</time>
      </trkpt>
      <trkpt lat="46.06311" lon="4.71943">
        <ele>182.5</ele>
        <time>2015-12-12T10:03:30.768Z</time>
      </trkpt>
      <trkpt lat="46.06313" lon="4.7195">
        <ele>182.5</ele>
        <time>2015-12-12T10:03:31.785Z</time>
      </trkpt>
      <trkpt lat="46.06315" lon="4.71956">
        <ele>182.699996948</ele>
        <time>2015-12-12T10:03:32.768Z</time>
      </trkpt>
      <trkpt lat="46.06317" lon="4.71962">
        <ele>182.800003052</ele>
        <time>2015-12-12T10:03:33.812Z</time>
      </trkpt>
      <trkpt lat="46.06319" lon="4.71969">
        <ele>182.800003052</ele>
        <time>2015-12-12T10:03:34.771Z</time>
      </trkpt>
      <trkpt lat="46.06321" lon="4.71975">
        <ele>182.699996948</ele>
        <time>2015-12-12T10:03:35.807Z</time>
      </trkpt>
      <trkpt lat="46.06323" lon="4.71983">
        <ele>182.699996948</ele>
        <time>2015-12-12T10:03:36.768Z</time>
      </trkpt>
      <trkpt lat="46.06325" lon="4.7199">
        <ele>182.800003052</ele>
        <time>2015-12-12T10:03:37.786Z</time>
      </trkpt>
      <trkpt lat="46.06328" lon="4.71997">
        <ele>182.899993896</ele>
        <time>2015-12-12T10:03:38.768Z</time>
      </trkpt>
      <trkpt lat="46.06331" lon="4.72005">
        <ele>182.699996948</ele>
        <time>2015-12-12T10:03:39.785Z</time>
      </trkpt>
      <trkpt lat="46.06334" lon="4.72012">
        <ele>182.600006104</ele>
        <time>2015-12-12T10:03:40.768Z</time>
      </trkpt>
      <trkpt lat="46.06337" lon="4.7202">
        <ele>182.600006104</ele>
        <time>2015-12-12T10:03:41.789Z</time>
      </trkpt>
      <trkpt lat="46.0634" lon="4.72028">
        <ele>182.5</ele>
        <time>2015-12-12T10:03:42.768Z</time>
      </trkpt>
      <trkpt lat="46.06343" lon="4.72037">
        <ele>182.5</ele>
        <time>2015-12-12T10:03:43.785Z</time>
      </trkpt>
      <trkpt lat="46.06346" lon="4.72045">
        <ele>182.5</ele>
        <time>2015-12-12T10:03:44.768Z</time>
      </trkpt>
      <trkpt lat="46.06348" lon="4.72053">
        <ele>182.600006104</ele>
        <time>2015-12-12T10:03:45.789Z</time>
      </trkpt>
      <trkpt lat="46.06351" lon="4.72061">
        <ele>183</ele>
        <time>2015-12-12T10:03:46.768Z</time>
      </trkpt>
      <trkpt lat="46.06353" lon="4.72069">
        <ele>183.100006104</ele>
        <time>2015-12-12T10:03:47.789Z</time>
      </trkpt>
      <trkpt lat="46.06355" lon="4.72077">
        <ele>183.5</ele>
        <time>2015-12-12T10:03:48.768Z</time>
      </trkpt>
      <trkpt lat="46.06358" lon="4.72085">
        <ele>183.699996948</ele>
        <time>2015-12-12T10:03:49.785Z</time>
      </trkpt>
      <trkpt lat="46.06361" lon="4.72092">
        <ele>184</ele>
        <time>2015-12-12T10:03:50.771Z</time>
      </trkpt>
      <trkpt lat="46.06363" lon="4.721">
        <ele>184.699996948</ele>
        <time>2015-12-12T10:03:51.819Z</time>
      </trkpt>
      <trkpt lat="46.06365" lon="4.72107">
        <ele>185</ele>
        <time>2015-12-12T10:03:52.768Z</time>
      </trkpt>
      <trkpt lat="46.06367" lon="4.72115">
        <ele>185.100006104</ele>
        <time>2015-12-12T10:03:53.789Z</time>
      </trkpt>
      <trkpt lat="46.0637" lon="4.72122">
        <ele>185.300003052</ele>
        <time>2015-12-12T10:03:54.768Z</time>
      </trkpt>
      <trkpt lat="46.06373" lon="4.7213">
        <ele>185.399993896</ele>
        <time>2015-12-12T10:03:55.786Z</time>
      </trkpt>
      <trkpt lat="46.06375" lon="4.72138">
        <ele>185.300003052</ele>
        <time>2015-12-12T10:03:56.768Z</time>
      </trkpt>
      <trkpt lat="46.06378" lon="4.72146">
        <ele>185.600006104</ele>
        <time>2015-12-12T10:03:57.785Z</time>
      </trkpt>
      <trkpt lat="46.0638" lon="4.72154">
        <ele>185.399993896</ele>
        <time>2015-12-12T10:03:58.768Z</time>
      </trkpt>
      <trkpt lat="46.06383" lon="4.72162">
        <ele>185.600006104</ele>
        <time>2015-12-12T10:03:59.788Z</time>
      </trkpt>
      <trkpt lat="46.06385" lon="4.72169">
        <ele>185.600006104</ele>
        <time>2015-12-12T10:04:00.771Z</time>
      </trkpt>
      <trkpt lat="46.06387" lon="4.72175">
        <ele>185.800003052</ele>
        <time>2015-12-12T10:04:01.789Z</time>
      </trkpt>
      <trkpt lat="46.06389" lon="4.72182">
        <ele>185.699996948</ele>
        <time>2015-12-12T10:04:02.77Z</time>
      </trkpt>
      <trkpt lat="46.06391" lon="4.72188">
        <ele>185.5</ele>
        <time>2015-12-12T10:04:03.787Z</time>
      </trkpt>
      <trkpt lat="46.06392" lon="4.72194">
        <ele>185.199996948</ele>
        <time>2015-12-12T10:04:04.77Z</time>
      </trkpt>
      <trkpt lat="46.06394" lon="4.722">
        <ele>185.100006104</ele>
        <time>2015-12-12T10:04:05.789Z</time>
      </trkpt>
      <trkpt lat="46.06396" lon="4.72207">
        <ele>185.100006104</ele>
        <time>2015-12-12T10:04:06.768Z</time>
      </trkpt>
      <trkpt lat="46.06398" lon="4.72214">
        <ele>185</ele>
        <time>2015-12-12T10:04:07.795Z</time>
      </trkpt>
      <trkpt lat="46.064" lon="4.7222">
        <ele>184.899993896</ele>
        <time>2015-12-12T10:04:08.768Z</time>
      </trkpt>
      <trkpt lat="46.06402" lon="4.72226">
        <ele>185.5</ele>
        <time>2015-12-12T10:04:09.786Z</time>
      </trkpt>
      <trkpt lat="46.06404" lon="4.72232">
        <ele>185.600006104</ele>
        <time>2015-12-12T10:04:10.768Z</time>
      </trkpt>
      <trkpt lat="46.06407" lon="4.72244">
        <ele>186.600006104</ele>
        <time>2015-12-12T10:04:12.785Z</time>
      </trkpt>
      <trkpt lat="46.06408" lon="4.72248">
        <ele>186.600006104</ele>
        <time>2015-12-12T10:04:13.83Z</time>
      </trkpt>
      <trkpt lat="46.0641" lon="4.72258">
        <ele>186.300003052</ele>
        <time>2015-12-12T10:04:16.785Z</time>
      </trkpt>
      <trkpt lat="46.0641" lon="4.72263">
        <ele>186</ele>
        <time>2015-12-12T10:04:17.787Z</time>
      </trkpt>
      <trkpt lat="46.06411" lon="4.72272">
        <ele>185.800003052</ele>
        <time>2015-12-12T10:04:19.785Z</time>
      </trkpt>
      <trkpt lat="46.06413" lon="4.72277">
        <ele>186.100006104</ele>
        <time>2015-12-12T10:04:20.768Z</time>
      </trkpt>
      <trkpt lat="46.06418" lon="4.72284">
        <ele>186.399993896</ele>
        <time>2015-12-12T10:04:22.785Z</time>
      </trkpt>
      <trkpt lat="46.06423" lon="4.72285">
        <ele>186.5</ele>
        <time>2015-12-12T10:04:23.772Z</time>
      </trkpt>
      <trkpt lat="46.06427" lon="4.72286">
        <ele>186.5</ele>
        <time>2015-12-12T10:04:24.785Z</time>
      </trkpt>
      <trkpt lat="46.06432" lon="4.72287">
        <ele>186.600006104</ele>
        <time>2015-12-12T10:04:25.769Z</time>
      </trkpt>
      <trkpt lat="46.06437" lon="4.72289">
        <ele>186.600006104</ele>
        <time>2015-12-12T10:04:26.787Z</time>
      </trkpt>
      <trkpt lat="46.06441" lon="4.72293">
        <ele>186.399993896</ele>
        <time>2015-12-12T10:04:27.769Z</time>
      </trkpt>
      <trkpt lat="46.06444" lon="4.72297">
        <ele>186.399993896</ele>
        <time>2015-12-12T10:04:28.784Z</time>
      </trkpt>
      <trkpt lat="46.06446" lon="4.72304">
        <ele>186.300003052</ele>
        <time>2015-12-12T10:04:29.772Z</time>
      </trkpt>
      <trkpt lat="46.06447" lon="4.72311">
        <ele>186.399993896</ele>
        <time>2015-12-12T10:04:30.786Z</time>
      </trkpt>
      <trkpt lat="46.06447" lon="4.72317">
        <ele>186.399993896</ele>
        <time>2015-12-12T10:04:31.769Z</time>
      </trkpt>
      <trkpt lat="46.06445" lon="4.72329">
        <ele>186.600006104</ele>
        <time>2015-12-12T10:04:33.785Z</time>
      </trkpt>
      <trkpt lat="46.06444" lon="4.72335">
        <ele>186.699996948</ele>
        <time>2015-12-12T10:04:34.768Z</time>
      </trkpt>
      <trkpt lat="46.06441" lon="4.72347">
        <ele>186.899993896</ele>
        <time>2015-12-12T10:04:36.785Z</time>
      </trkpt>
      <trkpt lat="46.06439" lon="4.72351">
        <ele>186.899993896</ele>
        <time>2015-12-12T10:04:37.769Z</time>
      </trkpt>
      <trkpt lat="46.06443" lon="4.72357">
        <ele>187.100006104</ele>
        <time>2015-12-12T10:04:38.799Z</time>
      </trkpt>
      <trkpt lat="46.06441" lon="4.72363">
        <ele>187.300003052</ele>
        <time>2015-12-12T10:04:39.768Z</time>
      </trkpt>
      <trkpt lat="46.06439" lon="4.72369">
        <ele>187.5</ele>
        <time>2015-12-12T10:04:40.784Z</time>
      </trkpt>
      <trkpt lat="46.06436" lon="4.72375">
        <ele>187.600006104</ele>
        <time>2015-12-12T10:04:41.772Z</time>
      </trkpt>
      <trkpt lat="46.06434" lon="4.7238">
        <ele>187.899993896</ele>
        <time>2015-12-12T10:04:42.785Z</time>
      </trkpt>
      <trkpt lat="46.06431" lon="4.72386">
        <ele>188.100006104</ele>
        <time>2015-12-12T10:04:43.769Z</time>
      </trkpt>
      <trkpt lat="46.06427" lon="4.72397">
        <ele>188.699996948</ele>
        <time>2015-12-12T10:04:45.784Z</time>
      </trkpt>
      <trkpt lat="46.06425" lon="4.72403">
        <ele>189.199996948</ele>
        <time>2015-12-12T10:04:46.768Z</time>
      </trkpt>
      <trkpt lat="46.06421" lon="4.72415">
        <ele>189.899993896</ele>
        <time>2015-12-12T10:04:48.785Z</time>
      </trkpt>
      <trkpt lat="46.0642" lon="4.7242">
        <ele>190.100006104</ele>
        <time>2015-12-12T10:04:49.769Z</time>
      </trkpt>
      <trkpt lat="46.06416" lon="4.72431">
        <ele>190.5</ele>
        <time>2015-12-12T10:04:51.785Z</time>
      </trkpt>
      <trkpt lat="46.06413" lon="4.72435">
        <ele>190.600006104</ele>
        <time>2015-12-12T10:04:52.771Z</time>
      </trkpt>
      <trkpt lat="46.06409" lon="4.72444">
        <ele>190.600006104</ele>
        <time>2015-12-12T10:04:54.799Z</time>
      </trkpt>
      <trkpt lat="46.06407" lon="4.72448">
        <ele>190.600006104</ele>
        <time>2015-12-12T10:04:55.77Z</time>
      </trkpt>
      <trkpt lat="46.06401" lon="4.72453">
        <ele>190.699996948</ele>
        <time>2015-12-12T10:04:57.786Z</time>
      </trkpt>
      <trkpt lat="46.06399" lon="4.72455">
        <ele>190.800003052</ele>
        <time>2015-12-12T10:04:58.768Z</time>
      </trkpt>
      <trkpt lat="46.06397" lon="4.72461">
        <ele>191</ele>
        <time>2015-12-12T10:05:00.785Z</time>
      </trkpt>
      <trkpt lat="46.06396" lon="4.72463">
        <ele>191.100006104</ele>
        <time>2015-12-12T10:05:01.769Z</time>
      </trkpt>
      <trkpt lat="46.06394" lon="4.72473">
        <ele>191</ele>
        <time>2015-12-12T10:05:08.787Z</time>
      </trkpt>
      <trkpt lat="46.06395" lon="4.72476">
        <ele>190.899993896</ele>
        <time>2015-12-12T10:05:09.768Z</time>
      </trkpt>
      <trkpt lat="46.06398" lon="4.72485">
        <ele>191.100006104</ele>
        <time>2015-12-12T10:05:11.789Z</time>
      </trkpt>
      <trkpt lat="46.06402" lon="4.72492">
        <ele>191.399993896</ele>
        <time>2015-12-12T10:05:12.768Z</time>
      </trkpt>
      <trkpt lat="46.06405" lon="4.72498">
        <ele>191.300003052</ele>
        <time>2015-12-12T10:05:13.785Z</time>
      </trkpt>
      <trkpt lat="46.06406" lon="4.72505">
        <ele>191.399993896</ele>
        <time>2015-12-12T10:05:14.768Z</time>
      </trkpt>
      <trkpt lat="46.06408" lon="4.72514">
        <ele>191.399993896</ele>
        <time>2015-12-12T10:05:15.786Z</time>
      </trkpt>
      <trkpt lat="46.0641" lon="4.72522">
        <ele>191.5</ele>
        <time>2015-12-12T10:05:16.768Z</time>
      </trkpt>
      <trkpt lat="46.06411" lon="4.7253">
        <ele>191.399993896</ele>
        <time>2015-12-12T10:05:17.788Z</time>
      </trkpt>
      <trkpt lat="46.06412" lon="4.72539">
        <ele>191.300003052</ele>
        <time>2015-12-12T10:05:18.771Z</time>
      </trkpt>
      <trkpt lat="46.06413" lon="4.72548">
        <ele>191.300003052</ele>
        <time>2015-12-12T10:05:19.787Z</time>
      </trkpt>
      <trkpt lat="46.06414" lon="4.72557">
        <ele>191.199996948</ele>
        <time>2015-12-12T10:05:20.768Z</time>
      </trkpt>
      <trkpt lat="46.06414" lon="4.72567">
        <ele>190.899993896</ele>
        <time>2015-12-12T10:05:21.787Z</time>
      </trkpt>
      <trkpt lat="46.06415" lon="4.72575">
        <ele>190.800003052</ele>
        <time>2015-12-12T10:05:22.768Z</time>
      </trkpt>
      <trkpt lat="46.06417" lon="4.72584">
        <ele>190.800003052</ele>
        <time>2015-12-12T10:05:23.788Z</time>
      </trkpt>
      <trkpt lat="46.06418" lon="4.72592">
        <ele>190.399993896</ele>
        <time>2015-12-12T10:05:24.768Z</time>
      </trkpt>
      <trkpt lat="46.0642" lon="4.72601">
        <ele>190.199996948</ele>
        <time>2015-12-12T10:05:25.799Z</time>
      </trkpt>
      <trkpt lat="46.06421" lon="4.7261">
        <ele>189.600006104</ele>
        <time>2015-12-12T10:05:26.768Z</time>
      </trkpt>
      <trkpt lat="46.06423" lon="4.72619">
        <ele>188.899993896</ele>
        <time>2015-12-12T10:05:27.785Z</time>
      </trkpt>
      <trkpt lat="46.06425" lon="4.72629">
        <ele>188.899993896</ele>
        <time>2015-12-12T10:05:28.768Z</time>
      </trkpt>
      <trkpt lat="46.06427" lon="4.7264">
        <ele>188.300003052</ele>
        <time>2015-12-12T10:05:29.788Z</time>
      </trkpt>
      <trkpt lat="46.06429" lon="4.7265">
        <ele>188.100006104</ele>
        <time>2015-12-12T10:05:30.768Z</time>
      </trkpt>
      <trkpt lat="46.0643" lon="4.7266">
        <ele>187.600006104</ele>
        <time>2015-12-12T10:05:31.785Z</time>
      </trkpt>
      <trkpt lat="46.06432" lon="4.7267">
        <ele>186.600006104</ele>
        <time>2015-12-12T10:05:32.768Z</time>
      </trkpt>
      <trkpt lat="46.06433" lon="4.72679">
        <ele>186</ele>
        <time>2015-12-12T10:05:33.784Z</time>
      </trkpt>
      <trkpt lat="46.06435" lon="4.72689">
        <ele>185.699996948</ele>
        <time>2015-12-12T10:05:34.769Z</time>
      </trkpt>
      <trkpt lat="46.06438" lon="4.72698">
        <ele>185.300003052</ele>
        <time>2015-12-12T10:05:35.789Z</time>
      </trkpt>
      <trkpt lat="46.0644" lon="4.72708">
        <ele>184.600006104</ele>
        <time>2015-12-12T10:05:36.768Z</time>
      </trkpt>
      <trkpt lat="46.06442" lon="4.72718">
        <ele>184.399993896</ele>
        <time>2015-12-12T10:05:37.786Z</time>
      </trkpt>
      <trkpt lat="46.06443" lon="4.72728">
        <ele>184.199996948</ele>
        <time>2015-12-12T10:05:38.768Z</time>
      </trkpt>
      <trkpt lat="46.06444" lon="4.72739">
        <ele>184.399993896</ele>
        <time>2015-12-12T10:05:39.785Z</time>
      </trkpt>
      <trkpt lat="46.06446" lon="4.72749">
        <ele>184.199996948</ele>
        <time>2015-12-12T10:05:40.768Z</time>
      </trkpt>
      <trkpt lat="46.06447" lon="4.72758">
        <ele>184.199996948</ele>
        <time>2015-12-12T10:05:41.802Z</time>
      </trkpt>
      <trkpt lat="46.06448" lon="4.72768">
        <ele>183.300003052</ele>
        <time>2015-12-12T10:05:42.768Z</time>
      </trkpt>
      <trkpt lat="46.0645" lon="4.72778">
        <ele>183.100006104</ele>
        <time>2015-12-12T10:05:43.785Z</time>
      </trkpt>
      <trkpt lat="46.06451" lon="4.72788">
        <ele>182.899993896</ele>
        <time>2015-12-12T10:05:44.771Z</time>
      </trkpt>
      <trkpt lat="46.06453" lon="4.72798">
        <ele>183</ele>
        <time>2015-12-12T10:05:45.785Z</time>
      </trkpt>
      <trkpt lat="46.06454" lon="4.72808">
        <ele>183.100006104</ele>
        <time>2015-12-12T10:05:46.768Z</time>
      </trkpt>
      <trkpt lat="46.06456" lon="4.72818">
        <ele>183</ele>
        <time>2015-12-12T10:05:47.788Z</time>
      </trkpt>
      <trkpt lat="46.06458" lon="4.72828">
        <ele>182.800003052</ele>
        <time>2015-12-12T10:05:48.768Z</time>
      </trkpt>
      <trkpt lat="46.06459" lon="4.72837">
        <ele>182.899993896</ele>
        <time>2015-12-12T10:05:49.786Z</time>
      </trkpt>
      <trkpt lat="46.06461" lon="4.72847">
        <ele>182.800003052</ele>
        <time>2015-12-12T10:05:50.77Z</time>
      </trkpt>
      <trkpt lat="46.06462" lon="4.72857">
        <ele>182.699996948</ele>
        <time>2015-12-12T10:05:51.785Z</time>
      </trkpt>
      <trkpt lat="46.06464" lon="4.72867">
        <ele>182.699996948</ele>
        <time>2015-12-12T10:05:52.768Z</time>
      </trkpt>
      <trkpt lat="46.06465" lon="4.72877">
        <ele>182.699996948</ele>
        <time>2015-12-12T10:05:53.919Z</time>
      </trkpt>
      <trkpt lat="46.06467" lon="4.72887">
        <ele>182.600006104</ele>
        <time>2015-12-12T10:05:54.768Z</time>
      </trkpt>
      <trkpt lat="46.06468" lon="4.72897">
        <ele>182.800003052</ele>
        <time>2015-12-12T10:05:55.785Z</time>
      </trkpt>
      <trkpt lat="46.0647" lon="4.72906">
        <ele>182.899993896</ele>
        <time>2015-12-12T10:05:56.768Z</time>
      </trkpt>
      <trkpt lat="46.06472" lon="4.72917">
        <ele>183.100006104</ele>
        <time>2015-12-12T10:05:57.8Z</time>
      </trkpt>
      <trkpt lat="46.06474" lon="4.72926">
        <ele>183.100006104</ele>
        <time>2015-12-12T10:05:58.768Z</time>
      </trkpt>
      <trkpt lat="46.06475" lon="4.72934">
        <ele>183.100006104</ele>
        <time>2015-12-12T10:05:59.788Z</time>
      </trkpt>
      <trkpt lat="46.06477" lon="4.72943">
        <ele>183.100006104</ele>
        <time>2015-12-12T10:06:00.768Z</time>
      </trkpt>
      <trkpt lat="46.06479" lon="4.72952">
        <ele>183.100006104</ele>
        <time>2015-12-12T10:06:01.786Z</time>
      </trkpt>
      <trkpt lat="46.06479" lon="4.72961">
        <ele>182.800003052</ele>
        <time>2015-12-12T10:06:02.769Z</time>
      </trkpt>
      <trkpt lat="46.06479" lon="4.7297">
        <ele>182.899993896</ele>
        <time>2015-12-12T10:06:03.785Z</time>
      </trkpt>
      <trkpt lat="46.06478" lon="4.72977">
        <ele>182.899993896</ele>
        <time>2015-12-12T10:06:04.768Z</time>
      </trkpt>
      <trkpt lat="46.06477" lon="4.72985">
        <ele>182.899993896</ele>
        <time>2015-12-12T10:06:05.788Z</time>
      </trkpt>
      <trkpt lat="46.06477" lon="4.72992">
        <ele>182.699996948</ele>
        <time>2015-12-12T10:06:06.768Z</time>
      </trkpt>
      <trkpt lat="46.06481" lon="4.72997">
        <ele>182.300003052</ele>
        <time>2015-12-12T10:06:07.785Z</time>
      </trkpt>
      <trkpt lat="46.06485" lon="4.73002">
        <ele>182.300003052</ele>
        <time>2015-12-12T10:06:08.768Z</time>
      </trkpt>
      <trkpt lat="46.06489" lon="4.73008">
        <ele>182.100006104</ele>
        <time>2015-12-12T10:06:09.784Z</time>
      </trkpt>
      <trkpt lat="46.06493" lon="4.73013">
        <ele>182.199996948</ele>
        <time>2015-12-12T10:06:10.771Z</time>
      </trkpt>
      <trkpt lat="46.06496" lon="4.7302">
        <ele>182.100006104</ele>
        <time>2015-12-12T10:06:11.789Z</time>
      </trkpt>
      <trkpt lat="46.06499" lon="4.73028">
        <ele>182</ele>
        <time>2015-12-12T10:06:12.768Z</time>
      </trkpt>
      <trkpt lat="46.06503" lon="4.73035">
        <ele>182</ele>
        <time>2015-12-12T10:06:13.8Z</time>
      </trkpt>
      <trkpt lat="46.06506" lon="4.73042">
        <ele>182</ele>
        <time>2015-12-12T10:06:14.768Z</time>
      </trkpt>
      <trkpt lat="46.06508" lon="4.7305">
        <ele>182</ele>
        <time>2015-12-12T10:06:15.785Z</time>
      </trkpt>
      <trkpt lat="46.06512" lon="4.73058">
        <ele>182.100006104</ele>
        <time>2015-12-12T10:06:16.768Z</time>
      </trkpt>
      <trkpt lat="46.06515" lon="4.73066">
        <ele>182.199996948</ele>
        <time>2015-12-12T10:06:17.788Z</time>
      </trkpt>
      <trkpt lat="46.06518" lon="4.73075">
        <ele>182.300003052</ele>
        <time>2015-12-12T10:06:18.768Z</time>
      </trkpt>
      <trkpt lat="46.06521" lon="4.73084">
        <ele>182.300003052</ele>
        <time>2015-12-12T10:06:19.785Z</time>
      </trkpt>
      <trkpt lat="46.06524" lon="4.73093">
        <ele>182.800003052</ele>
        <time>2015-12-12T10:06:20.768Z</time>
      </trkpt>
      <trkpt lat="46.06527" lon="4.73102">
        <ele>183.199996948</ele>
        <time>2015-12-12T10:06:21.785Z</time>
      </trkpt>
      <trkpt lat="46.0653" lon="4.73112">
        <ele>183.399993896</ele>
        <time>2015-12-12T10:06:22.768Z</time>
      </trkpt>
      <trkpt lat="46.06534" lon="4.7312">
        <ele>183.399993896</ele>
        <time>2015-12-12T10:06:23.788Z</time>
      </trkpt>
      <trkpt lat="46.06537" lon="4.7313">
        <ele>183.5</ele>
        <time>2015-12-12T10:06:24.769Z</time>
      </trkpt>
      <trkpt lat="46.06539" lon="4.7314">
        <ele>183.600006104</ele>
        <time>2015-12-12T10:06:25.786Z</time>
      </trkpt>
      <trkpt lat="46.06541" lon="4.7315">
        <ele>183.399993896</ele>
        <time>2015-12-12T10:06:26.768Z</time>
      </trkpt>
      <trkpt lat="46.06542" lon="4.73161">
        <ele>183.399993896</ele>
        <time>2015-12-12T10:06:27.784Z</time>
      </trkpt>
      <trkpt lat="46.06543" lon="4.73171">
        <ele>183.399993896</ele>
        <time>2015-12-12T10:06:28.768Z</time>
      </trkpt>
      <trkpt lat="46.06544" lon="4.73181">
        <ele>183.199996948</ele>
        <time>2015-12-12T10:06:29.788Z</time>
      </trkpt>
      <trkpt lat="46.06545" lon="4.73191">
        <ele>183.100006104</ele>
        <time>2015-12-12T10:06:30.768Z</time>
      </trkpt>
      <trkpt lat="46.06547" lon="4.73201">
        <ele>183.100006104</ele>
        <time>2015-12-12T10:06:31.787Z</time>
      </trkpt>
      <trkpt lat="46.06549" lon="4.7321">
        <ele>183.199996948</ele>
        <time>2015-12-12T10:06:32.768Z</time>
      </trkpt>
      <trkpt lat="46.06551" lon="4.7322">
        <ele>183.199996948</ele>
        <time>2015-12-12T10:06:33.785Z</time>
      </trkpt>
      <trkpt lat="46.06555" lon="4.7323">
        <ele>183</ele>
        <time>2015-12-12T10:06:34.769Z</time>
      </trkpt>
      <trkpt lat="46.06558" lon="4.73239">
        <ele>183.100006104</ele>
        <time>2015-12-12T10:06:35.788Z</time>
      </trkpt>
      <trkpt lat="46.06562" lon="4.73249">
        <ele>183.600006104</ele>
        <time>2015-12-12T10:06:36.771Z</time>
      </trkpt>
      <trkpt lat="46.06565" lon="4.73259">
        <ele>183.600006104</ele>
        <time>2015-12-12T10:06:37.787Z</time>
      </trkpt>
      <trkpt lat="46.06569" lon="4.73268">
        <ele>183.600006104</ele>
        <time>2015-12-12T10:06:38.768Z</time>
      </trkpt>
      <trkpt lat="46.06572" lon="4.73277">
        <ele>183.600006104</ele>
        <time>2015-12-12T10:06:39.984Z</time>
      </trkpt>
      <trkpt lat="46.06575" lon="4.73287">
        <ele>183.399993896</ele>
        <time>2015-12-12T10:06:40.768Z</time>
      </trkpt>
      <trkpt lat="46.06576" lon="4.73297">
        <ele>183.199996948</ele>
        <time>2015-12-12T10:06:41.788Z</time>
      </trkpt>
      <trkpt lat="46.06579" lon="4.73307">
        <ele>182.899993896</ele>
        <time>2015-12-12T10:06:42.768Z</time>
      </trkpt>
      <trkpt lat="46.06581" lon="4.73318">
        <ele>182.899993896</ele>
        <time>2015-12-12T10:06:43.785Z</time>
      </trkpt>
      <trkpt lat="46.06583" lon="4.73327">
        <ele>182.5</ele>
        <time>2015-12-12T10:06:44.768Z</time>
      </trkpt>
      <trkpt lat="46.06585" lon="4.73335">
        <ele>182.300003052</ele>
        <time>2015-12-12T10:06:45.791Z</time>
      </trkpt>
      <trkpt lat="46.0659" lon="4.73342">
        <ele>181.800003052</ele>
        <time>2015-12-12T10:06:46.768Z</time>
      </trkpt>
      <trkpt lat="46.06596" lon="4.73348">
        <ele>181.100006104</ele>
        <time>2015-12-12T10:06:47.788Z</time>
      </trkpt>
      <trkpt lat="46.06603" lon="4.73351">
        <ele>180.899993896</ele>
        <time>2015-12-12T10:06:48.777Z</time>
      </trkpt>
      <trkpt lat="46.0661" lon="4.73354">
        <ele>180.699996948</ele>
        <time>2015-12-12T10:06:49.805Z</time>
      </trkpt>
      <trkpt lat="46.06617" lon="4.73357">
        <ele>180.600006104</ele>
        <time>2015-12-12T10:06:50.784Z</time>
      </trkpt>
      <trkpt lat="46.06624" lon="4.73362">
        <ele>180.300003052</ele>
        <time>2015-12-12T10:06:51.784Z</time>
      </trkpt>
      <trkpt lat="46.06631" lon="4.73367">
        <ele>179.800003052</ele>
        <time>2015-12-12T10:06:52.768Z</time>
      </trkpt>
      <trkpt lat="46.06638" lon="4.73372">
        <ele>179.199996948</ele>
        <time>2015-12-12T10:06:53.788Z</time>
      </trkpt>
      <trkpt lat="46.06645" lon="4.73378">
        <ele>179</ele>
        <time>2015-12-12T10:06:54.768Z</time>
      </trkpt>
      <trkpt lat="46.06651" lon="4.73384">
        <ele>178.699996948</ele>
        <time>2015-12-12T10:06:55.803Z</time>
      </trkpt>
      <trkpt lat="46.06656" lon="4.73391">
        <ele>178.5</ele>
        <time>2015-12-12T10:06:56.769Z</time>
      </trkpt>
      <trkpt lat="46.06662" lon="4.73398">
        <ele>178.300003052</ele>
        <time>2015-12-12T10:06:57.784Z</time>
      </trkpt>
      <trkpt lat="46.06666" lon="4.73405">
        <ele>178.300003052</ele>
        <time>2015-12-12T10:06:58.768Z</time>
      </trkpt>
      <trkpt lat="46.06671" lon="4.73412">
        <ele>178.300003052</ele>
        <time>2015-12-12T10:06:59.788Z</time>
      </trkpt>
      <trkpt lat="46.06677" lon="4.73419">
        <ele>178.100006104</ele>
        <time>2015-12-12T10:07:00.769Z</time>
      </trkpt>
      <trkpt lat="46.06682" lon="4.73426">
        <ele>178.399993896</ele>
        <time>2015-12-12T10:07:01.786Z</time>
      </trkpt>
      <trkpt lat="46.06687" lon="4.73433">
        <ele>178.5</ele>
        <time>2015-12-12T10:07:02.771Z</time>
      </trkpt>
      <trkpt lat="46.06692" lon="4.73441">
        <ele>178.399993896</ele>
        <time>2015-12-12T10:07:03.786Z</time>
      </trkpt>
      <trkpt lat="46.06696" lon="4.73449">
        <ele>178.300003052</ele>
        <time>2015-12-12T10:07:04.768Z</time>
      </trkpt>
      <trkpt lat="46.06701" lon="4.73456">
        <ele>178.600006104</ele>
        <time>2015-12-12T10:07:05.788Z</time>
      </trkpt>
      <trkpt lat="46.06706" lon="4.73464">
        <ele>178.5</ele>
        <time>2015-12-12T10:07:06.768Z</time>
      </trkpt>
      <trkpt lat="46.06711" lon="4.73472">
        <ele>177.899993896</ele>
        <time>2015-12-12T10:07:07.785Z</time>
      </trkpt>
      <trkpt lat="46.06716" lon="4.73479">
        <ele>177.5</ele>
        <time>2015-12-12T10:07:08.768Z</time>
      </trkpt>
      <trkpt lat="46.06722" lon="4.73485">
        <ele>177.399993896</ele>
        <time>2015-12-12T10:07:09.785Z</time>
      </trkpt>
      <trkpt lat="46.06727" lon="4.73491">
        <ele>177.300003052</ele>
        <time>2015-12-12T10:07:10.768Z</time>
      </trkpt>
      <trkpt lat="46.06731" lon="4.73499">
        <ele>177.399993896</ele>
        <time>2015-12-12T10:07:11.789Z</time>
      </trkpt>
      <trkpt lat="46.06737" lon="4.73508">
        <ele>177.300003052</ele>
        <time>2015-12-12T10:07:12.768Z</time>
      </trkpt>
      <trkpt lat="46.06741" lon="4.73516">
        <ele>177.5</ele>
        <time>2015-12-12T10:07:13.786Z</time>
      </trkpt>
      <trkpt lat="46.06746" lon="4.73524">
        <ele>177.399993896</ele>
        <time>2015-12-12T10:07:14.768Z</time>
      </trkpt>
      <trkpt lat="46.06751" lon="4.73532">
        <ele>177.199996948</ele>
        <time>2015-12-12T10:07:15.917Z</time>
      </trkpt>
      <trkpt lat="46.06756" lon="4.73539">
        <ele>177.199996948</ele>
        <time>2015-12-12T10:07:16.768Z</time>
      </trkpt>
      <trkpt lat="46.06761" lon="4.73547">
        <ele>177.100006104</ele>
        <time>2015-12-12T10:07:17.788Z</time>
      </trkpt>
      <trkpt lat="46.06765" lon="4.73556">
        <ele>177.5</ele>
        <time>2015-12-12T10:07:18.768Z</time>
      </trkpt>
      <trkpt lat="46.06769" lon="4.73564">
        <ele>177.600006104</ele>
        <time>2015-12-12T10:07:19.785Z</time>
      </trkpt>
      <trkpt lat="46.06773" lon="4.73573">
        <ele>177.699996948</ele>
        <time>2015-12-12T10:07:20.768Z</time>
      </trkpt>
      <trkpt lat="46.06778" lon="4.73581">
        <ele>177.600006104</ele>
        <time>2015-12-12T10:07:21.785Z</time>
      </trkpt>
      <trkpt lat="46.06783" lon="4.73589">
        <ele>177.699996948</ele>
        <time>2015-12-12T10:07:22.788Z</time>
      </trkpt>
      <trkpt lat="46.06788" lon="4.73596">
        <ele>177.800003052</ele>
        <time>2015-12-12T10:07:23.786Z</time>
      </trkpt>
      <trkpt lat="46.06793" lon="4.73603">
        <ele>177.699996948</ele>
        <time>2015-12-12T10:07:24.768Z</time>
      </trkpt>
      <trkpt lat="46.06799" lon="4.7361">
        <ele>177.800003052</ele>
        <time>2015-12-12T10:07:25.786Z</time>
      </trkpt>
      <trkpt lat="46.06804" lon="4.73617">
        <ele>177.800003052</ele>
        <time>2015-12-12T10:07:26.768Z</time>
      </trkpt>
      <trkpt lat="46.06809" lon="4.73624">
        <ele>177.899993896</ele>
        <time>2015-12-12T10:07:27.786Z</time>
      </trkpt>
      <trkpt lat="46.06815" lon="4.7363">
        <ele>178</ele>
        <time>2015-12-12T10:07:28.765Z</time>
      </trkpt>
      <trkpt lat="46.0682" lon="4.73635">
        <ele>178</ele>
        <time>2015-12-12T10:07:29.788Z</time>
      </trkpt>
      <trkpt lat="46.06825" lon="4.73641">
        <ele>178</ele>
        <time>2015-12-12T10:07:30.768Z</time>
      </trkpt>
      <trkpt lat="46.0683" lon="4.73646">
        <ele>177.899993896</ele>
        <time>2015-12-12T10:07:31.801Z</time>
      </trkpt>
      <trkpt lat="46.06835" lon="4.73652">
        <ele>177.899993896</ele>
        <time>2015-12-12T10:07:32.768Z</time>
      </trkpt>
      <trkpt lat="46.0684" lon="4.73657">
        <ele>178</ele>
        <time>2015-12-12T10:07:33.784Z</time>
      </trkpt>
      <trkpt lat="46.06845" lon="4.73663">
        <ele>177.800003052</ele>
        <time>2015-12-12T10:07:34.768Z</time>
      </trkpt>
      <trkpt lat="46.0685" lon="4.73668">
        <ele>177.800003052</ele>
        <time>2015-12-12T10:07:35.787Z</time>
      </trkpt>
      <trkpt lat="46.06855" lon="4.73673">
        <ele>177.600006104</ele>
        <time>2015-12-12T10:07:36.768Z</time>
      </trkpt>
      <trkpt lat="46.06861" lon="4.73678">
        <ele>177.699996948</ele>
        <time>2015-12-12T10:07:37.785Z</time>
      </trkpt>
      <trkpt lat="46.06866" lon="4.73683">
        <ele>177.600006104</ele>
        <time>2015-12-12T10:07:38.767Z</time>
      </trkpt>
      <trkpt lat="46.06872" lon="4.73689">
        <ele>177</ele>
        <time>2015-12-12T10:07:39.784Z</time>
      </trkpt>
      <trkpt lat="46.06877" lon="4.73695">
        <ele>177.100006104</ele>
        <time>2015-12-12T10:07:40.768Z</time>
      </trkpt>
      <trkpt lat="46.06882" lon="4.73701">
        <ele>177</ele>
        <time>2015-12-12T10:07:41.787Z</time>
      </trkpt>
      <trkpt lat="46.06886" lon="4.73707">
        <ele>177</ele>
        <time>2015-12-12T10:07:42.768Z</time>
      </trkpt>
      <trkpt lat="46.0689" lon="4.73714">
        <ele>176.899993896</ele>
        <time>2015-12-12T10:07:43.785Z</time>
      </trkpt>
      <trkpt lat="46.06895" lon="4.7372">
        <ele>177</ele>
        <time>2015-12-12T10:07:44.768Z</time>
      </trkpt>
      <trkpt lat="46.06899" lon="4.73726">
        <ele>176.899993896</ele>
        <time>2015-12-12T10:07:45.785Z</time>
      </trkpt>
      <trkpt lat="46.06902" lon="4.73732">
        <ele>176.800003052</ele>
        <time>2015-12-12T10:07:46.768Z</time>
      </trkpt>
      <trkpt lat="46.06907" lon="4.73739">
        <ele>176.300003052</ele>
        <time>2015-12-12T10:07:47.804Z</time>
      </trkpt>
      <trkpt lat="46.06911" lon="4.73745">
        <ele>176.300003052</ele>
        <time>2015-12-12T10:07:48.768Z</time>
      </trkpt>
      <trkpt lat="46.06916" lon="4.73752">
        <ele>176.300003052</ele>
        <time>2015-12-12T10:07:49.786Z</time>
      </trkpt>
      <trkpt lat="46.0692" lon="4.73758">
        <ele>176.100006104</ele>
        <time>2015-12-12T10:07:50.771Z</time>
      </trkpt>
      <trkpt lat="46.06925" lon="4.73764">
        <ele>176.300003052</ele>
        <time>2015-12-12T10:07:51.784Z</time>
      </trkpt>
      <trkpt lat="46.0693" lon="4.73769">
        <ele>176.699996948</ele>
        <time>2015-12-12T10:07:52.768Z</time>
      </trkpt>
      <trkpt lat="46.06936" lon="4.73773">
        <ele>176.5</ele>
        <time>2015-12-12T10:07:53.788Z</time>
      </trkpt>
      <trkpt lat="46.06943" lon="4.73776">
        <ele>176.399993896</ele>
        <time>2015-12-12T10:07:54.77Z</time>
      </trkpt>
      <trkpt lat="46.06949" lon="4.73779">
        <ele>175.800003052</ele>
        <time>2015-12-12T10:07:55.786Z</time>
      </trkpt>
      <trkpt lat="46.06955" lon="4.73782">
        <ele>175.300003052</ele>
        <time>2015-12-12T10:07:56.768Z</time>
      </trkpt>
      <trkpt lat="46.06962" lon="4.73784">
        <ele>174.899993896</ele>
        <time>2015-12-12T10:07:57.785Z</time>
      </trkpt>
      <trkpt lat="46.06969" lon="4.73786">
        <ele>174.699996948</ele>
        <time>2015-12-12T10:07:58.768Z</time>
      </trkpt>
      <trkpt lat="46.06975" lon="4.73788">
        <ele>174.699996948</ele>
        <time>2015-12-12T10:07:59.788Z</time>
      </trkpt>
      <trkpt lat="46.06982" lon="4.73789">
        <ele>174.600006104</ele>
        <time>2015-12-12T10:08:00.768Z</time>
      </trkpt>
      <trkpt lat="46.06989" lon="4.7379">
        <ele>174.300003052</ele>
        <time>2015-12-12T10:08:01.785Z</time>
      </trkpt>
      <trkpt lat="46.06995" lon="4.73791">
        <ele>174.100006104</ele>
        <time>2015-12-12T10:08:02.768Z</time>
      </trkpt>
      <trkpt lat="46.07002" lon="4.73792">
        <ele>174.100006104</ele>
        <time>2015-12-12T10:08:03.8Z</time>
      </trkpt>
      <trkpt lat="46.07007" lon="4.73793">
        <ele>174</ele>
        <time>2015-12-12T10:08:04.768Z</time>
      </trkpt>
      <trkpt lat="46.07014" lon="4.73794">
        <ele>173.899993896</ele>
        <time>2015-12-12T10:08:05.787Z</time>
      </trkpt>
      <trkpt lat="46.0702" lon="4.73794">
        <ele>174</ele>
        <time>2015-12-12T10:08:06.768Z</time>
      </trkpt>
      <trkpt lat="46.07026" lon="4.73795">
        <ele>174</ele>
        <time>2015-12-12T10:08:07.786Z</time>
      </trkpt>
      <trkpt lat="46.07032" lon="4.73796">
        <ele>174.199996948</ele>
        <time>2015-12-12T10:08:08.768Z</time>
      </trkpt>
      <trkpt lat="46.07039" lon="4.73797">
        <ele>174</ele>
        <time>2015-12-12T10:08:09.785Z</time>
      </trkpt>
      <trkpt lat="46.07045" lon="4.73798">
        <ele>173.5</ele>
        <time>2015-12-12T10:08:10.768Z</time>
      </trkpt>
      <trkpt lat="46.07051" lon="4.73799">
        <ele>173.5</ele>
        <time>2015-12-12T10:08:11.787Z</time>
      </trkpt>
      <trkpt lat="46.07058" lon="4.73801">
        <ele>173.800003052</ele>
        <time>2015-12-12T10:08:12.768Z</time>
      </trkpt>
      <trkpt lat="46.07064" lon="4.73803">
        <ele>173.699996948</ele>
        <time>2015-12-12T10:08:13.784Z</time>
      </trkpt>
      <trkpt lat="46.0707" lon="4.73806">
        <ele>173.699996948</ele>
        <time>2015-12-12T10:08:14.768Z</time>
      </trkpt>
      <trkpt lat="46.07077" lon="4.73808">
        <ele>173.199996948</ele>
        <time>2015-12-12T10:08:15.784Z</time>
      </trkpt>
      <trkpt lat="46.07083" lon="4.73811">
        <ele>173.199996948</ele>
        <time>2015-12-12T10:08:16.768Z</time>
      </trkpt>
      <trkpt lat="46.07089" lon="4.73816">
        <ele>173.300003052</ele>
        <time>2015-12-12T10:08:17.789Z</time>
      </trkpt>
      <trkpt lat="46.07095" lon="4.7382">
        <ele>173.300003052</ele>
        <time>2015-12-12T10:08:18.768Z</time>
      </trkpt>
      <trkpt lat="46.07101" lon="4.73824">
        <ele>173.399993896</ele>
        <time>2015-12-12T10:08:19.8Z</time>
      </trkpt>
      <trkpt lat="46.07107" lon="4.7383">
        <ele>173.199996948</ele>
        <time>2015-12-12T10:08:20.77Z</time>
      </trkpt>
      <trkpt lat="46.07113" lon="4.73837">
        <ele>173.699996948</ele>
        <time>2015-12-12T10:08:21.785Z</time>
      </trkpt>
      <trkpt lat="46.07118" lon="4.73843">
        <ele>173.800003052</ele>
        <time>2015-12-12T10:08:22.768Z</time>
      </trkpt>
      <trkpt lat="46.07123" lon="4.73849">
        <ele>173.800003052</ele>
        <time>2015-12-12T10:08:23.787Z</time>
      </trkpt>
      <trkpt lat="46.07128" lon="4.73856">
        <ele>173.899993896</ele>
        <time>2015-12-12T10:08:24.768Z</time>
      </trkpt>
      <trkpt lat="46.07132" lon="4.73863">
        <ele>173.699996948</ele>
        <time>2015-12-12T10:08:25.785Z</time>
      </trkpt>
      <trkpt lat="46.07137" lon="4.7387">
        <ele>173.600006104</ele>
        <time>2015-12-12T10:08:26.763Z</time>
      </trkpt>
      <trkpt lat="46.07141" lon="4.73878">
        <ele>173.5</ele>
        <time>2015-12-12T10:08:27.8Z</time>
      </trkpt>
      <trkpt lat="46.07145" lon="4.73886">
        <ele>173.300003052</ele>
        <time>2015-12-12T10:08:28.767Z</time>
      </trkpt>
      <trkpt lat="46.07148" lon="4.73894">
        <ele>173.5</ele>
        <time>2015-12-12T10:08:29.787Z</time>
      </trkpt>
      <trkpt lat="46.07151" lon="4.73902">
        <ele>173.199996948</ele>
        <time>2015-12-12T10:08:30.768Z</time>
      </trkpt>
      <trkpt lat="46.07154" lon="4.73911">
        <ele>173.300003052</ele>
        <time>2015-12-12T10:08:31.785Z</time>
      </trkpt>
      <trkpt lat="46.07158" lon="4.7392">
        <ele>173.399993896</ele>
        <time>2015-12-12T10:08:32.768Z</time>
      </trkpt>
      <trkpt lat="46.07161" lon="4.73929">
        <ele>173.5</ele>
        <time>2015-12-12T10:08:33.784Z</time>
      </trkpt>
      <trkpt lat="46.07164" lon="4.73937">
        <ele>173.399993896</ele>
        <time>2015-12-12T10:08:34.768Z</time>
      </trkpt>
      <trkpt lat="46.07167" lon="4.73945">
        <ele>173.300003052</ele>
        <time>2015-12-12T10:08:35.851Z</time>
      </trkpt>
      <trkpt lat="46.07169" lon="4.73954">
        <ele>173.199996948</ele>
        <time>2015-12-12T10:08:36.768Z</time>
      </trkpt>
      <trkpt lat="46.07172" lon="4.73963">
        <ele>173.300003052</ele>
        <time>2015-12-12T10:08:37.785Z</time>
      </trkpt>
      <trkpt lat="46.07175" lon="4.73972">
        <ele>173.300003052</ele>
        <time>2015-12-12T10:08:38.767Z</time>
      </trkpt>
      <trkpt lat="46.07178" lon="4.73981">
        <ele>173.5</ele>
        <time>2015-12-12T10:08:39.784Z</time>
      </trkpt>
      <trkpt lat="46.07181" lon="4.7399">
        <ele>173.800003052</ele>
        <time>2015-12-12T10:08:40.767Z</time>
      </trkpt>
      <trkpt lat="46.07184" lon="4.73997">
        <ele>174.199996948</ele>
        <time>2015-12-12T10:08:41.787Z</time>
      </trkpt>
      <trkpt lat="46.07186" lon="4.74005">
        <ele>174.300003052</ele>
        <time>2015-12-12T10:08:42.767Z</time>
      </trkpt>
      <trkpt lat="46.07189" lon="4.74012">
        <ele>174.399993896</ele>
        <time>2015-12-12T10:08:43.793Z</time>
      </trkpt>
      <trkpt lat="46.07191" lon="4.74018">
        <ele>174.899993896</ele>
        <time>2015-12-12T10:08:44.768Z</time>
      </trkpt>
      <trkpt lat="46.07193" lon="4.74026">
        <ele>175.199996948</ele>
        <time>2015-12-12T10:08:45.784Z</time>
      </trkpt>
      <trkpt lat="46.07195" lon="4.74032">
        <ele>175.600006104</ele>
        <time>2015-12-12T10:08:46.77Z</time>
      </trkpt>
      <trkpt lat="46.07198" lon="4.74037">
        <ele>175.699996948</ele>
        <time>2015-12-12T10:08:47.788Z</time>
      </trkpt>
      <trkpt lat="46.072" lon="4.74043">
        <ele>176.300003052</ele>
        <time>2015-12-12T10:08:48.767Z</time>
      </trkpt>
      <trkpt lat="46.07201" lon="4.74049">
        <ele>176.5</ele>
        <time>2015-12-12T10:08:49.784Z</time>
      </trkpt>
      <trkpt lat="46.07203" lon="4.74056">
        <ele>176.699996948</ele>
        <time>2015-12-12T10:08:50.771Z</time>
      </trkpt>
      <trkpt lat="46.07205" lon="4.74062">
        <ele>176.699996948</ele>
        <time>2015-12-12T10:08:51.798Z</time>
      </trkpt>
      <trkpt lat="46.07207" lon="4.74068">
        <ele>177</ele>
        <time>2015-12-12T10:08:52.768Z</time>
      </trkpt>
      <trkpt lat="46.0721" lon="4.74079">
        <ele>177.399993896</ele>
        <time>2015-12-12T10:08:54.784Z</time>
      </trkpt>
      <trkpt lat="46.07212" lon="4.74085">
        <ele>177.600006104</ele>
        <time>2015-12-12T10:08:55.768Z</time>
      </trkpt>
      <trkpt lat="46.07214" lon="4.74091">
        <ele>178</ele>
        <time>2015-12-12T10:08:56.785Z</time>
      </trkpt>
      <trkpt lat="46.07216" lon="4.74097">
        <ele>178.199996948</ele>
        <time>2015-12-12T10:08:57.768Z</time>
      </trkpt>
      <trkpt lat="46.07218" lon="4.74103">
        <ele>178.300003052</ele>
        <time>2015-12-12T10:08:58.785Z</time>
      </trkpt>
      <trkpt lat="46.0722" lon="4.7411">
        <ele>178.5</ele>
        <time>2015-12-12T10:08:59.77Z</time>
      </trkpt>
      <trkpt lat="46.07222" lon="4.74117">
        <ele>178.699996948</ele>
        <time>2015-12-12T10:09:00.831Z</time>
      </trkpt>
      <trkpt lat="46.07225" lon="4.74123">
        <ele>178.899993896</ele>
        <time>2015-12-12T10:09:01.769Z</time>
      </trkpt>
      <trkpt lat="46.07227" lon="4.7413">
        <ele>179</ele>
        <time>2015-12-12T10:09:02.785Z</time>
      </trkpt>
      <trkpt lat="46.0723" lon="4.74137">
        <ele>178.899993896</ele>
        <time>2015-12-12T10:09:03.768Z</time>
      </trkpt>
      <trkpt lat="46.07232" lon="4.74144">
        <ele>178.699996948</ele>
        <time>2015-12-12T10:09:04.785Z</time>
      </trkpt>
      <trkpt lat="46.07235" lon="4.74151">
        <ele>178.399993896</ele>
        <time>2015-12-12T10:09:05.771Z</time>
      </trkpt>
      <trkpt lat="46.07237" lon="4.74158">
        <ele>178.199996948</ele>
        <time>2015-12-12T10:09:06.785Z</time>
      </trkpt>
      <trkpt lat="46.07239" lon="4.74166">
        <ele>178.100006104</ele>
        <time>2015-12-12T10:09:07.77Z</time>
      </trkpt>
      <trkpt lat="46.07242" lon="4.74173">
        <ele>178</ele>
        <time>2015-12-12T10:09:08.786Z</time>
      </trkpt>
      <trkpt lat="46.07245" lon="4.74181">
        <ele>177.699996948</ele>
        <time>2015-12-12T10:09:09.769Z</time>
      </trkpt>
      <trkpt lat="46.07247" lon="4.74189">
        <ele>177.600006104</ele>
        <time>2015-12-12T10:09:10.786Z</time>
      </trkpt>
      <trkpt lat="46.0725" lon="4.74198">
        <ele>177.5</ele>
        <time>2015-12-12T10:09:11.77Z</time>
      </trkpt>
      <trkpt lat="46.07253" lon="4.74207">
        <ele>177.199996948</ele>
        <time>2015-12-12T10:09:12.918Z</time>
      </trkpt>
      <trkpt lat="46.07256" lon="4.74216">
        <ele>176.699996948</ele>
        <time>2015-12-12T10:09:13.768Z</time>
      </trkpt>
      <trkpt lat="46.0726" lon="4.74226">
        <ele>176.199996948</ele>
        <time>2015-12-12T10:09:14.784Z</time>
      </trkpt>
      <trkpt lat="46.07263" lon="4.74235">
        <ele>175.699996948</ele>
        <time>2015-12-12T10:09:15.768Z</time>
      </trkpt>
      <trkpt lat="46.07263" lon="4.74235">
        <ele>175.699996948</ele>
        <time>2015-12-12T10:09:15.79Z</time>
      </trkpt>
      <trkpt lat="46.07267" lon="4.74247">
        <ele>175.399993896</ele>
        <time>2015-12-12T10:09:16.768Z</time>
      </trkpt>
      <trkpt lat="46.0727" lon="4.74258">
        <ele>175.199996948</ele>
        <time>2015-12-12T10:09:17.788Z</time>
      </trkpt>
      <trkpt lat="46.07274" lon="4.74268">
        <ele>174.899993896</ele>
        <time>2015-12-12T10:09:18.768Z</time>
      </trkpt>
      <trkpt lat="46.07277" lon="4.7428">
        <ele>174.5</ele>
        <time>2015-12-12T10:09:19.785Z</time>
      </trkpt>
      <trkpt lat="46.0728" lon="4.74291">
        <ele>174.199996948</ele>
        <time>2015-12-12T10:09:20.768Z</time>
      </trkpt>
      <trkpt lat="46.07282" lon="4.74303">
        <ele>173.899993896</ele>
        <time>2015-12-12T10:09:21.784Z</time>
      </trkpt>
      <trkpt lat="46.07285" lon="4.74315">
        <ele>173.5</ele>
        <time>2015-12-12T10:09:22.768Z</time>
      </trkpt>
      <trkpt lat="46.07287" lon="4.74326">
        <ele>173.399993896</ele>
        <time>2015-12-12T10:09:23.802Z</time>
      </trkpt>
      <trkpt lat="46.07289" lon="4.74338">
        <ele>173.100006104</ele>
        <time>2015-12-12T10:09:24.78Z</time>
      </trkpt>
      <trkpt lat="46.0729" lon="4.74349">
        <ele>172.800003052</ele>
        <time>2015-12-12T10:09:25.784Z</time>
      </trkpt>
      <trkpt lat="46.07291" lon="4.74361">
        <ele>172.5</ele>
        <time>2015-12-12T10:09:26.768Z</time>
      </trkpt>
      <trkpt lat="46.07292" lon="4.74372">
        <ele>172.5</ele>
        <time>2015-12-12T10:09:27.784Z</time>
      </trkpt>
      <trkpt lat="46.07293" lon="4.74382">
        <ele>172.100006104</ele>
        <time>2015-12-12T10:09:28.767Z</time>
      </trkpt>
      <trkpt lat="46.07294" lon="4.74393">
        <ele>171.699996948</ele>
        <time>2015-12-12T10:09:29.787Z</time>
      </trkpt>
      <trkpt lat="46.07295" lon="4.74402">
        <ele>171.699996948</ele>
        <time>2015-12-12T10:09:30.768Z</time>
      </trkpt>
      <trkpt lat="46.07297" lon="4.74412">
        <ele>171.600006104</ele>
        <time>2015-12-12T10:09:31.79Z</time>
      </trkpt>
      <trkpt lat="46.07298" lon="4.74422">
        <ele>171.5</ele>
        <time>2015-12-12T10:09:32.768Z</time>
      </trkpt>
      <trkpt lat="46.073" lon="4.74431">
        <ele>171.199996948</ele>
        <time>2015-12-12T10:09:33.784Z</time>
      </trkpt>
      <trkpt lat="46.07301" lon="4.74441">
        <ele>171.100006104</ele>
        <time>2015-12-12T10:09:34.768Z</time>
      </trkpt>
      <trkpt lat="46.07304" lon="4.74452">
        <ele>171.199996948</ele>
        <time>2015-12-12T10:09:35.787Z</time>
      </trkpt>
      <trkpt lat="46.07307" lon="4.74461">
        <ele>171.100006104</ele>
        <time>2015-12-12T10:09:36.767Z</time>
      </trkpt>
      <trkpt lat="46.07309" lon="4.74471">
        <ele>171.100006104</ele>
        <time>2015-12-12T10:09:37.784Z</time>
      </trkpt>
      <trkpt lat="46.07313" lon="4.74481">
        <ele>171.199996948</ele>
        <time>2015-12-12T10:09:38.77Z</time>
      </trkpt>
      <trkpt lat="46.07316" lon="4.7449">
        <ele>171.300003052</ele>
        <time>2015-12-12T10:09:39.799Z</time>
      </trkpt>
      <trkpt lat="46.0732" lon="4.74498">
        <ele>171.5</ele>
        <time>2015-12-12T10:09:40.768Z</time>
      </trkpt>
      <trkpt lat="46.07324" lon="4.74506">
        <ele>171.5</ele>
        <time>2015-12-12T10:09:41.787Z</time>
      </trkpt>
      <trkpt lat="46.07328" lon="4.74515">
        <ele>171.600006104</ele>
        <time>2015-12-12T10:09:42.768Z</time>
      </trkpt>
      <trkpt lat="46.07333" lon="4.74523">
        <ele>171.600006104</ele>
        <time>2015-12-12T10:09:43.786Z</time>
      </trkpt>
      <trkpt lat="46.07338" lon="4.7453">
        <ele>171.399993896</ele>
        <time>2015-12-12T10:09:44.768Z</time>
      </trkpt>
      <trkpt lat="46.07343" lon="4.74538">
        <ele>171.800003052</ele>
        <time>2015-12-12T10:09:45.784Z</time>
      </trkpt>
      <trkpt lat="46.07348" lon="4.74546">
        <ele>171.699996948</ele>
        <time>2015-12-12T10:09:46.764Z</time>
      </trkpt>
      <trkpt lat="46.07354" lon="4.74552">
        <ele>171.699996948</ele>
        <time>2015-12-12T10:09:47.797Z</time>
      </trkpt>
      <trkpt lat="46.07359" lon="4.74559">
        <ele>172</ele>
        <time>2015-12-12T10:09:48.768Z</time>
      </trkpt>
      <trkpt lat="46.07364" lon="4.74568">
        <ele>172.199996948</ele>
        <time>2015-12-12T10:09:49.784Z</time>
      </trkpt>
      <trkpt lat="46.07368" lon="4.74578">
        <ele>172.800003052</ele>
        <time>2015-12-12T10:09:50.769Z</time>
      </trkpt>
      <trkpt lat="46.07371" lon="4.74587">
        <ele>173</ele>
        <time>2015-12-12T10:09:51.783Z</time>
      </trkpt>
      <trkpt lat="46.07375" lon="4.74594">
        <ele>173.199996948</ele>
        <time>2015-12-12T10:09:52.767Z</time>
      </trkpt>
      <trkpt lat="46.07378" lon="4.74601">
        <ele>173.300003052</ele>
        <time>2015-12-12T10:09:53.787Z</time>
      </trkpt>
      <trkpt lat="46.07382" lon="4.74609">
        <ele>173</ele>
        <time>2015-12-12T10:09:54.768Z</time>
      </trkpt>
      <trkpt lat="46.07386" lon="4.74616">
        <ele>173.300003052</ele>
        <time>2015-12-12T10:09:55.785Z</time>
      </trkpt>
      <trkpt lat="46.07389" lon="4.74623">
        <ele>173.5</ele>
        <time>2015-12-12T10:09:56.768Z</time>
      </trkpt>
      <trkpt lat="46.07392" lon="4.7463">
        <ele>173.399993896</ele>
        <time>2015-12-12T10:09:57.784Z</time>
      </trkpt>
      <trkpt lat="46.07396" lon="4.74639">
        <ele>173.399993896</ele>
        <time>2015-12-12T10:09:58.767Z</time>
      </trkpt>
      <trkpt lat="46.07399" lon="4.74646">
        <ele>173.5</ele>
        <time>2015-12-12T10:09:59.787Z</time>
      </trkpt>
      <trkpt lat="46.07403" lon="4.74654">
        <ele>173.300003052</ele>
        <time>2015-12-12T10:10:00.912Z</time>
      </trkpt>
      <trkpt lat="46.07407" lon="4.74661">
        <ele>173.399993896</ele>
        <time>2015-12-12T10:10:01.784Z</time>
      </trkpt>
      <trkpt lat="46.07411" lon="4.74668">
        <ele>173.5</ele>
        <time>2015-12-12T10:10:02.767Z</time>
      </trkpt>
      <trkpt lat="46.07415" lon="4.74675">
        <ele>173.600006104</ele>
        <time>2015-12-12T10:10:03.784Z</time>
      </trkpt>
      <trkpt lat="46.07419" lon="4.74682">
        <ele>173.600006104</ele>
        <time>2015-12-12T10:10:04.77Z</time>
      </trkpt>
      <trkpt lat="46.07423" lon="4.74689">
        <ele>173.800003052</ele>
        <time>2015-12-12T10:10:05.788Z</time>
      </trkpt>
      <trkpt lat="46.07427" lon="4.74697">
        <ele>173.899993896</ele>
        <time>2015-12-12T10:10:06.768Z</time>
      </trkpt>
      <trkpt lat="46.07431" lon="4.74705">
        <ele>173.899993896</ele>
        <time>2015-12-12T10:10:07.785Z</time>
      </trkpt>
      <trkpt lat="46.07435" lon="4.74712">
        <ele>174.100006104</ele>
        <time>2015-12-12T10:10:08.762Z</time>
      </trkpt>
      <trkpt lat="46.07439" lon="4.7472">
        <ele>174.399993896</ele>
        <time>2015-12-12T10:10:09.784Z</time>
      </trkpt>
      <trkpt lat="46.07443" lon="4.74728">
        <ele>174.699996948</ele>
        <time>2015-12-12T10:10:10.767Z</time>
      </trkpt>
      <trkpt lat="46.07447" lon="4.74735">
        <ele>174.699996948</ele>
        <time>2015-12-12T10:10:11.802Z</time>
      </trkpt>
      <trkpt lat="46.07451" lon="4.74742">
        <ele>174.600006104</ele>
        <time>2015-12-12T10:10:12.898Z</time>
      </trkpt>
      <trkpt lat="46.07457" lon="4.74749">
        <ele>174.399993896</ele>
        <time>2015-12-12T10:10:13.785Z</time>
      </trkpt>
      <trkpt lat="46.07463" lon="4.74757">
        <ele>173.300003052</ele>
        <time>2015-12-12T10:10:14.767Z</time>
      </trkpt>
      <trkpt lat="46.07468" lon="4.74763">
        <ele>172.899993896</ele>
        <time>2015-12-12T10:10:15.784Z</time>
      </trkpt>
      <trkpt lat="46.07474" lon="4.74768">
        <ele>172.699996948</ele>
        <time>2015-12-12T10:10:16.767Z</time>
      </trkpt>
      <trkpt lat="46.07479" lon="4.74774">
        <ele>172.600006104</ele>
        <time>2015-12-12T10:10:17.787Z</time>
      </trkpt>
      <trkpt lat="46.07485" lon="4.7478">
        <ele>172.100006104</ele>
        <time>2015-12-12T10:10:18.767Z</time>
      </trkpt>
      <trkpt lat="46.07491" lon="4.74785">
        <ele>171.899993896</ele>
        <time>2015-12-12T10:10:19.8Z</time>
      </trkpt>
      <trkpt lat="46.07496" lon="4.7479">
        <ele>172</ele>
        <time>2015-12-12T10:10:20.767Z</time>
      </trkpt>
      <trkpt lat="46.07501" lon="4.74795">
        <ele>171.600006104</ele>
        <time>2015-12-12T10:10:21.785Z</time>
      </trkpt>
      <trkpt lat="46.07506" lon="4.748">
        <ele>171.300003052</ele>
        <time>2015-12-12T10:10:22.767Z</time>
      </trkpt>
      <trkpt lat="46.07512" lon="4.74804">
        <ele>171.199996948</ele>
        <time>2015-12-12T10:10:23.787Z</time>
      </trkpt>
      <trkpt lat="46.07517" lon="4.74809">
        <ele>170.800003052</ele>
        <time>2015-12-12T10:10:24.767Z</time>
      </trkpt>
      <trkpt lat="46.07522" lon="4.74812">
        <ele>170.199996948</ele>
        <time>2015-12-12T10:10:25.785Z</time>
      </trkpt>
      <trkpt lat="46.07527" lon="4.74815">
        <ele>170.100006104</ele>
        <time>2015-12-12T10:10:26.767Z</time>
      </trkpt>
      <trkpt lat="46.07533" lon="4.74819">
        <ele>170</ele>
        <time>2015-12-12T10:10:27.849Z</time>
      </trkpt>
      <trkpt lat="46.07538" lon="4.74823">
        <ele>169.899993896</ele>
        <time>2015-12-12T10:10:28.768Z</time>
      </trkpt>
      <trkpt lat="46.07543" lon="4.74827">
        <ele>169.800003052</ele>
        <time>2015-12-12T10:10:29.787Z</time>
      </trkpt>
      <trkpt lat="46.07549" lon="4.74832">
        <ele>169.899993896</ele>
        <time>2015-12-12T10:10:30.781Z</time>
      </trkpt>
      <trkpt lat="46.07555" lon="4.74836">
        <ele>169.5</ele>
        <time>2015-12-12T10:10:31.785Z</time>
      </trkpt>
      <trkpt lat="46.0756" lon="4.74841">
        <ele>168.800003052</ele>
        <time>2015-12-12T10:10:32.768Z</time>
      </trkpt>
      <trkpt lat="46.07566" lon="4.74845">
        <ele>168.399993896</ele>
        <time>2015-12-12T10:10:33.786Z</time>
      </trkpt>
      <trkpt lat="46.07571" lon="4.74849">
        <ele>167.699996948</ele>
        <time>2015-12-12T10:10:34.768Z</time>
      </trkpt>
      <trkpt lat="46.07576" lon="4.74853">
        <ele>167.5</ele>
        <time>2015-12-12T10:10:35.926Z</time>
      </trkpt>
      <trkpt lat="46.07582" lon="4.74857">
        <ele>166.899993896</ele>
        <time>2015-12-12T10:10:36.768Z</time>
      </trkpt>
      <trkpt lat="46.07587" lon="4.74862">
        <ele>167.5</ele>
        <time>2015-12-12T10:10:37.784Z</time>
      </trkpt>
      <trkpt lat="46.07592" lon="4.74866">
        <ele>167.100006104</ele>
        <time>2015-12-12T10:10:38.764Z</time>
      </trkpt>
      <trkpt lat="46.07597" lon="4.74871">
        <ele>166.699996948</ele>
        <time>2015-12-12T10:10:39.785Z</time>
      </trkpt>
      <trkpt lat="46.07603" lon="4.74875">
        <ele>166.399993896</ele>
        <time>2015-12-12T10:10:40.767Z</time>
      </trkpt>
      <trkpt lat="46.07608" lon="4.7488">
        <ele>166.100006104</ele>
        <time>2015-12-12T10:10:41.787Z</time>
      </trkpt>
      <trkpt lat="46.07614" lon="4.74884">
        <ele>166</ele>
        <time>2015-12-12T10:10:42.767Z</time>
      </trkpt>
      <trkpt lat="46.07619" lon="4.74889">
        <ele>165.800003052</ele>
        <time>2015-12-12T10:10:43.805Z</time>
      </trkpt>
      <trkpt lat="46.07624" lon="4.74893">
        <ele>165.899993896</ele>
        <time>2015-12-12T10:10:44.767Z</time>
      </trkpt>
      <trkpt lat="46.0763" lon="4.74897">
        <ele>165.899993896</ele>
        <time>2015-12-12T10:10:45.784Z</time>
      </trkpt>
      <trkpt lat="46.07635" lon="4.74901">
        <ele>165.699996948</ele>
        <time>2015-12-12T10:10:46.767Z</time>
      </trkpt>
      <trkpt lat="46.0764" lon="4.74905">
        <ele>165.5</ele>
        <time>2015-12-12T10:10:47.787Z</time>
      </trkpt>
      <trkpt lat="46.07645" lon="4.74909">
        <ele>165.300003052</ele>
        <time>2015-12-12T10:10:48.775Z</time>
      </trkpt>
      <trkpt lat="46.0765" lon="4.74914">
        <ele>165.199996948</ele>
        <time>2015-12-12T10:10:49.784Z</time>
      </trkpt>
      <trkpt lat="46.07655" lon="4.74918">
        <ele>165.100006104</ele>
        <time>2015-12-12T10:10:50.77Z</time>
      </trkpt>
      <trkpt lat="46.0766" lon="4.74921">
        <ele>165.199996948</ele>
        <time>2015-12-12T10:10:51.783Z</time>
      </trkpt>
      <trkpt lat="46.07664" lon="4.74925">
        <ele>165.300003052</ele>
        <time>2015-12-12T10:10:52.767Z</time>
      </trkpt>
      <trkpt lat="46.07669" lon="4.74929">
        <ele>165.399993896</ele>
        <time>2015-12-12T10:10:53.787Z</time>
      </trkpt>
      <trkpt lat="46.07674" lon="4.74932">
        <ele>165.300003052</ele>
        <time>2015-12-12T10:10:54.767Z</time>
      </trkpt>
      <trkpt lat="46.07679" lon="4.74936">
        <ele>165.5</ele>
        <time>2015-12-12T10:10:55.785Z</time>
      </trkpt>
      <trkpt lat="46.07684" lon="4.7494">
        <ele>165.600006104</ele>
        <time>2015-12-12T10:10:56.768Z</time>
      </trkpt>
      <trkpt lat="46.07689" lon="4.74944">
        <ele>165.800003052</ele>
        <time>2015-12-12T10:10:57.785Z</time>
      </trkpt>
      <trkpt lat="46.07694" lon="4.74948">
        <ele>165.899993896</ele>
        <time>2015-12-12T10:10:58.767Z</time>
      </trkpt>
      <trkpt lat="46.07699" lon="4.74953">
        <ele>166</ele>
        <time>2015-12-12T10:10:59.787Z</time>
      </trkpt>
      <trkpt lat="46.07704" lon="4.74957">
        <ele>166</ele>
        <time>2015-12-12T10:11:00.901Z</time>
      </trkpt>
      <trkpt lat="46.07708" lon="4.74961">
        <ele>166.300003052</ele>
        <time>2015-12-12T10:11:01.785Z</time>
      </trkpt>
      <trkpt lat="46.07713" lon="4.74964">
        <ele>166.399993896</ele>
        <time>2015-12-12T10:11:02.767Z</time>
      </trkpt>
      <trkpt lat="46.07717" lon="4.74969">
        <ele>166.5</ele>
        <time>2015-12-12T10:11:03.784Z</time>
      </trkpt>
      <trkpt lat="46.07722" lon="4.74973">
        <ele>166.5</ele>
        <time>2015-12-12T10:11:04.768Z</time>
      </trkpt>
      <trkpt lat="46.07727" lon="4.74978">
        <ele>166.399993896</ele>
        <time>2015-12-12T10:11:05.787Z</time>
      </trkpt>
      <trkpt lat="46.07732" lon="4.74982">
        <ele>166.199996948</ele>
        <time>2015-12-12T10:11:06.767Z</time>
      </trkpt>
      <trkpt lat="46.07737" lon="4.74986">
        <ele>166.100006104</ele>
        <time>2015-12-12T10:11:07.8Z</time>
      </trkpt>
      <trkpt lat="46.07743" lon="4.7499">
        <ele>165.699996948</ele>
        <time>2015-12-12T10:11:08.767Z</time>
      </trkpt>
      <trkpt lat="46.07748" lon="4.74995">
        <ele>166</ele>
        <time>2015-12-12T10:11:09.798Z</time>
      </trkpt>
      <trkpt lat="46.07753" lon="4.74999">
        <ele>165.800003052</ele>
        <time>2015-12-12T10:11:10.767Z</time>
      </trkpt>
      <trkpt lat="46.07759" lon="4.75003">
        <ele>165.399993896</ele>
        <time>2015-12-12T10:11:11.787Z</time>
      </trkpt>
      <trkpt lat="46.07763" lon="4.75007">
        <ele>165.100006104</ele>
        <time>2015-12-12T10:11:12.767Z</time>
      </trkpt>
      <trkpt lat="46.07768" lon="4.75011">
        <ele>164.800003052</ele>
        <time>2015-12-12T10:11:13.789Z</time>
      </trkpt>
      <trkpt lat="46.07773" lon="4.75015">
        <ele>164.800003052</ele>
        <time>2015-12-12T10:11:14.767Z</time>
      </trkpt>
      <trkpt lat="46.07778" lon="4.75019">
        <ele>164.699996948</ele>
        <time>2015-12-12T10:11:15.783Z</time>
      </trkpt>
      <trkpt lat="46.07782" lon="4.75022">
        <ele>165</ele>
        <time>2015-12-12T10:11:16.767Z</time>
      </trkpt>
      <trkpt lat="46.07786" lon="4.75026">
        <ele>165.5</ele>
        <time>2015-12-12T10:11:17.807Z</time>
      </trkpt>
      <trkpt lat="46.0779" lon="4.75029">
        <ele>165.300003052</ele>
        <time>2015-12-12T10:11:18.767Z</time>
      </trkpt>
      <trkpt lat="46.07795" lon="4.75033">
        <ele>165.300003052</ele>
        <time>2015-12-12T10:11:19.784Z</time>
      </trkpt>
      <trkpt lat="46.078" lon="4.75037">
        <ele>165.300003052</ele>
        <time>2015-12-12T10:11:20.764Z</time>
      </trkpt>
      <trkpt lat="46.07805" lon="4.75041">
        <ele>165.399993896</ele>
        <time>2015-12-12T10:11:21.784Z</time>
      </trkpt>
      <trkpt lat="46.0781" lon="4.75046">
        <ele>165.399993896</ele>
        <time>2015-12-12T10:11:22.768Z</time>
      </trkpt>
      <trkpt lat="46.07815" lon="4.75051">
        <ele>165.600006104</ele>
        <time>2015-12-12T10:11:23.831Z</time>
      </trkpt>
      <trkpt lat="46.0782" lon="4.75056">
        <ele>165.300003052</ele>
        <time>2015-12-12T10:11:24.767Z</time>
      </trkpt>
      <trkpt lat="46.07825" lon="4.75061">
        <ele>165</ele>
        <time>2015-12-12T10:11:25.798Z</time>
      </trkpt>
      <trkpt lat="46.07829" lon="4.75066">
        <ele>165.199996948</ele>
        <time>2015-12-12T10:11:26.767Z</time>
      </trkpt>
      <trkpt lat="46.07834" lon="4.75072">
        <ele>165</ele>
        <time>2015-12-12T10:11:27.783Z</time>
      </trkpt>
      <trkpt lat="46.07839" lon="4.75078">
        <ele>165.100006104</ele>
        <time>2015-12-12T10:11:28.767Z</time>
      </trkpt>
      <trkpt lat="46.07843" lon="4.75084">
        <ele>165</ele>
        <time>2015-12-12T10:11:29.787Z</time>
      </trkpt>
      <trkpt lat="46.07848" lon="4.75091">
        <ele>165.300003052</ele>
        <time>2015-12-12T10:11:30.767Z</time>
      </trkpt>
      <trkpt lat="46.07852" lon="4.75097">
        <ele>165.5</ele>
        <time>2015-12-12T10:11:31.786Z</time>
      </trkpt>
      <trkpt lat="46.07856" lon="4.75104">
        <ele>165.699996948</ele>
        <time>2015-12-12T10:11:32.767Z</time>
      </trkpt>
      <trkpt lat="46.07859" lon="4.75111">
        <ele>166.100006104</ele>
        <time>2015-12-12T10:11:33.785Z</time>
      </trkpt>
      <trkpt lat="46.07864" lon="4.75118">
        <ele>166.5</ele>
        <time>2015-12-12T10:11:34.768Z</time>
      </trkpt>
      <trkpt lat="46.07868" lon="4.75124">
        <ele>166.800003052</ele>
        <time>2015-12-12T10:11:35.787Z</time>
      </trkpt>
      <trkpt lat="46.07871" lon="4.75131">
        <ele>167</ele>
        <time>2015-12-12T10:11:36.768Z</time>
      </trkpt>
      <trkpt lat="46.07876" lon="4.75138">
        <ele>167.199996948</ele>
        <time>2015-12-12T10:11:37.785Z</time>
      </trkpt>
      <trkpt lat="46.0788" lon="4.75145">
        <ele>166.899993896</ele>
        <time>2015-12-12T10:11:38.767Z</time>
      </trkpt>
      <trkpt lat="46.07884" lon="4.75152">
        <ele>167</ele>
        <time>2015-12-12T10:11:39.796Z</time>
      </trkpt>
      <trkpt lat="46.07888" lon="4.75159">
        <ele>166.899993896</ele>
        <time>2015-12-12T10:11:40.767Z</time>
      </trkpt>
      <trkpt lat="46.07892" lon="4.75166">
        <ele>166.899993896</ele>
        <time>2015-12-12T10:11:41.801Z</time>
      </trkpt>
      <trkpt lat="46.07896" lon="4.75173">
        <ele>167.199996948</ele>
        <time>2015-12-12T10:11:42.767Z</time>
      </trkpt>
      <trkpt lat="46.079" lon="4.7518">
        <ele>167.399993896</ele>
        <time>2015-12-12T10:11:43.785Z</time>
      </trkpt>
      <trkpt lat="46.07904" lon="4.75187">
        <ele>167.300003052</ele>
        <time>2015-12-12T10:11:44.8Z</time>
      </trkpt>
      <trkpt lat="46.07907" lon="4.75194">
        <ele>167.300003052</ele>
        <time>2015-12-12T10:11:45.784Z</time>
      </trkpt>
      <trkpt lat="46.07911" lon="4.752">
        <ele>167.300003052</ele>
        <time>2015-12-12T10:11:46.767Z</time>
      </trkpt>
      <trkpt lat="46.07914" lon="4.75207">
        <ele>166.899993896</ele>
        <time>2015-12-12T10:11:47.787Z</time>
      </trkpt>
      <trkpt lat="46.07917" lon="4.75214">
        <ele>167</ele>
        <time>2015-12-12T10:11:48.767Z</time>
      </trkpt>
      <trkpt lat="46.0792" lon="4.7522">
        <ele>167.100006104</ele>
        <time>2015-12-12T10:11:49.798Z</time>
      </trkpt>
      <trkpt lat="46.07923" lon="4.75226">
        <ele>166.800003052</ele>
        <time>2015-12-12T10:11:50.77Z</time>
      </trkpt>
      <trkpt lat="46.07926" lon="4.75234">
        <ele>166.699996948</ele>
        <time>2015-12-12T10:11:51.784Z</time>
      </trkpt>
      <trkpt lat="46.07929" lon="4.75241">
        <ele>166.600006104</ele>
        <time>2015-12-12T10:11:52.767Z</time>
      </trkpt>
      <trkpt lat="46.07933" lon="4.7525">
        <ele>166.100006104</ele>
        <time>2015-12-12T10:11:53.786Z</time>
      </trkpt>
      <trkpt lat="46.07937" lon="4.75258">
        <ele>165.699996948</ele>
        <time>2015-12-12T10:11:54.767Z</time>
      </trkpt>
      <trkpt lat="46.0794" lon="4.75266">
        <ele>165.800003052</ele>
        <time>2015-12-12T10:11:55.786Z</time>
      </trkpt>
      <trkpt lat="46.07944" lon="4.75273">
        <ele>165.899993896</ele>
        <time>2015-12-12T10:11:56.767Z</time>
      </trkpt>
      <trkpt lat="46.07948" lon="4.75281">
        <ele>165.899993896</ele>
        <time>2015-12-12T10:11:57.799Z</time>
      </trkpt>
      <trkpt lat="46.07951" lon="4.75289">
        <ele>166.100006104</ele>
        <time>2015-12-12T10:11:58.767Z</time>
      </trkpt>
      <trkpt lat="46.07955" lon="4.75297">
        <ele>166.100006104</ele>
        <time>2015-12-12T10:11:59.803Z</time>
      </trkpt>
      <trkpt lat="46.07959" lon="4.75305">
        <ele>165.800003052</ele>
        <time>2015-12-12T10:12:00.767Z</time>
      </trkpt>
      <trkpt lat="46.07962" lon="4.75313">
        <ele>165.899993896</ele>
        <time>2015-12-12T10:12:01.784Z</time>
      </trkpt>
      <trkpt lat="46.07966" lon="4.7532">
        <ele>165.899993896</ele>
        <time>2015-12-12T10:12:02.767Z</time>
      </trkpt>
      <trkpt lat="46.0797" lon="4.75327">
        <ele>165.899993896</ele>
        <time>2015-12-12T10:12:03.784Z</time>
      </trkpt>
      <trkpt lat="46.07974" lon="4.75335">
        <ele>166.100006104</ele>
        <time>2015-12-12T10:12:04.767Z</time>
      </trkpt>
      <trkpt lat="46.07977" lon="4.75343">
        <ele>166.199996948</ele>
        <time>2015-12-12T10:12:05.788Z</time>
      </trkpt>
      <trkpt lat="46.07981" lon="4.7535">
        <ele>166.199996948</ele>
        <time>2015-12-12T10:12:06.767Z</time>
      </trkpt>
      <trkpt lat="46.07985" lon="4.75357">
        <ele>166.100006104</ele>
        <time>2015-12-12T10:12:07.785Z</time>
      </trkpt>
      <trkpt lat="46.07988" lon="4.75365">
        <ele>166.699996948</ele>
        <time>2015-12-12T10:12:08.767Z</time>
      </trkpt>
      <trkpt lat="46.07992" lon="4.75372">
        <ele>166.699996948</ele>
        <time>2015-12-12T10:12:09.795Z</time>
      </trkpt>
      <trkpt lat="46.07995" lon="4.75379">
        <ele>166.800003052</ele>
        <time>2015-12-12T10:12:10.767Z</time>
      </trkpt>
      <trkpt lat="46.07998" lon="4.75385">
        <ele>166.699996948</ele>
        <time>2015-12-12T10:12:11.787Z</time>
      </trkpt>
      <trkpt lat="46.08001" lon="4.75391">
        <ele>166.899993896</ele>
        <time>2015-12-12T10:12:12.767Z</time>
      </trkpt>
      <trkpt lat="46.08004" lon="4.75397">
        <ele>166.800003052</ele>
        <time>2015-12-12T10:12:13.784Z</time>
      </trkpt>
      <trkpt lat="46.08007" lon="4.75404">
        <ele>166.899993896</ele>
        <time>2015-12-12T10:12:14.767Z</time>
      </trkpt>
      <trkpt lat="46.08011" lon="4.75415">
        <ele>169.100006104</ele>
        <time>2015-12-12T10:12:16.783Z</time>
      </trkpt>
      <trkpt lat="46.08014" lon="4.7542">
        <ele>170.199996948</ele>
        <time>2015-12-12T10:12:17.77Z</time>
      </trkpt>
      <trkpt lat="46.08018" lon="4.75431">
        <ele>171.399993896</ele>
        <time>2015-12-12T10:12:19.797Z</time>
      </trkpt>
      <trkpt lat="46.0802" lon="4.75437">
        <ele>171.399993896</ele>
        <time>2015-12-12T10:12:20.767Z</time>
      </trkpt>
      <trkpt lat="46.08026" lon="4.75447">
        <ele>172.300003052</ele>
        <time>2015-12-12T10:12:22.784Z</time>
      </trkpt>
      <trkpt lat="46.08028" lon="4.75452">
        <ele>173</ele>
        <time>2015-12-12T10:12:23.771Z</time>
      </trkpt>
      <trkpt lat="46.0803" lon="4.75458">
        <ele>173.800003052</ele>
        <time>2015-12-12T10:12:24.914Z</time>
      </trkpt>
      <trkpt lat="46.08032" lon="4.75464">
        <ele>174.399993896</ele>
        <time>2015-12-12T10:12:25.768Z</time>
      </trkpt>
      <trkpt lat="46.08037" lon="4.75473">
        <ele>175.5</ele>
        <time>2015-12-12T10:12:27.783Z</time>
      </trkpt>
      <trkpt lat="46.08038" lon="4.75477">
        <ele>176.399993896</ele>
        <time>2015-12-12T10:12:28.767Z</time>
      </trkpt>
      <trkpt lat="46.08043" lon="4.75485">
        <ele>177.5</ele>
        <time>2015-12-12T10:12:30.783Z</time>
      </trkpt>
      <trkpt lat="46.08044" lon="4.75489">
        <ele>178.5</ele>
        <time>2015-12-12T10:12:31.768Z</time>
      </trkpt>
      <trkpt lat="46.08048" lon="4.75497">
        <ele>179.800003052</ele>
        <time>2015-12-12T10:12:33.784Z</time>
      </trkpt>
      <trkpt lat="46.0805" lon="4.75501">
        <ele>179.800003052</ele>
        <time>2015-12-12T10:12:34.767Z</time>
      </trkpt>
      <trkpt lat="46.08054" lon="4.7551">
        <ele>180.699996948</ele>
        <time>2015-12-12T10:12:36.784Z</time>
      </trkpt>
      <trkpt lat="46.08057" lon="4.75516">
        <ele>180.199996948</ele>
        <time>2015-12-12T10:12:37.768Z</time>
      </trkpt>
      <trkpt lat="46.0806" lon="4.75523">
        <ele>179.5</ele>
        <time>2015-12-12T10:12:38.783Z</time>
      </trkpt>
      <trkpt lat="46.08063" lon="4.75529">
        <ele>179.100006104</ele>
        <time>2015-12-12T10:12:39.764Z</time>
      </trkpt>
      <trkpt lat="46.08065" lon="4.75534">
        <ele>178.300003052</ele>
        <time>2015-12-12T10:12:40.783Z</time>
      </trkpt>
      <trkpt lat="46.08068" lon="4.7554">
        <ele>178</ele>
        <time>2015-12-12T10:12:41.77Z</time>
      </trkpt>
      <trkpt lat="46.08071" lon="4.75545">
        <ele>178.100006104</ele>
        <time>2015-12-12T10:12:42.783Z</time>
      </trkpt>
      <trkpt lat="46.08074" lon="4.7555">
        <ele>178.100006104</ele>
        <time>2015-12-12T10:12:43.768Z</time>
      </trkpt>
      <trkpt lat="46.08076" lon="4.75556">
        <ele>178</ele>
        <time>2015-12-12T10:12:44.803Z</time>
      </trkpt>
      <trkpt lat="46.08079" lon="4.75562">
        <ele>178</ele>
        <time>2015-12-12T10:12:45.767Z</time>
      </trkpt>
      <trkpt lat="46.08084" lon="4.75571">
        <ele>178</ele>
        <time>2015-12-12T10:12:47.787Z</time>
      </trkpt>
      <trkpt lat="46.08085" lon="4.75575">
        <ele>178</ele>
        <time>2015-12-12T10:12:48.767Z</time>
      </trkpt>
      <trkpt lat="46.08082" lon="4.75585">
        <ele>177.5</ele>
        <time>2015-12-12T10:12:51.784Z</time>
      </trkpt>
      <trkpt lat="46.08079" lon="4.75588">
        <ele>177.5</ele>
        <time>2015-12-12T10:12:52.767Z</time>
      </trkpt>
      <trkpt lat="46.08072" lon="4.75597">
        <ele>176.699996948</ele>
        <time>2015-12-12T10:12:54.783Z</time>
      </trkpt>
      <trkpt lat="46.08069" lon="4.75601">
        <ele>176.199996948</ele>
        <time>2015-12-12T10:12:55.768Z</time>
      </trkpt>
      <trkpt lat="46.08063" lon="4.75609">
        <ele>175.800003052</ele>
        <time>2015-12-12T10:12:57.784Z</time>
      </trkpt>
      <trkpt lat="46.0806" lon="4.75613">
        <ele>175.899993896</ele>
        <time>2015-12-12T10:12:58.768Z</time>
      </trkpt>
      <trkpt lat="46.08055" lon="4.75621">
        <ele>175.399993896</ele>
        <time>2015-12-12T10:13:01.785Z</time>
      </trkpt>
      <trkpt lat="46.08054" lon="4.75623">
        <ele>175.300003052</ele>
        <time>2015-12-12T10:13:02.768Z</time>
      </trkpt>
      <trkpt lat="46.08053" lon="4.75624">
        <ele>175.100006104</ele>
        <time>2015-12-12T10:13:03.813Z</time>
      </trkpt>
      <trkpt lat="46.08052" lon="4.75625">
        <ele>175.100006104</ele>
        <time>2015-12-12T10:13:04.768Z</time>
      </trkpt>
      <trkpt lat="46.08053" lon="4.75627">
        <ele>174.399993896</ele>
        <time>2015-12-12T10:13:13.79Z</time>
      </trkpt>
      <trkpt lat="46.08053" lon="4.75625">
        <ele>174.199996948</ele>
        <time>2015-12-12T10:13:14.767Z</time>
      </trkpt>
      <trkpt lat="46.08044" lon="4.75628">
        <ele>175.800003052</ele>
        <time>2015-12-12T10:16:21.783Z</time>
      </trkpt>
      <trkpt lat="46.08041" lon="4.75631">
        <ele>176.199996948</ele>
        <time>2015-12-12T10:16:22.766Z</time>
      </trkpt>
      <trkpt lat="46.08036" lon="4.75636">
        <ele>176.800003052</ele>
        <time>2015-12-12T10:16:24.782Z</time>
      </trkpt>
      <trkpt lat="46.08032" lon="4.75639">
        <ele>176.699996948</ele>
        <time>2015-12-12T10:16:25.767Z</time>
      </trkpt>
      <trkpt lat="46.08028" lon="4.75643">
        <ele>176.600006104</ele>
        <time>2015-12-12T10:16:26.782Z</time>
      </trkpt>
      <trkpt lat="46.08025" lon="4.75648">
        <ele>176.399993896</ele>
        <time>2015-12-12T10:16:27.766Z</time>
      </trkpt>
      <trkpt lat="46.08025" lon="4.75658">
        <ele>176.300003052</ele>
        <time>2015-12-12T10:16:29.788Z</time>
      </trkpt>
      <trkpt lat="46.08026" lon="4.75661">
        <ele>176.399993896</ele>
        <time>2015-12-12T10:16:30.766Z</time>
      </trkpt>
      <trkpt lat="46.08029" lon="4.7567">
        <ele>176.5</ele>
        <time>2015-12-12T10:16:32.783Z</time>
      </trkpt>
      <trkpt lat="46.08032" lon="4.75676">
        <ele>176.600006104</ele>
        <time>2015-12-12T10:16:33.766Z</time>
      </trkpt>
      <trkpt lat="46.08035" lon="4.75686">
        <ele>176.600006104</ele>
        <time>2015-12-12T10:16:35.792Z</time>
      </trkpt>
      <trkpt lat="46.08037" lon="4.75691">
        <ele>176.600006104</ele>
        <time>2015-12-12T10:16:36.766Z</time>
      </trkpt>
      <trkpt lat="46.08041" lon="4.75703">
        <ele>176.699996948</ele>
        <time>2015-12-12T10:16:38.782Z</time>
      </trkpt>
      <trkpt lat="46.08043" lon="4.75709">
        <ele>176.800003052</ele>
        <time>2015-12-12T10:16:39.766Z</time>
      </trkpt>
      <trkpt lat="46.08047" lon="4.75719">
        <ele>176.800003052</ele>
        <time>2015-12-12T10:16:41.786Z</time>
      </trkpt>
      <trkpt lat="46.08049" lon="4.75725">
        <ele>176.899993896</ele>
        <time>2015-12-12T10:16:42.766Z</time>
      </trkpt>
      <trkpt lat="46.08052" lon="4.75731">
        <ele>177</ele>
        <time>2015-12-12T10:16:43.783Z</time>
      </trkpt>
      <trkpt lat="46.08054" lon="4.75737">
        <ele>177</ele>
        <time>2015-12-12T10:16:44.766Z</time>
      </trkpt>
      <trkpt lat="46.08057" lon="4.75746">
        <ele>177</ele>
        <time>2015-12-12T10:16:46.782Z</time>
      </trkpt>
      <trkpt lat="46.08059" lon="4.7575">
        <ele>177</ele>
        <time>2015-12-12T10:16:47.769Z</time>
      </trkpt>
      <trkpt lat="46.08062" lon="4.75761">
        <ele>176.800003052</ele>
        <time>2015-12-12T10:16:50.785Z</time>
      </trkpt>
      <trkpt lat="46.08064" lon="4.75765">
        <ele>176.699996948</ele>
        <time>2015-12-12T10:16:51.766Z</time>
      </trkpt>
      <trkpt lat="46.08069" lon="4.75775">
        <ele>176.699996948</ele>
        <time>2015-12-12T10:16:55.786Z</time>
      </trkpt>
      <trkpt lat="46.0807" lon="4.75777">
        <ele>176.399993896</ele>
        <time>2015-12-12T10:16:56.766Z</time>
      </trkpt>
      <trkpt lat="46.08075" lon="4.75786">
        <ele>176.600006104</ele>
        <time>2015-12-12T10:17:00.783Z</time>
      </trkpt>
      <trkpt lat="46.08077" lon="4.75788">
        <ele>176.699996948</ele>
        <time>2015-12-12T10:17:01.768Z</time>
      </trkpt>
      <trkpt lat="46.08078" lon="4.758">
        <ele>177.300003052</ele>
        <time>2015-12-12T10:17:05.786Z</time>
      </trkpt>
      <trkpt lat="46.08077" lon="4.75803">
        <ele>177.5</ele>
        <time>2015-12-12T10:17:06.766Z</time>
      </trkpt>
      <trkpt lat="46.0807" lon="4.75811">
        <ele>178.5</ele>
        <time>2015-12-12T10:17:09.782Z</time>
      </trkpt>
      <trkpt lat="46.08068" lon="4.75814">
        <ele>178.5</ele>
        <time>2015-12-12T10:17:10.766Z</time>
      </trkpt>
      <trkpt lat="46.08063" lon="4.7582">
        <ele>178.399993896</ele>
        <time>2015-12-12T10:17:12.783Z</time>
      </trkpt>
      <trkpt lat="46.0806" lon="4.75822">
        <ele>178.5</ele>
        <time>2015-12-12T10:17:13.767Z</time>
      </trkpt>
      <trkpt lat="46.08053" lon="4.75828">
        <ele>178.800003052</ele>
        <time>2015-12-12T10:17:15.783Z</time>
      </trkpt>
      <trkpt lat="46.08049" lon="4.75831">
        <ele>179.100006104</ele>
        <time>2015-12-12T10:17:16.766Z</time>
      </trkpt>
      <trkpt lat="46.08045" lon="4.75834">
        <ele>179.100006104</ele>
        <time>2015-12-12T10:17:17.796Z</time>
      </trkpt>
      <trkpt lat="46.0804" lon="4.75838">
        <ele>179.199996948</ele>
        <time>2015-12-12T10:17:18.791Z</time>
      </trkpt>
      <trkpt lat="46.08036" lon="4.75841">
        <ele>179.399993896</ele>
        <time>2015-12-12T10:17:19.785Z</time>
      </trkpt>
      <trkpt lat="46.08031" lon="4.75845">
        <ele>179.5</ele>
        <time>2015-12-12T10:17:20.766Z</time>
      </trkpt>
      <trkpt lat="46.08027" lon="4.75849">
        <ele>179.5</ele>
        <time>2015-12-12T10:17:21.785Z</time>
      </trkpt>
      <trkpt lat="46.08023" lon="4.75852">
        <ele>179.800003052</ele>
        <time>2015-12-12T10:17:22.766Z</time>
      </trkpt>
      <trkpt lat="46.08018" lon="4.75854">
        <ele>180.100006104</ele>
        <time>2015-12-12T10:17:23.786Z</time>
      </trkpt>
      <trkpt lat="46.08013" lon="4.75856">
        <ele>180.199996948</ele>
        <time>2015-12-12T10:17:24.779Z</time>
      </trkpt>
      <trkpt lat="46.08009" lon="4.7586">
        <ele>180</ele>
        <time>2015-12-12T10:17:25.784Z</time>
      </trkpt>
      <trkpt lat="46.08005" lon="4.75863">
        <ele>180.100006104</ele>
        <time>2015-12-12T10:17:26.766Z</time>
      </trkpt>
      <trkpt lat="46.08001" lon="4.75866">
        <ele>180.399993896</ele>
        <time>2015-12-12T10:17:27.814Z</time>
      </trkpt>
      <trkpt lat="46.07996" lon="4.7587">
        <ele>180.5</ele>
        <time>2015-12-12T10:17:28.766Z</time>
      </trkpt>
      <trkpt lat="46.07992" lon="4.75873">
        <ele>180.600006104</ele>
        <time>2015-12-12T10:17:29.785Z</time>
      </trkpt>
      <trkpt lat="46.07987" lon="4.75876">
        <ele>180.699996948</ele>
        <time>2015-12-12T10:17:30.766Z</time>
      </trkpt>
      <trkpt lat="46.07981" lon="4.75879">
        <ele>180.699996948</ele>
        <time>2015-12-12T10:17:31.783Z</time>
      </trkpt>
      <trkpt lat="46.07977" lon="4.75883">
        <ele>180.699996948</ele>
        <time>2015-12-12T10:17:32.766Z</time>
      </trkpt>
      <trkpt lat="46.07971" lon="4.75885">
        <ele>180.399993896</ele>
        <time>2015-12-12T10:17:33.783Z</time>
      </trkpt>
      <trkpt lat="46.07966" lon="4.75888">
        <ele>180.199996948</ele>
        <time>2015-12-12T10:17:34.766Z</time>
      </trkpt>
      <trkpt lat="46.07961" lon="4.75892">
        <ele>180.100006104</ele>
        <time>2015-12-12T10:17:35.8Z</time>
      </trkpt>
      <trkpt lat="46.07956" lon="4.75895">
        <ele>180</ele>
        <time>2015-12-12T10:17:36.766Z</time>
      </trkpt>
      <trkpt lat="46.07951" lon="4.75898">
        <ele>179.5</ele>
        <time>2015-12-12T10:17:37.786Z</time>
      </trkpt>
      <trkpt lat="46.07946" lon="4.75901">
        <ele>178.800003052</ele>
        <time>2015-12-12T10:17:38.766Z</time>
      </trkpt>
      <trkpt lat="46.07941" lon="4.75904">
        <ele>177.699996948</ele>
        <time>2015-12-12T10:17:39.925Z</time>
      </trkpt>
      <trkpt lat="46.07937" lon="4.75907">
        <ele>177.5</ele>
        <time>2015-12-12T10:17:40.766Z</time>
      </trkpt>
      <trkpt lat="46.07933" lon="4.75909">
        <ele>177.199996948</ele>
        <time>2015-12-12T10:17:41.785Z</time>
      </trkpt>
      <trkpt lat="46.07927" lon="4.75912">
        <ele>175.699996948</ele>
        <time>2015-12-12T10:17:42.766Z</time>
      </trkpt>
      <trkpt lat="46.07921" lon="4.75915">
        <ele>174.800003052</ele>
        <time>2015-12-12T10:17:43.783Z</time>
      </trkpt>
      <trkpt lat="46.07916" lon="4.75919">
        <ele>173.899993896</ele>
        <time>2015-12-12T10:17:44.766Z</time>
      </trkpt>
      <trkpt lat="46.07912" lon="4.75923">
        <ele>173.399993896</ele>
        <time>2015-12-12T10:17:45.782Z</time>
      </trkpt>
      <trkpt lat="46.07907" lon="4.75927">
        <ele>173</ele>
        <time>2015-12-12T10:17:46.766Z</time>
      </trkpt>
      <trkpt lat="46.07902" lon="4.7593">
        <ele>172.699996948</ele>
        <time>2015-12-12T10:17:47.789Z</time>
      </trkpt>
      <trkpt lat="46.07897" lon="4.75934">
        <ele>172.600006104</ele>
        <time>2015-12-12T10:17:48.766Z</time>
      </trkpt>
      <trkpt lat="46.07891" lon="4.75938">
        <ele>172.600006104</ele>
        <time>2015-12-12T10:17:49.796Z</time>
      </trkpt>
      <trkpt lat="46.07886" lon="4.75942">
        <ele>172.5</ele>
        <time>2015-12-12T10:17:50.767Z</time>
      </trkpt>
      <trkpt lat="46.0788" lon="4.75947">
        <ele>172.399993896</ele>
        <time>2015-12-12T10:17:51.782Z</time>
      </trkpt>
      <trkpt lat="46.07875" lon="4.75951">
        <ele>172.300003052</ele>
        <time>2015-12-12T10:17:52.766Z</time>
      </trkpt>
      <trkpt lat="46.07868" lon="4.75957">
        <ele>172</ele>
        <time>2015-12-12T10:17:53.785Z</time>
      </trkpt>
      <trkpt lat="46.07862" lon="4.75961">
        <ele>171.899993896</ele>
        <time>2015-12-12T10:17:54.766Z</time>
      </trkpt>
      <trkpt lat="46.07855" lon="4.75964">
        <ele>171.800003052</ele>
        <time>2015-12-12T10:17:55.783Z</time>
      </trkpt>
      <trkpt lat="46.07849" lon="4.75967">
        <ele>171.699996948</ele>
        <time>2015-12-12T10:17:56.78Z</time>
      </trkpt>
      <trkpt lat="46.07844" lon="4.75971">
        <ele>171.699996948</ele>
        <time>2015-12-12T10:17:57.783Z</time>
      </trkpt>
      <trkpt lat="46.07838" lon="4.75975">
        <ele>171.600006104</ele>
        <time>2015-12-12T10:17:58.766Z</time>
      </trkpt>
      <trkpt lat="46.07832" lon="4.75979">
        <ele>171.399993896</ele>
        <time>2015-12-12T10:17:59.785Z</time>
      </trkpt>
      <trkpt lat="46.07828" lon="4.75983">
        <ele>171.399993896</ele>
        <time>2015-12-12T10:18:00.766Z</time>
      </trkpt>
      <trkpt lat="46.07823" lon="4.75987">
        <ele>171.300003052</ele>
        <time>2015-12-12T10:18:01.784Z</time>
      </trkpt>
      <trkpt lat="46.0782" lon="4.7599">
        <ele>171.300003052</ele>
        <time>2015-12-12T10:18:02.766Z</time>
      </trkpt>
      <trkpt lat="46.07812" lon="4.75996">
        <ele>171.399993896</ele>
        <time>2015-12-12T10:18:04.788Z</time>
      </trkpt>
      <trkpt lat="46.07808" lon="4.76">
        <ele>171.399993896</ele>
        <time>2015-12-12T10:18:05.769Z</time>
      </trkpt>
      <trkpt lat="46.07803" lon="4.76003">
        <ele>171.300003052</ele>
        <time>2015-12-12T10:18:06.782Z</time>
      </trkpt>
      <trkpt lat="46.07798" lon="4.76006">
        <ele>171.199996948</ele>
        <time>2015-12-12T10:18:07.767Z</time>
      </trkpt>
      <trkpt lat="46.07793" lon="4.7601">
        <ele>171.199996948</ele>
        <time>2015-12-12T10:18:08.828Z</time>
      </trkpt>
      <trkpt lat="46.07788" lon="4.76014">
        <ele>171.199996948</ele>
        <time>2015-12-12T10:18:09.766Z</time>
      </trkpt>
      <trkpt lat="46.07783" lon="4.76018">
        <ele>171.199996948</ele>
        <time>2015-12-12T10:18:10.782Z</time>
      </trkpt>
      <trkpt lat="46.07778" lon="4.76021">
        <ele>171</ele>
        <time>2015-12-12T10:18:11.769Z</time>
      </trkpt>
      <trkpt lat="46.07772" lon="4.76025">
        <ele>171</ele>
        <time>2015-12-12T10:18:12.782Z</time>
      </trkpt>
      <trkpt lat="46.07766" lon="4.76029">
        <ele>171</ele>
        <time>2015-12-12T10:18:13.767Z</time>
      </trkpt>
      <trkpt lat="46.07761" lon="4.76034">
        <ele>171</ele>
        <time>2015-12-12T10:18:14.782Z</time>
      </trkpt>
      <trkpt lat="46.07755" lon="4.76039">
        <ele>171</ele>
        <time>2015-12-12T10:18:15.766Z</time>
      </trkpt>
      <trkpt lat="46.07749" lon="4.76044">
        <ele>171</ele>
        <time>2015-12-12T10:18:16.782Z</time>
      </trkpt>
      <trkpt lat="46.07744" lon="4.7605">
        <ele>171</ele>
        <time>2015-12-12T10:18:17.784Z</time>
      </trkpt>
      <trkpt lat="46.07739" lon="4.76055">
        <ele>170.899993896</ele>
        <time>2015-12-12T10:18:18.783Z</time>
      </trkpt>
      <trkpt lat="46.07735" lon="4.7606">
        <ele>170.699996948</ele>
        <time>2015-12-12T10:18:19.767Z</time>
      </trkpt>
      <trkpt lat="46.0773" lon="4.76065">
        <ele>170.600006104</ele>
        <time>2015-12-12T10:18:20.782Z</time>
      </trkpt>
      <trkpt lat="46.07724" lon="4.7607">
        <ele>170</ele>
        <time>2015-12-12T10:18:21.766Z</time>
      </trkpt>
      <trkpt lat="46.07718" lon="4.76074">
        <ele>169.5</ele>
        <time>2015-12-12T10:18:22.782Z</time>
      </trkpt>
      <trkpt lat="46.07714" lon="4.76079">
        <ele>169.300003052</ele>
        <time>2015-12-12T10:18:23.769Z</time>
      </trkpt>
      <trkpt lat="46.07708" lon="4.76081">
        <ele>169.600006104</ele>
        <time>2015-12-12T10:18:24.783Z</time>
      </trkpt>
      <trkpt lat="46.07702" lon="4.76085">
        <ele>170</ele>
        <time>2015-12-12T10:18:25.767Z</time>
      </trkpt>
      <trkpt lat="46.07697" lon="4.76089">
        <ele>170.399993896</ele>
        <time>2015-12-12T10:18:26.783Z</time>
      </trkpt>
      <trkpt lat="46.07692" lon="4.76094">
        <ele>170.399993896</ele>
        <time>2015-12-12T10:18:27.928Z</time>
      </trkpt>
      <trkpt lat="46.07687" lon="4.76098">
        <ele>170.5</ele>
        <time>2015-12-12T10:18:28.782Z</time>
      </trkpt>
      <trkpt lat="46.07682" lon="4.76102">
        <ele>170.600006104</ele>
        <time>2015-12-12T10:18:29.769Z</time>
      </trkpt>
      <trkpt lat="46.07677" lon="4.76106">
        <ele>170.399993896</ele>
        <time>2015-12-12T10:18:30.788Z</time>
      </trkpt>
      <trkpt lat="46.07673" lon="4.76111">
        <ele>170.600006104</ele>
        <time>2015-12-12T10:18:31.767Z</time>
      </trkpt>
      <trkpt lat="46.07668" lon="4.76116">
        <ele>170.300003052</ele>
        <time>2015-12-12T10:18:32.782Z</time>
      </trkpt>
      <trkpt lat="46.07663" lon="4.7612">
        <ele>170.5</ele>
        <time>2015-12-12T10:18:33.766Z</time>
      </trkpt>
      <trkpt lat="46.07658" lon="4.76124">
        <ele>170.199996948</ele>
        <time>2015-12-12T10:18:34.782Z</time>
      </trkpt>
      <trkpt lat="46.07653" lon="4.76129">
        <ele>170.300003052</ele>
        <time>2015-12-12T10:18:35.769Z</time>
      </trkpt>
      <trkpt lat="46.07649" lon="4.76134">
        <ele>170.600006104</ele>
        <time>2015-12-12T10:18:36.782Z</time>
      </trkpt>
      <trkpt lat="46.07644" lon="4.76138">
        <ele>171.199996948</ele>
        <time>2015-12-12T10:18:37.768Z</time>
      </trkpt>
      <trkpt lat="46.07639" lon="4.76144">
        <ele>170.800003052</ele>
        <time>2015-12-12T10:18:38.797Z</time>
      </trkpt>
      <trkpt lat="46.07634" lon="4.7615">
        <ele>170.5</ele>
        <time>2015-12-12T10:18:39.766Z</time>
      </trkpt>
      <trkpt lat="46.07629" lon="4.76155">
        <ele>170.699996948</ele>
        <time>2015-12-12T10:18:40.782Z</time>
      </trkpt>
      <trkpt lat="46.07624" lon="4.7616">
        <ele>171</ele>
        <time>2015-12-12T10:18:41.769Z</time>
      </trkpt>
      <trkpt lat="46.07618" lon="4.76165">
        <ele>171.100006104</ele>
        <time>2015-12-12T10:18:42.782Z</time>
      </trkpt>
      <trkpt lat="46.07613" lon="4.7617">
        <ele>171</ele>
        <time>2015-12-12T10:18:43.768Z</time>
      </trkpt>
      <trkpt lat="46.07608" lon="4.76176">
        <ele>170.800003052</ele>
        <time>2015-12-12T10:18:44.782Z</time>
      </trkpt>
      <trkpt lat="46.07603" lon="4.76181">
        <ele>170.699996948</ele>
        <time>2015-12-12T10:18:45.766Z</time>
      </trkpt>
      <trkpt lat="46.07598" lon="4.76186">
        <ele>170</ele>
        <time>2015-12-12T10:18:46.782Z</time>
      </trkpt>
      <trkpt lat="46.07593" lon="4.76192">
        <ele>169.800003052</ele>
        <time>2015-12-12T10:18:47.769Z</time>
      </trkpt>
      <trkpt lat="46.07588" lon="4.76197">
        <ele>169.600006104</ele>
        <time>2015-12-12T10:18:48.782Z</time>
      </trkpt>
      <trkpt lat="46.07583" lon="4.76202">
        <ele>169.600006104</ele>
        <time>2015-12-12T10:18:49.767Z</time>
      </trkpt>
      <trkpt lat="46.07578" lon="4.76207">
        <ele>169.5</ele>
        <time>2015-12-12T10:18:50.787Z</time>
      </trkpt>
      <trkpt lat="46.07573" lon="4.76212">
        <ele>169.300003052</ele>
        <time>2015-12-12T10:18:51.766Z</time>
      </trkpt>
      <trkpt lat="46.07568" lon="4.76218">
        <ele>169.100006104</ele>
        <time>2015-12-12T10:18:52.782Z</time>
      </trkpt>
      <trkpt lat="46.07563" lon="4.76223">
        <ele>168.899993896</ele>
        <time>2015-12-12T10:18:53.769Z</time>
      </trkpt>
      <trkpt lat="46.07558" lon="4.76229">
        <ele>168.800003052</ele>
        <time>2015-12-12T10:18:54.797Z</time>
      </trkpt>
      <trkpt lat="46.07553" lon="4.76233">
        <ele>168.600006104</ele>
        <time>2015-12-12T10:18:55.767Z</time>
      </trkpt>
      <trkpt lat="46.07548" lon="4.76238">
        <ele>168.699996948</ele>
        <time>2015-12-12T10:18:56.784Z</time>
      </trkpt>
      <trkpt lat="46.07544" lon="4.76243">
        <ele>168.600006104</ele>
        <time>2015-12-12T10:18:57.766Z</time>
      </trkpt>
      <trkpt lat="46.07539" lon="4.76249">
        <ele>168.5</ele>
        <time>2015-12-12T10:18:58.782Z</time>
      </trkpt>
      <trkpt lat="46.07533" lon="4.76254">
        <ele>168.399993896</ele>
        <time>2015-12-12T10:18:59.769Z</time>
      </trkpt>
      <trkpt lat="46.07529" lon="4.7626">
        <ele>168.199996948</ele>
        <time>2015-12-12T10:19:00.782Z</time>
      </trkpt>
      <trkpt lat="46.07524" lon="4.76265">
        <ele>168</ele>
        <time>2015-12-12T10:19:01.767Z</time>
      </trkpt>
      <trkpt lat="46.07519" lon="4.76271">
        <ele>167.800003052</ele>
        <time>2015-12-12T10:19:02.782Z</time>
      </trkpt>
      <trkpt lat="46.07514" lon="4.76276">
        <ele>167.5</ele>
        <time>2015-12-12T10:19:03.91Z</time>
      </trkpt>
      <trkpt lat="46.0751" lon="4.76282">
        <ele>167.199996948</ele>
        <time>2015-12-12T10:19:04.782Z</time>
      </trkpt>
      <trkpt lat="46.07505" lon="4.76287">
        <ele>167</ele>
        <time>2015-12-12T10:19:05.769Z</time>
      </trkpt>
      <trkpt lat="46.07501" lon="4.76293">
        <ele>166.600006104</ele>
        <time>2015-12-12T10:19:06.782Z</time>
      </trkpt>
      <trkpt lat="46.07497" lon="4.76298">
        <ele>166.399993896</ele>
        <time>2015-12-12T10:19:07.767Z</time>
      </trkpt>
      <trkpt lat="46.07492" lon="4.76303">
        <ele>166.100006104</ele>
        <time>2015-12-12T10:19:08.783Z</time>
      </trkpt>
      <trkpt lat="46.07487" lon="4.76306">
        <ele>165.899993896</ele>
        <time>2015-12-12T10:19:09.766Z</time>
      </trkpt>
      <trkpt lat="46.07482" lon="4.76308">
        <ele>166</ele>
        <time>2015-12-12T10:19:10.797Z</time>
      </trkpt>
      <trkpt lat="46.07476" lon="4.7631">
        <ele>165.800003052</ele>
        <time>2015-12-12T10:19:11.769Z</time>
      </trkpt>
      <trkpt lat="46.07471" lon="4.76313">
        <ele>166.100006104</ele>
        <time>2015-12-12T10:19:12.782Z</time>
      </trkpt>
      <trkpt lat="46.07466" lon="4.76318">
        <ele>166.399993896</ele>
        <time>2015-12-12T10:19:13.767Z</time>
      </trkpt>
      <trkpt lat="46.07463" lon="4.76324">
        <ele>166.300003052</ele>
        <time>2015-12-12T10:19:14.783Z</time>
      </trkpt>
      <trkpt lat="46.0746" lon="4.76331">
        <ele>166.5</ele>
        <time>2015-12-12T10:19:15.766Z</time>
      </trkpt>
      <trkpt lat="46.07457" lon="4.76338">
        <ele>166.5</ele>
        <time>2015-12-12T10:19:16.784Z</time>
      </trkpt>
      <trkpt lat="46.07453" lon="4.76344">
        <ele>166.899993896</ele>
        <time>2015-12-12T10:19:17.77Z</time>
      </trkpt>
      <trkpt lat="46.07449" lon="4.76349">
        <ele>167.199996948</ele>
        <time>2015-12-12T10:19:18.784Z</time>
      </trkpt>
      <trkpt lat="46.07444" lon="4.76353">
        <ele>167.5</ele>
        <time>2015-12-12T10:19:19.768Z</time>
      </trkpt>
      <trkpt lat="46.0744" lon="4.76357">
        <ele>167.5</ele>
        <time>2015-12-12T10:19:20.784Z</time>
      </trkpt>
      <trkpt lat="46.07435" lon="4.76362">
        <ele>167.699996948</ele>
        <time>2015-12-12T10:19:21.766Z</time>
      </trkpt>
      <trkpt lat="46.0743" lon="4.76367">
        <ele>167.5</ele>
        <time>2015-12-12T10:19:22.782Z</time>
      </trkpt>
      <trkpt lat="46.07425" lon="4.76372">
        <ele>167.600006104</ele>
        <time>2015-12-12T10:19:23.769Z</time>
      </trkpt>
      <trkpt lat="46.07421" lon="4.76377">
        <ele>167.5</ele>
        <time>2015-12-12T10:19:24.783Z</time>
      </trkpt>
      <trkpt lat="46.07416" lon="4.76382">
        <ele>167.300003052</ele>
        <time>2015-12-12T10:19:25.767Z</time>
      </trkpt>
      <trkpt lat="46.07412" lon="4.76387">
        <ele>167.100006104</ele>
        <time>2015-12-12T10:19:26.796Z</time>
      </trkpt>
      <trkpt lat="46.07407" lon="4.76392">
        <ele>166.699996948</ele>
        <time>2015-12-12T10:19:27.766Z</time>
      </trkpt>
      <trkpt lat="46.07402" lon="4.76397">
        <ele>166.699996948</ele>
        <time>2015-12-12T10:19:28.917Z</time>
      </trkpt>
      <trkpt lat="46.07397" lon="4.76402">
        <ele>166.600006104</ele>
        <time>2015-12-12T10:19:29.769Z</time>
      </trkpt>
      <trkpt lat="46.07392" lon="4.76407">
        <ele>166.5</ele>
        <time>2015-12-12T10:19:30.782Z</time>
      </trkpt>
      <trkpt lat="46.07388" lon="4.76413">
        <ele>166.399993896</ele>
        <time>2015-12-12T10:19:31.763Z</time>
      </trkpt>
      <trkpt lat="46.07383" lon="4.76417">
        <ele>166.399993896</ele>
        <time>2015-12-12T10:19:32.782Z</time>
      </trkpt>
      <trkpt lat="46.07379" lon="4.76422">
        <ele>166.399993896</ele>
        <time>2015-12-12T10:19:33.766Z</time>
      </trkpt>
      <trkpt lat="46.07374" lon="4.76427">
        <ele>166.300003052</ele>
        <time>2015-12-12T10:19:34.782Z</time>
      </trkpt>
      <trkpt lat="46.0737" lon="4.76431">
        <ele>166.300003052</ele>
        <time>2015-12-12T10:19:35.769Z</time>
      </trkpt>
      <trkpt lat="46.07366" lon="4.76436">
        <ele>166.300003052</ele>
        <time>2015-12-12T10:19:36.789Z</time>
      </trkpt>
      <trkpt lat="46.07361" lon="4.76441">
        <ele>166.5</ele>
        <time>2015-12-12T10:19:37.768Z</time>
      </trkpt>
      <trkpt lat="46.07357" lon="4.76446">
        <ele>166.699996948</ele>
        <time>2015-12-12T10:19:38.782Z</time>
      </trkpt>
      <trkpt lat="46.07353" lon="4.76451">
        <ele>166.5</ele>
        <time>2015-12-12T10:19:39.766Z</time>
      </trkpt>
      <trkpt lat="46.07348" lon="4.76456">
        <ele>166.600006104</ele>
        <time>2015-12-12T10:19:40.783Z</time>
      </trkpt>
      <trkpt lat="46.07344" lon="4.76461">
        <ele>166.5</ele>
        <time>2015-12-12T10:19:41.769Z</time>
      </trkpt>
      <trkpt lat="46.07339" lon="4.76466">
        <ele>166.399993896</ele>
        <time>2015-12-12T10:19:42.783Z</time>
      </trkpt>
      <trkpt lat="46.07334" lon="4.7647">
        <ele>166.300003052</ele>
        <time>2015-12-12T10:19:43.767Z</time>
      </trkpt>
      <trkpt lat="46.0733" lon="4.76475">
        <ele>166.399993896</ele>
        <time>2015-12-12T10:19:44.782Z</time>
      </trkpt>
      <trkpt lat="46.07325" lon="4.7648">
        <ele>166.800003052</ele>
        <time>2015-12-12T10:19:45.766Z</time>
      </trkpt>
      <trkpt lat="46.07321" lon="4.76484">
        <ele>167</ele>
        <time>2015-12-12T10:19:46.782Z</time>
      </trkpt>
      <trkpt lat="46.07316" lon="4.76489">
        <ele>167.300003052</ele>
        <time>2015-12-12T10:19:47.784Z</time>
      </trkpt>
      <trkpt lat="46.07312" lon="4.76494">
        <ele>167.399993896</ele>
        <time>2015-12-12T10:19:48.783Z</time>
      </trkpt>
      <trkpt lat="46.07307" lon="4.76499">
        <ele>167.699996948</ele>
        <time>2015-12-12T10:19:49.768Z</time>
      </trkpt>
      <trkpt lat="46.07302" lon="4.76504">
        <ele>168.100006104</ele>
        <time>2015-12-12T10:19:50.784Z</time>
      </trkpt>
      <trkpt lat="46.07298" lon="4.76508">
        <ele>168.300003052</ele>
        <time>2015-12-12T10:19:51.765Z</time>
      </trkpt>
      <trkpt lat="46.07293" lon="4.76513">
        <ele>168.100006104</ele>
        <time>2015-12-12T10:19:52.782Z</time>
      </trkpt>
      <trkpt lat="46.07288" lon="4.76518">
        <ele>168.300003052</ele>
        <time>2015-12-12T10:19:53.769Z</time>
      </trkpt>
      <trkpt lat="46.07284" lon="4.76523">
        <ele>168.800003052</ele>
        <time>2015-12-12T10:19:54.782Z</time>
      </trkpt>
      <trkpt lat="46.07279" lon="4.76527">
        <ele>169.100006104</ele>
        <time>2015-12-12T10:19:55.762Z</time>
      </trkpt>
      <trkpt lat="46.07274" lon="4.76532">
        <ele>169.100006104</ele>
        <time>2015-12-12T10:19:56.782Z</time>
      </trkpt>
      <trkpt lat="46.07269" lon="4.76537">
        <ele>168.800003052</ele>
        <time>2015-12-12T10:19:57.767Z</time>
      </trkpt>
      <trkpt lat="46.07264" lon="4.76542">
        <ele>168.300003052</ele>
        <time>2015-12-12T10:19:58.782Z</time>
      </trkpt>
      <trkpt lat="46.07259" lon="4.76547">
        <ele>167.899993896</ele>
        <time>2015-12-12T10:19:59.769Z</time>
      </trkpt>
      <trkpt lat="46.07255" lon="4.76553">
        <ele>167.699996948</ele>
        <time>2015-12-12T10:20:00.784Z</time>
      </trkpt>
      <trkpt lat="46.0725" lon="4.76559">
        <ele>167.699996948</ele>
        <time>2015-12-12T10:20:01.767Z</time>
      </trkpt>
      <trkpt lat="46.07246" lon="4.76564">
        <ele>167.600006104</ele>
        <time>2015-12-12T10:20:02.783Z</time>
      </trkpt>
      <trkpt lat="46.07241" lon="4.7657">
        <ele>167.5</ele>
        <time>2015-12-12T10:20:03.766Z</time>
      </trkpt>
      <trkpt lat="46.07237" lon="4.76575">
        <ele>167.600006104</ele>
        <time>2015-12-12T10:20:04.782Z</time>
      </trkpt>
      <trkpt lat="46.07232" lon="4.76581">
        <ele>167.5</ele>
        <time>2015-12-12T10:20:05.769Z</time>
      </trkpt>
      <trkpt lat="46.07228" lon="4.76587">
        <ele>167.5</ele>
        <time>2015-12-12T10:20:06.782Z</time>
      </trkpt>
      <trkpt lat="46.07223" lon="4.76593">
        <ele>167.399993896</ele>
        <time>2015-12-12T10:20:07.768Z</time>
      </trkpt>
      <trkpt lat="46.07219" lon="4.766">
        <ele>167.199996948</ele>
        <time>2015-12-12T10:20:08.801Z</time>
      </trkpt>
      <trkpt lat="46.07214" lon="4.76606">
        <ele>167.100006104</ele>
        <time>2015-12-12T10:20:09.766Z</time>
      </trkpt>
      <trkpt lat="46.0721" lon="4.76612">
        <ele>167.100006104</ele>
        <time>2015-12-12T10:20:10.782Z</time>
      </trkpt>
      <trkpt lat="46.07206" lon="4.76618">
        <ele>167.100006104</ele>
        <time>2015-12-12T10:20:11.769Z</time>
      </trkpt>
      <trkpt lat="46.07201" lon="4.76624">
        <ele>167</ele>
        <time>2015-12-12T10:20:12.783Z</time>
      </trkpt>
      <trkpt lat="46.07197" lon="4.76631">
        <ele>166.899993896</ele>
        <time>2015-12-12T10:20:13.767Z</time>
      </trkpt>
      <trkpt lat="46.07192" lon="4.76637">
        <ele>166.899993896</ele>
        <time>2015-12-12T10:20:14.782Z</time>
      </trkpt>
      <trkpt lat="46.07188" lon="4.76644">
        <ele>166.800003052</ele>
        <time>2015-12-12T10:20:15.766Z</time>
      </trkpt>
      <trkpt lat="46.07184" lon="4.7665">
        <ele>166.899993896</ele>
        <time>2015-12-12T10:20:16.966Z</time>
      </trkpt>
      <trkpt lat="46.0718" lon="4.76658">
        <ele>166.800003052</ele>
        <time>2015-12-12T10:20:17.77Z</time>
      </trkpt>
      <trkpt lat="46.07176" lon="4.76665">
        <ele>166.699996948</ele>
        <time>2015-12-12T10:20:18.782Z</time>
      </trkpt>
      <trkpt lat="46.07173" lon="4.76672">
        <ele>166.5</ele>
        <time>2015-12-12T10:20:19.764Z</time>
      </trkpt>
      <trkpt lat="46.07169" lon="4.7668">
        <ele>166.600006104</ele>
        <time>2015-12-12T10:20:20.783Z</time>
      </trkpt>
      <trkpt lat="46.07165" lon="4.76687">
        <ele>166.600006104</ele>
        <time>2015-12-12T10:20:21.766Z</time>
      </trkpt>
      <trkpt lat="46.07161" lon="4.76695">
        <ele>166.5</ele>
        <time>2015-12-12T10:20:22.782Z</time>
      </trkpt>
      <trkpt lat="46.07158" lon="4.76702">
        <ele>166.399993896</ele>
        <time>2015-12-12T10:20:23.769Z</time>
      </trkpt>
      <trkpt lat="46.07154" lon="4.76709">
        <ele>166.399993896</ele>
        <time>2015-12-12T10:20:24.798Z</time>
      </trkpt>
      <trkpt lat="46.07151" lon="4.76715">
        <ele>166.399993896</ele>
        <time>2015-12-12T10:20:25.767Z</time>
      </trkpt>
      <trkpt lat="46.07147" lon="4.76722">
        <ele>166.399993896</ele>
        <time>2015-12-12T10:20:26.783Z</time>
      </trkpt>
      <trkpt lat="46.07144" lon="4.76728">
        <ele>166.300003052</ele>
        <time>2015-12-12T10:20:27.765Z</time>
      </trkpt>
      <trkpt lat="46.0714" lon="4.76735">
        <ele>166.300003052</ele>
        <time>2015-12-12T10:20:28.781Z</time>
      </trkpt>
      <trkpt lat="46.07137" lon="4.76741">
        <ele>166.300003052</ele>
        <time>2015-12-12T10:20:29.769Z</time>
      </trkpt>
      <trkpt lat="46.07134" lon="4.76747">
        <ele>166.199996948</ele>
        <time>2015-12-12T10:20:30.782Z</time>
      </trkpt>
      <trkpt lat="46.07131" lon="4.76754">
        <ele>166.199996948</ele>
        <time>2015-12-12T10:20:31.764Z</time>
      </trkpt>
      <trkpt lat="46.07127" lon="4.76761">
        <ele>166.199996948</ele>
        <time>2015-12-12T10:20:32.783Z</time>
      </trkpt>
      <trkpt lat="46.07124" lon="4.76767">
        <ele>166.100006104</ele>
        <time>2015-12-12T10:20:33.765Z</time>
      </trkpt>
      <trkpt lat="46.07121" lon="4.76774">
        <ele>166.100006104</ele>
        <time>2015-12-12T10:20:34.783Z</time>
      </trkpt>
      <trkpt lat="46.07118" lon="4.76781">
        <ele>166.100006104</ele>
        <time>2015-12-12T10:20:35.769Z</time>
      </trkpt>
      <trkpt lat="46.07114" lon="4.76788">
        <ele>166</ele>
        <time>2015-12-12T10:20:36.782Z</time>
      </trkpt>
      <trkpt lat="46.07111" lon="4.76795">
        <ele>166</ele>
        <time>2015-12-12T10:20:37.767Z</time>
      </trkpt>
      <trkpt lat="46.07108" lon="4.76801">
        <ele>166</ele>
        <time>2015-12-12T10:20:38.783Z</time>
      </trkpt>
      <trkpt lat="46.07104" lon="4.76808">
        <ele>165.899993896</ele>
        <time>2015-12-12T10:20:39.765Z</time>
      </trkpt>
      <trkpt lat="46.07101" lon="4.76815">
        <ele>165.800003052</ele>
        <time>2015-12-12T10:20:40.847Z</time>
      </trkpt>
      <trkpt lat="46.07097" lon="4.76822">
        <ele>165.800003052</ele>
        <time>2015-12-12T10:20:41.769Z</time>
      </trkpt>
      <trkpt lat="46.07094" lon="4.76828">
        <ele>165.699996948</ele>
        <time>2015-12-12T10:20:42.782Z</time>
      </trkpt>
      <trkpt lat="46.07091" lon="4.76835">
        <ele>165.699996948</ele>
        <time>2015-12-12T10:20:43.767Z</time>
      </trkpt>
      <trkpt lat="46.07087" lon="4.76842">
        <ele>165.699996948</ele>
        <time>2015-12-12T10:20:44.782Z</time>
      </trkpt>
      <trkpt lat="46.07084" lon="4.76849">
        <ele>165.600006104</ele>
        <time>2015-12-12T10:20:45.766Z</time>
      </trkpt>
      <trkpt lat="46.07081" lon="4.76856">
        <ele>165.600006104</ele>
        <time>2015-12-12T10:20:46.781Z</time>
      </trkpt>
      <trkpt lat="46.07077" lon="4.76863">
        <ele>165.5</ele>
        <time>2015-12-12T10:20:47.769Z</time>
      </trkpt>
      <trkpt lat="46.07074" lon="4.76869">
        <ele>165.5</ele>
        <time>2015-12-12T10:20:48.782Z</time>
      </trkpt>
      <trkpt lat="46.0707" lon="4.76876">
        <ele>165.5</ele>
        <time>2015-12-12T10:20:49.766Z</time>
      </trkpt>
      <trkpt lat="46.07066" lon="4.76883">
        <ele>165.399993896</ele>
        <time>2015-12-12T10:20:50.785Z</time>
      </trkpt>
      <trkpt lat="46.07063" lon="4.7689">
        <ele>165.399993896</ele>
        <time>2015-12-12T10:20:51.765Z</time>
      </trkpt>
      <trkpt lat="46.07059" lon="4.76897">
        <ele>165.5</ele>
        <time>2015-12-12T10:20:52.782Z</time>
      </trkpt>
      <trkpt lat="46.07056" lon="4.76904">
        <ele>165.5</ele>
        <time>2015-12-12T10:20:53.769Z</time>
      </trkpt>
      <trkpt lat="46.07052" lon="4.7691">
        <ele>165.5</ele>
        <time>2015-12-12T10:20:54.781Z</time>
      </trkpt>
      <trkpt lat="46.07048" lon="4.76917">
        <ele>165.600006104</ele>
        <time>2015-12-12T10:20:55.767Z</time>
      </trkpt>
      <trkpt lat="46.07045" lon="4.76924">
        <ele>165.800003052</ele>
        <time>2015-12-12T10:20:56.796Z</time>
      </trkpt>
      <trkpt lat="46.07041" lon="4.76931">
        <ele>165.800003052</ele>
        <time>2015-12-12T10:20:57.765Z</time>
      </trkpt>
      <trkpt lat="46.07038" lon="4.76938">
        <ele>165.699996948</ele>
        <time>2015-12-12T10:20:58.783Z</time>
      </trkpt>
      <trkpt lat="46.07034" lon="4.76944">
        <ele>165.800003052</ele>
        <time>2015-12-12T10:20:59.768Z</time>
      </trkpt>
      <trkpt lat="46.07031" lon="4.76951">
        <ele>165.800003052</ele>
        <time>2015-12-12T10:21:00.783Z</time>
      </trkpt>
      <trkpt lat="46.07027" lon="4.76958">
        <ele>165.800003052</ele>
        <time>2015-12-12T10:21:01.767Z</time>
      </trkpt>
      <trkpt lat="46.07024" lon="4.76965">
        <ele>165.800003052</ele>
        <time>2015-12-12T10:21:02.783Z</time>
      </trkpt>
      <trkpt lat="46.0702" lon="4.76972">
        <ele>165.699996948</ele>
        <time>2015-12-12T10:21:03.765Z</time>
      </trkpt>
      <trkpt lat="46.07017" lon="4.76979">
        <ele>165.699996948</ele>
        <time>2015-12-12T10:21:04.918Z</time>
      </trkpt>
      <trkpt lat="46.07014" lon="4.76986">
        <ele>165.800003052</ele>
        <time>2015-12-12T10:21:05.769Z</time>
      </trkpt>
      <trkpt lat="46.0701" lon="4.76992">
        <ele>166</ele>
        <time>2015-12-12T10:21:06.831Z</time>
      </trkpt>
      <trkpt lat="46.07007" lon="4.76999">
        <ele>166.100006104</ele>
        <time>2015-12-12T10:21:07.768Z</time>
      </trkpt>
      <trkpt lat="46.07004" lon="4.77005">
        <ele>166.199996948</ele>
        <time>2015-12-12T10:21:08.782Z</time>
      </trkpt>
      <trkpt lat="46.07001" lon="4.77011">
        <ele>166.199996948</ele>
        <time>2015-12-12T10:21:09.765Z</time>
      </trkpt>
      <trkpt lat="46.06998" lon="4.77017">
        <ele>166.300003052</ele>
        <time>2015-12-12T10:21:10.782Z</time>
      </trkpt>
      <trkpt lat="46.06994" lon="4.77023">
        <ele>166.399993896</ele>
        <time>2015-12-12T10:21:11.769Z</time>
      </trkpt>
      <trkpt lat="46.06991" lon="4.77028">
        <ele>166.5</ele>
        <time>2015-12-12T10:21:12.782Z</time>
      </trkpt>
      <trkpt lat="46.06988" lon="4.77034">
        <ele>166.600006104</ele>
        <time>2015-12-12T10:21:13.768Z</time>
      </trkpt>
      <trkpt lat="46.06982" lon="4.77043">
        <ele>166.899993896</ele>
        <time>2015-12-12T10:21:15.782Z</time>
      </trkpt>
      <trkpt lat="46.0698" lon="4.77048">
        <ele>167.300003052</ele>
        <time>2015-12-12T10:21:16.765Z</time>
      </trkpt>
      <trkpt lat="46.06974" lon="4.77056">
        <ele>168</ele>
        <time>2015-12-12T10:21:18.793Z</time>
      </trkpt>
      <trkpt lat="46.06971" lon="4.7706">
        <ele>168.5</ele>
        <time>2015-12-12T10:21:19.767Z</time>
      </trkpt>
      <trkpt lat="46.06968" lon="4.77064">
        <ele>168.800003052</ele>
        <time>2015-12-12T10:21:20.782Z</time>
      </trkpt>
      <trkpt lat="46.06963" lon="4.77066">
        <ele>169.100006104</ele>
        <time>2015-12-12T10:21:21.765Z</time>
      </trkpt>
      <trkpt lat="46.06958" lon="4.77067">
        <ele>169.600006104</ele>
        <time>2015-12-12T10:21:22.782Z</time>
      </trkpt>
      <trkpt lat="46.06953" lon="4.77068">
        <ele>169.899993896</ele>
        <time>2015-12-12T10:21:23.768Z</time>
      </trkpt>
      <trkpt lat="46.06947" lon="4.77068">
        <ele>170</ele>
        <time>2015-12-12T10:21:24.782Z</time>
      </trkpt>
      <trkpt lat="46.06941" lon="4.77069">
        <ele>170.300003052</ele>
        <time>2015-12-12T10:21:25.766Z</time>
      </trkpt>
      <trkpt lat="46.06935" lon="4.77069">
        <ele>170.199996948</ele>
        <time>2015-12-12T10:21:26.783Z</time>
      </trkpt>
      <trkpt lat="46.06929" lon="4.7707">
        <ele>170.199996948</ele>
        <time>2015-12-12T10:21:27.766Z</time>
      </trkpt>
      <trkpt lat="46.06922" lon="4.7707">
        <ele>169.899993896</ele>
        <time>2015-12-12T10:21:28.873Z</time>
      </trkpt>
      <trkpt lat="46.06916" lon="4.7707">
        <ele>169.5</ele>
        <time>2015-12-12T10:21:29.769Z</time>
      </trkpt>
      <trkpt lat="46.0691" lon="4.7707">
        <ele>169.399993896</ele>
        <time>2015-12-12T10:21:30.782Z</time>
      </trkpt>
      <trkpt lat="46.06903" lon="4.77069">
        <ele>169.600006104</ele>
        <time>2015-12-12T10:21:31.791Z</time>
      </trkpt>
      <trkpt lat="46.06897" lon="4.77068">
        <ele>169.5</ele>
        <time>2015-12-12T10:21:32.782Z</time>
      </trkpt>
      <trkpt lat="46.06891" lon="4.77068">
        <ele>169.399993896</ele>
        <time>2015-12-12T10:21:33.765Z</time>
      </trkpt>
      <trkpt lat="46.06885" lon="4.77068">
        <ele>169.600006104</ele>
        <time>2015-12-12T10:21:34.783Z</time>
      </trkpt>
      <trkpt lat="46.06878" lon="4.77068">
        <ele>169.100006104</ele>
        <time>2015-12-12T10:21:35.769Z</time>
      </trkpt>
      <trkpt lat="46.06872" lon="4.77069">
        <ele>169.199996948</ele>
        <time>2015-12-12T10:21:36.782Z</time>
      </trkpt>
      <trkpt lat="46.06866" lon="4.7707">
        <ele>169</ele>
        <time>2015-12-12T10:21:37.768Z</time>
      </trkpt>
      <trkpt lat="46.0686" lon="4.77072">
        <ele>168.5</ele>
        <time>2015-12-12T10:21:38.809Z</time>
      </trkpt>
      <trkpt lat="46.06854" lon="4.77074">
        <ele>168.5</ele>
        <time>2015-12-12T10:21:39.765Z</time>
      </trkpt>
      <trkpt lat="46.06848" lon="4.77076">
        <ele>168.300003052</ele>
        <time>2015-12-12T10:21:40.925Z</time>
      </trkpt>
      <trkpt lat="46.06843" lon="4.77079">
        <ele>167.800003052</ele>
        <time>2015-12-12T10:21:41.768Z</time>
      </trkpt>
      <trkpt lat="46.06837" lon="4.77082">
        <ele>167.699996948</ele>
        <time>2015-12-12T10:21:42.782Z</time>
      </trkpt>
      <trkpt lat="46.06831" lon="4.77086">
        <ele>167.5</ele>
        <time>2015-12-12T10:21:43.766Z</time>
      </trkpt>
      <trkpt lat="46.06826" lon="4.77089">
        <ele>167.5</ele>
        <time>2015-12-12T10:21:44.782Z</time>
      </trkpt>
      <trkpt lat="46.0682" lon="4.77093">
        <ele>167.600006104</ele>
        <time>2015-12-12T10:21:45.765Z</time>
      </trkpt>
      <trkpt lat="46.06815" lon="4.77098">
        <ele>167.5</ele>
        <time>2015-12-12T10:21:46.782Z</time>
      </trkpt>
      <trkpt lat="46.06809" lon="4.77103">
        <ele>167.699996948</ele>
        <time>2015-12-12T10:21:47.768Z</time>
      </trkpt>
      <trkpt lat="46.06804" lon="4.77108">
        <ele>167.699996948</ele>
        <time>2015-12-12T10:21:48.794Z</time>
      </trkpt>
      <trkpt lat="46.06799" lon="4.77113">
        <ele>167.399993896</ele>
        <time>2015-12-12T10:21:49.766Z</time>
      </trkpt>
      <trkpt lat="46.06794" lon="4.77119">
        <ele>167.300003052</ele>
        <time>2015-12-12T10:21:50.791Z</time>
      </trkpt>
      <trkpt lat="46.06789" lon="4.77125">
        <ele>167.199996948</ele>
        <time>2015-12-12T10:21:51.765Z</time>
      </trkpt>
      <trkpt lat="46.06783" lon="4.7713">
        <ele>167.100006104</ele>
        <time>2015-12-12T10:21:52.782Z</time>
      </trkpt>
      <trkpt lat="46.06778" lon="4.77136">
        <ele>167.100006104</ele>
        <time>2015-12-12T10:21:53.768Z</time>
      </trkpt>
      <trkpt lat="46.06773" lon="4.77141">
        <ele>167.100006104</ele>
        <time>2015-12-12T10:21:54.805Z</time>
      </trkpt>
      <trkpt lat="46.06767" lon="4.77146">
        <ele>167</ele>
        <time>2015-12-12T10:21:55.768Z</time>
      </trkpt>
      <trkpt lat="46.06762" lon="4.77152">
        <ele>166.800003052</ele>
        <time>2015-12-12T10:21:56.781Z</time>
      </trkpt>
      <trkpt lat="46.06756" lon="4.77158">
        <ele>166.600006104</ele>
        <time>2015-12-12T10:21:57.767Z</time>
      </trkpt>
      <trkpt lat="46.06751" lon="4.77163">
        <ele>166.5</ele>
        <time>2015-12-12T10:21:58.782Z</time>
      </trkpt>
      <trkpt lat="46.06745" lon="4.77168">
        <ele>166.399993896</ele>
        <time>2015-12-12T10:21:59.768Z</time>
      </trkpt>
      <trkpt lat="46.06739" lon="4.77173">
        <ele>166.300003052</ele>
        <time>2015-12-12T10:22:00.782Z</time>
      </trkpt>
      <trkpt lat="46.06734" lon="4.77176">
        <ele>166.399993896</ele>
        <time>2015-12-12T10:22:01.767Z</time>
      </trkpt>
      <trkpt lat="46.06728" lon="4.7718">
        <ele>166.399993896</ele>
        <time>2015-12-12T10:22:02.782Z</time>
      </trkpt>
      <trkpt lat="46.06722" lon="4.77183">
        <ele>166.399993896</ele>
        <time>2015-12-12T10:22:03.765Z</time>
      </trkpt>
      <trkpt lat="46.06716" lon="4.77186">
        <ele>166.5</ele>
        <time>2015-12-12T10:22:04.781Z</time>
      </trkpt>
      <trkpt lat="46.06711" lon="4.77189">
        <ele>166.5</ele>
        <time>2015-12-12T10:22:05.769Z</time>
      </trkpt>
      <trkpt lat="46.06705" lon="4.77191">
        <ele>166.600006104</ele>
        <time>2015-12-12T10:22:06.781Z</time>
      </trkpt>
      <trkpt lat="46.06699" lon="4.77193">
        <ele>166.600006104</ele>
        <time>2015-12-12T10:22:07.768Z</time>
      </trkpt>
      <trkpt lat="46.06694" lon="4.77193">
        <ele>166.699996948</ele>
        <time>2015-12-12T10:22:08.782Z</time>
      </trkpt>
      <trkpt lat="46.06688" lon="4.77195">
        <ele>167</ele>
        <time>2015-12-12T10:22:09.765Z</time>
      </trkpt>
      <trkpt lat="46.06683" lon="4.77198">
        <ele>167.300003052</ele>
        <time>2015-12-12T10:22:10.797Z</time>
      </trkpt>
      <trkpt lat="46.06679" lon="4.77203">
        <ele>167.699996948</ele>
        <time>2015-12-12T10:22:11.768Z</time>
      </trkpt>
      <trkpt lat="46.06677" lon="4.77209">
        <ele>167.199996948</ele>
        <time>2015-12-12T10:22:12.781Z</time>
      </trkpt>
      <trkpt lat="46.06675" lon="4.77217">
        <ele>167.199996948</ele>
        <time>2015-12-12T10:22:13.766Z</time>
      </trkpt>
      <trkpt lat="46.06675" lon="4.77225">
        <ele>167.300003052</ele>
        <time>2015-12-12T10:22:14.782Z</time>
      </trkpt>
      <trkpt lat="46.06675" lon="4.77233">
        <ele>167.300003052</ele>
        <time>2015-12-12T10:22:15.765Z</time>
      </trkpt>
      <trkpt lat="46.06673" lon="4.77241">
        <ele>167.300003052</ele>
        <time>2015-12-12T10:22:16.821Z</time>
      </trkpt>
      <trkpt lat="46.06671" lon="4.77249">
        <ele>167.300003052</ele>
        <time>2015-12-12T10:22:17.77Z</time>
      </trkpt>
      <trkpt lat="46.06668" lon="4.77255">
        <ele>167.199996948</ele>
        <time>2015-12-12T10:22:18.783Z</time>
      </trkpt>
      <trkpt lat="46.06666" lon="4.77262">
        <ele>167.199996948</ele>
        <time>2015-12-12T10:22:19.766Z</time>
      </trkpt>
      <trkpt lat="46.06663" lon="4.77269">
        <ele>167.399993896</ele>
        <time>2015-12-12T10:22:20.781Z</time>
      </trkpt>
      <trkpt lat="46.0666" lon="4.77276">
        <ele>167.399993896</ele>
        <time>2015-12-12T10:22:21.765Z</time>
      </trkpt>
      <trkpt lat="46.06658" lon="4.77283">
        <ele>167.5</ele>
        <time>2015-12-12T10:22:22.802Z</time>
      </trkpt>
      <trkpt lat="46.06655" lon="4.77289">
        <ele>167.600006104</ele>
        <time>2015-12-12T10:22:23.768Z</time>
      </trkpt>
      <trkpt lat="46.06652" lon="4.77295">
        <ele>167.699996948</ele>
        <time>2015-12-12T10:22:24.782Z</time>
      </trkpt>
      <trkpt lat="46.06649" lon="4.77301">
        <ele>167.899993896</ele>
        <time>2015-12-12T10:22:25.766Z</time>
      </trkpt>
      <trkpt lat="46.06647" lon="4.77307">
        <ele>168.100006104</ele>
        <time>2015-12-12T10:22:26.796Z</time>
      </trkpt>
      <trkpt lat="46.06644" lon="4.77314">
        <ele>168.5</ele>
        <time>2015-12-12T10:22:27.766Z</time>
      </trkpt>
      <trkpt lat="46.06642" lon="4.77321">
        <ele>168.600006104</ele>
        <time>2015-12-12T10:22:28.782Z</time>
      </trkpt>
      <trkpt lat="46.06639" lon="4.77327">
        <ele>168.899993896</ele>
        <time>2015-12-12T10:22:29.768Z</time>
      </trkpt>
      <trkpt lat="46.06636" lon="4.77333">
        <ele>169</ele>
        <time>2015-12-12T10:22:30.806Z</time>
      </trkpt>
      <trkpt lat="46.06634" lon="4.7734">
        <ele>169</ele>
        <time>2015-12-12T10:22:31.766Z</time>
      </trkpt>
      <trkpt lat="46.06631" lon="4.77347">
        <ele>168.899993896</ele>
        <time>2015-12-12T10:22:32.782Z</time>
      </trkpt>
      <trkpt lat="46.06628" lon="4.77353">
        <ele>169</ele>
        <time>2015-12-12T10:22:33.765Z</time>
      </trkpt>
      <trkpt lat="46.06625" lon="4.7736">
        <ele>169.199996948</ele>
        <time>2015-12-12T10:22:34.783Z</time>
      </trkpt>
      <trkpt lat="46.06622" lon="4.77366">
        <ele>169.5</ele>
        <time>2015-12-12T10:22:35.768Z</time>
      </trkpt>
      <trkpt lat="46.0662" lon="4.77372">
        <ele>170</ele>
        <time>2015-12-12T10:22:36.783Z</time>
      </trkpt>
      <trkpt lat="46.06617" lon="4.77378">
        <ele>170.300003052</ele>
        <time>2015-12-12T10:22:37.768Z</time>
      </trkpt>
      <trkpt lat="46.06614" lon="4.77384">
        <ele>170.600006104</ele>
        <time>2015-12-12T10:22:38.782Z</time>
      </trkpt>
      <trkpt lat="46.06612" lon="4.7739">
        <ele>170.699996948</ele>
        <time>2015-12-12T10:22:39.765Z</time>
      </trkpt>
      <trkpt lat="46.0661" lon="4.77396">
        <ele>171.100006104</ele>
        <time>2015-12-12T10:22:40.921Z</time>
      </trkpt>
      <trkpt lat="46.06608" lon="4.77402">
        <ele>171.5</ele>
        <time>2015-12-12T10:22:41.769Z</time>
      </trkpt>
      <trkpt lat="46.06605" lon="4.77407">
        <ele>171.899993896</ele>
        <time>2015-12-12T10:22:42.781Z</time>
      </trkpt>
      <trkpt lat="46.06603" lon="4.77413">
        <ele>172.100006104</ele>
        <time>2015-12-12T10:22:43.766Z</time>
      </trkpt>
      <trkpt lat="46.066" lon="4.77419">
        <ele>172.399993896</ele>
        <time>2015-12-12T10:22:44.781Z</time>
      </trkpt>
      <trkpt lat="46.06598" lon="4.77425">
        <ele>172.800003052</ele>
        <time>2015-12-12T10:22:45.765Z</time>
      </trkpt>
      <trkpt lat="46.06596" lon="4.77431">
        <ele>173.300003052</ele>
        <time>2015-12-12T10:22:46.782Z</time>
      </trkpt>
      <trkpt lat="46.06594" lon="4.77437">
        <ele>173.600006104</ele>
        <time>2015-12-12T10:22:47.77Z</time>
      </trkpt>
      <trkpt lat="46.06592" lon="4.77449">
        <ele>174.5</ele>
        <time>2015-12-12T10:22:49.784Z</time>
      </trkpt>
      <trkpt lat="46.06591" lon="4.77455">
        <ele>175</ele>
        <time>2015-12-12T10:22:50.767Z</time>
      </trkpt>
      <trkpt lat="46.06594" lon="4.77468">
        <ele>175.600006104</ele>
        <time>2015-12-12T10:22:52.782Z</time>
      </trkpt>
      <trkpt lat="46.06596" lon="4.77473">
        <ele>176</ele>
        <time>2015-12-12T10:22:53.768Z</time>
      </trkpt>
      <trkpt lat="46.06598" lon="4.77479">
        <ele>176.199996948</ele>
        <time>2015-12-12T10:22:54.784Z</time>
      </trkpt>
      <trkpt lat="46.066" lon="4.77485">
        <ele>176.5</ele>
        <time>2015-12-12T10:22:55.766Z</time>
      </trkpt>
      <trkpt lat="46.06603" lon="4.7749">
        <ele>176.699996948</ele>
        <time>2015-12-12T10:22:56.781Z</time>
      </trkpt>
      <trkpt lat="46.06606" lon="4.77495">
        <ele>176.800003052</ele>
        <time>2015-12-12T10:22:57.787Z</time>
      </trkpt>
      <trkpt lat="46.06612" lon="4.77505">
        <ele>177.100006104</ele>
        <time>2015-12-12T10:22:59.784Z</time>
      </trkpt>
      <trkpt lat="46.06614" lon="4.7751">
        <ele>177</ele>
        <time>2015-12-12T10:23:00.765Z</time>
      </trkpt>
      <trkpt lat="46.06618" lon="4.7752">
        <ele>177.100006104</ele>
        <time>2015-12-12T10:23:02.782Z</time>
      </trkpt>
      <trkpt lat="46.06619" lon="4.77525">
        <ele>177.100006104</ele>
        <time>2015-12-12T10:23:03.765Z</time>
      </trkpt>
      <trkpt lat="46.06621" lon="4.77537">
        <ele>177.199996948</ele>
        <time>2015-12-12T10:23:05.785Z</time>
      </trkpt>
      <trkpt lat="46.06622" lon="4.77542">
        <ele>177.399993896</ele>
        <time>2015-12-12T10:23:06.765Z</time>
      </trkpt>
      <trkpt lat="46.06625" lon="4.77553">
        <ele>177.699996948</ele>
        <time>2015-12-12T10:23:08.781Z</time>
      </trkpt>
      <trkpt lat="46.06626" lon="4.77558">
        <ele>177.800003052</ele>
        <time>2015-12-12T10:23:09.765Z</time>
      </trkpt>
      <trkpt lat="46.06627" lon="4.77568">
        <ele>178.399993896</ele>
        <time>2015-12-12T10:23:11.785Z</time>
      </trkpt>
      <trkpt lat="46.06628" lon="4.77573">
        <ele>178.600006104</ele>
        <time>2015-12-12T10:23:12.765Z</time>
      </trkpt>
      <trkpt lat="46.06628" lon="4.77583">
        <ele>178.699996948</ele>
        <time>2015-12-12T10:23:14.782Z</time>
      </trkpt>
      <trkpt lat="46.06628" lon="4.77588">
        <ele>178.699996948</ele>
        <time>2015-12-12T10:23:15.775Z</time>
      </trkpt>
      <trkpt lat="46.06627" lon="4.77597">
        <ele>179.199996948</ele>
        <time>2015-12-12T10:23:17.795Z</time>
      </trkpt>
      <trkpt lat="46.06628" lon="4.77602">
        <ele>179</ele>
        <time>2015-12-12T10:23:18.765Z</time>
      </trkpt>
      <trkpt lat="46.06628" lon="4.77614">
        <ele>179.699996948</ele>
        <time>2015-12-12T10:23:21.782Z</time>
      </trkpt>
      <trkpt lat="46.06627" lon="4.77618">
        <ele>179.699996948</ele>
        <time>2015-12-12T10:23:22.765Z</time>
      </trkpt>
      <trkpt lat="46.06625" lon="4.7763">
        <ele>181</ele>
        <time>2015-12-12T10:23:25.783Z</time>
      </trkpt>
      <trkpt lat="46.06625" lon="4.77634">
        <ele>181.399993896</ele>
        <time>2015-12-12T10:23:26.765Z</time>
      </trkpt>
      <trkpt lat="46.06623" lon="4.77647">
        <ele>181.199996948</ele>
        <time>2015-12-12T10:23:29.799Z</time>
      </trkpt>
      <trkpt lat="46.06622" lon="4.77651">
        <ele>181.100006104</ele>
        <time>2015-12-12T10:23:30.765Z</time>
      </trkpt>
      <trkpt lat="46.06619" lon="4.77658">
        <ele>181.300003052</ele>
        <time>2015-12-12T10:23:32.781Z</time>
      </trkpt>
      <trkpt lat="46.06617" lon="4.77661">
        <ele>181</ele>
        <time>2015-12-12T10:23:33.765Z</time>
      </trkpt>
      <trkpt lat="46.06611" lon="4.77666">
        <ele>180.800003052</ele>
        <time>2015-12-12T10:23:35.785Z</time>
      </trkpt>
      <trkpt lat="46.06608" lon="4.77669">
        <ele>181</ele>
        <time>2015-12-12T10:23:36.765Z</time>
      </trkpt>
      <trkpt lat="46.06603" lon="4.77676">
        <ele>181</ele>
        <time>2015-12-12T10:23:38.792Z</time>
      </trkpt>
      <trkpt lat="46.066" lon="4.77678">
        <ele>181.199996948</ele>
        <time>2015-12-12T10:23:39.765Z</time>
      </trkpt>
      <trkpt lat="46.06592" lon="4.77684">
        <ele>181.800003052</ele>
        <time>2015-12-12T10:23:42.782Z</time>
      </trkpt>
      <trkpt lat="46.06588" lon="4.77685">
        <ele>182.100006104</ele>
        <time>2015-12-12T10:23:43.766Z</time>
      </trkpt>
      <trkpt lat="46.06582" lon="4.77689">
        <ele>182.800003052</ele>
        <time>2015-12-12T10:23:45.781Z</time>
      </trkpt>
      <trkpt lat="46.06578" lon="4.77691">
        <ele>183</ele>
        <time>2015-12-12T10:23:46.765Z</time>
      </trkpt>
      <trkpt lat="46.06571" lon="4.77695">
        <ele>183.300003052</ele>
        <time>2015-12-12T10:23:48.791Z</time>
      </trkpt>
      <trkpt lat="46.06568" lon="4.77697">
        <ele>183.5</ele>
        <time>2015-12-12T10:23:49.766Z</time>
      </trkpt>
      <trkpt lat="46.06562" lon="4.77702">
        <ele>183.600006104</ele>
        <time>2015-12-12T10:23:51.781Z</time>
      </trkpt>
      <trkpt lat="46.06559" lon="4.77705">
        <ele>183.100006104</ele>
        <time>2015-12-12T10:23:52.765Z</time>
      </trkpt>
      <trkpt lat="46.06554" lon="4.77713">
        <ele>183.399993896</ele>
        <time>2015-12-12T10:23:54.782Z</time>
      </trkpt>
      <trkpt lat="46.06551" lon="4.77717">
        <ele>183.199996948</ele>
        <time>2015-12-12T10:23:55.766Z</time>
      </trkpt>
      <trkpt lat="46.06546" lon="4.77724">
        <ele>183.300003052</ele>
        <time>2015-12-12T10:23:57.796Z</time>
      </trkpt>
      <trkpt lat="46.06543" lon="4.77728">
        <ele>183.699996948</ele>
        <time>2015-12-12T10:23:58.765Z</time>
      </trkpt>
      <trkpt lat="46.06539" lon="4.77736">
        <ele>184.100006104</ele>
        <time>2015-12-12T10:24:00.781Z</time>
      </trkpt>
      <trkpt lat="46.06537" lon="4.77741">
        <ele>184.300003052</ele>
        <time>2015-12-12T10:24:01.766Z</time>
      </trkpt>
      <trkpt lat="46.06531" lon="4.77749">
        <ele>185.100006104</ele>
        <time>2015-12-12T10:24:03.781Z</time>
      </trkpt>
      <trkpt lat="46.06529" lon="4.77754">
        <ele>185.5</ele>
        <time>2015-12-12T10:24:04.765Z</time>
      </trkpt>
      <trkpt lat="46.06524" lon="4.77763">
        <ele>186.699996948</ele>
        <time>2015-12-12T10:24:06.782Z</time>
      </trkpt>
      <trkpt lat="46.06521" lon="4.77767">
        <ele>187.199996948</ele>
        <time>2015-12-12T10:24:07.768Z</time>
      </trkpt>
      <trkpt lat="46.06515" lon="4.77775">
        <ele>188.5</ele>
        <time>2015-12-12T10:24:09.781Z</time>
      </trkpt>
      <trkpt lat="46.06513" lon="4.77779">
        <ele>189.100006104</ele>
        <time>2015-12-12T10:24:10.765Z</time>
      </trkpt>
      <trkpt lat="46.06509" lon="4.77787">
        <ele>189.5</ele>
        <time>2015-12-12T10:24:12.784Z</time>
      </trkpt>
      <trkpt lat="46.06507" lon="4.77792">
        <ele>189.399993896</ele>
        <time>2015-12-12T10:24:13.766Z</time>
      </trkpt>
      <trkpt lat="46.06501" lon="4.778">
        <ele>189.199996948</ele>
        <time>2015-12-12T10:24:15.781Z</time>
      </trkpt>
      <trkpt lat="46.06499" lon="4.77804">
        <ele>188.899993896</ele>
        <time>2015-12-12T10:24:16.762Z</time>
      </trkpt>
      <trkpt lat="46.06495" lon="4.77814">
        <ele>189.100006104</ele>
        <time>2015-12-12T10:24:18.922Z</time>
      </trkpt>
      <trkpt lat="46.06494" lon="4.77819">
        <ele>188.800003052</ele>
        <time>2015-12-12T10:24:19.766Z</time>
      </trkpt>
      <trkpt lat="46.0649" lon="4.77828">
        <ele>188.699996948</ele>
        <time>2015-12-12T10:24:21.797Z</time>
      </trkpt>
      <trkpt lat="46.06488" lon="4.77834">
        <ele>189</ele>
        <time>2015-12-12T10:24:22.767Z</time>
      </trkpt>
      <trkpt lat="46.06483" lon="4.77844">
        <ele>188.699996948</ele>
        <time>2015-12-12T10:24:24.784Z</time>
      </trkpt>
      <trkpt lat="46.06481" lon="4.77848">
        <ele>188.600006104</ele>
        <time>2015-12-12T10:24:25.768Z</time>
      </trkpt>
      <trkpt lat="46.06477" lon="4.77858">
        <ele>189</ele>
        <time>2015-12-12T10:24:27.802Z</time>
      </trkpt>
      <trkpt lat="46.06476" lon="4.77863">
        <ele>189.5</ele>
        <time>2015-12-12T10:24:28.765Z</time>
      </trkpt>
      <trkpt lat="46.06473" lon="4.77871">
        <ele>190.100006104</ele>
        <time>2015-12-12T10:24:30.781Z</time>
      </trkpt>
      <trkpt lat="46.06472" lon="4.77876">
        <ele>190.300003052</ele>
        <time>2015-12-12T10:24:31.766Z</time>
      </trkpt>
      <trkpt lat="46.06469" lon="4.77884">
        <ele>190.899993896</ele>
        <time>2015-12-12T10:24:33.782Z</time>
      </trkpt>
      <trkpt lat="46.06468" lon="4.77888">
        <ele>191.100006104</ele>
        <time>2015-12-12T10:24:34.765Z</time>
      </trkpt>
      <trkpt lat="46.06464" lon="4.77897">
        <ele>191.699996948</ele>
        <time>2015-12-12T10:24:36.781Z</time>
      </trkpt>
      <trkpt lat="46.06462" lon="4.77901">
        <ele>192.300003052</ele>
        <time>2015-12-12T10:24:37.769Z</time>
      </trkpt>
      <trkpt lat="46.06458" lon="4.77908">
        <ele>193</ele>
        <time>2015-12-12T10:24:39.782Z</time>
      </trkpt>
      <trkpt lat="46.06457" lon="4.77913">
        <ele>192.899993896</ele>
        <time>2015-12-12T10:24:40.765Z</time>
      </trkpt>
      <trkpt lat="46.06453" lon="4.77921">
        <ele>193.600006104</ele>
        <time>2015-12-12T10:24:42.782Z</time>
      </trkpt>
      <trkpt lat="46.06452" lon="4.77925">
        <ele>194</ele>
        <time>2015-12-12T10:24:43.766Z</time>
      </trkpt>
      <trkpt lat="46.06449" lon="4.77934">
        <ele>195</ele>
        <time>2015-12-12T10:24:45.781Z</time>
      </trkpt>
      <trkpt lat="46.06448" lon="4.77938">
        <ele>195.399993896</ele>
        <time>2015-12-12T10:24:46.765Z</time>
      </trkpt>
      <trkpt lat="46.06446" lon="4.77946">
        <ele>196.300003052</ele>
        <time>2015-12-12T10:24:48.782Z</time>
      </trkpt>
      <trkpt lat="46.06445" lon="4.77951">
        <ele>196.600006104</ele>
        <time>2015-12-12T10:24:49.766Z</time>
      </trkpt>
      <trkpt lat="46.06443" lon="4.77959">
        <ele>197.300003052</ele>
        <time>2015-12-12T10:24:51.783Z</time>
      </trkpt>
      <trkpt lat="46.06442" lon="4.77964">
        <ele>197.899993896</ele>
        <time>2015-12-12T10:24:52.765Z</time>
      </trkpt>
      <trkpt lat="46.06441" lon="4.77973">
        <ele>197.399993896</ele>
        <time>2015-12-12T10:24:54.782Z</time>
      </trkpt>
      <trkpt lat="46.0644" lon="4.77978">
        <ele>197.399993896</ele>
        <time>2015-12-12T10:24:55.766Z</time>
      </trkpt>
      <trkpt lat="46.06438" lon="4.77987">
        <ele>197.5</ele>
        <time>2015-12-12T10:24:57.804Z</time>
      </trkpt>
      <trkpt lat="46.06437" lon="4.77991">
        <ele>197.800003052</ele>
        <time>2015-12-12T10:24:58.766Z</time>
      </trkpt>
      <trkpt lat="46.06434" lon="4.78">
        <ele>197.600006104</ele>
        <time>2015-12-12T10:25:00.781Z</time>
      </trkpt>
      <trkpt lat="46.06432" lon="4.78004">
        <ele>197.899993896</ele>
        <time>2015-12-12T10:25:01.766Z</time>
      </trkpt>
      <trkpt lat="46.06429" lon="4.78013">
        <ele>198</ele>
        <time>2015-12-12T10:25:03.796Z</time>
      </trkpt>
      <trkpt lat="46.06426" lon="4.78017">
        <ele>198.199996948</ele>
        <time>2015-12-12T10:25:04.765Z</time>
      </trkpt>
      <trkpt lat="46.06422" lon="4.78024">
        <ele>198.300003052</ele>
        <time>2015-12-12T10:25:06.781Z</time>
      </trkpt>
      <trkpt lat="46.06418" lon="4.78026">
        <ele>198.399993896</ele>
        <time>2015-12-12T10:25:07.769Z</time>
      </trkpt>
      <trkpt lat="46.06413" lon="4.78033">
        <ele>198.600006104</ele>
        <time>2015-12-12T10:25:09.781Z</time>
      </trkpt>
      <trkpt lat="46.0641" lon="4.78037">
        <ele>198.699996948</ele>
        <time>2015-12-12T10:25:10.765Z</time>
      </trkpt>
      <trkpt lat="46.06404" lon="4.78044">
        <ele>198.699996948</ele>
        <time>2015-12-12T10:25:12.781Z</time>
      </trkpt>
      <trkpt lat="46.06402" lon="4.78049">
        <ele>198.399993896</ele>
        <time>2015-12-12T10:25:13.766Z</time>
      </trkpt>
      <trkpt lat="46.06397" lon="4.78058">
        <ele>198.100006104</ele>
        <time>2015-12-12T10:25:15.781Z</time>
      </trkpt>
      <trkpt lat="46.06395" lon="4.78064">
        <ele>197.800003052</ele>
        <time>2015-12-12T10:25:16.765Z</time>
      </trkpt>
      <trkpt lat="46.06391" lon="4.78074">
        <ele>197.5</ele>
        <time>2015-12-12T10:25:18.781Z</time>
      </trkpt>
      <trkpt lat="46.06389" lon="4.78079">
        <ele>197.5</ele>
        <time>2015-12-12T10:25:19.766Z</time>
      </trkpt>
      <trkpt lat="46.06386" lon="4.7809">
        <ele>197.399993896</ele>
        <time>2015-12-12T10:25:21.782Z</time>
      </trkpt>
      <trkpt lat="46.06385" lon="4.78096">
        <ele>197.300003052</ele>
        <time>2015-12-12T10:25:22.765Z</time>
      </trkpt>
      <trkpt lat="46.06384" lon="4.78108">
        <ele>197.300003052</ele>
        <time>2015-12-12T10:25:24.794Z</time>
      </trkpt>
      <trkpt lat="46.06383" lon="4.78114">
        <ele>197.300003052</ele>
        <time>2015-12-12T10:25:25.766Z</time>
      </trkpt>
      <trkpt lat="46.06383" lon="4.78126">
        <ele>197.5</ele>
        <time>2015-12-12T10:25:27.805Z</time>
      </trkpt>
      <trkpt lat="46.06383" lon="4.78132">
        <ele>197.600006104</ele>
        <time>2015-12-12T10:25:28.765Z</time>
      </trkpt>
      <trkpt lat="46.06382" lon="4.78145">
        <ele>197.699996948</ele>
        <time>2015-12-12T10:25:30.782Z</time>
      </trkpt>
      <trkpt lat="46.06382" lon="4.78151">
        <ele>198</ele>
        <time>2015-12-12T10:25:31.766Z</time>
      </trkpt>
      <trkpt lat="46.06382" lon="4.78163">
        <ele>198.100006104</ele>
        <time>2015-12-12T10:25:33.781Z</time>
      </trkpt>
      <trkpt lat="46.06382" lon="4.78168">
        <ele>197.899993896</ele>
        <time>2015-12-12T10:25:34.765Z</time>
      </trkpt>
      <trkpt lat="46.0638" lon="4.7818">
        <ele>197.800003052</ele>
        <time>2015-12-12T10:25:36.787Z</time>
      </trkpt>
      <trkpt lat="46.0638" lon="4.78186">
        <ele>197.800003052</ele>
        <time>2015-12-12T10:25:37.772Z</time>
      </trkpt>
      <trkpt lat="46.06378" lon="4.78197">
        <ele>197.600006104</ele>
        <time>2015-12-12T10:25:39.781Z</time>
      </trkpt>
      <trkpt lat="46.06376" lon="4.78201">
        <ele>197.5</ele>
        <time>2015-12-12T10:25:40.765Z</time>
      </trkpt>
      <trkpt lat="46.06371" lon="4.78209">
        <ele>197.5</ele>
        <time>2015-12-12T10:25:42.782Z</time>
      </trkpt>
      <trkpt lat="46.06367" lon="4.78213">
        <ele>197.600006104</ele>
        <time>2015-12-12T10:25:43.766Z</time>
      </trkpt>
      <trkpt lat="46.06361" lon="4.7822">
        <ele>198</ele>
        <time>2015-12-12T10:25:45.795Z</time>
      </trkpt>
      <trkpt lat="46.06358" lon="4.78224">
        <ele>198.100006104</ele>
        <time>2015-12-12T10:25:46.791Z</time>
      </trkpt>
      <trkpt lat="46.06351" lon="4.7823">
        <ele>198.699996948</ele>
        <time>2015-12-12T10:25:48.781Z</time>
      </trkpt>
      <trkpt lat="46.06348" lon="4.78233">
        <ele>198.800003052</ele>
        <time>2015-12-12T10:25:49.766Z</time>
      </trkpt>
      <trkpt lat="46.06339" lon="4.78236">
        <ele>198.899993896</ele>
        <time>2015-12-12T10:25:51.783Z</time>
      </trkpt>
      <trkpt lat="46.06335" lon="4.78236">
        <ele>198.800003052</ele>
        <time>2015-12-12T10:25:52.762Z</time>
      </trkpt>
      <trkpt lat="46.06326" lon="4.78234">
        <ele>198.699996948</ele>
        <time>2015-12-12T10:25:54.781Z</time>
      </trkpt>
      <trkpt lat="46.06322" lon="4.78232">
        <ele>198.600006104</ele>
        <time>2015-12-12T10:25:55.766Z</time>
      </trkpt>
      <trkpt lat="46.06317" lon="4.7823">
        <ele>198.800003052</ele>
        <time>2015-12-12T10:25:56.782Z</time>
      </trkpt>
      <trkpt lat="46.06312" lon="4.78228">
        <ele>198.399993896</ele>
        <time>2015-12-12T10:25:57.773Z</time>
      </trkpt>
      <trkpt lat="46.06307" lon="4.78225">
        <ele>198.5</ele>
        <time>2015-12-12T10:25:58.927Z</time>
      </trkpt>
      <trkpt lat="46.06303" lon="4.78222">
        <ele>198.699996948</ele>
        <time>2015-12-12T10:25:59.769Z</time>
      </trkpt>
      <trkpt lat="46.06299" lon="4.7822">
        <ele>198.800003052</ele>
        <time>2015-12-12T10:26:00.782Z</time>
      </trkpt>
      <trkpt lat="46.06295" lon="4.78217">
        <ele>198.899993896</ele>
        <time>2015-12-12T10:26:01.766Z</time>
      </trkpt>
      <trkpt lat="46.06291" lon="4.78214">
        <ele>198.800003052</ele>
        <time>2015-12-12T10:26:02.781Z</time>
      </trkpt>
      <trkpt lat="46.06286" lon="4.78212">
        <ele>198.800003052</ele>
        <time>2015-12-12T10:26:03.765Z</time>
      </trkpt>
      <trkpt lat="46.06278" lon="4.78207">
        <ele>199</ele>
        <time>2015-12-12T10:26:05.786Z</time>
      </trkpt>
      <trkpt lat="46.06274" lon="4.78205">
        <ele>199</ele>
        <time>2015-12-12T10:26:06.765Z</time>
      </trkpt>
      <trkpt lat="46.06267" lon="4.78199">
        <ele>199.300003052</ele>
        <time>2015-12-12T10:26:08.781Z</time>
      </trkpt>
      <trkpt lat="46.06263" lon="4.78196">
        <ele>199.100006104</ele>
        <time>2015-12-12T10:26:09.764Z</time>
      </trkpt>
      <trkpt lat="46.06259" lon="4.7819">
        <ele>198.699996948</ele>
        <time>2015-12-12T10:26:10.782Z</time>
      </trkpt>
      <trkpt lat="46.06254" lon="4.78186">
        <ele>198.800003052</ele>
        <time>2015-12-12T10:26:11.768Z</time>
      </trkpt>
      <trkpt lat="46.0625" lon="4.78183">
        <ele>199.199996948</ele>
        <time>2015-12-12T10:26:12.781Z</time>
      </trkpt>
      <trkpt lat="46.06246" lon="4.7818">
        <ele>199.5</ele>
        <time>2015-12-12T10:26:13.766Z</time>
      </trkpt>
      <trkpt lat="46.06242" lon="4.78177">
        <ele>199.800003052</ele>
        <time>2015-12-12T10:26:14.782Z</time>
      </trkpt>
      <trkpt lat="46.06238" lon="4.78174">
        <ele>199.800003052</ele>
        <time>2015-12-12T10:26:15.765Z</time>
      </trkpt>
      <trkpt lat="46.0623" lon="4.78168">
        <ele>200.699996948</ele>
        <time>2015-12-12T10:26:17.815Z</time>
      </trkpt>
      <trkpt lat="46.06226" lon="4.78165">
        <ele>201.100006104</ele>
        <time>2015-12-12T10:26:18.765Z</time>
      </trkpt>
      <trkpt lat="46.06218" lon="4.78161">
        <ele>201.600006104</ele>
        <time>2015-12-12T10:26:20.781Z</time>
      </trkpt>
      <trkpt lat="46.06214" lon="4.78159">
        <ele>201.800003052</ele>
        <time>2015-12-12T10:26:21.765Z</time>
      </trkpt>
      <trkpt lat="46.06206" lon="4.78156">
        <ele>202.399993896</ele>
        <time>2015-12-12T10:26:23.79Z</time>
      </trkpt>
      <trkpt lat="46.06202" lon="4.78154">
        <ele>202.699996948</ele>
        <time>2015-12-12T10:26:24.765Z</time>
      </trkpt>
      <trkpt lat="46.06195" lon="4.78149">
        <ele>203.800003052</ele>
        <time>2015-12-12T10:26:26.781Z</time>
      </trkpt>
      <trkpt lat="46.06192" lon="4.78147">
        <ele>204.300003052</ele>
        <time>2015-12-12T10:26:27.796Z</time>
      </trkpt>
      <trkpt lat="46.06185" lon="4.78143">
        <ele>205</ele>
        <time>2015-12-12T10:26:29.784Z</time>
      </trkpt>
      <trkpt lat="46.06181" lon="4.7814">
        <ele>205.100006104</ele>
        <time>2015-12-12T10:26:30.765Z</time>
      </trkpt>
      <trkpt lat="46.06174" lon="4.78135">
        <ele>205.5</ele>
        <time>2015-12-12T10:26:32.782Z</time>
      </trkpt>
      <trkpt lat="46.0617" lon="4.78131">
        <ele>206</ele>
        <time>2015-12-12T10:26:33.764Z</time>
      </trkpt>
      <trkpt lat="46.06163" lon="4.78126">
        <ele>206.600006104</ele>
        <time>2015-12-12T10:26:35.784Z</time>
      </trkpt>
      <trkpt lat="46.06159" lon="4.78123">
        <ele>207</ele>
        <time>2015-12-12T10:26:36.765Z</time>
      </trkpt>
      <trkpt lat="46.06152" lon="4.78118">
        <ele>207.399993896</ele>
        <time>2015-12-12T10:26:38.828Z</time>
      </trkpt>
      <trkpt lat="46.06148" lon="4.78115">
        <ele>207.699996948</ele>
        <time>2015-12-12T10:26:39.765Z</time>
      </trkpt>
      <trkpt lat="46.06142" lon="4.78109">
        <ele>208.399993896</ele>
        <time>2015-12-12T10:26:41.784Z</time>
      </trkpt>
      <trkpt lat="46.06139" lon="4.78106">
        <ele>208.600006104</ele>
        <time>2015-12-12T10:26:42.764Z</time>
      </trkpt>
      <trkpt lat="46.06134" lon="4.78099">
        <ele>209.100006104</ele>
        <time>2015-12-12T10:26:44.781Z</time>
      </trkpt>
      <trkpt lat="46.06131" lon="4.78096">
        <ele>209.399993896</ele>
        <time>2015-12-12T10:26:45.764Z</time>
      </trkpt>
      <trkpt lat="46.06127" lon="4.78089">
        <ele>210.100006104</ele>
        <time>2015-12-12T10:26:47.821Z</time>
      </trkpt>
      <trkpt lat="46.06125" lon="4.78085">
        <ele>210.899993896</ele>
        <time>2015-12-12T10:26:48.765Z</time>
      </trkpt>
      <trkpt lat="46.06121" lon="4.78078">
        <ele>212</ele>
        <time>2015-12-12T10:26:50.784Z</time>
      </trkpt>
      <trkpt lat="46.06118" lon="4.78075">
        <ele>212.5</ele>
        <time>2015-12-12T10:26:51.764Z</time>
      </trkpt>
      <trkpt lat="46.06113" lon="4.78068">
        <ele>213.800003052</ele>
        <time>2015-12-12T10:26:53.784Z</time>
      </trkpt>
      <trkpt lat="46.06111" lon="4.78064">
        <ele>214.199996948</ele>
        <time>2015-12-12T10:26:54.764Z</time>
      </trkpt>
      <trkpt lat="46.06104" lon="4.78057">
        <ele>214.699996948</ele>
        <time>2015-12-12T10:26:56.781Z</time>
      </trkpt>
      <trkpt lat="46.06101" lon="4.78053">
        <ele>214.199996948</ele>
        <time>2015-12-12T10:26:57.764Z</time>
      </trkpt>
      <trkpt lat="46.06096" lon="4.78049">
        <ele>213.399993896</ele>
        <time>2015-12-12T10:26:58.781Z</time>
      </trkpt>
      <trkpt lat="46.06092" lon="4.78046">
        <ele>213</ele>
        <time>2015-12-12T10:26:59.768Z</time>
      </trkpt>
      <trkpt lat="46.06087" lon="4.78044">
        <ele>212.699996948</ele>
        <time>2015-12-12T10:27:00.969Z</time>
      </trkpt>
      <trkpt lat="46.06082" lon="4.78041">
        <ele>211.800003052</ele>
        <time>2015-12-12T10:27:01.766Z</time>
      </trkpt>
      <trkpt lat="46.06078" lon="4.78038">
        <ele>211.300003052</ele>
        <time>2015-12-12T10:27:02.781Z</time>
      </trkpt>
      <trkpt lat="46.06074" lon="4.78035">
        <ele>211.300003052</ele>
        <time>2015-12-12T10:27:03.765Z</time>
      </trkpt>
      <trkpt lat="46.06067" lon="4.78029">
        <ele>211.100006104</ele>
        <time>2015-12-12T10:27:05.784Z</time>
      </trkpt>
      <trkpt lat="46.06063" lon="4.78026">
        <ele>211.100006104</ele>
        <time>2015-12-12T10:27:06.765Z</time>
      </trkpt>
      <trkpt lat="46.06056" lon="4.78019">
        <ele>211.399993896</ele>
        <time>2015-12-12T10:27:08.781Z</time>
      </trkpt>
      <trkpt lat="46.06053" lon="4.78014">
        <ele>211.399993896</ele>
        <time>2015-12-12T10:27:09.764Z</time>
      </trkpt>
      <trkpt lat="46.06048" lon="4.78005">
        <ele>210.800003052</ele>
        <time>2015-12-12T10:27:11.785Z</time>
      </trkpt>
      <trkpt lat="46.06044" lon="4.78">
        <ele>210.5</ele>
        <time>2015-12-12T10:27:12.764Z</time>
      </trkpt>
      <trkpt lat="46.06038" lon="4.77993">
        <ele>210.199996948</ele>
        <time>2015-12-12T10:27:14.782Z</time>
      </trkpt>
      <trkpt lat="46.06035" lon="4.77989">
        <ele>210.199996948</ele>
        <time>2015-12-12T10:27:15.765Z</time>
      </trkpt>
      <trkpt lat="46.06031" lon="4.77985">
        <ele>210.100006104</ele>
        <time>2015-12-12T10:27:16.782Z</time>
      </trkpt>
      <trkpt lat="46.06026" lon="4.77981">
        <ele>210.600006104</ele>
        <time>2015-12-12T10:27:17.767Z</time>
      </trkpt>
      <trkpt lat="46.06023" lon="4.77978">
        <ele>210.300003052</ele>
        <time>2015-12-12T10:27:18.781Z</time>
      </trkpt>
      <trkpt lat="46.06018" lon="4.77974">
        <ele>210.5</ele>
        <time>2015-12-12T10:27:19.766Z</time>
      </trkpt>
      <trkpt lat="46.06014" lon="4.7797">
        <ele>210.699996948</ele>
        <time>2015-12-12T10:27:20.781Z</time>
      </trkpt>
      <trkpt lat="46.0601" lon="4.77966">
        <ele>210.300003052</ele>
        <time>2015-12-12T10:27:21.764Z</time>
      </trkpt>
      <trkpt lat="46.06004" lon="4.77957">
        <ele>210.699996948</ele>
        <time>2015-12-12T10:27:23.785Z</time>
      </trkpt>
      <trkpt lat="46.06001" lon="4.77953">
        <ele>210.300003052</ele>
        <time>2015-12-12T10:27:24.764Z</time>
      </trkpt>
      <trkpt lat="46.05999" lon="4.77947">
        <ele>210.100006104</ele>
        <time>2015-12-12T10:27:25.782Z</time>
      </trkpt>
      <trkpt lat="46.05996" lon="4.77941">
        <ele>209.100006104</ele>
        <time>2015-12-12T10:27:26.777Z</time>
      </trkpt>
      <trkpt lat="46.05994" lon="4.77934">
        <ele>209</ele>
        <time>2015-12-12T10:27:27.79Z</time>
      </trkpt>
      <trkpt lat="46.05991" lon="4.77929">
        <ele>208.699996948</ele>
        <time>2015-12-12T10:27:28.765Z</time>
      </trkpt>
      <trkpt lat="46.05989" lon="4.77922">
        <ele>208.300003052</ele>
        <time>2015-12-12T10:27:29.784Z</time>
      </trkpt>
      <trkpt lat="46.05986" lon="4.77916">
        <ele>207.600006104</ele>
        <time>2015-12-12T10:27:30.764Z</time>
      </trkpt>
      <trkpt lat="46.05984" lon="4.7791">
        <ele>207.300003052</ele>
        <time>2015-12-12T10:27:31.782Z</time>
      </trkpt>
      <trkpt lat="46.05981" lon="4.77904">
        <ele>206.699996948</ele>
        <time>2015-12-12T10:27:32.764Z</time>
      </trkpt>
      <trkpt lat="46.05977" lon="4.77899">
        <ele>206.300003052</ele>
        <time>2015-12-12T10:27:33.781Z</time>
      </trkpt>
      <trkpt lat="46.05974" lon="4.77894">
        <ele>206.399993896</ele>
        <time>2015-12-12T10:27:34.764Z</time>
      </trkpt>
      <trkpt lat="46.05971" lon="4.77888">
        <ele>206.399993896</ele>
        <time>2015-12-12T10:27:35.788Z</time>
      </trkpt>
      <trkpt lat="46.05967" lon="4.77883">
        <ele>205.899993896</ele>
        <time>2015-12-12T10:27:36.764Z</time>
      </trkpt>
      <trkpt lat="46.05964" lon="4.77877">
        <ele>205.399993896</ele>
        <time>2015-12-12T10:27:37.816Z</time>
      </trkpt>
      <trkpt lat="46.0596" lon="4.77871">
        <ele>205.300003052</ele>
        <time>2015-12-12T10:27:38.764Z</time>
      </trkpt>
      <trkpt lat="46.05957" lon="4.77864">
        <ele>205.100006104</ele>
        <time>2015-12-12T10:27:39.781Z</time>
      </trkpt>
      <trkpt lat="46.05953" lon="4.77858">
        <ele>204.399993896</ele>
        <time>2015-12-12T10:27:40.764Z</time>
      </trkpt>
      <trkpt lat="46.0595" lon="4.77852">
        <ele>203.600006104</ele>
        <time>2015-12-12T10:27:41.785Z</time>
      </trkpt>
      <trkpt lat="46.05947" lon="4.77845">
        <ele>203.5</ele>
        <time>2015-12-12T10:27:42.764Z</time>
      </trkpt>
      <trkpt lat="46.05943" lon="4.7784">
        <ele>203.800003052</ele>
        <time>2015-12-12T10:27:43.782Z</time>
      </trkpt>
      <trkpt lat="46.0594" lon="4.77834">
        <ele>204</ele>
        <time>2015-12-12T10:27:44.764Z</time>
      </trkpt>
      <trkpt lat="46.05935" lon="4.77824">
        <ele>204.100006104</ele>
        <time>2015-12-12T10:27:46.781Z</time>
      </trkpt>
      <trkpt lat="46.05932" lon="4.7782">
        <ele>204.199996948</ele>
        <time>2015-12-12T10:27:47.768Z</time>
      </trkpt>
      <trkpt lat="46.0593" lon="4.77815">
        <ele>204.300003052</ele>
        <time>2015-12-12T10:27:48.79Z</time>
      </trkpt>
      <trkpt lat="46.05926" lon="4.77809">
        <ele>204.399993896</ele>
        <time>2015-12-12T10:27:49.765Z</time>
      </trkpt>
      <trkpt lat="46.05923" lon="4.77803">
        <ele>204.199996948</ele>
        <time>2015-12-12T10:27:50.783Z</time>
      </trkpt>
      <trkpt lat="46.05919" lon="4.77797">
        <ele>203.699996948</ele>
        <time>2015-12-12T10:27:51.764Z</time>
      </trkpt>
      <trkpt lat="46.05915" lon="4.77791">
        <ele>203.699996948</ele>
        <time>2015-12-12T10:27:52.782Z</time>
      </trkpt>
      <trkpt lat="46.05911" lon="4.77784">
        <ele>203.199996948</ele>
        <time>2015-12-12T10:27:53.768Z</time>
      </trkpt>
      <trkpt lat="46.05908" lon="4.77777">
        <ele>203</ele>
        <time>2015-12-12T10:27:54.781Z</time>
      </trkpt>
      <trkpt lat="46.05905" lon="4.77769">
        <ele>202.5</ele>
        <time>2015-12-12T10:27:55.767Z</time>
      </trkpt>
      <trkpt lat="46.05902" lon="4.7776">
        <ele>202.300003052</ele>
        <time>2015-12-12T10:27:56.781Z</time>
      </trkpt>
      <trkpt lat="46.059" lon="4.77752">
        <ele>202.199996948</ele>
        <time>2015-12-12T10:27:57.764Z</time>
      </trkpt>
      <trkpt lat="46.05898" lon="4.77743">
        <ele>201.899993896</ele>
        <time>2015-12-12T10:27:58.824Z</time>
      </trkpt>
      <trkpt lat="46.05897" lon="4.77734">
        <ele>202</ele>
        <time>2015-12-12T10:27:59.768Z</time>
      </trkpt>
      <trkpt lat="46.05896" lon="4.77725">
        <ele>201.899993896</ele>
        <time>2015-12-12T10:28:00.781Z</time>
      </trkpt>
      <trkpt lat="46.05894" lon="4.77716">
        <ele>202.300003052</ele>
        <time>2015-12-12T10:28:01.765Z</time>
      </trkpt>
      <trkpt lat="46.05893" lon="4.77708">
        <ele>202.399993896</ele>
        <time>2015-12-12T10:28:02.781Z</time>
      </trkpt>
      <trkpt lat="46.05891" lon="4.77699">
        <ele>202.899993896</ele>
        <time>2015-12-12T10:28:03.764Z</time>
      </trkpt>
      <trkpt lat="46.05889" lon="4.77691">
        <ele>203</ele>
        <time>2015-12-12T10:28:04.781Z</time>
      </trkpt>
      <trkpt lat="46.05887" lon="4.77683">
        <ele>202.699996948</ele>
        <time>2015-12-12T10:28:05.768Z</time>
      </trkpt>
      <trkpt lat="46.05884" lon="4.77676">
        <ele>202.399993896</ele>
        <time>2015-12-12T10:28:06.788Z</time>
      </trkpt>
      <trkpt lat="46.05881" lon="4.77669">
        <ele>202.5</ele>
        <time>2015-12-12T10:28:07.765Z</time>
      </trkpt>
      <trkpt lat="46.05878" lon="4.77662">
        <ele>202.100006104</ele>
        <time>2015-12-12T10:28:08.79Z</time>
      </trkpt>
      <trkpt lat="46.05874" lon="4.77656">
        <ele>201.899993896</ele>
        <time>2015-12-12T10:28:09.764Z</time>
      </trkpt>
      <trkpt lat="46.0587" lon="4.77651">
        <ele>202.100006104</ele>
        <time>2015-12-12T10:28:10.781Z</time>
      </trkpt>
      <trkpt lat="46.05866" lon="4.77646">
        <ele>202.300003052</ele>
        <time>2015-12-12T10:28:11.767Z</time>
      </trkpt>
      <trkpt lat="46.05861" lon="4.77641">
        <ele>202</ele>
        <time>2015-12-12T10:28:12.781Z</time>
      </trkpt>
      <trkpt lat="46.05857" lon="4.77636">
        <ele>201.899993896</ele>
        <time>2015-12-12T10:28:13.766Z</time>
      </trkpt>
      <trkpt lat="46.05852" lon="4.77631">
        <ele>201.800003052</ele>
        <time>2015-12-12T10:28:14.795Z</time>
      </trkpt>
      <trkpt lat="46.05847" lon="4.77626">
        <ele>201.699996948</ele>
        <time>2015-12-12T10:28:15.765Z</time>
      </trkpt>
      <trkpt lat="46.05842" lon="4.77621">
        <ele>201.699996948</ele>
        <time>2015-12-12T10:28:16.781Z</time>
      </trkpt>
      <trkpt lat="46.05838" lon="4.77616">
        <ele>201.699996948</ele>
        <time>2015-12-12T10:28:17.767Z</time>
      </trkpt>
      <trkpt lat="46.05833" lon="4.7761">
        <ele>202</ele>
        <time>2015-12-12T10:28:18.791Z</time>
      </trkpt>
      <trkpt lat="46.05828" lon="4.77605">
        <ele>202</ele>
        <time>2015-12-12T10:28:19.765Z</time>
      </trkpt>
      <trkpt lat="46.05823" lon="4.77599">
        <ele>201.899993896</ele>
        <time>2015-12-12T10:28:20.781Z</time>
      </trkpt>
      <trkpt lat="46.05818" lon="4.77594">
        <ele>201.800003052</ele>
        <time>2015-12-12T10:28:21.764Z</time>
      </trkpt>
      <trkpt lat="46.05813" lon="4.77589">
        <ele>201.899993896</ele>
        <time>2015-12-12T10:28:22.782Z</time>
      </trkpt>
      <trkpt lat="46.05809" lon="4.77584">
        <ele>201.899993896</ele>
        <time>2015-12-12T10:28:23.767Z</time>
      </trkpt>
      <trkpt lat="46.05804" lon="4.77579">
        <ele>202</ele>
        <time>2015-12-12T10:28:24.784Z</time>
      </trkpt>
      <trkpt lat="46.058" lon="4.77574">
        <ele>201.899993896</ele>
        <time>2015-12-12T10:28:25.765Z</time>
      </trkpt>
      <trkpt lat="46.05795" lon="4.77569">
        <ele>201.899993896</ele>
        <time>2015-12-12T10:28:26.781Z</time>
      </trkpt>
      <trkpt lat="46.05791" lon="4.77564">
        <ele>201.899993896</ele>
        <time>2015-12-12T10:28:27.764Z</time>
      </trkpt>
      <trkpt lat="46.05787" lon="4.77558">
        <ele>202.199996948</ele>
        <time>2015-12-12T10:28:28.781Z</time>
      </trkpt>
      <trkpt lat="46.05783" lon="4.77552">
        <ele>202.5</ele>
        <time>2015-12-12T10:28:29.768Z</time>
      </trkpt>
      <trkpt lat="46.0578" lon="4.77546">
        <ele>202.399993896</ele>
        <time>2015-12-12T10:28:30.796Z</time>
      </trkpt>
      <trkpt lat="46.05775" lon="4.7754">
        <ele>202.399993896</ele>
        <time>2015-12-12T10:28:31.765Z</time>
      </trkpt>
      <trkpt lat="46.05771" lon="4.77535">
        <ele>202.100006104</ele>
        <time>2015-12-12T10:28:32.781Z</time>
      </trkpt>
      <trkpt lat="46.05768" lon="4.77529">
        <ele>202.199996948</ele>
        <time>2015-12-12T10:28:33.764Z</time>
      </trkpt>
      <trkpt lat="46.05764" lon="4.77522">
        <ele>202.600006104</ele>
        <time>2015-12-12T10:28:34.781Z</time>
      </trkpt>
      <trkpt lat="46.0576" lon="4.77517">
        <ele>202.600006104</ele>
        <time>2015-12-12T10:28:35.768Z</time>
      </trkpt>
      <trkpt lat="46.05757" lon="4.77511">
        <ele>202.600006104</ele>
        <time>2015-12-12T10:28:36.781Z</time>
      </trkpt>
      <trkpt lat="46.05753" lon="4.77506">
        <ele>202.5</ele>
        <time>2015-12-12T10:28:37.766Z</time>
      </trkpt>
      <trkpt lat="46.0575" lon="4.775">
        <ele>202.199996948</ele>
        <time>2015-12-12T10:28:38.782Z</time>
      </trkpt>
      <trkpt lat="46.05745" lon="4.77495">
        <ele>201.699996948</ele>
        <time>2015-12-12T10:28:39.765Z</time>
      </trkpt>
      <trkpt lat="46.05741" lon="4.77489">
        <ele>201.5</ele>
        <time>2015-12-12T10:28:40.781Z</time>
      </trkpt>
      <trkpt lat="46.05737" lon="4.77483">
        <ele>201.399993896</ele>
        <time>2015-12-12T10:28:41.767Z</time>
      </trkpt>
      <trkpt lat="46.05732" lon="4.77477">
        <ele>201.100006104</ele>
        <time>2015-12-12T10:28:42.782Z</time>
      </trkpt>
      <trkpt lat="46.05727" lon="4.77471">
        <ele>200.600006104</ele>
        <time>2015-12-12T10:28:43.766Z</time>
      </trkpt>
      <trkpt lat="46.05722" lon="4.77466">
        <ele>200.199996948</ele>
        <time>2015-12-12T10:28:44.781Z</time>
      </trkpt>
      <trkpt lat="46.05718" lon="4.77461">
        <ele>200.399993896</ele>
        <time>2015-12-12T10:28:45.764Z</time>
      </trkpt>
      <trkpt lat="46.05712" lon="4.77456">
        <ele>200.199996948</ele>
        <time>2015-12-12T10:28:46.796Z</time>
      </trkpt>
      <trkpt lat="46.05707" lon="4.77452">
        <ele>200.100006104</ele>
        <time>2015-12-12T10:28:47.767Z</time>
      </trkpt>
      <trkpt lat="46.05701" lon="4.77449">
        <ele>199.899993896</ele>
        <time>2015-12-12T10:28:48.781Z</time>
      </trkpt>
      <trkpt lat="46.05695" lon="4.77445">
        <ele>199.600006104</ele>
        <time>2015-12-12T10:28:49.765Z</time>
      </trkpt>
      <trkpt lat="46.0569" lon="4.77441">
        <ele>199.399993896</ele>
        <time>2015-12-12T10:28:50.785Z</time>
      </trkpt>
      <trkpt lat="46.05685" lon="4.77436">
        <ele>199.100006104</ele>
        <time>2015-12-12T10:28:51.764Z</time>
      </trkpt>
      <trkpt lat="46.0568" lon="4.77432">
        <ele>198.899993896</ele>
        <time>2015-12-12T10:28:52.78Z</time>
      </trkpt>
      <trkpt lat="46.05674" lon="4.77427">
        <ele>198.399993896</ele>
        <time>2015-12-12T10:28:53.767Z</time>
      </trkpt>
      <trkpt lat="46.05669" lon="4.77422">
        <ele>198.300003052</ele>
        <time>2015-12-12T10:28:54.781Z</time>
      </trkpt>
      <trkpt lat="46.05663" lon="4.77417">
        <ele>198.199996948</ele>
        <time>2015-12-12T10:28:55.765Z</time>
      </trkpt>
      <trkpt lat="46.05658" lon="4.77412">
        <ele>197.699996948</ele>
        <time>2015-12-12T10:28:56.781Z</time>
      </trkpt>
      <trkpt lat="46.05653" lon="4.77406">
        <ele>197.399993896</ele>
        <time>2015-12-12T10:28:57.764Z</time>
      </trkpt>
      <trkpt lat="46.05647" lon="4.774">
        <ele>197.199996948</ele>
        <time>2015-12-12T10:28:58.781Z</time>
      </trkpt>
      <trkpt lat="46.05641" lon="4.77394">
        <ele>196.899993896</ele>
        <time>2015-12-12T10:28:59.768Z</time>
      </trkpt>
      <trkpt lat="46.05635" lon="4.77388">
        <ele>196.300003052</ele>
        <time>2015-12-12T10:29:00.781Z</time>
      </trkpt>
      <trkpt lat="46.05628" lon="4.77382">
        <ele>195.899993896</ele>
        <time>2015-12-12T10:29:01.765Z</time>
      </trkpt>
      <trkpt lat="46.05622" lon="4.77377">
        <ele>195.600006104</ele>
        <time>2015-12-12T10:29:02.783Z</time>
      </trkpt>
      <trkpt lat="46.05615" lon="4.77371">
        <ele>195.5</ele>
        <time>2015-12-12T10:29:03.764Z</time>
      </trkpt>
      <trkpt lat="46.05607" lon="4.77366">
        <ele>195.399993896</ele>
        <time>2015-12-12T10:29:04.781Z</time>
      </trkpt>
      <trkpt lat="46.05601" lon="4.77362">
        <ele>195.100006104</ele>
        <time>2015-12-12T10:29:05.768Z</time>
      </trkpt>
      <trkpt lat="46.05593" lon="4.77357">
        <ele>194.800003052</ele>
        <time>2015-12-12T10:29:06.781Z</time>
      </trkpt>
      <trkpt lat="46.05586" lon="4.77353">
        <ele>194.5</ele>
        <time>2015-12-12T10:29:07.765Z</time>
      </trkpt>
      <trkpt lat="46.05579" lon="4.77349">
        <ele>194.399993896</ele>
        <time>2015-12-12T10:29:08.783Z</time>
      </trkpt>
      <trkpt lat="46.05573" lon="4.77344">
        <ele>194.100006104</ele>
        <time>2015-12-12T10:29:09.764Z</time>
      </trkpt>
      <trkpt lat="46.05566" lon="4.7734">
        <ele>194.100006104</ele>
        <time>2015-12-12T10:29:10.782Z</time>
      </trkpt>
      <trkpt lat="46.05559" lon="4.77336">
        <ele>193.800003052</ele>
        <time>2015-12-12T10:29:11.767Z</time>
      </trkpt>
      <trkpt lat="46.05552" lon="4.77332">
        <ele>193.699996948</ele>
        <time>2015-12-12T10:29:12.796Z</time>
      </trkpt>
      <trkpt lat="46.05545" lon="4.77328">
        <ele>193.600006104</ele>
        <time>2015-12-12T10:29:13.765Z</time>
      </trkpt>
      <trkpt lat="46.05539" lon="4.77324">
        <ele>193.300003052</ele>
        <time>2015-12-12T10:29:14.78Z</time>
      </trkpt>
      <trkpt lat="46.05532" lon="4.7732">
        <ele>193.199996948</ele>
        <time>2015-12-12T10:29:15.764Z</time>
      </trkpt>
      <trkpt lat="46.05526" lon="4.77316">
        <ele>193.100006104</ele>
        <time>2015-12-12T10:29:16.783Z</time>
      </trkpt>
      <trkpt lat="46.0552" lon="4.77312">
        <ele>192.800003052</ele>
        <time>2015-12-12T10:29:17.767Z</time>
      </trkpt>
      <trkpt lat="46.05514" lon="4.77309">
        <ele>192.699996948</ele>
        <time>2015-12-12T10:29:18.78Z</time>
      </trkpt>
      <trkpt lat="46.05508" lon="4.77305">
        <ele>192.600006104</ele>
        <time>2015-12-12T10:29:19.766Z</time>
      </trkpt>
      <trkpt lat="46.05501" lon="4.77301">
        <ele>192.600006104</ele>
        <time>2015-12-12T10:29:20.781Z</time>
      </trkpt>
      <trkpt lat="46.05495" lon="4.77297">
        <ele>193</ele>
        <time>2015-12-12T10:29:21.764Z</time>
      </trkpt>
      <trkpt lat="46.05489" lon="4.77293">
        <ele>193.199996948</ele>
        <time>2015-12-12T10:29:22.781Z</time>
      </trkpt>
      <trkpt lat="46.05483" lon="4.77289">
        <ele>193.199996948</ele>
        <time>2015-12-12T10:29:23.768Z</time>
      </trkpt>
      <trkpt lat="46.05477" lon="4.77286">
        <ele>193.100006104</ele>
        <time>2015-12-12T10:29:24.781Z</time>
      </trkpt>
      <trkpt lat="46.05471" lon="4.77282">
        <ele>193.199996948</ele>
        <time>2015-12-12T10:29:25.765Z</time>
      </trkpt>
      <trkpt lat="46.05464" lon="4.77279">
        <ele>193.300003052</ele>
        <time>2015-12-12T10:29:26.782Z</time>
      </trkpt>
      <trkpt lat="46.05458" lon="4.77275">
        <ele>193</ele>
        <time>2015-12-12T10:29:27.766Z</time>
      </trkpt>
      <trkpt lat="46.05451" lon="4.77272">
        <ele>193.100006104</ele>
        <time>2015-12-12T10:29:28.816Z</time>
      </trkpt>
      <trkpt lat="46.05445" lon="4.7727">
        <ele>193.100006104</ele>
        <time>2015-12-12T10:29:29.769Z</time>
      </trkpt>
      <trkpt lat="46.05439" lon="4.77267">
        <ele>193.300003052</ele>
        <time>2015-12-12T10:29:30.782Z</time>
      </trkpt>
      <trkpt lat="46.05432" lon="4.77263">
        <ele>193.5</ele>
        <time>2015-12-12T10:29:31.765Z</time>
      </trkpt>
      <trkpt lat="46.05426" lon="4.7726">
        <ele>193.399993896</ele>
        <time>2015-12-12T10:29:32.781Z</time>
      </trkpt>
      <trkpt lat="46.0542" lon="4.77257">
        <ele>193.5</ele>
        <time>2015-12-12T10:29:33.764Z</time>
      </trkpt>
      <trkpt lat="46.05414" lon="4.77254">
        <ele>193.800003052</ele>
        <time>2015-12-12T10:29:34.781Z</time>
      </trkpt>
      <trkpt lat="46.05408" lon="4.77252">
        <ele>194.300003052</ele>
        <time>2015-12-12T10:29:35.768Z</time>
      </trkpt>
      <trkpt lat="46.05402" lon="4.77249">
        <ele>194.600006104</ele>
        <time>2015-12-12T10:29:36.781Z</time>
      </trkpt>
      <trkpt lat="46.05396" lon="4.77246">
        <ele>194.5</ele>
        <time>2015-12-12T10:29:37.765Z</time>
      </trkpt>
      <trkpt lat="46.0539" lon="4.77244">
        <ele>194.600006104</ele>
        <time>2015-12-12T10:29:38.789Z</time>
      </trkpt>
      <trkpt lat="46.05385" lon="4.77241">
        <ele>194.800003052</ele>
        <time>2015-12-12T10:29:39.765Z</time>
      </trkpt>
      <trkpt lat="46.0538" lon="4.77238">
        <ele>195.199996948</ele>
        <time>2015-12-12T10:29:40.78Z</time>
      </trkpt>
      <trkpt lat="46.05375" lon="4.77235">
        <ele>195.300003052</ele>
        <time>2015-12-12T10:29:41.767Z</time>
      </trkpt>
      <trkpt lat="46.0537" lon="4.77232">
        <ele>195.800003052</ele>
        <time>2015-12-12T10:29:42.783Z</time>
      </trkpt>
      <trkpt lat="46.05365" lon="4.7723">
        <ele>195.899993896</ele>
        <time>2015-12-12T10:29:43.765Z</time>
      </trkpt>
      <trkpt lat="46.0536" lon="4.77227">
        <ele>196.199996948</ele>
        <time>2015-12-12T10:29:44.78Z</time>
      </trkpt>
      <trkpt lat="46.05356" lon="4.77224">
        <ele>196</ele>
        <time>2015-12-12T10:29:45.764Z</time>
      </trkpt>
      <trkpt lat="46.05351" lon="4.77221">
        <ele>196.100006104</ele>
        <time>2015-12-12T10:29:46.781Z</time>
      </trkpt>
      <trkpt lat="46.05346" lon="4.77218">
        <ele>196.199996948</ele>
        <time>2015-12-12T10:29:47.767Z</time>
      </trkpt>
      <trkpt lat="46.05341" lon="4.77215">
        <ele>196.300003052</ele>
        <time>2015-12-12T10:29:48.792Z</time>
      </trkpt>
      <trkpt lat="46.05337" lon="4.77212">
        <ele>196.600006104</ele>
        <time>2015-12-12T10:29:49.779Z</time>
      </trkpt>
      <trkpt lat="46.05332" lon="4.77208">
        <ele>197.199996948</ele>
        <time>2015-12-12T10:29:50.784Z</time>
      </trkpt>
      <trkpt lat="46.05326" lon="4.77203">
        <ele>197.199996948</ele>
        <time>2015-12-12T10:29:51.764Z</time>
      </trkpt>
      <trkpt lat="46.05321" lon="4.77199">
        <ele>197.399993896</ele>
        <time>2015-12-12T10:29:52.78Z</time>
      </trkpt>
      <trkpt lat="46.05316" lon="4.77194">
        <ele>197.5</ele>
        <time>2015-12-12T10:29:53.768Z</time>
      </trkpt>
      <trkpt lat="46.0531" lon="4.77189">
        <ele>197.399993896</ele>
        <time>2015-12-12T10:29:54.78Z</time>
      </trkpt>
      <trkpt lat="46.05305" lon="4.77185">
        <ele>197.5</ele>
        <time>2015-12-12T10:29:55.765Z</time>
      </trkpt>
      <trkpt lat="46.053" lon="4.77179">
        <ele>197.600006104</ele>
        <time>2015-12-12T10:29:56.78Z</time>
      </trkpt>
      <trkpt lat="46.05295" lon="4.77174">
        <ele>197.399993896</ele>
        <time>2015-12-12T10:29:57.764Z</time>
      </trkpt>
      <trkpt lat="46.0529" lon="4.77168">
        <ele>197.300003052</ele>
        <time>2015-12-12T10:29:58.78Z</time>
      </trkpt>
      <trkpt lat="46.05286" lon="4.77162">
        <ele>197</ele>
        <time>2015-12-12T10:29:59.767Z</time>
      </trkpt>
      <trkpt lat="46.05281" lon="4.77157">
        <ele>196.899993896</ele>
        <time>2015-12-12T10:30:00.782Z</time>
      </trkpt>
      <trkpt lat="46.05276" lon="4.77152">
        <ele>196.899993896</ele>
        <time>2015-12-12T10:30:01.765Z</time>
      </trkpt>
      <trkpt lat="46.0527" lon="4.77146">
        <ele>196.600006104</ele>
        <time>2015-12-12T10:30:02.78Z</time>
      </trkpt>
      <trkpt lat="46.05265" lon="4.77141">
        <ele>196.199996948</ele>
        <time>2015-12-12T10:30:03.764Z</time>
      </trkpt>
      <trkpt lat="46.0526" lon="4.77136">
        <ele>196</ele>
        <time>2015-12-12T10:30:04.781Z</time>
      </trkpt>
      <trkpt lat="46.05255" lon="4.77131">
        <ele>196</ele>
        <time>2015-12-12T10:30:05.768Z</time>
      </trkpt>
      <trkpt lat="46.0525" lon="4.77125">
        <ele>195.5</ele>
        <time>2015-12-12T10:30:06.781Z</time>
      </trkpt>
      <trkpt lat="46.05245" lon="4.7712">
        <ele>195.399993896</ele>
        <time>2015-12-12T10:30:07.766Z</time>
      </trkpt>
      <trkpt lat="46.0524" lon="4.77116">
        <ele>195.399993896</ele>
        <time>2015-12-12T10:30:08.784Z</time>
      </trkpt>
      <trkpt lat="46.05236" lon="4.77111">
        <ele>195.300003052</ele>
        <time>2015-12-12T10:30:09.764Z</time>
      </trkpt>
      <trkpt lat="46.05232" lon="4.77107">
        <ele>195.399993896</ele>
        <time>2015-12-12T10:30:10.781Z</time>
      </trkpt>
      <trkpt lat="46.05229" lon="4.77101">
        <ele>195.5</ele>
        <time>2015-12-12T10:30:11.768Z</time>
      </trkpt>
      <trkpt lat="46.05225" lon="4.77094">
        <ele>195.600006104</ele>
        <time>2015-12-12T10:30:12.781Z</time>
      </trkpt>
      <trkpt lat="46.05223" lon="4.77087">
        <ele>195.600006104</ele>
        <time>2015-12-12T10:30:13.767Z</time>
      </trkpt>
      <trkpt lat="46.05221" lon="4.7708">
        <ele>195.5</ele>
        <time>2015-12-12T10:30:14.797Z</time>
      </trkpt>
      <trkpt lat="46.05218" lon="4.77072">
        <ele>195.5</ele>
        <time>2015-12-12T10:30:15.764Z</time>
      </trkpt>
      <trkpt lat="46.05216" lon="4.77065">
        <ele>195.5</ele>
        <time>2015-12-12T10:30:16.78Z</time>
      </trkpt>
      <trkpt lat="46.05215" lon="4.77059">
        <ele>195.899993896</ele>
        <time>2015-12-12T10:30:17.767Z</time>
      </trkpt>
      <trkpt lat="46.05213" lon="4.77051">
        <ele>195.899993896</ele>
        <time>2015-12-12T10:30:18.78Z</time>
      </trkpt>
      <trkpt lat="46.0521" lon="4.77043">
        <ele>195.699996948</ele>
        <time>2015-12-12T10:30:19.765Z</time>
      </trkpt>
      <trkpt lat="46.05206" lon="4.77034">
        <ele>195.899993896</ele>
        <time>2015-12-12T10:30:20.78Z</time>
      </trkpt>
      <trkpt lat="46.05203" lon="4.77026">
        <ele>195.399993896</ele>
        <time>2015-12-12T10:30:21.764Z</time>
      </trkpt>
      <trkpt lat="46.05201" lon="4.77018">
        <ele>195.199996948</ele>
        <time>2015-12-12T10:30:22.781Z</time>
      </trkpt>
      <trkpt lat="46.05199" lon="4.77009">
        <ele>194.600006104</ele>
        <time>2015-12-12T10:30:23.768Z</time>
      </trkpt>
      <trkpt lat="46.05197" lon="4.77001">
        <ele>194.800003052</ele>
        <time>2015-12-12T10:30:24.781Z</time>
      </trkpt>
      <trkpt lat="46.05195" lon="4.76993">
        <ele>194.399993896</ele>
        <time>2015-12-12T10:30:25.765Z</time>
      </trkpt>
      <trkpt lat="46.05192" lon="4.76985">
        <ele>193.5</ele>
        <time>2015-12-12T10:30:26.821Z</time>
      </trkpt>
      <trkpt lat="46.05189" lon="4.76976">
        <ele>192.600006104</ele>
        <time>2015-12-12T10:30:27.764Z</time>
      </trkpt>
      <trkpt lat="46.05186" lon="4.76967">
        <ele>192.5</ele>
        <time>2015-12-12T10:30:28.78Z</time>
      </trkpt>
      <trkpt lat="46.05182" lon="4.76958">
        <ele>191.100006104</ele>
        <time>2015-12-12T10:30:29.767Z</time>
      </trkpt>
      <trkpt lat="46.05178" lon="4.7695">
        <ele>190.5</ele>
        <time>2015-12-12T10:30:30.78Z</time>
      </trkpt>
      <trkpt lat="46.05174" lon="4.76941">
        <ele>189.800003052</ele>
        <time>2015-12-12T10:30:31.765Z</time>
      </trkpt>
      <trkpt lat="46.05169" lon="4.76934">
        <ele>189.199996948</ele>
        <time>2015-12-12T10:30:32.781Z</time>
      </trkpt>
      <trkpt lat="46.05165" lon="4.76926">
        <ele>189.100006104</ele>
        <time>2015-12-12T10:30:33.764Z</time>
      </trkpt>
      <trkpt lat="46.0516" lon="4.76918">
        <ele>188</ele>
        <time>2015-12-12T10:30:34.783Z</time>
      </trkpt>
      <trkpt lat="46.05156" lon="4.7691">
        <ele>188.199996948</ele>
        <time>2015-12-12T10:30:35.767Z</time>
      </trkpt>
      <trkpt lat="46.05151" lon="4.76902">
        <ele>188.100006104</ele>
        <time>2015-12-12T10:30:36.795Z</time>
      </trkpt>
      <trkpt lat="46.05147" lon="4.76894">
        <ele>187.600006104</ele>
        <time>2015-12-12T10:30:37.765Z</time>
      </trkpt>
      <trkpt lat="46.05143" lon="4.76886">
        <ele>187.100006104</ele>
        <time>2015-12-12T10:30:38.781Z</time>
      </trkpt>
      <trkpt lat="46.05138" lon="4.76877">
        <ele>186.600006104</ele>
        <time>2015-12-12T10:30:39.803Z</time>
      </trkpt>
      <trkpt lat="46.05135" lon="4.76869">
        <ele>186.399993896</ele>
        <time>2015-12-12T10:30:40.78Z</time>
      </trkpt>
      <trkpt lat="46.05131" lon="4.76861">
        <ele>186.100006104</ele>
        <time>2015-12-12T10:30:41.768Z</time>
      </trkpt>
      <trkpt lat="46.05127" lon="4.76853">
        <ele>186</ele>
        <time>2015-12-12T10:30:42.78Z</time>
      </trkpt>
      <trkpt lat="46.05124" lon="4.76845">
        <ele>185.899993896</ele>
        <time>2015-12-12T10:30:43.765Z</time>
      </trkpt>
      <trkpt lat="46.0512" lon="4.76838">
        <ele>185.600006104</ele>
        <time>2015-12-12T10:30:44.781Z</time>
      </trkpt>
      <trkpt lat="46.05117" lon="4.7683">
        <ele>185.300003052</ele>
        <time>2015-12-12T10:30:45.764Z</time>
      </trkpt>
      <trkpt lat="46.05114" lon="4.76822">
        <ele>185.199996948</ele>
        <time>2015-12-12T10:30:46.781Z</time>
      </trkpt>
      <trkpt lat="46.05111" lon="4.76814">
        <ele>184.899993896</ele>
        <time>2015-12-12T10:30:47.767Z</time>
      </trkpt>
      <trkpt lat="46.05109" lon="4.76805">
        <ele>184.600006104</ele>
        <time>2015-12-12T10:30:48.781Z</time>
      </trkpt>
      <trkpt lat="46.05107" lon="4.76797">
        <ele>184.600006104</ele>
        <time>2015-12-12T10:30:49.765Z</time>
      </trkpt>
      <trkpt lat="46.05105" lon="4.76789">
        <ele>184.600006104</ele>
        <time>2015-12-12T10:30:50.783Z</time>
      </trkpt>
      <trkpt lat="46.05103" lon="4.7678">
        <ele>184.899993896</ele>
        <time>2015-12-12T10:30:51.764Z</time>
      </trkpt>
      <trkpt lat="46.05101" lon="4.76771">
        <ele>185.100006104</ele>
        <time>2015-12-12T10:30:52.781Z</time>
      </trkpt>
      <trkpt lat="46.05098" lon="4.76762">
        <ele>184.600006104</ele>
        <time>2015-12-12T10:30:53.767Z</time>
      </trkpt>
      <trkpt lat="46.05096" lon="4.76753">
        <ele>184.199996948</ele>
        <time>2015-12-12T10:30:54.781Z</time>
      </trkpt>
      <trkpt lat="46.05094" lon="4.76743">
        <ele>184</ele>
        <time>2015-12-12T10:30:55.765Z</time>
      </trkpt>
      <trkpt lat="46.05092" lon="4.76734">
        <ele>184</ele>
        <time>2015-12-12T10:30:56.78Z</time>
      </trkpt>
      <trkpt lat="46.0509" lon="4.76725">
        <ele>184.399993896</ele>
        <time>2015-12-12T10:30:57.778Z</time>
      </trkpt>
      <trkpt lat="46.05089" lon="4.76716">
        <ele>184.600006104</ele>
        <time>2015-12-12T10:30:58.78Z</time>
      </trkpt>
      <trkpt lat="46.05088" lon="4.76707">
        <ele>184.600006104</ele>
        <time>2015-12-12T10:30:59.767Z</time>
      </trkpt>
      <trkpt lat="46.05086" lon="4.76697">
        <ele>184.800003052</ele>
        <time>2015-12-12T10:31:00.784Z</time>
      </trkpt>
      <trkpt lat="46.05086" lon="4.76688">
        <ele>184.800003052</ele>
        <time>2015-12-12T10:31:01.765Z</time>
      </trkpt>
      <trkpt lat="46.05084" lon="4.7668">
        <ele>184.800003052</ele>
        <time>2015-12-12T10:31:02.787Z</time>
      </trkpt>
      <trkpt lat="46.05083" lon="4.76671">
        <ele>184.800003052</ele>
        <time>2015-12-12T10:31:03.764Z</time>
      </trkpt>
      <trkpt lat="46.05082" lon="4.76663">
        <ele>184.800003052</ele>
        <time>2015-12-12T10:31:04.781Z</time>
      </trkpt>
      <trkpt lat="46.05082" lon="4.76654">
        <ele>184.699996948</ele>
        <time>2015-12-12T10:31:05.767Z</time>
      </trkpt>
      <trkpt lat="46.05081" lon="4.76646">
        <ele>184.800003052</ele>
        <time>2015-12-12T10:31:06.78Z</time>
      </trkpt>
      <trkpt lat="46.05081" lon="4.76638">
        <ele>185</ele>
        <time>2015-12-12T10:31:07.765Z</time>
      </trkpt>
      <trkpt lat="46.0508" lon="4.76626">
        <ele>185.100006104</ele>
        <time>2015-12-12T10:31:09.781Z</time>
      </trkpt>
      <trkpt lat="46.0508" lon="4.76622">
        <ele>185.100006104</ele>
        <time>2015-12-12T10:31:10.764Z</time>
      </trkpt>
      <trkpt lat="46.0508" lon="4.7661">
        <ele>185.5</ele>
        <time>2015-12-12T10:31:13.781Z</time>
      </trkpt>
      <trkpt lat="46.05079" lon="4.76606">
        <ele>185.800003052</ele>
        <time>2015-12-12T10:31:14.764Z</time>
      </trkpt>
      <trkpt lat="46.05072" lon="4.76599">
        <ele>185.899993896</ele>
        <time>2015-12-12T10:31:16.78Z</time>
      </trkpt>
      <trkpt lat="46.05068" lon="4.76596">
        <ele>186</ele>
        <time>2015-12-12T10:31:17.767Z</time>
      </trkpt>
      <trkpt lat="46.05063" lon="4.76594">
        <ele>186</ele>
        <time>2015-12-12T10:31:18.812Z</time>
      </trkpt>
      <trkpt lat="46.05058" lon="4.76591">
        <ele>186.600006104</ele>
        <time>2015-12-12T10:31:19.765Z</time>
      </trkpt>
      <trkpt lat="46.05052" lon="4.76587">
        <ele>186.5</ele>
        <time>2015-12-12T10:31:20.781Z</time>
      </trkpt>
      <trkpt lat="46.05047" lon="4.76584">
        <ele>186.5</ele>
        <time>2015-12-12T10:31:21.764Z</time>
      </trkpt>
      <trkpt lat="46.05042" lon="4.76579">
        <ele>187</ele>
        <time>2015-12-12T10:31:22.781Z</time>
      </trkpt>
      <trkpt lat="46.05037" lon="4.76576">
        <ele>187.199996948</ele>
        <time>2015-12-12T10:31:23.767Z</time>
      </trkpt>
      <trkpt lat="46.05032" lon="4.76572">
        <ele>187</ele>
        <time>2015-12-12T10:31:24.831Z</time>
      </trkpt>
      <trkpt lat="46.05027" lon="4.76569">
        <ele>187.600006104</ele>
        <time>2015-12-12T10:31:25.765Z</time>
      </trkpt>
      <trkpt lat="46.05022" lon="4.76568">
        <ele>187.800003052</ele>
        <time>2015-12-12T10:31:26.783Z</time>
      </trkpt>
      <trkpt lat="46.05018" lon="4.76565">
        <ele>188.199996948</ele>
        <time>2015-12-12T10:31:27.764Z</time>
      </trkpt>
      <trkpt lat="46.0501" lon="4.76558">
        <ele>188.100006104</ele>
        <time>2015-12-12T10:31:29.784Z</time>
      </trkpt>
      <trkpt lat="46.05008" lon="4.76553">
        <ele>188</ele>
        <time>2015-12-12T10:31:30.764Z</time>
      </trkpt>
      <trkpt lat="46.05005" lon="4.76547">
        <ele>188.100006104</ele>
        <time>2015-12-12T10:31:31.781Z</time>
      </trkpt>
      <trkpt lat="46.05001" lon="4.7654">
        <ele>188.100006104</ele>
        <time>2015-12-12T10:31:32.764Z</time>
      </trkpt>
      <trkpt lat="46.04998" lon="4.76533">
        <ele>188.600006104</ele>
        <time>2015-12-12T10:31:33.78Z</time>
      </trkpt>
      <trkpt lat="46.04994" lon="4.76526">
        <ele>189.100006104</ele>
        <time>2015-12-12T10:31:34.764Z</time>
      </trkpt>
      <trkpt lat="46.04991" lon="4.76518">
        <ele>188.899993896</ele>
        <time>2015-12-12T10:31:35.784Z</time>
      </trkpt>
      <trkpt lat="46.04988" lon="4.76511">
        <ele>189</ele>
        <time>2015-12-12T10:31:36.764Z</time>
      </trkpt>
      <trkpt lat="46.04985" lon="4.76503">
        <ele>189</ele>
        <time>2015-12-12T10:31:37.79Z</time>
      </trkpt>
      <trkpt lat="46.04983" lon="4.76496">
        <ele>188.5</ele>
        <time>2015-12-12T10:31:38.764Z</time>
      </trkpt>
      <trkpt lat="46.04981" lon="4.76489">
        <ele>188.5</ele>
        <time>2015-12-12T10:31:39.921Z</time>
      </trkpt>
      <trkpt lat="46.04979" lon="4.76482">
        <ele>188.300003052</ele>
        <time>2015-12-12T10:31:40.764Z</time>
      </trkpt>
      <trkpt lat="46.04977" lon="4.76475">
        <ele>188.100006104</ele>
        <time>2015-12-12T10:31:41.783Z</time>
      </trkpt>
      <trkpt lat="46.04976" lon="4.76467">
        <ele>188.100006104</ele>
        <time>2015-12-12T10:31:42.764Z</time>
      </trkpt>
      <trkpt lat="46.04972" lon="4.76456">
        <ele>188.100006104</ele>
        <time>2015-12-12T10:31:44.78Z</time>
      </trkpt>
      <trkpt lat="46.04969" lon="4.76451">
        <ele>188.199996948</ele>
        <time>2015-12-12T10:31:45.764Z</time>
      </trkpt>
      <trkpt lat="46.04967" lon="4.76446">
        <ele>188.199996948</ele>
        <time>2015-12-12T10:31:46.781Z</time>
      </trkpt>
      <trkpt lat="46.04964" lon="4.76441">
        <ele>188.199996948</ele>
        <time>2015-12-12T10:31:47.767Z</time>
      </trkpt>
      <trkpt lat="46.0496" lon="4.76437">
        <ele>188.300003052</ele>
        <time>2015-12-12T10:31:48.78Z</time>
      </trkpt>
      <trkpt lat="46.04955" lon="4.76434">
        <ele>188.199996948</ele>
        <time>2015-12-12T10:31:49.765Z</time>
      </trkpt>
      <trkpt lat="46.04949" lon="4.76432">
        <ele>187.800003052</ele>
        <time>2015-12-12T10:31:50.814Z</time>
      </trkpt>
      <trkpt lat="46.04943" lon="4.76431">
        <ele>187.899993896</ele>
        <time>2015-12-12T10:31:51.764Z</time>
      </trkpt>
      <trkpt lat="46.04937" lon="4.76432">
        <ele>187.899993896</ele>
        <time>2015-12-12T10:31:52.782Z</time>
      </trkpt>
      <trkpt lat="46.04932" lon="4.76433">
        <ele>188.399993896</ele>
        <time>2015-12-12T10:31:53.767Z</time>
      </trkpt>
      <trkpt lat="46.04927" lon="4.76435">
        <ele>188.600006104</ele>
        <time>2015-12-12T10:31:54.781Z</time>
      </trkpt>
      <trkpt lat="46.04921" lon="4.76437">
        <ele>189.100006104</ele>
        <time>2015-12-12T10:31:55.765Z</time>
      </trkpt>
      <trkpt lat="46.04916" lon="4.76439">
        <ele>189.399993896</ele>
        <time>2015-12-12T10:31:56.78Z</time>
      </trkpt>
      <trkpt lat="46.04912" lon="4.76441">
        <ele>189.699996948</ele>
        <time>2015-12-12T10:31:57.764Z</time>
      </trkpt>
      <trkpt lat="46.04907" lon="4.76443">
        <ele>190</ele>
        <time>2015-12-12T10:31:58.78Z</time>
      </trkpt>
      <trkpt lat="46.04902" lon="4.76444">
        <ele>190.300003052</ele>
        <time>2015-12-12T10:31:59.767Z</time>
      </trkpt>
      <trkpt lat="46.04897" lon="4.76446">
        <ele>190.600006104</ele>
        <time>2015-12-12T10:32:00.78Z</time>
      </trkpt>
      <trkpt lat="46.04892" lon="4.76447">
        <ele>190.899993896</ele>
        <time>2015-12-12T10:32:01.765Z</time>
      </trkpt>
      <trkpt lat="46.04884" lon="4.76449">
        <ele>190.600006104</ele>
        <time>2015-12-12T10:32:03.917Z</time>
      </trkpt>
      <trkpt lat="46.04879" lon="4.7645">
        <ele>190.399993896</ele>
        <time>2015-12-12T10:32:04.764Z</time>
      </trkpt>
      <trkpt lat="46.04874" lon="4.76449">
        <ele>189.399993896</ele>
        <time>2015-12-12T10:32:05.821Z</time>
      </trkpt>
      <trkpt lat="46.04869" lon="4.76449">
        <ele>188.899993896</ele>
        <time>2015-12-12T10:32:06.764Z</time>
      </trkpt>
      <trkpt lat="46.04864" lon="4.76448">
        <ele>188.699996948</ele>
        <time>2015-12-12T10:32:07.782Z</time>
      </trkpt>
      <trkpt lat="46.04859" lon="4.76448">
        <ele>188.699996948</ele>
        <time>2015-12-12T10:32:08.764Z</time>
      </trkpt>
      <trkpt lat="46.04855" lon="4.76447">
        <ele>188.600006104</ele>
        <time>2015-12-12T10:32:09.787Z</time>
      </trkpt>
      <trkpt lat="46.0485" lon="4.76447">
        <ele>188.699996948</ele>
        <time>2015-12-12T10:32:10.764Z</time>
      </trkpt>
      <trkpt lat="46.04845" lon="4.76447">
        <ele>188.699996948</ele>
        <time>2015-12-12T10:32:11.798Z</time>
      </trkpt>
      <trkpt lat="46.04841" lon="4.76447">
        <ele>188.699996948</ele>
        <time>2015-12-12T10:32:12.764Z</time>
      </trkpt>
      <trkpt lat="46.04833" lon="4.76446">
        <ele>188.899993896</ele>
        <time>2015-12-12T10:32:14.78Z</time>
      </trkpt>
      <trkpt lat="46.04828" lon="4.76446">
        <ele>188.699996948</ele>
        <time>2015-12-12T10:32:15.764Z</time>
      </trkpt>
      <trkpt lat="46.04823" lon="4.76446">
        <ele>188.699996948</ele>
        <time>2015-12-12T10:32:16.781Z</time>
      </trkpt>
      <trkpt lat="46.04818" lon="4.76446">
        <ele>188.800003052</ele>
        <time>2015-12-12T10:32:17.767Z</time>
      </trkpt>
      <trkpt lat="46.04813" lon="4.76446">
        <ele>188.899993896</ele>
        <time>2015-12-12T10:32:18.783Z</time>
      </trkpt>
      <trkpt lat="46.04808" lon="4.76447">
        <ele>188.899993896</ele>
        <time>2015-12-12T10:32:19.765Z</time>
      </trkpt>
      <trkpt lat="46.04803" lon="4.76448">
        <ele>189</ele>
        <time>2015-12-12T10:32:20.78Z</time>
      </trkpt>
      <trkpt lat="46.04798" lon="4.7645">
        <ele>189</ele>
        <time>2015-12-12T10:32:21.764Z</time>
      </trkpt>
      <trkpt lat="46.04793" lon="4.76453">
        <ele>188.899993896</ele>
        <time>2015-12-12T10:32:22.789Z</time>
      </trkpt>
      <trkpt lat="46.04788" lon="4.76455">
        <ele>189.100006104</ele>
        <time>2015-12-12T10:32:23.767Z</time>
      </trkpt>
      <trkpt lat="46.04783" lon="4.76456">
        <ele>189</ele>
        <time>2015-12-12T10:32:24.782Z</time>
      </trkpt>
      <trkpt lat="46.04777" lon="4.76458">
        <ele>188.800003052</ele>
        <time>2015-12-12T10:32:25.765Z</time>
      </trkpt>
      <trkpt lat="46.04772" lon="4.76459">
        <ele>188.800003052</ele>
        <time>2015-12-12T10:32:26.78Z</time>
      </trkpt>
      <trkpt lat="46.04768" lon="4.76463">
        <ele>188.399993896</ele>
        <time>2015-12-12T10:32:27.763Z</time>
      </trkpt>
      <trkpt lat="46.04763" lon="4.76466">
        <ele>188.600006104</ele>
        <time>2015-12-12T10:32:28.78Z</time>
      </trkpt>
      <trkpt lat="46.04757" lon="4.76468">
        <ele>188.699996948</ele>
        <time>2015-12-12T10:32:29.767Z</time>
      </trkpt>
      <trkpt lat="46.04751" lon="4.7647">
        <ele>188.800003052</ele>
        <time>2015-12-12T10:32:30.78Z</time>
      </trkpt>
      <trkpt lat="46.04745" lon="4.76473">
        <ele>188.800003052</ele>
        <time>2015-12-12T10:32:31.764Z</time>
      </trkpt>
      <trkpt lat="46.04739" lon="4.76476">
        <ele>188.699996948</ele>
        <time>2015-12-12T10:32:32.783Z</time>
      </trkpt>
      <trkpt lat="46.04733" lon="4.76479">
        <ele>188.800003052</ele>
        <time>2015-12-12T10:32:33.763Z</time>
      </trkpt>
      <trkpt lat="46.04726" lon="4.76481">
        <ele>188.699996948</ele>
        <time>2015-12-12T10:32:34.78Z</time>
      </trkpt>
      <trkpt lat="46.04719" lon="4.76482">
        <ele>187.100006104</ele>
        <time>2015-12-12T10:32:35.767Z</time>
      </trkpt>
      <trkpt lat="46.04711" lon="4.76484">
        <ele>186.800003052</ele>
        <time>2015-12-12T10:32:36.78Z</time>
      </trkpt>
      <trkpt lat="46.04705" lon="4.76485">
        <ele>186.600006104</ele>
        <time>2015-12-12T10:32:37.779Z</time>
      </trkpt>
      <trkpt lat="46.047" lon="4.76487">
        <ele>185.899993896</ele>
        <time>2015-12-12T10:32:38.78Z</time>
      </trkpt>
      <trkpt lat="46.04694" lon="4.76488">
        <ele>185.399993896</ele>
        <time>2015-12-12T10:32:39.764Z</time>
      </trkpt>
      <trkpt lat="46.04687" lon="4.76487">
        <ele>183.800003052</ele>
        <time>2015-12-12T10:32:41.783Z</time>
      </trkpt>
      <trkpt lat="46.04685" lon="4.76486">
        <ele>182.300003052</ele>
        <time>2015-12-12T10:32:42.764Z</time>
      </trkpt>
      <trkpt lat="46.04677" lon="4.76483">
        <ele>180.199996948</ele>
        <time>2015-12-12T10:32:46.822Z</time>
      </trkpt>
      <trkpt lat="46.04676" lon="4.76481">
        <ele>180</ele>
        <time>2015-12-12T10:32:47.767Z</time>
      </trkpt>
      <trkpt lat="46.04675" lon="4.7648">
        <ele>180</ele>
        <time>2015-12-12T10:32:48.78Z</time>
      </trkpt>
      <trkpt lat="46.04674" lon="4.76479">
        <ele>179.699996948</ele>
        <time>2015-12-12T10:32:49.765Z</time>
      </trkpt>
      <trkpt lat="46.04671" lon="4.76483">
        <ele>179.699996948</ele>
        <time>2015-12-12T10:32:54.779Z</time>
      </trkpt>
      <trkpt lat="46.0467" lon="4.76486">
        <ele>179.600006104</ele>
        <time>2015-12-12T10:32:55.764Z</time>
      </trkpt>
      <trkpt lat="46.04668" lon="4.76494">
        <ele>179.600006104</ele>
        <time>2015-12-12T10:32:57.781Z</time>
      </trkpt>
      <trkpt lat="46.04667" lon="4.76498">
        <ele>179.699996948</ele>
        <time>2015-12-12T10:32:58.764Z</time>
      </trkpt>
      <trkpt lat="46.04662" lon="4.76505">
        <ele>180</ele>
        <time>2015-12-12T10:33:00.78Z</time>
      </trkpt>
      <trkpt lat="46.04657" lon="4.76506">
        <ele>180.100006104</ele>
        <time>2015-12-12T10:33:01.765Z</time>
      </trkpt>
      <trkpt lat="46.04652" lon="4.76507">
        <ele>180.100006104</ele>
        <time>2015-12-12T10:33:02.783Z</time>
      </trkpt>
      <trkpt lat="46.04647" lon="4.76508">
        <ele>180.100006104</ele>
        <time>2015-12-12T10:33:03.763Z</time>
      </trkpt>
      <trkpt lat="46.04642" lon="4.7651">
        <ele>180.100006104</ele>
        <time>2015-12-12T10:33:04.78Z</time>
      </trkpt>
      <trkpt lat="46.04636" lon="4.76512">
        <ele>180.199996948</ele>
        <time>2015-12-12T10:33:05.767Z</time>
      </trkpt>
      <trkpt lat="46.0463" lon="4.76514">
        <ele>180.300003052</ele>
        <time>2015-12-12T10:33:06.78Z</time>
      </trkpt>
      <trkpt lat="46.04625" lon="4.76516">
        <ele>180.199996948</ele>
        <time>2015-12-12T10:33:07.765Z</time>
      </trkpt>
      <trkpt lat="46.04619" lon="4.76518">
        <ele>180.300003052</ele>
        <time>2015-12-12T10:33:08.78Z</time>
      </trkpt>
      <trkpt lat="46.04613" lon="4.76521">
        <ele>180.399993896</ele>
        <time>2015-12-12T10:33:09.764Z</time>
      </trkpt>
      <trkpt lat="46.04608" lon="4.76523">
        <ele>180.5</ele>
        <time>2015-12-12T10:33:10.783Z</time>
      </trkpt>
      <trkpt lat="46.04602" lon="4.76525">
        <ele>180.5</ele>
        <time>2015-12-12T10:33:11.767Z</time>
      </trkpt>
      <trkpt lat="46.04596" lon="4.76527">
        <ele>180.699996948</ele>
        <time>2015-12-12T10:33:12.78Z</time>
      </trkpt>
      <trkpt lat="46.04591" lon="4.76529">
        <ele>180.800003052</ele>
        <time>2015-12-12T10:33:13.765Z</time>
      </trkpt>
      <trkpt lat="46.04586" lon="4.76532">
        <ele>181</ele>
        <time>2015-12-12T10:33:14.795Z</time>
      </trkpt>
      <trkpt lat="46.04581" lon="4.76534">
        <ele>181.300003052</ele>
        <time>2015-12-12T10:33:15.764Z</time>
      </trkpt>
      <trkpt lat="46.04575" lon="4.76537">
        <ele>181.199996948</ele>
        <time>2015-12-12T10:33:16.914Z</time>
      </trkpt>
      <trkpt lat="46.0457" lon="4.76539">
        <ele>181.5</ele>
        <time>2015-12-12T10:33:17.767Z</time>
      </trkpt>
      <trkpt lat="46.04565" lon="4.76541">
        <ele>181.600006104</ele>
        <time>2015-12-12T10:33:18.779Z</time>
      </trkpt>
      <trkpt lat="46.0456" lon="4.76543">
        <ele>181.5</ele>
        <time>2015-12-12T10:33:19.765Z</time>
      </trkpt>
      <trkpt lat="46.04555" lon="4.76545">
        <ele>181.699996948</ele>
        <time>2015-12-12T10:33:20.78Z</time>
      </trkpt>
      <trkpt lat="46.04549" lon="4.76547">
        <ele>182.199996948</ele>
        <time>2015-12-12T10:33:21.764Z</time>
      </trkpt>
      <trkpt lat="46.04544" lon="4.76549">
        <ele>182.300003052</ele>
        <time>2015-12-12T10:33:22.78Z</time>
      </trkpt>
      <trkpt lat="46.04539" lon="4.76551">
        <ele>182.199996948</ele>
        <time>2015-12-12T10:33:23.767Z</time>
      </trkpt>
      <trkpt lat="46.04532" lon="4.76552">
        <ele>182.699996948</ele>
        <time>2015-12-12T10:33:25.781Z</time>
      </trkpt>
      <trkpt lat="46.04529" lon="4.76552">
        <ele>182.899993896</ele>
        <time>2015-12-12T10:33:26.763Z</time>
      </trkpt>
      <trkpt lat="46.04521" lon="4.76553">
        <ele>183</ele>
        <time>2015-12-12T10:33:29.851Z</time>
      </trkpt>
      <trkpt lat="46.04518" lon="4.76553">
        <ele>183.399993896</ele>
        <time>2015-12-12T10:33:30.764Z</time>
      </trkpt>
      <trkpt lat="46.0451" lon="4.76555">
        <ele>183.800003052</ele>
        <time>2015-12-12T10:33:32.78Z</time>
      </trkpt>
      <trkpt lat="46.04507" lon="4.76556">
        <ele>183.699996948</ele>
        <time>2015-12-12T10:33:33.763Z</time>
      </trkpt>
      <trkpt lat="46.045" lon="4.76557">
        <ele>183.899993896</ele>
        <time>2015-12-12T10:33:35.783Z</time>
      </trkpt>
      <trkpt lat="46.04497" lon="4.76557">
        <ele>184.399993896</ele>
        <time>2015-12-12T10:33:36.763Z</time>
      </trkpt>
      <trkpt lat="46.04489" lon="4.76557">
        <ele>184.600006104</ele>
        <time>2015-12-12T10:33:38.78Z</time>
      </trkpt>
      <trkpt lat="46.04486" lon="4.76557">
        <ele>184.800003052</ele>
        <time>2015-12-12T10:33:39.764Z</time>
      </trkpt>
      <trkpt lat="46.04478" lon="4.76558">
        <ele>185.199996948</ele>
        <time>2015-12-12T10:33:41.783Z</time>
      </trkpt>
      <trkpt lat="46.04474" lon="4.76558">
        <ele>185.399993896</ele>
        <time>2015-12-12T10:33:42.763Z</time>
      </trkpt>
      <trkpt lat="46.04466" lon="4.76559">
        <ele>185.5</ele>
        <time>2015-12-12T10:33:44.78Z</time>
      </trkpt>
      <trkpt lat="46.04463" lon="4.76559">
        <ele>185.399993896</ele>
        <time>2015-12-12T10:33:45.763Z</time>
      </trkpt>
      <trkpt lat="46.04455" lon="4.7656">
        <ele>185.699996948</ele>
        <time>2015-12-12T10:33:47.786Z</time>
      </trkpt>
      <trkpt lat="46.04451" lon="4.7656">
        <ele>185.899993896</ele>
        <time>2015-12-12T10:33:48.763Z</time>
      </trkpt>
      <trkpt lat="46.04443" lon="4.76561">
        <ele>186</ele>
        <time>2015-12-12T10:33:50.782Z</time>
      </trkpt>
      <trkpt lat="46.04439" lon="4.76561">
        <ele>186.199996948</ele>
        <time>2015-12-12T10:33:51.763Z</time>
      </trkpt>
      <trkpt lat="46.04431" lon="4.76561">
        <ele>186.899993896</ele>
        <time>2015-12-12T10:33:53.784Z</time>
      </trkpt>
      <trkpt lat="46.04428" lon="4.7656">
        <ele>187.199996948</ele>
        <time>2015-12-12T10:33:54.769Z</time>
      </trkpt>
      <trkpt lat="46.04424" lon="4.7656">
        <ele>187.699996948</ele>
        <time>2015-12-12T10:33:55.783Z</time>
      </trkpt>
      <trkpt lat="46.04419" lon="4.76561">
        <ele>187.899993896</ele>
        <time>2015-12-12T10:33:56.763Z</time>
      </trkpt>
      <trkpt lat="46.04411" lon="4.76562">
        <ele>188.699996948</ele>
        <time>2015-12-12T10:33:58.779Z</time>
      </trkpt>
      <trkpt lat="46.04407" lon="4.76563">
        <ele>188.899993896</ele>
        <time>2015-12-12T10:33:59.8Z</time>
      </trkpt>
      <trkpt lat="46.04402" lon="4.76563">
        <ele>188.800003052</ele>
        <time>2015-12-12T10:34:00.78Z</time>
      </trkpt>
      <trkpt lat="46.04396" lon="4.76563">
        <ele>188.800003052</ele>
        <time>2015-12-12T10:34:01.764Z</time>
      </trkpt>
      <trkpt lat="46.04391" lon="4.76564">
        <ele>188.800003052</ele>
        <time>2015-12-12T10:34:02.781Z</time>
      </trkpt>
      <trkpt lat="46.04386" lon="4.76565">
        <ele>189.100006104</ele>
        <time>2015-12-12T10:34:03.764Z</time>
      </trkpt>
      <trkpt lat="46.04381" lon="4.76566">
        <ele>189.399993896</ele>
        <time>2015-12-12T10:34:04.78Z</time>
      </trkpt>
      <trkpt lat="46.04376" lon="4.76567">
        <ele>189.600006104</ele>
        <time>2015-12-12T10:34:05.767Z</time>
      </trkpt>
      <trkpt lat="46.04367" lon="4.76568">
        <ele>189.899993896</ele>
        <time>2015-12-12T10:34:07.794Z</time>
      </trkpt>
      <trkpt lat="46.04362" lon="4.76568">
        <ele>190</ele>
        <time>2015-12-12T10:34:08.764Z</time>
      </trkpt>
      <trkpt lat="46.04357" lon="4.76567">
        <ele>190.399993896</ele>
        <time>2015-12-12T10:34:09.78Z</time>
      </trkpt>
      <trkpt lat="46.04352" lon="4.76568">
        <ele>190.600006104</ele>
        <time>2015-12-12T10:34:10.763Z</time>
      </trkpt>
      <trkpt lat="46.04347" lon="4.76569">
        <ele>190.600006104</ele>
        <time>2015-12-12T10:34:11.784Z</time>
      </trkpt>
      <trkpt lat="46.04342" lon="4.76569">
        <ele>191</ele>
        <time>2015-12-12T10:34:12.791Z</time>
      </trkpt>
      <trkpt lat="46.04334" lon="4.7657">
        <ele>191.899993896</ele>
        <time>2015-12-12T10:34:14.781Z</time>
      </trkpt>
      <trkpt lat="46.0433" lon="4.76571">
        <ele>192.300003052</ele>
        <time>2015-12-12T10:34:15.763Z</time>
      </trkpt>
      <trkpt lat="46.04322" lon="4.76572">
        <ele>192.699996948</ele>
        <time>2015-12-12T10:34:17.783Z</time>
      </trkpt>
      <trkpt lat="46.04318" lon="4.76573">
        <ele>192.699996948</ele>
        <time>2015-12-12T10:34:18.763Z</time>
      </trkpt>
      <trkpt lat="46.04309" lon="4.76573">
        <ele>192.399993896</ele>
        <time>2015-12-12T10:34:20.78Z</time>
      </trkpt>
      <trkpt lat="46.04305" lon="4.76573">
        <ele>192.300003052</ele>
        <time>2015-12-12T10:34:21.764Z</time>
      </trkpt>
      <trkpt lat="46.04298" lon="4.76573">
        <ele>192.600006104</ele>
        <time>2015-12-12T10:34:23.798Z</time>
      </trkpt>
      <trkpt lat="46.04294" lon="4.76573">
        <ele>192.899993896</ele>
        <time>2015-12-12T10:34:24.764Z</time>
      </trkpt>
      <trkpt lat="46.04287" lon="4.76574">
        <ele>193.300003052</ele>
        <time>2015-12-12T10:34:26.78Z</time>
      </trkpt>
      <trkpt lat="46.04282" lon="4.76575">
        <ele>193.300003052</ele>
        <time>2015-12-12T10:34:27.763Z</time>
      </trkpt>
      <trkpt lat="46.04277" lon="4.76577">
        <ele>193.5</ele>
        <time>2015-12-12T10:34:28.78Z</time>
      </trkpt>
      <trkpt lat="46.04272" lon="4.76577">
        <ele>193.899993896</ele>
        <time>2015-12-12T10:34:29.767Z</time>
      </trkpt>
      <trkpt lat="46.04267" lon="4.76578">
        <ele>194.300003052</ele>
        <time>2015-12-12T10:34:30.779Z</time>
      </trkpt>
      <trkpt lat="46.04263" lon="4.76578">
        <ele>194.699996948</ele>
        <time>2015-12-12T10:34:31.766Z</time>
      </trkpt>
      <trkpt lat="46.04255" lon="4.7658">
        <ele>195.600006104</ele>
        <time>2015-12-12T10:34:33.83Z</time>
      </trkpt>
      <trkpt lat="46.04251" lon="4.76581">
        <ele>196.199996948</ele>
        <time>2015-12-12T10:34:34.765Z</time>
      </trkpt>
      <trkpt lat="46.04244" lon="4.76582">
        <ele>197.399993896</ele>
        <time>2015-12-12T10:34:36.78Z</time>
      </trkpt>
      <trkpt lat="46.0424" lon="4.76582">
        <ele>197.5</ele>
        <time>2015-12-12T10:34:37.765Z</time>
      </trkpt>
      <trkpt lat="46.04233" lon="4.76582">
        <ele>198</ele>
        <time>2015-12-12T10:34:39.805Z</time>
      </trkpt>
      <trkpt lat="46.04229" lon="4.76582">
        <ele>198.199996948</ele>
        <time>2015-12-12T10:34:40.763Z</time>
      </trkpt>
      <trkpt lat="46.04222" lon="4.76584">
        <ele>198.600006104</ele>
        <time>2015-12-12T10:34:42.779Z</time>
      </trkpt>
      <trkpt lat="46.04218" lon="4.76585">
        <ele>198.699996948</ele>
        <time>2015-12-12T10:34:43.764Z</time>
      </trkpt>
      <trkpt lat="46.0421" lon="4.76587">
        <ele>199.399993896</ele>
        <time>2015-12-12T10:34:45.779Z</time>
      </trkpt>
      <trkpt lat="46.04206" lon="4.76589">
        <ele>199.399993896</ele>
        <time>2015-12-12T10:34:46.763Z</time>
      </trkpt>
      <trkpt lat="46.04202" lon="4.76591">
        <ele>199.600006104</ele>
        <time>2015-12-12T10:34:47.783Z</time>
      </trkpt>
      <trkpt lat="46.04197" lon="4.76592">
        <ele>199.399993896</ele>
        <time>2015-12-12T10:34:48.764Z</time>
      </trkpt>
      <trkpt lat="46.04189" lon="4.76596">
        <ele>199.399993896</ele>
        <time>2015-12-12T10:34:50.783Z</time>
      </trkpt>
      <trkpt lat="46.04184" lon="4.76598">
        <ele>199.600006104</ele>
        <time>2015-12-12T10:34:51.763Z</time>
      </trkpt>
      <trkpt lat="46.04177" lon="4.76603">
        <ele>199.899993896</ele>
        <time>2015-12-12T10:34:53.821Z</time>
      </trkpt>
      <trkpt lat="46.04173" lon="4.76606">
        <ele>200.100006104</ele>
        <time>2015-12-12T10:34:54.763Z</time>
      </trkpt>
      <trkpt lat="46.04166" lon="4.76613">
        <ele>200</ele>
        <time>2015-12-12T10:34:56.78Z</time>
      </trkpt>
      <trkpt lat="46.04163" lon="4.76616">
        <ele>200.199996948</ele>
        <time>2015-12-12T10:34:57.763Z</time>
      </trkpt>
      <trkpt lat="46.04155" lon="4.76621">
        <ele>200.399993896</ele>
        <time>2015-12-12T10:34:59.783Z</time>
      </trkpt>
      <trkpt lat="46.0415" lon="4.76624">
        <ele>200.5</ele>
        <time>2015-12-12T10:35:00.764Z</time>
      </trkpt>
      <trkpt lat="46.04146" lon="4.76626">
        <ele>200.899993896</ele>
        <time>2015-12-12T10:35:01.781Z</time>
      </trkpt>
      <trkpt lat="46.04141" lon="4.76628">
        <ele>201.199996948</ele>
        <time>2015-12-12T10:35:02.763Z</time>
      </trkpt>
      <trkpt lat="46.04133" lon="4.76633">
        <ele>201.399993896</ele>
        <time>2015-12-12T10:35:04.78Z</time>
      </trkpt>
      <trkpt lat="46.0413" lon="4.76636">
        <ele>201.5</ele>
        <time>2015-12-12T10:35:05.768Z</time>
      </trkpt>
      <trkpt lat="46.04121" lon="4.7664">
        <ele>202.100006104</ele>
        <time>2015-12-12T10:35:07.781Z</time>
      </trkpt>
      <trkpt lat="46.04118" lon="4.7664">
        <ele>202.300003052</ele>
        <time>2015-12-12T10:35:08.764Z</time>
      </trkpt>
      <trkpt lat="46.0411" lon="4.76642">
        <ele>202.5</ele>
        <time>2015-12-12T10:35:10.794Z</time>
      </trkpt>
      <trkpt lat="46.04106" lon="4.76643">
        <ele>202</ele>
        <time>2015-12-12T10:35:11.767Z</time>
      </trkpt>
      <trkpt lat="46.04098" lon="4.76645">
        <ele>202.5</ele>
        <time>2015-12-12T10:35:13.781Z</time>
      </trkpt>
      <trkpt lat="46.04094" lon="4.76646">
        <ele>202.5</ele>
        <time>2015-12-12T10:35:14.767Z</time>
      </trkpt>
      <trkpt lat="46.04085" lon="4.76647">
        <ele>202.800003052</ele>
        <time>2015-12-12T10:35:16.78Z</time>
      </trkpt>
      <trkpt lat="46.04082" lon="4.76649">
        <ele>202.800003052</ele>
        <time>2015-12-12T10:35:17.767Z</time>
      </trkpt>
      <trkpt lat="46.04074" lon="4.76651">
        <ele>203</ele>
        <time>2015-12-12T10:35:19.78Z</time>
      </trkpt>
      <trkpt lat="46.0407" lon="4.76652">
        <ele>203.100006104</ele>
        <time>2015-12-12T10:35:20.763Z</time>
      </trkpt>
      <trkpt lat="46.04062" lon="4.76654">
        <ele>203.600006104</ele>
        <time>2015-12-12T10:35:22.779Z</time>
      </trkpt>
      <trkpt lat="46.04058" lon="4.76654">
        <ele>203.399993896</ele>
        <time>2015-12-12T10:35:23.767Z</time>
      </trkpt>
      <trkpt lat="46.04051" lon="4.76655">
        <ele>203</ele>
        <time>2015-12-12T10:35:25.782Z</time>
      </trkpt>
      <trkpt lat="46.04047" lon="4.76655">
        <ele>203.199996948</ele>
        <time>2015-12-12T10:35:26.764Z</time>
      </trkpt>
      <trkpt lat="46.04039" lon="4.76656">
        <ele>202.800003052</ele>
        <time>2015-12-12T10:35:28.78Z</time>
      </trkpt>
      <trkpt lat="46.04034" lon="4.76657">
        <ele>202.600006104</ele>
        <time>2015-12-12T10:35:29.767Z</time>
      </trkpt>
      <trkpt lat="46.04029" lon="4.76657">
        <ele>202.600006104</ele>
        <time>2015-12-12T10:35:30.78Z</time>
      </trkpt>
      <trkpt lat="46.04025" lon="4.76658">
        <ele>202.800003052</ele>
        <time>2015-12-12T10:35:31.778Z</time>
      </trkpt>
      <trkpt lat="46.04017" lon="4.7666">
        <ele>202.600006104</ele>
        <time>2015-12-12T10:35:33.779Z</time>
      </trkpt>
      <trkpt lat="46.04013" lon="4.76661">
        <ele>202.800003052</ele>
        <time>2015-12-12T10:35:34.763Z</time>
      </trkpt>
      <trkpt lat="46.04004" lon="4.76663">
        <ele>203.399993896</ele>
        <time>2015-12-12T10:35:36.779Z</time>
      </trkpt>
      <trkpt lat="46.04" lon="4.76664">
        <ele>203.699996948</ele>
        <time>2015-12-12T10:35:37.765Z</time>
      </trkpt>
      <trkpt lat="46.03991" lon="4.76666">
        <ele>203.5</ele>
        <time>2015-12-12T10:35:39.78Z</time>
      </trkpt>
      <trkpt lat="46.03987" lon="4.76667">
        <ele>203.699996948</ele>
        <time>2015-12-12T10:35:40.763Z</time>
      </trkpt>
      <trkpt lat="46.03982" lon="4.76668">
        <ele>203.600006104</ele>
        <time>2015-12-12T10:35:41.783Z</time>
      </trkpt>
      <trkpt lat="46.03977" lon="4.76668">
        <ele>203.899993896</ele>
        <time>2015-12-12T10:35:42.763Z</time>
      </trkpt>
      <trkpt lat="46.03973" lon="4.76669">
        <ele>204</ele>
        <time>2015-12-12T10:35:43.782Z</time>
      </trkpt>
      <trkpt lat="46.03968" lon="4.7667">
        <ele>204.100006104</ele>
        <time>2015-12-12T10:35:44.763Z</time>
      </trkpt>
      <trkpt lat="46.03964" lon="4.76671">
        <ele>204.199996948</ele>
        <time>2015-12-12T10:35:45.779Z</time>
      </trkpt>
      <trkpt lat="46.03959" lon="4.76672">
        <ele>204</ele>
        <time>2015-12-12T10:35:46.764Z</time>
      </trkpt>
      <trkpt lat="46.0395" lon="4.76675">
        <ele>203.699996948</ele>
        <time>2015-12-12T10:35:48.78Z</time>
      </trkpt>
      <trkpt lat="46.03946" lon="4.76676">
        <ele>203.899993896</ele>
        <time>2015-12-12T10:35:49.764Z</time>
      </trkpt>
      <trkpt lat="46.03937" lon="4.76678">
        <ele>203.899993896</ele>
        <time>2015-12-12T10:35:51.78Z</time>
      </trkpt>
      <trkpt lat="46.03932" lon="4.76679">
        <ele>203.600006104</ele>
        <time>2015-12-12T10:35:52.763Z</time>
      </trkpt>
      <trkpt lat="46.03928" lon="4.7668">
        <ele>203.600006104</ele>
        <time>2015-12-12T10:35:53.783Z</time>
      </trkpt>
      <trkpt lat="46.03923" lon="4.76681">
        <ele>203.600006104</ele>
        <time>2015-12-12T10:35:54.763Z</time>
      </trkpt>
      <trkpt lat="46.03918" lon="4.76683">
        <ele>203.199996948</ele>
        <time>2015-12-12T10:35:55.781Z</time>
      </trkpt>
      <trkpt lat="46.03914" lon="4.76684">
        <ele>203.399993896</ele>
        <time>2015-12-12T10:35:56.763Z</time>
      </trkpt>
      <trkpt lat="46.03909" lon="4.76685">
        <ele>203.399993896</ele>
        <time>2015-12-12T10:35:57.78Z</time>
      </trkpt>
      <trkpt lat="46.03904" lon="4.76687">
        <ele>203.300003052</ele>
        <time>2015-12-12T10:35:58.763Z</time>
      </trkpt>
      <trkpt lat="46.03899" lon="4.76688">
        <ele>203.399993896</ele>
        <time>2015-12-12T10:35:59.796Z</time>
      </trkpt>
      <trkpt lat="46.03894" lon="4.76689">
        <ele>203.600006104</ele>
        <time>2015-12-12T10:36:00.763Z</time>
      </trkpt>
      <trkpt lat="46.03889" lon="4.76691">
        <ele>203.600006104</ele>
        <time>2015-12-12T10:36:01.781Z</time>
      </trkpt>
      <trkpt lat="46.03884" lon="4.76694">
        <ele>203.800003052</ele>
        <time>2015-12-12T10:36:02.763Z</time>
      </trkpt>
      <trkpt lat="46.03879" lon="4.76695">
        <ele>204.199996948</ele>
        <time>2015-12-12T10:36:03.794Z</time>
      </trkpt>
      <trkpt lat="46.03874" lon="4.76697">
        <ele>203.899993896</ele>
        <time>2015-12-12T10:36:04.763Z</time>
      </trkpt>
      <trkpt lat="46.03869" lon="4.76698">
        <ele>203.899993896</ele>
        <time>2015-12-12T10:36:05.783Z</time>
      </trkpt>
      <trkpt lat="46.03864" lon="4.76699">
        <ele>203.600006104</ele>
        <time>2015-12-12T10:36:06.763Z</time>
      </trkpt>
      <trkpt lat="46.0386" lon="4.767">
        <ele>203.399993896</ele>
        <time>2015-12-12T10:36:07.781Z</time>
      </trkpt>
      <trkpt lat="46.03855" lon="4.76701">
        <ele>203.5</ele>
        <time>2015-12-12T10:36:08.763Z</time>
      </trkpt>
      <trkpt lat="46.0385" lon="4.76702">
        <ele>203.5</ele>
        <time>2015-12-12T10:36:09.794Z</time>
      </trkpt>
      <trkpt lat="46.03845" lon="4.76703">
        <ele>203.399993896</ele>
        <time>2015-12-12T10:36:10.763Z</time>
      </trkpt>
      <trkpt lat="46.03841" lon="4.76704">
        <ele>203.300003052</ele>
        <time>2015-12-12T10:36:11.782Z</time>
      </trkpt>
      <trkpt lat="46.03836" lon="4.76705">
        <ele>202.800003052</ele>
        <time>2015-12-12T10:36:12.763Z</time>
      </trkpt>
      <trkpt lat="46.03831" lon="4.76705">
        <ele>202.600006104</ele>
        <time>2015-12-12T10:36:13.783Z</time>
      </trkpt>
      <trkpt lat="46.03825" lon="4.76706">
        <ele>202.5</ele>
        <time>2015-12-12T10:36:14.763Z</time>
      </trkpt>
      <trkpt lat="46.0382" lon="4.76707">
        <ele>202.300003052</ele>
        <time>2015-12-12T10:36:15.779Z</time>
      </trkpt>
      <trkpt lat="46.03815" lon="4.76707">
        <ele>202.199996948</ele>
        <time>2015-12-12T10:36:16.763Z</time>
      </trkpt>
      <trkpt lat="46.0381" lon="4.76707">
        <ele>202.5</ele>
        <time>2015-12-12T10:36:17.783Z</time>
      </trkpt>
      <trkpt lat="46.03805" lon="4.76708">
        <ele>202.199996948</ele>
        <time>2015-12-12T10:36:18.763Z</time>
      </trkpt>
      <trkpt lat="46.03799" lon="4.76707">
        <ele>202.399993896</ele>
        <time>2015-12-12T10:36:19.812Z</time>
      </trkpt>
      <trkpt lat="46.03794" lon="4.76707">
        <ele>202.5</ele>
        <time>2015-12-12T10:36:20.763Z</time>
      </trkpt>
      <trkpt lat="46.03789" lon="4.76707">
        <ele>202.300003052</ele>
        <time>2015-12-12T10:36:21.779Z</time>
      </trkpt>
      <trkpt lat="46.03784" lon="4.76707">
        <ele>202.399993896</ele>
        <time>2015-12-12T10:36:22.763Z</time>
      </trkpt>
      <trkpt lat="46.03779" lon="4.76707">
        <ele>202.100006104</ele>
        <time>2015-12-12T10:36:23.786Z</time>
      </trkpt>
      <trkpt lat="46.03773" lon="4.76707">
        <ele>201.600006104</ele>
        <time>2015-12-12T10:36:24.763Z</time>
      </trkpt>
      <trkpt lat="46.03768" lon="4.76707">
        <ele>201.5</ele>
        <time>2015-12-12T10:36:25.78Z</time>
      </trkpt>
      <trkpt lat="46.03763" lon="4.76706">
        <ele>201.100006104</ele>
        <time>2015-12-12T10:36:26.763Z</time>
      </trkpt>
      <trkpt lat="46.03758" lon="4.76705">
        <ele>200.5</ele>
        <time>2015-12-12T10:36:27.78Z</time>
      </trkpt>
      <trkpt lat="46.03753" lon="4.76703">
        <ele>200.5</ele>
        <time>2015-12-12T10:36:28.763Z</time>
      </trkpt>
      <trkpt lat="46.03748" lon="4.76702">
        <ele>200.600006104</ele>
        <time>2015-12-12T10:36:29.815Z</time>
      </trkpt>
      <trkpt lat="46.03742" lon="4.76701">
        <ele>200.399993896</ele>
        <time>2015-12-12T10:36:30.763Z</time>
      </trkpt>
      <trkpt lat="46.03737" lon="4.76699">
        <ele>200.199996948</ele>
        <time>2015-12-12T10:36:31.781Z</time>
      </trkpt>
      <trkpt lat="46.03732" lon="4.76698">
        <ele>200</ele>
        <time>2015-12-12T10:36:32.89Z</time>
      </trkpt>
      <trkpt lat="46.03726" lon="4.76696">
        <ele>199.899993896</ele>
        <time>2015-12-12T10:36:33.779Z</time>
      </trkpt>
      <trkpt lat="46.0372" lon="4.76694">
        <ele>200.399993896</ele>
        <time>2015-12-12T10:36:34.763Z</time>
      </trkpt>
      <trkpt lat="46.03714" lon="4.7669">
        <ele>200.199996948</ele>
        <time>2015-12-12T10:36:35.783Z</time>
      </trkpt>
      <trkpt lat="46.03709" lon="4.76687">
        <ele>200.199996948</ele>
        <time>2015-12-12T10:36:36.763Z</time>
      </trkpt>
      <trkpt lat="46.03703" lon="4.76684">
        <ele>200.5</ele>
        <time>2015-12-12T10:36:37.78Z</time>
      </trkpt>
      <trkpt lat="46.03699" lon="4.76679">
        <ele>200.300003052</ele>
        <time>2015-12-12T10:36:38.763Z</time>
      </trkpt>
      <trkpt lat="46.03694" lon="4.76674">
        <ele>200.100006104</ele>
        <time>2015-12-12T10:36:39.796Z</time>
      </trkpt>
      <trkpt lat="46.03691" lon="4.76669">
        <ele>199.899993896</ele>
        <time>2015-12-12T10:36:40.763Z</time>
      </trkpt>
      <trkpt lat="46.03687" lon="4.76661">
        <ele>200.100006104</ele>
        <time>2015-12-12T10:36:41.783Z</time>
      </trkpt>
      <trkpt lat="46.03684" lon="4.7665">
        <ele>199</ele>
        <time>2015-12-12T10:36:42.763Z</time>
      </trkpt>
      <trkpt lat="46.03682" lon="4.76639">
        <ele>199.899993896</ele>
        <time>2015-12-12T10:36:43.782Z</time>
      </trkpt>
      <trkpt lat="46.03682" lon="4.76628">
        <ele>199.800003052</ele>
        <time>2015-12-12T10:36:44.894Z</time>
      </trkpt>
      <trkpt lat="46.0368" lon="4.76618">
        <ele>199.5</ele>
        <time>2015-12-12T10:36:45.78Z</time>
      </trkpt>
      <trkpt lat="46.03678" lon="4.76608">
        <ele>199.399993896</ele>
        <time>2015-12-12T10:36:46.763Z</time>
      </trkpt>
      <trkpt lat="46.03676" lon="4.76599">
        <ele>199.699996948</ele>
        <time>2015-12-12T10:36:47.782Z</time>
      </trkpt>
      <trkpt lat="46.03672" lon="4.7659">
        <ele>199.800003052</ele>
        <time>2015-12-12T10:36:48.763Z</time>
      </trkpt>
      <trkpt lat="46.03666" lon="4.76584">
        <ele>200</ele>
        <time>2015-12-12T10:36:49.791Z</time>
      </trkpt>
      <trkpt lat="46.0366" lon="4.76578">
        <ele>199.899993896</ele>
        <time>2015-12-12T10:36:50.765Z</time>
      </trkpt>
      <trkpt lat="46.03654" lon="4.76571">
        <ele>199.800003052</ele>
        <time>2015-12-12T10:36:51.779Z</time>
      </trkpt>
      <trkpt lat="46.0365" lon="4.76563">
        <ele>199.699996948</ele>
        <time>2015-12-12T10:36:52.763Z</time>
      </trkpt>
      <trkpt lat="46.03645" lon="4.76555">
        <ele>199.5</ele>
        <time>2015-12-12T10:36:53.783Z</time>
      </trkpt>
      <trkpt lat="46.03642" lon="4.76546">
        <ele>199.5</ele>
        <time>2015-12-12T10:36:54.763Z</time>
      </trkpt>
      <trkpt lat="46.0364" lon="4.76537">
        <ele>199.800003052</ele>
        <time>2015-12-12T10:36:55.787Z</time>
      </trkpt>
      <trkpt lat="46.03637" lon="4.76529">
        <ele>199.800003052</ele>
        <time>2015-12-12T10:36:56.763Z</time>
      </trkpt>
      <trkpt lat="46.03633" lon="4.76519">
        <ele>199.699996948</ele>
        <time>2015-12-12T10:36:57.779Z</time>
      </trkpt>
      <trkpt lat="46.03629" lon="4.76511">
        <ele>199.600006104</ele>
        <time>2015-12-12T10:36:58.763Z</time>
      </trkpt>
      <trkpt lat="46.03624" lon="4.76503">
        <ele>199.600006104</ele>
        <time>2015-12-12T10:36:59.783Z</time>
      </trkpt>
      <trkpt lat="46.03619" lon="4.76496">
        <ele>199.300003052</ele>
        <time>2015-12-12T10:37:00.763Z</time>
      </trkpt>
      <trkpt lat="46.03615" lon="4.76489">
        <ele>199.100006104</ele>
        <time>2015-12-12T10:37:01.78Z</time>
      </trkpt>
      <trkpt lat="46.0361" lon="4.76483">
        <ele>199</ele>
        <time>2015-12-12T10:37:02.763Z</time>
      </trkpt>
      <trkpt lat="46.03606" lon="4.76475">
        <ele>198.899993896</ele>
        <time>2015-12-12T10:37:03.828Z</time>
      </trkpt>
      <trkpt lat="46.03603" lon="4.76467">
        <ele>198.800003052</ele>
        <time>2015-12-12T10:37:04.763Z</time>
      </trkpt>
      <trkpt lat="46.036" lon="4.76456">
        <ele>198.5</ele>
        <time>2015-12-12T10:37:05.783Z</time>
      </trkpt>
      <trkpt lat="46.036" lon="4.76449">
        <ele>197.699996948</ele>
        <time>2015-12-12T10:37:06.777Z</time>
      </trkpt>
      <trkpt lat="46.03599" lon="4.7644">
        <ele>197.100006104</ele>
        <time>2015-12-12T10:37:07.781Z</time>
      </trkpt>
      <trkpt lat="46.036" lon="4.7643">
        <ele>196.800003052</ele>
        <time>2015-12-12T10:37:08.763Z</time>
      </trkpt>
      <trkpt lat="46.036" lon="4.7642">
        <ele>196.800003052</ele>
        <time>2015-12-12T10:37:09.779Z</time>
      </trkpt>
      <trkpt lat="46.036" lon="4.76408">
        <ele>196.899993896</ele>
        <time>2015-12-12T10:37:10.763Z</time>
      </trkpt>
      <trkpt lat="46.03602" lon="4.76397">
        <ele>196.800003052</ele>
        <time>2015-12-12T10:37:11.782Z</time>
      </trkpt>
      <trkpt lat="46.03602" lon="4.76385">
        <ele>196.300003052</ele>
        <time>2015-12-12T10:37:12.763Z</time>
      </trkpt>
      <trkpt lat="46.03602" lon="4.76373">
        <ele>194.800003052</ele>
        <time>2015-12-12T10:37:13.78Z</time>
      </trkpt>
      <trkpt lat="46.03603" lon="4.76362">
        <ele>194.100006104</ele>
        <time>2015-12-12T10:37:14.763Z</time>
      </trkpt>
      <trkpt lat="46.03604" lon="4.7635">
        <ele>193.399993896</ele>
        <time>2015-12-12T10:37:15.783Z</time>
      </trkpt>
      <trkpt lat="46.03605" lon="4.76339">
        <ele>193.100006104</ele>
        <time>2015-12-12T10:37:16.763Z</time>
      </trkpt>
      <trkpt lat="46.03606" lon="4.76329">
        <ele>192.399993896</ele>
        <time>2015-12-12T10:37:17.783Z</time>
      </trkpt>
      <trkpt lat="46.03607" lon="4.76319">
        <ele>191.5</ele>
        <time>2015-12-12T10:37:18.763Z</time>
      </trkpt>
      <trkpt lat="46.03608" lon="4.76309">
        <ele>190.899993896</ele>
        <time>2015-12-12T10:37:19.795Z</time>
      </trkpt>
      <trkpt lat="46.0361" lon="4.76298">
        <ele>190.5</ele>
        <time>2015-12-12T10:37:20.89Z</time>
      </trkpt>
      <trkpt lat="46.03611" lon="4.76287">
        <ele>189.800003052</ele>
        <time>2015-12-12T10:37:21.779Z</time>
      </trkpt>
      <trkpt lat="46.03613" lon="4.76276">
        <ele>189.300003052</ele>
        <time>2015-12-12T10:37:22.763Z</time>
      </trkpt>
      <trkpt lat="46.03614" lon="4.76264">
        <ele>188.699996948</ele>
        <time>2015-12-12T10:37:23.783Z</time>
      </trkpt>
      <trkpt lat="46.03615" lon="4.76254">
        <ele>188.199996948</ele>
        <time>2015-12-12T10:37:24.763Z</time>
      </trkpt>
      <trkpt lat="46.03616" lon="4.76244">
        <ele>187.300003052</ele>
        <time>2015-12-12T10:37:25.782Z</time>
      </trkpt>
      <trkpt lat="46.03618" lon="4.76233">
        <ele>187</ele>
        <time>2015-12-12T10:37:26.767Z</time>
      </trkpt>
      <trkpt lat="46.03619" lon="4.76223">
        <ele>186.5</ele>
        <time>2015-12-12T10:37:27.794Z</time>
      </trkpt>
      <trkpt lat="46.03621" lon="4.76213">
        <ele>186</ele>
        <time>2015-12-12T10:37:28.763Z</time>
      </trkpt>
      <trkpt lat="46.03622" lon="4.76203">
        <ele>185.800003052</ele>
        <time>2015-12-12T10:37:29.783Z</time>
      </trkpt>
      <trkpt lat="46.03623" lon="4.76192">
        <ele>185.699996948</ele>
        <time>2015-12-12T10:37:30.763Z</time>
      </trkpt>
      <trkpt lat="46.03624" lon="4.76182">
        <ele>185.5</ele>
        <time>2015-12-12T10:37:31.78Z</time>
      </trkpt>
      <trkpt lat="46.03625" lon="4.76172">
        <ele>185.199996948</ele>
        <time>2015-12-12T10:37:32.763Z</time>
      </trkpt>
      <trkpt lat="46.03626" lon="4.76161">
        <ele>185.100006104</ele>
        <time>2015-12-12T10:37:33.779Z</time>
      </trkpt>
      <trkpt lat="46.03627" lon="4.76151">
        <ele>185.199996948</ele>
        <time>2015-12-12T10:37:34.763Z</time>
      </trkpt>
      <trkpt lat="46.03627" lon="4.7614">
        <ele>185.399993896</ele>
        <time>2015-12-12T10:37:35.783Z</time>
      </trkpt>
      <trkpt lat="46.03627" lon="4.76129">
        <ele>185.600006104</ele>
        <time>2015-12-12T10:37:36.763Z</time>
      </trkpt>
      <trkpt lat="46.03627" lon="4.76118">
        <ele>185.899993896</ele>
        <time>2015-12-12T10:37:37.83Z</time>
      </trkpt>
      <trkpt lat="46.03626" lon="4.76107">
        <ele>186</ele>
        <time>2015-12-12T10:37:38.763Z</time>
      </trkpt>
      <trkpt lat="46.03625" lon="4.76097">
        <ele>186</ele>
        <time>2015-12-12T10:37:39.793Z</time>
      </trkpt>
      <trkpt lat="46.03624" lon="4.76086">
        <ele>186</ele>
        <time>2015-12-12T10:37:40.763Z</time>
      </trkpt>
      <trkpt lat="46.03622" lon="4.76075">
        <ele>186.199996948</ele>
        <time>2015-12-12T10:37:41.787Z</time>
      </trkpt>
      <trkpt lat="46.03619" lon="4.76064">
        <ele>186.100006104</ele>
        <time>2015-12-12T10:37:42.763Z</time>
      </trkpt>
      <trkpt lat="46.03616" lon="4.76054">
        <ele>185.199996948</ele>
        <time>2015-12-12T10:37:43.78Z</time>
      </trkpt>
      <trkpt lat="46.03613" lon="4.76043">
        <ele>185</ele>
        <time>2015-12-12T10:37:44.763Z</time>
      </trkpt>
      <trkpt lat="46.03609" lon="4.76033">
        <ele>184.399993896</ele>
        <time>2015-12-12T10:37:45.779Z</time>
      </trkpt>
      <trkpt lat="46.03605" lon="4.76023">
        <ele>184.399993896</ele>
        <time>2015-12-12T10:37:46.763Z</time>
      </trkpt>
      <trkpt lat="46.03602" lon="4.76013">
        <ele>184.100006104</ele>
        <time>2015-12-12T10:37:47.783Z</time>
      </trkpt>
      <trkpt lat="46.03598" lon="4.76004">
        <ele>183.699996948</ele>
        <time>2015-12-12T10:37:48.763Z</time>
      </trkpt>
      <trkpt lat="46.03595" lon="4.75994">
        <ele>183.600006104</ele>
        <time>2015-12-12T10:37:49.795Z</time>
      </trkpt>
      <trkpt lat="46.03592" lon="4.75985">
        <ele>183.199996948</ele>
        <time>2015-12-12T10:37:50.765Z</time>
      </trkpt>
      <trkpt lat="46.03587" lon="4.75976">
        <ele>182</ele>
        <time>2015-12-12T10:37:51.779Z</time>
      </trkpt>
      <trkpt lat="46.03584" lon="4.75967">
        <ele>181.899993896</ele>
        <time>2015-12-12T10:37:52.763Z</time>
      </trkpt>
      <trkpt lat="46.0358" lon="4.75959">
        <ele>181.5</ele>
        <time>2015-12-12T10:37:53.845Z</time>
      </trkpt>
      <trkpt lat="46.03576" lon="4.75951">
        <ele>181.100006104</ele>
        <time>2015-12-12T10:37:54.763Z</time>
      </trkpt>
      <trkpt lat="46.03572" lon="4.75943">
        <ele>180.800003052</ele>
        <time>2015-12-12T10:37:55.78Z</time>
      </trkpt>
      <trkpt lat="46.03568" lon="4.75935">
        <ele>180.899993896</ele>
        <time>2015-12-12T10:37:56.763Z</time>
      </trkpt>
      <trkpt lat="46.03565" lon="4.75926">
        <ele>180.600006104</ele>
        <time>2015-12-12T10:37:57.779Z</time>
      </trkpt>
      <trkpt lat="46.03561" lon="4.75918">
        <ele>180.600006104</ele>
        <time>2015-12-12T10:37:58.763Z</time>
      </trkpt>
      <trkpt lat="46.03557" lon="4.7591">
        <ele>180.5</ele>
        <time>2015-12-12T10:37:59.804Z</time>
      </trkpt>
      <trkpt lat="46.03553" lon="4.75901">
        <ele>180.399993896</ele>
        <time>2015-12-12T10:38:00.763Z</time>
      </trkpt>
      <trkpt lat="46.03549" lon="4.75893">
        <ele>180.5</ele>
        <time>2015-12-12T10:38:01.78Z</time>
      </trkpt>
      <trkpt lat="46.03545" lon="4.75884">
        <ele>180.5</ele>
        <time>2015-12-12T10:38:02.763Z</time>
      </trkpt>
      <trkpt lat="46.03541" lon="4.75875">
        <ele>180.5</ele>
        <time>2015-12-12T10:38:03.779Z</time>
      </trkpt>
      <trkpt lat="46.03537" lon="4.75866">
        <ele>180.699996948</ele>
        <time>2015-12-12T10:38:04.763Z</time>
      </trkpt>
      <trkpt lat="46.03533" lon="4.75857">
        <ele>180.600006104</ele>
        <time>2015-12-12T10:38:05.782Z</time>
      </trkpt>
      <trkpt lat="46.0353" lon="4.75848">
        <ele>180.5</ele>
        <time>2015-12-12T10:38:06.763Z</time>
      </trkpt>
      <trkpt lat="46.03526" lon="4.75839">
        <ele>180.399993896</ele>
        <time>2015-12-12T10:38:07.784Z</time>
      </trkpt>
      <trkpt lat="46.03522" lon="4.7583">
        <ele>180.399993896</ele>
        <time>2015-12-12T10:38:08.763Z</time>
      </trkpt>
      <trkpt lat="46.03518" lon="4.75822">
        <ele>180.600006104</ele>
        <time>2015-12-12T10:38:09.792Z</time>
      </trkpt>
      <trkpt lat="46.03514" lon="4.75814">
        <ele>180.600006104</ele>
        <time>2015-12-12T10:38:10.763Z</time>
      </trkpt>
      <trkpt lat="46.0351" lon="4.75806">
        <ele>180.399993896</ele>
        <time>2015-12-12T10:38:11.783Z</time>
      </trkpt>
      <trkpt lat="46.03507" lon="4.75798">
        <ele>180.5</ele>
        <time>2015-12-12T10:38:12.763Z</time>
      </trkpt>
      <trkpt lat="46.03503" lon="4.7579">
        <ele>180.5</ele>
        <time>2015-12-12T10:38:13.782Z</time>
      </trkpt>
      <trkpt lat="46.035" lon="4.75782">
        <ele>180.399993896</ele>
        <time>2015-12-12T10:38:14.763Z</time>
      </trkpt>
      <trkpt lat="46.03496" lon="4.75773">
        <ele>180.5</ele>
        <time>2015-12-12T10:38:15.779Z</time>
      </trkpt>
      <trkpt lat="46.03494" lon="4.75765">
        <ele>180.800003052</ele>
        <time>2015-12-12T10:38:16.763Z</time>
      </trkpt>
      <trkpt lat="46.03491" lon="4.75757">
        <ele>180.899993896</ele>
        <time>2015-12-12T10:38:17.821Z</time>
      </trkpt>
      <trkpt lat="46.03488" lon="4.75749">
        <ele>181.100006104</ele>
        <time>2015-12-12T10:38:18.762Z</time>
      </trkpt>
      <trkpt lat="46.03485" lon="4.75741">
        <ele>180.800003052</ele>
        <time>2015-12-12T10:38:19.797Z</time>
      </trkpt>
      <trkpt lat="46.03481" lon="4.75732">
        <ele>180.399993896</ele>
        <time>2015-12-12T10:38:20.763Z</time>
      </trkpt>
      <trkpt lat="46.03478" lon="4.75723">
        <ele>180.199996948</ele>
        <time>2015-12-12T10:38:21.78Z</time>
      </trkpt>
      <trkpt lat="46.03475" lon="4.75714">
        <ele>179.800003052</ele>
        <time>2015-12-12T10:38:22.763Z</time>
      </trkpt>
      <trkpt lat="46.03472" lon="4.75705">
        <ele>179.199996948</ele>
        <time>2015-12-12T10:38:23.783Z</time>
      </trkpt>
      <trkpt lat="46.03468" lon="4.75696">
        <ele>179</ele>
        <time>2015-12-12T10:38:24.763Z</time>
      </trkpt>
      <trkpt lat="46.03465" lon="4.75687">
        <ele>178.800003052</ele>
        <time>2015-12-12T10:38:25.795Z</time>
      </trkpt>
      <trkpt lat="46.03461" lon="4.75679">
        <ele>178.600006104</ele>
        <time>2015-12-12T10:38:26.763Z</time>
      </trkpt>
      <trkpt lat="46.03458" lon="4.7567">
        <ele>178.600006104</ele>
        <time>2015-12-12T10:38:27.779Z</time>
      </trkpt>
      <trkpt lat="46.03454" lon="4.75662">
        <ele>178.5</ele>
        <time>2015-12-12T10:38:28.763Z</time>
      </trkpt>
      <trkpt lat="46.03451" lon="4.75654">
        <ele>178.899993896</ele>
        <time>2015-12-12T10:38:29.783Z</time>
      </trkpt>
      <trkpt lat="46.03448" lon="4.75647">
        <ele>179.199996948</ele>
        <time>2015-12-12T10:38:30.763Z</time>
      </trkpt>
      <trkpt lat="46.03445" lon="4.7564">
        <ele>179.300003052</ele>
        <time>2015-12-12T10:38:31.78Z</time>
      </trkpt>
      <trkpt lat="46.03443" lon="4.75635">
        <ele>179.199996948</ele>
        <time>2015-12-12T10:38:32.763Z</time>
      </trkpt>
      <trkpt lat="46.03438" lon="4.75625">
        <ele>179.5</ele>
        <time>2015-12-12T10:38:35.783Z</time>
      </trkpt>
      <trkpt lat="46.03436" lon="4.75622">
        <ele>179.100006104</ele>
        <time>2015-12-12T10:38:36.763Z</time>
      </trkpt>
      <trkpt lat="46.03431" lon="4.75618">
        <ele>179.100006104</ele>
        <time>2015-12-12T10:38:38.818Z</time>
      </trkpt>
      <trkpt lat="46.03427" lon="4.75617">
        <ele>179.5</ele>
        <time>2015-12-12T10:38:39.763Z</time>
      </trkpt>
      <trkpt lat="46.03422" lon="4.75617">
        <ele>179.600006104</ele>
        <time>2015-12-12T10:38:40.779Z</time>
      </trkpt>
      <trkpt lat="46.03417" lon="4.75618">
        <ele>179.800003052</ele>
        <time>2015-12-12T10:38:41.78Z</time>
      </trkpt>
      <trkpt lat="46.03412" lon="4.7562">
        <ele>180.100006104</ele>
        <time>2015-12-12T10:38:42.779Z</time>
      </trkpt>
      <trkpt lat="46.03408" lon="4.75622">
        <ele>180.100006104</ele>
        <time>2015-12-12T10:38:43.764Z</time>
      </trkpt>
      <trkpt lat="46.03403" lon="4.75624">
        <ele>180.199996948</ele>
        <time>2015-12-12T10:38:44.779Z</time>
      </trkpt>
      <trkpt lat="46.03397" lon="4.75625">
        <ele>180.300003052</ele>
        <time>2015-12-12T10:38:45.763Z</time>
      </trkpt>
      <trkpt lat="46.03391" lon="4.75626">
        <ele>180.300003052</ele>
        <time>2015-12-12T10:38:46.779Z</time>
      </trkpt>
      <trkpt lat="46.03385" lon="4.75627">
        <ele>180.100006104</ele>
        <time>2015-12-12T10:38:47.766Z</time>
      </trkpt>
      <trkpt lat="46.0338" lon="4.75628">
        <ele>180.100006104</ele>
        <time>2015-12-12T10:38:48.795Z</time>
      </trkpt>
      <trkpt lat="46.03374" lon="4.75629">
        <ele>180</ele>
        <time>2015-12-12T10:38:49.764Z</time>
      </trkpt>
      <trkpt lat="46.03367" lon="4.75629">
        <ele>179.899993896</ele>
        <time>2015-12-12T10:38:50.782Z</time>
      </trkpt>
      <trkpt lat="46.03361" lon="4.7563">
        <ele>179.899993896</ele>
        <time>2015-12-12T10:38:51.763Z</time>
      </trkpt>
      <trkpt lat="46.03355" lon="4.7563">
        <ele>179.699996948</ele>
        <time>2015-12-12T10:38:52.779Z</time>
      </trkpt>
      <trkpt lat="46.03349" lon="4.7563">
        <ele>179.899993896</ele>
        <time>2015-12-12T10:38:53.766Z</time>
      </trkpt>
      <trkpt lat="46.03344" lon="4.7563">
        <ele>179.899993896</ele>
        <time>2015-12-12T10:38:54.779Z</time>
      </trkpt>
      <trkpt lat="46.03338" lon="4.7563">
        <ele>179.699996948</ele>
        <time>2015-12-12T10:38:55.764Z</time>
      </trkpt>
      <trkpt lat="46.03333" lon="4.75631">
        <ele>179.600006104</ele>
        <time>2015-12-12T10:38:56.779Z</time>
      </trkpt>
      <trkpt lat="46.03328" lon="4.75631">
        <ele>179.600006104</ele>
        <time>2015-12-12T10:38:57.763Z</time>
      </trkpt>
      <trkpt lat="46.03322" lon="4.75632">
        <ele>179.399993896</ele>
        <time>2015-12-12T10:38:58.955Z</time>
      </trkpt>
      <trkpt lat="46.03317" lon="4.75631">
        <ele>179.199996948</ele>
        <time>2015-12-12T10:38:59.767Z</time>
      </trkpt>
      <trkpt lat="46.03311" lon="4.7563">
        <ele>179.300003052</ele>
        <time>2015-12-12T10:39:00.78Z</time>
      </trkpt>
      <trkpt lat="46.03305" lon="4.7563">
        <ele>179.300003052</ele>
        <time>2015-12-12T10:39:01.765Z</time>
      </trkpt>
      <trkpt lat="46.03299" lon="4.75631">
        <ele>179.199996948</ele>
        <time>2015-12-12T10:39:02.779Z</time>
      </trkpt>
      <trkpt lat="46.03293" lon="4.75634">
        <ele>179.100006104</ele>
        <time>2015-12-12T10:39:03.763Z</time>
      </trkpt>
      <trkpt lat="46.03288" lon="4.75639">
        <ele>179</ele>
        <time>2015-12-12T10:39:04.779Z</time>
      </trkpt>
      <trkpt lat="46.03283" lon="4.75644">
        <ele>179.199996948</ele>
        <time>2015-12-12T10:39:05.766Z</time>
      </trkpt>
      <trkpt lat="46.03277" lon="4.75649">
        <ele>179.399993896</ele>
        <time>2015-12-12T10:39:06.779Z</time>
      </trkpt>
      <trkpt lat="46.03272" lon="4.75653">
        <ele>179.5</ele>
        <time>2015-12-12T10:39:07.778Z</time>
      </trkpt>
      <trkpt lat="46.03266" lon="4.75656">
        <ele>179.5</ele>
        <time>2015-12-12T10:39:08.779Z</time>
      </trkpt>
      <trkpt lat="46.0326" lon="4.75659">
        <ele>179.399993896</ele>
        <time>2015-12-12T10:39:09.763Z</time>
      </trkpt>
      <trkpt lat="46.03253" lon="4.75661">
        <ele>179.699996948</ele>
        <time>2015-12-12T10:39:10.779Z</time>
      </trkpt>
      <trkpt lat="46.03247" lon="4.75662">
        <ele>179.800003052</ele>
        <time>2015-12-12T10:39:11.766Z</time>
      </trkpt>
      <trkpt lat="46.03241" lon="4.75663">
        <ele>180</ele>
        <time>2015-12-12T10:39:12.78Z</time>
      </trkpt>
      <trkpt lat="46.03235" lon="4.75664">
        <ele>180.100006104</ele>
        <time>2015-12-12T10:39:13.764Z</time>
      </trkpt>
      <trkpt lat="46.03229" lon="4.75665">
        <ele>180</ele>
        <time>2015-12-12T10:39:14.779Z</time>
      </trkpt>
      <trkpt lat="46.03223" lon="4.75666">
        <ele>180.199996948</ele>
        <time>2015-12-12T10:39:15.763Z</time>
      </trkpt>
      <trkpt lat="46.03216" lon="4.75667">
        <ele>180.100006104</ele>
        <time>2015-12-12T10:39:16.861Z</time>
      </trkpt>
      <trkpt lat="46.03209" lon="4.75667">
        <ele>180.100006104</ele>
        <time>2015-12-12T10:39:17.77Z</time>
      </trkpt>
      <trkpt lat="46.03202" lon="4.75667">
        <ele>180.199996948</ele>
        <time>2015-12-12T10:39:18.798Z</time>
      </trkpt>
      <trkpt lat="46.03195" lon="4.75668">
        <ele>180.5</ele>
        <time>2015-12-12T10:39:19.77Z</time>
      </trkpt>
      <trkpt lat="46.03188" lon="4.75668">
        <ele>180.699996948</ele>
        <time>2015-12-12T10:39:20.78Z</time>
      </trkpt>
      <trkpt lat="46.03182" lon="4.75668">
        <ele>180.600006104</ele>
        <time>2015-12-12T10:39:21.78Z</time>
      </trkpt>
      <trkpt lat="46.03175" lon="4.75668">
        <ele>180.600006104</ele>
        <time>2015-12-12T10:39:22.79Z</time>
      </trkpt>
      <trkpt lat="46.03168" lon="4.75668">
        <ele>180.5</ele>
        <time>2015-12-12T10:39:23.767Z</time>
      </trkpt>
      <trkpt lat="46.03161" lon="4.75668">
        <ele>180.399993896</ele>
        <time>2015-12-12T10:39:24.779Z</time>
      </trkpt>
      <trkpt lat="46.03155" lon="4.75668">
        <ele>180.600006104</ele>
        <time>2015-12-12T10:39:25.765Z</time>
      </trkpt>
      <trkpt lat="46.03148" lon="4.75669">
        <ele>180.399993896</ele>
        <time>2015-12-12T10:39:26.78Z</time>
      </trkpt>
      <trkpt lat="46.03141" lon="4.7567">
        <ele>180</ele>
        <time>2015-12-12T10:39:27.763Z</time>
      </trkpt>
      <trkpt lat="46.03134" lon="4.75671">
        <ele>179.800003052</ele>
        <time>2015-12-12T10:39:28.78Z</time>
      </trkpt>
      <trkpt lat="46.03127" lon="4.75672">
        <ele>179.5</ele>
        <time>2015-12-12T10:39:29.766Z</time>
      </trkpt>
      <trkpt lat="46.0312" lon="4.75672">
        <ele>179.199996948</ele>
        <time>2015-12-12T10:39:30.793Z</time>
      </trkpt>
      <trkpt lat="46.03113" lon="4.75673">
        <ele>179</ele>
        <time>2015-12-12T10:39:31.764Z</time>
      </trkpt>
      <trkpt lat="46.03106" lon="4.75674">
        <ele>178.899993896</ele>
        <time>2015-12-12T10:39:32.779Z</time>
      </trkpt>
      <trkpt lat="46.03099" lon="4.75674">
        <ele>178.600006104</ele>
        <time>2015-12-12T10:39:33.776Z</time>
      </trkpt>
      <trkpt lat="46.03092" lon="4.75676">
        <ele>177.899993896</ele>
        <time>2015-12-12T10:39:34.78Z</time>
      </trkpt>
      <trkpt lat="46.03086" lon="4.75676">
        <ele>177.899993896</ele>
        <time>2015-12-12T10:39:35.766Z</time>
      </trkpt>
      <trkpt lat="46.03079" lon="4.75676">
        <ele>177.699996948</ele>
        <time>2015-12-12T10:39:36.781Z</time>
      </trkpt>
      <trkpt lat="46.03072" lon="4.75678">
        <ele>177.399993896</ele>
        <time>2015-12-12T10:39:37.766Z</time>
      </trkpt>
      <trkpt lat="46.03066" lon="4.75679">
        <ele>177.199996948</ele>
        <time>2015-12-12T10:39:38.848Z</time>
      </trkpt>
      <trkpt lat="46.0306" lon="4.7568">
        <ele>177.100006104</ele>
        <time>2015-12-12T10:39:39.764Z</time>
      </trkpt>
      <trkpt lat="46.03053" lon="4.75682">
        <ele>177</ele>
        <time>2015-12-12T10:39:40.781Z</time>
      </trkpt>
      <trkpt lat="46.03047" lon="4.75683">
        <ele>176.5</ele>
        <time>2015-12-12T10:39:41.766Z</time>
      </trkpt>
      <trkpt lat="46.0304" lon="4.75685">
        <ele>176.300003052</ele>
        <time>2015-12-12T10:39:42.779Z</time>
      </trkpt>
      <trkpt lat="46.03033" lon="4.75687">
        <ele>176.300003052</ele>
        <time>2015-12-12T10:39:43.764Z</time>
      </trkpt>
      <trkpt lat="46.03026" lon="4.75689">
        <ele>176.600006104</ele>
        <time>2015-12-12T10:39:44.779Z</time>
      </trkpt>
      <trkpt lat="46.03019" lon="4.75692">
        <ele>176.399993896</ele>
        <time>2015-12-12T10:39:45.763Z</time>
      </trkpt>
      <trkpt lat="46.03012" lon="4.75695">
        <ele>176.199996948</ele>
        <time>2015-12-12T10:39:46.78Z</time>
      </trkpt>
      <trkpt lat="46.03006" lon="4.75697">
        <ele>176.100006104</ele>
        <time>2015-12-12T10:39:47.766Z</time>
      </trkpt>
      <trkpt lat="46.02999" lon="4.757">
        <ele>175.699996948</ele>
        <time>2015-12-12T10:39:48.779Z</time>
      </trkpt>
      <trkpt lat="46.02993" lon="4.75702">
        <ele>175.899993896</ele>
        <time>2015-12-12T10:39:49.764Z</time>
      </trkpt>
      <trkpt lat="46.02986" lon="4.75704">
        <ele>176</ele>
        <time>2015-12-12T10:39:50.781Z</time>
      </trkpt>
      <trkpt lat="46.02979" lon="4.75706">
        <ele>176.100006104</ele>
        <time>2015-12-12T10:39:51.764Z</time>
      </trkpt>
      <trkpt lat="46.02972" lon="4.75708">
        <ele>176.100006104</ele>
        <time>2015-12-12T10:39:52.779Z</time>
      </trkpt>
      <trkpt lat="46.02966" lon="4.7571">
        <ele>176.100006104</ele>
        <time>2015-12-12T10:39:53.766Z</time>
      </trkpt>
      <trkpt lat="46.0296" lon="4.75712">
        <ele>175.899993896</ele>
        <time>2015-12-12T10:39:54.923Z</time>
      </trkpt>
      <trkpt lat="46.02953" lon="4.75714">
        <ele>175.899993896</ele>
        <time>2015-12-12T10:39:55.764Z</time>
      </trkpt>
      <trkpt lat="46.02947" lon="4.75715">
        <ele>175.699996948</ele>
        <time>2015-12-12T10:39:56.779Z</time>
      </trkpt>
      <trkpt lat="46.0294" lon="4.75716">
        <ele>175.600006104</ele>
        <time>2015-12-12T10:39:57.763Z</time>
      </trkpt>
      <trkpt lat="46.02933" lon="4.75718">
        <ele>175.699996948</ele>
        <time>2015-12-12T10:39:58.779Z</time>
      </trkpt>
      <trkpt lat="46.02927" lon="4.75719">
        <ele>175.600006104</ele>
        <time>2015-12-12T10:39:59.766Z</time>
      </trkpt>
      <trkpt lat="46.02919" lon="4.75719">
        <ele>175.899993896</ele>
        <time>2015-12-12T10:40:00.779Z</time>
      </trkpt>
      <trkpt lat="46.02913" lon="4.75719">
        <ele>176.100006104</ele>
        <time>2015-12-12T10:40:01.764Z</time>
      </trkpt>
      <trkpt lat="46.02905" lon="4.75719">
        <ele>176.600006104</ele>
        <time>2015-12-12T10:40:02.779Z</time>
      </trkpt>
      <trkpt lat="46.02898" lon="4.75721">
        <ele>176.300003052</ele>
        <time>2015-12-12T10:40:03.763Z</time>
      </trkpt>
      <trkpt lat="46.02891" lon="4.75721">
        <ele>175.600006104</ele>
        <time>2015-12-12T10:40:04.779Z</time>
      </trkpt>
      <trkpt lat="46.02883" lon="4.75721">
        <ele>175.5</ele>
        <time>2015-12-12T10:40:05.765Z</time>
      </trkpt>
      <trkpt lat="46.02876" lon="4.75722">
        <ele>175.300003052</ele>
        <time>2015-12-12T10:40:06.779Z</time>
      </trkpt>
      <trkpt lat="46.02868" lon="4.75721">
        <ele>175.300003052</ele>
        <time>2015-12-12T10:40:07.764Z</time>
      </trkpt>
      <trkpt lat="46.0286" lon="4.75722">
        <ele>175.100006104</ele>
        <time>2015-12-12T10:40:08.779Z</time>
      </trkpt>
      <trkpt lat="46.02851" lon="4.75721">
        <ele>175.300003052</ele>
        <time>2015-12-12T10:40:09.763Z</time>
      </trkpt>
      <trkpt lat="46.02843" lon="4.7572">
        <ele>175.199996948</ele>
        <time>2015-12-12T10:40:10.793Z</time>
      </trkpt>
      <trkpt lat="46.02836" lon="4.75719">
        <ele>175.199996948</ele>
        <time>2015-12-12T10:40:11.766Z</time>
      </trkpt>
      <trkpt lat="46.02829" lon="4.75718">
        <ele>174.899993896</ele>
        <time>2015-12-12T10:40:12.779Z</time>
      </trkpt>
      <trkpt lat="46.02821" lon="4.75717">
        <ele>174.800003052</ele>
        <time>2015-12-12T10:40:13.764Z</time>
      </trkpt>
      <trkpt lat="46.02814" lon="4.75715">
        <ele>174.600006104</ele>
        <time>2015-12-12T10:40:14.779Z</time>
      </trkpt>
      <trkpt lat="46.02807" lon="4.75714">
        <ele>174.600006104</ele>
        <time>2015-12-12T10:40:15.763Z</time>
      </trkpt>
      <trkpt lat="46.028" lon="4.75713">
        <ele>174.199996948</ele>
        <time>2015-12-12T10:40:16.779Z</time>
      </trkpt>
      <trkpt lat="46.02793" lon="4.75713">
        <ele>173.699996948</ele>
        <time>2015-12-12T10:40:17.766Z</time>
      </trkpt>
      <trkpt lat="46.02786" lon="4.75712">
        <ele>173.699996948</ele>
        <time>2015-12-12T10:40:18.778Z</time>
      </trkpt>
      <trkpt lat="46.02779" lon="4.75711">
        <ele>173.199996948</ele>
        <time>2015-12-12T10:40:19.764Z</time>
      </trkpt>
      <trkpt lat="46.02772" lon="4.7571">
        <ele>172.800003052</ele>
        <time>2015-12-12T10:40:20.779Z</time>
      </trkpt>
      <trkpt lat="46.02766" lon="4.7571">
        <ele>172.800003052</ele>
        <time>2015-12-12T10:40:21.763Z</time>
      </trkpt>
      <trkpt lat="46.02759" lon="4.75709">
        <ele>172.899993896</ele>
        <time>2015-12-12T10:40:22.779Z</time>
      </trkpt>
      <trkpt lat="46.02753" lon="4.7571">
        <ele>172.600006104</ele>
        <time>2015-12-12T10:40:23.766Z</time>
      </trkpt>
      <trkpt lat="46.02747" lon="4.7571">
        <ele>172.600006104</ele>
        <time>2015-12-12T10:40:24.779Z</time>
      </trkpt>
      <trkpt lat="46.02741" lon="4.75711">
        <ele>172.5</ele>
        <time>2015-12-12T10:40:25.764Z</time>
      </trkpt>
      <trkpt lat="46.02735" lon="4.75713">
        <ele>172.800003052</ele>
        <time>2015-12-12T10:40:26.788Z</time>
      </trkpt>
      <trkpt lat="46.0273" lon="4.75715">
        <ele>172.5</ele>
        <time>2015-12-12T10:40:27.769Z</time>
      </trkpt>
      <trkpt lat="46.02724" lon="4.75717">
        <ele>173.5</ele>
        <time>2015-12-12T10:40:28.786Z</time>
      </trkpt>
      <trkpt lat="46.02718" lon="4.75719">
        <ele>173.199996948</ele>
        <time>2015-12-12T10:40:29.783Z</time>
      </trkpt>
      <trkpt lat="46.02713" lon="4.75722">
        <ele>173.300003052</ele>
        <time>2015-12-12T10:40:30.919Z</time>
      </trkpt>
      <trkpt lat="46.02707" lon="4.75725">
        <ele>173</ele>
        <time>2015-12-12T10:40:31.77Z</time>
      </trkpt>
      <trkpt lat="46.02702" lon="4.75727">
        <ele>172.800003052</ele>
        <time>2015-12-12T10:40:32.786Z</time>
      </trkpt>
      <trkpt lat="46.02696" lon="4.75729">
        <ele>172.899993896</ele>
        <time>2015-12-12T10:40:33.769Z</time>
      </trkpt>
      <trkpt lat="46.0269" lon="4.75732">
        <ele>172.899993896</ele>
        <time>2015-12-12T10:40:34.786Z</time>
      </trkpt>
      <trkpt lat="46.02685" lon="4.75733">
        <ele>173.100006104</ele>
        <time>2015-12-12T10:40:35.772Z</time>
      </trkpt>
      <trkpt lat="46.02679" lon="4.75735">
        <ele>173.399993896</ele>
        <time>2015-12-12T10:40:36.785Z</time>
      </trkpt>
      <trkpt lat="46.02674" lon="4.75737">
        <ele>173.199996948</ele>
        <time>2015-12-12T10:40:37.77Z</time>
      </trkpt>
      <trkpt lat="46.02669" lon="4.75738">
        <ele>173.199996948</ele>
        <time>2015-12-12T10:40:38.787Z</time>
      </trkpt>
      <trkpt lat="46.02664" lon="4.75738">
        <ele>173.300003052</ele>
        <time>2015-12-12T10:40:39.769Z</time>
      </trkpt>
      <trkpt lat="46.0266" lon="4.75739">
        <ele>173.600006104</ele>
        <time>2015-12-12T10:40:40.786Z</time>
      </trkpt>
      <trkpt lat="46.02655" lon="4.7574">
        <ele>173.600006104</ele>
        <time>2015-12-12T10:40:41.786Z</time>
      </trkpt>
      <trkpt lat="46.02646" lon="4.7574">
        <ele>174</ele>
        <time>2015-12-12T10:40:43.79Z</time>
      </trkpt>
      <trkpt lat="46.02642" lon="4.7574">
        <ele>174.100006104</ele>
        <time>2015-12-12T10:40:44.769Z</time>
      </trkpt>
      <trkpt lat="46.02635" lon="4.7574">
        <ele>175.100006104</ele>
        <time>2015-12-12T10:40:46.787Z</time>
      </trkpt>
      <trkpt lat="46.02631" lon="4.7574">
        <ele>175.199996948</ele>
        <time>2015-12-12T10:40:47.771Z</time>
      </trkpt>
      <trkpt lat="46.02623" lon="4.7574">
        <ele>175.699996948</ele>
        <time>2015-12-12T10:40:49.796Z</time>
      </trkpt>
      <trkpt lat="46.02619" lon="4.7574">
        <ele>175.800003052</ele>
        <time>2015-12-12T10:40:50.766Z</time>
      </trkpt>
      <trkpt lat="46.02612" lon="4.7574">
        <ele>176.399993896</ele>
        <time>2015-12-12T10:40:52.78Z</time>
      </trkpt>
      <trkpt lat="46.02608" lon="4.75739">
        <ele>176.600006104</ele>
        <time>2015-12-12T10:40:53.767Z</time>
      </trkpt>
      <trkpt lat="46.02602" lon="4.75739">
        <ele>176.5</ele>
        <time>2015-12-12T10:40:55.78Z</time>
      </trkpt>
      <trkpt lat="46.02599" lon="4.75739">
        <ele>176.300003052</ele>
        <time>2015-12-12T10:40:56.764Z</time>
      </trkpt>
      <trkpt lat="46.0259" lon="4.75738">
        <ele>177.199996948</ele>
        <time>2015-12-12T10:40:59.794Z</time>
      </trkpt>
      <trkpt lat="46.02588" lon="4.75739">
        <ele>177.199996948</ele>
        <time>2015-12-12T10:41:00.764Z</time>
      </trkpt>
      <trkpt lat="46.02579" lon="4.75738">
        <ele>176.800003052</ele>
        <time>2015-12-12T10:41:03.781Z</time>
      </trkpt>
      <trkpt lat="46.02576" lon="4.75738">
        <ele>177</ele>
        <time>2015-12-12T10:41:04.763Z</time>
      </trkpt>
      <trkpt lat="46.0257" lon="4.75739">
        <ele>177.300003052</ele>
        <time>2015-12-12T10:41:06.78Z</time>
      </trkpt>
      <trkpt lat="46.02566" lon="4.75739">
        <ele>177.5</ele>
        <time>2015-12-12T10:41:07.764Z</time>
      </trkpt>
      <trkpt lat="46.02561" lon="4.7574">
        <ele>177.699996948</ele>
        <time>2015-12-12T10:41:09.807Z</time>
      </trkpt>
      <trkpt lat="46.02557" lon="4.7574">
        <ele>178</ele>
        <time>2015-12-12T10:41:10.791Z</time>
      </trkpt>
      <trkpt lat="46.02549" lon="4.7574">
        <ele>178.600006104</ele>
        <time>2015-12-12T10:41:13.78Z</time>
      </trkpt>
      <trkpt lat="46.02546" lon="4.7574">
        <ele>178.699996948</ele>
        <time>2015-12-12T10:41:14.763Z</time>
      </trkpt>
      <trkpt lat="46.0254" lon="4.75741">
        <ele>179.199996948</ele>
        <time>2015-12-12T10:41:16.78Z</time>
      </trkpt>
      <trkpt lat="46.02537" lon="4.75741">
        <ele>179.300003052</ele>
        <time>2015-12-12T10:41:17.766Z</time>
      </trkpt>
      <trkpt lat="46.02528" lon="4.75742">
        <ele>180.300003052</ele>
        <time>2015-12-12T10:41:20.779Z</time>
      </trkpt>
      <trkpt lat="46.02525" lon="4.75742">
        <ele>180.199996948</ele>
        <time>2015-12-12T10:41:21.763Z</time>
      </trkpt>
      <trkpt lat="46.02517" lon="4.75744">
        <ele>181.100006104</ele>
        <time>2015-12-12T10:41:24.779Z</time>
      </trkpt>
      <trkpt lat="46.02514" lon="4.75745">
        <ele>181.100006104</ele>
        <time>2015-12-12T10:41:25.764Z</time>
      </trkpt>
      <trkpt lat="46.02507" lon="4.7575">
        <ele>181.5</ele>
        <time>2015-12-12T10:41:28.794Z</time>
      </trkpt>
      <trkpt lat="46.02504" lon="4.7575">
        <ele>181.699996948</ele>
        <time>2015-12-12T10:41:29.766Z</time>
      </trkpt>
      <trkpt lat="46.02496" lon="4.75752">
        <ele>182.399993896</ele>
        <time>2015-12-12T10:41:32.779Z</time>
      </trkpt>
      <trkpt lat="46.02494" lon="4.75753">
        <ele>182.399993896</ele>
        <time>2015-12-12T10:41:33.763Z</time>
      </trkpt>
      <trkpt lat="46.02485" lon="4.75758">
        <ele>182.800003052</ele>
        <time>2015-12-12T10:41:36.779Z</time>
      </trkpt>
      <trkpt lat="46.02482" lon="4.75759">
        <ele>183.199996948</ele>
        <time>2015-12-12T10:41:37.764Z</time>
      </trkpt>
      <trkpt lat="46.02474" lon="4.75763">
        <ele>183.699996948</ele>
        <time>2015-12-12T10:41:40.78Z</time>
      </trkpt>
      <trkpt lat="46.02471" lon="4.75764">
        <ele>183.800003052</ele>
        <time>2015-12-12T10:41:41.766Z</time>
      </trkpt>
      <trkpt lat="46.02463" lon="4.75767">
        <ele>184.399993896</ele>
        <time>2015-12-12T10:41:44.794Z</time>
      </trkpt>
      <trkpt lat="46.0246" lon="4.75769">
        <ele>184.600006104</ele>
        <time>2015-12-12T10:41:45.763Z</time>
      </trkpt>
      <trkpt lat="46.02454" lon="4.75771">
        <ele>184.899993896</ele>
        <time>2015-12-12T10:41:47.782Z</time>
      </trkpt>
      <trkpt lat="46.02451" lon="4.75773">
        <ele>184.899993896</ele>
        <time>2015-12-12T10:41:48.763Z</time>
      </trkpt>
      <trkpt lat="46.02443" lon="4.75778">
        <ele>185.699996948</ele>
        <time>2015-12-12T10:41:51.78Z</time>
      </trkpt>
      <trkpt lat="46.0244" lon="4.75779">
        <ele>186</ele>
        <time>2015-12-12T10:41:52.763Z</time>
      </trkpt>
      <trkpt lat="46.02435" lon="4.75782">
        <ele>186.399993896</ele>
        <time>2015-12-12T10:41:54.779Z</time>
      </trkpt>
      <trkpt lat="46.02432" lon="4.75784">
        <ele>186.5</ele>
        <time>2015-12-12T10:41:55.764Z</time>
      </trkpt>
      <trkpt lat="46.02426" lon="4.75787">
        <ele>187.199996948</ele>
        <time>2015-12-12T10:41:57.807Z</time>
      </trkpt>
      <trkpt lat="46.02422" lon="4.75789">
        <ele>187.300003052</ele>
        <time>2015-12-12T10:41:58.763Z</time>
      </trkpt>
      <trkpt lat="46.02415" lon="4.75793">
        <ele>188.300003052</ele>
        <time>2015-12-12T10:42:00.799Z</time>
      </trkpt>
      <trkpt lat="46.02412" lon="4.75795">
        <ele>188.600006104</ele>
        <time>2015-12-12T10:42:01.765Z</time>
      </trkpt>
      <trkpt lat="46.02405" lon="4.75799">
        <ele>188.5</ele>
        <time>2015-12-12T10:42:03.781Z</time>
      </trkpt>
      <trkpt lat="46.02402" lon="4.75801">
        <ele>188.899993896</ele>
        <time>2015-12-12T10:42:04.763Z</time>
      </trkpt>
      <trkpt lat="46.02396" lon="4.75807">
        <ele>189.100006104</ele>
        <time>2015-12-12T10:42:06.78Z</time>
      </trkpt>
      <trkpt lat="46.02392" lon="4.75809">
        <ele>189.100006104</ele>
        <time>2015-12-12T10:42:07.764Z</time>
      </trkpt>
      <trkpt lat="46.02386" lon="4.75815">
        <ele>189</ele>
        <time>2015-12-12T10:42:09.779Z</time>
      </trkpt>
      <trkpt lat="46.02382" lon="4.75817">
        <ele>189</ele>
        <time>2015-12-12T10:42:10.763Z</time>
      </trkpt>
      <trkpt lat="46.02375" lon="4.75823">
        <ele>189.300003052</ele>
        <time>2015-12-12T10:42:12.786Z</time>
      </trkpt>
      <trkpt lat="46.02371" lon="4.75825">
        <ele>189.300003052</ele>
        <time>2015-12-12T10:42:13.764Z</time>
      </trkpt>
      <trkpt lat="46.02363" lon="4.7583">
        <ele>189.300003052</ele>
        <time>2015-12-12T10:42:15.779Z</time>
      </trkpt>
      <trkpt lat="46.02359" lon="4.75833">
        <ele>189.100006104</ele>
        <time>2015-12-12T10:42:16.763Z</time>
      </trkpt>
      <trkpt lat="46.02352" lon="4.75839">
        <ele>189.100006104</ele>
        <time>2015-12-12T10:42:18.779Z</time>
      </trkpt>
      <trkpt lat="46.02348" lon="4.75842">
        <ele>189.100006104</ele>
        <time>2015-12-12T10:42:19.764Z</time>
      </trkpt>
      <trkpt lat="46.02342" lon="4.75848">
        <ele>189</ele>
        <time>2015-12-12T10:42:21.794Z</time>
      </trkpt>
      <trkpt lat="46.02338" lon="4.75851">
        <ele>189</ele>
        <time>2015-12-12T10:42:22.762Z</time>
      </trkpt>
      <trkpt lat="46.0233" lon="4.75857">
        <ele>188.699996948</ele>
        <time>2015-12-12T10:42:24.78Z</time>
      </trkpt>
      <trkpt lat="46.02326" lon="4.7586">
        <ele>188.600006104</ele>
        <time>2015-12-12T10:42:25.764Z</time>
      </trkpt>
      <trkpt lat="46.02322" lon="4.75864">
        <ele>188.5</ele>
        <time>2015-12-12T10:42:26.78Z</time>
      </trkpt>
      <trkpt lat="46.02318" lon="4.75868">
        <ele>188.199996948</ele>
        <time>2015-12-12T10:42:27.764Z</time>
      </trkpt>
      <trkpt lat="46.02313" lon="4.75872">
        <ele>187.899993896</ele>
        <time>2015-12-12T10:42:28.783Z</time>
      </trkpt>
      <trkpt lat="46.02309" lon="4.75876">
        <ele>187.5</ele>
        <time>2015-12-12T10:42:29.766Z</time>
      </trkpt>
      <trkpt lat="46.02305" lon="4.75881">
        <ele>187.300003052</ele>
        <time>2015-12-12T10:42:30.779Z</time>
      </trkpt>
      <trkpt lat="46.023" lon="4.75885">
        <ele>187</ele>
        <time>2015-12-12T10:42:31.764Z</time>
      </trkpt>
      <trkpt lat="46.02295" lon="4.75889">
        <ele>186.699996948</ele>
        <time>2015-12-12T10:42:32.779Z</time>
      </trkpt>
      <trkpt lat="46.02291" lon="4.75894">
        <ele>186.5</ele>
        <time>2015-12-12T10:42:33.763Z</time>
      </trkpt>
      <trkpt lat="46.02286" lon="4.75899">
        <ele>186.399993896</ele>
        <time>2015-12-12T10:42:34.78Z</time>
      </trkpt>
      <trkpt lat="46.02281" lon="4.75903">
        <ele>186.100006104</ele>
        <time>2015-12-12T10:42:35.766Z</time>
      </trkpt>
      <trkpt lat="46.02276" lon="4.75908">
        <ele>185.899993896</ele>
        <time>2015-12-12T10:42:36.779Z</time>
      </trkpt>
      <trkpt lat="46.02272" lon="4.75912">
        <ele>185.800003052</ele>
        <time>2015-12-12T10:42:37.765Z</time>
      </trkpt>
      <trkpt lat="46.02267" lon="4.75917">
        <ele>185.699996948</ele>
        <time>2015-12-12T10:42:38.78Z</time>
      </trkpt>
      <trkpt lat="46.02262" lon="4.75922">
        <ele>185.699996948</ele>
        <time>2015-12-12T10:42:39.763Z</time>
      </trkpt>
      <trkpt lat="46.02257" lon="4.75926">
        <ele>185.699996948</ele>
        <time>2015-12-12T10:42:40.779Z</time>
      </trkpt>
      <trkpt lat="46.02252" lon="4.75931">
        <ele>185.800003052</ele>
        <time>2015-12-12T10:42:41.766Z</time>
      </trkpt>
      <trkpt lat="46.02248" lon="4.75935">
        <ele>185.800003052</ele>
        <time>2015-12-12T10:42:42.779Z</time>
      </trkpt>
      <trkpt lat="46.02243" lon="4.75939">
        <ele>185.699996948</ele>
        <time>2015-12-12T10:42:43.764Z</time>
      </trkpt>
      <trkpt lat="46.02238" lon="4.75943">
        <ele>185.399993896</ele>
        <time>2015-12-12T10:42:44.779Z</time>
      </trkpt>
      <trkpt lat="46.02232" lon="4.75946">
        <ele>185.300003052</ele>
        <time>2015-12-12T10:42:45.763Z</time>
      </trkpt>
      <trkpt lat="46.02227" lon="4.75951">
        <ele>185</ele>
        <time>2015-12-12T10:42:46.779Z</time>
      </trkpt>
      <trkpt lat="46.02222" lon="4.75956">
        <ele>185</ele>
        <time>2015-12-12T10:42:47.78Z</time>
      </trkpt>
      <trkpt lat="46.02217" lon="4.7596">
        <ele>184.699996948</ele>
        <time>2015-12-12T10:42:48.779Z</time>
      </trkpt>
      <trkpt lat="46.02212" lon="4.75965">
        <ele>185.199996948</ele>
        <time>2015-12-12T10:42:49.764Z</time>
      </trkpt>
      <trkpt lat="46.02206" lon="4.75969">
        <ele>185.199996948</ele>
        <time>2015-12-12T10:42:50.782Z</time>
      </trkpt>
      <trkpt lat="46.02201" lon="4.75973">
        <ele>184.800003052</ele>
        <time>2015-12-12T10:42:51.763Z</time>
      </trkpt>
      <trkpt lat="46.02196" lon="4.75978">
        <ele>184.800003052</ele>
        <time>2015-12-12T10:42:52.779Z</time>
      </trkpt>
      <trkpt lat="46.02191" lon="4.75983">
        <ele>184.699996948</ele>
        <time>2015-12-12T10:42:53.767Z</time>
      </trkpt>
      <trkpt lat="46.02185" lon="4.75987">
        <ele>184.699996948</ele>
        <time>2015-12-12T10:42:54.779Z</time>
      </trkpt>
      <trkpt lat="46.0218" lon="4.75991">
        <ele>184.899993896</ele>
        <time>2015-12-12T10:42:55.764Z</time>
      </trkpt>
      <trkpt lat="46.02174" lon="4.75995">
        <ele>185.899993896</ele>
        <time>2015-12-12T10:42:56.779Z</time>
      </trkpt>
      <trkpt lat="46.02168" lon="4.76">
        <ele>186.300003052</ele>
        <time>2015-12-12T10:42:57.762Z</time>
      </trkpt>
      <trkpt lat="46.02162" lon="4.76004">
        <ele>186.5</ele>
        <time>2015-12-12T10:42:58.795Z</time>
      </trkpt>
      <trkpt lat="46.02157" lon="4.76008">
        <ele>187.300003052</ele>
        <time>2015-12-12T10:42:59.767Z</time>
      </trkpt>
      <trkpt lat="46.02152" lon="4.76013">
        <ele>187.300003052</ele>
        <time>2015-12-12T10:43:00.78Z</time>
      </trkpt>
      <trkpt lat="46.02147" lon="4.76018">
        <ele>187.199996948</ele>
        <time>2015-12-12T10:43:01.764Z</time>
      </trkpt>
      <trkpt lat="46.02141" lon="4.76022">
        <ele>187.300003052</ele>
        <time>2015-12-12T10:43:02.779Z</time>
      </trkpt>
      <trkpt lat="46.02136" lon="4.76027">
        <ele>187.199996948</ele>
        <time>2015-12-12T10:43:03.763Z</time>
      </trkpt>
      <trkpt lat="46.02132" lon="4.76032">
        <ele>187</ele>
        <time>2015-12-12T10:43:04.78Z</time>
      </trkpt>
      <trkpt lat="46.02127" lon="4.76038">
        <ele>187</ele>
        <time>2015-12-12T10:43:05.766Z</time>
      </trkpt>
      <trkpt lat="46.02123" lon="4.76043">
        <ele>187.100006104</ele>
        <time>2015-12-12T10:43:06.779Z</time>
      </trkpt>
      <trkpt lat="46.02118" lon="4.76048">
        <ele>187.199996948</ele>
        <time>2015-12-12T10:43:07.764Z</time>
      </trkpt>
      <trkpt lat="46.02113" lon="4.76052">
        <ele>187.399993896</ele>
        <time>2015-12-12T10:43:08.78Z</time>
      </trkpt>
      <trkpt lat="46.02108" lon="4.76056">
        <ele>187.399993896</ele>
        <time>2015-12-12T10:43:09.763Z</time>
      </trkpt>
      <trkpt lat="46.02103" lon="4.7606">
        <ele>187.300003052</ele>
        <time>2015-12-12T10:43:10.78Z</time>
      </trkpt>
      <trkpt lat="46.02098" lon="4.76064">
        <ele>187.399993896</ele>
        <time>2015-12-12T10:43:11.766Z</time>
      </trkpt>
      <trkpt lat="46.02093" lon="4.76068">
        <ele>187.399993896</ele>
        <time>2015-12-12T10:43:12.779Z</time>
      </trkpt>
      <trkpt lat="46.02087" lon="4.76071">
        <ele>187.5</ele>
        <time>2015-12-12T10:43:13.763Z</time>
      </trkpt>
      <trkpt lat="46.02082" lon="4.76074">
        <ele>187.699996948</ele>
        <time>2015-12-12T10:43:14.793Z</time>
      </trkpt>
      <trkpt lat="46.02077" lon="4.76077">
        <ele>187.899993896</ele>
        <time>2015-12-12T10:43:15.762Z</time>
      </trkpt>
      <trkpt lat="46.02072" lon="4.7608">
        <ele>188</ele>
        <time>2015-12-12T10:43:16.779Z</time>
      </trkpt>
      <trkpt lat="46.02067" lon="4.76082">
        <ele>188.199996948</ele>
        <time>2015-12-12T10:43:17.766Z</time>
      </trkpt>
      <trkpt lat="46.02062" lon="4.76084">
        <ele>188.399993896</ele>
        <time>2015-12-12T10:43:18.779Z</time>
      </trkpt>
      <trkpt lat="46.02056" lon="4.76085">
        <ele>188.600006104</ele>
        <time>2015-12-12T10:43:19.765Z</time>
      </trkpt>
      <trkpt lat="46.02051" lon="4.76087">
        <ele>188.800003052</ele>
        <time>2015-12-12T10:43:20.779Z</time>
      </trkpt>
      <trkpt lat="46.02046" lon="4.76089">
        <ele>189.100006104</ele>
        <time>2015-12-12T10:43:21.762Z</time>
      </trkpt>
      <trkpt lat="46.02042" lon="4.7609">
        <ele>189.300003052</ele>
        <time>2015-12-12T10:43:22.779Z</time>
      </trkpt>
      <trkpt lat="46.02036" lon="4.76091">
        <ele>189.399993896</ele>
        <time>2015-12-12T10:43:23.765Z</time>
      </trkpt>
      <trkpt lat="46.02031" lon="4.76093">
        <ele>189.600006104</ele>
        <time>2015-12-12T10:43:24.779Z</time>
      </trkpt>
      <trkpt lat="46.02026" lon="4.76094">
        <ele>189.899993896</ele>
        <time>2015-12-12T10:43:25.763Z</time>
      </trkpt>
      <trkpt lat="46.02021" lon="4.76095">
        <ele>189.899993896</ele>
        <time>2015-12-12T10:43:26.779Z</time>
      </trkpt>
      <trkpt lat="46.02015" lon="4.76096">
        <ele>190</ele>
        <time>2015-12-12T10:43:27.762Z</time>
      </trkpt>
      <trkpt lat="46.0201" lon="4.76097">
        <ele>189.899993896</ele>
        <time>2015-12-12T10:43:28.78Z</time>
      </trkpt>
      <trkpt lat="46.02005" lon="4.76097">
        <ele>190</ele>
        <time>2015-12-12T10:43:29.766Z</time>
      </trkpt>
      <trkpt lat="46.02" lon="4.76098">
        <ele>189.800003052</ele>
        <time>2015-12-12T10:43:30.792Z</time>
      </trkpt>
      <trkpt lat="46.01995" lon="4.76099">
        <ele>190.100006104</ele>
        <time>2015-12-12T10:43:31.764Z</time>
      </trkpt>
      <trkpt lat="46.01991" lon="4.761">
        <ele>189.899993896</ele>
        <time>2015-12-12T10:43:32.779Z</time>
      </trkpt>
      <trkpt lat="46.01986" lon="4.76102">
        <ele>191.199996948</ele>
        <time>2015-12-12T10:43:33.762Z</time>
      </trkpt>
      <trkpt lat="46.01981" lon="4.76104">
        <ele>191.100006104</ele>
        <time>2015-12-12T10:43:34.78Z</time>
      </trkpt>
      <trkpt lat="46.01977" lon="4.76105">
        <ele>191.300003052</ele>
        <time>2015-12-12T10:43:35.765Z</time>
      </trkpt>
      <trkpt lat="46.01972" lon="4.76106">
        <ele>191.399993896</ele>
        <time>2015-12-12T10:43:36.778Z</time>
      </trkpt>
      <trkpt lat="46.01966" lon="4.76107">
        <ele>191.600006104</ele>
        <time>2015-12-12T10:43:37.764Z</time>
      </trkpt>
      <trkpt lat="46.01961" lon="4.76108">
        <ele>192</ele>
        <time>2015-12-12T10:43:38.779Z</time>
      </trkpt>
      <trkpt lat="46.01956" lon="4.76109">
        <ele>192.399993896</ele>
        <time>2015-12-12T10:43:39.762Z</time>
      </trkpt>
      <trkpt lat="46.01951" lon="4.7611">
        <ele>192.800003052</ele>
        <time>2015-12-12T10:43:40.828Z</time>
      </trkpt>
      <trkpt lat="46.01946" lon="4.76112">
        <ele>193</ele>
        <time>2015-12-12T10:43:41.766Z</time>
      </trkpt>
      <trkpt lat="46.0194" lon="4.76114">
        <ele>193.399993896</ele>
        <time>2015-12-12T10:43:42.785Z</time>
      </trkpt>
      <trkpt lat="46.01935" lon="4.76115">
        <ele>193.5</ele>
        <time>2015-12-12T10:43:43.764Z</time>
      </trkpt>
      <trkpt lat="46.0193" lon="4.76116">
        <ele>193.399993896</ele>
        <time>2015-12-12T10:43:44.779Z</time>
      </trkpt>
      <trkpt lat="46.01925" lon="4.76118">
        <ele>193.399993896</ele>
        <time>2015-12-12T10:43:45.764Z</time>
      </trkpt>
      <trkpt lat="46.01919" lon="4.76119">
        <ele>193.199996948</ele>
        <time>2015-12-12T10:43:46.793Z</time>
      </trkpt>
      <trkpt lat="46.01914" lon="4.7612">
        <ele>193</ele>
        <time>2015-12-12T10:43:47.766Z</time>
      </trkpt>
      <trkpt lat="46.01909" lon="4.76122">
        <ele>193.100006104</ele>
        <time>2015-12-12T10:43:48.779Z</time>
      </trkpt>
      <trkpt lat="46.01905" lon="4.76122">
        <ele>193.399993896</ele>
        <time>2015-12-12T10:43:49.764Z</time>
      </trkpt>
      <trkpt lat="46.01896" lon="4.76124">
        <ele>193.399993896</ele>
        <time>2015-12-12T10:43:51.778Z</time>
      </trkpt>
      <trkpt lat="46.01891" lon="4.76125">
        <ele>193.600006104</ele>
        <time>2015-12-12T10:43:52.762Z</time>
      </trkpt>
      <trkpt lat="46.01886" lon="4.76125">
        <ele>193.899993896</ele>
        <time>2015-12-12T10:43:53.782Z</time>
      </trkpt>
      <trkpt lat="46.01881" lon="4.76126">
        <ele>194.399993896</ele>
        <time>2015-12-12T10:43:54.763Z</time>
      </trkpt>
      <trkpt lat="46.01877" lon="4.76126">
        <ele>194.5</ele>
        <time>2015-12-12T10:43:55.78Z</time>
      </trkpt>
      <trkpt lat="46.01872" lon="4.76127">
        <ele>194.800003052</ele>
        <time>2015-12-12T10:43:56.762Z</time>
      </trkpt>
      <trkpt lat="46.01867" lon="4.76128">
        <ele>194.800003052</ele>
        <time>2015-12-12T10:43:57.779Z</time>
      </trkpt>
      <trkpt lat="46.01861" lon="4.76128">
        <ele>195.199996948</ele>
        <time>2015-12-12T10:43:58.763Z</time>
      </trkpt>
      <trkpt lat="46.01856" lon="4.76129">
        <ele>195.600006104</ele>
        <time>2015-12-12T10:43:59.783Z</time>
      </trkpt>
      <trkpt lat="46.01851" lon="4.76129">
        <ele>195.899993896</ele>
        <time>2015-12-12T10:44:00.762Z</time>
      </trkpt>
      <trkpt lat="46.01847" lon="4.7613">
        <ele>196.399993896</ele>
        <time>2015-12-12T10:44:01.78Z</time>
      </trkpt>
      <trkpt lat="46.01842" lon="4.76131">
        <ele>196.199996948</ele>
        <time>2015-12-12T10:44:02.762Z</time>
      </trkpt>
      <trkpt lat="46.01834" lon="4.7613">
        <ele>196.899993896</ele>
        <time>2015-12-12T10:44:04.778Z</time>
      </trkpt>
      <trkpt lat="46.01829" lon="4.76131">
        <ele>197.199996948</ele>
        <time>2015-12-12T10:44:05.765Z</time>
      </trkpt>
      <trkpt lat="46.01825" lon="4.7613">
        <ele>197.399993896</ele>
        <time>2015-12-12T10:44:06.779Z</time>
      </trkpt>
      <trkpt lat="46.0182" lon="4.76129">
        <ele>196.399993896</ele>
        <time>2015-12-12T10:44:07.777Z</time>
      </trkpt>
      <trkpt lat="46.01815" lon="4.76128">
        <ele>195.699996948</ele>
        <time>2015-12-12T10:44:08.791Z</time>
      </trkpt>
      <trkpt lat="46.0181" lon="4.76127">
        <ele>195.800003052</ele>
        <time>2015-12-12T10:44:09.762Z</time>
      </trkpt>
      <trkpt lat="46.01804" lon="4.76127">
        <ele>195.699996948</ele>
        <time>2015-12-12T10:44:10.78Z</time>
      </trkpt>
      <trkpt lat="46.01799" lon="4.76127">
        <ele>195.699996948</ele>
        <time>2015-12-12T10:44:11.77Z</time>
      </trkpt>
      <trkpt lat="46.01794" lon="4.76127">
        <ele>195.699996948</ele>
        <time>2015-12-12T10:44:12.78Z</time>
      </trkpt>
      <trkpt lat="46.0179" lon="4.76128">
        <ele>195.100006104</ele>
        <time>2015-12-12T10:44:13.763Z</time>
      </trkpt>
      <trkpt lat="46.01781" lon="4.76129">
        <ele>193.800003052</ele>
        <time>2015-12-12T10:44:15.778Z</time>
      </trkpt>
      <trkpt lat="46.01777" lon="4.76131">
        <ele>193.600006104</ele>
        <time>2015-12-12T10:44:16.762Z</time>
      </trkpt>
      <trkpt lat="46.01768" lon="4.7613">
        <ele>192.800003052</ele>
        <time>2015-12-12T10:44:18.804Z</time>
      </trkpt>
      <trkpt lat="46.01764" lon="4.7613">
        <ele>192.399993896</ele>
        <time>2015-12-12T10:44:19.764Z</time>
      </trkpt>
      <trkpt lat="46.01758" lon="4.7613">
        <ele>192.199996948</ele>
        <time>2015-12-12T10:44:20.78Z</time>
      </trkpt>
      <trkpt lat="46.01753" lon="4.76129">
        <ele>191.699996948</ele>
        <time>2015-12-12T10:44:21.763Z</time>
      </trkpt>
      <trkpt lat="46.01748" lon="4.76127">
        <ele>191.699996948</ele>
        <time>2015-12-12T10:44:22.779Z</time>
      </trkpt>
      <trkpt lat="46.01742" lon="4.76126">
        <ele>191.699996948</ele>
        <time>2015-12-12T10:44:23.766Z</time>
      </trkpt>
      <trkpt lat="46.01737" lon="4.76125">
        <ele>191.800003052</ele>
        <time>2015-12-12T10:44:24.778Z</time>
      </trkpt>
      <trkpt lat="46.01732" lon="4.76125">
        <ele>191.5</ele>
        <time>2015-12-12T10:44:25.763Z</time>
      </trkpt>
      <trkpt lat="46.01727" lon="4.76124">
        <ele>191.100006104</ele>
        <time>2015-12-12T10:44:26.779Z</time>
      </trkpt>
      <trkpt lat="46.01722" lon="4.76124">
        <ele>191.699996948</ele>
        <time>2015-12-12T10:44:27.762Z</time>
      </trkpt>
      <trkpt lat="46.01716" lon="4.76124">
        <ele>191.800003052</ele>
        <time>2015-12-12T10:44:28.796Z</time>
      </trkpt>
      <trkpt lat="46.01711" lon="4.76123">
        <ele>192.199996948</ele>
        <time>2015-12-12T10:44:29.765Z</time>
      </trkpt>
      <trkpt lat="46.01706" lon="4.76122">
        <ele>192.199996948</ele>
        <time>2015-12-12T10:44:30.779Z</time>
      </trkpt>
      <trkpt lat="46.01701" lon="4.76121">
        <ele>191.899993896</ele>
        <time>2015-12-12T10:44:31.763Z</time>
      </trkpt>
      <trkpt lat="46.01696" lon="4.76121">
        <ele>192.199996948</ele>
        <time>2015-12-12T10:44:32.779Z</time>
      </trkpt>
      <trkpt lat="46.01691" lon="4.7612">
        <ele>192.100006104</ele>
        <time>2015-12-12T10:44:33.777Z</time>
      </trkpt>
      <trkpt lat="46.01686" lon="4.7612">
        <ele>192.300003052</ele>
        <time>2015-12-12T10:44:34.779Z</time>
      </trkpt>
      <trkpt lat="46.01681" lon="4.76119">
        <ele>192.5</ele>
        <time>2015-12-12T10:44:35.766Z</time>
      </trkpt>
      <trkpt lat="46.01675" lon="4.76118">
        <ele>192.899993896</ele>
        <time>2015-12-12T10:44:36.779Z</time>
      </trkpt>
      <trkpt lat="46.01671" lon="4.76117">
        <ele>193</ele>
        <time>2015-12-12T10:44:37.765Z</time>
      </trkpt>
      <trkpt lat="46.01666" lon="4.76117">
        <ele>193.399993896</ele>
        <time>2015-12-12T10:44:38.78Z</time>
      </trkpt>
      <trkpt lat="46.01661" lon="4.76116">
        <ele>193.800003052</ele>
        <time>2015-12-12T10:44:39.762Z</time>
      </trkpt>
      <trkpt lat="46.01656" lon="4.76115">
        <ele>194.300003052</ele>
        <time>2015-12-12T10:44:40.779Z</time>
      </trkpt>
      <trkpt lat="46.01651" lon="4.76114">
        <ele>194.800003052</ele>
        <time>2015-12-12T10:44:41.767Z</time>
      </trkpt>
      <trkpt lat="46.01647" lon="4.76114">
        <ele>195.600006104</ele>
        <time>2015-12-12T10:44:42.781Z</time>
      </trkpt>
      <trkpt lat="46.01642" lon="4.76113">
        <ele>196</ele>
        <time>2015-12-12T10:44:43.765Z</time>
      </trkpt>
      <trkpt lat="46.01637" lon="4.76113">
        <ele>196.399993896</ele>
        <time>2015-12-12T10:44:44.78Z</time>
      </trkpt>
      <trkpt lat="46.01632" lon="4.76112">
        <ele>196.300003052</ele>
        <time>2015-12-12T10:44:45.764Z</time>
      </trkpt>
      <trkpt lat="46.01627" lon="4.76111">
        <ele>196.600006104</ele>
        <time>2015-12-12T10:44:46.92Z</time>
      </trkpt>
      <trkpt lat="46.01623" lon="4.76111">
        <ele>196.699996948</ele>
        <time>2015-12-12T10:44:47.766Z</time>
      </trkpt>
      <trkpt lat="46.01619" lon="4.7611">
        <ele>196.899993896</ele>
        <time>2015-12-12T10:44:48.779Z</time>
      </trkpt>
      <trkpt lat="46.01614" lon="4.76109">
        <ele>196.800003052</ele>
        <time>2015-12-12T10:44:49.763Z</time>
      </trkpt>
      <trkpt lat="46.01609" lon="4.76109">
        <ele>196.899993896</ele>
        <time>2015-12-12T10:44:50.782Z</time>
      </trkpt>
      <trkpt lat="46.01604" lon="4.76108">
        <ele>197</ele>
        <time>2015-12-12T10:44:51.762Z</time>
      </trkpt>
      <trkpt lat="46.01599" lon="4.76107">
        <ele>197.100006104</ele>
        <time>2015-12-12T10:44:52.779Z</time>
      </trkpt>
      <trkpt lat="46.01594" lon="4.76106">
        <ele>197.100006104</ele>
        <time>2015-12-12T10:44:53.766Z</time>
      </trkpt>
      <trkpt lat="46.01589" lon="4.76105">
        <ele>196.899993896</ele>
        <time>2015-12-12T10:44:54.794Z</time>
      </trkpt>
      <trkpt lat="46.01585" lon="4.76105">
        <ele>197.399993896</ele>
        <time>2015-12-12T10:44:55.764Z</time>
      </trkpt>
      <trkpt lat="46.0158" lon="4.76104">
        <ele>197.600006104</ele>
        <time>2015-12-12T10:44:56.779Z</time>
      </trkpt>
      <trkpt lat="46.01575" lon="4.76103">
        <ele>197.800003052</ele>
        <time>2015-12-12T10:44:57.762Z</time>
      </trkpt>
      <trkpt lat="46.0157" lon="4.76102">
        <ele>198.199996948</ele>
        <time>2015-12-12T10:44:58.779Z</time>
      </trkpt>
      <trkpt lat="46.01565" lon="4.76101">
        <ele>198.300003052</ele>
        <time>2015-12-12T10:44:59.766Z</time>
      </trkpt>
      <trkpt lat="46.01561" lon="4.76099">
        <ele>198.5</ele>
        <time>2015-12-12T10:45:00.779Z</time>
      </trkpt>
      <trkpt lat="46.01555" lon="4.76097">
        <ele>198.399993896</ele>
        <time>2015-12-12T10:45:01.764Z</time>
      </trkpt>
      <trkpt lat="46.0155" lon="4.76094">
        <ele>198.399993896</ele>
        <time>2015-12-12T10:45:02.778Z</time>
      </trkpt>
      <trkpt lat="46.01545" lon="4.76092">
        <ele>198.300003052</ele>
        <time>2015-12-12T10:45:03.764Z</time>
      </trkpt>
      <trkpt lat="46.0154" lon="4.7609">
        <ele>198.100006104</ele>
        <time>2015-12-12T10:45:04.779Z</time>
      </trkpt>
      <trkpt lat="46.01535" lon="4.76089">
        <ele>198</ele>
        <time>2015-12-12T10:45:05.766Z</time>
      </trkpt>
      <trkpt lat="46.0153" lon="4.76087">
        <ele>197.899993896</ele>
        <time>2015-12-12T10:45:06.779Z</time>
      </trkpt>
      <trkpt lat="46.01525" lon="4.76085">
        <ele>198.100006104</ele>
        <time>2015-12-12T10:45:07.763Z</time>
      </trkpt>
      <trkpt lat="46.0152" lon="4.76085">
        <ele>198</ele>
        <time>2015-12-12T10:45:08.78Z</time>
      </trkpt>
      <trkpt lat="46.01515" lon="4.76084">
        <ele>197.800003052</ele>
        <time>2015-12-12T10:45:09.763Z</time>
      </trkpt>
      <trkpt lat="46.0151" lon="4.76083">
        <ele>197.899993896</ele>
        <time>2015-12-12T10:45:10.793Z</time>
      </trkpt>
      <trkpt lat="46.01505" lon="4.76081">
        <ele>197.899993896</ele>
        <time>2015-12-12T10:45:11.766Z</time>
      </trkpt>
      <trkpt lat="46.015" lon="4.7608">
        <ele>197.800003052</ele>
        <time>2015-12-12T10:45:12.778Z</time>
      </trkpt>
      <trkpt lat="46.01495" lon="4.76078">
        <ele>197.800003052</ele>
        <time>2015-12-12T10:45:13.764Z</time>
      </trkpt>
      <trkpt lat="46.0149" lon="4.76076">
        <ele>197.899993896</ele>
        <time>2015-12-12T10:45:14.779Z</time>
      </trkpt>
      <trkpt lat="46.01485" lon="4.76074">
        <ele>198</ele>
        <time>2015-12-12T10:45:15.763Z</time>
      </trkpt>
      <trkpt lat="46.0148" lon="4.76073">
        <ele>198.199996948</ele>
        <time>2015-12-12T10:45:16.783Z</time>
      </trkpt>
      <trkpt lat="46.01475" lon="4.76072">
        <ele>198.399993896</ele>
        <time>2015-12-12T10:45:17.765Z</time>
      </trkpt>
      <trkpt lat="46.01469" lon="4.7607">
        <ele>198.399993896</ele>
        <time>2015-12-12T10:45:18.782Z</time>
      </trkpt>
      <trkpt lat="46.01464" lon="4.76069">
        <ele>198.199996948</ele>
        <time>2015-12-12T10:45:19.763Z</time>
      </trkpt>
      <trkpt lat="46.01459" lon="4.76068">
        <ele>198.199996948</ele>
        <time>2015-12-12T10:45:20.779Z</time>
      </trkpt>
      <trkpt lat="46.01453" lon="4.76067">
        <ele>198.100006104</ele>
        <time>2015-12-12T10:45:21.762Z</time>
      </trkpt>
      <trkpt lat="46.01448" lon="4.76065">
        <ele>198.100006104</ele>
        <time>2015-12-12T10:45:22.778Z</time>
      </trkpt>
      <trkpt lat="46.01442" lon="4.76063">
        <ele>197.899993896</ele>
        <time>2015-12-12T10:45:23.765Z</time>
      </trkpt>
      <trkpt lat="46.01437" lon="4.76061">
        <ele>197.600006104</ele>
        <time>2015-12-12T10:45:24.778Z</time>
      </trkpt>
      <trkpt lat="46.01432" lon="4.76057">
        <ele>197.699996948</ele>
        <time>2015-12-12T10:45:25.791Z</time>
      </trkpt>
      <trkpt lat="46.01427" lon="4.76054">
        <ele>197.399993896</ele>
        <time>2015-12-12T10:45:26.793Z</time>
      </trkpt>
      <trkpt lat="46.01422" lon="4.7605">
        <ele>197.100006104</ele>
        <time>2015-12-12T10:45:27.762Z</time>
      </trkpt>
      <trkpt lat="46.01416" lon="4.76046">
        <ele>197</ele>
        <time>2015-12-12T10:45:28.78Z</time>
      </trkpt>
      <trkpt lat="46.01411" lon="4.76042">
        <ele>196.399993896</ele>
        <time>2015-12-12T10:45:29.766Z</time>
      </trkpt>
      <trkpt lat="46.01406" lon="4.76039">
        <ele>196.199996948</ele>
        <time>2015-12-12T10:45:30.778Z</time>
      </trkpt>
      <trkpt lat="46.01401" lon="4.76037">
        <ele>196</ele>
        <time>2015-12-12T10:45:31.763Z</time>
      </trkpt>
      <trkpt lat="46.01397" lon="4.76035">
        <ele>195.199996948</ele>
        <time>2015-12-12T10:45:32.779Z</time>
      </trkpt>
      <trkpt lat="46.01392" lon="4.76033">
        <ele>195.300003052</ele>
        <time>2015-12-12T10:45:33.762Z</time>
      </trkpt>
      <trkpt lat="46.01387" lon="4.76033">
        <ele>195.199996948</ele>
        <time>2015-12-12T10:45:34.918Z</time>
      </trkpt>
      <trkpt lat="46.01382" lon="4.76034">
        <ele>195.399993896</ele>
        <time>2015-12-12T10:45:35.765Z</time>
      </trkpt>
      <trkpt lat="46.01377" lon="4.76035">
        <ele>195.300003052</ele>
        <time>2015-12-12T10:45:36.779Z</time>
      </trkpt>
      <trkpt lat="46.01371" lon="4.76036">
        <ele>195.399993896</ele>
        <time>2015-12-12T10:45:37.763Z</time>
      </trkpt>
      <trkpt lat="46.01366" lon="4.76038">
        <ele>195.600006104</ele>
        <time>2015-12-12T10:45:38.78Z</time>
      </trkpt>
      <trkpt lat="46.01361" lon="4.76039">
        <ele>195.699996948</ele>
        <time>2015-12-12T10:45:39.765Z</time>
      </trkpt>
      <trkpt lat="46.01356" lon="4.76041">
        <ele>196</ele>
        <time>2015-12-12T10:45:40.779Z</time>
      </trkpt>
      <trkpt lat="46.01351" lon="4.76043">
        <ele>196.100006104</ele>
        <time>2015-12-12T10:45:41.765Z</time>
      </trkpt>
      <trkpt lat="46.01345" lon="4.76044">
        <ele>196.399993896</ele>
        <time>2015-12-12T10:45:42.779Z</time>
      </trkpt>
      <trkpt lat="46.0134" lon="4.76045">
        <ele>196.800003052</ele>
        <time>2015-12-12T10:45:43.763Z</time>
      </trkpt>
      <trkpt lat="46.01335" lon="4.76047">
        <ele>196.899993896</ele>
        <time>2015-12-12T10:45:44.779Z</time>
      </trkpt>
      <trkpt lat="46.0133" lon="4.76048">
        <ele>197</ele>
        <time>2015-12-12T10:45:45.762Z</time>
      </trkpt>
      <trkpt lat="46.01325" lon="4.76049">
        <ele>197</ele>
        <time>2015-12-12T10:45:46.778Z</time>
      </trkpt>
      <trkpt lat="46.0132" lon="4.7605">
        <ele>197</ele>
        <time>2015-12-12T10:45:47.778Z</time>
      </trkpt>
      <trkpt lat="46.01315" lon="4.76052">
        <ele>197</ele>
        <time>2015-12-12T10:45:48.782Z</time>
      </trkpt>
      <trkpt lat="46.01309" lon="4.76054">
        <ele>196.699996948</ele>
        <time>2015-12-12T10:45:49.763Z</time>
      </trkpt>
      <trkpt lat="46.01304" lon="4.76056">
        <ele>196.399993896</ele>
        <time>2015-12-12T10:45:50.78Z</time>
      </trkpt>
      <trkpt lat="46.01299" lon="4.76057">
        <ele>196.300003052</ele>
        <time>2015-12-12T10:45:51.762Z</time>
      </trkpt>
      <trkpt lat="46.01294" lon="4.76059">
        <ele>196.199996948</ele>
        <time>2015-12-12T10:45:52.778Z</time>
      </trkpt>
      <trkpt lat="46.01289" lon="4.7606">
        <ele>196.300003052</ele>
        <time>2015-12-12T10:45:53.765Z</time>
      </trkpt>
      <trkpt lat="46.01284" lon="4.76061">
        <ele>196.199996948</ele>
        <time>2015-12-12T10:45:54.78Z</time>
      </trkpt>
      <trkpt lat="46.01279" lon="4.76062">
        <ele>196</ele>
        <time>2015-12-12T10:45:55.764Z</time>
      </trkpt>
      <trkpt lat="46.01274" lon="4.76063">
        <ele>195.899993896</ele>
        <time>2015-12-12T10:45:56.779Z</time>
      </trkpt>
      <trkpt lat="46.01269" lon="4.76065">
        <ele>195.300003052</ele>
        <time>2015-12-12T10:45:57.762Z</time>
      </trkpt>
      <trkpt lat="46.01264" lon="4.76065">
        <ele>195.199996948</ele>
        <time>2015-12-12T10:45:58.791Z</time>
      </trkpt>
      <trkpt lat="46.01259" lon="4.76066">
        <ele>195.199996948</ele>
        <time>2015-12-12T10:45:59.765Z</time>
      </trkpt>
      <trkpt lat="46.01254" lon="4.76067">
        <ele>195.5</ele>
        <time>2015-12-12T10:46:00.778Z</time>
      </trkpt>
      <trkpt lat="46.01249" lon="4.76067">
        <ele>195.899993896</ele>
        <time>2015-12-12T10:46:01.763Z</time>
      </trkpt>
      <trkpt lat="46.01244" lon="4.76067">
        <ele>196.5</ele>
        <time>2015-12-12T10:46:02.778Z</time>
      </trkpt>
      <trkpt lat="46.01239" lon="4.76067">
        <ele>196.600006104</ele>
        <time>2015-12-12T10:46:03.762Z</time>
      </trkpt>
      <trkpt lat="46.01234" lon="4.76067">
        <ele>196.600006104</ele>
        <time>2015-12-12T10:46:04.778Z</time>
      </trkpt>
      <trkpt lat="46.01229" lon="4.76066">
        <ele>196.699996948</ele>
        <time>2015-12-12T10:46:05.768Z</time>
      </trkpt>
      <trkpt lat="46.01223" lon="4.76064">
        <ele>196.600006104</ele>
        <time>2015-12-12T10:46:06.778Z</time>
      </trkpt>
      <trkpt lat="46.01219" lon="4.76064">
        <ele>196.399993896</ele>
        <time>2015-12-12T10:46:07.763Z</time>
      </trkpt>
      <trkpt lat="46.0121" lon="4.76062">
        <ele>196.600006104</ele>
        <time>2015-12-12T10:46:09.778Z</time>
      </trkpt>
      <trkpt lat="46.01205" lon="4.7606">
        <ele>196.699996948</ele>
        <time>2015-12-12T10:46:10.762Z</time>
      </trkpt>
      <trkpt lat="46.01196" lon="4.76058">
        <ele>196.800003052</ele>
        <time>2015-12-12T10:46:12.779Z</time>
      </trkpt>
      <trkpt lat="46.01192" lon="4.76057">
        <ele>197</ele>
        <time>2015-12-12T10:46:13.763Z</time>
      </trkpt>
      <trkpt lat="46.01184" lon="4.76054">
        <ele>197.699996948</ele>
        <time>2015-12-12T10:46:15.778Z</time>
      </trkpt>
      <trkpt lat="46.0118" lon="4.76053">
        <ele>198</ele>
        <time>2015-12-12T10:46:16.762Z</time>
      </trkpt>
      <trkpt lat="46.01171" lon="4.76051">
        <ele>198.800003052</ele>
        <time>2015-12-12T10:46:18.784Z</time>
      </trkpt>
      <trkpt lat="46.01166" lon="4.7605">
        <ele>199.199996948</ele>
        <time>2015-12-12T10:46:19.763Z</time>
      </trkpt>
      <trkpt lat="46.01159" lon="4.76049">
        <ele>199.600006104</ele>
        <time>2015-12-12T10:46:21.779Z</time>
      </trkpt>
      <trkpt lat="46.01154" lon="4.76049">
        <ele>199.699996948</ele>
        <time>2015-12-12T10:46:22.762Z</time>
      </trkpt>
      <trkpt lat="46.0115" lon="4.76049">
        <ele>199.800003052</ele>
        <time>2015-12-12T10:46:23.925Z</time>
      </trkpt>
      <trkpt lat="46.01145" lon="4.76049">
        <ele>200</ele>
        <time>2015-12-12T10:46:24.776Z</time>
      </trkpt>
      <trkpt lat="46.01136" lon="4.7605">
        <ele>200.100006104</ele>
        <time>2015-12-12T10:46:26.778Z</time>
      </trkpt>
      <trkpt lat="46.01132" lon="4.7605">
        <ele>200.399993896</ele>
        <time>2015-12-12T10:46:27.762Z</time>
      </trkpt>
      <trkpt lat="46.01126" lon="4.76052">
        <ele>200.600006104</ele>
        <time>2015-12-12T10:46:28.801Z</time>
      </trkpt>
      <trkpt lat="46.01121" lon="4.76052">
        <ele>200.800003052</ele>
        <time>2015-12-12T10:46:29.765Z</time>
      </trkpt>
      <trkpt lat="46.01116" lon="4.76053">
        <ele>200.699996948</ele>
        <time>2015-12-12T10:46:30.778Z</time>
      </trkpt>
      <trkpt lat="46.01112" lon="4.76054">
        <ele>200.899993896</ele>
        <time>2015-12-12T10:46:31.763Z</time>
      </trkpt>
      <trkpt lat="46.01107" lon="4.76054">
        <ele>201.300003052</ele>
        <time>2015-12-12T10:46:32.778Z</time>
      </trkpt>
      <trkpt lat="46.01103" lon="4.76054">
        <ele>201.800003052</ele>
        <time>2015-12-12T10:46:33.762Z</time>
      </trkpt>
      <trkpt lat="46.01094" lon="4.76055">
        <ele>202.5</ele>
        <time>2015-12-12T10:46:35.782Z</time>
      </trkpt>
      <trkpt lat="46.01089" lon="4.76056">
        <ele>202.899993896</ele>
        <time>2015-12-12T10:46:36.762Z</time>
      </trkpt>
      <trkpt lat="46.01081" lon="4.76058">
        <ele>203.5</ele>
        <time>2015-12-12T10:46:38.806Z</time>
      </trkpt>
      <trkpt lat="46.01076" lon="4.76058">
        <ele>203.699996948</ele>
        <time>2015-12-12T10:46:39.791Z</time>
      </trkpt>
      <trkpt lat="46.01068" lon="4.76059">
        <ele>204.800003052</ele>
        <time>2015-12-12T10:46:41.784Z</time>
      </trkpt>
      <trkpt lat="46.01064" lon="4.76059">
        <ele>204.899993896</ele>
        <time>2015-12-12T10:46:42.762Z</time>
      </trkpt>
      <trkpt lat="46.01056" lon="4.7606">
        <ele>205.399993896</ele>
        <time>2015-12-12T10:46:44.78Z</time>
      </trkpt>
      <trkpt lat="46.01051" lon="4.7606">
        <ele>205.699996948</ele>
        <time>2015-12-12T10:46:45.762Z</time>
      </trkpt>
      <trkpt lat="46.01043" lon="4.76061">
        <ele>206.199996948</ele>
        <time>2015-12-12T10:46:47.782Z</time>
      </trkpt>
      <trkpt lat="46.01039" lon="4.76061">
        <ele>206.5</ele>
        <time>2015-12-12T10:46:48.763Z</time>
      </trkpt>
      <trkpt lat="46.01031" lon="4.76062">
        <ele>206.899993896</ele>
        <time>2015-12-12T10:46:50.781Z</time>
      </trkpt>
      <trkpt lat="46.01026" lon="4.76062">
        <ele>207.399993896</ele>
        <time>2015-12-12T10:46:51.763Z</time>
      </trkpt>
      <trkpt lat="46.01018" lon="4.76062">
        <ele>207.5</ele>
        <time>2015-12-12T10:46:53.782Z</time>
      </trkpt>
      <trkpt lat="46.01014" lon="4.76062">
        <ele>207.600006104</ele>
        <time>2015-12-12T10:46:54.762Z</time>
      </trkpt>
      <trkpt lat="46.01007" lon="4.76063">
        <ele>208</ele>
        <time>2015-12-12T10:46:56.793Z</time>
      </trkpt>
      <trkpt lat="46.01003" lon="4.76063">
        <ele>208</ele>
        <time>2015-12-12T10:46:57.762Z</time>
      </trkpt>
      <trkpt lat="46.00994" lon="4.76065">
        <ele>208.800003052</ele>
        <time>2015-12-12T10:46:59.782Z</time>
      </trkpt>
      <trkpt lat="46.0099" lon="4.76065">
        <ele>209</ele>
        <time>2015-12-12T10:47:00.762Z</time>
      </trkpt>
      <trkpt lat="46.00981" lon="4.76066">
        <ele>210.199996948</ele>
        <time>2015-12-12T10:47:02.778Z</time>
      </trkpt>
      <trkpt lat="46.00978" lon="4.76066">
        <ele>210.699996948</ele>
        <time>2015-12-12T10:47:03.762Z</time>
      </trkpt>
      <trkpt lat="46.0097" lon="4.76067">
        <ele>210.800003052</ele>
        <time>2015-12-12T10:47:05.783Z</time>
      </trkpt>
      <trkpt lat="46.00966" lon="4.76067">
        <ele>210.600006104</ele>
        <time>2015-12-12T10:47:06.762Z</time>
      </trkpt>
      <trkpt lat="46.00958" lon="4.76068">
        <ele>210.100006104</ele>
        <time>2015-12-12T10:47:08.791Z</time>
      </trkpt>
      <trkpt lat="46.00954" lon="4.7607">
        <ele>210</ele>
        <time>2015-12-12T10:47:09.762Z</time>
      </trkpt>
      <trkpt lat="46.00945" lon="4.76073">
        <ele>210.199996948</ele>
        <time>2015-12-12T10:47:11.781Z</time>
      </trkpt>
      <trkpt lat="46.00941" lon="4.76074">
        <ele>210.199996948</ele>
        <time>2015-12-12T10:47:12.762Z</time>
      </trkpt>
      <trkpt lat="46.00933" lon="4.76076">
        <ele>209.800003052</ele>
        <time>2015-12-12T10:47:14.778Z</time>
      </trkpt>
      <trkpt lat="46.00929" lon="4.76077">
        <ele>209.699996948</ele>
        <time>2015-12-12T10:47:15.762Z</time>
      </trkpt>
      <trkpt lat="46.00921" lon="4.76079">
        <ele>209.699996948</ele>
        <time>2015-12-12T10:47:17.795Z</time>
      </trkpt>
      <trkpt lat="46.00917" lon="4.7608">
        <ele>209.699996948</ele>
        <time>2015-12-12T10:47:18.763Z</time>
      </trkpt>
      <trkpt lat="46.00909" lon="4.76082">
        <ele>209.800003052</ele>
        <time>2015-12-12T10:47:20.778Z</time>
      </trkpt>
      <trkpt lat="46.00905" lon="4.76082">
        <ele>209.800003052</ele>
        <time>2015-12-12T10:47:21.762Z</time>
      </trkpt>
      <trkpt lat="46.00898" lon="4.76084">
        <ele>209.800003052</ele>
        <time>2015-12-12T10:47:23.782Z</time>
      </trkpt>
      <trkpt lat="46.00894" lon="4.76085">
        <ele>209.899993896</ele>
        <time>2015-12-12T10:47:24.762Z</time>
      </trkpt>
      <trkpt lat="46.00886" lon="4.76087">
        <ele>209.600006104</ele>
        <time>2015-12-12T10:47:26.811Z</time>
      </trkpt>
      <trkpt lat="46.00883" lon="4.76088">
        <ele>209.5</ele>
        <time>2015-12-12T10:47:27.762Z</time>
      </trkpt>
      <trkpt lat="46.00875" lon="4.7609">
        <ele>209.399993896</ele>
        <time>2015-12-12T10:47:29.782Z</time>
      </trkpt>
      <trkpt lat="46.00871" lon="4.76091">
        <ele>209.5</ele>
        <time>2015-12-12T10:47:30.762Z</time>
      </trkpt>
      <trkpt lat="46.00864" lon="4.76094">
        <ele>209.5</ele>
        <time>2015-12-12T10:47:32.778Z</time>
      </trkpt>
      <trkpt lat="46.00861" lon="4.76095">
        <ele>209.600006104</ele>
        <time>2015-12-12T10:47:33.762Z</time>
      </trkpt>
      <trkpt lat="46.00854" lon="4.76097">
        <ele>210</ele>
        <time>2015-12-12T10:47:35.781Z</time>
      </trkpt>
      <trkpt lat="46.0085" lon="4.76097">
        <ele>210.199996948</ele>
        <time>2015-12-12T10:47:36.762Z</time>
      </trkpt>
      <trkpt lat="46.00843" lon="4.76098">
        <ele>210.5</ele>
        <time>2015-12-12T10:47:38.96Z</time>
      </trkpt>
      <trkpt lat="46.0084" lon="4.76099">
        <ele>210.600006104</ele>
        <time>2015-12-12T10:47:39.762Z</time>
      </trkpt>
      <trkpt lat="46.00834" lon="4.76101">
        <ele>210.800003052</ele>
        <time>2015-12-12T10:47:41.781Z</time>
      </trkpt>
      <trkpt lat="46.00831" lon="4.76101">
        <ele>210.899993896</ele>
        <time>2015-12-12T10:47:42.762Z</time>
      </trkpt>
      <trkpt lat="46.00822" lon="4.76103">
        <ele>211.199996948</ele>
        <time>2015-12-12T10:47:45.778Z</time>
      </trkpt>
      <trkpt lat="46.00819" lon="4.76103">
        <ele>211.399993896</ele>
        <time>2015-12-12T10:47:46.762Z</time>
      </trkpt>
      <trkpt lat="46.00812" lon="4.76102">
        <ele>211.800003052</ele>
        <time>2015-12-12T10:47:48.798Z</time>
      </trkpt>
      <trkpt lat="46.00809" lon="4.76103">
        <ele>211.800003052</ele>
        <time>2015-12-12T10:47:49.785Z</time>
      </trkpt>
      <trkpt lat="46.00802" lon="4.76104">
        <ele>212.100006104</ele>
        <time>2015-12-12T10:47:51.831Z</time>
      </trkpt>
      <trkpt lat="46.00799" lon="4.76105">
        <ele>212.199996948</ele>
        <time>2015-12-12T10:47:52.762Z</time>
      </trkpt>
      <trkpt lat="46.00793" lon="4.76106">
        <ele>212.300003052</ele>
        <time>2015-12-12T10:47:54.783Z</time>
      </trkpt>
      <trkpt lat="46.0079" lon="4.76105">
        <ele>212.5</ele>
        <time>2015-12-12T10:47:55.763Z</time>
      </trkpt>
      <trkpt lat="46.00784" lon="4.76105">
        <ele>212.899993896</ele>
        <time>2015-12-12T10:47:57.782Z</time>
      </trkpt>
      <trkpt lat="46.00781" lon="4.76105">
        <ele>213.100006104</ele>
        <time>2015-12-12T10:47:58.763Z</time>
      </trkpt>
      <trkpt lat="46.00775" lon="4.76106">
        <ele>213.399993896</ele>
        <time>2015-12-12T10:48:00.779Z</time>
      </trkpt>
      <trkpt lat="46.00772" lon="4.76108">
        <ele>213.399993896</ele>
        <time>2015-12-12T10:48:01.763Z</time>
      </trkpt>
      <trkpt lat="46.00764" lon="4.76109">
        <ele>213.800003052</ele>
        <time>2015-12-12T10:48:04.777Z</time>
      </trkpt>
      <trkpt lat="46.00761" lon="4.76108">
        <ele>213.800003052</ele>
        <time>2015-12-12T10:48:05.781Z</time>
      </trkpt>
      <trkpt lat="46.00752" lon="4.76109">
        <ele>213.699996948</ele>
        <time>2015-12-12T10:48:08.797Z</time>
      </trkpt>
      <trkpt lat="46.00749" lon="4.76109">
        <ele>213.800003052</ele>
        <time>2015-12-12T10:48:09.761Z</time>
      </trkpt>
      <trkpt lat="46.00742" lon="4.76109">
        <ele>214</ele>
        <time>2015-12-12T10:48:12.778Z</time>
      </trkpt>
      <trkpt lat="46.00739" lon="4.7611">
        <ele>214.199996948</ele>
        <time>2015-12-12T10:48:13.762Z</time>
      </trkpt>
      <trkpt lat="46.00731" lon="4.76112">
        <ele>215.399993896</ele>
        <time>2015-12-12T10:48:16.902Z</time>
      </trkpt>
      <trkpt lat="46.00729" lon="4.76112">
        <ele>215.899993896</ele>
        <time>2015-12-12T10:48:17.764Z</time>
      </trkpt>
      <trkpt lat="46.00721" lon="4.76112">
        <ele>216.600006104</ele>
        <time>2015-12-12T10:48:20.777Z</time>
      </trkpt>
      <trkpt lat="46.00718" lon="4.76112">
        <ele>216.800003052</ele>
        <time>2015-12-12T10:48:21.761Z</time>
      </trkpt>
      <trkpt lat="46.0071" lon="4.76113">
        <ele>218.300003052</ele>
        <time>2015-12-12T10:48:25.779Z</time>
      </trkpt>
      <trkpt lat="46.00707" lon="4.76113">
        <ele>218.399993896</ele>
        <time>2015-12-12T10:48:26.761Z</time>
      </trkpt>
      <trkpt lat="46.00699" lon="4.76116">
        <ele>219</ele>
        <time>2015-12-12T10:48:30.777Z</time>
      </trkpt>
      <trkpt lat="46.00696" lon="4.76116">
        <ele>219.199996948</ele>
        <time>2015-12-12T10:48:31.775Z</time>
      </trkpt>
      <trkpt lat="46.00688" lon="4.76116">
        <ele>219.399993896</ele>
        <time>2015-12-12T10:48:34.778Z</time>
      </trkpt>
      <trkpt lat="46.00686" lon="4.76117">
        <ele>219.600006104</ele>
        <time>2015-12-12T10:48:35.764Z</time>
      </trkpt>
      <trkpt lat="46.00677" lon="4.76118">
        <ele>220.5</ele>
        <time>2015-12-12T10:48:39.78Z</time>
      </trkpt>
      <trkpt lat="46.00675" lon="4.76119">
        <ele>221</ele>
        <time>2015-12-12T10:48:40.762Z</time>
      </trkpt>
      <trkpt lat="46.00667" lon="4.76122">
        <ele>222.100006104</ele>
        <time>2015-12-12T10:48:43.808Z</time>
      </trkpt>
      <trkpt lat="46.00664" lon="4.76122">
        <ele>222.600006104</ele>
        <time>2015-12-12T10:48:44.767Z</time>
      </trkpt>
      <trkpt lat="46.00657" lon="4.76122">
        <ele>223.800003052</ele>
        <time>2015-12-12T10:48:47.786Z</time>
      </trkpt>
      <trkpt lat="46.00655" lon="4.76122">
        <ele>224.199996948</ele>
        <time>2015-12-12T10:48:48.774Z</time>
      </trkpt>
      <trkpt lat="46.00647" lon="4.7612">
        <ele>226.399993896</ele>
        <time>2015-12-12T10:48:52.785Z</time>
      </trkpt>
      <trkpt lat="46.00645" lon="4.76119">
        <ele>226.800003052</ele>
        <time>2015-12-12T10:48:53.766Z</time>
      </trkpt>
      <trkpt lat="46.00638" lon="4.76115">
        <ele>229</ele>
        <time>2015-12-12T10:48:57.798Z</time>
      </trkpt>
      <trkpt lat="46.00635" lon="4.76113">
        <ele>229.199996948</ele>
        <time>2015-12-12T10:48:58.773Z</time>
      </trkpt>
      <trkpt lat="46.00626" lon="4.76112">
        <ele>230.199996948</ele>
        <time>2015-12-12T10:49:01.785Z</time>
      </trkpt>
      <trkpt lat="46.00624" lon="4.76115">
        <ele>230.399993896</ele>
        <time>2015-12-12T10:49:02.762Z</time>
      </trkpt>
      <trkpt lat="46.00622" lon="4.76124">
        <ele>231.199996948</ele>
        <time>2015-12-12T10:49:05.784Z</time>
      </trkpt>
      <trkpt lat="46.00621" lon="4.76128">
        <ele>231.300003052</ele>
        <time>2015-12-12T10:49:06.762Z</time>
      </trkpt>
      <trkpt lat="46.00621" lon="4.76139">
        <ele>231.699996948</ele>
        <time>2015-12-12T10:49:09.787Z</time>
      </trkpt>
      <trkpt lat="46.00621" lon="4.76143">
        <ele>231.800003052</ele>
        <time>2015-12-12T10:49:10.762Z</time>
      </trkpt>
      <trkpt lat="46.00621" lon="4.76154">
        <ele>233.100006104</ele>
        <time>2015-12-12T10:49:13.783Z</time>
      </trkpt>
      <trkpt lat="46.0062" lon="4.76159">
        <ele>233.5</ele>
        <time>2015-12-12T10:49:14.761Z</time>
      </trkpt>
      <trkpt lat="46.0062" lon="4.76168">
        <ele>233.699996948</ele>
        <time>2015-12-12T10:49:16.779Z</time>
      </trkpt>
      <trkpt lat="46.00621" lon="4.76172">
        <ele>235</ele>
        <time>2015-12-12T10:49:17.764Z</time>
      </trkpt>
      <trkpt lat="46.0062" lon="4.76183">
        <ele>236.699996948</ele>
        <time>2015-12-12T10:49:20.78Z</time>
      </trkpt>
      <trkpt lat="46.00619" lon="4.76187">
        <ele>236.899993896</ele>
        <time>2015-12-12T10:49:21.763Z</time>
      </trkpt>
      <trkpt lat="46.00613" lon="4.76194">
        <ele>237.399993896</ele>
        <time>2015-12-12T10:49:24.781Z</time>
      </trkpt>
      <trkpt lat="46.0061" lon="4.76193">
        <ele>237.399993896</ele>
        <time>2015-12-12T10:49:25.765Z</time>
      </trkpt>
      <trkpt lat="46.00604" lon="4.76192">
        <ele>236.399993896</ele>
        <time>2015-12-12T10:49:27.779Z</time>
      </trkpt>
      <trkpt lat="46.006" lon="4.76191">
        <ele>236.100006104</ele>
        <time>2015-12-12T10:49:28.762Z</time>
      </trkpt>
      <trkpt lat="46.00596" lon="4.7619">
        <ele>235.800003052</ele>
        <time>2015-12-12T10:49:29.797Z</time>
      </trkpt>
      <trkpt lat="46.00591" lon="4.76188">
        <ele>235.399993896</ele>
        <time>2015-12-12T10:49:30.762Z</time>
      </trkpt>
      <trkpt lat="46.00586" lon="4.76186">
        <ele>235.300003052</ele>
        <time>2015-12-12T10:49:31.782Z</time>
      </trkpt>
      <trkpt lat="46.00581" lon="4.76184">
        <ele>235</ele>
        <time>2015-12-12T10:49:32.761Z</time>
      </trkpt>
      <trkpt lat="46.00576" lon="4.76182">
        <ele>234.199996948</ele>
        <time>2015-12-12T10:49:33.779Z</time>
      </trkpt>
      <trkpt lat="46.0057" lon="4.7618">
        <ele>233.600006104</ele>
        <time>2015-12-12T10:49:34.761Z</time>
      </trkpt>
      <trkpt lat="46.00564" lon="4.76178">
        <ele>233</ele>
        <time>2015-12-12T10:49:35.784Z</time>
      </trkpt>
      <trkpt lat="46.00558" lon="4.76177">
        <ele>232.600006104</ele>
        <time>2015-12-12T10:49:36.761Z</time>
      </trkpt>
      <trkpt lat="46.00551" lon="4.76175">
        <ele>232.100006104</ele>
        <time>2015-12-12T10:49:37.783Z</time>
      </trkpt>
      <trkpt lat="46.00545" lon="4.76172">
        <ele>231.899993896</ele>
        <time>2015-12-12T10:49:38.763Z</time>
      </trkpt>
      <trkpt lat="46.00538" lon="4.76168">
        <ele>231.399993896</ele>
        <time>2015-12-12T10:49:39.778Z</time>
      </trkpt>
      <trkpt lat="46.00531" lon="4.76163">
        <ele>230.699996948</ele>
        <time>2015-12-12T10:49:40.762Z</time>
      </trkpt>
      <trkpt lat="46.00524" lon="4.76158">
        <ele>230.199996948</ele>
        <time>2015-12-12T10:49:41.782Z</time>
      </trkpt>
      <trkpt lat="46.00517" lon="4.76152">
        <ele>229.600006104</ele>
        <time>2015-12-12T10:49:42.761Z</time>
      </trkpt>
      <trkpt lat="46.00511" lon="4.76145">
        <ele>228.5</ele>
        <time>2015-12-12T10:49:43.781Z</time>
      </trkpt>
      <trkpt lat="46.00504" lon="4.76138">
        <ele>227.100006104</ele>
        <time>2015-12-12T10:49:44.761Z</time>
      </trkpt>
      <trkpt lat="46.00498" lon="4.76131">
        <ele>226.199996948</ele>
        <time>2015-12-12T10:49:45.796Z</time>
      </trkpt>
      <trkpt lat="46.00491" lon="4.76124">
        <ele>225.300003052</ele>
        <time>2015-12-12T10:49:46.764Z</time>
      </trkpt>
      <trkpt lat="46.00484" lon="4.76116">
        <ele>224.100006104</ele>
        <time>2015-12-12T10:49:47.783Z</time>
      </trkpt>
      <trkpt lat="46.00477" lon="4.76109">
        <ele>223.300003052</ele>
        <time>2015-12-12T10:49:48.765Z</time>
      </trkpt>
      <trkpt lat="46.0047" lon="4.76102">
        <ele>222.100006104</ele>
        <time>2015-12-12T10:49:49.782Z</time>
      </trkpt>
      <trkpt lat="46.00462" lon="4.76096">
        <ele>221.199996948</ele>
        <time>2015-12-12T10:49:50.766Z</time>
      </trkpt>
      <trkpt lat="46.00455" lon="4.7609">
        <ele>220.199996948</ele>
        <time>2015-12-12T10:49:51.782Z</time>
      </trkpt>
      <trkpt lat="46.00446" lon="4.76084">
        <ele>219.300003052</ele>
        <time>2015-12-12T10:49:52.761Z</time>
      </trkpt>
      <trkpt lat="46.00438" lon="4.76079">
        <ele>218.600006104</ele>
        <time>2015-12-12T10:49:53.782Z</time>
      </trkpt>
      <trkpt lat="46.00431" lon="4.76075">
        <ele>217.800003052</ele>
        <time>2015-12-12T10:49:54.761Z</time>
      </trkpt>
      <trkpt lat="46.00422" lon="4.76072">
        <ele>217</ele>
        <time>2015-12-12T10:49:55.784Z</time>
      </trkpt>
      <trkpt lat="46.00413" lon="4.7607">
        <ele>216.399993896</ele>
        <time>2015-12-12T10:49:56.762Z</time>
      </trkpt>
      <trkpt lat="46.00413" lon="4.7607">
        <ele>216.399993896</ele>
        <time>2015-12-12T10:49:56.793Z</time>
      </trkpt>
      <trkpt lat="46.00404" lon="4.76069">
        <ele>216.399993896</ele>
        <time>2015-12-12T10:49:57.761Z</time>
      </trkpt>
      <trkpt lat="46.00395" lon="4.7607">
        <ele>215.600006104</ele>
        <time>2015-12-12T10:49:58.791Z</time>
      </trkpt>
      <trkpt lat="46.00387" lon="4.76071">
        <ele>215.100006104</ele>
        <time>2015-12-12T10:49:59.764Z</time>
      </trkpt>
      <trkpt lat="46.0038" lon="4.76071">
        <ele>214.699996948</ele>
        <time>2015-12-12T10:50:00.779Z</time>
      </trkpt>
      <trkpt lat="46.00374" lon="4.76071">
        <ele>214.199996948</ele>
        <time>2015-12-12T10:50:01.776Z</time>
      </trkpt>
      <trkpt lat="46.00369" lon="4.76065">
        <ele>213.899993896</ele>
        <time>2015-12-12T10:50:02.78Z</time>
      </trkpt>
      <trkpt lat="46.00366" lon="4.76058">
        <ele>213.600006104</ele>
        <time>2015-12-12T10:50:03.761Z</time>
      </trkpt>
      <trkpt lat="46.00364" lon="4.7605">
        <ele>213.199996948</ele>
        <time>2015-12-12T10:50:04.78Z</time>
      </trkpt>
      <trkpt lat="46.00365" lon="4.76043">
        <ele>212.800003052</ele>
        <time>2015-12-12T10:50:05.764Z</time>
      </trkpt>
      <trkpt lat="46.00367" lon="4.76036">
        <ele>212.399993896</ele>
        <time>2015-12-12T10:50:06.779Z</time>
      </trkpt>
      <trkpt lat="46.00373" lon="4.7603">
        <ele>212.199996948</ele>
        <time>2015-12-12T10:50:07.764Z</time>
      </trkpt>
      <trkpt lat="46.00379" lon="4.76026">
        <ele>211.800003052</ele>
        <time>2015-12-12T10:50:08.791Z</time>
      </trkpt>
      <trkpt lat="46.00387" lon="4.76021">
        <ele>211.399993896</ele>
        <time>2015-12-12T10:50:09.762Z</time>
      </trkpt>
      <trkpt lat="46.00393" lon="4.76016">
        <ele>211</ele>
        <time>2015-12-12T10:50:10.782Z</time>
      </trkpt>
      <trkpt lat="46.004" lon="4.7601">
        <ele>210.600006104</ele>
        <time>2015-12-12T10:50:11.764Z</time>
      </trkpt>
      <trkpt lat="46.00407" lon="4.76005">
        <ele>210.300003052</ele>
        <time>2015-12-12T10:50:12.778Z</time>
      </trkpt>
      <trkpt lat="46.00413" lon="4.76">
        <ele>210</ele>
        <time>2015-12-12T10:50:13.763Z</time>
      </trkpt>
      <trkpt lat="46.00421" lon="4.75994">
        <ele>209.600006104</ele>
        <time>2015-12-12T10:50:14.78Z</time>
      </trkpt>
      <trkpt lat="46.00428" lon="4.75987">
        <ele>209.199996948</ele>
        <time>2015-12-12T10:50:15.762Z</time>
      </trkpt>
      <trkpt lat="46.00428" lon="4.75987">
        <ele>209.199996948</ele>
        <time>2015-12-12T10:50:15.788Z</time>
      </trkpt>
      <trkpt lat="46.00435" lon="4.75978">
        <ele>208.600006104</ele>
        <time>2015-12-12T10:50:16.762Z</time>
      </trkpt>
      <trkpt lat="46.00441" lon="4.75969">
        <ele>208.100006104</ele>
        <time>2015-12-12T10:50:17.782Z</time>
      </trkpt>
      <trkpt lat="46.00444" lon="4.75957">
        <ele>207.600006104</ele>
        <time>2015-12-12T10:50:18.761Z</time>
      </trkpt>
      <trkpt lat="46.00444" lon="4.75957">
        <ele>207.600006104</ele>
        <time>2015-12-12T10:50:18.821Z</time>
      </trkpt>
      <trkpt lat="46.00446" lon="4.75944">
        <ele>207</ele>
        <time>2015-12-12T10:50:19.763Z</time>
      </trkpt>
      <trkpt lat="46.00446" lon="4.75932">
        <ele>206.399993896</ele>
        <time>2015-12-12T10:50:20.78Z</time>
      </trkpt>
      <trkpt lat="46.00444" lon="4.7592">
        <ele>205.899993896</ele>
        <time>2015-12-12T10:50:21.761Z</time>
      </trkpt>
      <trkpt lat="46.0044" lon="4.75909">
        <ele>205.399993896</ele>
        <time>2015-12-12T10:50:22.781Z</time>
      </trkpt>
      <trkpt lat="46.00437" lon="4.75899">
        <ele>205</ele>
        <time>2015-12-12T10:50:23.805Z</time>
      </trkpt>
      <trkpt lat="46.00433" lon="4.75888">
        <ele>204.600006104</ele>
        <time>2015-12-12T10:50:24.779Z</time>
      </trkpt>
      <trkpt lat="46.00427" lon="4.75877">
        <ele>204.199996948</ele>
        <time>2015-12-12T10:50:25.762Z</time>
      </trkpt>
      <trkpt lat="46.00422" lon="4.75867">
        <ele>203.899993896</ele>
        <time>2015-12-12T10:50:26.78Z</time>
      </trkpt>
      <trkpt lat="46.00417" lon="4.75856">
        <ele>203.399993896</ele>
        <time>2015-12-12T10:50:27.776Z</time>
      </trkpt>
      <trkpt lat="46.00412" lon="4.75846">
        <ele>202.800003052</ele>
        <time>2015-12-12T10:50:28.781Z</time>
      </trkpt>
      <trkpt lat="46.00406" lon="4.75835">
        <ele>202.100006104</ele>
        <time>2015-12-12T10:50:29.764Z</time>
      </trkpt>
      <trkpt lat="46.00406" lon="4.75835">
        <ele>202.100006104</ele>
        <time>2015-12-12T10:50:29.794Z</time>
      </trkpt>
      <trkpt lat="46.004" lon="4.75825">
        <ele>201.5</ele>
        <time>2015-12-12T10:50:30.761Z</time>
      </trkpt>
      <trkpt lat="46.004" lon="4.75825">
        <ele>201.5</ele>
        <time>2015-12-12T10:50:30.783Z</time>
      </trkpt>
      <trkpt lat="46.00393" lon="4.75815">
        <ele>200.5</ele>
        <time>2015-12-12T10:50:31.762Z</time>
      </trkpt>
      <trkpt lat="46.00393" lon="4.75815">
        <ele>200.5</ele>
        <time>2015-12-12T10:50:31.786Z</time>
      </trkpt>
      <trkpt lat="46.00386" lon="4.75805">
        <ele>199.5</ele>
        <time>2015-12-12T10:50:32.761Z</time>
      </trkpt>
      <trkpt lat="46.00386" lon="4.75805">
        <ele>199.5</ele>
        <time>2015-12-12T10:50:32.949Z</time>
      </trkpt>
      <trkpt lat="46.00379" lon="4.75795">
        <ele>199</ele>
        <time>2015-12-12T10:50:33.762Z</time>
      </trkpt>
      <trkpt lat="46.00379" lon="4.75795">
        <ele>199</ele>
        <time>2015-12-12T10:50:33.792Z</time>
      </trkpt>
      <trkpt lat="46.00373" lon="4.75785">
        <ele>198.399993896</ele>
        <time>2015-12-12T10:50:34.761Z</time>
      </trkpt>
      <trkpt lat="46.00373" lon="4.75785">
        <ele>198.399993896</ele>
        <time>2015-12-12T10:50:34.78Z</time>
      </trkpt>
      <trkpt lat="46.00367" lon="4.75775">
        <ele>197.600006104</ele>
        <time>2015-12-12T10:50:35.764Z</time>
      </trkpt>
      <trkpt lat="46.00367" lon="4.75775">
        <ele>197.600006104</ele>
        <time>2015-12-12T10:50:35.789Z</time>
      </trkpt>
      <trkpt lat="46.0036" lon="4.75765">
        <ele>197.100006104</ele>
        <time>2015-12-12T10:50:36.761Z</time>
      </trkpt>
      <trkpt lat="46.0036" lon="4.75765">
        <ele>197.100006104</ele>
        <time>2015-12-12T10:50:36.782Z</time>
      </trkpt>
      <trkpt lat="46.00354" lon="4.75755">
        <ele>196.5</ele>
        <time>2015-12-12T10:50:37.763Z</time>
      </trkpt>
      <trkpt lat="46.00354" lon="4.75755">
        <ele>196.5</ele>
        <time>2015-12-12T10:50:37.786Z</time>
      </trkpt>
      <trkpt lat="46.00347" lon="4.75745">
        <ele>195.600006104</ele>
        <time>2015-12-12T10:50:38.761Z</time>
      </trkpt>
      <trkpt lat="46.00347" lon="4.75745">
        <ele>195.600006104</ele>
        <time>2015-12-12T10:50:38.78Z</time>
      </trkpt>
      <trkpt lat="46.00341" lon="4.75736">
        <ele>195</ele>
        <time>2015-12-12T10:50:39.761Z</time>
      </trkpt>
      <trkpt lat="46.00341" lon="4.75736">
        <ele>195</ele>
        <time>2015-12-12T10:50:39.78Z</time>
      </trkpt>
      <trkpt lat="46.00335" lon="4.75726">
        <ele>194.199996948</ele>
        <time>2015-12-12T10:50:40.761Z</time>
      </trkpt>
      <trkpt lat="46.00335" lon="4.75726">
        <ele>194.199996948</ele>
        <time>2015-12-12T10:50:40.779Z</time>
      </trkpt>
      <trkpt lat="46.00328" lon="4.75717">
        <ele>193.5</ele>
        <time>2015-12-12T10:50:41.764Z</time>
      </trkpt>
      <trkpt lat="46.00328" lon="4.75717">
        <ele>193.5</ele>
        <time>2015-12-12T10:50:41.784Z</time>
      </trkpt>
      <trkpt lat="46.00321" lon="4.75707">
        <ele>192.800003052</ele>
        <time>2015-12-12T10:50:42.761Z</time>
      </trkpt>
      <trkpt lat="46.00321" lon="4.75707">
        <ele>192.800003052</ele>
        <time>2015-12-12T10:50:42.78Z</time>
      </trkpt>
      <trkpt lat="46.00314" lon="4.75697">
        <ele>192</ele>
        <time>2015-12-12T10:50:43.764Z</time>
      </trkpt>
      <trkpt lat="46.00314" lon="4.75697">
        <ele>192</ele>
        <time>2015-12-12T10:50:43.923Z</time>
      </trkpt>
      <trkpt lat="46.00308" lon="4.75688">
        <ele>191.600006104</ele>
        <time>2015-12-12T10:50:44.766Z</time>
      </trkpt>
      <trkpt lat="46.00308" lon="4.75688">
        <ele>191.600006104</ele>
        <time>2015-12-12T10:50:44.819Z</time>
      </trkpt>
      <trkpt lat="46.00301" lon="4.75678">
        <ele>191.199996948</ele>
        <time>2015-12-12T10:50:45.761Z</time>
      </trkpt>
      <trkpt lat="46.00301" lon="4.75678">
        <ele>191.199996948</ele>
        <time>2015-12-12T10:50:45.791Z</time>
      </trkpt>
      <trkpt lat="46.00295" lon="4.75668">
        <ele>190.600006104</ele>
        <time>2015-12-12T10:50:46.761Z</time>
      </trkpt>
      <trkpt lat="46.00289" lon="4.75659">
        <ele>190.300003052</ele>
        <time>2015-12-12T10:50:47.782Z</time>
      </trkpt>
      <trkpt lat="46.00283" lon="4.75649">
        <ele>189.699996948</ele>
        <time>2015-12-12T10:50:48.77Z</time>
      </trkpt>
      <trkpt lat="46.00283" lon="4.75649">
        <ele>189.699996948</ele>
        <time>2015-12-12T10:50:48.842Z</time>
      </trkpt>
      <trkpt lat="46.00276" lon="4.7564">
        <ele>189.300003052</ele>
        <time>2015-12-12T10:50:49.763Z</time>
      </trkpt>
      <trkpt lat="46.0027" lon="4.75631">
        <ele>188.699996948</ele>
        <time>2015-12-12T10:50:50.783Z</time>
      </trkpt>
      <trkpt lat="46.00264" lon="4.75622">
        <ele>188</ele>
        <time>2015-12-12T10:50:51.761Z</time>
      </trkpt>
      <trkpt lat="46.00258" lon="4.75612">
        <ele>187.5</ele>
        <time>2015-12-12T10:50:52.779Z</time>
      </trkpt>
      <trkpt lat="46.0025" lon="4.756">
        <ele>187.199996948</ele>
        <time>2015-12-12T10:50:53.764Z</time>
      </trkpt>
      <trkpt lat="46.0025" lon="4.756">
        <ele>187.199996948</ele>
        <time>2015-12-12T10:50:53.783Z</time>
      </trkpt>
      <trkpt lat="46.00243" lon="4.75589">
        <ele>186.800003052</ele>
        <time>2015-12-12T10:50:54.761Z</time>
      </trkpt>
      <trkpt lat="46.00243" lon="4.75589">
        <ele>186.800003052</ele>
        <time>2015-12-12T10:50:54.786Z</time>
      </trkpt>
      <trkpt lat="46.00236" lon="4.75578">
        <ele>186.399993896</ele>
        <time>2015-12-12T10:50:55.762Z</time>
      </trkpt>
      <trkpt lat="46.00236" lon="4.75578">
        <ele>186.399993896</ele>
        <time>2015-12-12T10:50:55.781Z</time>
      </trkpt>
      <trkpt lat="46.0023" lon="4.75567">
        <ele>186</ele>
        <time>2015-12-12T10:50:56.761Z</time>
      </trkpt>
      <trkpt lat="46.0023" lon="4.75567">
        <ele>186</ele>
        <time>2015-12-12T10:50:56.779Z</time>
      </trkpt>
      <trkpt lat="46.00224" lon="4.75554">
        <ele>185.5</ele>
        <time>2015-12-12T10:50:57.761Z</time>
      </trkpt>
      <trkpt lat="46.00224" lon="4.75554">
        <ele>185.5</ele>
        <time>2015-12-12T10:50:57.805Z</time>
      </trkpt>
      <trkpt lat="46.00219" lon="4.75541">
        <ele>185.100006104</ele>
        <time>2015-12-12T10:50:58.761Z</time>
      </trkpt>
      <trkpt lat="46.00219" lon="4.75541">
        <ele>185.100006104</ele>
        <time>2015-12-12T10:50:58.781Z</time>
      </trkpt>
      <trkpt lat="46.00216" lon="4.75527">
        <ele>184.699996948</ele>
        <time>2015-12-12T10:50:59.764Z</time>
      </trkpt>
      <trkpt lat="46.00216" lon="4.75527">
        <ele>184.699996948</ele>
        <time>2015-12-12T10:50:59.783Z</time>
      </trkpt>
      <trkpt lat="46.00215" lon="4.75512">
        <ele>184.899993896</ele>
        <time>2015-12-12T10:51:00.762Z</time>
      </trkpt>
      <trkpt lat="46.00215" lon="4.75512">
        <ele>184.899993896</ele>
        <time>2015-12-12T10:51:00.787Z</time>
      </trkpt>
      <trkpt lat="46.00214" lon="4.75497">
        <ele>184.699996948</ele>
        <time>2015-12-12T10:51:01.762Z</time>
      </trkpt>
      <trkpt lat="46.00214" lon="4.75497">
        <ele>184.699996948</ele>
        <time>2015-12-12T10:51:01.792Z</time>
      </trkpt>
      <trkpt lat="46.00213" lon="4.75482">
        <ele>184.600006104</ele>
        <time>2015-12-12T10:51:02.761Z</time>
      </trkpt>
      <trkpt lat="46.00213" lon="4.75482">
        <ele>184.600006104</ele>
        <time>2015-12-12T10:51:02.789Z</time>
      </trkpt>
      <trkpt lat="46.00213" lon="4.75467">
        <ele>184.300003052</ele>
        <time>2015-12-12T10:51:03.761Z</time>
      </trkpt>
      <trkpt lat="46.00213" lon="4.75467">
        <ele>184.300003052</ele>
        <time>2015-12-12T10:51:03.784Z</time>
      </trkpt>
      <trkpt lat="46.00214" lon="4.75452">
        <ele>183.800003052</ele>
        <time>2015-12-12T10:51:04.761Z</time>
      </trkpt>
      <trkpt lat="46.00214" lon="4.75452">
        <ele>183.800003052</ele>
        <time>2015-12-12T10:51:04.796Z</time>
      </trkpt>
      <trkpt lat="46.00214" lon="4.75437">
        <ele>183.399993896</ele>
        <time>2015-12-12T10:51:05.765Z</time>
      </trkpt>
      <trkpt lat="46.00214" lon="4.75437">
        <ele>183.399993896</ele>
        <time>2015-12-12T10:51:05.93Z</time>
      </trkpt>
      <trkpt lat="46.00213" lon="4.75422">
        <ele>183.399993896</ele>
        <time>2015-12-12T10:51:06.76Z</time>
      </trkpt>
      <trkpt lat="46.00213" lon="4.75422">
        <ele>183.399993896</ele>
        <time>2015-12-12T10:51:06.798Z</time>
      </trkpt>
      <trkpt lat="46.00213" lon="4.75408">
        <ele>182.5</ele>
        <time>2015-12-12T10:51:07.762Z</time>
      </trkpt>
      <trkpt lat="46.00213" lon="4.75408">
        <ele>182.5</ele>
        <time>2015-12-12T10:51:07.783Z</time>
      </trkpt>
      <trkpt lat="46.00213" lon="4.75393">
        <ele>181.699996948</ele>
        <time>2015-12-12T10:51:08.761Z</time>
      </trkpt>
      <trkpt lat="46.00213" lon="4.75393">
        <ele>181.699996948</ele>
        <time>2015-12-12T10:51:08.781Z</time>
      </trkpt>
      <trkpt lat="46.00213" lon="4.75378">
        <ele>181.199996948</ele>
        <time>2015-12-12T10:51:09.763Z</time>
      </trkpt>
      <trkpt lat="46.00213" lon="4.75378">
        <ele>181.199996948</ele>
        <time>2015-12-12T10:51:09.783Z</time>
      </trkpt>
      <trkpt lat="46.00213" lon="4.75363">
        <ele>179.899993896</ele>
        <time>2015-12-12T10:51:10.761Z</time>
      </trkpt>
      <trkpt lat="46.00213" lon="4.75363">
        <ele>179.899993896</ele>
        <time>2015-12-12T10:51:10.781Z</time>
      </trkpt>
      <trkpt lat="46.00213" lon="4.75349">
        <ele>179.300003052</ele>
        <time>2015-12-12T10:51:11.764Z</time>
      </trkpt>
      <trkpt lat="46.00213" lon="4.75349">
        <ele>179.300003052</ele>
        <time>2015-12-12T10:51:11.783Z</time>
      </trkpt>
      <trkpt lat="46.00213" lon="4.75334">
        <ele>178.699996948</ele>
        <time>2015-12-12T10:51:12.761Z</time>
      </trkpt>
      <trkpt lat="46.00213" lon="4.75334">
        <ele>178.699996948</ele>
        <time>2015-12-12T10:51:12.786Z</time>
      </trkpt>
      <trkpt lat="46.00212" lon="4.75319">
        <ele>177.600006104</ele>
        <time>2015-12-12T10:51:13.762Z</time>
      </trkpt>
      <trkpt lat="46.00212" lon="4.75319">
        <ele>177.600006104</ele>
        <time>2015-12-12T10:51:13.784Z</time>
      </trkpt>
      <trkpt lat="46.00212" lon="4.75305">
        <ele>176.899993896</ele>
        <time>2015-12-12T10:51:14.761Z</time>
      </trkpt>
      <trkpt lat="46.00212" lon="4.75305">
        <ele>176.899993896</ele>
        <time>2015-12-12T10:51:14.78Z</time>
      </trkpt>
      <trkpt lat="46.00212" lon="4.7529">
        <ele>175.699996948</ele>
        <time>2015-12-12T10:51:15.761Z</time>
      </trkpt>
      <trkpt lat="46.00212" lon="4.7529">
        <ele>175.699996948</ele>
        <time>2015-12-12T10:51:15.803Z</time>
      </trkpt>
      <trkpt lat="46.00212" lon="4.75275">
        <ele>174.699996948</ele>
        <time>2015-12-12T10:51:16.761Z</time>
      </trkpt>
      <trkpt lat="46.00212" lon="4.75275">
        <ele>174.699996948</ele>
        <time>2015-12-12T10:51:16.786Z</time>
      </trkpt>
      <trkpt lat="46.00212" lon="4.7526">
        <ele>173.600006104</ele>
        <time>2015-12-12T10:51:17.764Z</time>
      </trkpt>
      <trkpt lat="46.00212" lon="4.7526">
        <ele>173.600006104</ele>
        <time>2015-12-12T10:51:17.783Z</time>
      </trkpt>
      <trkpt lat="46.00212" lon="4.75246">
        <ele>173</ele>
        <time>2015-12-12T10:51:18.761Z</time>
      </trkpt>
      <trkpt lat="46.00212" lon="4.75246">
        <ele>173</ele>
        <time>2015-12-12T10:51:18.79Z</time>
      </trkpt>
      <trkpt lat="46.00212" lon="4.75231">
        <ele>171.899993896</ele>
        <time>2015-12-12T10:51:19.763Z</time>
      </trkpt>
      <trkpt lat="46.00212" lon="4.75231">
        <ele>171.899993896</ele>
        <time>2015-12-12T10:51:19.793Z</time>
      </trkpt>
      <trkpt lat="46.00212" lon="4.75218">
        <ele>170.800003052</ele>
        <time>2015-12-12T10:51:20.776Z</time>
      </trkpt>
      <trkpt lat="46.00212" lon="4.75206">
        <ele>170.300003052</ele>
        <time>2015-12-12T10:51:21.779Z</time>
      </trkpt>
      <trkpt lat="46.00212" lon="4.75194">
        <ele>169.199996948</ele>
        <time>2015-12-12T10:51:22.761Z</time>
      </trkpt>
      <trkpt lat="46.00212" lon="4.75183">
        <ele>168.300003052</ele>
        <time>2015-12-12T10:51:23.784Z</time>
      </trkpt>
      <trkpt lat="46.00212" lon="4.75171">
        <ele>167.5</ele>
        <time>2015-12-12T10:51:24.762Z</time>
      </trkpt>
      <trkpt lat="46.00212" lon="4.7516">
        <ele>167</ele>
        <time>2015-12-12T10:51:25.78Z</time>
      </trkpt>
      <trkpt lat="46.00212" lon="4.75152">
        <ele>166.800003052</ele>
        <time>2015-12-12T10:51:26.761Z</time>
      </trkpt>
      <trkpt lat="46.00212" lon="4.75141">
        <ele>166.399993896</ele>
        <time>2015-12-12T10:51:28.777Z</time>
      </trkpt>
      <trkpt lat="46.00213" lon="4.75136">
        <ele>166.199996948</ele>
        <time>2015-12-12T10:51:29.764Z</time>
      </trkpt>
      <trkpt lat="46.00214" lon="4.75126">
        <ele>165.600006104</ele>
        <time>2015-12-12T10:51:31.779Z</time>
      </trkpt>
      <trkpt lat="46.00213" lon="4.75123">
        <ele>165.5</ele>
        <time>2015-12-12T10:51:32.761Z</time>
      </trkpt>
      <trkpt lat="46.00215" lon="4.75117">
        <ele>166.399993896</ele>
        <time>2015-12-12T10:51:41.951Z</time>
      </trkpt>
      <trkpt lat="46.00215" lon="4.75116">
        <ele>166.199996948</ele>
        <time>2015-12-12T10:51:42.761Z</time>
      </trkpt>
      <trkpt lat="46.00213" lon="4.75114">
        <ele>166.300003052</ele>
        <time>2015-12-12T10:51:44.779Z</time>
      </trkpt>
      <trkpt lat="46.00212" lon="4.75113">
        <ele>166.199996948</ele>
        <time>2015-12-12T10:51:45.761Z</time>
      </trkpt>
      <trkpt lat="46.00204" lon="4.75114">
        <ele>166.100006104</ele>
        <time>2015-12-12T10:51:47.788Z</time>
      </trkpt>
      <trkpt lat="46.00199" lon="4.75114">
        <ele>166.100006104</ele>
        <time>2015-12-12T10:51:48.791Z</time>
      </trkpt>
      <trkpt lat="46.00193" lon="4.75114">
        <ele>166.100006104</ele>
        <time>2015-12-12T10:51:49.795Z</time>
      </trkpt>
      <trkpt lat="46.00187" lon="4.75113">
        <ele>166.100006104</ele>
        <time>2015-12-12T10:51:50.765Z</time>
      </trkpt>
      <trkpt lat="46.00181" lon="4.75113">
        <ele>166.199996948</ele>
        <time>2015-12-12T10:51:51.784Z</time>
      </trkpt>
      <trkpt lat="46.00175" lon="4.75112">
        <ele>166.399993896</ele>
        <time>2015-12-12T10:51:52.889Z</time>
      </trkpt>
      <trkpt lat="46.00169" lon="4.75112">
        <ele>166.399993896</ele>
        <time>2015-12-12T10:51:53.788Z</time>
      </trkpt>
      <trkpt lat="46.00163" lon="4.75112">
        <ele>166.699996948</ele>
        <time>2015-12-12T10:51:54.76Z</time>
      </trkpt>
      <trkpt lat="46.00156" lon="4.75111">
        <ele>166.899993896</ele>
        <time>2015-12-12T10:51:55.779Z</time>
      </trkpt>
      <trkpt lat="46.00149" lon="4.7511">
        <ele>166.899993896</ele>
        <time>2015-12-12T10:51:56.761Z</time>
      </trkpt>
      <trkpt lat="46.00143" lon="4.7511">
        <ele>166.899993896</ele>
        <time>2015-12-12T10:51:57.778Z</time>
      </trkpt>
      <trkpt lat="46.00136" lon="4.7511">
        <ele>167</ele>
        <time>2015-12-12T10:51:58.761Z</time>
      </trkpt>
      <trkpt lat="46.00131" lon="4.75109">
        <ele>167.199996948</ele>
        <time>2015-12-12T10:51:59.782Z</time>
      </trkpt>
      <trkpt lat="46.00125" lon="4.75109">
        <ele>166.899993896</ele>
        <time>2015-12-12T10:52:00.761Z</time>
      </trkpt>
      <trkpt lat="46.0012" lon="4.75108">
        <ele>166.699996948</ele>
        <time>2015-12-12T10:52:01.783Z</time>
      </trkpt>
      <trkpt lat="46.00114" lon="4.75107">
        <ele>166.5</ele>
        <time>2015-12-12T10:52:02.761Z</time>
      </trkpt>
      <trkpt lat="46.00109" lon="4.75107">
        <ele>166.5</ele>
        <time>2015-12-12T10:52:03.779Z</time>
      </trkpt>
      <trkpt lat="46.00104" lon="4.75107">
        <ele>166.5</ele>
        <time>2015-12-12T10:52:04.761Z</time>
      </trkpt>
      <trkpt lat="46.00099" lon="4.75107">
        <ele>166.300003052</ele>
        <time>2015-12-12T10:52:05.781Z</time>
      </trkpt>
      <trkpt lat="46.00094" lon="4.75106">
        <ele>166</ele>
        <time>2015-12-12T10:52:06.761Z</time>
      </trkpt>
      <trkpt lat="46.00089" lon="4.75106">
        <ele>166</ele>
        <time>2015-12-12T10:52:07.78Z</time>
      </trkpt>
      <trkpt lat="46.00083" lon="4.75105">
        <ele>166</ele>
        <time>2015-12-12T10:52:08.774Z</time>
      </trkpt>
      <trkpt lat="46.00078" lon="4.75105">
        <ele>165.899993896</ele>
        <time>2015-12-12T10:52:09.806Z</time>
      </trkpt>
      <trkpt lat="46.00072" lon="4.75104">
        <ele>165.5</ele>
        <time>2015-12-12T10:52:10.761Z</time>
      </trkpt>
      <trkpt lat="46.00066" lon="4.75104">
        <ele>165.199996948</ele>
        <time>2015-12-12T10:52:11.783Z</time>
      </trkpt>
      <trkpt lat="46.0006" lon="4.75104">
        <ele>165.199996948</ele>
        <time>2015-12-12T10:52:12.761Z</time>
      </trkpt>
      <trkpt lat="46.00055" lon="4.75104">
        <ele>165.100006104</ele>
        <time>2015-12-12T10:52:13.779Z</time>
      </trkpt>
      <trkpt lat="46.00049" lon="4.75104">
        <ele>165.100006104</ele>
        <time>2015-12-12T10:52:14.761Z</time>
      </trkpt>
      <trkpt lat="46.00043" lon="4.75104">
        <ele>165.199996948</ele>
        <time>2015-12-12T10:52:15.779Z</time>
      </trkpt>
      <trkpt lat="46.00036" lon="4.75105">
        <ele>165.100006104</ele>
        <time>2015-12-12T10:52:16.76Z</time>
      </trkpt>
      <trkpt lat="46.0003" lon="4.75106">
        <ele>165.399993896</ele>
        <time>2015-12-12T10:52:17.781Z</time>
      </trkpt>
      <trkpt lat="46.00024" lon="4.75106">
        <ele>165.300003052</ele>
        <time>2015-12-12T10:52:18.76Z</time>
      </trkpt>
      <trkpt lat="46.00018" lon="4.75106">
        <ele>165.100006104</ele>
        <time>2015-12-12T10:52:19.779Z</time>
      </trkpt>
      <trkpt lat="46.00012" lon="4.75106">
        <ele>165.199996948</ele>
        <time>2015-12-12T10:52:20.791Z</time>
      </trkpt>
      <trkpt lat="46.00006" lon="4.75107">
        <ele>165.100006104</ele>
        <time>2015-12-12T10:52:21.779Z</time>
      </trkpt>
      <trkpt lat="46" lon="4.75108">
        <ele>165.5</ele>
        <time>2015-12-12T10:52:22.761Z</time>
      </trkpt>
      <trkpt lat="45.99995" lon="4.75111">
        <ele>165.600006104</ele>
        <time>2015-12-12T10:52:23.782Z</time>
      </trkpt>
      <trkpt lat="45.9999" lon="4.75114">
        <ele>165.600006104</ele>
        <time>2015-12-12T10:52:24.775Z</time>
      </trkpt>
      <trkpt lat="45.99985" lon="4.75116">
        <ele>165.699996948</ele>
        <time>2015-12-12T10:52:25.804Z</time>
      </trkpt>
      <trkpt lat="45.99979" lon="4.75118">
        <ele>165.800003052</ele>
        <time>2015-12-12T10:52:26.761Z</time>
      </trkpt>
      <trkpt lat="45.99974" lon="4.7512">
        <ele>165.800003052</ele>
        <time>2015-12-12T10:52:27.782Z</time>
      </trkpt>
      <trkpt lat="45.99969" lon="4.75123">
        <ele>165.800003052</ele>
        <time>2015-12-12T10:52:28.761Z</time>
      </trkpt>
      <trkpt lat="45.99963" lon="4.75125">
        <ele>165.600006104</ele>
        <time>2015-12-12T10:52:29.783Z</time>
      </trkpt>
      <trkpt lat="45.99958" lon="4.75128">
        <ele>165.300003052</ele>
        <time>2015-12-12T10:52:30.761Z</time>
      </trkpt>
      <trkpt lat="45.99952" lon="4.75131">
        <ele>165.199996948</ele>
        <time>2015-12-12T10:52:31.783Z</time>
      </trkpt>
      <trkpt lat="45.99946" lon="4.75133">
        <ele>165.800003052</ele>
        <time>2015-12-12T10:52:32.761Z</time>
      </trkpt>
      <trkpt lat="45.9994" lon="4.75135">
        <ele>165.5</ele>
        <time>2015-12-12T10:52:33.781Z</time>
      </trkpt>
      <trkpt lat="45.99934" lon="4.75138">
        <ele>165.800003052</ele>
        <time>2015-12-12T10:52:34.762Z</time>
      </trkpt>
      <trkpt lat="45.99928" lon="4.75141">
        <ele>165.899993896</ele>
        <time>2015-12-12T10:52:35.842Z</time>
      </trkpt>
      <trkpt lat="45.99923" lon="4.75143">
        <ele>166.199996948</ele>
        <time>2015-12-12T10:52:36.761Z</time>
      </trkpt>
      <trkpt lat="45.99917" lon="4.75146">
        <ele>166.399993896</ele>
        <time>2015-12-12T10:52:37.841Z</time>
      </trkpt>
      <trkpt lat="45.99911" lon="4.75148">
        <ele>166.699996948</ele>
        <time>2015-12-12T10:52:38.762Z</time>
      </trkpt>
      <trkpt lat="45.99905" lon="4.75151">
        <ele>166.899993896</ele>
        <time>2015-12-12T10:52:39.78Z</time>
      </trkpt>
      <trkpt lat="45.99899" lon="4.75154">
        <ele>168.300003052</ele>
        <time>2015-12-12T10:52:40.762Z</time>
      </trkpt>
      <trkpt lat="45.99893" lon="4.75156">
        <ele>168</ele>
        <time>2015-12-12T10:52:41.788Z</time>
      </trkpt>
      <trkpt lat="45.99888" lon="4.75159">
        <ele>168.199996948</ele>
        <time>2015-12-12T10:52:42.762Z</time>
      </trkpt>
      <trkpt lat="45.99883" lon="4.75162">
        <ele>168.199996948</ele>
        <time>2015-12-12T10:52:43.781Z</time>
      </trkpt>
      <trkpt lat="45.99878" lon="4.75165">
        <ele>168.399993896</ele>
        <time>2015-12-12T10:52:44.762Z</time>
      </trkpt>
      <trkpt lat="45.99873" lon="4.75167">
        <ele>168.399993896</ele>
        <time>2015-12-12T10:52:45.8Z</time>
      </trkpt>
      <trkpt lat="45.99868" lon="4.75169">
        <ele>168.5</ele>
        <time>2015-12-12T10:52:46.761Z</time>
      </trkpt>
      <trkpt lat="45.99864" lon="4.75172">
        <ele>168.399993896</ele>
        <time>2015-12-12T10:52:47.783Z</time>
      </trkpt>
      <trkpt lat="45.99859" lon="4.75174">
        <ele>168.699996948</ele>
        <time>2015-12-12T10:52:48.761Z</time>
      </trkpt>
      <trkpt lat="45.99854" lon="4.75176">
        <ele>168.399993896</ele>
        <time>2015-12-12T10:52:49.909Z</time>
      </trkpt>
      <trkpt lat="45.99849" lon="4.75178">
        <ele>168.399993896</ele>
        <time>2015-12-12T10:52:50.764Z</time>
      </trkpt>
      <trkpt lat="45.99844" lon="4.7518">
        <ele>168.300003052</ele>
        <time>2015-12-12T10:52:51.779Z</time>
      </trkpt>
      <trkpt lat="45.99839" lon="4.75182">
        <ele>168.699996948</ele>
        <time>2015-12-12T10:52:52.761Z</time>
      </trkpt>
      <trkpt lat="45.99834" lon="4.75184">
        <ele>169</ele>
        <time>2015-12-12T10:52:53.783Z</time>
      </trkpt>
      <trkpt lat="45.99829" lon="4.75186">
        <ele>169.5</ele>
        <time>2015-12-12T10:52:54.761Z</time>
      </trkpt>
      <trkpt lat="45.99824" lon="4.75189">
        <ele>169.5</ele>
        <time>2015-12-12T10:52:55.78Z</time>
      </trkpt>
      <trkpt lat="45.99818" lon="4.75191">
        <ele>169.399993896</ele>
        <time>2015-12-12T10:52:56.761Z</time>
      </trkpt>
      <trkpt lat="45.99813" lon="4.75194">
        <ele>169.300003052</ele>
        <time>2015-12-12T10:52:57.799Z</time>
      </trkpt>
      <trkpt lat="45.99808" lon="4.75197">
        <ele>168.300003052</ele>
        <time>2015-12-12T10:52:58.791Z</time>
      </trkpt>
      <trkpt lat="45.99802" lon="4.75199">
        <ele>168</ele>
        <time>2015-12-12T10:52:59.782Z</time>
      </trkpt>
      <trkpt lat="45.99797" lon="4.75202">
        <ele>167.699996948</ele>
        <time>2015-12-12T10:53:00.761Z</time>
      </trkpt>
      <trkpt lat="45.99791" lon="4.75204">
        <ele>167.699996948</ele>
        <time>2015-12-12T10:53:01.78Z</time>
      </trkpt>
      <trkpt lat="45.99786" lon="4.75206">
        <ele>167.600006104</ele>
        <time>2015-12-12T10:53:02.761Z</time>
      </trkpt>
      <trkpt lat="45.9978" lon="4.75209">
        <ele>167.600006104</ele>
        <time>2015-12-12T10:53:03.78Z</time>
      </trkpt>
      <trkpt lat="45.99775" lon="4.75212">
        <ele>167.5</ele>
        <time>2015-12-12T10:53:04.761Z</time>
      </trkpt>
      <trkpt lat="45.99769" lon="4.75214">
        <ele>167.699996948</ele>
        <time>2015-12-12T10:53:05.781Z</time>
      </trkpt>
      <trkpt lat="45.99764" lon="4.75217">
        <ele>167.800003052</ele>
        <time>2015-12-12T10:53:06.761Z</time>
      </trkpt>
      <trkpt lat="45.99758" lon="4.75219">
        <ele>167.800003052</ele>
        <time>2015-12-12T10:53:07.782Z</time>
      </trkpt>
      <trkpt lat="45.99752" lon="4.75222">
        <ele>167.800003052</ele>
        <time>2015-12-12T10:53:08.761Z</time>
      </trkpt>
      <trkpt lat="45.99747" lon="4.75225">
        <ele>168</ele>
        <time>2015-12-12T10:53:09.78Z</time>
      </trkpt>
      <trkpt lat="45.99741" lon="4.75228">
        <ele>168</ele>
        <time>2015-12-12T10:53:10.761Z</time>
      </trkpt>
      <trkpt lat="45.99735" lon="4.75231">
        <ele>168.5</ele>
        <time>2015-12-12T10:53:11.797Z</time>
      </trkpt>
      <trkpt lat="45.9973" lon="4.75233">
        <ele>168.5</ele>
        <time>2015-12-12T10:53:12.761Z</time>
      </trkpt>
      <trkpt lat="45.99724" lon="4.75236">
        <ele>168.699996948</ele>
        <time>2015-12-12T10:53:13.907Z</time>
      </trkpt>
      <trkpt lat="45.99718" lon="4.75238">
        <ele>169.100006104</ele>
        <time>2015-12-12T10:53:14.762Z</time>
      </trkpt>
      <trkpt lat="45.99713" lon="4.75241">
        <ele>169.300003052</ele>
        <time>2015-12-12T10:53:15.779Z</time>
      </trkpt>
      <trkpt lat="45.99707" lon="4.75244">
        <ele>169.399993896</ele>
        <time>2015-12-12T10:53:16.761Z</time>
      </trkpt>
      <trkpt lat="45.99702" lon="4.75246">
        <ele>169.699996948</ele>
        <time>2015-12-12T10:53:17.782Z</time>
      </trkpt>
      <trkpt lat="45.99696" lon="4.75249">
        <ele>169.800003052</ele>
        <time>2015-12-12T10:53:18.761Z</time>
      </trkpt>
      <trkpt lat="45.9969" lon="4.75251">
        <ele>170</ele>
        <time>2015-12-12T10:53:19.782Z</time>
      </trkpt>
      <trkpt lat="45.99685" lon="4.75254">
        <ele>170.300003052</ele>
        <time>2015-12-12T10:53:20.761Z</time>
      </trkpt>
      <trkpt lat="45.99679" lon="4.75256">
        <ele>170.699996948</ele>
        <time>2015-12-12T10:53:21.778Z</time>
      </trkpt>
      <trkpt lat="45.99673" lon="4.75259">
        <ele>171.300003052</ele>
        <time>2015-12-12T10:53:22.761Z</time>
      </trkpt>
      <trkpt lat="45.99668" lon="4.75262">
        <ele>171.5</ele>
        <time>2015-12-12T10:53:23.783Z</time>
      </trkpt>
      <trkpt lat="45.99662" lon="4.75264">
        <ele>171.399993896</ele>
        <time>2015-12-12T10:53:24.761Z</time>
      </trkpt>
      <trkpt lat="45.99657" lon="4.75267">
        <ele>170.800003052</ele>
        <time>2015-12-12T10:53:25.78Z</time>
      </trkpt>
      <trkpt lat="45.99651" lon="4.75268">
        <ele>170.600006104</ele>
        <time>2015-12-12T10:53:26.761Z</time>
      </trkpt>
      <trkpt lat="45.99646" lon="4.7527">
        <ele>170.100006104</ele>
        <time>2015-12-12T10:53:27.793Z</time>
      </trkpt>
      <trkpt lat="45.99641" lon="4.75271">
        <ele>169.899993896</ele>
        <time>2015-12-12T10:53:28.761Z</time>
      </trkpt>
      <trkpt lat="45.99636" lon="4.75271">
        <ele>170</ele>
        <time>2015-12-12T10:53:29.782Z</time>
      </trkpt>
      <trkpt lat="45.99631" lon="4.7527">
        <ele>169.800003052</ele>
        <time>2015-12-12T10:53:30.761Z</time>
      </trkpt>
      <trkpt lat="45.99626" lon="4.7527">
        <ele>169.5</ele>
        <time>2015-12-12T10:53:31.78Z</time>
      </trkpt>
      <trkpt lat="45.99621" lon="4.75269">
        <ele>169.800003052</ele>
        <time>2015-12-12T10:53:32.761Z</time>
      </trkpt>
      <trkpt lat="45.99617" lon="4.75268">
        <ele>169.899993896</ele>
        <time>2015-12-12T10:53:33.779Z</time>
      </trkpt>
      <trkpt lat="45.99612" lon="4.75268">
        <ele>169.899993896</ele>
        <time>2015-12-12T10:53:34.761Z</time>
      </trkpt>
      <trkpt lat="45.99604" lon="4.7527">
        <ele>170.199996948</ele>
        <time>2015-12-12T10:53:36.778Z</time>
      </trkpt>
      <trkpt lat="45.99599" lon="4.75271">
        <ele>170.600006104</ele>
        <time>2015-12-12T10:53:37.762Z</time>
      </trkpt>
      <trkpt lat="45.9959" lon="4.75272">
        <ele>171.100006104</ele>
        <time>2015-12-12T10:53:39.791Z</time>
      </trkpt>
      <trkpt lat="45.99586" lon="4.75269">
        <ele>170.899993896</ele>
        <time>2015-12-12T10:53:40.762Z</time>
      </trkpt>
      <trkpt lat="45.99582" lon="4.75266">
        <ele>170.699996948</ele>
        <time>2015-12-12T10:53:41.782Z</time>
      </trkpt>
      <trkpt lat="45.99577" lon="4.75264">
        <ele>170.600006104</ele>
        <time>2015-12-12T10:53:42.761Z</time>
      </trkpt>
      <trkpt lat="45.99572" lon="4.75263">
        <ele>170.399993896</ele>
        <time>2015-12-12T10:53:43.78Z</time>
      </trkpt>
      <trkpt lat="45.99567" lon="4.75262">
        <ele>170.399993896</ele>
        <time>2015-12-12T10:53:44.761Z</time>
      </trkpt>
      <trkpt lat="45.99562" lon="4.75264">
        <ele>170.199996948</ele>
        <time>2015-12-12T10:53:45.781Z</time>
      </trkpt>
      <trkpt lat="45.99557" lon="4.75268">
        <ele>170.199996948</ele>
        <time>2015-12-12T10:53:46.761Z</time>
      </trkpt>
      <trkpt lat="45.99553" lon="4.75273">
        <ele>170.899993896</ele>
        <time>2015-12-12T10:53:47.786Z</time>
      </trkpt>
      <trkpt lat="45.99549" lon="4.75278">
        <ele>171.600006104</ele>
        <time>2015-12-12T10:53:48.816Z</time>
      </trkpt>
      <trkpt lat="45.99545" lon="4.75283">
        <ele>171.5</ele>
        <time>2015-12-12T10:53:49.79Z</time>
      </trkpt>
      <trkpt lat="45.9954" lon="4.75287">
        <ele>171.5</ele>
        <time>2015-12-12T10:53:50.763Z</time>
      </trkpt>
      <trkpt lat="45.99535" lon="4.7529">
        <ele>171.300003052</ele>
        <time>2015-12-12T10:53:51.778Z</time>
      </trkpt>
      <trkpt lat="45.9953" lon="4.75292">
        <ele>171.300003052</ele>
        <time>2015-12-12T10:53:52.761Z</time>
      </trkpt>
      <trkpt lat="45.99524" lon="4.75294">
        <ele>171.300003052</ele>
        <time>2015-12-12T10:53:53.782Z</time>
      </trkpt>
      <trkpt lat="45.99518" lon="4.75295">
        <ele>170.899993896</ele>
        <time>2015-12-12T10:53:54.761Z</time>
      </trkpt>
      <trkpt lat="45.99512" lon="4.75296">
        <ele>170.699996948</ele>
        <time>2015-12-12T10:53:55.779Z</time>
      </trkpt>
      <trkpt lat="45.99506" lon="4.75297">
        <ele>170.600006104</ele>
        <time>2015-12-12T10:53:56.761Z</time>
      </trkpt>
      <trkpt lat="45.995" lon="4.75299">
        <ele>170.5</ele>
        <time>2015-12-12T10:53:57.779Z</time>
      </trkpt>
      <trkpt lat="45.99494" lon="4.753">
        <ele>170.300003052</ele>
        <time>2015-12-12T10:53:58.762Z</time>
      </trkpt>
      <trkpt lat="45.99487" lon="4.75302">
        <ele>170</ele>
        <time>2015-12-12T10:53:59.806Z</time>
      </trkpt>
      <trkpt lat="45.9948" lon="4.75302">
        <ele>169.800003052</ele>
        <time>2015-12-12T10:54:00.762Z</time>
      </trkpt>
      <trkpt lat="45.99474" lon="4.75302">
        <ele>169.800003052</ele>
        <time>2015-12-12T10:54:01.78Z</time>
      </trkpt>
      <trkpt lat="45.99468" lon="4.75303">
        <ele>169.800003052</ele>
        <time>2015-12-12T10:54:02.892Z</time>
      </trkpt>
      <trkpt lat="45.99461" lon="4.75304">
        <ele>169.600006104</ele>
        <time>2015-12-12T10:54:03.778Z</time>
      </trkpt>
      <trkpt lat="45.99455" lon="4.75305">
        <ele>169.5</ele>
        <time>2015-12-12T10:54:04.761Z</time>
      </trkpt>
      <trkpt lat="45.99448" lon="4.75305">
        <ele>169.399993896</ele>
        <time>2015-12-12T10:54:05.781Z</time>
      </trkpt>
      <trkpt lat="45.99442" lon="4.75306">
        <ele>169.399993896</ele>
        <time>2015-12-12T10:54:06.761Z</time>
      </trkpt>
      <trkpt lat="45.99435" lon="4.75307">
        <ele>169.100006104</ele>
        <time>2015-12-12T10:54:07.78Z</time>
      </trkpt>
      <trkpt lat="45.99429" lon="4.75308">
        <ele>168.800003052</ele>
        <time>2015-12-12T10:54:08.761Z</time>
      </trkpt>
      <trkpt lat="45.99422" lon="4.75309">
        <ele>168.600006104</ele>
        <time>2015-12-12T10:54:09.802Z</time>
      </trkpt>
      <trkpt lat="45.99416" lon="4.75311">
        <ele>168.199996948</ele>
        <time>2015-12-12T10:54:10.769Z</time>
      </trkpt>
      <trkpt lat="45.99409" lon="4.75313">
        <ele>168.5</ele>
        <time>2015-12-12T10:54:11.783Z</time>
      </trkpt>
      <trkpt lat="45.99403" lon="4.75315">
        <ele>168.699996948</ele>
        <time>2015-12-12T10:54:12.761Z</time>
      </trkpt>
      <trkpt lat="45.99397" lon="4.75318">
        <ele>168.899993896</ele>
        <time>2015-12-12T10:54:13.779Z</time>
      </trkpt>
      <trkpt lat="45.99391" lon="4.75322">
        <ele>168.899993896</ele>
        <time>2015-12-12T10:54:14.761Z</time>
      </trkpt>
      <trkpt lat="45.99385" lon="4.75326">
        <ele>169</ele>
        <time>2015-12-12T10:54:15.826Z</time>
      </trkpt>
      <trkpt lat="45.9938" lon="4.75331">
        <ele>168.399993896</ele>
        <time>2015-12-12T10:54:16.761Z</time>
      </trkpt>
      <trkpt lat="45.99375" lon="4.75337">
        <ele>168.199996948</ele>
        <time>2015-12-12T10:54:17.783Z</time>
      </trkpt>
      <trkpt lat="45.9937" lon="4.75343">
        <ele>168.300003052</ele>
        <time>2015-12-12T10:54:18.817Z</time>
      </trkpt>
      <trkpt lat="45.99366" lon="4.7535">
        <ele>168.199996948</ele>
        <time>2015-12-12T10:54:19.779Z</time>
      </trkpt>
      <trkpt lat="45.99361" lon="4.75357">
        <ele>168.5</ele>
        <time>2015-12-12T10:54:20.761Z</time>
      </trkpt>
      <trkpt lat="45.99357" lon="4.75365">
        <ele>168.399993896</ele>
        <time>2015-12-12T10:54:21.779Z</time>
      </trkpt>
      <trkpt lat="45.99353" lon="4.75372">
        <ele>168.800003052</ele>
        <time>2015-12-12T10:54:22.761Z</time>
      </trkpt>
      <trkpt lat="45.99349" lon="4.7538">
        <ele>168.899993896</ele>
        <time>2015-12-12T10:54:23.781Z</time>
      </trkpt>
      <trkpt lat="45.99345" lon="4.75387">
        <ele>169.100006104</ele>
        <time>2015-12-12T10:54:24.761Z</time>
      </trkpt>
      <trkpt lat="45.99341" lon="4.75393">
        <ele>169.800003052</ele>
        <time>2015-12-12T10:54:25.779Z</time>
      </trkpt>
      <trkpt lat="45.99338" lon="4.754">
        <ele>170.399993896</ele>
        <time>2015-12-12T10:54:26.761Z</time>
      </trkpt>
      <trkpt lat="45.99335" lon="4.75407">
        <ele>170.899993896</ele>
        <time>2015-12-12T10:54:27.778Z</time>
      </trkpt>
      <trkpt lat="45.99333" lon="4.75415">
        <ele>171.300003052</ele>
        <time>2015-12-12T10:54:28.761Z</time>
      </trkpt>
      <trkpt lat="45.99332" lon="4.75423">
        <ele>171.5</ele>
        <time>2015-12-12T10:54:29.782Z</time>
      </trkpt>
      <trkpt lat="45.99331" lon="4.75433">
        <ele>171.300003052</ele>
        <time>2015-12-12T10:54:30.761Z</time>
      </trkpt>
      <trkpt lat="45.99329" lon="4.75442">
        <ele>171</ele>
        <time>2015-12-12T10:54:31.794Z</time>
      </trkpt>
      <trkpt lat="45.99327" lon="4.7545">
        <ele>170.800003052</ele>
        <time>2015-12-12T10:54:32.761Z</time>
      </trkpt>
      <trkpt lat="45.99324" lon="4.75459">
        <ele>170.399993896</ele>
        <time>2015-12-12T10:54:33.779Z</time>
      </trkpt>
      <trkpt lat="45.99321" lon="4.75466">
        <ele>170.199996948</ele>
        <time>2015-12-12T10:54:34.761Z</time>
      </trkpt>
      <trkpt lat="45.99318" lon="4.75473">
        <ele>170.199996948</ele>
        <time>2015-12-12T10:54:35.781Z</time>
      </trkpt>
      <trkpt lat="45.99315" lon="4.7548">
        <ele>170.100006104</ele>
        <time>2015-12-12T10:54:36.761Z</time>
      </trkpt>
      <trkpt lat="45.99312" lon="4.75485">
        <ele>170.199996948</ele>
        <time>2015-12-12T10:54:37.807Z</time>
      </trkpt>
      <trkpt lat="45.99308" lon="4.75491">
        <ele>170.300003052</ele>
        <time>2015-12-12T10:54:38.761Z</time>
      </trkpt>
      <trkpt lat="45.99304" lon="4.75497">
        <ele>170.399993896</ele>
        <time>2015-12-12T10:54:39.778Z</time>
      </trkpt>
      <trkpt lat="45.993" lon="4.75502">
        <ele>170.300003052</ele>
        <time>2015-12-12T10:54:40.761Z</time>
      </trkpt>
      <trkpt lat="45.99295" lon="4.75507">
        <ele>170.399993896</ele>
        <time>2015-12-12T10:54:41.781Z</time>
      </trkpt>
      <trkpt lat="45.99291" lon="4.75513">
        <ele>170.300003052</ele>
        <time>2015-12-12T10:54:42.761Z</time>
      </trkpt>
      <trkpt lat="45.99286" lon="4.75518">
        <ele>170.300003052</ele>
        <time>2015-12-12T10:54:43.783Z</time>
      </trkpt>
      <trkpt lat="45.99281" lon="4.75523">
        <ele>170.199996948</ele>
        <time>2015-12-12T10:54:44.761Z</time>
      </trkpt>
      <trkpt lat="45.99276" lon="4.75527">
        <ele>170.800003052</ele>
        <time>2015-12-12T10:54:45.778Z</time>
      </trkpt>
      <trkpt lat="45.99271" lon="4.75532">
        <ele>170.5</ele>
        <time>2015-12-12T10:54:46.761Z</time>
      </trkpt>
      <trkpt lat="45.99266" lon="4.75536">
        <ele>170.5</ele>
        <time>2015-12-12T10:54:47.795Z</time>
      </trkpt>
      <trkpt lat="45.99261" lon="4.7554">
        <ele>170.600006104</ele>
        <time>2015-12-12T10:54:48.761Z</time>
      </trkpt>
      <trkpt lat="45.99256" lon="4.75543">
        <ele>170.800003052</ele>
        <time>2015-12-12T10:54:49.779Z</time>
      </trkpt>
      <trkpt lat="45.99251" lon="4.75547">
        <ele>170.899993896</ele>
        <time>2015-12-12T10:54:50.763Z</time>
      </trkpt>
      <trkpt lat="45.99246" lon="4.7555">
        <ele>171.100006104</ele>
        <time>2015-12-12T10:54:51.78Z</time>
      </trkpt>
      <trkpt lat="45.99241" lon="4.75554">
        <ele>171.300003052</ele>
        <time>2015-12-12T10:54:52.762Z</time>
      </trkpt>
      <trkpt lat="45.99236" lon="4.75557">
        <ele>171.399993896</ele>
        <time>2015-12-12T10:54:53.785Z</time>
      </trkpt>
      <trkpt lat="45.99231" lon="4.7556">
        <ele>171.5</ele>
        <time>2015-12-12T10:54:54.762Z</time>
      </trkpt>
      <trkpt lat="45.99225" lon="4.75564">
        <ele>171.600006104</ele>
        <time>2015-12-12T10:54:55.781Z</time>
      </trkpt>
      <trkpt lat="45.9922" lon="4.75567">
        <ele>171.5</ele>
        <time>2015-12-12T10:54:56.761Z</time>
      </trkpt>
      <trkpt lat="45.99215" lon="4.7557">
        <ele>171.600006104</ele>
        <time>2015-12-12T10:54:57.778Z</time>
      </trkpt>
      <trkpt lat="45.9921" lon="4.75573">
        <ele>171.600006104</ele>
        <time>2015-12-12T10:54:58.761Z</time>
      </trkpt>
      <trkpt lat="45.99206" lon="4.75576">
        <ele>171.5</ele>
        <time>2015-12-12T10:54:59.923Z</time>
      </trkpt>
      <trkpt lat="45.99201" lon="4.75579">
        <ele>171.5</ele>
        <time>2015-12-12T10:55:00.761Z</time>
      </trkpt>
      <trkpt lat="45.99197" lon="4.75583">
        <ele>171.300003052</ele>
        <time>2015-12-12T10:55:01.786Z</time>
      </trkpt>
      <trkpt lat="45.99192" lon="4.75586">
        <ele>171.300003052</ele>
        <time>2015-12-12T10:55:02.761Z</time>
      </trkpt>
      <trkpt lat="45.99188" lon="4.75589">
        <ele>171.399993896</ele>
        <time>2015-12-12T10:55:03.795Z</time>
      </trkpt>
      <trkpt lat="45.99183" lon="4.75591">
        <ele>171.5</ele>
        <time>2015-12-12T10:55:04.761Z</time>
      </trkpt>
      <trkpt lat="45.99177" lon="4.75594">
        <ele>171.600006104</ele>
        <time>2015-12-12T10:55:05.782Z</time>
      </trkpt>
      <trkpt lat="45.99172" lon="4.75595">
        <ele>171.800003052</ele>
        <time>2015-12-12T10:55:06.761Z</time>
      </trkpt>
      <trkpt lat="45.99167" lon="4.75597">
        <ele>171.899993896</ele>
        <time>2015-12-12T10:55:07.779Z</time>
      </trkpt>
      <trkpt lat="45.99162" lon="4.75599">
        <ele>172.100006104</ele>
        <time>2015-12-12T10:55:08.761Z</time>
      </trkpt>
      <trkpt lat="45.99157" lon="4.75602">
        <ele>172.199996948</ele>
        <time>2015-12-12T10:55:09.778Z</time>
      </trkpt>
      <trkpt lat="45.99151" lon="4.75604">
        <ele>172.300003052</ele>
        <time>2015-12-12T10:55:10.761Z</time>
      </trkpt>
      <trkpt lat="45.99146" lon="4.75606">
        <ele>172.399993896</ele>
        <time>2015-12-12T10:55:11.782Z</time>
      </trkpt>
      <trkpt lat="45.99141" lon="4.75606">
        <ele>172.5</ele>
        <time>2015-12-12T10:55:12.761Z</time>
      </trkpt>
      <trkpt lat="45.99135" lon="4.75606">
        <ele>172.600006104</ele>
        <time>2015-12-12T10:55:13.779Z</time>
      </trkpt>
      <trkpt lat="45.9913" lon="4.75606">
        <ele>172.399993896</ele>
        <time>2015-12-12T10:55:14.761Z</time>
      </trkpt>
      <trkpt lat="45.99124" lon="4.75609">
        <ele>172.199996948</ele>
        <time>2015-12-12T10:55:15.778Z</time>
      </trkpt>
      <trkpt lat="45.9912" lon="4.75613">
        <ele>172.199996948</ele>
        <time>2015-12-12T10:55:16.761Z</time>
      </trkpt>
      <trkpt lat="45.99116" lon="4.75619">
        <ele>172.199996948</ele>
        <time>2015-12-12T10:55:17.782Z</time>
      </trkpt>
      <trkpt lat="45.99112" lon="4.75625">
        <ele>172.100006104</ele>
        <time>2015-12-12T10:55:18.761Z</time>
      </trkpt>
      <trkpt lat="45.99109" lon="4.75631">
        <ele>172.199996948</ele>
        <time>2015-12-12T10:55:19.796Z</time>
      </trkpt>
      <trkpt lat="45.99106" lon="4.75637">
        <ele>172.399993896</ele>
        <time>2015-12-12T10:55:20.761Z</time>
      </trkpt>
      <trkpt lat="45.99101" lon="4.75642">
        <ele>172.399993896</ele>
        <time>2015-12-12T10:55:21.778Z</time>
      </trkpt>
      <trkpt lat="45.99097" lon="4.75647">
        <ele>172.699996948</ele>
        <time>2015-12-12T10:55:22.761Z</time>
      </trkpt>
      <trkpt lat="45.99091" lon="4.7565">
        <ele>172.899993896</ele>
        <time>2015-12-12T10:55:23.78Z</time>
      </trkpt>
      <trkpt lat="45.99086" lon="4.75653">
        <ele>173</ele>
        <time>2015-12-12T10:55:24.76Z</time>
      </trkpt>
      <trkpt lat="45.9908" lon="4.75654">
        <ele>173.300003052</ele>
        <time>2015-12-12T10:55:25.779Z</time>
      </trkpt>
      <trkpt lat="45.99074" lon="4.75656">
        <ele>173.5</ele>
        <time>2015-12-12T10:55:26.76Z</time>
      </trkpt>
      <trkpt lat="45.99067" lon="4.75656">
        <ele>173.899993896</ele>
        <time>2015-12-12T10:55:27.778Z</time>
      </trkpt>
      <trkpt lat="45.99061" lon="4.75655">
        <ele>174.100006104</ele>
        <time>2015-12-12T10:55:28.761Z</time>
      </trkpt>
      <trkpt lat="45.99055" lon="4.75655">
        <ele>174.300003052</ele>
        <time>2015-12-12T10:55:29.795Z</time>
      </trkpt>
      <trkpt lat="45.99048" lon="4.75655">
        <ele>174.300003052</ele>
        <time>2015-12-12T10:55:30.761Z</time>
      </trkpt>
      <trkpt lat="45.99043" lon="4.75655">
        <ele>174.5</ele>
        <time>2015-12-12T10:55:31.779Z</time>
      </trkpt>
      <trkpt lat="45.99037" lon="4.75656">
        <ele>174.600006104</ele>
        <time>2015-12-12T10:55:32.761Z</time>
      </trkpt>
      <trkpt lat="45.99031" lon="4.75657">
        <ele>174.600006104</ele>
        <time>2015-12-12T10:55:33.777Z</time>
      </trkpt>
      <trkpt lat="45.99025" lon="4.75657">
        <ele>174.699996948</ele>
        <time>2015-12-12T10:55:34.76Z</time>
      </trkpt>
      <trkpt lat="45.99019" lon="4.75657">
        <ele>174.699996948</ele>
        <time>2015-12-12T10:55:35.831Z</time>
      </trkpt>
      <trkpt lat="45.99013" lon="4.75657">
        <ele>174.600006104</ele>
        <time>2015-12-12T10:55:36.761Z</time>
      </trkpt>
      <trkpt lat="45.99007" lon="4.75658">
        <ele>174.5</ele>
        <time>2015-12-12T10:55:37.779Z</time>
      </trkpt>
      <trkpt lat="45.99" lon="4.75658">
        <ele>174.5</ele>
        <time>2015-12-12T10:55:38.761Z</time>
      </trkpt>
      <trkpt lat="45.98993" lon="4.75659">
        <ele>174.600006104</ele>
        <time>2015-12-12T10:55:39.8Z</time>
      </trkpt>
      <trkpt lat="45.98987" lon="4.75659">
        <ele>174.600006104</ele>
        <time>2015-12-12T10:55:40.775Z</time>
      </trkpt>
      <trkpt lat="45.9898" lon="4.75659">
        <ele>174.899993896</ele>
        <time>2015-12-12T10:55:41.781Z</time>
      </trkpt>
      <trkpt lat="45.98973" lon="4.7566">
        <ele>175.300003052</ele>
        <time>2015-12-12T10:55:42.76Z</time>
      </trkpt>
      <trkpt lat="45.98966" lon="4.75661">
        <ele>175.5</ele>
        <time>2015-12-12T10:55:43.779Z</time>
      </trkpt>
      <trkpt lat="45.98959" lon="4.75662">
        <ele>175.699996948</ele>
        <time>2015-12-12T10:55:44.761Z</time>
      </trkpt>
      <trkpt lat="45.98953" lon="4.75664">
        <ele>175.800003052</ele>
        <time>2015-12-12T10:55:45.778Z</time>
      </trkpt>
      <trkpt lat="45.98946" lon="4.75666">
        <ele>176.100006104</ele>
        <time>2015-12-12T10:55:46.76Z</time>
      </trkpt>
      <trkpt lat="45.98939" lon="4.75668">
        <ele>176.199996948</ele>
        <time>2015-12-12T10:55:47.782Z</time>
      </trkpt>
      <trkpt lat="45.98933" lon="4.7567">
        <ele>176.600006104</ele>
        <time>2015-12-12T10:55:48.761Z</time>
      </trkpt>
      <trkpt lat="45.98926" lon="4.75672">
        <ele>176.899993896</ele>
        <time>2015-12-12T10:55:49.802Z</time>
      </trkpt>
      <trkpt lat="45.9892" lon="4.75675">
        <ele>177.300003052</ele>
        <time>2015-12-12T10:55:50.763Z</time>
      </trkpt>
      <trkpt lat="45.98913" lon="4.75677">
        <ele>178.100006104</ele>
        <time>2015-12-12T10:55:51.777Z</time>
      </trkpt>
      <trkpt lat="45.98907" lon="4.7568">
        <ele>178.699996948</ele>
        <time>2015-12-12T10:55:52.761Z</time>
      </trkpt>
      <trkpt lat="45.98901" lon="4.75683">
        <ele>179.399993896</ele>
        <time>2015-12-12T10:55:53.783Z</time>
      </trkpt>
      <trkpt lat="45.98894" lon="4.75686">
        <ele>179.800003052</ele>
        <time>2015-12-12T10:55:54.76Z</time>
      </trkpt>
      <trkpt lat="45.98888" lon="4.75688">
        <ele>180.300003052</ele>
        <time>2015-12-12T10:55:55.78Z</time>
      </trkpt>
      <trkpt lat="45.98881" lon="4.75691">
        <ele>180.699996948</ele>
        <time>2015-12-12T10:55:56.776Z</time>
      </trkpt>
      <trkpt lat="45.98875" lon="4.75694">
        <ele>180.800003052</ele>
        <time>2015-12-12T10:55:57.779Z</time>
      </trkpt>
      <trkpt lat="45.98869" lon="4.75696">
        <ele>180.899993896</ele>
        <time>2015-12-12T10:55:58.76Z</time>
      </trkpt>
      <trkpt lat="45.98862" lon="4.75698">
        <ele>181.100006104</ele>
        <time>2015-12-12T10:55:59.78Z</time>
      </trkpt>
      <trkpt lat="45.98856" lon="4.75699">
        <ele>181.399993896</ele>
        <time>2015-12-12T10:56:00.761Z</time>
      </trkpt>
      <trkpt lat="45.9885" lon="4.75699">
        <ele>181.699996948</ele>
        <time>2015-12-12T10:56:01.779Z</time>
      </trkpt>
      <trkpt lat="45.98845" lon="4.757">
        <ele>181.899993896</ele>
        <time>2015-12-12T10:56:02.76Z</time>
      </trkpt>
      <trkpt lat="45.98839" lon="4.757">
        <ele>181.800003052</ele>
        <time>2015-12-12T10:56:03.777Z</time>
      </trkpt>
      <trkpt lat="45.98834" lon="4.757">
        <ele>181.800003052</ele>
        <time>2015-12-12T10:56:04.76Z</time>
      </trkpt>
      <trkpt lat="45.98828" lon="4.75701">
        <ele>181.699996948</ele>
        <time>2015-12-12T10:56:05.781Z</time>
      </trkpt>
      <trkpt lat="45.98822" lon="4.75701">
        <ele>182.100006104</ele>
        <time>2015-12-12T10:56:06.76Z</time>
      </trkpt>
      <trkpt lat="45.98817" lon="4.75702">
        <ele>181.800003052</ele>
        <time>2015-12-12T10:56:07.778Z</time>
      </trkpt>
      <trkpt lat="45.98812" lon="4.75704">
        <ele>181.5</ele>
        <time>2015-12-12T10:56:08.76Z</time>
      </trkpt>
      <trkpt lat="45.98806" lon="4.75704">
        <ele>181.899993896</ele>
        <time>2015-12-12T10:56:09.778Z</time>
      </trkpt>
      <trkpt lat="45.98801" lon="4.75705">
        <ele>181.699996948</ele>
        <time>2015-12-12T10:56:10.76Z</time>
      </trkpt>
      <trkpt lat="45.98795" lon="4.75707">
        <ele>181.199996948</ele>
        <time>2015-12-12T10:56:11.779Z</time>
      </trkpt>
      <trkpt lat="45.9879" lon="4.75708">
        <ele>181.600006104</ele>
        <time>2015-12-12T10:56:12.76Z</time>
      </trkpt>
      <trkpt lat="45.98786" lon="4.7571">
        <ele>180.399993896</ele>
        <time>2015-12-12T10:56:13.778Z</time>
      </trkpt>
      <trkpt lat="45.98781" lon="4.7571">
        <ele>180.300003052</ele>
        <time>2015-12-12T10:56:14.761Z</time>
      </trkpt>
      <trkpt lat="45.98774" lon="4.75711">
        <ele>179</ele>
        <time>2015-12-12T10:56:16.777Z</time>
      </trkpt>
      <trkpt lat="45.98771" lon="4.7571">
        <ele>179.100006104</ele>
        <time>2015-12-12T10:56:17.777Z</time>
      </trkpt>
      <trkpt lat="45.98764" lon="4.75709">
        <ele>178.899993896</ele>
        <time>2015-12-12T10:56:19.779Z</time>
      </trkpt>
      <trkpt lat="45.98761" lon="4.7571">
        <ele>178.800003052</ele>
        <time>2015-12-12T10:56:20.761Z</time>
      </trkpt>
      <trkpt lat="45.98757" lon="4.75721">
        <ele>178.800003052</ele>
        <time>2015-12-12T10:56:22.779Z</time>
      </trkpt>
      <trkpt lat="45.98758" lon="4.75727">
        <ele>178.199996948</ele>
        <time>2015-12-12T10:56:23.791Z</time>
      </trkpt>
      <trkpt lat="45.98759" lon="4.7574">
        <ele>178.699996948</ele>
        <time>2015-12-12T10:56:25.778Z</time>
      </trkpt>
      <trkpt lat="45.98758" lon="4.75746">
        <ele>179.100006104</ele>
        <time>2015-12-12T10:56:26.76Z</time>
      </trkpt>
      <trkpt lat="45.98757" lon="4.75753">
        <ele>179.5</ele>
        <time>2015-12-12T10:56:27.777Z</time>
      </trkpt>
      <trkpt lat="45.98756" lon="4.75759">
        <ele>179.899993896</ele>
        <time>2015-12-12T10:56:28.761Z</time>
      </trkpt>
      <trkpt lat="45.98754" lon="4.75766">
        <ele>180.199996948</ele>
        <time>2015-12-12T10:56:29.781Z</time>
      </trkpt>
      <trkpt lat="45.98753" lon="4.75773">
        <ele>180.100006104</ele>
        <time>2015-12-12T10:56:30.761Z</time>
      </trkpt>
      <trkpt lat="45.98752" lon="4.7578">
        <ele>180.199996948</ele>
        <time>2015-12-12T10:56:31.779Z</time>
      </trkpt>
      <trkpt lat="45.9875" lon="4.75787">
        <ele>180.199996948</ele>
        <time>2015-12-12T10:56:32.76Z</time>
      </trkpt>
      <trkpt lat="45.98749" lon="4.75794">
        <ele>180.300003052</ele>
        <time>2015-12-12T10:56:33.778Z</time>
      </trkpt>
      <trkpt lat="45.98749" lon="4.75801">
        <ele>180.300003052</ele>
        <time>2015-12-12T10:56:34.76Z</time>
      </trkpt>
      <trkpt lat="45.98748" lon="4.75808">
        <ele>180.199996948</ele>
        <time>2015-12-12T10:56:35.821Z</time>
      </trkpt>
      <trkpt lat="45.98747" lon="4.75815">
        <ele>180.300003052</ele>
        <time>2015-12-12T10:56:36.76Z</time>
      </trkpt>
      <trkpt lat="45.98746" lon="4.75822">
        <ele>180.100006104</ele>
        <time>2015-12-12T10:56:37.78Z</time>
      </trkpt>
      <trkpt lat="45.98745" lon="4.7583">
        <ele>179.899993896</ele>
        <time>2015-12-12T10:56:38.761Z</time>
      </trkpt>
      <trkpt lat="45.98744" lon="4.75838">
        <ele>179.899993896</ele>
        <time>2015-12-12T10:56:39.778Z</time>
      </trkpt>
      <trkpt lat="45.98743" lon="4.75845">
        <ele>180.100006104</ele>
        <time>2015-12-12T10:56:40.76Z</time>
      </trkpt>
      <trkpt lat="45.98742" lon="4.75852">
        <ele>180.199996948</ele>
        <time>2015-12-12T10:56:41.78Z</time>
      </trkpt>
      <trkpt lat="45.98741" lon="4.75859">
        <ele>180.5</ele>
        <time>2015-12-12T10:56:42.76Z</time>
      </trkpt>
      <trkpt lat="45.98739" lon="4.75866">
        <ele>180.399993896</ele>
        <time>2015-12-12T10:56:43.803Z</time>
      </trkpt>
      <trkpt lat="45.98737" lon="4.75873">
        <ele>180.199996948</ele>
        <time>2015-12-12T10:56:44.76Z</time>
      </trkpt>
      <trkpt lat="45.98735" lon="4.75881">
        <ele>180.800003052</ele>
        <time>2015-12-12T10:56:45.777Z</time>
      </trkpt>
      <trkpt lat="45.98734" lon="4.75888">
        <ele>180.899993896</ele>
        <time>2015-12-12T10:56:46.76Z</time>
      </trkpt>
      <trkpt lat="45.98732" lon="4.75895">
        <ele>180.399993896</ele>
        <time>2015-12-12T10:56:47.782Z</time>
      </trkpt>
      <trkpt lat="45.98731" lon="4.75902">
        <ele>180</ele>
        <time>2015-12-12T10:56:48.761Z</time>
      </trkpt>
      <trkpt lat="45.98729" lon="4.75909">
        <ele>179.699996948</ele>
        <time>2015-12-12T10:56:49.778Z</time>
      </trkpt>
      <trkpt lat="45.98728" lon="4.75916">
        <ele>179.399993896</ele>
        <time>2015-12-12T10:56:50.763Z</time>
      </trkpt>
      <trkpt lat="45.98727" lon="4.75923">
        <ele>179.100006104</ele>
        <time>2015-12-12T10:56:51.777Z</time>
      </trkpt>
      <trkpt lat="45.98726" lon="4.7593">
        <ele>178.899993896</ele>
        <time>2015-12-12T10:56:52.76Z</time>
      </trkpt>
      <trkpt lat="45.98725" lon="4.75938">
        <ele>178.899993896</ele>
        <time>2015-12-12T10:56:53.792Z</time>
      </trkpt>
      <trkpt lat="45.98725" lon="4.75945">
        <ele>178.899993896</ele>
        <time>2015-12-12T10:56:54.76Z</time>
      </trkpt>
      <trkpt lat="45.98724" lon="4.75952">
        <ele>179.100006104</ele>
        <time>2015-12-12T10:56:55.779Z</time>
      </trkpt>
      <trkpt lat="45.98723" lon="4.7596">
        <ele>179.5</ele>
        <time>2015-12-12T10:56:56.761Z</time>
      </trkpt>
      <trkpt lat="45.98722" lon="4.75967">
        <ele>179.600006104</ele>
        <time>2015-12-12T10:56:57.777Z</time>
      </trkpt>
      <trkpt lat="45.98722" lon="4.75975">
        <ele>179.600006104</ele>
        <time>2015-12-12T10:56:58.76Z</time>
      </trkpt>
      <trkpt lat="45.98721" lon="4.75982">
        <ele>179.399993896</ele>
        <time>2015-12-12T10:56:59.938Z</time>
      </trkpt>
      <trkpt lat="45.9872" lon="4.75989">
        <ele>179.600006104</ele>
        <time>2015-12-12T10:57:00.76Z</time>
      </trkpt>
      <trkpt lat="45.9872" lon="4.75997">
        <ele>179.600006104</ele>
        <time>2015-12-12T10:57:01.778Z</time>
      </trkpt>
      <trkpt lat="45.98719" lon="4.76005">
        <ele>179.300003052</ele>
        <time>2015-12-12T10:57:02.76Z</time>
      </trkpt>
      <trkpt lat="45.98718" lon="4.76013">
        <ele>179.300003052</ele>
        <time>2015-12-12T10:57:03.777Z</time>
      </trkpt>
      <trkpt lat="45.98717" lon="4.7602">
        <ele>179.199996948</ele>
        <time>2015-12-12T10:57:04.76Z</time>
      </trkpt>
      <trkpt lat="45.98716" lon="4.76027">
        <ele>179.300003052</ele>
        <time>2015-12-12T10:57:05.78Z</time>
      </trkpt>
      <trkpt lat="45.98715" lon="4.76033">
        <ele>179.300003052</ele>
        <time>2015-12-12T10:57:06.76Z</time>
      </trkpt>
      <trkpt lat="45.98714" lon="4.7604">
        <ele>179.399993896</ele>
        <time>2015-12-12T10:57:07.778Z</time>
      </trkpt>
      <trkpt lat="45.98714" lon="4.76046">
        <ele>179.300003052</ele>
        <time>2015-12-12T10:57:08.76Z</time>
      </trkpt>
      <trkpt lat="45.98713" lon="4.76053">
        <ele>179.5</ele>
        <time>2015-12-12T10:57:09.777Z</time>
      </trkpt>
      <trkpt lat="45.98713" lon="4.76061">
        <ele>179.600006104</ele>
        <time>2015-12-12T10:57:10.761Z</time>
      </trkpt>
      <trkpt lat="45.98713" lon="4.76069">
        <ele>178.399993896</ele>
        <time>2015-12-12T10:57:11.821Z</time>
      </trkpt>
      <trkpt lat="45.98712" lon="4.76076">
        <ele>179.100006104</ele>
        <time>2015-12-12T10:57:12.761Z</time>
      </trkpt>
      <trkpt lat="45.98711" lon="4.76083">
        <ele>179.300003052</ele>
        <time>2015-12-12T10:57:13.78Z</time>
      </trkpt>
      <trkpt lat="45.98711" lon="4.76089">
        <ele>179.600006104</ele>
        <time>2015-12-12T10:57:14.76Z</time>
      </trkpt>
      <trkpt lat="45.98711" lon="4.76096">
        <ele>179.699996948</ele>
        <time>2015-12-12T10:57:15.777Z</time>
      </trkpt>
      <trkpt lat="45.9871" lon="4.76103">
        <ele>179.899993896</ele>
        <time>2015-12-12T10:57:16.76Z</time>
      </trkpt>
      <trkpt lat="45.98711" lon="4.76109">
        <ele>180</ele>
        <time>2015-12-12T10:57:17.787Z</time>
      </trkpt>
      <trkpt lat="45.9871" lon="4.76116">
        <ele>180.300003052</ele>
        <time>2015-12-12T10:57:18.761Z</time>
      </trkpt>
      <trkpt lat="45.98709" lon="4.76122">
        <ele>180.5</ele>
        <time>2015-12-12T10:57:19.794Z</time>
      </trkpt>
      <trkpt lat="45.98708" lon="4.76129">
        <ele>180.699996948</ele>
        <time>2015-12-12T10:57:20.774Z</time>
      </trkpt>
      <trkpt lat="45.98708" lon="4.76135">
        <ele>180.899993896</ele>
        <time>2015-12-12T10:57:21.777Z</time>
      </trkpt>
      <trkpt lat="45.98707" lon="4.76142">
        <ele>181.100006104</ele>
        <time>2015-12-12T10:57:22.76Z</time>
      </trkpt>
      <trkpt lat="45.98706" lon="4.76149">
        <ele>180.699996948</ele>
        <time>2015-12-12T10:57:23.908Z</time>
      </trkpt>
      <trkpt lat="45.98705" lon="4.76156">
        <ele>180.899993896</ele>
        <time>2015-12-12T10:57:24.76Z</time>
      </trkpt>
      <trkpt lat="45.98704" lon="4.76162">
        <ele>180.5</ele>
        <time>2015-12-12T10:57:25.778Z</time>
      </trkpt>
      <trkpt lat="45.98704" lon="4.76169">
        <ele>180.399993896</ele>
        <time>2015-12-12T10:57:26.761Z</time>
      </trkpt>
      <trkpt lat="45.98703" lon="4.76182">
        <ele>180.699996948</ele>
        <time>2015-12-12T10:57:28.777Z</time>
      </trkpt>
      <trkpt lat="45.98702" lon="4.76188">
        <ele>180.399993896</ele>
        <time>2015-12-12T10:57:29.763Z</time>
      </trkpt>
      <trkpt lat="45.98702" lon="4.76195">
        <ele>180.5</ele>
        <time>2015-12-12T10:57:30.778Z</time>
      </trkpt>
      <trkpt lat="45.98701" lon="4.76202">
        <ele>180.600006104</ele>
        <time>2015-12-12T10:57:31.762Z</time>
      </trkpt>
      <trkpt lat="45.987" lon="4.76208">
        <ele>180.800003052</ele>
        <time>2015-12-12T10:57:32.777Z</time>
      </trkpt>
      <trkpt lat="45.98698" lon="4.76214">
        <ele>181.300003052</ele>
        <time>2015-12-12T10:57:33.76Z</time>
      </trkpt>
      <trkpt lat="45.98695" lon="4.7622">
        <ele>181.800003052</ele>
        <time>2015-12-12T10:57:34.778Z</time>
      </trkpt>
      <trkpt lat="45.98691" lon="4.76224">
        <ele>182.100006104</ele>
        <time>2015-12-12T10:57:35.786Z</time>
      </trkpt>
      <trkpt lat="45.98687" lon="4.76227">
        <ele>182.199996948</ele>
        <time>2015-12-12T10:57:36.791Z</time>
      </trkpt>
      <trkpt lat="45.98682" lon="4.76229">
        <ele>182.600006104</ele>
        <time>2015-12-12T10:57:37.761Z</time>
      </trkpt>
      <trkpt lat="45.98677" lon="4.7623">
        <ele>182.899993896</ele>
        <time>2015-12-12T10:57:38.777Z</time>
      </trkpt>
      <trkpt lat="45.98672" lon="4.76229">
        <ele>183.300003052</ele>
        <time>2015-12-12T10:57:39.763Z</time>
      </trkpt>
      <trkpt lat="45.98667" lon="4.76228">
        <ele>183.800003052</ele>
        <time>2015-12-12T10:57:40.777Z</time>
      </trkpt>
      <trkpt lat="45.98662" lon="4.76226">
        <ele>184</ele>
        <time>2015-12-12T10:57:41.764Z</time>
      </trkpt>
      <trkpt lat="45.98657" lon="4.76225">
        <ele>184</ele>
        <time>2015-12-12T10:57:42.777Z</time>
      </trkpt>
      <trkpt lat="45.98652" lon="4.76225">
        <ele>184.100006104</ele>
        <time>2015-12-12T10:57:43.761Z</time>
      </trkpt>
      <trkpt lat="45.98646" lon="4.76224">
        <ele>184.199996948</ele>
        <time>2015-12-12T10:57:44.777Z</time>
      </trkpt>
      <trkpt lat="45.98641" lon="4.76223">
        <ele>184</ele>
        <time>2015-12-12T10:57:45.76Z</time>
      </trkpt>
      <trkpt lat="45.98636" lon="4.76222">
        <ele>184.100006104</ele>
        <time>2015-12-12T10:57:46.777Z</time>
      </trkpt>
      <trkpt lat="45.98631" lon="4.76221">
        <ele>183.899993896</ele>
        <time>2015-12-12T10:57:47.763Z</time>
      </trkpt>
      <trkpt lat="45.98626" lon="4.7622">
        <ele>183.699996948</ele>
        <time>2015-12-12T10:57:48.776Z</time>
      </trkpt>
      <trkpt lat="45.98621" lon="4.76218">
        <ele>183.800003052</ele>
        <time>2015-12-12T10:57:49.761Z</time>
      </trkpt>
      <trkpt lat="45.98617" lon="4.76215">
        <ele>184.100006104</ele>
        <time>2015-12-12T10:57:50.779Z</time>
      </trkpt>
      <trkpt lat="45.98613" lon="4.76213">
        <ele>184.100006104</ele>
        <time>2015-12-12T10:57:51.76Z</time>
      </trkpt>
      <trkpt lat="45.98604" lon="4.7621">
        <ele>182.199996948</ele>
        <time>2015-12-12T10:58:08.777Z</time>
      </trkpt>
      <trkpt lat="45.98604" lon="4.7621">
        <ele>182.199996948</ele>
        <time>2015-12-12T10:58:09.76Z</time>
      </trkpt>
      <trkpt lat="45.98601" lon="4.76221">
        <ele>183.199996948</ele>
        <time>2015-12-12T10:58:12.777Z</time>
      </trkpt>
      <trkpt lat="45.98601" lon="4.76228">
        <ele>183.5</ele>
        <time>2015-12-12T10:58:13.774Z</time>
      </trkpt>
      <trkpt lat="45.98599" lon="4.76239">
        <ele>183.600006104</ele>
        <time>2015-12-12T10:58:15.776Z</time>
      </trkpt>
      <trkpt lat="45.98599" lon="4.76245">
        <ele>183.5</ele>
        <time>2015-12-12T10:58:16.76Z</time>
      </trkpt>
      <trkpt lat="45.98598" lon="4.76258">
        <ele>183.600006104</ele>
        <time>2015-12-12T10:58:18.777Z</time>
      </trkpt>
      <trkpt lat="45.98598" lon="4.76265">
        <ele>183.5</ele>
        <time>2015-12-12T10:58:19.761Z</time>
      </trkpt>
      <trkpt lat="45.98597" lon="4.76273">
        <ele>183.399993896</ele>
        <time>2015-12-12T10:58:20.776Z</time>
      </trkpt>
      <trkpt lat="45.98597" lon="4.7628">
        <ele>183.5</ele>
        <time>2015-12-12T10:58:21.76Z</time>
      </trkpt>
      <trkpt lat="45.98597" lon="4.76287">
        <ele>183.600006104</ele>
        <time>2015-12-12T10:58:22.777Z</time>
      </trkpt>
      <trkpt lat="45.98597" lon="4.76295">
        <ele>183.5</ele>
        <time>2015-12-12T10:58:23.763Z</time>
      </trkpt>
      <trkpt lat="45.98597" lon="4.76302">
        <ele>183.5</ele>
        <time>2015-12-12T10:58:24.777Z</time>
      </trkpt>
      <trkpt lat="45.98597" lon="4.7631">
        <ele>183.300003052</ele>
        <time>2015-12-12T10:58:25.761Z</time>
      </trkpt>
      <trkpt lat="45.98596" lon="4.76318">
        <ele>183.100006104</ele>
        <time>2015-12-12T10:58:26.9Z</time>
      </trkpt>
      <trkpt lat="45.98597" lon="4.76326">
        <ele>182.699996948</ele>
        <time>2015-12-12T10:58:27.76Z</time>
      </trkpt>
      <trkpt lat="45.98598" lon="4.76334">
        <ele>182.399993896</ele>
        <time>2015-12-12T10:58:28.777Z</time>
      </trkpt>
      <trkpt lat="45.986" lon="4.76341">
        <ele>182.399993896</ele>
        <time>2015-12-12T10:58:29.763Z</time>
      </trkpt>
      <trkpt lat="45.98602" lon="4.76348">
        <ele>182.5</ele>
        <time>2015-12-12T10:58:30.777Z</time>
      </trkpt>
      <trkpt lat="45.98605" lon="4.76355">
        <ele>182</ele>
        <time>2015-12-12T10:58:31.764Z</time>
      </trkpt>
      <trkpt lat="45.98606" lon="4.76362">
        <ele>181.699996948</ele>
        <time>2015-12-12T10:58:32.779Z</time>
      </trkpt>
      <trkpt lat="45.98608" lon="4.76369">
        <ele>181.100006104</ele>
        <time>2015-12-12T10:58:33.76Z</time>
      </trkpt>
      <trkpt lat="45.98609" lon="4.76375">
        <ele>181.399993896</ele>
        <time>2015-12-12T10:58:34.792Z</time>
      </trkpt>
      <trkpt lat="45.98611" lon="4.76382">
        <ele>181.399993896</ele>
        <time>2015-12-12T10:58:35.763Z</time>
      </trkpt>
      <trkpt lat="45.98612" lon="4.76388">
        <ele>181.300003052</ele>
        <time>2015-12-12T10:58:36.778Z</time>
      </trkpt>
      <trkpt lat="45.98614" lon="4.76394">
        <ele>181.100006104</ele>
        <time>2015-12-12T10:58:37.761Z</time>
      </trkpt>
      <trkpt lat="45.98617" lon="4.764">
        <ele>181.100006104</ele>
        <time>2015-12-12T10:58:38.776Z</time>
      </trkpt>
      <trkpt lat="45.9862" lon="4.76405">
        <ele>181.100006104</ele>
        <time>2015-12-12T10:58:39.76Z</time>
      </trkpt>
      <trkpt lat="45.98623" lon="4.7641">
        <ele>181.399993896</ele>
        <time>2015-12-12T10:58:40.777Z</time>
      </trkpt>
      <trkpt lat="45.98627" lon="4.76415">
        <ele>181.199996948</ele>
        <time>2015-12-12T10:58:41.763Z</time>
      </trkpt>
      <trkpt lat="45.98631" lon="4.7642">
        <ele>181.100006104</ele>
        <time>2015-12-12T10:58:42.776Z</time>
      </trkpt>
      <trkpt lat="45.98636" lon="4.76425">
        <ele>181.199996948</ele>
        <time>2015-12-12T10:58:43.762Z</time>
      </trkpt>
      <trkpt lat="45.98641" lon="4.76428">
        <ele>181.199996948</ele>
        <time>2015-12-12T10:58:44.776Z</time>
      </trkpt>
      <trkpt lat="45.98646" lon="4.76432">
        <ele>181.300003052</ele>
        <time>2015-12-12T10:58:45.76Z</time>
      </trkpt>
      <trkpt lat="45.98651" lon="4.76435">
        <ele>181.399993896</ele>
        <time>2015-12-12T10:58:46.777Z</time>
      </trkpt>
      <trkpt lat="45.98656" lon="4.76438">
        <ele>181.600006104</ele>
        <time>2015-12-12T10:58:47.763Z</time>
      </trkpt>
      <trkpt lat="45.98661" lon="4.76442">
        <ele>181.699996948</ele>
        <time>2015-12-12T10:58:48.783Z</time>
      </trkpt>
      <trkpt lat="45.98665" lon="4.76446">
        <ele>181.699996948</ele>
        <time>2015-12-12T10:58:49.761Z</time>
      </trkpt>
      <trkpt lat="45.98669" lon="4.76449">
        <ele>181.5</ele>
        <time>2015-12-12T10:58:50.794Z</time>
      </trkpt>
      <trkpt lat="45.98672" lon="4.76453">
        <ele>181.199996948</ele>
        <time>2015-12-12T10:58:51.76Z</time>
      </trkpt>
      <trkpt lat="45.98676" lon="4.76457">
        <ele>181.300003052</ele>
        <time>2015-12-12T10:58:52.776Z</time>
      </trkpt>
      <trkpt lat="45.9868" lon="4.76461">
        <ele>181.399993896</ele>
        <time>2015-12-12T10:58:53.763Z</time>
      </trkpt>
      <trkpt lat="45.98684" lon="4.76465">
        <ele>181.199996948</ele>
        <time>2015-12-12T10:58:54.776Z</time>
      </trkpt>
      <trkpt lat="45.98689" lon="4.76469">
        <ele>181.100006104</ele>
        <time>2015-12-12T10:58:55.761Z</time>
      </trkpt>
      <trkpt lat="45.98693" lon="4.76472">
        <ele>181.100006104</ele>
        <time>2015-12-12T10:58:56.776Z</time>
      </trkpt>
      <trkpt lat="45.98698" lon="4.76476">
        <ele>181.199996948</ele>
        <time>2015-12-12T10:58:57.762Z</time>
      </trkpt>
      <trkpt lat="45.98702" lon="4.7648">
        <ele>181.100006104</ele>
        <time>2015-12-12T10:58:58.777Z</time>
      </trkpt>
      <trkpt lat="45.98707" lon="4.76483">
        <ele>181.199996948</ele>
        <time>2015-12-12T10:58:59.763Z</time>
      </trkpt>
      <trkpt lat="45.98711" lon="4.76487">
        <ele>181.399993896</ele>
        <time>2015-12-12T10:59:00.777Z</time>
      </trkpt>
      <trkpt lat="45.98715" lon="4.76491">
        <ele>181.600006104</ele>
        <time>2015-12-12T10:59:01.761Z</time>
      </trkpt>
      <trkpt lat="45.98719" lon="4.76495">
        <ele>181.699996948</ele>
        <time>2015-12-12T10:59:02.777Z</time>
      </trkpt>
      <trkpt lat="45.98723" lon="4.76498">
        <ele>182.300003052</ele>
        <time>2015-12-12T10:59:03.76Z</time>
      </trkpt>
      <trkpt lat="45.98727" lon="4.76503">
        <ele>182.399993896</ele>
        <time>2015-12-12T10:59:04.777Z</time>
      </trkpt>
      <trkpt lat="45.98731" lon="4.76507">
        <ele>182.5</ele>
        <time>2015-12-12T10:59:05.763Z</time>
      </trkpt>
      <trkpt lat="45.98735" lon="4.76511">
        <ele>182.199996948</ele>
        <time>2015-12-12T10:59:06.791Z</time>
      </trkpt>
      <trkpt lat="45.98739" lon="4.76515">
        <ele>182.100006104</ele>
        <time>2015-12-12T10:59:07.761Z</time>
      </trkpt>
      <trkpt lat="45.98743" lon="4.76519">
        <ele>182.399993896</ele>
        <time>2015-12-12T10:59:08.777Z</time>
      </trkpt>
      <trkpt lat="45.98746" lon="4.76523">
        <ele>182.600006104</ele>
        <time>2015-12-12T10:59:09.76Z</time>
      </trkpt>
      <trkpt lat="45.98753" lon="4.7653">
        <ele>184.199996948</ele>
        <time>2015-12-12T10:59:11.78Z</time>
      </trkpt>
      <trkpt lat="45.98756" lon="4.76534">
        <ele>184.5</ele>
        <time>2015-12-12T10:59:12.76Z</time>
      </trkpt>
      <trkpt lat="45.9876" lon="4.76539">
        <ele>184.600006104</ele>
        <time>2015-12-12T10:59:13.811Z</time>
      </trkpt>
      <trkpt lat="45.98763" lon="4.76544">
        <ele>184.300003052</ele>
        <time>2015-12-12T10:59:14.76Z</time>
      </trkpt>
      <trkpt lat="45.98771" lon="4.76551">
        <ele>184.199996948</ele>
        <time>2015-12-12T10:59:16.776Z</time>
      </trkpt>
      <trkpt lat="45.98775" lon="4.76554">
        <ele>183.899993896</ele>
        <time>2015-12-12T10:59:17.764Z</time>
      </trkpt>
      <trkpt lat="45.98782" lon="4.76561">
        <ele>183.800003052</ele>
        <time>2015-12-12T10:59:19.777Z</time>
      </trkpt>
      <trkpt lat="45.98785" lon="4.76565">
        <ele>184</ele>
        <time>2015-12-12T10:59:20.76Z</time>
      </trkpt>
      <trkpt lat="45.98791" lon="4.76572">
        <ele>184</ele>
        <time>2015-12-12T10:59:22.777Z</time>
      </trkpt>
      <trkpt lat="45.98795" lon="4.76575">
        <ele>183.199996948</ele>
        <time>2015-12-12T10:59:23.764Z</time>
      </trkpt>
      <trkpt lat="45.98801" lon="4.76582">
        <ele>184</ele>
        <time>2015-12-12T10:59:25.778Z</time>
      </trkpt>
      <trkpt lat="45.98804" lon="4.76585">
        <ele>184.800003052</ele>
        <time>2015-12-12T10:59:26.76Z</time>
      </trkpt>
      <trkpt lat="45.9881" lon="4.76591">
        <ele>184.600006104</ele>
        <time>2015-12-12T10:59:28.776Z</time>
      </trkpt>
      <trkpt lat="45.98813" lon="4.76594">
        <ele>184.800003052</ele>
        <time>2015-12-12T10:59:29.763Z</time>
      </trkpt>
      <trkpt lat="45.98819" lon="4.766">
        <ele>184.899993896</ele>
        <time>2015-12-12T10:59:31.777Z</time>
      </trkpt>
      <trkpt lat="45.98822" lon="4.76604">
        <ele>184.899993896</ele>
        <time>2015-12-12T10:59:32.76Z</time>
      </trkpt>
      <trkpt lat="45.98828" lon="4.7661">
        <ele>184.5</ele>
        <time>2015-12-12T10:59:34.777Z</time>
      </trkpt>
      <trkpt lat="45.98831" lon="4.76613">
        <ele>184.399993896</ele>
        <time>2015-12-12T10:59:35.763Z</time>
      </trkpt>
      <trkpt lat="45.98836" lon="4.76619">
        <ele>184.399993896</ele>
        <time>2015-12-12T10:59:37.779Z</time>
      </trkpt>
      <trkpt lat="45.98839" lon="4.76623">
        <ele>184.199996948</ele>
        <time>2015-12-12T10:59:38.76Z</time>
      </trkpt>
      <trkpt lat="45.98845" lon="4.76629">
        <ele>184.5</ele>
        <time>2015-12-12T10:59:40.776Z</time>
      </trkpt>
      <trkpt lat="45.98849" lon="4.76632">
        <ele>184.5</ele>
        <time>2015-12-12T10:59:41.762Z</time>
      </trkpt>
      <trkpt lat="45.98855" lon="4.76639">
        <ele>184.600006104</ele>
        <time>2015-12-12T10:59:43.792Z</time>
      </trkpt>
      <trkpt lat="45.98858" lon="4.76642">
        <ele>184.5</ele>
        <time>2015-12-12T10:59:44.76Z</time>
      </trkpt>
      <trkpt lat="45.98865" lon="4.7665">
        <ele>184.199996948</ele>
        <time>2015-12-12T10:59:46.776Z</time>
      </trkpt>
      <trkpt lat="45.98869" lon="4.76653">
        <ele>184.800003052</ele>
        <time>2015-12-12T10:59:47.763Z</time>
      </trkpt>
      <trkpt lat="45.98876" lon="4.76659">
        <ele>184.899993896</ele>
        <time>2015-12-12T10:59:49.78Z</time>
      </trkpt>
      <trkpt lat="45.98879" lon="4.76663">
        <ele>185.100006104</ele>
        <time>2015-12-12T10:59:50.763Z</time>
      </trkpt>
      <trkpt lat="45.98886" lon="4.7667">
        <ele>185.199996948</ele>
        <time>2015-12-12T10:59:52.776Z</time>
      </trkpt>
      <trkpt lat="45.98889" lon="4.76673">
        <ele>185.199996948</ele>
        <time>2015-12-12T10:59:53.763Z</time>
      </trkpt>
      <trkpt lat="45.98896" lon="4.76679">
        <ele>185.100006104</ele>
        <time>2015-12-12T10:59:55.777Z</time>
      </trkpt>
      <trkpt lat="45.98899" lon="4.76682">
        <ele>184.899993896</ele>
        <time>2015-12-12T10:59:56.761Z</time>
      </trkpt>
      <trkpt lat="45.98906" lon="4.7669">
        <ele>184.699996948</ele>
        <time>2015-12-12T10:59:58.778Z</time>
      </trkpt>
      <trkpt lat="45.98909" lon="4.76693">
        <ele>184.600006104</ele>
        <time>2015-12-12T10:59:59.765Z</time>
      </trkpt>
      <trkpt lat="45.98916" lon="4.767">
        <ele>184.600006104</ele>
        <time>2015-12-12T11:00:01.778Z</time>
      </trkpt>
      <trkpt lat="45.98919" lon="4.76704">
        <ele>184.600006104</ele>
        <time>2015-12-12T11:00:02.76Z</time>
      </trkpt>
      <trkpt lat="45.98926" lon="4.7671">
        <ele>184.699996948</ele>
        <time>2015-12-12T11:00:04.79Z</time>
      </trkpt>
      <trkpt lat="45.9893" lon="4.76713">
        <ele>184.699996948</ele>
        <time>2015-12-12T11:00:05.763Z</time>
      </trkpt>
      <trkpt lat="45.98937" lon="4.7672">
        <ele>185</ele>
        <time>2015-12-12T11:00:07.777Z</time>
      </trkpt>
      <trkpt lat="45.9894" lon="4.76724">
        <ele>185</ele>
        <time>2015-12-12T11:00:08.76Z</time>
      </trkpt>
      <trkpt lat="45.98944" lon="4.76728">
        <ele>185.100006104</ele>
        <time>2015-12-12T11:00:09.776Z</time>
      </trkpt>
      <trkpt lat="45.98947" lon="4.76732">
        <ele>185.300003052</ele>
        <time>2015-12-12T11:00:10.76Z</time>
      </trkpt>
      <trkpt lat="45.98951" lon="4.76736">
        <ele>185.5</ele>
        <time>2015-12-12T11:00:11.779Z</time>
      </trkpt>
      <trkpt lat="45.98955" lon="4.7674">
        <ele>185.199996948</ele>
        <time>2015-12-12T11:00:12.76Z</time>
      </trkpt>
      <trkpt lat="45.98958" lon="4.76744">
        <ele>185.300003052</ele>
        <time>2015-12-12T11:00:13.778Z</time>
      </trkpt>
      <trkpt lat="45.98962" lon="4.76748">
        <ele>185.199996948</ele>
        <time>2015-12-12T11:00:14.76Z</time>
      </trkpt>
      <trkpt lat="45.98967" lon="4.76752">
        <ele>185.699996948</ele>
        <time>2015-12-12T11:00:15.779Z</time>
      </trkpt>
      <trkpt lat="45.98971" lon="4.76757">
        <ele>186</ele>
        <time>2015-12-12T11:00:16.76Z</time>
      </trkpt>
      <trkpt lat="45.98974" lon="4.76761">
        <ele>186.100006104</ele>
        <time>2015-12-12T11:00:17.78Z</time>
      </trkpt>
      <trkpt lat="45.98978" lon="4.76766">
        <ele>186.300003052</ele>
        <time>2015-12-12T11:00:18.76Z</time>
      </trkpt>
      <trkpt lat="45.98981" lon="4.76772">
        <ele>186.699996948</ele>
        <time>2015-12-12T11:00:19.778Z</time>
      </trkpt>
      <trkpt lat="45.98984" lon="4.76777">
        <ele>186.899993896</ele>
        <time>2015-12-12T11:00:20.76Z</time>
      </trkpt>
      <trkpt lat="45.98988" lon="4.76787">
        <ele>187.300003052</ele>
        <time>2015-12-12T11:00:22.776Z</time>
      </trkpt>
      <trkpt lat="45.98991" lon="4.76792">
        <ele>187.300003052</ele>
        <time>2015-12-12T11:00:23.763Z</time>
      </trkpt>
      <trkpt lat="45.98995" lon="4.76803">
        <ele>187.300003052</ele>
        <time>2015-12-12T11:00:25.792Z</time>
      </trkpt>
      <trkpt lat="45.98997" lon="4.76808">
        <ele>187.300003052</ele>
        <time>2015-12-12T11:00:26.76Z</time>
      </trkpt>
      <trkpt lat="45.99001" lon="4.7682">
        <ele>187.300003052</ele>
        <time>2015-12-12T11:00:28.776Z</time>
      </trkpt>
      <trkpt lat="45.99003" lon="4.76825">
        <ele>187.300003052</ele>
        <time>2015-12-12T11:00:29.763Z</time>
      </trkpt>
      <trkpt lat="45.99008" lon="4.76835">
        <ele>187.199996948</ele>
        <time>2015-12-12T11:00:31.778Z</time>
      </trkpt>
      <trkpt lat="45.9901" lon="4.7684">
        <ele>187.300003052</ele>
        <time>2015-12-12T11:00:32.791Z</time>
      </trkpt>
      <trkpt lat="45.99014" lon="4.76851">
        <ele>187</ele>
        <time>2015-12-12T11:00:34.776Z</time>
      </trkpt>
      <trkpt lat="45.99016" lon="4.76855">
        <ele>186.699996948</ele>
        <time>2015-12-12T11:00:35.763Z</time>
      </trkpt>
      <trkpt lat="45.9902" lon="4.76865">
        <ele>186.399993896</ele>
        <time>2015-12-12T11:00:37.777Z</time>
      </trkpt>
      <trkpt lat="45.99022" lon="4.76869">
        <ele>186.5</ele>
        <time>2015-12-12T11:00:38.76Z</time>
      </trkpt>
      <trkpt lat="45.99025" lon="4.76875">
        <ele>186.300003052</ele>
        <time>2015-12-12T11:00:39.777Z</time>
      </trkpt>
      <trkpt lat="45.99028" lon="4.7688">
        <ele>186.399993896</ele>
        <time>2015-12-12T11:00:40.76Z</time>
      </trkpt>
      <trkpt lat="45.99031" lon="4.76885">
        <ele>186.5</ele>
        <time>2015-12-12T11:00:41.782Z</time>
      </trkpt>
      <trkpt lat="45.99034" lon="4.76891">
        <ele>186.600006104</ele>
        <time>2015-12-12T11:00:42.76Z</time>
      </trkpt>
      <trkpt lat="45.99036" lon="4.76897">
        <ele>186.800003052</ele>
        <time>2015-12-12T11:00:43.777Z</time>
      </trkpt>
      <trkpt lat="45.99039" lon="4.76903">
        <ele>187</ele>
        <time>2015-12-12T11:00:44.76Z</time>
      </trkpt>
      <trkpt lat="45.99041" lon="4.76908">
        <ele>187.100006104</ele>
        <time>2015-12-12T11:00:45.776Z</time>
      </trkpt>
      <trkpt lat="45.99044" lon="4.76913">
        <ele>187.399993896</ele>
        <time>2015-12-12T11:00:46.76Z</time>
      </trkpt>
      <trkpt lat="45.99048" lon="4.76918">
        <ele>188.399993896</ele>
        <time>2015-12-12T11:00:47.78Z</time>
      </trkpt>
      <trkpt lat="45.99052" lon="4.76926">
        <ele>186.800003052</ele>
        <time>2015-12-12T11:00:48.76Z</time>
      </trkpt>
      <trkpt lat="45.99055" lon="4.76932">
        <ele>187.199996948</ele>
        <time>2015-12-12T11:00:49.778Z</time>
      </trkpt>
      <trkpt lat="45.99058" lon="4.76937">
        <ele>186.899993896</ele>
        <time>2015-12-12T11:00:50.763Z</time>
      </trkpt>
      <trkpt lat="45.99062" lon="4.76948">
        <ele>187.399993896</ele>
        <time>2015-12-12T11:00:52.821Z</time>
      </trkpt>
      <trkpt lat="45.99064" lon="4.76953">
        <ele>187.600006104</ele>
        <time>2015-12-12T11:00:53.763Z</time>
      </trkpt>
      <trkpt lat="45.99066" lon="4.76958">
        <ele>187.899993896</ele>
        <time>2015-12-12T11:00:54.776Z</time>
      </trkpt>
      <trkpt lat="45.99069" lon="4.76963">
        <ele>187.899993896</ele>
        <time>2015-12-12T11:00:55.761Z</time>
      </trkpt>
      <trkpt lat="45.99072" lon="4.76969">
        <ele>188</ele>
        <time>2015-12-12T11:00:56.776Z</time>
      </trkpt>
      <trkpt lat="45.99075" lon="4.76974">
        <ele>187.5</ele>
        <time>2015-12-12T11:00:57.76Z</time>
      </trkpt>
      <trkpt lat="45.99078" lon="4.7698">
        <ele>187.5</ele>
        <time>2015-12-12T11:00:58.833Z</time>
      </trkpt>
      <trkpt lat="45.99081" lon="4.76985">
        <ele>187.800003052</ele>
        <time>2015-12-12T11:00:59.763Z</time>
      </trkpt>
      <trkpt lat="45.99083" lon="4.76991">
        <ele>188.199996948</ele>
        <time>2015-12-12T11:01:00.777Z</time>
      </trkpt>
      <trkpt lat="45.99086" lon="4.76996">
        <ele>188.399993896</ele>
        <time>2015-12-12T11:01:01.761Z</time>
      </trkpt>
      <trkpt lat="45.99089" lon="4.77002">
        <ele>188.600006104</ele>
        <time>2015-12-12T11:01:02.777Z</time>
      </trkpt>
      <trkpt lat="45.99092" lon="4.77008">
        <ele>188.699996948</ele>
        <time>2015-12-12T11:01:03.759Z</time>
      </trkpt>
      <trkpt lat="45.99095" lon="4.77013">
        <ele>188.800003052</ele>
        <time>2015-12-12T11:01:04.777Z</time>
      </trkpt>
      <trkpt lat="45.99098" lon="4.77019">
        <ele>188.800003052</ele>
        <time>2015-12-12T11:01:05.762Z</time>
      </trkpt>
      <trkpt lat="45.99101" lon="4.77025">
        <ele>188.899993896</ele>
        <time>2015-12-12T11:01:06.775Z</time>
      </trkpt>
      <trkpt lat="45.99104" lon="4.7703">
        <ele>188.800003052</ele>
        <time>2015-12-12T11:01:07.763Z</time>
      </trkpt>
      <trkpt lat="45.99107" lon="4.77036">
        <ele>188.600006104</ele>
        <time>2015-12-12T11:01:08.777Z</time>
      </trkpt>
      <trkpt lat="45.9911" lon="4.77042">
        <ele>188.399993896</ele>
        <time>2015-12-12T11:01:09.759Z</time>
      </trkpt>
      <trkpt lat="45.99112" lon="4.77048">
        <ele>188.399993896</ele>
        <time>2015-12-12T11:01:10.776Z</time>
      </trkpt>
      <trkpt lat="45.99115" lon="4.77055">
        <ele>188.300003052</ele>
        <time>2015-12-12T11:01:11.763Z</time>
      </trkpt>
      <trkpt lat="45.99117" lon="4.77063">
        <ele>188</ele>
        <time>2015-12-12T11:01:12.776Z</time>
      </trkpt>
      <trkpt lat="45.99118" lon="4.7707">
        <ele>187.699996948</ele>
        <time>2015-12-12T11:01:13.761Z</time>
      </trkpt>
      <trkpt lat="45.99119" lon="4.77078">
        <ele>187.800003052</ele>
        <time>2015-12-12T11:01:14.776Z</time>
      </trkpt>
      <trkpt lat="45.99121" lon="4.77085">
        <ele>188</ele>
        <time>2015-12-12T11:01:15.76Z</time>
      </trkpt>
      <trkpt lat="45.99124" lon="4.77093">
        <ele>187.399993896</ele>
        <time>2015-12-12T11:01:16.909Z</time>
      </trkpt>
      <trkpt lat="45.99125" lon="4.77101">
        <ele>187.300003052</ele>
        <time>2015-12-12T11:01:17.777Z</time>
      </trkpt>
      <trkpt lat="45.99127" lon="4.77109">
        <ele>187.600006104</ele>
        <time>2015-12-12T11:01:18.776Z</time>
      </trkpt>
      <trkpt lat="45.99129" lon="4.77116">
        <ele>187.5</ele>
        <time>2015-12-12T11:01:19.761Z</time>
      </trkpt>
      <trkpt lat="45.99131" lon="4.77122">
        <ele>187.600006104</ele>
        <time>2015-12-12T11:01:20.776Z</time>
      </trkpt>
      <trkpt lat="45.99133" lon="4.77128">
        <ele>187.699996948</ele>
        <time>2015-12-12T11:01:21.76Z</time>
      </trkpt>
      <trkpt lat="45.99136" lon="4.7714">
        <ele>187.800003052</ele>
        <time>2015-12-12T11:01:23.781Z</time>
      </trkpt>
      <trkpt lat="45.99138" lon="4.77146">
        <ele>187.399993896</ele>
        <time>2015-12-12T11:01:24.76Z</time>
      </trkpt>
      <trkpt lat="45.99139" lon="4.77152">
        <ele>187.699996948</ele>
        <time>2015-12-12T11:01:25.777Z</time>
      </trkpt>
      <trkpt lat="45.99141" lon="4.77158">
        <ele>187.699996948</ele>
        <time>2015-12-12T11:01:26.76Z</time>
      </trkpt>
      <trkpt lat="45.99143" lon="4.77164">
        <ele>187.699996948</ele>
        <time>2015-12-12T11:01:27.776Z</time>
      </trkpt>
      <trkpt lat="45.99145" lon="4.7717">
        <ele>187.899993896</ele>
        <time>2015-12-12T11:01:28.759Z</time>
      </trkpt>
      <trkpt lat="45.99147" lon="4.77177">
        <ele>187.899993896</ele>
        <time>2015-12-12T11:01:29.779Z</time>
      </trkpt>
      <trkpt lat="45.99148" lon="4.77183">
        <ele>188.100006104</ele>
        <time>2015-12-12T11:01:30.759Z</time>
      </trkpt>
      <trkpt lat="45.9915" lon="4.77188">
        <ele>188.5</ele>
        <time>2015-12-12T11:01:31.777Z</time>
      </trkpt>
      <trkpt lat="45.99151" lon="4.77195">
        <ele>188.399993896</ele>
        <time>2015-12-12T11:01:32.76Z</time>
      </trkpt>
      <trkpt lat="45.99152" lon="4.77201">
        <ele>188.5</ele>
        <time>2015-12-12T11:01:33.793Z</time>
      </trkpt>
      <trkpt lat="45.99154" lon="4.77208">
        <ele>188.800003052</ele>
        <time>2015-12-12T11:01:34.759Z</time>
      </trkpt>
      <trkpt lat="45.99155" lon="4.77214">
        <ele>188.899993896</ele>
        <time>2015-12-12T11:01:35.779Z</time>
      </trkpt>
      <trkpt lat="45.99156" lon="4.77221">
        <ele>189.199996948</ele>
        <time>2015-12-12T11:01:36.759Z</time>
      </trkpt>
      <trkpt lat="45.99156" lon="4.77227">
        <ele>189.399993896</ele>
        <time>2015-12-12T11:01:37.777Z</time>
      </trkpt>
      <trkpt lat="45.99156" lon="4.77234">
        <ele>189.399993896</ele>
        <time>2015-12-12T11:01:38.76Z</time>
      </trkpt>
      <trkpt lat="45.99156" lon="4.77241">
        <ele>189.600006104</ele>
        <time>2015-12-12T11:01:39.776Z</time>
      </trkpt>
      <trkpt lat="45.99155" lon="4.77248">
        <ele>189.699996948</ele>
        <time>2015-12-12T11:01:40.759Z</time>
      </trkpt>
      <trkpt lat="45.99154" lon="4.77255">
        <ele>189.899993896</ele>
        <time>2015-12-12T11:01:41.778Z</time>
      </trkpt>
      <trkpt lat="45.99152" lon="4.77261">
        <ele>190</ele>
        <time>2015-12-12T11:01:42.759Z</time>
      </trkpt>
      <trkpt lat="45.99151" lon="4.77274">
        <ele>190.300003052</ele>
        <time>2015-12-12T11:01:44.776Z</time>
      </trkpt>
      <trkpt lat="45.9915" lon="4.7728">
        <ele>190.5</ele>
        <time>2015-12-12T11:01:45.759Z</time>
      </trkpt>
      <trkpt lat="45.99149" lon="4.77291">
        <ele>191</ele>
        <time>2015-12-12T11:01:47.779Z</time>
      </trkpt>
      <trkpt lat="45.99148" lon="4.77297">
        <ele>191.300003052</ele>
        <time>2015-12-12T11:01:48.76Z</time>
      </trkpt>
      <trkpt lat="45.99147" lon="4.77307">
        <ele>192.300003052</ele>
        <time>2015-12-12T11:01:50.78Z</time>
      </trkpt>
      <trkpt lat="45.99147" lon="4.77313">
        <ele>192.5</ele>
        <time>2015-12-12T11:01:51.76Z</time>
      </trkpt>
      <trkpt lat="45.99148" lon="4.77324">
        <ele>192.899993896</ele>
        <time>2015-12-12T11:01:53.778Z</time>
      </trkpt>
      <trkpt lat="45.99148" lon="4.77329">
        <ele>193.199996948</ele>
        <time>2015-12-12T11:01:54.759Z</time>
      </trkpt>
      <trkpt lat="45.99146" lon="4.77338">
        <ele>194</ele>
        <time>2015-12-12T11:01:56.776Z</time>
      </trkpt>
      <trkpt lat="45.99143" lon="4.77341">
        <ele>194.300003052</ele>
        <time>2015-12-12T11:01:57.759Z</time>
      </trkpt>
      <trkpt lat="45.99135" lon="4.77344">
        <ele>193.699996948</ele>
        <time>2015-12-12T11:01:59.782Z</time>
      </trkpt>
      <trkpt lat="45.9913" lon="4.77345">
        <ele>194</ele>
        <time>2015-12-12T11:02:00.76Z</time>
      </trkpt>
      <trkpt lat="45.99125" lon="4.77345">
        <ele>194</ele>
        <time>2015-12-12T11:02:01.777Z</time>
      </trkpt>
      <trkpt lat="45.99121" lon="4.77346">
        <ele>194</ele>
        <time>2015-12-12T11:02:02.759Z</time>
      </trkpt>
      <trkpt lat="45.99116" lon="4.77347">
        <ele>194</ele>
        <time>2015-12-12T11:02:03.776Z</time>
      </trkpt>
      <trkpt lat="45.9911" lon="4.77349">
        <ele>193.800003052</ele>
        <time>2015-12-12T11:02:04.759Z</time>
      </trkpt>
      <trkpt lat="45.99105" lon="4.77351">
        <ele>194</ele>
        <time>2015-12-12T11:02:05.91Z</time>
      </trkpt>
      <trkpt lat="45.99099" lon="4.77352">
        <ele>194</ele>
        <time>2015-12-12T11:02:06.759Z</time>
      </trkpt>
      <trkpt lat="45.99093" lon="4.77353">
        <ele>194.100006104</ele>
        <time>2015-12-12T11:02:07.777Z</time>
      </trkpt>
      <trkpt lat="45.99088" lon="4.77354">
        <ele>195.600006104</ele>
        <time>2015-12-12T11:02:08.76Z</time>
      </trkpt>
      <trkpt lat="45.99082" lon="4.77355">
        <ele>195.899993896</ele>
        <time>2015-12-12T11:02:09.776Z</time>
      </trkpt>
      <trkpt lat="45.99077" lon="4.77356">
        <ele>196.300003052</ele>
        <time>2015-12-12T11:02:10.773Z</time>
      </trkpt>
      <trkpt lat="45.99072" lon="4.77356">
        <ele>196.5</ele>
        <time>2015-12-12T11:02:11.778Z</time>
      </trkpt>
      <trkpt lat="45.99066" lon="4.77356">
        <ele>196.600006104</ele>
        <time>2015-12-12T11:02:12.807Z</time>
      </trkpt>
      <trkpt lat="45.99061" lon="4.77356">
        <ele>196.5</ele>
        <time>2015-12-12T11:02:13.777Z</time>
      </trkpt>
      <trkpt lat="45.99056" lon="4.77356">
        <ele>196.5</ele>
        <time>2015-12-12T11:02:14.76Z</time>
      </trkpt>
      <trkpt lat="45.99051" lon="4.77357">
        <ele>196.600006104</ele>
        <time>2015-12-12T11:02:15.776Z</time>
      </trkpt>
      <trkpt lat="45.99046" lon="4.77358">
        <ele>196.600006104</ele>
        <time>2015-12-12T11:02:16.759Z</time>
      </trkpt>
      <trkpt lat="45.99041" lon="4.77359">
        <ele>196.699996948</ele>
        <time>2015-12-12T11:02:17.78Z</time>
      </trkpt>
      <trkpt lat="45.99036" lon="4.77361">
        <ele>196.699996948</ele>
        <time>2015-12-12T11:02:18.759Z</time>
      </trkpt>
      <trkpt lat="45.99028" lon="4.77365">
        <ele>196.800003052</ele>
        <time>2015-12-12T11:02:20.776Z</time>
      </trkpt>
      <trkpt lat="45.99023" lon="4.77367">
        <ele>196.800003052</ele>
        <time>2015-12-12T11:02:21.759Z</time>
      </trkpt>
      <trkpt lat="45.99019" lon="4.77368">
        <ele>197.300003052</ele>
        <time>2015-12-12T11:02:22.776Z</time>
      </trkpt>
      <trkpt lat="45.99014" lon="4.7737">
        <ele>197.5</ele>
        <time>2015-12-12T11:02:23.763Z</time>
      </trkpt>
      <trkpt lat="45.99009" lon="4.77372">
        <ele>197.800003052</ele>
        <time>2015-12-12T11:02:24.776Z</time>
      </trkpt>
      <trkpt lat="45.99005" lon="4.77375">
        <ele>198</ele>
        <time>2015-12-12T11:02:25.761Z</time>
      </trkpt>
      <trkpt lat="45.99001" lon="4.77377">
        <ele>198.100006104</ele>
        <time>2015-12-12T11:02:26.815Z</time>
      </trkpt>
      <trkpt lat="45.98996" lon="4.7738">
        <ele>197.800003052</ele>
        <time>2015-12-12T11:02:27.759Z</time>
      </trkpt>
      <trkpt lat="45.98991" lon="4.77382">
        <ele>198</ele>
        <time>2015-12-12T11:02:28.776Z</time>
      </trkpt>
      <trkpt lat="45.98987" lon="4.77384">
        <ele>197.899993896</ele>
        <time>2015-12-12T11:02:29.763Z</time>
      </trkpt>
      <trkpt lat="45.98982" lon="4.77387">
        <ele>197.699996948</ele>
        <time>2015-12-12T11:02:30.775Z</time>
      </trkpt>
      <trkpt lat="45.98978" lon="4.77389">
        <ele>197</ele>
        <time>2015-12-12T11:02:31.761Z</time>
      </trkpt>
      <trkpt lat="45.98973" lon="4.77392">
        <ele>197</ele>
        <time>2015-12-12T11:02:32.776Z</time>
      </trkpt>
      <trkpt lat="45.98969" lon="4.77394">
        <ele>196.800003052</ele>
        <time>2015-12-12T11:02:33.76Z</time>
      </trkpt>
      <trkpt lat="45.98964" lon="4.77396">
        <ele>197</ele>
        <time>2015-12-12T11:02:34.777Z</time>
      </trkpt>
      <trkpt lat="45.9896" lon="4.77397">
        <ele>197.199996948</ele>
        <time>2015-12-12T11:02:35.763Z</time>
      </trkpt>
      <trkpt lat="45.98952" lon="4.77401">
        <ele>197.5</ele>
        <time>2015-12-12T11:02:37.778Z</time>
      </trkpt>
      <trkpt lat="45.98948" lon="4.77402">
        <ele>197.600006104</ele>
        <time>2015-12-12T11:02:38.76Z</time>
      </trkpt>
      <trkpt lat="45.98941" lon="4.77405">
        <ele>197.699996948</ele>
        <time>2015-12-12T11:02:40.776Z</time>
      </trkpt>
      <trkpt lat="45.98938" lon="4.77406">
        <ele>197.899993896</ele>
        <time>2015-12-12T11:02:41.763Z</time>
      </trkpt>
      <trkpt lat="45.98932" lon="4.7741">
        <ele>197.800003052</ele>
        <time>2015-12-12T11:02:43.777Z</time>
      </trkpt>
      <trkpt lat="45.98929" lon="4.77412">
        <ele>197.699996948</ele>
        <time>2015-12-12T11:02:44.759Z</time>
      </trkpt>
      <trkpt lat="45.98923" lon="4.77415">
        <ele>198.699996948</ele>
        <time>2015-12-12T11:02:46.776Z</time>
      </trkpt>
      <trkpt lat="45.9892" lon="4.77417">
        <ele>199.399993896</ele>
        <time>2015-12-12T11:02:47.777Z</time>
      </trkpt>
      <trkpt lat="45.98912" lon="4.77422">
        <ele>199.699996948</ele>
        <time>2015-12-12T11:02:50.779Z</time>
      </trkpt>
      <trkpt lat="45.9891" lon="4.77423">
        <ele>199.800003052</ele>
        <time>2015-12-12T11:02:51.759Z</time>
      </trkpt>
      <trkpt lat="45.98903" lon="4.77426">
        <ele>199.800003052</ele>
        <time>2015-12-12T11:02:54.776Z</time>
      </trkpt>
      <trkpt lat="45.989" lon="4.77426">
        <ele>199.899993896</ele>
        <time>2015-12-12T11:02:55.76Z</time>
      </trkpt>
      <trkpt lat="45.98894" lon="4.77429">
        <ele>200.100006104</ele>
        <time>2015-12-12T11:02:58.777Z</time>
      </trkpt>
      <trkpt lat="45.98891" lon="4.7743">
        <ele>200.600006104</ele>
        <time>2015-12-12T11:02:59.763Z</time>
      </trkpt>
      <trkpt lat="45.98884" lon="4.77434">
        <ele>200.800003052</ele>
        <time>2015-12-12T11:03:02.78Z</time>
      </trkpt>
      <trkpt lat="45.98881" lon="4.77435">
        <ele>201</ele>
        <time>2015-12-12T11:03:03.76Z</time>
      </trkpt>
      <trkpt lat="45.98875" lon="4.77439">
        <ele>202</ele>
        <time>2015-12-12T11:03:06.777Z</time>
      </trkpt>
      <trkpt lat="45.98873" lon="4.7744">
        <ele>202.199996948</ele>
        <time>2015-12-12T11:03:07.761Z</time>
      </trkpt>
      <trkpt lat="45.98864" lon="4.77442">
        <ele>202.5</ele>
        <time>2015-12-12T11:03:11.779Z</time>
      </trkpt>
      <trkpt lat="45.98862" lon="4.77443">
        <ele>202.600006104</ele>
        <time>2015-12-12T11:03:12.76Z</time>
      </trkpt>
      <trkpt lat="45.98856" lon="4.77446">
        <ele>203.600006104</ele>
        <time>2015-12-12T11:03:15.777Z</time>
      </trkpt>
      <trkpt lat="45.98853" lon="4.77446">
        <ele>203.899993896</ele>
        <time>2015-12-12T11:03:16.76Z</time>
      </trkpt>
      <trkpt lat="45.98845" lon="4.77449">
        <ele>204.5</ele>
        <time>2015-12-12T11:03:19.841Z</time>
      </trkpt>
      <trkpt lat="45.98843" lon="4.7745">
        <ele>204.800003052</ele>
        <time>2015-12-12T11:03:20.76Z</time>
      </trkpt>
      <trkpt lat="45.98836" lon="4.77456">
        <ele>205.699996948</ele>
        <time>2015-12-12T11:03:23.778Z</time>
      </trkpt>
      <trkpt lat="45.98834" lon="4.77457">
        <ele>206.100006104</ele>
        <time>2015-12-12T11:03:24.76Z</time>
      </trkpt>
      <trkpt lat="45.98827" lon="4.77464">
        <ele>206.5</ele>
        <time>2015-12-12T11:03:27.776Z</time>
      </trkpt>
      <trkpt lat="45.98825" lon="4.77466">
        <ele>206.699996948</ele>
        <time>2015-12-12T11:03:28.761Z</time>
      </trkpt>
      <trkpt lat="45.98822" lon="4.77475">
        <ele>207.5</ele>
        <time>2015-12-12T11:03:31.777Z</time>
      </trkpt>
      <trkpt lat="45.9882" lon="4.77477">
        <ele>208.399993896</ele>
        <time>2015-12-12T11:03:32.76Z</time>
      </trkpt>
      <trkpt lat="45.98816" lon="4.77486">
        <ele>209.800003052</ele>
        <time>2015-12-12T11:03:35.779Z</time>
      </trkpt>
      <trkpt lat="45.98814" lon="4.77489">
        <ele>210.399993896</ele>
        <time>2015-12-12T11:03:36.76Z</time>
      </trkpt>
      <trkpt lat="45.98811" lon="4.775">
        <ele>211.699996948</ele>
        <time>2015-12-12T11:03:40.776Z</time>
      </trkpt>
      <trkpt lat="45.9881" lon="4.77503">
        <ele>212.300003052</ele>
        <time>2015-12-12T11:03:41.763Z</time>
      </trkpt>
      <trkpt lat="45.98804" lon="4.77511">
        <ele>214.600006104</ele>
        <time>2015-12-12T11:03:45.79Z</time>
      </trkpt>
      <trkpt lat="45.98804" lon="4.77514">
        <ele>214.699996948</ele>
        <time>2015-12-12T11:03:46.76Z</time>
      </trkpt>
      <trkpt lat="45.98798" lon="4.77521">
        <ele>215.899993896</ele>
        <time>2015-12-12T11:03:50.779Z</time>
      </trkpt>
      <trkpt lat="45.98796" lon="4.77522">
        <ele>216.399993896</ele>
        <time>2015-12-12T11:03:51.76Z</time>
      </trkpt>
      <trkpt lat="45.98791" lon="4.77531">
        <ele>218</ele>
        <time>2015-12-12T11:03:54.776Z</time>
      </trkpt>
      <trkpt lat="45.98789" lon="4.77533">
        <ele>218.600006104</ele>
        <time>2015-12-12T11:03:55.761Z</time>
      </trkpt>
      <trkpt lat="45.98782" lon="4.77541">
        <ele>219.5</ele>
        <time>2015-12-12T11:03:59.779Z</time>
      </trkpt>
      <trkpt lat="45.9878" lon="4.77543">
        <ele>219.899993896</ele>
        <time>2015-12-12T11:04:00.76Z</time>
      </trkpt>
      <trkpt lat="45.98775" lon="4.77549">
        <ele>220.300003052</ele>
        <time>2015-12-12T11:04:03.786Z</time>
      </trkpt>
      <trkpt lat="45.98773" lon="4.77551">
        <ele>220.399993896</ele>
        <time>2015-12-12T11:04:04.762Z</time>
      </trkpt>
      <trkpt lat="45.98767" lon="4.77557">
        <ele>220.5</ele>
        <time>2015-12-12T11:04:07.777Z</time>
      </trkpt>
      <trkpt lat="45.98765" lon="4.77558">
        <ele>220.5</ele>
        <time>2015-12-12T11:04:08.763Z</time>
      </trkpt>
      <trkpt lat="45.98757" lon="4.77565">
        <ele>221</ele>
        <time>2015-12-12T11:04:12.779Z</time>
      </trkpt>
      <trkpt lat="45.98756" lon="4.77567">
        <ele>220.800003052</ele>
        <time>2015-12-12T11:04:13.763Z</time>
      </trkpt>
      <trkpt lat="45.9875" lon="4.77573">
        <ele>220.5</ele>
        <time>2015-12-12T11:04:16.776Z</time>
      </trkpt>
      <trkpt lat="45.98748" lon="4.77575">
        <ele>221</ele>
        <time>2015-12-12T11:04:17.763Z</time>
      </trkpt>
      <trkpt lat="45.98742" lon="4.77584">
        <ele>221</ele>
        <time>2015-12-12T11:04:21.776Z</time>
      </trkpt>
      <trkpt lat="45.9874" lon="4.77586">
        <ele>221.100006104</ele>
        <time>2015-12-12T11:04:22.76Z</time>
      </trkpt>
      <trkpt lat="45.98735" lon="4.77592">
        <ele>221.399993896</ele>
        <time>2015-12-12T11:04:25.777Z</time>
      </trkpt>
      <trkpt lat="45.98732" lon="4.77595">
        <ele>221.300003052</ele>
        <time>2015-12-12T11:04:26.76Z</time>
      </trkpt>
      <trkpt lat="45.98726" lon="4.776">
        <ele>221.100006104</ele>
        <time>2015-12-12T11:04:29.782Z</time>
      </trkpt>
      <trkpt lat="45.98725" lon="4.77602">
        <ele>221.300003052</ele>
        <time>2015-12-12T11:04:30.762Z</time>
      </trkpt>
      <trkpt lat="45.9872" lon="4.77608">
        <ele>221.699996948</ele>
        <time>2015-12-12T11:04:33.776Z</time>
      </trkpt>
      <trkpt lat="45.98717" lon="4.7761">
        <ele>221.899993896</ele>
        <time>2015-12-12T11:04:34.76Z</time>
      </trkpt>
      <trkpt lat="45.98712" lon="4.77616">
        <ele>222.399993896</ele>
        <time>2015-12-12T11:04:37.777Z</time>
      </trkpt>
      <trkpt lat="45.9871" lon="4.77617">
        <ele>222.600006104</ele>
        <time>2015-12-12T11:04:38.76Z</time>
      </trkpt>
      <trkpt lat="45.98704" lon="4.77622">
        <ele>223.300003052</ele>
        <time>2015-12-12T11:04:41.779Z</time>
      </trkpt>
      <trkpt lat="45.98702" lon="4.77623">
        <ele>223.5</ele>
        <time>2015-12-12T11:04:42.76Z</time>
      </trkpt>
      <trkpt lat="45.98695" lon="4.77628">
        <ele>223.899993896</ele>
        <time>2015-12-12T11:04:45.776Z</time>
      </trkpt>
      <trkpt lat="45.98693" lon="4.7763">
        <ele>223.899993896</ele>
        <time>2015-12-12T11:04:46.76Z</time>
      </trkpt>
      <trkpt lat="45.98688" lon="4.77637">
        <ele>224.100006104</ele>
        <time>2015-12-12T11:04:49.778Z</time>
      </trkpt>
      <trkpt lat="45.98686" lon="4.77639">
        <ele>224.100006104</ele>
        <time>2015-12-12T11:04:50.762Z</time>
      </trkpt>
      <trkpt lat="45.9868" lon="4.77646">
        <ele>224.399993896</ele>
        <time>2015-12-12T11:04:53.779Z</time>
      </trkpt>
      <trkpt lat="45.98678" lon="4.77648">
        <ele>224.5</ele>
        <time>2015-12-12T11:04:54.76Z</time>
      </trkpt>
      <trkpt lat="45.98673" lon="4.77656">
        <ele>224.600006104</ele>
        <time>2015-12-12T11:04:57.778Z</time>
      </trkpt>
      <trkpt lat="45.98671" lon="4.77658">
        <ele>224.800003052</ele>
        <time>2015-12-12T11:04:58.76Z</time>
      </trkpt>
      <trkpt lat="45.98664" lon="4.77663">
        <ele>225</ele>
        <time>2015-12-12T11:05:01.779Z</time>
      </trkpt>
      <trkpt lat="45.98663" lon="4.77665">
        <ele>225.100006104</ele>
        <time>2015-12-12T11:05:02.762Z</time>
      </trkpt>
      <trkpt lat="45.98656" lon="4.77673">
        <ele>225.100006104</ele>
        <time>2015-12-12T11:05:06.777Z</time>
      </trkpt>
      <trkpt lat="45.98654" lon="4.77675">
        <ele>225.600006104</ele>
        <time>2015-12-12T11:05:07.761Z</time>
      </trkpt>
      <trkpt lat="45.98648" lon="4.77682">
        <ele>225.899993896</ele>
        <time>2015-12-12T11:05:10.792Z</time>
      </trkpt>
      <trkpt lat="45.98646" lon="4.77684">
        <ele>226.100006104</ele>
        <time>2015-12-12T11:05:11.764Z</time>
      </trkpt>
      <trkpt lat="45.98639" lon="4.77689">
        <ele>226.399993896</ele>
        <time>2015-12-12T11:05:14.776Z</time>
      </trkpt>
      <trkpt lat="45.98637" lon="4.77691">
        <ele>226.199996948</ele>
        <time>2015-12-12T11:05:15.76Z</time>
      </trkpt>
      <trkpt lat="45.98631" lon="4.77695">
        <ele>226.199996948</ele>
        <time>2015-12-12T11:05:18.776Z</time>
      </trkpt>
      <trkpt lat="45.98629" lon="4.77697">
        <ele>226.399993896</ele>
        <time>2015-12-12T11:05:19.762Z</time>
      </trkpt>
      <trkpt lat="45.98622" lon="4.77702">
        <ele>226.300003052</ele>
        <time>2015-12-12T11:05:22.779Z</time>
      </trkpt>
      <trkpt lat="45.98621" lon="4.77704">
        <ele>226.5</ele>
        <time>2015-12-12T11:05:23.763Z</time>
      </trkpt>
      <trkpt lat="45.98614" lon="4.77708">
        <ele>227.100006104</ele>
        <time>2015-12-12T11:05:26.776Z</time>
      </trkpt>
      <trkpt lat="45.98612" lon="4.7771">
        <ele>227.300003052</ele>
        <time>2015-12-12T11:05:27.76Z</time>
      </trkpt>
      <trkpt lat="45.98605" lon="4.77717">
        <ele>226.699996948</ele>
        <time>2015-12-12T11:05:31.777Z</time>
      </trkpt>
      <trkpt lat="45.98603" lon="4.77718">
        <ele>226.600006104</ele>
        <time>2015-12-12T11:05:32.76Z</time>
      </trkpt>
      <trkpt lat="45.98596" lon="4.77722">
        <ele>226.100006104</ele>
        <time>2015-12-12T11:05:35.78Z</time>
      </trkpt>
      <trkpt lat="45.98594" lon="4.77724">
        <ele>225.600006104</ele>
        <time>2015-12-12T11:05:36.76Z</time>
      </trkpt>
      <trkpt lat="45.98587" lon="4.77728">
        <ele>225.399993896</ele>
        <time>2015-12-12T11:05:39.776Z</time>
      </trkpt>
      <trkpt lat="45.98585" lon="4.77729">
        <ele>225.100006104</ele>
        <time>2015-12-12T11:05:40.759Z</time>
      </trkpt>
      <trkpt lat="45.98577" lon="4.77732">
        <ele>224.699996948</ele>
        <time>2015-12-12T11:05:43.777Z</time>
      </trkpt>
      <trkpt lat="45.98575" lon="4.77734">
        <ele>224.399993896</ele>
        <time>2015-12-12T11:05:44.76Z</time>
      </trkpt>
      <trkpt lat="45.98568" lon="4.77739">
        <ele>224.899993896</ele>
        <time>2015-12-12T11:05:47.78Z</time>
      </trkpt>
      <trkpt lat="45.98565" lon="4.7774">
        <ele>224.699996948</ele>
        <time>2015-12-12T11:05:48.762Z</time>
      </trkpt>
      <trkpt lat="45.98559" lon="4.77744">
        <ele>224.699996948</ele>
        <time>2015-12-12T11:05:51.794Z</time>
      </trkpt>
      <trkpt lat="45.98556" lon="4.77745">
        <ele>224.899993896</ele>
        <time>2015-12-12T11:05:52.76Z</time>
      </trkpt>
      <trkpt lat="45.98549" lon="4.77751">
        <ele>225.399993896</ele>
        <time>2015-12-12T11:05:55.777Z</time>
      </trkpt>
      <trkpt lat="45.98546" lon="4.77752">
        <ele>225.399993896</ele>
        <time>2015-12-12T11:05:56.76Z</time>
      </trkpt>
      <trkpt lat="45.98538" lon="4.77756">
        <ele>225.699996948</ele>
        <time>2015-12-12T11:05:59.779Z</time>
      </trkpt>
      <trkpt lat="45.98536" lon="4.77757">
        <ele>225.899993896</ele>
        <time>2015-12-12T11:06:00.76Z</time>
      </trkpt>
      <trkpt lat="45.98529" lon="4.77762">
        <ele>227.300003052</ele>
        <time>2015-12-12T11:06:04.776Z</time>
      </trkpt>
      <trkpt lat="45.98527" lon="4.77763">
        <ele>227.699996948</ele>
        <time>2015-12-12T11:06:05.763Z</time>
      </trkpt>
      <trkpt lat="45.98525" lon="4.77764">
        <ele>228.300003052</ele>
        <time>2015-12-12T11:06:11.779Z</time>
      </trkpt>
      <trkpt lat="45.98524" lon="4.77764">
        <ele>228.300003052</ele>
        <time>2015-12-12T11:06:12.76Z</time>
      </trkpt>
      <trkpt lat="45.98523" lon="4.77766">
        <ele>228.300003052</ele>
        <time>2015-12-12T11:06:13.778Z</time>
      </trkpt>
      <trkpt lat="45.98521" lon="4.77767">
        <ele>228.300003052</ele>
        <time>2015-12-12T11:06:14.762Z</time>
      </trkpt>
      <trkpt lat="45.98515" lon="4.77773">
        <ele>228.699996948</ele>
        <time>2015-12-12T11:06:17.779Z</time>
      </trkpt>
      <trkpt lat="45.98513" lon="4.77774">
        <ele>228.899993896</ele>
        <time>2015-12-12T11:06:18.76Z</time>
      </trkpt>
      <trkpt lat="45.98506" lon="4.77779">
        <ele>229.399993896</ele>
        <time>2015-12-12T11:06:21.776Z</time>
      </trkpt>
      <trkpt lat="45.98503" lon="4.77781">
        <ele>229.800003052</ele>
        <time>2015-12-12T11:06:22.76Z</time>
      </trkpt>
      <trkpt lat="45.98497" lon="4.77783">
        <ele>230.300003052</ele>
        <time>2015-12-12T11:06:24.776Z</time>
      </trkpt>
      <trkpt lat="45.98494" lon="4.77784">
        <ele>230.5</ele>
        <time>2015-12-12T11:06:25.761Z</time>
      </trkpt>
      <trkpt lat="45.98487" lon="4.77791">
        <ele>231.300003052</ele>
        <time>2015-12-12T11:06:28.788Z</time>
      </trkpt>
      <trkpt lat="45.98484" lon="4.77792">
        <ele>231.5</ele>
        <time>2015-12-12T11:06:29.763Z</time>
      </trkpt>
      <trkpt lat="45.98476" lon="4.77795">
        <ele>233.600006104</ele>
        <time>2015-12-12T11:06:32.777Z</time>
      </trkpt>
      <trkpt lat="45.98474" lon="4.77796">
        <ele>233.899993896</ele>
        <time>2015-12-12T11:06:33.773Z</time>
      </trkpt>
      <trkpt lat="45.98466" lon="4.77798">
        <ele>235.100006104</ele>
        <time>2015-12-12T11:06:36.777Z</time>
      </trkpt>
      <trkpt lat="45.98464" lon="4.77799">
        <ele>235.300003052</ele>
        <time>2015-12-12T11:06:37.761Z</time>
      </trkpt>
      <trkpt lat="45.98458" lon="4.77801">
        <ele>236</ele>
        <time>2015-12-12T11:06:39.776Z</time>
      </trkpt>
      <trkpt lat="45.98455" lon="4.77803">
        <ele>236.399993896</ele>
        <time>2015-12-12T11:06:40.762Z</time>
      </trkpt>
      <trkpt lat="45.98448" lon="4.77806">
        <ele>237.100006104</ele>
        <time>2015-12-12T11:06:42.776Z</time>
      </trkpt>
      <trkpt lat="45.98444" lon="4.77808">
        <ele>237.5</ele>
        <time>2015-12-12T11:06:43.906Z</time>
      </trkpt>
      <trkpt lat="45.98436" lon="4.7781">
        <ele>237.300003052</ele>
        <time>2015-12-12T11:06:45.776Z</time>
      </trkpt>
      <trkpt lat="45.98433" lon="4.77812">
        <ele>237.5</ele>
        <time>2015-12-12T11:06:46.76Z</time>
      </trkpt>
      <trkpt lat="45.98424" lon="4.77814">
        <ele>237.899993896</ele>
        <time>2015-12-12T11:06:48.777Z</time>
      </trkpt>
      <trkpt lat="45.98421" lon="4.77816">
        <ele>238.199996948</ele>
        <time>2015-12-12T11:06:49.761Z</time>
      </trkpt>
      <trkpt lat="45.98413" lon="4.77819">
        <ele>238.199996948</ele>
        <time>2015-12-12T11:06:51.776Z</time>
      </trkpt>
      <trkpt lat="45.98409" lon="4.77821">
        <ele>238.199996948</ele>
        <time>2015-12-12T11:06:52.759Z</time>
      </trkpt>
      <trkpt lat="45.98402" lon="4.77825">
        <ele>238.5</ele>
        <time>2015-12-12T11:06:54.791Z</time>
      </trkpt>
      <trkpt lat="45.98398" lon="4.77827">
        <ele>238.100006104</ele>
        <time>2015-12-12T11:06:55.761Z</time>
      </trkpt>
      <trkpt lat="45.9839" lon="4.77831">
        <ele>237.899993896</ele>
        <time>2015-12-12T11:06:57.776Z</time>
      </trkpt>
      <trkpt lat="45.98386" lon="4.77832">
        <ele>237.600006104</ele>
        <time>2015-12-12T11:06:58.76Z</time>
      </trkpt>
      <trkpt lat="45.98379" lon="4.77836">
        <ele>237.100006104</ele>
        <time>2015-12-12T11:07:00.776Z</time>
      </trkpt>
      <trkpt lat="45.98376" lon="4.77837">
        <ele>236.800003052</ele>
        <time>2015-12-12T11:07:01.761Z</time>
      </trkpt>
      <trkpt lat="45.9837" lon="4.77839">
        <ele>236.399993896</ele>
        <time>2015-12-12T11:07:03.777Z</time>
      </trkpt>
      <trkpt lat="45.98367" lon="4.7784">
        <ele>236.300003052</ele>
        <time>2015-12-12T11:07:04.76Z</time>
      </trkpt>
      <trkpt lat="45.9836" lon="4.77843">
        <ele>236.300003052</ele>
        <time>2015-12-12T11:07:06.784Z</time>
      </trkpt>
      <trkpt lat="45.98356" lon="4.77844">
        <ele>236.199996948</ele>
        <time>2015-12-12T11:07:07.761Z</time>
      </trkpt>
      <trkpt lat="45.98349" lon="4.77848">
        <ele>235.899993896</ele>
        <time>2015-12-12T11:07:09.776Z</time>
      </trkpt>
      <trkpt lat="45.98346" lon="4.77849">
        <ele>235.800003052</ele>
        <time>2015-12-12T11:07:10.76Z</time>
      </trkpt>
      <trkpt lat="45.9834" lon="4.77852">
        <ele>235.699996948</ele>
        <time>2015-12-12T11:07:12.776Z</time>
      </trkpt>
      <trkpt lat="45.98337" lon="4.77853">
        <ele>235.800003052</ele>
        <time>2015-12-12T11:07:13.761Z</time>
      </trkpt>
      <trkpt lat="45.9833" lon="4.77855">
        <ele>235.800003052</ele>
        <time>2015-12-12T11:07:15.79Z</time>
      </trkpt>
      <trkpt lat="45.98326" lon="4.77857">
        <ele>235.800003052</ele>
        <time>2015-12-12T11:07:16.759Z</time>
      </trkpt>
      <trkpt lat="45.98319" lon="4.7786">
        <ele>235.5</ele>
        <time>2015-12-12T11:07:18.776Z</time>
      </trkpt>
      <trkpt lat="45.98315" lon="4.77861">
        <ele>235.699996948</ele>
        <time>2015-12-12T11:07:19.76Z</time>
      </trkpt>
      <trkpt lat="45.98307" lon="4.77864">
        <ele>236.5</ele>
        <time>2015-12-12T11:07:21.775Z</time>
      </trkpt>
      <trkpt lat="45.98302" lon="4.77865">
        <ele>237.399993896</ele>
        <time>2015-12-12T11:07:22.759Z</time>
      </trkpt>
      <trkpt lat="45.98294" lon="4.77868">
        <ele>238.199996948</ele>
        <time>2015-12-12T11:07:24.777Z</time>
      </trkpt>
      <trkpt lat="45.9829" lon="4.7787">
        <ele>238.100006104</ele>
        <time>2015-12-12T11:07:25.761Z</time>
      </trkpt>
      <trkpt lat="45.98282" lon="4.77872">
        <ele>238.399993896</ele>
        <time>2015-12-12T11:07:27.776Z</time>
      </trkpt>
      <trkpt lat="45.98278" lon="4.77874">
        <ele>238.399993896</ele>
        <time>2015-12-12T11:07:28.759Z</time>
      </trkpt>
      <trkpt lat="45.98273" lon="4.77875">
        <ele>238.300003052</ele>
        <time>2015-12-12T11:07:29.779Z</time>
      </trkpt>
      <trkpt lat="45.98269" lon="4.77877">
        <ele>238.300003052</ele>
        <time>2015-12-12T11:07:30.759Z</time>
      </trkpt>
      <trkpt lat="45.98261" lon="4.77881">
        <ele>237.800003052</ele>
        <time>2015-12-12T11:07:32.778Z</time>
      </trkpt>
      <trkpt lat="45.98257" lon="4.77882">
        <ele>237.699996948</ele>
        <time>2015-12-12T11:07:33.893Z</time>
      </trkpt>
      <trkpt lat="45.98249" lon="4.77886">
        <ele>237.699996948</ele>
        <time>2015-12-12T11:07:35.778Z</time>
      </trkpt>
      <trkpt lat="45.98245" lon="4.77889">
        <ele>238.5</ele>
        <time>2015-12-12T11:07:36.76Z</time>
      </trkpt>
      <trkpt lat="45.98237" lon="4.77892">
        <ele>240.199996948</ele>
        <time>2015-12-12T11:07:38.775Z</time>
      </trkpt>
      <trkpt lat="45.98233" lon="4.77893">
        <ele>240.300003052</ele>
        <time>2015-12-12T11:07:39.759Z</time>
      </trkpt>
      <trkpt lat="45.98225" lon="4.77896">
        <ele>240.699996948</ele>
        <time>2015-12-12T11:07:41.794Z</time>
      </trkpt>
      <trkpt lat="45.98221" lon="4.77897">
        <ele>240.899993896</ele>
        <time>2015-12-12T11:07:42.759Z</time>
      </trkpt>
      <trkpt lat="45.98213" lon="4.77901">
        <ele>241.5</ele>
        <time>2015-12-12T11:07:44.777Z</time>
      </trkpt>
      <trkpt lat="45.98208" lon="4.77903">
        <ele>241.699996948</ele>
        <time>2015-12-12T11:07:45.759Z</time>
      </trkpt>
      <trkpt lat="45.982" lon="4.77906">
        <ele>241.699996948</ele>
        <time>2015-12-12T11:07:47.779Z</time>
      </trkpt>
      <trkpt lat="45.98196" lon="4.77908">
        <ele>241.199996948</ele>
        <time>2015-12-12T11:07:48.759Z</time>
      </trkpt>
      <trkpt lat="45.98191" lon="4.77909">
        <ele>241.399993896</ele>
        <time>2015-12-12T11:07:49.783Z</time>
      </trkpt>
      <trkpt lat="45.98186" lon="4.77911">
        <ele>241.399993896</ele>
        <time>2015-12-12T11:07:50.762Z</time>
      </trkpt>
      <trkpt lat="45.98182" lon="4.77912">
        <ele>241.5</ele>
        <time>2015-12-12T11:07:51.776Z</time>
      </trkpt>
      <trkpt lat="45.98178" lon="4.77914">
        <ele>241.399993896</ele>
        <time>2015-12-12T11:07:52.759Z</time>
      </trkpt>
      <trkpt lat="45.98169" lon="4.77917">
        <ele>241.199996948</ele>
        <time>2015-12-12T11:07:54.776Z</time>
      </trkpt>
      <trkpt lat="45.98165" lon="4.77919">
        <ele>241.100006104</ele>
        <time>2015-12-12T11:07:55.76Z</time>
      </trkpt>
      <trkpt lat="45.98156" lon="4.77922">
        <ele>241.600006104</ele>
        <time>2015-12-12T11:07:57.79Z</time>
      </trkpt>
      <trkpt lat="45.98152" lon="4.77924">
        <ele>241.800003052</ele>
        <time>2015-12-12T11:07:58.762Z</time>
      </trkpt>
      <trkpt lat="45.98147" lon="4.77925">
        <ele>241.800003052</ele>
        <time>2015-12-12T11:07:59.782Z</time>
      </trkpt>
      <trkpt lat="45.98142" lon="4.77925">
        <ele>242</ele>
        <time>2015-12-12T11:08:00.759Z</time>
      </trkpt>
      <trkpt lat="45.98137" lon="4.77927">
        <ele>242</ele>
        <time>2015-12-12T11:08:01.777Z</time>
      </trkpt>
      <trkpt lat="45.98133" lon="4.77928">
        <ele>242.100006104</ele>
        <time>2015-12-12T11:08:02.759Z</time>
      </trkpt>
      <trkpt lat="45.98128" lon="4.77929">
        <ele>242.199996948</ele>
        <time>2015-12-12T11:08:03.776Z</time>
      </trkpt>
      <trkpt lat="45.98124" lon="4.7793">
        <ele>242.199996948</ele>
        <time>2015-12-12T11:08:04.759Z</time>
      </trkpt>
      <trkpt lat="45.98119" lon="4.77931">
        <ele>242.199996948</ele>
        <time>2015-12-12T11:08:05.779Z</time>
      </trkpt>
      <trkpt lat="45.98115" lon="4.77931">
        <ele>242.5</ele>
        <time>2015-12-12T11:08:06.759Z</time>
      </trkpt>
      <trkpt lat="45.9811" lon="4.77932">
        <ele>242.5</ele>
        <time>2015-12-12T11:08:07.777Z</time>
      </trkpt>
      <trkpt lat="45.98106" lon="4.77933">
        <ele>242.600006104</ele>
        <time>2015-12-12T11:08:08.759Z</time>
      </trkpt>
      <trkpt lat="45.98101" lon="4.77934">
        <ele>242.600006104</ele>
        <time>2015-12-12T11:08:09.913Z</time>
      </trkpt>
      <trkpt lat="45.98096" lon="4.77934">
        <ele>242.5</ele>
        <time>2015-12-12T11:08:10.759Z</time>
      </trkpt>
      <trkpt lat="45.98091" lon="4.77935">
        <ele>242.399993896</ele>
        <time>2015-12-12T11:08:11.779Z</time>
      </trkpt>
      <trkpt lat="45.98085" lon="4.77936">
        <ele>242.300003052</ele>
        <time>2015-12-12T11:08:12.759Z</time>
      </trkpt>
      <trkpt lat="45.9808" lon="4.77937">
        <ele>242.199996948</ele>
        <time>2015-12-12T11:08:13.791Z</time>
      </trkpt>
      <trkpt lat="45.98076" lon="4.77938">
        <ele>242.300003052</ele>
        <time>2015-12-12T11:08:14.759Z</time>
      </trkpt>
      <trkpt lat="45.98067" lon="4.77939">
        <ele>242.699996948</ele>
        <time>2015-12-12T11:08:16.775Z</time>
      </trkpt>
      <trkpt lat="45.98063" lon="4.7794">
        <ele>242.800003052</ele>
        <time>2015-12-12T11:08:17.763Z</time>
      </trkpt>
      <trkpt lat="45.98054" lon="4.77941">
        <ele>243.300003052</ele>
        <time>2015-12-12T11:08:19.777Z</time>
      </trkpt>
      <trkpt lat="45.9805" lon="4.77942">
        <ele>243.300003052</ele>
        <time>2015-12-12T11:08:20.759Z</time>
      </trkpt>
      <trkpt lat="45.98041" lon="4.77943">
        <ele>243.300003052</ele>
        <time>2015-12-12T11:08:22.775Z</time>
      </trkpt>
      <trkpt lat="45.98036" lon="4.77943">
        <ele>243.5</ele>
        <time>2015-12-12T11:08:23.763Z</time>
      </trkpt>
      <trkpt lat="45.98031" lon="4.77944">
        <ele>243.5</ele>
        <time>2015-12-12T11:08:24.778Z</time>
      </trkpt>
      <trkpt lat="45.98026" lon="4.77944">
        <ele>243.399993896</ele>
        <time>2015-12-12T11:08:25.76Z</time>
      </trkpt>
      <trkpt lat="45.98022" lon="4.77945">
        <ele>243.199996948</ele>
        <time>2015-12-12T11:08:26.775Z</time>
      </trkpt>
      <trkpt lat="45.98017" lon="4.77946">
        <ele>243.199996948</ele>
        <time>2015-12-12T11:08:27.759Z</time>
      </trkpt>
      <trkpt lat="45.98012" lon="4.77947">
        <ele>243.300003052</ele>
        <time>2015-12-12T11:08:28.775Z</time>
      </trkpt>
      <trkpt lat="45.98007" lon="4.77947">
        <ele>243.100006104</ele>
        <time>2015-12-12T11:08:29.763Z</time>
      </trkpt>
      <trkpt lat="45.98002" lon="4.77948">
        <ele>242.899993896</ele>
        <time>2015-12-12T11:08:30.775Z</time>
      </trkpt>
      <trkpt lat="45.97998" lon="4.77948">
        <ele>242.699996948</ele>
        <time>2015-12-12T11:08:31.76Z</time>
      </trkpt>
      <trkpt lat="45.97989" lon="4.77949">
        <ele>242.399993896</ele>
        <time>2015-12-12T11:08:33.776Z</time>
      </trkpt>
      <trkpt lat="45.97984" lon="4.7795">
        <ele>242.5</ele>
        <time>2015-12-12T11:08:34.759Z</time>
      </trkpt>
      <trkpt lat="45.97976" lon="4.77951">
        <ele>242.800003052</ele>
        <time>2015-12-12T11:08:36.779Z</time>
      </trkpt>
      <trkpt lat="45.97972" lon="4.77951">
        <ele>242.899993896</ele>
        <time>2015-12-12T11:08:37.76Z</time>
      </trkpt>
      <trkpt lat="45.97967" lon="4.77951">
        <ele>243.199996948</ele>
        <time>2015-12-12T11:08:38.776Z</time>
      </trkpt>
      <trkpt lat="45.97963" lon="4.77952">
        <ele>243.399993896</ele>
        <time>2015-12-12T11:08:39.759Z</time>
      </trkpt>
      <trkpt lat="45.97958" lon="4.77952">
        <ele>243.100006104</ele>
        <time>2015-12-12T11:08:40.775Z</time>
      </trkpt>
      <trkpt lat="45.97953" lon="4.77952">
        <ele>243.5</ele>
        <time>2015-12-12T11:08:41.763Z</time>
      </trkpt>
      <trkpt lat="45.97948" lon="4.77953">
        <ele>243.5</ele>
        <time>2015-12-12T11:08:42.776Z</time>
      </trkpt>
      <trkpt lat="45.97943" lon="4.77954">
        <ele>243.300003052</ele>
        <time>2015-12-12T11:08:43.761Z</time>
      </trkpt>
      <trkpt lat="45.97938" lon="4.77955">
        <ele>243.100006104</ele>
        <time>2015-12-12T11:08:44.777Z</time>
      </trkpt>
      <trkpt lat="45.97933" lon="4.77956">
        <ele>242.899993896</ele>
        <time>2015-12-12T11:08:45.76Z</time>
      </trkpt>
      <trkpt lat="45.97928" lon="4.77957">
        <ele>242.699996948</ele>
        <time>2015-12-12T11:08:46.776Z</time>
      </trkpt>
      <trkpt lat="45.97923" lon="4.77958">
        <ele>243.5</ele>
        <time>2015-12-12T11:08:47.763Z</time>
      </trkpt>
      <trkpt lat="45.97914" lon="4.77959">
        <ele>243.699996948</ele>
        <time>2015-12-12T11:08:49.778Z</time>
      </trkpt>
      <trkpt lat="45.9791" lon="4.7796">
        <ele>243.600006104</ele>
        <time>2015-12-12T11:08:50.778Z</time>
      </trkpt>
      <trkpt lat="45.97905" lon="4.77962">
        <ele>244.100006104</ele>
        <time>2015-12-12T11:08:51.777Z</time>
      </trkpt>
      <trkpt lat="45.979" lon="4.77963">
        <ele>244.300003052</ele>
        <time>2015-12-12T11:08:52.759Z</time>
      </trkpt>
      <trkpt lat="45.97896" lon="4.77964">
        <ele>244</ele>
        <time>2015-12-12T11:08:53.779Z</time>
      </trkpt>
      <trkpt lat="45.97891" lon="4.77966">
        <ele>244</ele>
        <time>2015-12-12T11:08:54.759Z</time>
      </trkpt>
      <trkpt lat="45.97886" lon="4.77967">
        <ele>243.800003052</ele>
        <time>2015-12-12T11:08:55.777Z</time>
      </trkpt>
      <trkpt lat="45.97881" lon="4.77969">
        <ele>243.699996948</ele>
        <time>2015-12-12T11:08:56.759Z</time>
      </trkpt>
      <trkpt lat="45.97876" lon="4.77971">
        <ele>243.699996948</ele>
        <time>2015-12-12T11:08:57.776Z</time>
      </trkpt>
      <trkpt lat="45.97871" lon="4.77973">
        <ele>243.800003052</ele>
        <time>2015-12-12T11:08:58.759Z</time>
      </trkpt>
      <trkpt lat="45.97866" lon="4.77975">
        <ele>243.800003052</ele>
        <time>2015-12-12T11:08:59.779Z</time>
      </trkpt>
      <trkpt lat="45.97861" lon="4.77977">
        <ele>243.899993896</ele>
        <time>2015-12-12T11:09:00.772Z</time>
      </trkpt>
      <trkpt lat="45.97856" lon="4.77978">
        <ele>244</ele>
        <time>2015-12-12T11:09:01.776Z</time>
      </trkpt>
      <trkpt lat="45.97851" lon="4.7798">
        <ele>244.100006104</ele>
        <time>2015-12-12T11:09:02.759Z</time>
      </trkpt>
      <trkpt lat="45.97846" lon="4.77983">
        <ele>244.100006104</ele>
        <time>2015-12-12T11:09:03.775Z</time>
      </trkpt>
      <trkpt lat="45.97842" lon="4.77985">
        <ele>244</ele>
        <time>2015-12-12T11:09:04.759Z</time>
      </trkpt>
      <trkpt lat="45.97837" lon="4.77987">
        <ele>244.100006104</ele>
        <time>2015-12-12T11:09:05.784Z</time>
      </trkpt>
      <trkpt lat="45.97832" lon="4.77989">
        <ele>244.300003052</ele>
        <time>2015-12-12T11:09:06.759Z</time>
      </trkpt>
      <trkpt lat="45.97826" lon="4.77992">
        <ele>244.399993896</ele>
        <time>2015-12-12T11:09:07.777Z</time>
      </trkpt>
      <trkpt lat="45.97821" lon="4.77994">
        <ele>244.399993896</ele>
        <time>2015-12-12T11:09:08.759Z</time>
      </trkpt>
      <trkpt lat="45.97816" lon="4.77996">
        <ele>244.399993896</ele>
        <time>2015-12-12T11:09:09.776Z</time>
      </trkpt>
      <trkpt lat="45.97811" lon="4.77998">
        <ele>244.300003052</ele>
        <time>2015-12-12T11:09:10.759Z</time>
      </trkpt>
      <trkpt lat="45.97806" lon="4.78">
        <ele>244.399993896</ele>
        <time>2015-12-12T11:09:11.794Z</time>
      </trkpt>
      <trkpt lat="45.978" lon="4.78002">
        <ele>244.300003052</ele>
        <time>2015-12-12T11:09:12.759Z</time>
      </trkpt>
      <trkpt lat="45.97795" lon="4.78004">
        <ele>244.399993896</ele>
        <time>2015-12-12T11:09:13.776Z</time>
      </trkpt>
      <trkpt lat="45.9779" lon="4.78006">
        <ele>244.5</ele>
        <time>2015-12-12T11:09:14.759Z</time>
      </trkpt>
      <trkpt lat="45.97785" lon="4.78008">
        <ele>244.399993896</ele>
        <time>2015-12-12T11:09:15.821Z</time>
      </trkpt>
      <trkpt lat="45.9778" lon="4.7801">
        <ele>244.399993896</ele>
        <time>2015-12-12T11:09:16.762Z</time>
      </trkpt>
      <trkpt lat="45.97775" lon="4.78013">
        <ele>244.399993896</ele>
        <time>2015-12-12T11:09:17.78Z</time>
      </trkpt>
      <trkpt lat="45.97771" lon="4.78015">
        <ele>244.300003052</ele>
        <time>2015-12-12T11:09:18.759Z</time>
      </trkpt>
      <trkpt lat="45.97766" lon="4.78017">
        <ele>244.300003052</ele>
        <time>2015-12-12T11:09:19.777Z</time>
      </trkpt>
      <trkpt lat="45.9776" lon="4.78019">
        <ele>244.300003052</ele>
        <time>2015-12-12T11:09:20.759Z</time>
      </trkpt>
      <trkpt lat="45.97755" lon="4.78021">
        <ele>244.399993896</ele>
        <time>2015-12-12T11:09:21.776Z</time>
      </trkpt>
      <trkpt lat="45.9775" lon="4.78023">
        <ele>244.399993896</ele>
        <time>2015-12-12T11:09:22.759Z</time>
      </trkpt>
      <trkpt lat="45.97745" lon="4.78025">
        <ele>244.300003052</ele>
        <time>2015-12-12T11:09:23.779Z</time>
      </trkpt>
      <trkpt lat="45.97739" lon="4.78027">
        <ele>244.199996948</ele>
        <time>2015-12-12T11:09:24.759Z</time>
      </trkpt>
      <trkpt lat="45.97733" lon="4.7803">
        <ele>244</ele>
        <time>2015-12-12T11:09:25.776Z</time>
      </trkpt>
      <trkpt lat="45.97728" lon="4.78032">
        <ele>244</ele>
        <time>2015-12-12T11:09:26.759Z</time>
      </trkpt>
      <trkpt lat="45.97723" lon="4.78034">
        <ele>244</ele>
        <time>2015-12-12T11:09:27.799Z</time>
      </trkpt>
      <trkpt lat="45.97718" lon="4.78036">
        <ele>244</ele>
        <time>2015-12-12T11:09:28.759Z</time>
      </trkpt>
      <trkpt lat="45.97712" lon="4.78038">
        <ele>244</ele>
        <time>2015-12-12T11:09:29.779Z</time>
      </trkpt>
      <trkpt lat="45.97708" lon="4.7804">
        <ele>244.100006104</ele>
        <time>2015-12-12T11:09:30.759Z</time>
      </trkpt>
      <trkpt lat="45.97703" lon="4.78042">
        <ele>244.199996948</ele>
        <time>2015-12-12T11:09:31.778Z</time>
      </trkpt>
      <trkpt lat="45.97698" lon="4.78044">
        <ele>244</ele>
        <time>2015-12-12T11:09:32.759Z</time>
      </trkpt>
      <trkpt lat="45.97694" lon="4.78046">
        <ele>244</ele>
        <time>2015-12-12T11:09:33.776Z</time>
      </trkpt>
      <trkpt lat="45.97688" lon="4.78048">
        <ele>244.100006104</ele>
        <time>2015-12-12T11:09:34.759Z</time>
      </trkpt>
      <trkpt lat="45.97684" lon="4.7805">
        <ele>244.199996948</ele>
        <time>2015-12-12T11:09:35.778Z</time>
      </trkpt>
      <trkpt lat="45.97678" lon="4.78052">
        <ele>244.199996948</ele>
        <time>2015-12-12T11:09:36.759Z</time>
      </trkpt>
      <trkpt lat="45.97673" lon="4.78055">
        <ele>244.199996948</ele>
        <time>2015-12-12T11:09:37.776Z</time>
      </trkpt>
      <trkpt lat="45.97668" lon="4.78057">
        <ele>244.300003052</ele>
        <time>2015-12-12T11:09:38.791Z</time>
      </trkpt>
      <trkpt lat="45.97662" lon="4.78059">
        <ele>244.5</ele>
        <time>2015-12-12T11:09:39.775Z</time>
      </trkpt>
      <trkpt lat="45.97657" lon="4.78062">
        <ele>244.5</ele>
        <time>2015-12-12T11:09:40.759Z</time>
      </trkpt>
      <trkpt lat="45.97652" lon="4.78065">
        <ele>244.5</ele>
        <time>2015-12-12T11:09:41.779Z</time>
      </trkpt>
      <trkpt lat="45.97647" lon="4.78068">
        <ele>244.5</ele>
        <time>2015-12-12T11:09:42.762Z</time>
      </trkpt>
      <trkpt lat="45.97642" lon="4.78072">
        <ele>244.5</ele>
        <time>2015-12-12T11:09:43.777Z</time>
      </trkpt>
      <trkpt lat="45.97638" lon="4.78076">
        <ele>244.600006104</ele>
        <time>2015-12-12T11:09:44.759Z</time>
      </trkpt>
      <trkpt lat="45.97633" lon="4.78081">
        <ele>244.600006104</ele>
        <time>2015-12-12T11:09:45.775Z</time>
      </trkpt>
      <trkpt lat="45.97629" lon="4.78085">
        <ele>244.5</ele>
        <time>2015-12-12T11:09:46.759Z</time>
      </trkpt>
      <trkpt lat="45.97625" lon="4.7809">
        <ele>244.5</ele>
        <time>2015-12-12T11:09:47.821Z</time>
      </trkpt>
      <trkpt lat="45.97622" lon="4.78094">
        <ele>244.5</ele>
        <time>2015-12-12T11:09:48.759Z</time>
      </trkpt>
      <trkpt lat="45.97618" lon="4.78099">
        <ele>244.5</ele>
        <time>2015-12-12T11:09:49.796Z</time>
      </trkpt>
      <trkpt lat="45.97614" lon="4.78103">
        <ele>244.399993896</ele>
        <time>2015-12-12T11:09:50.762Z</time>
      </trkpt>
      <trkpt lat="45.9761" lon="4.78107">
        <ele>244.5</ele>
        <time>2015-12-12T11:09:51.775Z</time>
      </trkpt>
      <trkpt lat="45.97606" lon="4.78112">
        <ele>244.399993896</ele>
        <time>2015-12-12T11:09:52.759Z</time>
      </trkpt>
      <trkpt lat="45.97602" lon="4.78117">
        <ele>244.300003052</ele>
        <time>2015-12-12T11:09:53.78Z</time>
      </trkpt>
      <trkpt lat="45.97598" lon="4.78122">
        <ele>244.199996948</ele>
        <time>2015-12-12T11:09:54.759Z</time>
      </trkpt>
      <trkpt lat="45.97594" lon="4.78127">
        <ele>243.199996948</ele>
        <time>2015-12-12T11:09:55.776Z</time>
      </trkpt>
      <trkpt lat="45.97589" lon="4.78132">
        <ele>242.800003052</ele>
        <time>2015-12-12T11:09:56.759Z</time>
      </trkpt>
      <trkpt lat="45.97584" lon="4.78138">
        <ele>242.300003052</ele>
        <time>2015-12-12T11:09:57.775Z</time>
      </trkpt>
      <trkpt lat="45.97578" lon="4.78145">
        <ele>241.600006104</ele>
        <time>2015-12-12T11:09:58.759Z</time>
      </trkpt>
      <trkpt lat="45.97573" lon="4.78151">
        <ele>240.899993896</ele>
        <time>2015-12-12T11:09:59.831Z</time>
      </trkpt>
      <trkpt lat="45.97567" lon="4.78158">
        <ele>240.100006104</ele>
        <time>2015-12-12T11:10:00.759Z</time>
      </trkpt>
      <trkpt lat="45.9756" lon="4.78166">
        <ele>239.399993896</ele>
        <time>2015-12-12T11:10:01.776Z</time>
      </trkpt>
      <trkpt lat="45.97553" lon="4.78173">
        <ele>238.600006104</ele>
        <time>2015-12-12T11:10:02.759Z</time>
      </trkpt>
      <trkpt lat="45.97553" lon="4.78173">
        <ele>238.600006104</ele>
        <time>2015-12-12T11:10:02.776Z</time>
      </trkpt>
      <trkpt lat="45.97546" lon="4.78181">
        <ele>237.899993896</ele>
        <time>2015-12-12T11:10:03.759Z</time>
      </trkpt>
      <trkpt lat="45.97546" lon="4.78181">
        <ele>237.899993896</ele>
        <time>2015-12-12T11:10:03.776Z</time>
      </trkpt>
      <trkpt lat="45.97539" lon="4.7819">
        <ele>237.199996948</ele>
        <time>2015-12-12T11:10:04.759Z</time>
      </trkpt>
      <trkpt lat="45.97539" lon="4.7819">
        <ele>237.199996948</ele>
        <time>2015-12-12T11:10:04.777Z</time>
      </trkpt>
      <trkpt lat="45.97531" lon="4.78199">
        <ele>236.399993896</ele>
        <time>2015-12-12T11:10:05.762Z</time>
      </trkpt>
      <trkpt lat="45.97531" lon="4.78199">
        <ele>236.399993896</ele>
        <time>2015-12-12T11:10:05.806Z</time>
      </trkpt>
      <trkpt lat="45.97524" lon="4.78207">
        <ele>235.5</ele>
        <time>2015-12-12T11:10:06.761Z</time>
      </trkpt>
      <trkpt lat="45.97524" lon="4.78207">
        <ele>235.5</ele>
        <time>2015-12-12T11:10:06.783Z</time>
      </trkpt>
      <trkpt lat="45.97516" lon="4.78216">
        <ele>235.699996948</ele>
        <time>2015-12-12T11:10:07.762Z</time>
      </trkpt>
      <trkpt lat="45.97516" lon="4.78216">
        <ele>235.699996948</ele>
        <time>2015-12-12T11:10:07.782Z</time>
      </trkpt>
      <trkpt lat="45.97508" lon="4.78225">
        <ele>235.199996948</ele>
        <time>2015-12-12T11:10:08.763Z</time>
      </trkpt>
      <trkpt lat="45.97508" lon="4.78225">
        <ele>235.199996948</ele>
        <time>2015-12-12T11:10:08.782Z</time>
      </trkpt>
      <trkpt lat="45.975" lon="4.78233">
        <ele>234.699996948</ele>
        <time>2015-12-12T11:10:09.761Z</time>
      </trkpt>
      <trkpt lat="45.975" lon="4.78233">
        <ele>234.699996948</ele>
        <time>2015-12-12T11:10:09.797Z</time>
      </trkpt>
      <trkpt lat="45.97493" lon="4.78242">
        <ele>234.300003052</ele>
        <time>2015-12-12T11:10:10.761Z</time>
      </trkpt>
      <trkpt lat="45.97493" lon="4.78242">
        <ele>234.300003052</ele>
        <time>2015-12-12T11:10:10.778Z</time>
      </trkpt>
      <trkpt lat="45.97485" lon="4.7825">
        <ele>233.899993896</ele>
        <time>2015-12-12T11:10:11.763Z</time>
      </trkpt>
      <trkpt lat="45.97485" lon="4.7825">
        <ele>233.899993896</ele>
        <time>2015-12-12T11:10:11.78Z</time>
      </trkpt>
      <trkpt lat="45.97478" lon="4.78259">
        <ele>233.600006104</ele>
        <time>2015-12-12T11:10:12.759Z</time>
      </trkpt>
      <trkpt lat="45.97478" lon="4.78259">
        <ele>233.600006104</ele>
        <time>2015-12-12T11:10:12.776Z</time>
      </trkpt>
      <trkpt lat="45.97471" lon="4.78267">
        <ele>233.199996948</ele>
        <time>2015-12-12T11:10:13.759Z</time>
      </trkpt>
      <trkpt lat="45.97464" lon="4.78275">
        <ele>232.899993896</ele>
        <time>2015-12-12T11:10:14.79Z</time>
      </trkpt>
      <trkpt lat="45.97457" lon="4.78283">
        <ele>232.600006104</ele>
        <time>2015-12-12T11:10:15.759Z</time>
      </trkpt>
      <trkpt lat="45.9745" lon="4.7829">
        <ele>232.399993896</ele>
        <time>2015-12-12T11:10:16.775Z</time>
      </trkpt>
      <trkpt lat="45.97444" lon="4.78298">
        <ele>232.300003052</ele>
        <time>2015-12-12T11:10:17.763Z</time>
      </trkpt>
      <trkpt lat="45.97437" lon="4.78305">
        <ele>232.199996948</ele>
        <time>2015-12-12T11:10:18.776Z</time>
      </trkpt>
      <trkpt lat="45.97431" lon="4.78312">
        <ele>232</ele>
        <time>2015-12-12T11:10:19.76Z</time>
      </trkpt>
      <trkpt lat="45.97425" lon="4.78319">
        <ele>231.899993896</ele>
        <time>2015-12-12T11:10:20.775Z</time>
      </trkpt>
      <trkpt lat="45.97419" lon="4.78325">
        <ele>231.699996948</ele>
        <time>2015-12-12T11:10:21.759Z</time>
      </trkpt>
      <trkpt lat="45.97413" lon="4.78332">
        <ele>231.600006104</ele>
        <time>2015-12-12T11:10:22.775Z</time>
      </trkpt>
      <trkpt lat="45.97407" lon="4.78338">
        <ele>231.399993896</ele>
        <time>2015-12-12T11:10:23.763Z</time>
      </trkpt>
      <trkpt lat="45.97401" lon="4.78344">
        <ele>231.300003052</ele>
        <time>2015-12-12T11:10:24.775Z</time>
      </trkpt>
      <trkpt lat="45.97395" lon="4.7835">
        <ele>231.100006104</ele>
        <time>2015-12-12T11:10:25.759Z</time>
      </trkpt>
      <trkpt lat="45.9739" lon="4.78356">
        <ele>231</ele>
        <time>2015-12-12T11:10:26.775Z</time>
      </trkpt>
      <trkpt lat="45.97385" lon="4.78362">
        <ele>231</ele>
        <time>2015-12-12T11:10:27.791Z</time>
      </trkpt>
      <trkpt lat="45.9738" lon="4.78368">
        <ele>231</ele>
        <time>2015-12-12T11:10:28.774Z</time>
      </trkpt>
      <trkpt lat="45.97375" lon="4.78374">
        <ele>231</ele>
        <time>2015-12-12T11:10:29.762Z</time>
      </trkpt>
      <trkpt lat="45.9737" lon="4.7838">
        <ele>231.100006104</ele>
        <time>2015-12-12T11:10:30.788Z</time>
      </trkpt>
      <trkpt lat="45.97365" lon="4.78385">
        <ele>230.899993896</ele>
        <time>2015-12-12T11:10:31.759Z</time>
      </trkpt>
      <trkpt lat="45.9736" lon="4.78391">
        <ele>230.800003052</ele>
        <time>2015-12-12T11:10:32.775Z</time>
      </trkpt>
      <trkpt lat="45.97355" lon="4.78395">
        <ele>230.899993896</ele>
        <time>2015-12-12T11:10:33.758Z</time>
      </trkpt>
      <trkpt lat="45.9735" lon="4.78399">
        <ele>230.899993896</ele>
        <time>2015-12-12T11:10:34.916Z</time>
      </trkpt>
      <trkpt lat="45.97345" lon="4.784">
        <ele>230.899993896</ele>
        <time>2015-12-12T11:10:35.762Z</time>
      </trkpt>
      <trkpt lat="45.9734" lon="4.78398">
        <ele>230.5</ele>
        <time>2015-12-12T11:10:36.774Z</time>
      </trkpt>
      <trkpt lat="45.97336" lon="4.78393">
        <ele>229.899993896</ele>
        <time>2015-12-12T11:10:37.759Z</time>
      </trkpt>
      <trkpt lat="45.97333" lon="4.78388">
        <ele>229.699996948</ele>
        <time>2015-12-12T11:10:38.774Z</time>
      </trkpt>
      <trkpt lat="45.97329" lon="4.78381">
        <ele>229.399993896</ele>
        <time>2015-12-12T11:10:39.758Z</time>
      </trkpt>
      <trkpt lat="45.97324" lon="4.78376">
        <ele>229.199996948</ele>
        <time>2015-12-12T11:10:40.775Z</time>
      </trkpt>
      <trkpt lat="45.9732" lon="4.7837">
        <ele>229</ele>
        <time>2015-12-12T11:10:41.762Z</time>
      </trkpt>
      <trkpt lat="45.97315" lon="4.78364">
        <ele>228.699996948</ele>
        <time>2015-12-12T11:10:42.775Z</time>
      </trkpt>
      <trkpt lat="45.97311" lon="4.78358">
        <ele>228.5</ele>
        <time>2015-12-12T11:10:43.759Z</time>
      </trkpt>
      <trkpt lat="45.97306" lon="4.78352">
        <ele>227.699996948</ele>
        <time>2015-12-12T11:10:44.775Z</time>
      </trkpt>
      <trkpt lat="45.97302" lon="4.78347">
        <ele>226.800003052</ele>
        <time>2015-12-12T11:10:45.758Z</time>
      </trkpt>
      <trkpt lat="45.97297" lon="4.78341">
        <ele>226.399993896</ele>
        <time>2015-12-12T11:10:46.789Z</time>
      </trkpt>
      <trkpt lat="45.97292" lon="4.78334">
        <ele>226.100006104</ele>
        <time>2015-12-12T11:10:47.762Z</time>
      </trkpt>
      <trkpt lat="45.97288" lon="4.78328">
        <ele>226.600006104</ele>
        <time>2015-12-12T11:10:48.774Z</time>
      </trkpt>
      <trkpt lat="45.97283" lon="4.78321">
        <ele>226.600006104</ele>
        <time>2015-12-12T11:10:49.76Z</time>
      </trkpt>
      <trkpt lat="45.97278" lon="4.78314">
        <ele>226.600006104</ele>
        <time>2015-12-12T11:10:50.778Z</time>
      </trkpt>
      <trkpt lat="45.97273" lon="4.78307">
        <ele>226.800003052</ele>
        <time>2015-12-12T11:10:51.758Z</time>
      </trkpt>
      <trkpt lat="45.97268" lon="4.78301">
        <ele>226.5</ele>
        <time>2015-12-12T11:10:52.825Z</time>
      </trkpt>
      <trkpt lat="45.97263" lon="4.78294">
        <ele>226.5</ele>
        <time>2015-12-12T11:10:53.762Z</time>
      </trkpt>
      <trkpt lat="45.97257" lon="4.78287">
        <ele>225.600006104</ele>
        <time>2015-12-12T11:10:54.774Z</time>
      </trkpt>
      <trkpt lat="45.97252" lon="4.7828">
        <ele>225</ele>
        <time>2015-12-12T11:10:55.759Z</time>
      </trkpt>
      <trkpt lat="45.97248" lon="4.78274">
        <ele>224.600006104</ele>
        <time>2015-12-12T11:10:56.775Z</time>
      </trkpt>
      <trkpt lat="45.97243" lon="4.78268">
        <ele>224.100006104</ele>
        <time>2015-12-12T11:10:57.758Z</time>
      </trkpt>
      <trkpt lat="45.97239" lon="4.78261">
        <ele>223.5</ele>
        <time>2015-12-12T11:10:58.774Z</time>
      </trkpt>
      <trkpt lat="45.97235" lon="4.78255">
        <ele>222.899993896</ele>
        <time>2015-12-12T11:10:59.762Z</time>
      </trkpt>
      <trkpt lat="45.97231" lon="4.78248">
        <ele>222.800003052</ele>
        <time>2015-12-12T11:11:00.778Z</time>
      </trkpt>
      <trkpt lat="45.97227" lon="4.78243">
        <ele>222.300003052</ele>
        <time>2015-12-12T11:11:01.759Z</time>
      </trkpt>
      <trkpt lat="45.97222" lon="4.78241">
        <ele>222.300003052</ele>
        <time>2015-12-12T11:11:02.774Z</time>
      </trkpt>
      <trkpt lat="45.97217" lon="4.78242">
        <ele>223.300003052</ele>
        <time>2015-12-12T11:11:03.758Z</time>
      </trkpt>
      <trkpt lat="45.97213" lon="4.78245">
        <ele>223.300003052</ele>
        <time>2015-12-12T11:11:04.774Z</time>
      </trkpt>
      <trkpt lat="45.97209" lon="4.78249">
        <ele>224.399993896</ele>
        <time>2015-12-12T11:11:05.762Z</time>
      </trkpt>
      <trkpt lat="45.97204" lon="4.78253">
        <ele>225</ele>
        <time>2015-12-12T11:11:06.775Z</time>
      </trkpt>
      <trkpt lat="45.972" lon="4.78257">
        <ele>225.399993896</ele>
        <time>2015-12-12T11:11:07.773Z</time>
      </trkpt>
      <trkpt lat="45.97195" lon="4.78261">
        <ele>226.100006104</ele>
        <time>2015-12-12T11:11:08.774Z</time>
      </trkpt>
      <trkpt lat="45.9719" lon="4.78265">
        <ele>226.699996948</ele>
        <time>2015-12-12T11:11:09.758Z</time>
      </trkpt>
      <trkpt lat="45.97185" lon="4.78269">
        <ele>227.199996948</ele>
        <time>2015-12-12T11:11:10.916Z</time>
      </trkpt>
      <trkpt lat="45.97179" lon="4.78273">
        <ele>228</ele>
        <time>2015-12-12T11:11:11.762Z</time>
      </trkpt>
      <trkpt lat="45.97174" lon="4.78277">
        <ele>228.300003052</ele>
        <time>2015-12-12T11:11:12.774Z</time>
      </trkpt>
      <trkpt lat="45.97168" lon="4.78282">
        <ele>228.800003052</ele>
        <time>2015-12-12T11:11:13.76Z</time>
      </trkpt>
      <trkpt lat="45.97163" lon="4.78286">
        <ele>228.199996948</ele>
        <time>2015-12-12T11:11:14.774Z</time>
      </trkpt>
      <trkpt lat="45.97158" lon="4.78291">
        <ele>227.899993896</ele>
        <time>2015-12-12T11:11:15.758Z</time>
      </trkpt>
      <trkpt lat="45.97153" lon="4.78295">
        <ele>227.899993896</ele>
        <time>2015-12-12T11:11:16.783Z</time>
      </trkpt>
      <trkpt lat="45.97148" lon="4.78299">
        <ele>227.699996948</ele>
        <time>2015-12-12T11:11:17.762Z</time>
      </trkpt>
      <trkpt lat="45.97143" lon="4.78303">
        <ele>227.5</ele>
        <time>2015-12-12T11:11:18.775Z</time>
      </trkpt>
      <trkpt lat="45.97138" lon="4.78307">
        <ele>227.5</ele>
        <time>2015-12-12T11:11:19.759Z</time>
      </trkpt>
      <trkpt lat="45.97132" lon="4.78311">
        <ele>227.5</ele>
        <time>2015-12-12T11:11:20.775Z</time>
      </trkpt>
      <trkpt lat="45.97127" lon="4.78315">
        <ele>227.5</ele>
        <time>2015-12-12T11:11:21.758Z</time>
      </trkpt>
      <trkpt lat="45.97122" lon="4.78318">
        <ele>227.399993896</ele>
        <time>2015-12-12T11:11:22.775Z</time>
      </trkpt>
      <trkpt lat="45.97116" lon="4.78322">
        <ele>227.5</ele>
        <time>2015-12-12T11:11:23.762Z</time>
      </trkpt>
      <trkpt lat="45.97111" lon="4.78326">
        <ele>227.5</ele>
        <time>2015-12-12T11:11:24.774Z</time>
      </trkpt>
      <trkpt lat="45.97105" lon="4.78331">
        <ele>227.699996948</ele>
        <time>2015-12-12T11:11:25.759Z</time>
      </trkpt>
      <trkpt lat="45.971" lon="4.78335">
        <ele>227.800003052</ele>
        <time>2015-12-12T11:11:26.779Z</time>
      </trkpt>
      <trkpt lat="45.97094" lon="4.78339">
        <ele>227.899993896</ele>
        <time>2015-12-12T11:11:27.758Z</time>
      </trkpt>
      <trkpt lat="45.97089" lon="4.78343">
        <ele>228</ele>
        <time>2015-12-12T11:11:28.775Z</time>
      </trkpt>
      <trkpt lat="45.97084" lon="4.78347">
        <ele>228</ele>
        <time>2015-12-12T11:11:29.762Z</time>
      </trkpt>
      <trkpt lat="45.97079" lon="4.7835">
        <ele>227.899993896</ele>
        <time>2015-12-12T11:11:30.775Z</time>
      </trkpt>
      <trkpt lat="45.97074" lon="4.78354">
        <ele>227.699996948</ele>
        <time>2015-12-12T11:11:31.759Z</time>
      </trkpt>
      <trkpt lat="45.97069" lon="4.78358">
        <ele>227.800003052</ele>
        <time>2015-12-12T11:11:32.775Z</time>
      </trkpt>
      <trkpt lat="45.97064" lon="4.78362">
        <ele>227.699996948</ele>
        <time>2015-12-12T11:11:33.772Z</time>
      </trkpt>
      <trkpt lat="45.97059" lon="4.78366">
        <ele>227.600006104</ele>
        <time>2015-12-12T11:11:34.775Z</time>
      </trkpt>
      <trkpt lat="45.97054" lon="4.7837">
        <ele>227.5</ele>
        <time>2015-12-12T11:11:35.761Z</time>
      </trkpt>
      <trkpt lat="45.97049" lon="4.78375">
        <ele>227.300003052</ele>
        <time>2015-12-12T11:11:36.776Z</time>
      </trkpt>
      <trkpt lat="45.97043" lon="4.78379">
        <ele>227.199996948</ele>
        <time>2015-12-12T11:11:37.759Z</time>
      </trkpt>
      <trkpt lat="45.97038" lon="4.78384">
        <ele>226.899993896</ele>
        <time>2015-12-12T11:11:38.775Z</time>
      </trkpt>
      <trkpt lat="45.97033" lon="4.78389">
        <ele>226.699996948</ele>
        <time>2015-12-12T11:11:39.758Z</time>
      </trkpt>
      <trkpt lat="45.97027" lon="4.78394">
        <ele>226.199996948</ele>
        <time>2015-12-12T11:11:40.775Z</time>
      </trkpt>
      <trkpt lat="45.97021" lon="4.784">
        <ele>225.800003052</ele>
        <time>2015-12-12T11:11:41.762Z</time>
      </trkpt>
      <trkpt lat="45.97014" lon="4.78405">
        <ele>225.300003052</ele>
        <time>2015-12-12T11:11:42.824Z</time>
      </trkpt>
      <trkpt lat="45.97007" lon="4.7841">
        <ele>224.800003052</ele>
        <time>2015-12-12T11:11:43.759Z</time>
      </trkpt>
      <trkpt lat="45.97" lon="4.78415">
        <ele>224.300003052</ele>
        <time>2015-12-12T11:11:44.775Z</time>
      </trkpt>
      <trkpt lat="45.96992" lon="4.78419">
        <ele>223.800003052</ele>
        <time>2015-12-12T11:11:45.759Z</time>
      </trkpt>
      <trkpt lat="45.96983" lon="4.78422">
        <ele>223.199996948</ele>
        <time>2015-12-12T11:11:46.775Z</time>
      </trkpt>
      <trkpt lat="45.96974" lon="4.78424">
        <ele>222.5</ele>
        <time>2015-12-12T11:11:47.762Z</time>
      </trkpt>
      <trkpt lat="45.96974" lon="4.78424">
        <ele>222.5</ele>
        <time>2015-12-12T11:11:47.782Z</time>
      </trkpt>
      <trkpt lat="45.96965" lon="4.78424">
        <ele>221.699996948</ele>
        <time>2015-12-12T11:11:48.759Z</time>
      </trkpt>
      <trkpt lat="45.96965" lon="4.78424">
        <ele>221.699996948</ele>
        <time>2015-12-12T11:11:48.777Z</time>
      </trkpt>
      <trkpt lat="45.96956" lon="4.78425">
        <ele>221</ele>
        <time>2015-12-12T11:11:49.759Z</time>
      </trkpt>
      <trkpt lat="45.96947" lon="4.78428">
        <ele>220</ele>
        <time>2015-12-12T11:11:50.778Z</time>
      </trkpt>
      <trkpt lat="45.96939" lon="4.78431">
        <ele>219.199996948</ele>
        <time>2015-12-12T11:11:51.758Z</time>
      </trkpt>
      <trkpt lat="45.96932" lon="4.78436">
        <ele>218.600006104</ele>
        <time>2015-12-12T11:11:52.778Z</time>
      </trkpt>
      <trkpt lat="45.96925" lon="4.78443">
        <ele>217.600006104</ele>
        <time>2015-12-12T11:11:53.762Z</time>
      </trkpt>
      <trkpt lat="45.96919" lon="4.78451">
        <ele>216.5</ele>
        <time>2015-12-12T11:11:54.789Z</time>
      </trkpt>
      <trkpt lat="45.96913" lon="4.78459">
        <ele>215.300003052</ele>
        <time>2015-12-12T11:11:55.759Z</time>
      </trkpt>
      <trkpt lat="45.96906" lon="4.78467">
        <ele>214.5</ele>
        <time>2015-12-12T11:11:56.775Z</time>
      </trkpt>
      <trkpt lat="45.969" lon="4.78474">
        <ele>213.600006104</ele>
        <time>2015-12-12T11:11:57.758Z</time>
      </trkpt>
      <trkpt lat="45.96894" lon="4.78482">
        <ele>212.899993896</ele>
        <time>2015-12-12T11:11:58.911Z</time>
      </trkpt>
      <trkpt lat="45.96888" lon="4.7849">
        <ele>211.800003052</ele>
        <time>2015-12-12T11:11:59.761Z</time>
      </trkpt>
      <trkpt lat="45.96882" lon="4.78498">
        <ele>210.800003052</ele>
        <time>2015-12-12T11:12:00.774Z</time>
      </trkpt>
      <trkpt lat="45.96876" lon="4.78506">
        <ele>209.5</ele>
        <time>2015-12-12T11:12:01.759Z</time>
      </trkpt>
      <trkpt lat="45.9687" lon="4.78513">
        <ele>208.199996948</ele>
        <time>2015-12-12T11:12:02.774Z</time>
      </trkpt>
      <trkpt lat="45.96864" lon="4.7852">
        <ele>207.100006104</ele>
        <time>2015-12-12T11:12:03.758Z</time>
      </trkpt>
      <trkpt lat="45.96859" lon="4.78526">
        <ele>206</ele>
        <time>2015-12-12T11:12:04.774Z</time>
      </trkpt>
      <trkpt lat="45.96854" lon="4.78532">
        <ele>205</ele>
        <time>2015-12-12T11:12:05.762Z</time>
      </trkpt>
      <trkpt lat="45.96849" lon="4.78537">
        <ele>204.199996948</ele>
        <time>2015-12-12T11:12:06.775Z</time>
      </trkpt>
      <trkpt lat="45.96844" lon="4.78543">
        <ele>203.100006104</ele>
        <time>2015-12-12T11:12:07.759Z</time>
      </trkpt>
      <trkpt lat="45.9684" lon="4.78548">
        <ele>202.300003052</ele>
        <time>2015-12-12T11:12:08.79Z</time>
      </trkpt>
      <trkpt lat="45.96835" lon="4.78553">
        <ele>202</ele>
        <time>2015-12-12T11:12:09.758Z</time>
      </trkpt>
      <trkpt lat="45.96831" lon="4.78558">
        <ele>201.199996948</ele>
        <time>2015-12-12T11:12:10.831Z</time>
      </trkpt>
      <trkpt lat="45.96827" lon="4.78562">
        <ele>200.800003052</ele>
        <time>2015-12-12T11:12:11.762Z</time>
      </trkpt>
      <trkpt lat="45.96821" lon="4.78567">
        <ele>199.300003052</ele>
        <time>2015-12-12T11:12:13.775Z</time>
      </trkpt>
      <trkpt lat="45.96818" lon="4.78569">
        <ele>198.899993896</ele>
        <time>2015-12-12T11:12:14.758Z</time>
      </trkpt>
      <trkpt lat="45.96809" lon="4.78565">
        <ele>196.300003052</ele>
        <time>2015-12-12T11:12:17.777Z</time>
      </trkpt>
      <trkpt lat="45.96806" lon="4.78562">
        <ele>195.699996948</ele>
        <time>2015-12-12T11:12:18.758Z</time>
      </trkpt>
      <trkpt lat="45.968" lon="4.78553">
        <ele>193.699996948</ele>
        <time>2015-12-12T11:12:20.774Z</time>
      </trkpt>
      <trkpt lat="45.96797" lon="4.78547">
        <ele>192.899993896</ele>
        <time>2015-12-12T11:12:21.772Z</time>
      </trkpt>
      <trkpt lat="45.96794" lon="4.78541">
        <ele>192.199996948</ele>
        <time>2015-12-12T11:12:22.775Z</time>
      </trkpt>
      <trkpt lat="45.9679" lon="4.78535">
        <ele>191.5</ele>
        <time>2015-12-12T11:12:23.761Z</time>
      </trkpt>
      <trkpt lat="45.96786" lon="4.78529">
        <ele>190.800003052</ele>
        <time>2015-12-12T11:12:24.775Z</time>
      </trkpt>
      <trkpt lat="45.96782" lon="4.78522">
        <ele>190</ele>
        <time>2015-12-12T11:12:25.759Z</time>
      </trkpt>
      <trkpt lat="45.96779" lon="4.78517">
        <ele>189.5</ele>
        <time>2015-12-12T11:12:26.791Z</time>
      </trkpt>
      <trkpt lat="45.96775" lon="4.78511">
        <ele>188.899993896</ele>
        <time>2015-12-12T11:12:27.758Z</time>
      </trkpt>
      <trkpt lat="45.96771" lon="4.78506">
        <ele>188.399993896</ele>
        <time>2015-12-12T11:12:28.786Z</time>
      </trkpt>
      <trkpt lat="45.96767" lon="4.785">
        <ele>187.899993896</ele>
        <time>2015-12-12T11:12:29.761Z</time>
      </trkpt>
      <trkpt lat="45.96764" lon="4.78495">
        <ele>187.600006104</ele>
        <time>2015-12-12T11:12:30.774Z</time>
      </trkpt>
      <trkpt lat="45.9676" lon="4.78489">
        <ele>187</ele>
        <time>2015-12-12T11:12:31.759Z</time>
      </trkpt>
      <trkpt lat="45.96757" lon="4.78484">
        <ele>186.600006104</ele>
        <time>2015-12-12T11:12:32.822Z</time>
      </trkpt>
      <trkpt lat="45.96752" lon="4.7848">
        <ele>186.300003052</ele>
        <time>2015-12-12T11:12:33.758Z</time>
      </trkpt>
      <trkpt lat="45.96748" lon="4.78477">
        <ele>185.800003052</ele>
        <time>2015-12-12T11:12:34.775Z</time>
      </trkpt>
      <trkpt lat="45.96743" lon="4.78472">
        <ele>185.399993896</ele>
        <time>2015-12-12T11:12:35.761Z</time>
      </trkpt>
      <trkpt lat="45.96738" lon="4.78468">
        <ele>185.399993896</ele>
        <time>2015-12-12T11:12:36.774Z</time>
      </trkpt>
      <trkpt lat="45.96733" lon="4.78463">
        <ele>185</ele>
        <time>2015-12-12T11:12:37.76Z</time>
      </trkpt>
      <trkpt lat="45.96728" lon="4.78459">
        <ele>184.899993896</ele>
        <time>2015-12-12T11:12:38.789Z</time>
      </trkpt>
      <trkpt lat="45.96723" lon="4.78454">
        <ele>184.5</ele>
        <time>2015-12-12T11:12:39.758Z</time>
      </trkpt>
      <trkpt lat="45.96719" lon="4.7845">
        <ele>184.5</ele>
        <time>2015-12-12T11:12:40.776Z</time>
      </trkpt>
      <trkpt lat="45.96714" lon="4.78447">
        <ele>184.300003052</ele>
        <time>2015-12-12T11:12:41.761Z</time>
      </trkpt>
      <trkpt lat="45.9671" lon="4.78443">
        <ele>184.199996948</ele>
        <time>2015-12-12T11:12:42.775Z</time>
      </trkpt>
      <trkpt lat="45.96707" lon="4.78439">
        <ele>184.199996948</ele>
        <time>2015-12-12T11:12:43.759Z</time>
      </trkpt>
      <trkpt lat="45.96703" lon="4.78434">
        <ele>184.300003052</ele>
        <time>2015-12-12T11:12:44.778Z</time>
      </trkpt>
      <trkpt lat="45.96699" lon="4.78429">
        <ele>184.100006104</ele>
        <time>2015-12-12T11:12:45.759Z</time>
      </trkpt>
      <trkpt lat="45.96695" lon="4.78425">
        <ele>184.300003052</ele>
        <time>2015-12-12T11:12:46.775Z</time>
      </trkpt>
      <trkpt lat="45.96691" lon="4.78421">
        <ele>184.600006104</ele>
        <time>2015-12-12T11:12:47.775Z</time>
      </trkpt>
      <trkpt lat="45.96687" lon="4.78417">
        <ele>184.899993896</ele>
        <time>2015-12-12T11:12:48.775Z</time>
      </trkpt>
      <trkpt lat="45.96683" lon="4.78413">
        <ele>184.699996948</ele>
        <time>2015-12-12T11:12:49.759Z</time>
      </trkpt>
      <trkpt lat="45.96678" lon="4.78409">
        <ele>184.600006104</ele>
        <time>2015-12-12T11:12:50.777Z</time>
      </trkpt>
      <trkpt lat="45.96673" lon="4.78404">
        <ele>184.5</ele>
        <time>2015-12-12T11:12:51.758Z</time>
      </trkpt>
      <trkpt lat="45.96668" lon="4.78399">
        <ele>184.100006104</ele>
        <time>2015-12-12T11:12:52.774Z</time>
      </trkpt>
      <trkpt lat="45.96663" lon="4.78394">
        <ele>184</ele>
        <time>2015-12-12T11:12:53.761Z</time>
      </trkpt>
      <trkpt lat="45.96659" lon="4.78389">
        <ele>184.399993896</ele>
        <time>2015-12-12T11:12:54.774Z</time>
      </trkpt>
      <trkpt lat="45.96654" lon="4.78384">
        <ele>184.199996948</ele>
        <time>2015-12-12T11:12:55.759Z</time>
      </trkpt>
      <trkpt lat="45.96649" lon="4.78379">
        <ele>184</ele>
        <time>2015-12-12T11:12:56.775Z</time>
      </trkpt>
      <trkpt lat="45.96643" lon="4.78375">
        <ele>183.699996948</ele>
        <time>2015-12-12T11:12:57.758Z</time>
      </trkpt>
      <trkpt lat="45.96639" lon="4.7837">
        <ele>183.800003052</ele>
        <time>2015-12-12T11:12:58.775Z</time>
      </trkpt>
      <trkpt lat="45.96634" lon="4.78365">
        <ele>184</ele>
        <time>2015-12-12T11:12:59.8Z</time>
      </trkpt>
      <trkpt lat="45.9663" lon="4.78361">
        <ele>184.300003052</ele>
        <time>2015-12-12T11:13:00.948Z</time>
      </trkpt>
      <trkpt lat="45.96625" lon="4.78356">
        <ele>184.199996948</ele>
        <time>2015-12-12T11:13:01.759Z</time>
      </trkpt>
      <trkpt lat="45.9662" lon="4.78352">
        <ele>184.300003052</ele>
        <time>2015-12-12T11:13:02.774Z</time>
      </trkpt>
      <trkpt lat="45.96615" lon="4.78347">
        <ele>184.199996948</ele>
        <time>2015-12-12T11:13:03.774Z</time>
      </trkpt>
      <trkpt lat="45.96609" lon="4.78342">
        <ele>184.199996948</ele>
        <time>2015-12-12T11:13:04.775Z</time>
      </trkpt>
      <trkpt lat="45.96604" lon="4.78337">
        <ele>184.199996948</ele>
        <time>2015-12-12T11:13:05.756Z</time>
      </trkpt>
      <trkpt lat="45.96598" lon="4.78332">
        <ele>184.300003052</ele>
        <time>2015-12-12T11:13:06.775Z</time>
      </trkpt>
      <trkpt lat="45.96593" lon="4.78326">
        <ele>184.399993896</ele>
        <time>2015-12-12T11:13:07.764Z</time>
      </trkpt>
      <trkpt lat="45.96588" lon="4.78321">
        <ele>184.600006104</ele>
        <time>2015-12-12T11:13:09.07Z</time>
      </trkpt>
      <trkpt lat="45.96582" lon="4.78315">
        <ele>184.600006104</ele>
        <time>2015-12-12T11:13:09.758Z</time>
      </trkpt>
      <trkpt lat="45.96578" lon="4.78309">
        <ele>184.600006104</ele>
        <time>2015-12-12T11:13:10.777Z</time>
      </trkpt>
      <trkpt lat="45.96572" lon="4.78304">
        <ele>184.5</ele>
        <time>2015-12-12T11:13:11.761Z</time>
      </trkpt>
      <trkpt lat="45.96567" lon="4.78298">
        <ele>184.5</ele>
        <time>2015-12-12T11:13:12.811Z</time>
      </trkpt>
      <trkpt lat="45.96562" lon="4.78293">
        <ele>184.5</ele>
        <time>2015-12-12T11:13:13.759Z</time>
      </trkpt>
      <trkpt lat="45.96556" lon="4.78287">
        <ele>184.5</ele>
        <time>2015-12-12T11:13:14.775Z</time>
      </trkpt>
      <trkpt lat="45.96552" lon="4.78281">
        <ele>184.399993896</ele>
        <time>2015-12-12T11:13:15.758Z</time>
      </trkpt>
      <trkpt lat="45.96549" lon="4.78276">
        <ele>184.5</ele>
        <time>2015-12-12T11:13:16.774Z</time>
      </trkpt>
      <trkpt lat="45.96545" lon="4.7827">
        <ele>184.5</ele>
        <time>2015-12-12T11:13:17.761Z</time>
      </trkpt>
      <trkpt lat="45.96541" lon="4.78264">
        <ele>184.699996948</ele>
        <time>2015-12-12T11:13:18.775Z</time>
      </trkpt>
      <trkpt lat="45.96536" lon="4.78258">
        <ele>184.899993896</ele>
        <time>2015-12-12T11:13:19.773Z</time>
      </trkpt>
      <trkpt lat="45.96532" lon="4.78251">
        <ele>185</ele>
        <time>2015-12-12T11:13:20.774Z</time>
      </trkpt>
      <trkpt lat="45.96528" lon="4.78245">
        <ele>184.899993896</ele>
        <time>2015-12-12T11:13:21.758Z</time>
      </trkpt>
      <trkpt lat="45.96524" lon="4.78237">
        <ele>184.600006104</ele>
        <time>2015-12-12T11:13:22.774Z</time>
      </trkpt>
      <trkpt lat="45.9652" lon="4.7823">
        <ele>184.699996948</ele>
        <time>2015-12-12T11:13:23.761Z</time>
      </trkpt>
      <trkpt lat="45.96516" lon="4.78223">
        <ele>184.600006104</ele>
        <time>2015-12-12T11:13:24.774Z</time>
      </trkpt>
      <trkpt lat="45.96512" lon="4.78216">
        <ele>184.199996948</ele>
        <time>2015-12-12T11:13:25.76Z</time>
      </trkpt>
      <trkpt lat="45.96507" lon="4.78209">
        <ele>183.800003052</ele>
        <time>2015-12-12T11:13:26.785Z</time>
      </trkpt>
      <trkpt lat="45.96502" lon="4.78203">
        <ele>183.899993896</ele>
        <time>2015-12-12T11:13:27.753Z</time>
      </trkpt>
      <trkpt lat="45.96496" lon="4.78198">
        <ele>184.199996948</ele>
        <time>2015-12-12T11:13:28.774Z</time>
      </trkpt>
      <trkpt lat="45.9649" lon="4.78193">
        <ele>183.800003052</ele>
        <time>2015-12-12T11:13:29.761Z</time>
      </trkpt>
      <trkpt lat="45.96484" lon="4.7819">
        <ele>183.5</ele>
        <time>2015-12-12T11:13:30.775Z</time>
      </trkpt>
      <trkpt lat="45.96478" lon="4.78187">
        <ele>183.199996948</ele>
        <time>2015-12-12T11:13:31.76Z</time>
      </trkpt>
      <trkpt lat="45.96471" lon="4.78184">
        <ele>182.699996948</ele>
        <time>2015-12-12T11:13:32.775Z</time>
      </trkpt>
      <trkpt lat="45.96465" lon="4.7818">
        <ele>182.600006104</ele>
        <time>2015-12-12T11:13:33.758Z</time>
      </trkpt>
      <trkpt lat="45.9646" lon="4.78177">
        <ele>181.899993896</ele>
        <time>2015-12-12T11:13:34.814Z</time>
      </trkpt>
      <trkpt lat="45.96454" lon="4.78172">
        <ele>181.899993896</ele>
        <time>2015-12-12T11:13:35.761Z</time>
      </trkpt>
      <trkpt lat="45.96449" lon="4.78167">
        <ele>181.899993896</ele>
        <time>2015-12-12T11:13:36.777Z</time>
      </trkpt>
      <trkpt lat="45.96443" lon="4.78162">
        <ele>182</ele>
        <time>2015-12-12T11:13:37.759Z</time>
      </trkpt>
      <trkpt lat="45.96438" lon="4.78157">
        <ele>182</ele>
        <time>2015-12-12T11:13:38.775Z</time>
      </trkpt>
      <trkpt lat="45.96432" lon="4.78152">
        <ele>182</ele>
        <time>2015-12-12T11:13:39.758Z</time>
      </trkpt>
      <trkpt lat="45.96427" lon="4.78146">
        <ele>181.699996948</ele>
        <time>2015-12-12T11:13:40.781Z</time>
      </trkpt>
      <trkpt lat="45.96421" lon="4.78141">
        <ele>181.5</ele>
        <time>2015-12-12T11:13:41.761Z</time>
      </trkpt>
      <trkpt lat="45.96417" lon="4.78136">
        <ele>181.5</ele>
        <time>2015-12-12T11:13:42.775Z</time>
      </trkpt>
      <trkpt lat="45.96411" lon="4.78131">
        <ele>181.199996948</ele>
        <time>2015-12-12T11:13:43.759Z</time>
      </trkpt>
      <trkpt lat="45.96406" lon="4.78126">
        <ele>181.199996948</ele>
        <time>2015-12-12T11:13:44.774Z</time>
      </trkpt>
      <trkpt lat="45.96401" lon="4.78121">
        <ele>181</ele>
        <time>2015-12-12T11:13:45.772Z</time>
      </trkpt>
      <trkpt lat="45.96396" lon="4.78116">
        <ele>181.300003052</ele>
        <time>2015-12-12T11:13:46.775Z</time>
      </trkpt>
      <trkpt lat="45.96391" lon="4.78111">
        <ele>181.600006104</ele>
        <time>2015-12-12T11:13:47.761Z</time>
      </trkpt>
      <trkpt lat="45.96386" lon="4.78107">
        <ele>181.600006104</ele>
        <time>2015-12-12T11:13:48.774Z</time>
      </trkpt>
      <trkpt lat="45.96382" lon="4.78103">
        <ele>181.5</ele>
        <time>2015-12-12T11:13:49.758Z</time>
      </trkpt>
      <trkpt lat="45.96376" lon="4.78098">
        <ele>181.600006104</ele>
        <time>2015-12-12T11:13:50.777Z</time>
      </trkpt>
      <trkpt lat="45.96372" lon="4.78093">
        <ele>181.600006104</ele>
        <time>2015-12-12T11:13:51.754Z</time>
      </trkpt>
      <trkpt lat="45.96367" lon="4.78089">
        <ele>181.5</ele>
        <time>2015-12-12T11:13:52.775Z</time>
      </trkpt>
      <trkpt lat="45.96363" lon="4.78084">
        <ele>181.399993896</ele>
        <time>2015-12-12T11:13:53.761Z</time>
      </trkpt>
      <trkpt lat="45.96358" lon="4.78078">
        <ele>181.399993896</ele>
        <time>2015-12-12T11:13:54.775Z</time>
      </trkpt>
      <trkpt lat="45.96353" lon="4.78073">
        <ele>181.300003052</ele>
        <time>2015-12-12T11:13:55.759Z</time>
      </trkpt>
      <trkpt lat="45.96348" lon="4.78066">
        <ele>181.100006104</ele>
        <time>2015-12-12T11:13:56.774Z</time>
      </trkpt>
      <trkpt lat="45.96342" lon="4.7806">
        <ele>181.300003052</ele>
        <time>2015-12-12T11:13:57.758Z</time>
      </trkpt>
      <trkpt lat="45.96337" lon="4.78054">
        <ele>181.100006104</ele>
        <time>2015-12-12T11:13:58.774Z</time>
      </trkpt>
      <trkpt lat="45.96332" lon="4.78048">
        <ele>181.5</ele>
        <time>2015-12-12T11:13:59.761Z</time>
      </trkpt>
      <trkpt lat="45.96327" lon="4.78042">
        <ele>181.199996948</ele>
        <time>2015-12-12T11:14:00.775Z</time>
      </trkpt>
      <trkpt lat="45.96322" lon="4.78036">
        <ele>181.199996948</ele>
        <time>2015-12-12T11:14:01.76Z</time>
      </trkpt>
      <trkpt lat="45.96317" lon="4.7803">
        <ele>180.800003052</ele>
        <time>2015-12-12T11:14:02.778Z</time>
      </trkpt>
      <trkpt lat="45.96313" lon="4.78024">
        <ele>180.899993896</ele>
        <time>2015-12-12T11:14:03.758Z</time>
      </trkpt>
      <trkpt lat="45.96307" lon="4.78019">
        <ele>180.899993896</ele>
        <time>2015-12-12T11:14:04.775Z</time>
      </trkpt>
      <trkpt lat="45.96302" lon="4.78015">
        <ele>181</ele>
        <time>2015-12-12T11:14:05.761Z</time>
      </trkpt>
      <trkpt lat="45.96297" lon="4.78009">
        <ele>181.199996948</ele>
        <time>2015-12-12T11:14:06.797Z</time>
      </trkpt>
      <trkpt lat="45.96292" lon="4.78004">
        <ele>180.899993896</ele>
        <time>2015-12-12T11:14:07.759Z</time>
      </trkpt>
      <trkpt lat="45.96286" lon="4.77999">
        <ele>181.300003052</ele>
        <time>2015-12-12T11:14:08.847Z</time>
      </trkpt>
      <trkpt lat="45.96281" lon="4.77995">
        <ele>181.100006104</ele>
        <time>2015-12-12T11:14:09.765Z</time>
      </trkpt>
      <trkpt lat="45.96276" lon="4.7799">
        <ele>181</ele>
        <time>2015-12-12T11:14:10.774Z</time>
      </trkpt>
      <trkpt lat="45.96271" lon="4.77985">
        <ele>180.800003052</ele>
        <time>2015-12-12T11:14:11.761Z</time>
      </trkpt>
      <trkpt lat="45.96266" lon="4.77981">
        <ele>180.699996948</ele>
        <time>2015-12-12T11:14:12.775Z</time>
      </trkpt>
      <trkpt lat="45.9626" lon="4.77976">
        <ele>180.5</ele>
        <time>2015-12-12T11:14:13.759Z</time>
      </trkpt>
      <trkpt lat="45.96255" lon="4.77972">
        <ele>180.399993896</ele>
        <time>2015-12-12T11:14:14.775Z</time>
      </trkpt>
      <trkpt lat="45.96249" lon="4.77967">
        <ele>180.300003052</ele>
        <time>2015-12-12T11:14:15.758Z</time>
      </trkpt>
      <trkpt lat="45.96245" lon="4.77963">
        <ele>180.100006104</ele>
        <time>2015-12-12T11:14:16.774Z</time>
      </trkpt>
      <trkpt lat="45.96241" lon="4.77959">
        <ele>180.199996948</ele>
        <time>2015-12-12T11:14:17.761Z</time>
      </trkpt>
      <trkpt lat="45.96237" lon="4.77955">
        <ele>180</ele>
        <time>2015-12-12T11:14:18.784Z</time>
      </trkpt>
      <trkpt lat="45.96233" lon="4.77951">
        <ele>179.800003052</ele>
        <time>2015-12-12T11:14:19.759Z</time>
      </trkpt>
      <trkpt lat="45.9623" lon="4.77946">
        <ele>179.5</ele>
        <time>2015-12-12T11:14:20.774Z</time>
      </trkpt>
      <trkpt lat="45.96226" lon="4.77941">
        <ele>179.699996948</ele>
        <time>2015-12-12T11:14:21.753Z</time>
      </trkpt>
      <trkpt lat="45.96223" lon="4.77936">
        <ele>179.800003052</ele>
        <time>2015-12-12T11:14:22.775Z</time>
      </trkpt>
      <trkpt lat="45.96219" lon="4.77931">
        <ele>179.699996948</ele>
        <time>2015-12-12T11:14:23.761Z</time>
      </trkpt>
      <trkpt lat="45.96215" lon="4.77926">
        <ele>179.699996948</ele>
        <time>2015-12-12T11:14:24.774Z</time>
      </trkpt>
      <trkpt lat="45.96212" lon="4.7792">
        <ele>179.800003052</ele>
        <time>2015-12-12T11:14:25.759Z</time>
      </trkpt>
      <trkpt lat="45.96208" lon="4.77914">
        <ele>179.899993896</ele>
        <time>2015-12-12T11:14:26.825Z</time>
      </trkpt>
      <trkpt lat="45.96204" lon="4.77908">
        <ele>179.899993896</ele>
        <time>2015-12-12T11:14:27.758Z</time>
      </trkpt>
      <trkpt lat="45.96201" lon="4.77902">
        <ele>179.800003052</ele>
        <time>2015-12-12T11:14:28.799Z</time>
      </trkpt>
      <trkpt lat="45.96197" lon="4.77896">
        <ele>179.899993896</ele>
        <time>2015-12-12T11:14:29.761Z</time>
      </trkpt>
      <trkpt lat="45.96193" lon="4.77889">
        <ele>180.199996948</ele>
        <time>2015-12-12T11:14:30.776Z</time>
      </trkpt>
      <trkpt lat="45.9619" lon="4.77883">
        <ele>180</ele>
        <time>2015-12-12T11:14:31.759Z</time>
      </trkpt>
      <trkpt lat="45.96186" lon="4.77876">
        <ele>179.800003052</ele>
        <time>2015-12-12T11:14:32.928Z</time>
      </trkpt>
      <trkpt lat="45.96182" lon="4.7787">
        <ele>179.5</ele>
        <time>2015-12-12T11:14:33.758Z</time>
      </trkpt>
      <trkpt lat="45.96178" lon="4.77862">
        <ele>179.199996948</ele>
        <time>2015-12-12T11:14:34.774Z</time>
      </trkpt>
      <trkpt lat="45.96173" lon="4.77854">
        <ele>179.399993896</ele>
        <time>2015-12-12T11:14:35.761Z</time>
      </trkpt>
      <trkpt lat="45.96169" lon="4.77848">
        <ele>179.300003052</ele>
        <time>2015-12-12T11:14:36.775Z</time>
      </trkpt>
      <trkpt lat="45.96165" lon="4.77841">
        <ele>179.600006104</ele>
        <time>2015-12-12T11:14:37.759Z</time>
      </trkpt>
      <trkpt lat="45.96161" lon="4.77835">
        <ele>179.5</ele>
        <time>2015-12-12T11:14:38.789Z</time>
      </trkpt>
      <trkpt lat="45.96157" lon="4.77829">
        <ele>179.100006104</ele>
        <time>2015-12-12T11:14:39.758Z</time>
      </trkpt>
      <trkpt lat="45.96154" lon="4.77823">
        <ele>179.199996948</ele>
        <time>2015-12-12T11:14:40.775Z</time>
      </trkpt>
      <trkpt lat="45.9615" lon="4.77817">
        <ele>179.300003052</ele>
        <time>2015-12-12T11:14:41.761Z</time>
      </trkpt>
      <trkpt lat="45.96146" lon="4.77811">
        <ele>179.699996948</ele>
        <time>2015-12-12T11:14:42.775Z</time>
      </trkpt>
      <trkpt lat="45.96143" lon="4.77805">
        <ele>179.600006104</ele>
        <time>2015-12-12T11:14:43.902Z</time>
      </trkpt>
      <trkpt lat="45.9614" lon="4.77799">
        <ele>180.100006104</ele>
        <time>2015-12-12T11:14:44.776Z</time>
      </trkpt>
      <trkpt lat="45.96137" lon="4.77794">
        <ele>180.199996948</ele>
        <time>2015-12-12T11:14:45.759Z</time>
      </trkpt>
      <trkpt lat="45.96131" lon="4.77784">
        <ele>181</ele>
        <time>2015-12-12T11:14:47.778Z</time>
      </trkpt>
      <trkpt lat="45.96129" lon="4.77779">
        <ele>181.5</ele>
        <time>2015-12-12T11:14:48.759Z</time>
      </trkpt>
      <trkpt lat="45.96126" lon="4.77773">
        <ele>182.399993896</ele>
        <time>2015-12-12T11:14:49.777Z</time>
      </trkpt>
      <trkpt lat="45.96123" lon="4.77768">
        <ele>183.300003052</ele>
        <time>2015-12-12T11:14:50.761Z</time>
      </trkpt>
      <trkpt lat="45.96119" lon="4.77763">
        <ele>184</ele>
        <time>2015-12-12T11:14:51.776Z</time>
      </trkpt>
      <trkpt lat="45.96116" lon="4.77757">
        <ele>184.699996948</ele>
        <time>2015-12-12T11:14:52.759Z</time>
      </trkpt>
      <trkpt lat="45.96112" lon="4.77751">
        <ele>184.600006104</ele>
        <time>2015-12-12T11:14:53.779Z</time>
      </trkpt>
      <trkpt lat="45.96109" lon="4.77744">
        <ele>184.800003052</ele>
        <time>2015-12-12T11:14:54.758Z</time>
      </trkpt>
      <trkpt lat="45.96105" lon="4.77738">
        <ele>184.699996948</ele>
        <time>2015-12-12T11:14:55.775Z</time>
      </trkpt>
      <trkpt lat="45.96101" lon="4.77731">
        <ele>184.899993896</ele>
        <time>2015-12-12T11:14:56.758Z</time>
      </trkpt>
      <trkpt lat="45.96097" lon="4.77724">
        <ele>185</ele>
        <time>2015-12-12T11:14:57.774Z</time>
      </trkpt>
      <trkpt lat="45.96092" lon="4.77717">
        <ele>185.399993896</ele>
        <time>2015-12-12T11:14:58.759Z</time>
      </trkpt>
      <trkpt lat="45.96088" lon="4.7771">
        <ele>185.199996948</ele>
        <time>2015-12-12T11:14:59.804Z</time>
      </trkpt>
      <trkpt lat="45.96084" lon="4.77703">
        <ele>184.899993896</ele>
        <time>2015-12-12T11:15:00.758Z</time>
      </trkpt>
      <trkpt lat="45.96079" lon="4.77696">
        <ele>184.5</ele>
        <time>2015-12-12T11:15:01.777Z</time>
      </trkpt>
      <trkpt lat="45.96075" lon="4.7769">
        <ele>184.399993896</ele>
        <time>2015-12-12T11:15:02.758Z</time>
      </trkpt>
      <trkpt lat="45.96071" lon="4.77684">
        <ele>184.399993896</ele>
        <time>2015-12-12T11:15:03.775Z</time>
      </trkpt>
      <trkpt lat="45.96067" lon="4.77678">
        <ele>184.100006104</ele>
        <time>2015-12-12T11:15:04.758Z</time>
      </trkpt>
      <trkpt lat="45.96063" lon="4.77671">
        <ele>184.199996948</ele>
        <time>2015-12-12T11:15:05.778Z</time>
      </trkpt>
      <trkpt lat="45.96059" lon="4.77665">
        <ele>184.100006104</ele>
        <time>2015-12-12T11:15:06.758Z</time>
      </trkpt>
      <trkpt lat="45.96054" lon="4.77659">
        <ele>184</ele>
        <time>2015-12-12T11:15:07.788Z</time>
      </trkpt>
      <trkpt lat="45.9605" lon="4.77653">
        <ele>183.600006104</ele>
        <time>2015-12-12T11:15:08.759Z</time>
      </trkpt>
      <trkpt lat="45.96045" lon="4.77647">
        <ele>183.199996948</ele>
        <time>2015-12-12T11:15:09.776Z</time>
      </trkpt>
      <trkpt lat="45.9604" lon="4.77642">
        <ele>183.100006104</ele>
        <time>2015-12-12T11:15:10.754Z</time>
      </trkpt>
      <trkpt lat="45.96036" lon="4.77637">
        <ele>183</ele>
        <time>2015-12-12T11:15:11.78Z</time>
      </trkpt>
      <trkpt lat="45.96031" lon="4.77631">
        <ele>182.699996948</ele>
        <time>2015-12-12T11:15:12.76Z</time>
      </trkpt>
      <trkpt lat="45.96026" lon="4.77625">
        <ele>182.899993896</ele>
        <time>2015-12-12T11:15:13.777Z</time>
      </trkpt>
      <trkpt lat="45.9602" lon="4.7762">
        <ele>182.699996948</ele>
        <time>2015-12-12T11:15:14.759Z</time>
      </trkpt>
      <trkpt lat="45.96015" lon="4.77614">
        <ele>182.600006104</ele>
        <time>2015-12-12T11:15:15.793Z</time>
      </trkpt>
      <trkpt lat="45.96011" lon="4.77608">
        <ele>182.600006104</ele>
        <time>2015-12-12T11:15:16.758Z</time>
      </trkpt>
      <trkpt lat="45.96007" lon="4.77602">
        <ele>183.199996948</ele>
        <time>2015-12-12T11:15:17.777Z</time>
      </trkpt>
      <trkpt lat="45.96002" lon="4.77598">
        <ele>182.899993896</ele>
        <time>2015-12-12T11:15:18.759Z</time>
      </trkpt>
      <trkpt lat="45.95996" lon="4.7759">
        <ele>182.100006104</ele>
        <time>2015-12-12T11:15:20.776Z</time>
      </trkpt>
      <trkpt lat="45.95993" lon="4.77585">
        <ele>181.899993896</ele>
        <time>2015-12-12T11:15:21.758Z</time>
      </trkpt>
      <trkpt lat="45.9599" lon="4.77579">
        <ele>181.699996948</ele>
        <time>2015-12-12T11:15:22.795Z</time>
      </trkpt>
      <trkpt lat="45.95987" lon="4.77573">
        <ele>181.699996948</ele>
        <time>2015-12-12T11:15:23.761Z</time>
      </trkpt>
      <trkpt lat="45.95984" lon="4.77566">
        <ele>181.699996948</ele>
        <time>2015-12-12T11:15:24.774Z</time>
      </trkpt>
      <trkpt lat="45.95982" lon="4.7756">
        <ele>181.800003052</ele>
        <time>2015-12-12T11:15:25.791Z</time>
      </trkpt>
      <trkpt lat="45.95979" lon="4.77553">
        <ele>181.699996948</ele>
        <time>2015-12-12T11:15:26.775Z</time>
      </trkpt>
      <trkpt lat="45.95977" lon="4.77547">
        <ele>181.899993896</ele>
        <time>2015-12-12T11:15:27.758Z</time>
      </trkpt>
      <trkpt lat="45.95972" lon="4.77538">
        <ele>182.300003052</ele>
        <time>2015-12-12T11:15:29.777Z</time>
      </trkpt>
      <trkpt lat="45.95969" lon="4.77533">
        <ele>182.300003052</ele>
        <time>2015-12-12T11:15:30.758Z</time>
      </trkpt>
      <trkpt lat="45.95967" lon="4.77527">
        <ele>182.5</ele>
        <time>2015-12-12T11:15:31.775Z</time>
      </trkpt>
      <trkpt lat="45.95964" lon="4.77521">
        <ele>182.5</ele>
        <time>2015-12-12T11:15:32.758Z</time>
      </trkpt>
      <trkpt lat="45.95962" lon="4.77514">
        <ele>183</ele>
        <time>2015-12-12T11:15:33.775Z</time>
      </trkpt>
      <trkpt lat="45.95959" lon="4.77508">
        <ele>183.100006104</ele>
        <time>2015-12-12T11:15:34.758Z</time>
      </trkpt>
      <trkpt lat="45.95957" lon="4.77501">
        <ele>182.600006104</ele>
        <time>2015-12-12T11:15:35.777Z</time>
      </trkpt>
      <trkpt lat="45.95954" lon="4.77494">
        <ele>182.5</ele>
        <time>2015-12-12T11:15:36.759Z</time>
      </trkpt>
      <trkpt lat="45.95951" lon="4.77487">
        <ele>182.199996948</ele>
        <time>2015-12-12T11:15:37.775Z</time>
      </trkpt>
      <trkpt lat="45.95948" lon="4.7748">
        <ele>182</ele>
        <time>2015-12-12T11:15:38.759Z</time>
      </trkpt>
      <trkpt lat="45.95944" lon="4.77472">
        <ele>181.600006104</ele>
        <time>2015-12-12T11:15:39.774Z</time>
      </trkpt>
      <trkpt lat="45.95941" lon="4.77463">
        <ele>180.899993896</ele>
        <time>2015-12-12T11:15:40.758Z</time>
      </trkpt>
      <trkpt lat="45.95938" lon="4.77455">
        <ele>180.5</ele>
        <time>2015-12-12T11:15:41.777Z</time>
      </trkpt>
      <trkpt lat="45.95936" lon="4.77446">
        <ele>180.300003052</ele>
        <time>2015-12-12T11:15:42.758Z</time>
      </trkpt>
      <trkpt lat="45.95934" lon="4.77438">
        <ele>180.300003052</ele>
        <time>2015-12-12T11:15:43.775Z</time>
      </trkpt>
      <trkpt lat="45.95931" lon="4.77429">
        <ele>179.899993896</ele>
        <time>2015-12-12T11:15:44.758Z</time>
      </trkpt>
      <trkpt lat="45.95928" lon="4.77421">
        <ele>179.399993896</ele>
        <time>2015-12-12T11:15:45.785Z</time>
      </trkpt>
      <trkpt lat="45.95924" lon="4.77413">
        <ele>179.199996948</ele>
        <time>2015-12-12T11:15:46.758Z</time>
      </trkpt>
      <trkpt lat="45.95921" lon="4.77405">
        <ele>178.899993896</ele>
        <time>2015-12-12T11:15:47.821Z</time>
      </trkpt>
      <trkpt lat="45.95919" lon="4.77397">
        <ele>178.600006104</ele>
        <time>2015-12-12T11:15:48.759Z</time>
      </trkpt>
      <trkpt lat="45.95916" lon="4.77388">
        <ele>178.199996948</ele>
        <time>2015-12-12T11:15:49.776Z</time>
      </trkpt>
      <trkpt lat="45.95913" lon="4.7738">
        <ele>178.100006104</ele>
        <time>2015-12-12T11:15:50.76Z</time>
      </trkpt>
      <trkpt lat="45.9591" lon="4.77372">
        <ele>178.100006104</ele>
        <time>2015-12-12T11:15:51.775Z</time>
      </trkpt>
      <trkpt lat="45.95907" lon="4.77364">
        <ele>177.899993896</ele>
        <time>2015-12-12T11:15:52.754Z</time>
      </trkpt>
      <trkpt lat="45.95904" lon="4.77356">
        <ele>177.600006104</ele>
        <time>2015-12-12T11:15:53.779Z</time>
      </trkpt>
      <trkpt lat="45.95901" lon="4.77348">
        <ele>177.5</ele>
        <time>2015-12-12T11:15:54.758Z</time>
      </trkpt>
      <trkpt lat="45.95898" lon="4.77339">
        <ele>177.5</ele>
        <time>2015-12-12T11:15:55.775Z</time>
      </trkpt>
      <trkpt lat="45.95895" lon="4.7733">
        <ele>177.199996948</ele>
        <time>2015-12-12T11:15:56.758Z</time>
      </trkpt>
      <trkpt lat="45.95892" lon="4.77321">
        <ele>177.100006104</ele>
        <time>2015-12-12T11:15:57.789Z</time>
      </trkpt>
      <trkpt lat="45.9589" lon="4.77312">
        <ele>176.699996948</ele>
        <time>2015-12-12T11:15:58.758Z</time>
      </trkpt>
      <trkpt lat="45.95888" lon="4.77302">
        <ele>176.800003052</ele>
        <time>2015-12-12T11:15:59.777Z</time>
      </trkpt>
      <trkpt lat="45.95885" lon="4.77291">
        <ele>176.5</ele>
        <time>2015-12-12T11:16:00.759Z</time>
      </trkpt>
      <trkpt lat="45.95883" lon="4.77281">
        <ele>176.399993896</ele>
        <time>2015-12-12T11:16:01.775Z</time>
      </trkpt>
      <trkpt lat="45.95881" lon="4.77272">
        <ele>176.699996948</ele>
        <time>2015-12-12T11:16:02.758Z</time>
      </trkpt>
      <trkpt lat="45.95879" lon="4.77263">
        <ele>176.699996948</ele>
        <time>2015-12-12T11:16:03.775Z</time>
      </trkpt>
      <trkpt lat="45.95877" lon="4.77253">
        <ele>176.800003052</ele>
        <time>2015-12-12T11:16:04.758Z</time>
      </trkpt>
      <trkpt lat="45.95875" lon="4.77244">
        <ele>176.800003052</ele>
        <time>2015-12-12T11:16:05.778Z</time>
      </trkpt>
      <trkpt lat="45.95874" lon="4.77234">
        <ele>176.699996948</ele>
        <time>2015-12-12T11:16:06.758Z</time>
      </trkpt>
      <trkpt lat="45.95872" lon="4.77225">
        <ele>177</ele>
        <time>2015-12-12T11:16:07.775Z</time>
      </trkpt>
      <trkpt lat="45.9587" lon="4.77216">
        <ele>177.199996948</ele>
        <time>2015-12-12T11:16:08.758Z</time>
      </trkpt>
      <trkpt lat="45.95867" lon="4.77207">
        <ele>177.100006104</ele>
        <time>2015-12-12T11:16:09.775Z</time>
      </trkpt>
      <trkpt lat="45.95865" lon="4.77198">
        <ele>176.899993896</ele>
        <time>2015-12-12T11:16:10.758Z</time>
      </trkpt>
      <trkpt lat="45.95862" lon="4.77189">
        <ele>176.5</ele>
        <time>2015-12-12T11:16:11.778Z</time>
      </trkpt>
      <trkpt lat="45.95859" lon="4.77181">
        <ele>176.399993896</ele>
        <time>2015-12-12T11:16:12.758Z</time>
      </trkpt>
      <trkpt lat="45.95857" lon="4.77172">
        <ele>176</ele>
        <time>2015-12-12T11:16:13.795Z</time>
      </trkpt>
      <trkpt lat="45.95855" lon="4.77163">
        <ele>176.100006104</ele>
        <time>2015-12-12T11:16:14.758Z</time>
      </trkpt>
      <trkpt lat="45.95852" lon="4.77154">
        <ele>176.100006104</ele>
        <time>2015-12-12T11:16:15.776Z</time>
      </trkpt>
      <trkpt lat="45.9585" lon="4.77144">
        <ele>175.899993896</ele>
        <time>2015-12-12T11:16:16.758Z</time>
      </trkpt>
      <trkpt lat="45.95847" lon="4.77135">
        <ele>175.800003052</ele>
        <time>2015-12-12T11:16:17.787Z</time>
      </trkpt>
      <trkpt lat="45.95844" lon="4.77126">
        <ele>175.399993896</ele>
        <time>2015-12-12T11:16:18.758Z</time>
      </trkpt>
      <trkpt lat="45.95841" lon="4.77117">
        <ele>174.600006104</ele>
        <time>2015-12-12T11:16:19.774Z</time>
      </trkpt>
      <trkpt lat="45.95839" lon="4.77108">
        <ele>174.5</ele>
        <time>2015-12-12T11:16:20.758Z</time>
      </trkpt>
      <trkpt lat="45.95836" lon="4.77098">
        <ele>174.800003052</ele>
        <time>2015-12-12T11:16:21.774Z</time>
      </trkpt>
      <trkpt lat="45.95833" lon="4.77089">
        <ele>175.100006104</ele>
        <time>2015-12-12T11:16:22.758Z</time>
      </trkpt>
      <trkpt lat="45.9583" lon="4.77081">
        <ele>175.399993896</ele>
        <time>2015-12-12T11:16:23.777Z</time>
      </trkpt>
      <trkpt lat="45.95827" lon="4.77072">
        <ele>175.800003052</ele>
        <time>2015-12-12T11:16:24.758Z</time>
      </trkpt>
      <trkpt lat="45.95823" lon="4.77063">
        <ele>176.100006104</ele>
        <time>2015-12-12T11:16:25.775Z</time>
      </trkpt>
      <trkpt lat="45.95819" lon="4.77055">
        <ele>176.300003052</ele>
        <time>2015-12-12T11:16:26.758Z</time>
      </trkpt>
      <trkpt lat="45.95815" lon="4.77046">
        <ele>176.600006104</ele>
        <time>2015-12-12T11:16:27.811Z</time>
      </trkpt>
      <trkpt lat="45.95812" lon="4.77038">
        <ele>176.699996948</ele>
        <time>2015-12-12T11:16:28.757Z</time>
      </trkpt>
      <trkpt lat="45.95808" lon="4.77029">
        <ele>177</ele>
        <time>2015-12-12T11:16:29.79Z</time>
      </trkpt>
      <trkpt lat="45.95805" lon="4.77019">
        <ele>177.199996948</ele>
        <time>2015-12-12T11:16:30.757Z</time>
      </trkpt>
      <trkpt lat="45.95803" lon="4.7701">
        <ele>178.199996948</ele>
        <time>2015-12-12T11:16:31.775Z</time>
      </trkpt>
      <trkpt lat="45.95801" lon="4.77">
        <ele>178.5</ele>
        <time>2015-12-12T11:16:32.757Z</time>
      </trkpt>
      <trkpt lat="45.958" lon="4.76991">
        <ele>178.199996948</ele>
        <time>2015-12-12T11:16:33.774Z</time>
      </trkpt>
      <trkpt lat="45.958" lon="4.76982">
        <ele>178.100006104</ele>
        <time>2015-12-12T11:16:34.757Z</time>
      </trkpt>
      <trkpt lat="45.958" lon="4.76973">
        <ele>178.199996948</ele>
        <time>2015-12-12T11:16:35.777Z</time>
      </trkpt>
      <trkpt lat="45.95801" lon="4.76965">
        <ele>178</ele>
        <time>2015-12-12T11:16:36.758Z</time>
      </trkpt>
      <trkpt lat="45.95803" lon="4.76957">
        <ele>177.899993896</ele>
        <time>2015-12-12T11:16:37.775Z</time>
      </trkpt>
      <trkpt lat="45.95804" lon="4.76949">
        <ele>178.300003052</ele>
        <time>2015-12-12T11:16:38.758Z</time>
      </trkpt>
      <trkpt lat="45.95806" lon="4.76941">
        <ele>178.300003052</ele>
        <time>2015-12-12T11:16:39.775Z</time>
      </trkpt>
      <trkpt lat="45.95807" lon="4.76933">
        <ele>178</ele>
        <time>2015-12-12T11:16:40.757Z</time>
      </trkpt>
      <trkpt lat="45.95808" lon="4.76925">
        <ele>177.5</ele>
        <time>2015-12-12T11:16:41.777Z</time>
      </trkpt>
      <trkpt lat="45.9581" lon="4.76918">
        <ele>177.300003052</ele>
        <time>2015-12-12T11:16:42.757Z</time>
      </trkpt>
      <trkpt lat="45.95812" lon="4.76909">
        <ele>177.199996948</ele>
        <time>2015-12-12T11:16:43.774Z</time>
      </trkpt>
      <trkpt lat="45.95813" lon="4.76901">
        <ele>177</ele>
        <time>2015-12-12T11:16:44.758Z</time>
      </trkpt>
      <trkpt lat="45.95815" lon="4.76893">
        <ele>177</ele>
        <time>2015-12-12T11:16:45.787Z</time>
      </trkpt>
      <trkpt lat="45.95817" lon="4.76885">
        <ele>176.899993896</ele>
        <time>2015-12-12T11:16:46.758Z</time>
      </trkpt>
      <trkpt lat="45.95818" lon="4.76877">
        <ele>176.899993896</ele>
        <time>2015-12-12T11:16:47.777Z</time>
      </trkpt>
      <trkpt lat="45.9582" lon="4.76868">
        <ele>176.899993896</ele>
        <time>2015-12-12T11:16:48.757Z</time>
      </trkpt>
      <trkpt lat="45.95821" lon="4.7686">
        <ele>176.699996948</ele>
        <time>2015-12-12T11:16:49.775Z</time>
      </trkpt>
      <trkpt lat="45.95823" lon="4.76851">
        <ele>176.899993896</ele>
        <time>2015-12-12T11:16:50.76Z</time>
      </trkpt>
      <trkpt lat="45.95825" lon="4.76844">
        <ele>177.199996948</ele>
        <time>2015-12-12T11:16:51.774Z</time>
      </trkpt>
      <trkpt lat="45.95827" lon="4.76836">
        <ele>176.800003052</ele>
        <time>2015-12-12T11:16:52.758Z</time>
      </trkpt>
      <trkpt lat="45.95829" lon="4.76829">
        <ele>176.699996948</ele>
        <time>2015-12-12T11:16:53.778Z</time>
      </trkpt>
      <trkpt lat="45.9583" lon="4.76822">
        <ele>176.5</ele>
        <time>2015-12-12T11:16:54.758Z</time>
      </trkpt>
      <trkpt lat="45.95831" lon="4.76814">
        <ele>176.600006104</ele>
        <time>2015-12-12T11:16:55.775Z</time>
      </trkpt>
      <trkpt lat="45.95833" lon="4.76807">
        <ele>176.399993896</ele>
        <time>2015-12-12T11:16:56.758Z</time>
      </trkpt>
      <trkpt lat="45.95833" lon="4.768">
        <ele>176.300003052</ele>
        <time>2015-12-12T11:16:57.773Z</time>
      </trkpt>
      <trkpt lat="45.95833" lon="4.76791">
        <ele>176.199996948</ele>
        <time>2015-12-12T11:16:58.757Z</time>
      </trkpt>
      <trkpt lat="45.95832" lon="4.76783">
        <ele>176.100006104</ele>
        <time>2015-12-12T11:16:59.777Z</time>
      </trkpt>
      <trkpt lat="45.9583" lon="4.76775">
        <ele>176</ele>
        <time>2015-12-12T11:17:00.757Z</time>
      </trkpt>
      <trkpt lat="45.95828" lon="4.76768">
        <ele>175.800003052</ele>
        <time>2015-12-12T11:17:01.775Z</time>
      </trkpt>
      <trkpt lat="45.95827" lon="4.7676">
        <ele>175.399993896</ele>
        <time>2015-12-12T11:17:02.758Z</time>
      </trkpt>
      <trkpt lat="45.95825" lon="4.76751">
        <ele>175.399993896</ele>
        <time>2015-12-12T11:17:03.774Z</time>
      </trkpt>
      <trkpt lat="45.95824" lon="4.76743">
        <ele>175.300003052</ele>
        <time>2015-12-12T11:17:04.757Z</time>
      </trkpt>
      <trkpt lat="45.95823" lon="4.76733">
        <ele>175.199996948</ele>
        <time>2015-12-12T11:17:05.777Z</time>
      </trkpt>
      <trkpt lat="45.95822" lon="4.76724">
        <ele>175.199996948</ele>
        <time>2015-12-12T11:17:06.757Z</time>
      </trkpt>
      <trkpt lat="45.95822" lon="4.76715">
        <ele>175.300003052</ele>
        <time>2015-12-12T11:17:07.775Z</time>
      </trkpt>
      <trkpt lat="45.95821" lon="4.76707">
        <ele>175.5</ele>
        <time>2015-12-12T11:17:08.757Z</time>
      </trkpt>
      <trkpt lat="45.9582" lon="4.76699">
        <ele>175.699996948</ele>
        <time>2015-12-12T11:17:09.773Z</time>
      </trkpt>
      <trkpt lat="45.95818" lon="4.76691">
        <ele>175.699996948</ele>
        <time>2015-12-12T11:17:10.758Z</time>
      </trkpt>
      <trkpt lat="45.95817" lon="4.76683">
        <ele>175.899993896</ele>
        <time>2015-12-12T11:17:11.791Z</time>
      </trkpt>
      <trkpt lat="45.95816" lon="4.76675">
        <ele>176</ele>
        <time>2015-12-12T11:17:12.758Z</time>
      </trkpt>
      <trkpt lat="45.95814" lon="4.76667">
        <ele>176</ele>
        <time>2015-12-12T11:17:13.775Z</time>
      </trkpt>
      <trkpt lat="45.95813" lon="4.76658">
        <ele>175.600006104</ele>
        <time>2015-12-12T11:17:14.758Z</time>
      </trkpt>
      <trkpt lat="45.95812" lon="4.7665">
        <ele>175.5</ele>
        <time>2015-12-12T11:17:15.774Z</time>
      </trkpt>
      <trkpt lat="45.9581" lon="4.76641">
        <ele>175.5</ele>
        <time>2015-12-12T11:17:16.757Z</time>
      </trkpt>
      <trkpt lat="45.95808" lon="4.76632">
        <ele>175.300003052</ele>
        <time>2015-12-12T11:17:17.777Z</time>
      </trkpt>
      <trkpt lat="45.95807" lon="4.76623">
        <ele>175.300003052</ele>
        <time>2015-12-12T11:17:18.758Z</time>
      </trkpt>
      <trkpt lat="45.95805" lon="4.76614">
        <ele>175.199996948</ele>
        <time>2015-12-12T11:17:19.791Z</time>
      </trkpt>
      <trkpt lat="45.95804" lon="4.76605">
        <ele>175.399993896</ele>
        <time>2015-12-12T11:17:20.757Z</time>
      </trkpt>
      <trkpt lat="45.95803" lon="4.76595">
        <ele>175.399993896</ele>
        <time>2015-12-12T11:17:21.774Z</time>
      </trkpt>
      <trkpt lat="45.95802" lon="4.76586">
        <ele>175.800003052</ele>
        <time>2015-12-12T11:17:22.758Z</time>
      </trkpt>
      <trkpt lat="45.958" lon="4.76577">
        <ele>175.699996948</ele>
        <time>2015-12-12T11:17:23.776Z</time>
      </trkpt>
      <trkpt lat="45.95799" lon="4.76568">
        <ele>175.600006104</ele>
        <time>2015-12-12T11:17:24.758Z</time>
      </trkpt>
      <trkpt lat="45.95797" lon="4.76559">
        <ele>175.600006104</ele>
        <time>2015-12-12T11:17:25.776Z</time>
      </trkpt>
      <trkpt lat="45.95795" lon="4.76549">
        <ele>175.800003052</ele>
        <time>2015-12-12T11:17:26.757Z</time>
      </trkpt>
      <trkpt lat="45.95794" lon="4.7654">
        <ele>175.899993896</ele>
        <time>2015-12-12T11:17:27.789Z</time>
      </trkpt>
      <trkpt lat="45.95792" lon="4.76532">
        <ele>175.800003052</ele>
        <time>2015-12-12T11:17:28.757Z</time>
      </trkpt>
      <trkpt lat="45.95791" lon="4.76524">
        <ele>176</ele>
        <time>2015-12-12T11:17:29.788Z</time>
      </trkpt>
      <trkpt lat="45.9579" lon="4.76516">
        <ele>176</ele>
        <time>2015-12-12T11:17:30.757Z</time>
      </trkpt>
      <trkpt lat="45.95789" lon="4.76507">
        <ele>176</ele>
        <time>2015-12-12T11:17:31.915Z</time>
      </trkpt>
      <trkpt lat="45.95788" lon="4.765">
        <ele>176.300003052</ele>
        <time>2015-12-12T11:17:32.753Z</time>
      </trkpt>
      <trkpt lat="45.95787" lon="4.76493">
        <ele>176.800003052</ele>
        <time>2015-12-12T11:17:33.773Z</time>
      </trkpt>
      <trkpt lat="45.95786" lon="4.76485">
        <ele>177.5</ele>
        <time>2015-12-12T11:17:34.758Z</time>
      </trkpt>
      <trkpt lat="45.95785" lon="4.76477">
        <ele>177.699996948</ele>
        <time>2015-12-12T11:17:35.777Z</time>
      </trkpt>
      <trkpt lat="45.95783" lon="4.76469">
        <ele>178.100006104</ele>
        <time>2015-12-12T11:17:36.758Z</time>
      </trkpt>
      <trkpt lat="45.95782" lon="4.76461">
        <ele>178.300003052</ele>
        <time>2015-12-12T11:17:37.775Z</time>
      </trkpt>
      <trkpt lat="45.95781" lon="4.76453">
        <ele>178.199996948</ele>
        <time>2015-12-12T11:17:38.758Z</time>
      </trkpt>
      <trkpt lat="45.9578" lon="4.76445">
        <ele>178.199996948</ele>
        <time>2015-12-12T11:17:39.787Z</time>
      </trkpt>
      <trkpt lat="45.95779" lon="4.76438">
        <ele>178.399993896</ele>
        <time>2015-12-12T11:17:40.758Z</time>
      </trkpt>
      <trkpt lat="45.95777" lon="4.7643">
        <ele>178.600006104</ele>
        <time>2015-12-12T11:17:41.777Z</time>
      </trkpt>
      <trkpt lat="45.95776" lon="4.76422">
        <ele>179</ele>
        <time>2015-12-12T11:17:42.758Z</time>
      </trkpt>
      <trkpt lat="45.95775" lon="4.76413">
        <ele>179.100006104</ele>
        <time>2015-12-12T11:17:43.789Z</time>
      </trkpt>
      <trkpt lat="45.95774" lon="4.76404">
        <ele>179.300003052</ele>
        <time>2015-12-12T11:17:44.758Z</time>
      </trkpt>
      <trkpt lat="45.95773" lon="4.76396">
        <ele>179</ele>
        <time>2015-12-12T11:17:45.774Z</time>
      </trkpt>
      <trkpt lat="45.95772" lon="4.76387">
        <ele>178.600006104</ele>
        <time>2015-12-12T11:17:46.758Z</time>
      </trkpt>
      <trkpt lat="45.95772" lon="4.76378">
        <ele>178.100006104</ele>
        <time>2015-12-12T11:17:47.777Z</time>
      </trkpt>
      <trkpt lat="45.95771" lon="4.7637">
        <ele>177.899993896</ele>
        <time>2015-12-12T11:17:48.758Z</time>
      </trkpt>
      <trkpt lat="45.95771" lon="4.76361">
        <ele>177.5</ele>
        <time>2015-12-12T11:17:49.775Z</time>
      </trkpt>
      <trkpt lat="45.95771" lon="4.76353">
        <ele>177.199996948</ele>
        <time>2015-12-12T11:17:50.76Z</time>
      </trkpt>
      <trkpt lat="45.9577" lon="4.76345">
        <ele>177.100006104</ele>
        <time>2015-12-12T11:17:51.774Z</time>
      </trkpt>
      <trkpt lat="45.9577" lon="4.76337">
        <ele>177</ele>
        <time>2015-12-12T11:17:52.758Z</time>
      </trkpt>
      <trkpt lat="45.95769" lon="4.76329">
        <ele>177.100006104</ele>
        <time>2015-12-12T11:17:53.777Z</time>
      </trkpt>
      <trkpt lat="45.95769" lon="4.76321">
        <ele>177.300003052</ele>
        <time>2015-12-12T11:17:54.758Z</time>
      </trkpt>
      <trkpt lat="45.95768" lon="4.76313">
        <ele>177.399993896</ele>
        <time>2015-12-12T11:17:55.902Z</time>
      </trkpt>
      <trkpt lat="45.95768" lon="4.76304">
        <ele>177.800003052</ele>
        <time>2015-12-12T11:17:56.758Z</time>
      </trkpt>
      <trkpt lat="45.95767" lon="4.76296">
        <ele>178.100006104</ele>
        <time>2015-12-12T11:17:57.774Z</time>
      </trkpt>
      <trkpt lat="45.95767" lon="4.76287">
        <ele>178.199996948</ele>
        <time>2015-12-12T11:17:58.758Z</time>
      </trkpt>
      <trkpt lat="45.95766" lon="4.76279">
        <ele>178.100006104</ele>
        <time>2015-12-12T11:17:59.791Z</time>
      </trkpt>
      <trkpt lat="45.95766" lon="4.7627">
        <ele>178</ele>
        <time>2015-12-12T11:18:00.758Z</time>
      </trkpt>
      <trkpt lat="45.95765" lon="4.76261">
        <ele>177.899993896</ele>
        <time>2015-12-12T11:18:01.775Z</time>
      </trkpt>
      <trkpt lat="45.95765" lon="4.76253">
        <ele>177.899993896</ele>
        <time>2015-12-12T11:18:02.758Z</time>
      </trkpt>
      <trkpt lat="45.95765" lon="4.76244">
        <ele>177.800003052</ele>
        <time>2015-12-12T11:18:03.774Z</time>
      </trkpt>
      <trkpt lat="45.95764" lon="4.76236">
        <ele>177.800003052</ele>
        <time>2015-12-12T11:18:04.758Z</time>
      </trkpt>
      <trkpt lat="45.95764" lon="4.76227">
        <ele>177.800003052</ele>
        <time>2015-12-12T11:18:05.777Z</time>
      </trkpt>
      <trkpt lat="45.95764" lon="4.76218">
        <ele>178</ele>
        <time>2015-12-12T11:18:06.758Z</time>
      </trkpt>
      <trkpt lat="45.95763" lon="4.76209">
        <ele>177.800003052</ele>
        <time>2015-12-12T11:18:07.905Z</time>
      </trkpt>
      <trkpt lat="45.95763" lon="4.762">
        <ele>177.699996948</ele>
        <time>2015-12-12T11:18:08.758Z</time>
      </trkpt>
      <trkpt lat="45.95763" lon="4.76191">
        <ele>177.699996948</ele>
        <time>2015-12-12T11:18:09.774Z</time>
      </trkpt>
      <trkpt lat="45.95762" lon="4.76181">
        <ele>177.699996948</ele>
        <time>2015-12-12T11:18:10.754Z</time>
      </trkpt>
      <trkpt lat="45.95762" lon="4.76172">
        <ele>177.899993896</ele>
        <time>2015-12-12T11:18:11.777Z</time>
      </trkpt>
      <trkpt lat="45.9576" lon="4.76162">
        <ele>177.600006104</ele>
        <time>2015-12-12T11:18:12.758Z</time>
      </trkpt>
      <trkpt lat="45.9576" lon="4.76153">
        <ele>177.5</ele>
        <time>2015-12-12T11:18:13.775Z</time>
      </trkpt>
      <trkpt lat="45.95758" lon="4.76144">
        <ele>177.100006104</ele>
        <time>2015-12-12T11:18:14.757Z</time>
      </trkpt>
      <trkpt lat="45.95757" lon="4.76136">
        <ele>176.899993896</ele>
        <time>2015-12-12T11:18:15.79Z</time>
      </trkpt>
      <trkpt lat="45.95756" lon="4.76127">
        <ele>176.300003052</ele>
        <time>2015-12-12T11:18:16.757Z</time>
      </trkpt>
      <trkpt lat="45.95755" lon="4.7612">
        <ele>176.100006104</ele>
        <time>2015-12-12T11:18:17.776Z</time>
      </trkpt>
      <trkpt lat="45.95754" lon="4.76112">
        <ele>176.399993896</ele>
        <time>2015-12-12T11:18:18.757Z</time>
      </trkpt>
      <trkpt lat="45.95753" lon="4.76105">
        <ele>176.300003052</ele>
        <time>2015-12-12T11:18:19.775Z</time>
      </trkpt>
      <trkpt lat="45.95752" lon="4.76098">
        <ele>176.399993896</ele>
        <time>2015-12-12T11:18:20.757Z</time>
      </trkpt>
      <trkpt lat="45.9575" lon="4.76091">
        <ele>176.699996948</ele>
        <time>2015-12-12T11:18:21.773Z</time>
      </trkpt>
      <trkpt lat="45.95747" lon="4.76084">
        <ele>176.800003052</ele>
        <time>2015-12-12T11:18:22.757Z</time>
      </trkpt>
      <trkpt lat="45.95744" lon="4.76077">
        <ele>177</ele>
        <time>2015-12-12T11:18:23.783Z</time>
      </trkpt>
      <trkpt lat="45.95742" lon="4.7607">
        <ele>177.199996948</ele>
        <time>2015-12-12T11:18:24.758Z</time>
      </trkpt>
      <trkpt lat="45.95739" lon="4.76063">
        <ele>177.399993896</ele>
        <time>2015-12-12T11:18:25.782Z</time>
      </trkpt>
      <trkpt lat="45.95736" lon="4.76055">
        <ele>177.699996948</ele>
        <time>2015-12-12T11:18:26.757Z</time>
      </trkpt>
      <trkpt lat="45.95732" lon="4.76048">
        <ele>177.399993896</ele>
        <time>2015-12-12T11:18:27.774Z</time>
      </trkpt>
      <trkpt lat="45.95729" lon="4.76041">
        <ele>177.100006104</ele>
        <time>2015-12-12T11:18:28.757Z</time>
      </trkpt>
      <trkpt lat="45.95726" lon="4.76034">
        <ele>177</ele>
        <time>2015-12-12T11:18:29.777Z</time>
      </trkpt>
      <trkpt lat="45.95722" lon="4.76028">
        <ele>176.800003052</ele>
        <time>2015-12-12T11:18:30.757Z</time>
      </trkpt>
      <trkpt lat="45.95719" lon="4.76021">
        <ele>176.5</ele>
        <time>2015-12-12T11:18:31.776Z</time>
      </trkpt>
      <trkpt lat="45.95716" lon="4.76013">
        <ele>176.5</ele>
        <time>2015-12-12T11:18:32.757Z</time>
      </trkpt>
      <trkpt lat="45.95712" lon="4.76006">
        <ele>176.5</ele>
        <time>2015-12-12T11:18:33.774Z</time>
      </trkpt>
      <trkpt lat="45.95709" lon="4.75999">
        <ele>176.600006104</ele>
        <time>2015-12-12T11:18:34.757Z</time>
      </trkpt>
      <trkpt lat="45.95706" lon="4.75991">
        <ele>176.600006104</ele>
        <time>2015-12-12T11:18:35.776Z</time>
      </trkpt>
      <trkpt lat="45.95703" lon="4.75984">
        <ele>176.600006104</ele>
        <time>2015-12-12T11:18:36.757Z</time>
      </trkpt>
      <trkpt lat="45.95699" lon="4.75976">
        <ele>176.600006104</ele>
        <time>2015-12-12T11:18:37.775Z</time>
      </trkpt>
      <trkpt lat="45.95696" lon="4.75968">
        <ele>176.399993896</ele>
        <time>2015-12-12T11:18:38.757Z</time>
      </trkpt>
      <trkpt lat="45.95692" lon="4.7596">
        <ele>176.100006104</ele>
        <time>2015-12-12T11:18:39.774Z</time>
      </trkpt>
      <trkpt lat="45.95688" lon="4.75953">
        <ele>176</ele>
        <time>2015-12-12T11:18:40.757Z</time>
      </trkpt>
      <trkpt lat="45.95685" lon="4.75945">
        <ele>176.100006104</ele>
        <time>2015-12-12T11:18:41.777Z</time>
      </trkpt>
      <trkpt lat="45.9568" lon="4.75937">
        <ele>175.800003052</ele>
        <time>2015-12-12T11:18:42.757Z</time>
      </trkpt>
      <trkpt lat="45.95676" lon="4.75928">
        <ele>175.800003052</ele>
        <time>2015-12-12T11:18:43.913Z</time>
      </trkpt>
      <trkpt lat="45.95673" lon="4.75919">
        <ele>175.800003052</ele>
        <time>2015-12-12T11:18:44.757Z</time>
      </trkpt>
      <trkpt lat="45.95669" lon="4.7591">
        <ele>176.100006104</ele>
        <time>2015-12-12T11:18:45.773Z</time>
      </trkpt>
      <trkpt lat="45.95666" lon="4.75902">
        <ele>176.100006104</ele>
        <time>2015-12-12T11:18:46.756Z</time>
      </trkpt>
      <trkpt lat="45.95663" lon="4.75893">
        <ele>175.899993896</ele>
        <time>2015-12-12T11:18:47.776Z</time>
      </trkpt>
      <trkpt lat="45.9566" lon="4.75884">
        <ele>176.399993896</ele>
        <time>2015-12-12T11:18:48.757Z</time>
      </trkpt>
      <trkpt lat="45.95658" lon="4.75876">
        <ele>176.199996948</ele>
        <time>2015-12-12T11:18:49.776Z</time>
      </trkpt>
      <trkpt lat="45.95655" lon="4.75867">
        <ele>176</ele>
        <time>2015-12-12T11:18:50.759Z</time>
      </trkpt>
      <trkpt lat="45.95653" lon="4.7586">
        <ele>175.800003052</ele>
        <time>2015-12-12T11:18:51.774Z</time>
      </trkpt>
      <trkpt lat="45.95651" lon="4.75852">
        <ele>175.899993896</ele>
        <time>2015-12-12T11:18:52.757Z</time>
      </trkpt>
      <trkpt lat="45.95649" lon="4.75844">
        <ele>175.899993896</ele>
        <time>2015-12-12T11:18:53.776Z</time>
      </trkpt>
      <trkpt lat="45.95647" lon="4.75836">
        <ele>176.5</ele>
        <time>2015-12-12T11:18:54.757Z</time>
      </trkpt>
      <trkpt lat="45.95646" lon="4.75829">
        <ele>176.899993896</ele>
        <time>2015-12-12T11:18:55.912Z</time>
      </trkpt>
      <trkpt lat="45.95644" lon="4.75821">
        <ele>177.199996948</ele>
        <time>2015-12-12T11:18:56.757Z</time>
      </trkpt>
      <trkpt lat="45.95643" lon="4.75813">
        <ele>177.5</ele>
        <time>2015-12-12T11:18:57.787Z</time>
      </trkpt>
      <trkpt lat="45.95642" lon="4.75805">
        <ele>177.800003052</ele>
        <time>2015-12-12T11:18:58.757Z</time>
      </trkpt>
      <trkpt lat="45.95641" lon="4.75797">
        <ele>177.899993896</ele>
        <time>2015-12-12T11:18:59.776Z</time>
      </trkpt>
      <trkpt lat="45.9564" lon="4.7579">
        <ele>177.899993896</ele>
        <time>2015-12-12T11:19:00.757Z</time>
      </trkpt>
      <trkpt lat="45.95639" lon="4.75782">
        <ele>177.800003052</ele>
        <time>2015-12-12T11:19:01.774Z</time>
      </trkpt>
      <trkpt lat="45.95638" lon="4.75775">
        <ele>177.600006104</ele>
        <time>2015-12-12T11:19:02.757Z</time>
      </trkpt>
      <trkpt lat="45.95637" lon="4.75767">
        <ele>177.300003052</ele>
        <time>2015-12-12T11:19:03.773Z</time>
      </trkpt>
      <trkpt lat="45.95636" lon="4.75759">
        <ele>177.600006104</ele>
        <time>2015-12-12T11:19:04.757Z</time>
      </trkpt>
      <trkpt lat="45.95635" lon="4.75751">
        <ele>177.399993896</ele>
        <time>2015-12-12T11:19:05.776Z</time>
      </trkpt>
      <trkpt lat="45.95633" lon="4.75744">
        <ele>177.399993896</ele>
        <time>2015-12-12T11:19:06.757Z</time>
      </trkpt>
      <trkpt lat="45.95633" lon="4.75736">
        <ele>177.800003052</ele>
        <time>2015-12-12T11:19:07.774Z</time>
      </trkpt>
      <trkpt lat="45.95632" lon="4.75728">
        <ele>177.600006104</ele>
        <time>2015-12-12T11:19:08.757Z</time>
      </trkpt>
      <trkpt lat="45.95631" lon="4.7572">
        <ele>177.800003052</ele>
        <time>2015-12-12T11:19:09.774Z</time>
      </trkpt>
      <trkpt lat="45.9563" lon="4.75712">
        <ele>178.100006104</ele>
        <time>2015-12-12T11:19:10.757Z</time>
      </trkpt>
      <trkpt lat="45.95629" lon="4.75703">
        <ele>178.100006104</ele>
        <time>2015-12-12T11:19:11.776Z</time>
      </trkpt>
      <trkpt lat="45.95628" lon="4.75695">
        <ele>178.300003052</ele>
        <time>2015-12-12T11:19:12.756Z</time>
      </trkpt>
      <trkpt lat="45.95626" lon="4.75687">
        <ele>178.600006104</ele>
        <time>2015-12-12T11:19:13.775Z</time>
      </trkpt>
      <trkpt lat="45.95624" lon="4.75679">
        <ele>179.199996948</ele>
        <time>2015-12-12T11:19:14.757Z</time>
      </trkpt>
      <trkpt lat="45.95622" lon="4.75671">
        <ele>179.399993896</ele>
        <time>2015-12-12T11:19:15.774Z</time>
      </trkpt>
      <trkpt lat="45.9562" lon="4.75662">
        <ele>179.699996948</ele>
        <time>2015-12-12T11:19:16.757Z</time>
      </trkpt>
      <trkpt lat="45.95618" lon="4.75653">
        <ele>179.800003052</ele>
        <time>2015-12-12T11:19:17.776Z</time>
      </trkpt>
      <trkpt lat="45.95616" lon="4.75645">
        <ele>180</ele>
        <time>2015-12-12T11:19:18.757Z</time>
      </trkpt>
      <trkpt lat="45.95614" lon="4.75636">
        <ele>179.699996948</ele>
        <time>2015-12-12T11:19:19.924Z</time>
      </trkpt>
      <trkpt lat="45.95611" lon="4.75627">
        <ele>179.699996948</ele>
        <time>2015-12-12T11:19:20.757Z</time>
      </trkpt>
      <trkpt lat="45.95609" lon="4.75619">
        <ele>179.699996948</ele>
        <time>2015-12-12T11:19:21.773Z</time>
      </trkpt>
      <trkpt lat="45.95606" lon="4.7561">
        <ele>179.699996948</ele>
        <time>2015-12-12T11:19:22.757Z</time>
      </trkpt>
      <trkpt lat="45.95603" lon="4.75602">
        <ele>179.600006104</ele>
        <time>2015-12-12T11:19:23.791Z</time>
      </trkpt>
      <trkpt lat="45.956" lon="4.75593">
        <ele>179.5</ele>
        <time>2015-12-12T11:19:24.757Z</time>
      </trkpt>
      <trkpt lat="45.95596" lon="4.75585">
        <ele>179.600006104</ele>
        <time>2015-12-12T11:19:25.774Z</time>
      </trkpt>
      <trkpt lat="45.95592" lon="4.75576">
        <ele>179.800003052</ele>
        <time>2015-12-12T11:19:26.757Z</time>
      </trkpt>
      <trkpt lat="45.95588" lon="4.75568">
        <ele>179.899993896</ele>
        <time>2015-12-12T11:19:27.773Z</time>
      </trkpt>
      <trkpt lat="45.95583" lon="4.7556">
        <ele>179.899993896</ele>
        <time>2015-12-12T11:19:28.757Z</time>
      </trkpt>
      <trkpt lat="45.95578" lon="4.75553">
        <ele>179.899993896</ele>
        <time>2015-12-12T11:19:29.776Z</time>
      </trkpt>
      <trkpt lat="45.95573" lon="4.75546">
        <ele>179.699996948</ele>
        <time>2015-12-12T11:19:30.757Z</time>
      </trkpt>
      <trkpt lat="45.95567" lon="4.75539">
        <ele>179.5</ele>
        <time>2015-12-12T11:19:31.905Z</time>
      </trkpt>
      <trkpt lat="45.95562" lon="4.75533">
        <ele>179.100006104</ele>
        <time>2015-12-12T11:19:32.757Z</time>
      </trkpt>
      <trkpt lat="45.95556" lon="4.75527">
        <ele>179</ele>
        <time>2015-12-12T11:19:33.774Z</time>
      </trkpt>
      <trkpt lat="45.9555" lon="4.75521">
        <ele>178.899993896</ele>
        <time>2015-12-12T11:19:34.757Z</time>
      </trkpt>
      <trkpt lat="45.95546" lon="4.75514">
        <ele>178.600006104</ele>
        <time>2015-12-12T11:19:35.776Z</time>
      </trkpt>
      <trkpt lat="45.95541" lon="4.75507">
        <ele>178.899993896</ele>
        <time>2015-12-12T11:19:36.757Z</time>
      </trkpt>
      <trkpt lat="45.95538" lon="4.75499">
        <ele>178.699996948</ele>
        <time>2015-12-12T11:19:37.775Z</time>
      </trkpt>
      <trkpt lat="45.95536" lon="4.75492">
        <ele>178.600006104</ele>
        <time>2015-12-12T11:19:38.757Z</time>
      </trkpt>
      <trkpt lat="45.95535" lon="4.75485">
        <ele>178.300003052</ele>
        <time>2015-12-12T11:19:39.788Z</time>
      </trkpt>
      <trkpt lat="45.95535" lon="4.75477">
        <ele>178</ele>
        <time>2015-12-12T11:19:40.757Z</time>
      </trkpt>
      <trkpt lat="45.95534" lon="4.75469">
        <ele>177.899993896</ele>
        <time>2015-12-12T11:19:41.776Z</time>
      </trkpt>
      <trkpt lat="45.95533" lon="4.75462">
        <ele>178.300003052</ele>
        <time>2015-12-12T11:19:42.757Z</time>
      </trkpt>
      <trkpt lat="45.95529" lon="4.75455">
        <ele>178.199996948</ele>
        <time>2015-12-12T11:19:43.774Z</time>
      </trkpt>
      <trkpt lat="45.95526" lon="4.75449">
        <ele>178.199996948</ele>
        <time>2015-12-12T11:19:44.757Z</time>
      </trkpt>
      <trkpt lat="45.95521" lon="4.75443">
        <ele>178.100006104</ele>
        <time>2015-12-12T11:19:45.773Z</time>
      </trkpt>
      <trkpt lat="45.95517" lon="4.75436">
        <ele>178.300003052</ele>
        <time>2015-12-12T11:19:46.757Z</time>
      </trkpt>
      <trkpt lat="45.95513" lon="4.75428">
        <ele>178.300003052</ele>
        <time>2015-12-12T11:19:47.776Z</time>
      </trkpt>
      <trkpt lat="45.95511" lon="4.7542">
        <ele>178.300003052</ele>
        <time>2015-12-12T11:19:48.757Z</time>
      </trkpt>
      <trkpt lat="45.95508" lon="4.75412">
        <ele>178.100006104</ele>
        <time>2015-12-12T11:19:49.787Z</time>
      </trkpt>
      <trkpt lat="45.95505" lon="4.75405">
        <ele>177.899993896</ele>
        <time>2015-12-12T11:19:50.759Z</time>
      </trkpt>
      <trkpt lat="45.95502" lon="4.75397">
        <ele>177.800003052</ele>
        <time>2015-12-12T11:19:51.775Z</time>
      </trkpt>
      <trkpt lat="45.95499" lon="4.7539">
        <ele>177.899993896</ele>
        <time>2015-12-12T11:19:52.757Z</time>
      </trkpt>
      <trkpt lat="45.95496" lon="4.75383">
        <ele>178</ele>
        <time>2015-12-12T11:19:53.776Z</time>
      </trkpt>
      <trkpt lat="45.95493" lon="4.75377">
        <ele>177.699996948</ele>
        <time>2015-12-12T11:19:54.757Z</time>
      </trkpt>
      <trkpt lat="45.9549" lon="4.7537">
        <ele>177.5</ele>
        <time>2015-12-12T11:19:55.905Z</time>
      </trkpt>
      <trkpt lat="45.95487" lon="4.75363">
        <ele>177.399993896</ele>
        <time>2015-12-12T11:19:56.757Z</time>
      </trkpt>
      <trkpt lat="45.95484" lon="4.75357">
        <ele>177.399993896</ele>
        <time>2015-12-12T11:19:57.773Z</time>
      </trkpt>
      <trkpt lat="45.95481" lon="4.7535">
        <ele>177.600006104</ele>
        <time>2015-12-12T11:19:58.757Z</time>
      </trkpt>
      <trkpt lat="45.95477" lon="4.75343">
        <ele>177.699996948</ele>
        <time>2015-12-12T11:19:59.776Z</time>
      </trkpt>
      <trkpt lat="45.95474" lon="4.75336">
        <ele>177.699996948</ele>
        <time>2015-12-12T11:20:00.771Z</time>
      </trkpt>
      <trkpt lat="45.9547" lon="4.75329">
        <ele>177.899993896</ele>
        <time>2015-12-12T11:20:01.774Z</time>
      </trkpt>
      <trkpt lat="45.95467" lon="4.75322">
        <ele>177.899993896</ele>
        <time>2015-12-12T11:20:02.757Z</time>
      </trkpt>
      <trkpt lat="45.95463" lon="4.75316">
        <ele>177.800003052</ele>
        <time>2015-12-12T11:20:03.774Z</time>
      </trkpt>
      <trkpt lat="45.9546" lon="4.75309">
        <ele>178.199996948</ele>
        <time>2015-12-12T11:20:04.757Z</time>
      </trkpt>
      <trkpt lat="45.95456" lon="4.75303">
        <ele>178.399993896</ele>
        <time>2015-12-12T11:20:05.777Z</time>
      </trkpt>
      <trkpt lat="45.95453" lon="4.75296">
        <ele>178.300003052</ele>
        <time>2015-12-12T11:20:06.757Z</time>
      </trkpt>
      <trkpt lat="45.9545" lon="4.75289">
        <ele>178.399993896</ele>
        <time>2015-12-12T11:20:07.91Z</time>
      </trkpt>
      <trkpt lat="45.95446" lon="4.75283">
        <ele>178.399993896</ele>
        <time>2015-12-12T11:20:08.757Z</time>
      </trkpt>
      <trkpt lat="45.95443" lon="4.75277">
        <ele>178.899993896</ele>
        <time>2015-12-12T11:20:09.773Z</time>
      </trkpt>
      <trkpt lat="45.9544" lon="4.7527">
        <ele>179.199996948</ele>
        <time>2015-12-12T11:20:10.757Z</time>
      </trkpt>
      <trkpt lat="45.95437" lon="4.75264">
        <ele>179.399993896</ele>
        <time>2015-12-12T11:20:11.776Z</time>
      </trkpt>
      <trkpt lat="45.95434" lon="4.75257">
        <ele>179.300003052</ele>
        <time>2015-12-12T11:20:12.757Z</time>
      </trkpt>
      <trkpt lat="45.95431" lon="4.75251">
        <ele>179.600006104</ele>
        <time>2015-12-12T11:20:13.774Z</time>
      </trkpt>
      <trkpt lat="45.95427" lon="4.75245">
        <ele>179.699996948</ele>
        <time>2015-12-12T11:20:14.757Z</time>
      </trkpt>
      <trkpt lat="45.95424" lon="4.7524">
        <ele>180</ele>
        <time>2015-12-12T11:20:15.774Z</time>
      </trkpt>
      <trkpt lat="45.9542" lon="4.75233">
        <ele>180.100006104</ele>
        <time>2015-12-12T11:20:16.754Z</time>
      </trkpt>
      <trkpt lat="45.95417" lon="4.75227">
        <ele>180.300003052</ele>
        <time>2015-12-12T11:20:17.778Z</time>
      </trkpt>
      <trkpt lat="45.95413" lon="4.75222">
        <ele>181.100006104</ele>
        <time>2015-12-12T11:20:18.758Z</time>
      </trkpt>
      <trkpt lat="45.95409" lon="4.75215">
        <ele>181.100006104</ele>
        <time>2015-12-12T11:20:19.908Z</time>
      </trkpt>
      <trkpt lat="45.95406" lon="4.75209">
        <ele>181</ele>
        <time>2015-12-12T11:20:20.759Z</time>
      </trkpt>
      <trkpt lat="45.95403" lon="4.75203">
        <ele>181.100006104</ele>
        <time>2015-12-12T11:20:21.787Z</time>
      </trkpt>
      <trkpt lat="45.95399" lon="4.75197">
        <ele>181.199996948</ele>
        <time>2015-12-12T11:20:22.757Z</time>
      </trkpt>
      <trkpt lat="45.95396" lon="4.75191">
        <ele>181.199996948</ele>
        <time>2015-12-12T11:20:23.776Z</time>
      </trkpt>
      <trkpt lat="45.95393" lon="4.75185">
        <ele>181.100006104</ele>
        <time>2015-12-12T11:20:24.757Z</time>
      </trkpt>
      <trkpt lat="45.95389" lon="4.75179">
        <ele>181.5</ele>
        <time>2015-12-12T11:20:25.774Z</time>
      </trkpt>
      <trkpt lat="45.95386" lon="4.75173">
        <ele>181.899993896</ele>
        <time>2015-12-12T11:20:26.757Z</time>
      </trkpt>
      <trkpt lat="45.95383" lon="4.75167">
        <ele>182.300003052</ele>
        <time>2015-12-12T11:20:27.773Z</time>
      </trkpt>
      <trkpt lat="45.95379" lon="4.75161">
        <ele>182.399993896</ele>
        <time>2015-12-12T11:20:28.757Z</time>
      </trkpt>
      <trkpt lat="45.95375" lon="4.75155">
        <ele>182.5</ele>
        <time>2015-12-12T11:20:29.776Z</time>
      </trkpt>
      <trkpt lat="45.95372" lon="4.75149">
        <ele>183.100006104</ele>
        <time>2015-12-12T11:20:30.757Z</time>
      </trkpt>
      <trkpt lat="45.95369" lon="4.75144">
        <ele>183.199996948</ele>
        <time>2015-12-12T11:20:31.774Z</time>
      </trkpt>
      <trkpt lat="45.95365" lon="4.75138">
        <ele>183.300003052</ele>
        <time>2015-12-12T11:20:32.757Z</time>
      </trkpt>
      <trkpt lat="45.95361" lon="4.75132">
        <ele>183.300003052</ele>
        <time>2015-12-12T11:20:33.773Z</time>
      </trkpt>
      <trkpt lat="45.95358" lon="4.75127">
        <ele>183</ele>
        <time>2015-12-12T11:20:34.756Z</time>
      </trkpt>
      <trkpt lat="45.95354" lon="4.75121">
        <ele>183.300003052</ele>
        <time>2015-12-12T11:20:35.776Z</time>
      </trkpt>
      <trkpt lat="45.9535" lon="4.75115">
        <ele>182.699996948</ele>
        <time>2015-12-12T11:20:36.756Z</time>
      </trkpt>
      <trkpt lat="45.95347" lon="4.75109">
        <ele>183.199996948</ele>
        <time>2015-12-12T11:20:37.773Z</time>
      </trkpt>
      <trkpt lat="45.95343" lon="4.75103">
        <ele>183.199996948</ele>
        <time>2015-12-12T11:20:38.756Z</time>
      </trkpt>
      <trkpt lat="45.9534" lon="4.75097">
        <ele>183.199996948</ele>
        <time>2015-12-12T11:20:39.773Z</time>
      </trkpt>
      <trkpt lat="45.95336" lon="4.75091">
        <ele>183.300003052</ele>
        <time>2015-12-12T11:20:40.756Z</time>
      </trkpt>
      <trkpt lat="45.95332" lon="4.75086">
        <ele>183</ele>
        <time>2015-12-12T11:20:41.776Z</time>
      </trkpt>
      <trkpt lat="45.95329" lon="4.7508">
        <ele>183</ele>
        <time>2015-12-12T11:20:42.756Z</time>
      </trkpt>
      <trkpt lat="45.95325" lon="4.75074">
        <ele>182.899993896</ele>
        <time>2015-12-12T11:20:43.902Z</time>
      </trkpt>
      <trkpt lat="45.95321" lon="4.75069">
        <ele>182.699996948</ele>
        <time>2015-12-12T11:20:44.769Z</time>
      </trkpt>
      <trkpt lat="45.95317" lon="4.75063">
        <ele>182.699996948</ele>
        <time>2015-12-12T11:20:45.772Z</time>
      </trkpt>
      <trkpt lat="45.95314" lon="4.75056">
        <ele>182.699996948</ele>
        <time>2015-12-12T11:20:46.756Z</time>
      </trkpt>
      <trkpt lat="45.9531" lon="4.7505">
        <ele>182.699996948</ele>
        <time>2015-12-12T11:20:47.79Z</time>
      </trkpt>
      <trkpt lat="45.95306" lon="4.75044">
        <ele>182.5</ele>
        <time>2015-12-12T11:20:48.757Z</time>
      </trkpt>
      <trkpt lat="45.95302" lon="4.75038">
        <ele>182.699996948</ele>
        <time>2015-12-12T11:20:49.773Z</time>
      </trkpt>
      <trkpt lat="45.95299" lon="4.75031">
        <ele>182.899993896</ele>
        <time>2015-12-12T11:20:50.758Z</time>
      </trkpt>
      <trkpt lat="45.95295" lon="4.75026">
        <ele>183</ele>
        <time>2015-12-12T11:20:51.773Z</time>
      </trkpt>
      <trkpt lat="45.95292" lon="4.7502">
        <ele>183.100006104</ele>
        <time>2015-12-12T11:20:52.756Z</time>
      </trkpt>
      <trkpt lat="45.95288" lon="4.75015">
        <ele>183</ele>
        <time>2015-12-12T11:20:53.776Z</time>
      </trkpt>
      <trkpt lat="45.95285" lon="4.75009">
        <ele>183.199996948</ele>
        <time>2015-12-12T11:20:54.756Z</time>
      </trkpt>
      <trkpt lat="45.95281" lon="4.75003">
        <ele>183.899993896</ele>
        <time>2015-12-12T11:20:55.911Z</time>
      </trkpt>
      <trkpt lat="45.95277" lon="4.74998">
        <ele>184.300003052</ele>
        <time>2015-12-12T11:20:56.756Z</time>
      </trkpt>
      <trkpt lat="45.95273" lon="4.74992">
        <ele>185.300003052</ele>
        <time>2015-12-12T11:20:57.784Z</time>
      </trkpt>
      <trkpt lat="45.95269" lon="4.74986">
        <ele>185.600006104</ele>
        <time>2015-12-12T11:20:58.756Z</time>
      </trkpt>
      <trkpt lat="45.95266" lon="4.7498">
        <ele>185.600006104</ele>
        <time>2015-12-12T11:20:59.776Z</time>
      </trkpt>
      <trkpt lat="45.95262" lon="4.74975">
        <ele>185.600006104</ele>
        <time>2015-12-12T11:21:00.756Z</time>
      </trkpt>
      <trkpt lat="45.95257" lon="4.74969">
        <ele>185.600006104</ele>
        <time>2015-12-12T11:21:01.774Z</time>
      </trkpt>
      <trkpt lat="45.95254" lon="4.74963">
        <ele>185.699996948</ele>
        <time>2015-12-12T11:21:02.756Z</time>
      </trkpt>
      <trkpt lat="45.9525" lon="4.74957">
        <ele>185.800003052</ele>
        <time>2015-12-12T11:21:03.775Z</time>
      </trkpt>
      <trkpt lat="45.95246" lon="4.74951">
        <ele>185.800003052</ele>
        <time>2015-12-12T11:21:04.756Z</time>
      </trkpt>
      <trkpt lat="45.95242" lon="4.74945">
        <ele>186.199996948</ele>
        <time>2015-12-12T11:21:05.776Z</time>
      </trkpt>
      <trkpt lat="45.95238" lon="4.74939">
        <ele>186.100006104</ele>
        <time>2015-12-12T11:21:06.756Z</time>
      </trkpt>
      <trkpt lat="45.95234" lon="4.74932">
        <ele>186.100006104</ele>
        <time>2015-12-12T11:21:07.774Z</time>
      </trkpt>
      <trkpt lat="45.9523" lon="4.74926">
        <ele>186.199996948</ele>
        <time>2015-12-12T11:21:08.775Z</time>
      </trkpt>
      <trkpt lat="45.95227" lon="4.7492">
        <ele>185.899993896</ele>
        <time>2015-12-12T11:21:09.773Z</time>
      </trkpt>
      <trkpt lat="45.95223" lon="4.74914">
        <ele>186.5</ele>
        <time>2015-12-12T11:21:10.756Z</time>
      </trkpt>
      <trkpt lat="45.95218" lon="4.74908">
        <ele>186.399993896</ele>
        <time>2015-12-12T11:21:11.776Z</time>
      </trkpt>
      <trkpt lat="45.95215" lon="4.74902">
        <ele>186.300003052</ele>
        <time>2015-12-12T11:21:12.756Z</time>
      </trkpt>
      <trkpt lat="45.95211" lon="4.74896">
        <ele>186.100006104</ele>
        <time>2015-12-12T11:21:13.787Z</time>
      </trkpt>
      <trkpt lat="45.95207" lon="4.7489">
        <ele>186</ele>
        <time>2015-12-12T11:21:14.756Z</time>
      </trkpt>
      <trkpt lat="45.95203" lon="4.74884">
        <ele>185.699996948</ele>
        <time>2015-12-12T11:21:15.773Z</time>
      </trkpt>
      <trkpt lat="45.95199" lon="4.74877">
        <ele>185.5</ele>
        <time>2015-12-12T11:21:16.756Z</time>
      </trkpt>
      <trkpt lat="45.95194" lon="4.74872">
        <ele>185.399993896</ele>
        <time>2015-12-12T11:21:17.777Z</time>
      </trkpt>
      <trkpt lat="45.9519" lon="4.74867">
        <ele>185.600006104</ele>
        <time>2015-12-12T11:21:18.756Z</time>
      </trkpt>
      <trkpt lat="45.95186" lon="4.74861">
        <ele>185.399993896</ele>
        <time>2015-12-12T11:21:19.774Z</time>
      </trkpt>
      <trkpt lat="45.95183" lon="4.74855">
        <ele>185.399993896</ele>
        <time>2015-12-12T11:21:20.756Z</time>
      </trkpt>
      <trkpt lat="45.95179" lon="4.74848">
        <ele>185.199996948</ele>
        <time>2015-12-12T11:21:21.772Z</time>
      </trkpt>
      <trkpt lat="45.95175" lon="4.74842">
        <ele>185</ele>
        <time>2015-12-12T11:21:22.756Z</time>
      </trkpt>
      <trkpt lat="45.95171" lon="4.74835">
        <ele>185.100006104</ele>
        <time>2015-12-12T11:21:23.776Z</time>
      </trkpt>
      <trkpt lat="45.95167" lon="4.74829">
        <ele>184.899993896</ele>
        <time>2015-12-12T11:21:24.756Z</time>
      </trkpt>
      <trkpt lat="45.95163" lon="4.74822">
        <ele>185.100006104</ele>
        <time>2015-12-12T11:21:25.774Z</time>
      </trkpt>
      <trkpt lat="45.95159" lon="4.74816">
        <ele>185.100006104</ele>
        <time>2015-12-12T11:21:26.756Z</time>
      </trkpt>
      <trkpt lat="45.95155" lon="4.7481">
        <ele>185.199996948</ele>
        <time>2015-12-12T11:21:27.772Z</time>
      </trkpt>
      <trkpt lat="45.95151" lon="4.74803">
        <ele>185.399993896</ele>
        <time>2015-12-12T11:21:28.756Z</time>
      </trkpt>
      <trkpt lat="45.95146" lon="4.74796">
        <ele>185.300003052</ele>
        <time>2015-12-12T11:21:29.816Z</time>
      </trkpt>
      <trkpt lat="45.95142" lon="4.7479">
        <ele>185</ele>
        <time>2015-12-12T11:21:30.756Z</time>
      </trkpt>
      <trkpt lat="45.95138" lon="4.74783">
        <ele>185</ele>
        <time>2015-12-12T11:21:31.905Z</time>
      </trkpt>
      <trkpt lat="45.95134" lon="4.74776">
        <ele>185.100006104</ele>
        <time>2015-12-12T11:21:32.756Z</time>
      </trkpt>
      <trkpt lat="45.95129" lon="4.7477">
        <ele>184.699996948</ele>
        <time>2015-12-12T11:21:33.772Z</time>
      </trkpt>
      <trkpt lat="45.95125" lon="4.74763">
        <ele>185.199996948</ele>
        <time>2015-12-12T11:21:34.756Z</time>
      </trkpt>
      <trkpt lat="45.9512" lon="4.74756">
        <ele>185.199996948</ele>
        <time>2015-12-12T11:21:35.776Z</time>
      </trkpt>
      <trkpt lat="45.95116" lon="4.74749">
        <ele>185</ele>
        <time>2015-12-12T11:21:36.756Z</time>
      </trkpt>
      <trkpt lat="45.95112" lon="4.74743">
        <ele>184.699996948</ele>
        <time>2015-12-12T11:21:37.773Z</time>
      </trkpt>
      <trkpt lat="45.95109" lon="4.74735">
        <ele>184.600006104</ele>
        <time>2015-12-12T11:21:38.756Z</time>
      </trkpt>
      <trkpt lat="45.95106" lon="4.74728">
        <ele>184.399993896</ele>
        <time>2015-12-12T11:21:39.782Z</time>
      </trkpt>
      <trkpt lat="45.95102" lon="4.74721">
        <ele>184.300003052</ele>
        <time>2015-12-12T11:21:40.756Z</time>
      </trkpt>
      <trkpt lat="45.95099" lon="4.74714">
        <ele>184.199996948</ele>
        <time>2015-12-12T11:21:41.776Z</time>
      </trkpt>
      <trkpt lat="45.95095" lon="4.74708">
        <ele>183.800003052</ele>
        <time>2015-12-12T11:21:42.756Z</time>
      </trkpt>
      <trkpt lat="45.95091" lon="4.74703">
        <ele>183.899993896</ele>
        <time>2015-12-12T11:21:43.773Z</time>
      </trkpt>
      <trkpt lat="45.95087" lon="4.74697">
        <ele>183.699996948</ele>
        <time>2015-12-12T11:21:44.756Z</time>
      </trkpt>
      <trkpt lat="45.95083" lon="4.74692">
        <ele>183.199996948</ele>
        <time>2015-12-12T11:21:45.786Z</time>
      </trkpt>
      <trkpt lat="45.95079" lon="4.74686">
        <ele>183.199996948</ele>
        <time>2015-12-12T11:21:46.756Z</time>
      </trkpt>
      <trkpt lat="45.95075" lon="4.74679">
        <ele>183.199996948</ele>
        <time>2015-12-12T11:21:47.775Z</time>
      </trkpt>
      <trkpt lat="45.95072" lon="4.74671">
        <ele>183.100006104</ele>
        <time>2015-12-12T11:21:48.757Z</time>
      </trkpt>
      <trkpt lat="45.95068" lon="4.74664">
        <ele>183</ele>
        <time>2015-12-12T11:21:49.788Z</time>
      </trkpt>
      <trkpt lat="45.95065" lon="4.74657">
        <ele>182.699996948</ele>
        <time>2015-12-12T11:21:50.758Z</time>
      </trkpt>
      <trkpt lat="45.95061" lon="4.7465">
        <ele>182.800003052</ele>
        <time>2015-12-12T11:21:51.772Z</time>
      </trkpt>
      <trkpt lat="45.95057" lon="4.74643">
        <ele>182.699996948</ele>
        <time>2015-12-12T11:21:52.756Z</time>
      </trkpt>
      <trkpt lat="45.95054" lon="4.74637">
        <ele>182.600006104</ele>
        <time>2015-12-12T11:21:53.776Z</time>
      </trkpt>
      <trkpt lat="45.9505" lon="4.7463">
        <ele>182.5</ele>
        <time>2015-12-12T11:21:54.756Z</time>
      </trkpt>
      <trkpt lat="45.95046" lon="4.74624">
        <ele>182.300003052</ele>
        <time>2015-12-12T11:21:55.773Z</time>
      </trkpt>
      <trkpt lat="45.95042" lon="4.74617">
        <ele>182.5</ele>
        <time>2015-12-12T11:21:56.756Z</time>
      </trkpt>
      <trkpt lat="45.95038" lon="4.74609">
        <ele>182.300003052</ele>
        <time>2015-12-12T11:21:57.784Z</time>
      </trkpt>
      <trkpt lat="45.95034" lon="4.74602">
        <ele>181.899993896</ele>
        <time>2015-12-12T11:21:58.756Z</time>
      </trkpt>
      <trkpt lat="45.9503" lon="4.74595">
        <ele>181.800003052</ele>
        <time>2015-12-12T11:21:59.776Z</time>
      </trkpt>
      <trkpt lat="45.95026" lon="4.74588">
        <ele>181.800003052</ele>
        <time>2015-12-12T11:22:00.756Z</time>
      </trkpt>
      <trkpt lat="45.95023" lon="4.74581">
        <ele>181.5</ele>
        <time>2015-12-12T11:22:01.788Z</time>
      </trkpt>
      <trkpt lat="45.95019" lon="4.74574">
        <ele>181.399993896</ele>
        <time>2015-12-12T11:22:02.756Z</time>
      </trkpt>
      <trkpt lat="45.95015" lon="4.74567">
        <ele>181.399993896</ele>
        <time>2015-12-12T11:22:03.773Z</time>
      </trkpt>
      <trkpt lat="45.95011" lon="4.74559">
        <ele>181.600006104</ele>
        <time>2015-12-12T11:22:04.756Z</time>
      </trkpt>
      <trkpt lat="45.95007" lon="4.74552">
        <ele>181.199996948</ele>
        <time>2015-12-12T11:22:05.776Z</time>
      </trkpt>
      <trkpt lat="45.95003" lon="4.74545">
        <ele>181.199996948</ele>
        <time>2015-12-12T11:22:06.756Z</time>
      </trkpt>
      <trkpt lat="45.94999" lon="4.74538">
        <ele>181</ele>
        <time>2015-12-12T11:22:07.773Z</time>
      </trkpt>
      <trkpt lat="45.94996" lon="4.74531">
        <ele>181.100006104</ele>
        <time>2015-12-12T11:22:08.756Z</time>
      </trkpt>
      <trkpt lat="45.94993" lon="4.74524">
        <ele>181.100006104</ele>
        <time>2015-12-12T11:22:09.772Z</time>
      </trkpt>
      <trkpt lat="45.9499" lon="4.74517">
        <ele>181.199996948</ele>
        <time>2015-12-12T11:22:10.756Z</time>
      </trkpt>
      <trkpt lat="45.94986" lon="4.74511">
        <ele>181.5</ele>
        <time>2015-12-12T11:22:11.776Z</time>
      </trkpt>
      <trkpt lat="45.94983" lon="4.74504">
        <ele>181.100006104</ele>
        <time>2015-12-12T11:22:12.756Z</time>
      </trkpt>
      <trkpt lat="45.9498" lon="4.74497">
        <ele>181</ele>
        <time>2015-12-12T11:22:13.773Z</time>
      </trkpt>
      <trkpt lat="45.94977" lon="4.7449">
        <ele>181.399993896</ele>
        <time>2015-12-12T11:22:14.756Z</time>
      </trkpt>
      <trkpt lat="45.94973" lon="4.74483">
        <ele>181.399993896</ele>
        <time>2015-12-12T11:22:15.773Z</time>
      </trkpt>
      <trkpt lat="45.9497" lon="4.74476">
        <ele>181.600006104</ele>
        <time>2015-12-12T11:22:16.756Z</time>
      </trkpt>
      <trkpt lat="45.94966" lon="4.74469">
        <ele>181.899993896</ele>
        <time>2015-12-12T11:22:17.789Z</time>
      </trkpt>
      <trkpt lat="45.94962" lon="4.74461">
        <ele>182</ele>
        <time>2015-12-12T11:22:18.757Z</time>
      </trkpt>
      <trkpt lat="45.94958" lon="4.74452">
        <ele>182.100006104</ele>
        <time>2015-12-12T11:22:19.773Z</time>
      </trkpt>
      <trkpt lat="45.94954" lon="4.74444">
        <ele>182</ele>
        <time>2015-12-12T11:22:20.756Z</time>
      </trkpt>
      <trkpt lat="45.9495" lon="4.74437">
        <ele>181.699996948</ele>
        <time>2015-12-12T11:22:21.772Z</time>
      </trkpt>
      <trkpt lat="45.94947" lon="4.7443">
        <ele>181.5</ele>
        <time>2015-12-12T11:22:22.756Z</time>
      </trkpt>
      <trkpt lat="45.94943" lon="4.74423">
        <ele>181.199996948</ele>
        <time>2015-12-12T11:22:23.775Z</time>
      </trkpt>
      <trkpt lat="45.9494" lon="4.74415">
        <ele>181.399993896</ele>
        <time>2015-12-12T11:22:24.756Z</time>
      </trkpt>
      <trkpt lat="45.94936" lon="4.74408">
        <ele>181.300003052</ele>
        <time>2015-12-12T11:22:25.773Z</time>
      </trkpt>
      <trkpt lat="45.94932" lon="4.74402">
        <ele>180.899993896</ele>
        <time>2015-12-12T11:22:26.756Z</time>
      </trkpt>
      <trkpt lat="45.94928" lon="4.74395">
        <ele>180.899993896</ele>
        <time>2015-12-12T11:22:27.772Z</time>
      </trkpt>
      <trkpt lat="45.94925" lon="4.74388">
        <ele>180.399993896</ele>
        <time>2015-12-12T11:22:28.756Z</time>
      </trkpt>
      <trkpt lat="45.94921" lon="4.74381">
        <ele>180.199996948</ele>
        <time>2015-12-12T11:22:29.776Z</time>
      </trkpt>
      <trkpt lat="45.94917" lon="4.74374">
        <ele>180</ele>
        <time>2015-12-12T11:22:30.756Z</time>
      </trkpt>
      <trkpt lat="45.94913" lon="4.74367">
        <ele>179.600006104</ele>
        <time>2015-12-12T11:22:31.773Z</time>
      </trkpt>
      <trkpt lat="45.94909" lon="4.74359">
        <ele>179</ele>
        <time>2015-12-12T11:22:32.756Z</time>
      </trkpt>
      <trkpt lat="45.94905" lon="4.74351">
        <ele>178.800003052</ele>
        <time>2015-12-12T11:22:33.772Z</time>
      </trkpt>
      <trkpt lat="45.94901" lon="4.74344">
        <ele>178.800003052</ele>
        <time>2015-12-12T11:22:34.756Z</time>
      </trkpt>
      <trkpt lat="45.94897" lon="4.74336">
        <ele>179.399993896</ele>
        <time>2015-12-12T11:22:35.775Z</time>
      </trkpt>
      <trkpt lat="45.94893" lon="4.74329">
        <ele>180</ele>
        <time>2015-12-12T11:22:36.756Z</time>
      </trkpt>
      <trkpt lat="45.94889" lon="4.74321">
        <ele>179.800003052</ele>
        <time>2015-12-12T11:22:37.773Z</time>
      </trkpt>
      <trkpt lat="45.94885" lon="4.74314">
        <ele>180</ele>
        <time>2015-12-12T11:22:38.756Z</time>
      </trkpt>
      <trkpt lat="45.9488" lon="4.74306">
        <ele>180</ele>
        <time>2015-12-12T11:22:39.773Z</time>
      </trkpt>
      <trkpt lat="45.94876" lon="4.74299">
        <ele>180.100006104</ele>
        <time>2015-12-12T11:22:40.756Z</time>
      </trkpt>
      <trkpt lat="45.94872" lon="4.74292">
        <ele>180</ele>
        <time>2015-12-12T11:22:41.776Z</time>
      </trkpt>
      <trkpt lat="45.94868" lon="4.74285">
        <ele>179.800003052</ele>
        <time>2015-12-12T11:22:42.756Z</time>
      </trkpt>
      <trkpt lat="45.94865" lon="4.74278">
        <ele>180</ele>
        <time>2015-12-12T11:22:43.788Z</time>
      </trkpt>
      <trkpt lat="45.94861" lon="4.74271">
        <ele>180.399993896</ele>
        <time>2015-12-12T11:22:44.756Z</time>
      </trkpt>
      <trkpt lat="45.94857" lon="4.74263">
        <ele>180.699996948</ele>
        <time>2015-12-12T11:22:45.772Z</time>
      </trkpt>
      <trkpt lat="45.94854" lon="4.74256">
        <ele>180.800003052</ele>
        <time>2015-12-12T11:22:46.755Z</time>
      </trkpt>
      <trkpt lat="45.9485" lon="4.74249">
        <ele>181.399993896</ele>
        <time>2015-12-12T11:22:47.776Z</time>
      </trkpt>
      <trkpt lat="45.94847" lon="4.74242">
        <ele>181.399993896</ele>
        <time>2015-12-12T11:22:48.762Z</time>
      </trkpt>
      <trkpt lat="45.94844" lon="4.74235">
        <ele>181.5</ele>
        <time>2015-12-12T11:22:49.773Z</time>
      </trkpt>
      <trkpt lat="45.9484" lon="4.74228">
        <ele>181.300003052</ele>
        <time>2015-12-12T11:22:50.758Z</time>
      </trkpt>
      <trkpt lat="45.94836" lon="4.74222">
        <ele>181.800003052</ele>
        <time>2015-12-12T11:22:51.773Z</time>
      </trkpt>
      <trkpt lat="45.94833" lon="4.74216">
        <ele>182</ele>
        <time>2015-12-12T11:22:52.755Z</time>
      </trkpt>
      <trkpt lat="45.9483" lon="4.7421">
        <ele>182.100006104</ele>
        <time>2015-12-12T11:22:53.776Z</time>
      </trkpt>
      <trkpt lat="45.94827" lon="4.74206">
        <ele>182.399993896</ele>
        <time>2015-12-12T11:22:54.756Z</time>
      </trkpt>
      <trkpt lat="45.9482" lon="4.74196">
        <ele>183.800003052</ele>
        <time>2015-12-12T11:22:56.902Z</time>
      </trkpt>
      <trkpt lat="45.94818" lon="4.74192">
        <ele>183.800003052</ele>
        <time>2015-12-12T11:22:57.756Z</time>
      </trkpt>
      <trkpt lat="45.94812" lon="4.74183">
        <ele>184.800003052</ele>
        <time>2015-12-12T11:23:01.773Z</time>
      </trkpt>
      <trkpt lat="45.94811" lon="4.74182">
        <ele>184.800003052</ele>
        <time>2015-12-12T11:23:02.756Z</time>
      </trkpt>
      <trkpt lat="45.94811" lon="4.74182">
        <ele>184.800003052</ele>
        <time>2015-12-12T11:23:02.773Z</time>
      </trkpt>
      <trkpt lat="45.94809" lon="4.74179">
        <ele>183.800003052</ele>
        <time>2015-12-12T11:23:09.785Z</time>
      </trkpt>
      <trkpt lat="45.94808" lon="4.74177">
        <ele>183.899993896</ele>
        <time>2015-12-12T11:23:10.756Z</time>
      </trkpt>
      <trkpt lat="45.94803" lon="4.7417">
        <ele>183.800003052</ele>
        <time>2015-12-12T11:23:12.772Z</time>
      </trkpt>
      <trkpt lat="45.948" lon="4.74165">
        <ele>183.800003052</ele>
        <time>2015-12-12T11:23:13.757Z</time>
      </trkpt>
      <trkpt lat="45.94797" lon="4.74161">
        <ele>183.800003052</ele>
        <time>2015-12-12T11:23:14.772Z</time>
      </trkpt>
      <trkpt lat="45.94793" lon="4.74155">
        <ele>183.600006104</ele>
        <time>2015-12-12T11:23:15.752Z</time>
      </trkpt>
      <trkpt lat="45.9479" lon="4.7415">
        <ele>183.600006104</ele>
        <time>2015-12-12T11:23:16.772Z</time>
      </trkpt>
      <trkpt lat="45.94787" lon="4.74144">
        <ele>183.800003052</ele>
        <time>2015-12-12T11:23:17.759Z</time>
      </trkpt>
      <trkpt lat="45.94783" lon="4.74138">
        <ele>183.899993896</ele>
        <time>2015-12-12T11:23:18.781Z</time>
      </trkpt>
      <trkpt lat="45.94779" lon="4.74132">
        <ele>183.800003052</ele>
        <time>2015-12-12T11:23:19.757Z</time>
      </trkpt>
      <trkpt lat="45.94775" lon="4.74126">
        <ele>183.699996948</ele>
        <time>2015-12-12T11:23:20.772Z</time>
      </trkpt>
      <trkpt lat="45.9477" lon="4.7412">
        <ele>183.699996948</ele>
        <time>2015-12-12T11:23:21.756Z</time>
      </trkpt>
      <trkpt lat="45.94766" lon="4.74113">
        <ele>183.600006104</ele>
        <time>2015-12-12T11:23:22.772Z</time>
      </trkpt>
      <trkpt lat="45.94762" lon="4.74107">
        <ele>183.699996948</ele>
        <time>2015-12-12T11:23:23.759Z</time>
      </trkpt>
      <trkpt lat="45.94757" lon="4.741">
        <ele>183.600006104</ele>
        <time>2015-12-12T11:23:24.772Z</time>
      </trkpt>
      <trkpt lat="45.94751" lon="4.74094">
        <ele>183.399993896</ele>
        <time>2015-12-12T11:23:25.756Z</time>
      </trkpt>
      <trkpt lat="45.94746" lon="4.74087">
        <ele>182.899993896</ele>
        <time>2015-12-12T11:23:26.786Z</time>
      </trkpt>
      <trkpt lat="45.94741" lon="4.74081">
        <ele>182.800003052</ele>
        <time>2015-12-12T11:23:27.756Z</time>
      </trkpt>
      <trkpt lat="45.94737" lon="4.74074">
        <ele>182.5</ele>
        <time>2015-12-12T11:23:28.783Z</time>
      </trkpt>
      <trkpt lat="45.94732" lon="4.74068">
        <ele>181.899993896</ele>
        <time>2015-12-12T11:23:29.759Z</time>
      </trkpt>
      <trkpt lat="45.94727" lon="4.74061">
        <ele>182</ele>
        <time>2015-12-12T11:23:30.772Z</time>
      </trkpt>
      <trkpt lat="45.94723" lon="4.74055">
        <ele>182</ele>
        <time>2015-12-12T11:23:31.756Z</time>
      </trkpt>
      <trkpt lat="45.94719" lon="4.7405">
        <ele>181.600006104</ele>
        <time>2015-12-12T11:23:32.774Z</time>
      </trkpt>
      <trkpt lat="45.94716" lon="4.74044">
        <ele>181.199996948</ele>
        <time>2015-12-12T11:23:33.756Z</time>
      </trkpt>
      <trkpt lat="45.94713" lon="4.74037">
        <ele>180.800003052</ele>
        <time>2015-12-12T11:23:34.903Z</time>
      </trkpt>
      <trkpt lat="45.9471" lon="4.74031">
        <ele>180.800003052</ele>
        <time>2015-12-12T11:23:35.759Z</time>
      </trkpt>
      <trkpt lat="45.94706" lon="4.74024">
        <ele>180.600006104</ele>
        <time>2015-12-12T11:23:36.772Z</time>
      </trkpt>
      <trkpt lat="45.94703" lon="4.74018">
        <ele>180.600006104</ele>
        <time>2015-12-12T11:23:37.756Z</time>
      </trkpt>
      <trkpt lat="45.94699" lon="4.74013">
        <ele>180.300003052</ele>
        <time>2015-12-12T11:23:38.783Z</time>
      </trkpt>
      <trkpt lat="45.94694" lon="4.74007">
        <ele>180.399993896</ele>
        <time>2015-12-12T11:23:39.756Z</time>
      </trkpt>
      <trkpt lat="45.9469" lon="4.74001">
        <ele>180.5</ele>
        <time>2015-12-12T11:23:40.772Z</time>
      </trkpt>
      <trkpt lat="45.94686" lon="4.73995">
        <ele>180.199996948</ele>
        <time>2015-12-12T11:23:41.759Z</time>
      </trkpt>
      <trkpt lat="45.94682" lon="4.73989">
        <ele>179.600006104</ele>
        <time>2015-12-12T11:23:42.774Z</time>
      </trkpt>
      <trkpt lat="45.94677" lon="4.73983">
        <ele>179.5</ele>
        <time>2015-12-12T11:23:43.757Z</time>
      </trkpt>
      <trkpt lat="45.94673" lon="4.73976">
        <ele>179.300003052</ele>
        <time>2015-12-12T11:23:44.773Z</time>
      </trkpt>
      <trkpt lat="45.94668" lon="4.7397">
        <ele>179.300003052</ele>
        <time>2015-12-12T11:23:45.755Z</time>
      </trkpt>
      <trkpt lat="45.94663" lon="4.73963">
        <ele>179.199996948</ele>
        <time>2015-12-12T11:23:46.771Z</time>
      </trkpt>
      <trkpt lat="45.94658" lon="4.73956">
        <ele>179</ele>
        <time>2015-12-12T11:23:47.773Z</time>
      </trkpt>
      <trkpt lat="45.94653" lon="4.7395">
        <ele>179.399993896</ele>
        <time>2015-12-12T11:23:48.838Z</time>
      </trkpt>
      <trkpt lat="45.94648" lon="4.73943">
        <ele>179.199996948</ele>
        <time>2015-12-12T11:23:49.756Z</time>
      </trkpt>
      <trkpt lat="45.94643" lon="4.73936">
        <ele>179.399993896</ele>
        <time>2015-12-12T11:23:50.829Z</time>
      </trkpt>
      <trkpt lat="45.94638" lon="4.73929">
        <ele>179.600006104</ele>
        <time>2015-12-12T11:23:51.755Z</time>
      </trkpt>
      <trkpt lat="45.94632" lon="4.73922">
        <ele>179.199996948</ele>
        <time>2015-12-12T11:23:52.786Z</time>
      </trkpt>
      <trkpt lat="45.94627" lon="4.73916">
        <ele>178.5</ele>
        <time>2015-12-12T11:23:53.759Z</time>
      </trkpt>
      <trkpt lat="45.94622" lon="4.73909">
        <ele>178.399993896</ele>
        <time>2015-12-12T11:23:54.772Z</time>
      </trkpt>
      <trkpt lat="45.94616" lon="4.73903">
        <ele>178.399993896</ele>
        <time>2015-12-12T11:23:55.756Z</time>
      </trkpt>
      <trkpt lat="45.94611" lon="4.73897">
        <ele>178.699996948</ele>
        <time>2015-12-12T11:23:56.772Z</time>
      </trkpt>
      <trkpt lat="45.94607" lon="4.73891">
        <ele>178.5</ele>
        <time>2015-12-12T11:23:57.755Z</time>
      </trkpt>
      <trkpt lat="45.94602" lon="4.73886">
        <ele>178.100006104</ele>
        <time>2015-12-12T11:23:58.919Z</time>
      </trkpt>
      <trkpt lat="45.94597" lon="4.7388">
        <ele>178</ele>
        <time>2015-12-12T11:23:59.759Z</time>
      </trkpt>
      <trkpt lat="45.94592" lon="4.73874">
        <ele>177.899993896</ele>
        <time>2015-12-12T11:24:00.774Z</time>
      </trkpt>
      <trkpt lat="45.94586" lon="4.73868">
        <ele>177.699996948</ele>
        <time>2015-12-12T11:24:01.757Z</time>
      </trkpt>
      <trkpt lat="45.94581" lon="4.73862">
        <ele>177.5</ele>
        <time>2015-12-12T11:24:02.772Z</time>
      </trkpt>
      <trkpt lat="45.94575" lon="4.73856">
        <ele>178</ele>
        <time>2015-12-12T11:24:03.752Z</time>
      </trkpt>
      <trkpt lat="45.9457" lon="4.7385">
        <ele>178.300003052</ele>
        <time>2015-12-12T11:24:04.773Z</time>
      </trkpt>
      <trkpt lat="45.94565" lon="4.73844">
        <ele>178.100006104</ele>
        <time>2015-12-12T11:24:05.759Z</time>
      </trkpt>
      <trkpt lat="45.94559" lon="4.73839">
        <ele>179.199996948</ele>
        <time>2015-12-12T11:24:06.773Z</time>
      </trkpt>
      <trkpt lat="45.94554" lon="4.73834">
        <ele>179.199996948</ele>
        <time>2015-12-12T11:24:07.757Z</time>
      </trkpt>
      <trkpt lat="45.94548" lon="4.73829">
        <ele>179.300003052</ele>
        <time>2015-12-12T11:24:08.848Z</time>
      </trkpt>
      <trkpt lat="45.94543" lon="4.73824">
        <ele>179</ele>
        <time>2015-12-12T11:24:09.756Z</time>
      </trkpt>
      <trkpt lat="45.94538" lon="4.73819">
        <ele>179.100006104</ele>
        <time>2015-12-12T11:24:10.772Z</time>
      </trkpt>
      <trkpt lat="45.94533" lon="4.73814">
        <ele>178.899993896</ele>
        <time>2015-12-12T11:24:11.759Z</time>
      </trkpt>
      <trkpt lat="45.94528" lon="4.73809">
        <ele>178.899993896</ele>
        <time>2015-12-12T11:24:12.772Z</time>
      </trkpt>
      <trkpt lat="45.94523" lon="4.73804">
        <ele>178.899993896</ele>
        <time>2015-12-12T11:24:13.756Z</time>
      </trkpt>
      <trkpt lat="45.94518" lon="4.738">
        <ele>178.5</ele>
        <time>2015-12-12T11:24:14.785Z</time>
      </trkpt>
      <trkpt lat="45.94513" lon="4.73795">
        <ele>178.300003052</ele>
        <time>2015-12-12T11:24:15.755Z</time>
      </trkpt>
      <trkpt lat="45.94509" lon="4.73789">
        <ele>178.600006104</ele>
        <time>2015-12-12T11:24:16.772Z</time>
      </trkpt>
      <trkpt lat="45.94504" lon="4.73784">
        <ele>178.399993896</ele>
        <time>2015-12-12T11:24:17.759Z</time>
      </trkpt>
      <trkpt lat="45.94499" lon="4.73779">
        <ele>178.5</ele>
        <time>2015-12-12T11:24:18.781Z</time>
      </trkpt>
      <trkpt lat="45.94496" lon="4.73774">
        <ele>178.699996948</ele>
        <time>2015-12-12T11:24:19.757Z</time>
      </trkpt>
      <trkpt lat="45.9449" lon="4.73765">
        <ele>179</ele>
        <time>2015-12-12T11:24:22.772Z</time>
      </trkpt>
      <trkpt lat="45.94489" lon="4.73762">
        <ele>178.800003052</ele>
        <time>2015-12-12T11:24:23.759Z</time>
      </trkpt>
      <trkpt lat="45.94486" lon="4.73754">
        <ele>177.899993896</ele>
        <time>2015-12-12T11:24:25.773Z</time>
      </trkpt>
      <trkpt lat="45.94485" lon="4.73748">
        <ele>177.699996948</ele>
        <time>2015-12-12T11:24:26.755Z</time>
      </trkpt>
      <trkpt lat="45.94485" lon="4.73742">
        <ele>177.600006104</ele>
        <time>2015-12-12T11:24:27.786Z</time>
      </trkpt>
      <trkpt lat="45.94486" lon="4.73734">
        <ele>178</ele>
        <time>2015-12-12T11:24:28.755Z</time>
      </trkpt>
      <trkpt lat="45.94487" lon="4.73726">
        <ele>177.600006104</ele>
        <time>2015-12-12T11:24:29.775Z</time>
      </trkpt>
      <trkpt lat="45.94488" lon="4.73718">
        <ele>177.300003052</ele>
        <time>2015-12-12T11:24:30.755Z</time>
      </trkpt>
      <trkpt lat="45.94488" lon="4.7371">
        <ele>177.199996948</ele>
        <time>2015-12-12T11:24:31.773Z</time>
      </trkpt>
      <trkpt lat="45.94489" lon="4.73703">
        <ele>177.199996948</ele>
        <time>2015-12-12T11:24:32.756Z</time>
      </trkpt>
      <trkpt lat="45.9449" lon="4.73695">
        <ele>177.199996948</ele>
        <time>2015-12-12T11:24:33.772Z</time>
      </trkpt>
      <trkpt lat="45.94491" lon="4.73687">
        <ele>177.199996948</ele>
        <time>2015-12-12T11:24:34.756Z</time>
      </trkpt>
      <trkpt lat="45.94492" lon="4.73679">
        <ele>176.800003052</ele>
        <time>2015-12-12T11:24:35.775Z</time>
      </trkpt>
      <trkpt lat="45.94493" lon="4.73672">
        <ele>176.300003052</ele>
        <time>2015-12-12T11:24:36.752Z</time>
      </trkpt>
      <trkpt lat="45.94494" lon="4.73664">
        <ele>176.600006104</ele>
        <time>2015-12-12T11:24:37.773Z</time>
      </trkpt>
      <trkpt lat="45.94495" lon="4.73656">
        <ele>176.5</ele>
        <time>2015-12-12T11:24:38.755Z</time>
      </trkpt>
      <trkpt lat="45.94495" lon="4.73649">
        <ele>176.100006104</ele>
        <time>2015-12-12T11:24:39.772Z</time>
      </trkpt>
      <trkpt lat="45.94496" lon="4.73641">
        <ele>176.100006104</ele>
        <time>2015-12-12T11:24:40.756Z</time>
      </trkpt>
      <trkpt lat="45.94498" lon="4.73633">
        <ele>176</ele>
        <time>2015-12-12T11:24:41.775Z</time>
      </trkpt>
      <trkpt lat="45.94499" lon="4.73625">
        <ele>176.699996948</ele>
        <time>2015-12-12T11:24:42.756Z</time>
      </trkpt>
      <trkpt lat="45.945" lon="4.73616">
        <ele>176.600006104</ele>
        <time>2015-12-12T11:24:43.773Z</time>
      </trkpt>
      <trkpt lat="45.94501" lon="4.73607">
        <ele>176.600006104</ele>
        <time>2015-12-12T11:24:44.882Z</time>
      </trkpt>
      <trkpt lat="45.94502" lon="4.73598">
        <ele>175.899993896</ele>
        <time>2015-12-12T11:24:45.785Z</time>
      </trkpt>
      <trkpt lat="45.94502" lon="4.73589">
        <ele>175.600006104</ele>
        <time>2015-12-12T11:24:46.756Z</time>
      </trkpt>
      <trkpt lat="45.94503" lon="4.7358">
        <ele>175.699996948</ele>
        <time>2015-12-12T11:24:47.775Z</time>
      </trkpt>
      <trkpt lat="45.94503" lon="4.7357">
        <ele>175.5</ele>
        <time>2015-12-12T11:24:48.755Z</time>
      </trkpt>
      <trkpt lat="45.94503" lon="4.73561">
        <ele>175.100006104</ele>
        <time>2015-12-12T11:24:49.773Z</time>
      </trkpt>
      <trkpt lat="45.94503" lon="4.73551">
        <ele>174.800003052</ele>
        <time>2015-12-12T11:24:50.758Z</time>
      </trkpt>
      <trkpt lat="45.94503" lon="4.73541">
        <ele>174.399993896</ele>
        <time>2015-12-12T11:24:51.772Z</time>
      </trkpt>
      <trkpt lat="45.94504" lon="4.73531">
        <ele>174</ele>
        <time>2015-12-12T11:24:52.755Z</time>
      </trkpt>
      <trkpt lat="45.94504" lon="4.73521">
        <ele>173.699996948</ele>
        <time>2015-12-12T11:24:53.776Z</time>
      </trkpt>
      <trkpt lat="45.94503" lon="4.73511">
        <ele>173.399993896</ele>
        <time>2015-12-12T11:24:54.755Z</time>
      </trkpt>
      <trkpt lat="45.94504" lon="4.73501">
        <ele>173.100006104</ele>
        <time>2015-12-12T11:24:55.773Z</time>
      </trkpt>
      <trkpt lat="45.94504" lon="4.73491">
        <ele>173</ele>
        <time>2015-12-12T11:24:56.756Z</time>
      </trkpt>
      <trkpt lat="45.94504" lon="4.73481">
        <ele>172.800003052</ele>
        <time>2015-12-12T11:24:57.771Z</time>
      </trkpt>
      <trkpt lat="45.94504" lon="4.73471">
        <ele>172.600006104</ele>
        <time>2015-12-12T11:24:58.756Z</time>
      </trkpt>
      <trkpt lat="45.94504" lon="4.7346">
        <ele>172.300003052</ele>
        <time>2015-12-12T11:24:59.786Z</time>
      </trkpt>
      <trkpt lat="45.94503" lon="4.7345">
        <ele>172.399993896</ele>
        <time>2015-12-12T11:25:00.756Z</time>
      </trkpt>
      <trkpt lat="45.94502" lon="4.73439">
        <ele>171.699996948</ele>
        <time>2015-12-12T11:25:01.786Z</time>
      </trkpt>
      <trkpt lat="45.94502" lon="4.73428">
        <ele>170.600006104</ele>
        <time>2015-12-12T11:25:02.752Z</time>
      </trkpt>
      <trkpt lat="45.94502" lon="4.73417">
        <ele>170.199996948</ele>
        <time>2015-12-12T11:25:03.773Z</time>
      </trkpt>
      <trkpt lat="45.94501" lon="4.73406">
        <ele>169.600006104</ele>
        <time>2015-12-12T11:25:04.755Z</time>
      </trkpt>
      <trkpt lat="45.945" lon="4.73395">
        <ele>169.199996948</ele>
        <time>2015-12-12T11:25:05.775Z</time>
      </trkpt>
      <trkpt lat="45.94499" lon="4.73384">
        <ele>168.899993896</ele>
        <time>2015-12-12T11:25:06.755Z</time>
      </trkpt>
      <trkpt lat="45.94498" lon="4.73374">
        <ele>168.699996948</ele>
        <time>2015-12-12T11:25:07.773Z</time>
      </trkpt>
      <trkpt lat="45.94497" lon="4.73363">
        <ele>169.5</ele>
        <time>2015-12-12T11:25:08.756Z</time>
      </trkpt>
      <trkpt lat="45.94496" lon="4.73352">
        <ele>169.800003052</ele>
        <time>2015-12-12T11:25:09.784Z</time>
      </trkpt>
      <trkpt lat="45.94495" lon="4.7334">
        <ele>169.300003052</ele>
        <time>2015-12-12T11:25:10.755Z</time>
      </trkpt>
      <trkpt lat="45.94494" lon="4.73329">
        <ele>169</ele>
        <time>2015-12-12T11:25:11.811Z</time>
      </trkpt>
      <trkpt lat="45.94493" lon="4.73317">
        <ele>168.899993896</ele>
        <time>2015-12-12T11:25:12.755Z</time>
      </trkpt>
      <trkpt lat="45.94492" lon="4.73306">
        <ele>168.600006104</ele>
        <time>2015-12-12T11:25:13.773Z</time>
      </trkpt>
      <trkpt lat="45.9449" lon="4.73294">
        <ele>168.300003052</ele>
        <time>2015-12-12T11:25:14.755Z</time>
      </trkpt>
      <trkpt lat="45.94488" lon="4.73283">
        <ele>168.199996948</ele>
        <time>2015-12-12T11:25:15.779Z</time>
      </trkpt>
      <trkpt lat="45.94487" lon="4.73271">
        <ele>167.800003052</ele>
        <time>2015-12-12T11:25:16.756Z</time>
      </trkpt>
      <trkpt lat="45.94485" lon="4.7326">
        <ele>167.600006104</ele>
        <time>2015-12-12T11:25:17.775Z</time>
      </trkpt>
      <trkpt lat="45.94484" lon="4.73248">
        <ele>167.399993896</ele>
        <time>2015-12-12T11:25:18.756Z</time>
      </trkpt>
      <trkpt lat="45.94482" lon="4.73237">
        <ele>167.300003052</ele>
        <time>2015-12-12T11:25:19.773Z</time>
      </trkpt>
      <trkpt lat="45.94481" lon="4.73226">
        <ele>167.300003052</ele>
        <time>2015-12-12T11:25:20.756Z</time>
      </trkpt>
      <trkpt lat="45.9448" lon="4.73214">
        <ele>167.300003052</ele>
        <time>2015-12-12T11:25:21.782Z</time>
      </trkpt>
      <trkpt lat="45.94478" lon="4.73203">
        <ele>166.899993896</ele>
        <time>2015-12-12T11:25:22.757Z</time>
      </trkpt>
      <trkpt lat="45.94477" lon="4.73191">
        <ele>166.699996948</ele>
        <time>2015-12-12T11:25:23.777Z</time>
      </trkpt>
      <trkpt lat="45.94475" lon="4.7318">
        <ele>167.300003052</ele>
        <time>2015-12-12T11:25:24.757Z</time>
      </trkpt>
      <trkpt lat="45.94474" lon="4.73169">
        <ele>166.899993896</ele>
        <time>2015-12-12T11:25:25.775Z</time>
      </trkpt>
      <trkpt lat="45.94472" lon="4.73157">
        <ele>166.399993896</ele>
        <time>2015-12-12T11:25:26.755Z</time>
      </trkpt>
      <trkpt lat="45.9447" lon="4.73145">
        <ele>165.800003052</ele>
        <time>2015-12-12T11:25:27.786Z</time>
      </trkpt>
      <trkpt lat="45.94468" lon="4.73133">
        <ele>165.5</ele>
        <time>2015-12-12T11:25:28.755Z</time>
      </trkpt>
      <trkpt lat="45.94466" lon="4.73123">
        <ele>165.800003052</ele>
        <time>2015-12-12T11:25:29.775Z</time>
      </trkpt>
      <trkpt lat="45.94465" lon="4.73112">
        <ele>165.600006104</ele>
        <time>2015-12-12T11:25:30.755Z</time>
      </trkpt>
      <trkpt lat="45.94463" lon="4.73101">
        <ele>165.699996948</ele>
        <time>2015-12-12T11:25:31.773Z</time>
      </trkpt>
      <trkpt lat="45.94461" lon="4.7309">
        <ele>166.5</ele>
        <time>2015-12-12T11:25:32.755Z</time>
      </trkpt>
      <trkpt lat="45.9446" lon="4.73079">
        <ele>166.5</ele>
        <time>2015-12-12T11:25:33.771Z</time>
      </trkpt>
      <trkpt lat="45.94458" lon="4.73068">
        <ele>166.199996948</ele>
        <time>2015-12-12T11:25:34.755Z</time>
      </trkpt>
      <trkpt lat="45.94457" lon="4.73058">
        <ele>167.199996948</ele>
        <time>2015-12-12T11:25:35.775Z</time>
      </trkpt>
      <trkpt lat="45.94455" lon="4.73048">
        <ele>167.300003052</ele>
        <time>2015-12-12T11:25:36.755Z</time>
      </trkpt>
      <trkpt lat="45.94453" lon="4.73038">
        <ele>167</ele>
        <time>2015-12-12T11:25:37.773Z</time>
      </trkpt>
      <trkpt lat="45.94452" lon="4.73028">
        <ele>167</ele>
        <time>2015-12-12T11:25:38.755Z</time>
      </trkpt>
      <trkpt lat="45.94451" lon="4.73019">
        <ele>167</ele>
        <time>2015-12-12T11:25:39.772Z</time>
      </trkpt>
      <trkpt lat="45.9445" lon="4.7301">
        <ele>167.199996948</ele>
        <time>2015-12-12T11:25:40.755Z</time>
      </trkpt>
      <trkpt lat="45.94448" lon="4.73001">
        <ele>167.399993896</ele>
        <time>2015-12-12T11:25:41.775Z</time>
      </trkpt>
      <trkpt lat="45.94448" lon="4.72992">
        <ele>167.800003052</ele>
        <time>2015-12-12T11:25:42.755Z</time>
      </trkpt>
      <trkpt lat="45.94446" lon="4.72984">
        <ele>168.399993896</ele>
        <time>2015-12-12T11:25:43.788Z</time>
      </trkpt>
      <trkpt lat="45.94445" lon="4.72976">
        <ele>168.399993896</ele>
        <time>2015-12-12T11:25:44.755Z</time>
      </trkpt>
      <trkpt lat="45.94445" lon="4.72968">
        <ele>168.600006104</ele>
        <time>2015-12-12T11:25:45.771Z</time>
      </trkpt>
      <trkpt lat="45.94444" lon="4.7296">
        <ele>168.800003052</ele>
        <time>2015-12-12T11:25:46.756Z</time>
      </trkpt>
      <trkpt lat="45.94443" lon="4.72953">
        <ele>168.899993896</ele>
        <time>2015-12-12T11:25:47.791Z</time>
      </trkpt>
      <trkpt lat="45.94442" lon="4.72945">
        <ele>168.800003052</ele>
        <time>2015-12-12T11:25:48.755Z</time>
      </trkpt>
      <trkpt lat="45.94441" lon="4.72938">
        <ele>168.800003052</ele>
        <time>2015-12-12T11:25:49.773Z</time>
      </trkpt>
      <trkpt lat="45.94441" lon="4.72931">
        <ele>169.199996948</ele>
        <time>2015-12-12T11:25:50.758Z</time>
      </trkpt>
      <trkpt lat="45.9444" lon="4.72924">
        <ele>169.199996948</ele>
        <time>2015-12-12T11:25:51.811Z</time>
      </trkpt>
      <trkpt lat="45.94439" lon="4.72917">
        <ele>169.300003052</ele>
        <time>2015-12-12T11:25:52.755Z</time>
      </trkpt>
      <trkpt lat="45.94438" lon="4.7291">
        <ele>169.5</ele>
        <time>2015-12-12T11:25:53.776Z</time>
      </trkpt>
      <trkpt lat="45.94437" lon="4.72903">
        <ele>169.5</ele>
        <time>2015-12-12T11:25:54.755Z</time>
      </trkpt>
      <trkpt lat="45.94436" lon="4.72895">
        <ele>169.5</ele>
        <time>2015-12-12T11:25:55.773Z</time>
      </trkpt>
      <trkpt lat="45.94435" lon="4.72888">
        <ele>169.699996948</ele>
        <time>2015-12-12T11:25:56.755Z</time>
      </trkpt>
      <trkpt lat="45.94434" lon="4.7288">
        <ele>169.699996948</ele>
        <time>2015-12-12T11:25:57.777Z</time>
      </trkpt>
      <trkpt lat="45.94432" lon="4.72872">
        <ele>169.899993896</ele>
        <time>2015-12-12T11:25:58.755Z</time>
      </trkpt>
      <trkpt lat="45.94431" lon="4.72863">
        <ele>169.699996948</ele>
        <time>2015-12-12T11:25:59.789Z</time>
      </trkpt>
      <trkpt lat="45.9443" lon="4.72854">
        <ele>169.300003052</ele>
        <time>2015-12-12T11:26:00.755Z</time>
      </trkpt>
      <trkpt lat="45.94428" lon="4.72845">
        <ele>168.699996948</ele>
        <time>2015-12-12T11:26:01.773Z</time>
      </trkpt>
      <trkpt lat="45.94427" lon="4.72836">
        <ele>168.199996948</ele>
        <time>2015-12-12T11:26:02.755Z</time>
      </trkpt>
      <trkpt lat="45.94426" lon="4.72826">
        <ele>168</ele>
        <time>2015-12-12T11:26:03.772Z</time>
      </trkpt>
      <trkpt lat="45.94425" lon="4.72817">
        <ele>167.899993896</ele>
        <time>2015-12-12T11:26:04.755Z</time>
      </trkpt>
      <trkpt lat="45.94423" lon="4.72807">
        <ele>167.5</ele>
        <time>2015-12-12T11:26:05.775Z</time>
      </trkpt>
      <trkpt lat="45.94422" lon="4.72797">
        <ele>167.300003052</ele>
        <time>2015-12-12T11:26:06.755Z</time>
      </trkpt>
      <trkpt lat="45.9442" lon="4.72787">
        <ele>167</ele>
        <time>2015-12-12T11:26:07.773Z</time>
      </trkpt>
      <trkpt lat="45.94419" lon="4.72776">
        <ele>166.600006104</ele>
        <time>2015-12-12T11:26:08.756Z</time>
      </trkpt>
      <trkpt lat="45.94417" lon="4.72766">
        <ele>166.100006104</ele>
        <time>2015-12-12T11:26:09.783Z</time>
      </trkpt>
      <trkpt lat="45.94416" lon="4.72755">
        <ele>165.899993896</ele>
        <time>2015-12-12T11:26:10.755Z</time>
      </trkpt>
      <trkpt lat="45.94415" lon="4.72745">
        <ele>165.600006104</ele>
        <time>2015-12-12T11:26:11.775Z</time>
      </trkpt>
      <trkpt lat="45.94414" lon="4.72734">
        <ele>165.300003052</ele>
        <time>2015-12-12T11:26:12.755Z</time>
      </trkpt>
      <trkpt lat="45.94413" lon="4.72724">
        <ele>164.899993896</ele>
        <time>2015-12-12T11:26:13.773Z</time>
      </trkpt>
      <trkpt lat="45.94412" lon="4.72714">
        <ele>164.600006104</ele>
        <time>2015-12-12T11:26:14.755Z</time>
      </trkpt>
      <trkpt lat="45.94411" lon="4.72704">
        <ele>164.5</ele>
        <time>2015-12-12T11:26:15.787Z</time>
      </trkpt>
      <trkpt lat="45.9441" lon="4.72695">
        <ele>164</ele>
        <time>2015-12-12T11:26:16.755Z</time>
      </trkpt>
      <trkpt lat="45.94409" lon="4.72685">
        <ele>163.600006104</ele>
        <time>2015-12-12T11:26:17.775Z</time>
      </trkpt>
      <trkpt lat="45.94408" lon="4.72675">
        <ele>163.300003052</ele>
        <time>2015-12-12T11:26:18.756Z</time>
      </trkpt>
      <trkpt lat="45.94407" lon="4.72665">
        <ele>162.899993896</ele>
        <time>2015-12-12T11:26:19.773Z</time>
      </trkpt>
      <trkpt lat="45.94406" lon="4.72656">
        <ele>162.800003052</ele>
        <time>2015-12-12T11:26:20.755Z</time>
      </trkpt>
      <trkpt lat="45.94404" lon="4.72647">
        <ele>162.699996948</ele>
        <time>2015-12-12T11:26:21.771Z</time>
      </trkpt>
      <trkpt lat="45.94403" lon="4.72638">
        <ele>163.199996948</ele>
        <time>2015-12-12T11:26:22.755Z</time>
      </trkpt>
      <trkpt lat="45.94401" lon="4.72629">
        <ele>163.199996948</ele>
        <time>2015-12-12T11:26:23.775Z</time>
      </trkpt>
      <trkpt lat="45.944" lon="4.7262">
        <ele>163.300003052</ele>
        <time>2015-12-12T11:26:24.755Z</time>
      </trkpt>
      <trkpt lat="45.94399" lon="4.7261">
        <ele>163.399993896</ele>
        <time>2015-12-12T11:26:25.772Z</time>
      </trkpt>
      <trkpt lat="45.94398" lon="4.72601">
        <ele>163.300003052</ele>
        <time>2015-12-12T11:26:26.755Z</time>
      </trkpt>
      <trkpt lat="45.94396" lon="4.72592">
        <ele>163.300003052</ele>
        <time>2015-12-12T11:26:27.772Z</time>
      </trkpt>
      <trkpt lat="45.94395" lon="4.72583">
        <ele>163.600006104</ele>
        <time>2015-12-12T11:26:28.756Z</time>
      </trkpt>
      <trkpt lat="45.94393" lon="4.72574">
        <ele>163.5</ele>
        <time>2015-12-12T11:26:29.775Z</time>
      </trkpt>
      <trkpt lat="45.94391" lon="4.72565">
        <ele>163.800003052</ele>
        <time>2015-12-12T11:26:30.755Z</time>
      </trkpt>
      <trkpt lat="45.9439" lon="4.72555">
        <ele>163.800003052</ele>
        <time>2015-12-12T11:26:31.791Z</time>
      </trkpt>
      <trkpt lat="45.94388" lon="4.72546">
        <ele>163.800003052</ele>
        <time>2015-12-12T11:26:32.755Z</time>
      </trkpt>
      <trkpt lat="45.94386" lon="4.72537">
        <ele>163.899993896</ele>
        <time>2015-12-12T11:26:33.771Z</time>
      </trkpt>
      <trkpt lat="45.94384" lon="4.72527">
        <ele>163.800003052</ele>
        <time>2015-12-12T11:26:34.755Z</time>
      </trkpt>
      <trkpt lat="45.94381" lon="4.72518">
        <ele>163.5</ele>
        <time>2015-12-12T11:26:35.775Z</time>
      </trkpt>
      <trkpt lat="45.94379" lon="4.72509">
        <ele>163.300003052</ele>
        <time>2015-12-12T11:26:36.756Z</time>
      </trkpt>
      <trkpt lat="45.94376" lon="4.725">
        <ele>163</ele>
        <time>2015-12-12T11:26:37.773Z</time>
      </trkpt>
      <trkpt lat="45.94373" lon="4.72491">
        <ele>162.899993896</ele>
        <time>2015-12-12T11:26:38.756Z</time>
      </trkpt>
      <trkpt lat="45.9437" lon="4.72483">
        <ele>162.600006104</ele>
        <time>2015-12-12T11:26:39.772Z</time>
      </trkpt>
      <trkpt lat="45.94367" lon="4.72474">
        <ele>162.600006104</ele>
        <time>2015-12-12T11:26:40.755Z</time>
      </trkpt>
      <trkpt lat="45.94363" lon="4.72466">
        <ele>162.699996948</ele>
        <time>2015-12-12T11:26:41.775Z</time>
      </trkpt>
      <trkpt lat="45.9436" lon="4.72458">
        <ele>162.699996948</ele>
        <time>2015-12-12T11:26:42.755Z</time>
      </trkpt>
      <trkpt lat="45.94356" lon="4.72451">
        <ele>162.5</ele>
        <time>2015-12-12T11:26:43.774Z</time>
      </trkpt>
      <trkpt lat="45.94353" lon="4.72443">
        <ele>162.300003052</ele>
        <time>2015-12-12T11:26:44.755Z</time>
      </trkpt>
      <trkpt lat="45.9435" lon="4.72436">
        <ele>162.300003052</ele>
        <time>2015-12-12T11:26:45.771Z</time>
      </trkpt>
      <trkpt lat="45.94346" lon="4.72428">
        <ele>162.600006104</ele>
        <time>2015-12-12T11:26:46.755Z</time>
      </trkpt>
      <trkpt lat="45.94343" lon="4.72421">
        <ele>162.600006104</ele>
        <time>2015-12-12T11:26:47.795Z</time>
      </trkpt>
      <trkpt lat="45.94339" lon="4.72413">
        <ele>162.600006104</ele>
        <time>2015-12-12T11:26:48.756Z</time>
      </trkpt>
      <trkpt lat="45.94336" lon="4.72405">
        <ele>162.5</ele>
        <time>2015-12-12T11:26:49.772Z</time>
      </trkpt>
      <trkpt lat="45.94332" lon="4.72397">
        <ele>162.399993896</ele>
        <time>2015-12-12T11:26:50.758Z</time>
      </trkpt>
      <trkpt lat="45.94328" lon="4.72389">
        <ele>162.600006104</ele>
        <time>2015-12-12T11:26:51.771Z</time>
      </trkpt>
      <trkpt lat="45.94324" lon="4.72381">
        <ele>162.699996948</ele>
        <time>2015-12-12T11:26:52.755Z</time>
      </trkpt>
      <trkpt lat="45.9432" lon="4.72373">
        <ele>162.300003052</ele>
        <time>2015-12-12T11:26:53.775Z</time>
      </trkpt>
      <trkpt lat="45.94317" lon="4.72365">
        <ele>162.199996948</ele>
        <time>2015-12-12T11:26:54.755Z</time>
      </trkpt>
      <trkpt lat="45.94313" lon="4.72356">
        <ele>162.300003052</ele>
        <time>2015-12-12T11:26:55.773Z</time>
      </trkpt>
      <trkpt lat="45.94309" lon="4.72348">
        <ele>162.5</ele>
        <time>2015-12-12T11:26:56.755Z</time>
      </trkpt>
      <trkpt lat="45.94306" lon="4.7234">
        <ele>162.100006104</ele>
        <time>2015-12-12T11:26:57.82Z</time>
      </trkpt>
      <trkpt lat="45.94302" lon="4.72332">
        <ele>161.899993896</ele>
        <time>2015-12-12T11:26:58.755Z</time>
      </trkpt>
      <trkpt lat="45.94299" lon="4.72324">
        <ele>161.699996948</ele>
        <time>2015-12-12T11:26:59.775Z</time>
      </trkpt>
      <trkpt lat="45.94296" lon="4.72317">
        <ele>161.899993896</ele>
        <time>2015-12-12T11:27:00.755Z</time>
      </trkpt>
      <trkpt lat="45.94294" lon="4.72309">
        <ele>162.100006104</ele>
        <time>2015-12-12T11:27:01.773Z</time>
      </trkpt>
      <trkpt lat="45.94291" lon="4.72302">
        <ele>162.300003052</ele>
        <time>2015-12-12T11:27:02.755Z</time>
      </trkpt>
      <trkpt lat="45.94288" lon="4.72295">
        <ele>162.899993896</ele>
        <time>2015-12-12T11:27:03.772Z</time>
      </trkpt>
      <trkpt lat="45.94285" lon="4.72288">
        <ele>163.100006104</ele>
        <time>2015-12-12T11:27:04.755Z</time>
      </trkpt>
      <trkpt lat="45.94282" lon="4.72282">
        <ele>163.399993896</ele>
        <time>2015-12-12T11:27:05.775Z</time>
      </trkpt>
      <trkpt lat="45.94278" lon="4.72277">
        <ele>164.100006104</ele>
        <time>2015-12-12T11:27:06.755Z</time>
      </trkpt>
      <trkpt lat="45.94273" lon="4.72273">
        <ele>164.5</ele>
        <time>2015-12-12T11:27:07.773Z</time>
      </trkpt>
      <trkpt lat="45.94268" lon="4.72271">
        <ele>165.5</ele>
        <time>2015-12-12T11:27:08.756Z</time>
      </trkpt>
      <trkpt lat="45.94263" lon="4.72271">
        <ele>166</ele>
        <time>2015-12-12T11:27:09.78Z</time>
      </trkpt>
      <trkpt lat="45.94257" lon="4.72272">
        <ele>166.699996948</ele>
        <time>2015-12-12T11:27:10.755Z</time>
      </trkpt>
      <trkpt lat="45.94252" lon="4.72276">
        <ele>166.899993896</ele>
        <time>2015-12-12T11:27:11.775Z</time>
      </trkpt>
      <trkpt lat="45.94246" lon="4.72279">
        <ele>167.199996948</ele>
        <time>2015-12-12T11:27:12.755Z</time>
      </trkpt>
      <trkpt lat="45.9424" lon="4.72281">
        <ele>167.300003052</ele>
        <time>2015-12-12T11:27:13.787Z</time>
      </trkpt>
      <trkpt lat="45.94234" lon="4.72283">
        <ele>168</ele>
        <time>2015-12-12T11:27:14.755Z</time>
      </trkpt>
      <trkpt lat="45.94227" lon="4.72284">
        <ele>168.399993896</ele>
        <time>2015-12-12T11:27:15.773Z</time>
      </trkpt>
      <trkpt lat="45.94221" lon="4.72285">
        <ele>168.699996948</ele>
        <time>2015-12-12T11:27:16.755Z</time>
      </trkpt>
      <trkpt lat="45.94215" lon="4.72286">
        <ele>168.899993896</ele>
        <time>2015-12-12T11:27:17.776Z</time>
      </trkpt>
      <trkpt lat="45.94208" lon="4.72287">
        <ele>169</ele>
        <time>2015-12-12T11:27:18.755Z</time>
      </trkpt>
      <trkpt lat="45.94201" lon="4.72287">
        <ele>168.800003052</ele>
        <time>2015-12-12T11:27:19.786Z</time>
      </trkpt>
      <trkpt lat="45.94195" lon="4.72287">
        <ele>168.800003052</ele>
        <time>2015-12-12T11:27:20.755Z</time>
      </trkpt>
      <trkpt lat="45.94189" lon="4.72287">
        <ele>168.899993896</ele>
        <time>2015-12-12T11:27:21.771Z</time>
      </trkpt>
      <trkpt lat="45.94182" lon="4.72286">
        <ele>169.199996948</ele>
        <time>2015-12-12T11:27:22.755Z</time>
      </trkpt>
      <trkpt lat="45.94176" lon="4.72285">
        <ele>169.199996948</ele>
        <time>2015-12-12T11:27:23.776Z</time>
      </trkpt>
      <trkpt lat="45.94169" lon="4.72284">
        <ele>169.300003052</ele>
        <time>2015-12-12T11:27:24.78Z</time>
      </trkpt>
      <trkpt lat="45.94163" lon="4.72283">
        <ele>169.300003052</ele>
        <time>2015-12-12T11:27:25.773Z</time>
      </trkpt>
      <trkpt lat="45.94157" lon="4.72282">
        <ele>169.5</ele>
        <time>2015-12-12T11:27:26.755Z</time>
      </trkpt>
      <trkpt lat="45.94151" lon="4.72281">
        <ele>169.699996948</ele>
        <time>2015-12-12T11:27:27.779Z</time>
      </trkpt>
      <trkpt lat="45.94146" lon="4.72279">
        <ele>169.899993896</ele>
        <time>2015-12-12T11:27:28.756Z</time>
      </trkpt>
      <trkpt lat="45.94141" lon="4.72278">
        <ele>169.800003052</ele>
        <time>2015-12-12T11:27:29.79Z</time>
      </trkpt>
      <trkpt lat="45.94136" lon="4.72275">
        <ele>169.699996948</ele>
        <time>2015-12-12T11:27:30.755Z</time>
      </trkpt>
      <trkpt lat="45.94131" lon="4.72272">
        <ele>169.899993896</ele>
        <time>2015-12-12T11:27:31.772Z</time>
      </trkpt>
      <trkpt lat="45.94126" lon="4.72269">
        <ele>170</ele>
        <time>2015-12-12T11:27:32.755Z</time>
      </trkpt>
      <trkpt lat="45.94121" lon="4.72267">
        <ele>169.899993896</ele>
        <time>2015-12-12T11:27:33.771Z</time>
      </trkpt>
      <trkpt lat="45.94115" lon="4.72266">
        <ele>169.699996948</ele>
        <time>2015-12-12T11:27:34.755Z</time>
      </trkpt>
      <trkpt lat="45.9411" lon="4.72265">
        <ele>169.600006104</ele>
        <time>2015-12-12T11:27:35.775Z</time>
      </trkpt>
      <trkpt lat="45.94103" lon="4.72264">
        <ele>169.300003052</ele>
        <time>2015-12-12T11:27:36.755Z</time>
      </trkpt>
      <trkpt lat="45.94097" lon="4.72263">
        <ele>169</ele>
        <time>2015-12-12T11:27:37.773Z</time>
      </trkpt>
      <trkpt lat="45.94091" lon="4.72262">
        <ele>168.600006104</ele>
        <time>2015-12-12T11:27:38.756Z</time>
      </trkpt>
      <trkpt lat="45.94085" lon="4.72263">
        <ele>168.600006104</ele>
        <time>2015-12-12T11:27:39.772Z</time>
      </trkpt>
      <trkpt lat="45.9408" lon="4.72265">
        <ele>168.800003052</ele>
        <time>2015-12-12T11:27:40.754Z</time>
      </trkpt>
      <trkpt lat="45.94074" lon="4.72268">
        <ele>169</ele>
        <time>2015-12-12T11:27:41.775Z</time>
      </trkpt>
      <trkpt lat="45.94069" lon="4.72271">
        <ele>169</ele>
        <time>2015-12-12T11:27:42.755Z</time>
      </trkpt>
      <trkpt lat="45.94063" lon="4.72276">
        <ele>169</ele>
        <time>2015-12-12T11:27:43.811Z</time>
      </trkpt>
      <trkpt lat="45.94058" lon="4.72282">
        <ele>169</ele>
        <time>2015-12-12T11:27:44.755Z</time>
      </trkpt>
      <trkpt lat="45.94054" lon="4.72288">
        <ele>169.100006104</ele>
        <time>2015-12-12T11:27:45.786Z</time>
      </trkpt>
      <trkpt lat="45.94049" lon="4.72295">
        <ele>169.300003052</ele>
        <time>2015-12-12T11:27:46.754Z</time>
      </trkpt>
      <trkpt lat="45.94044" lon="4.72301">
        <ele>169.600006104</ele>
        <time>2015-12-12T11:27:47.775Z</time>
      </trkpt>
      <trkpt lat="45.94039" lon="4.72308">
        <ele>170.100006104</ele>
        <time>2015-12-12T11:27:48.756Z</time>
      </trkpt>
      <trkpt lat="45.94034" lon="4.72315">
        <ele>169.800003052</ele>
        <time>2015-12-12T11:27:49.772Z</time>
      </trkpt>
      <trkpt lat="45.94029" lon="4.72321">
        <ele>169.399993896</ele>
        <time>2015-12-12T11:27:50.757Z</time>
      </trkpt>
      <trkpt lat="45.94024" lon="4.72328">
        <ele>169.300003052</ele>
        <time>2015-12-12T11:27:51.771Z</time>
      </trkpt>
      <trkpt lat="45.94019" lon="4.72334">
        <ele>169.699996948</ele>
        <time>2015-12-12T11:27:52.755Z</time>
      </trkpt>
      <trkpt lat="45.94015" lon="4.7234">
        <ele>169.600006104</ele>
        <time>2015-12-12T11:27:53.789Z</time>
      </trkpt>
      <trkpt lat="45.9401" lon="4.72346">
        <ele>169.399993896</ele>
        <time>2015-12-12T11:27:54.755Z</time>
      </trkpt>
      <trkpt lat="45.94005" lon="4.72351">
        <ele>169.699996948</ele>
        <time>2015-12-12T11:27:55.846Z</time>
      </trkpt>
      <trkpt lat="45.94001" lon="4.72357">
        <ele>169.699996948</ele>
        <time>2015-12-12T11:27:56.755Z</time>
      </trkpt>
      <trkpt lat="45.93997" lon="4.72363">
        <ele>169.300003052</ele>
        <time>2015-12-12T11:27:57.771Z</time>
      </trkpt>
      <trkpt lat="45.93992" lon="4.72368">
        <ele>169.100006104</ele>
        <time>2015-12-12T11:27:58.756Z</time>
      </trkpt>
      <trkpt lat="45.93988" lon="4.72374">
        <ele>169.100006104</ele>
        <time>2015-12-12T11:27:59.776Z</time>
      </trkpt>
      <trkpt lat="45.93983" lon="4.72379">
        <ele>169.199996948</ele>
        <time>2015-12-12T11:28:00.755Z</time>
      </trkpt>
      <trkpt lat="45.93978" lon="4.72385">
        <ele>169.300003052</ele>
        <time>2015-12-12T11:28:01.773Z</time>
      </trkpt>
      <trkpt lat="45.93973" lon="4.7239">
        <ele>169.699996948</ele>
        <time>2015-12-12T11:28:02.755Z</time>
      </trkpt>
      <trkpt lat="45.93968" lon="4.72396">
        <ele>169.899993896</ele>
        <time>2015-12-12T11:28:03.771Z</time>
      </trkpt>
      <trkpt lat="45.93963" lon="4.72401">
        <ele>169.800003052</ele>
        <time>2015-12-12T11:28:04.755Z</time>
      </trkpt>
      <trkpt lat="45.93958" lon="4.72406">
        <ele>169.699996948</ele>
        <time>2015-12-12T11:28:05.775Z</time>
      </trkpt>
      <trkpt lat="45.93953" lon="4.72412">
        <ele>169.899993896</ele>
        <time>2015-12-12T11:28:06.754Z</time>
      </trkpt>
      <trkpt lat="45.93949" lon="4.72418">
        <ele>170.199996948</ele>
        <time>2015-12-12T11:28:07.773Z</time>
      </trkpt>
      <trkpt lat="45.93944" lon="4.72424">
        <ele>170.5</ele>
        <time>2015-12-12T11:28:08.756Z</time>
      </trkpt>
      <trkpt lat="45.9394" lon="4.72429">
        <ele>170.699996948</ele>
        <time>2015-12-12T11:28:09.786Z</time>
      </trkpt>
      <trkpt lat="45.93936" lon="4.72434">
        <ele>171</ele>
        <time>2015-12-12T11:28:10.755Z</time>
      </trkpt>
      <trkpt lat="45.93932" lon="4.72439">
        <ele>171.300003052</ele>
        <time>2015-12-12T11:28:11.789Z</time>
      </trkpt>
      <trkpt lat="45.93927" lon="4.72445">
        <ele>171.100006104</ele>
        <time>2015-12-12T11:28:12.755Z</time>
      </trkpt>
      <trkpt lat="45.93923" lon="4.72451">
        <ele>170.899993896</ele>
        <time>2015-12-12T11:28:13.774Z</time>
      </trkpt>
      <trkpt lat="45.93918" lon="4.72456">
        <ele>170.899993896</ele>
        <time>2015-12-12T11:28:14.755Z</time>
      </trkpt>
      <trkpt lat="45.93914" lon="4.72462">
        <ele>170.899993896</ele>
        <time>2015-12-12T11:28:15.772Z</time>
      </trkpt>
      <trkpt lat="45.9391" lon="4.72467">
        <ele>170.800003052</ele>
        <time>2015-12-12T11:28:16.755Z</time>
      </trkpt>
      <trkpt lat="45.93906" lon="4.72472">
        <ele>170.899993896</ele>
        <time>2015-12-12T11:28:17.775Z</time>
      </trkpt>
      <trkpt lat="45.93901" lon="4.72478">
        <ele>171.100006104</ele>
        <time>2015-12-12T11:28:18.755Z</time>
      </trkpt>
      <trkpt lat="45.93897" lon="4.72483">
        <ele>171.199996948</ele>
        <time>2015-12-12T11:28:19.811Z</time>
      </trkpt>
      <trkpt lat="45.93892" lon="4.72489">
        <ele>171.300003052</ele>
        <time>2015-12-12T11:28:20.755Z</time>
      </trkpt>
      <trkpt lat="45.93888" lon="4.72494">
        <ele>171.300003052</ele>
        <time>2015-12-12T11:28:21.771Z</time>
      </trkpt>
      <trkpt lat="45.93884" lon="4.725">
        <ele>171.800003052</ele>
        <time>2015-12-12T11:28:22.755Z</time>
      </trkpt>
      <trkpt lat="45.93879" lon="4.72505">
        <ele>171.899993896</ele>
        <time>2015-12-12T11:28:23.775Z</time>
      </trkpt>
      <trkpt lat="45.93874" lon="4.7251">
        <ele>172.100006104</ele>
        <time>2015-12-12T11:28:24.755Z</time>
      </trkpt>
      <trkpt lat="45.93869" lon="4.72512">
        <ele>172</ele>
        <time>2015-12-12T11:28:25.772Z</time>
      </trkpt>
      <trkpt lat="45.93864" lon="4.72512">
        <ele>171.899993896</ele>
        <time>2015-12-12T11:28:26.755Z</time>
      </trkpt>
      <trkpt lat="45.93858" lon="4.72511">
        <ele>171.800003052</ele>
        <time>2015-12-12T11:28:27.771Z</time>
      </trkpt>
      <trkpt lat="45.93853" lon="4.72509">
        <ele>171.899993896</ele>
        <time>2015-12-12T11:28:28.755Z</time>
      </trkpt>
      <trkpt lat="45.93848" lon="4.72507">
        <ele>172</ele>
        <time>2015-12-12T11:28:29.821Z</time>
      </trkpt>
      <trkpt lat="45.93843" lon="4.72504">
        <ele>172</ele>
        <time>2015-12-12T11:28:30.755Z</time>
      </trkpt>
      <trkpt lat="45.93839" lon="4.72501">
        <ele>172</ele>
        <time>2015-12-12T11:28:31.772Z</time>
      </trkpt>
      <trkpt lat="45.93834" lon="4.72498">
        <ele>172.100006104</ele>
        <time>2015-12-12T11:28:32.755Z</time>
      </trkpt>
      <trkpt lat="45.93829" lon="4.72495">
        <ele>172.100006104</ele>
        <time>2015-12-12T11:28:33.771Z</time>
      </trkpt>
      <trkpt lat="45.93824" lon="4.72491">
        <ele>172.199996948</ele>
        <time>2015-12-12T11:28:34.755Z</time>
      </trkpt>
      <trkpt lat="45.93824" lon="4.72491">
        <ele>172.199996948</ele>
        <time>2015-12-12T11:28:34.773Z</time>
      </trkpt>
      <trkpt lat="45.93818" lon="4.72474">
        <ele>172.300003052</ele>
        <time>2015-12-12T11:28:35.754Z</time>
      </trkpt>
      <trkpt lat="45.93812" lon="4.72467">
        <ele>172.300003052</ele>
        <time>2015-12-12T11:28:36.771Z</time>
      </trkpt>
      <trkpt lat="45.93808" lon="4.72462">
        <ele>172.300003052</ele>
        <time>2015-12-12T11:28:37.77Z</time>
      </trkpt>
      <trkpt lat="45.93803" lon="4.72457">
        <ele>172.399993896</ele>
        <time>2015-12-12T11:28:38.772Z</time>
      </trkpt>
      <trkpt lat="45.93797" lon="4.72451">
        <ele>172.399993896</ele>
        <time>2015-12-12T11:28:39.755Z</time>
      </trkpt>
      <trkpt lat="45.93792" lon="4.72446">
        <ele>172.399993896</ele>
        <time>2015-12-12T11:28:40.772Z</time>
      </trkpt>
      <trkpt lat="45.93787" lon="4.7244">
        <ele>172.5</ele>
        <time>2015-12-12T11:28:41.759Z</time>
      </trkpt>
      <trkpt lat="45.93782" lon="4.72434">
        <ele>172.600006104</ele>
        <time>2015-12-12T11:28:42.787Z</time>
      </trkpt>
      <trkpt lat="45.93777" lon="4.72428">
        <ele>172.699996948</ele>
        <time>2015-12-12T11:28:43.757Z</time>
      </trkpt>
      <trkpt lat="45.93772" lon="4.72424">
        <ele>172.600006104</ele>
        <time>2015-12-12T11:28:44.908Z</time>
      </trkpt>
      <trkpt lat="45.93767" lon="4.72419">
        <ele>172.600006104</ele>
        <time>2015-12-12T11:28:45.755Z</time>
      </trkpt>
      <trkpt lat="45.93761" lon="4.72414">
        <ele>172.600006104</ele>
        <time>2015-12-12T11:28:46.774Z</time>
      </trkpt>
      <trkpt lat="45.93756" lon="4.72409">
        <ele>172.600006104</ele>
        <time>2015-12-12T11:28:47.759Z</time>
      </trkpt>
      <trkpt lat="45.93751" lon="4.72404">
        <ele>172.800003052</ele>
        <time>2015-12-12T11:28:48.773Z</time>
      </trkpt>
      <trkpt lat="45.93747" lon="4.72399">
        <ele>173</ele>
        <time>2015-12-12T11:28:49.756Z</time>
      </trkpt>
      <trkpt lat="45.93742" lon="4.72394">
        <ele>173.199996948</ele>
        <time>2015-12-12T11:28:50.775Z</time>
      </trkpt>
      <trkpt lat="45.93737" lon="4.7239">
        <ele>173.399993896</ele>
        <time>2015-12-12T11:28:51.755Z</time>
      </trkpt>
      <trkpt lat="45.93733" lon="4.72387">
        <ele>173.600006104</ele>
        <time>2015-12-12T11:28:52.772Z</time>
      </trkpt>
      <trkpt lat="45.93728" lon="4.72383">
        <ele>173.699996948</ele>
        <time>2015-12-12T11:28:53.759Z</time>
      </trkpt>
      <trkpt lat="45.93723" lon="4.72378">
        <ele>173.899993896</ele>
        <time>2015-12-12T11:28:54.771Z</time>
      </trkpt>
      <trkpt lat="45.93719" lon="4.72374">
        <ele>174</ele>
        <time>2015-12-12T11:28:55.756Z</time>
      </trkpt>
      <trkpt lat="45.93713" lon="4.72369">
        <ele>174.399993896</ele>
        <time>2015-12-12T11:28:56.903Z</time>
      </trkpt>
      <trkpt lat="45.93708" lon="4.72365">
        <ele>174.300003052</ele>
        <time>2015-12-12T11:28:57.755Z</time>
      </trkpt>
      <trkpt lat="45.93703" lon="4.7236">
        <ele>174.199996948</ele>
        <time>2015-12-12T11:28:58.787Z</time>
      </trkpt>
      <trkpt lat="45.93699" lon="4.72356">
        <ele>174.100006104</ele>
        <time>2015-12-12T11:28:59.758Z</time>
      </trkpt>
      <trkpt lat="45.93694" lon="4.72352">
        <ele>174.100006104</ele>
        <time>2015-12-12T11:29:00.771Z</time>
      </trkpt>
      <trkpt lat="45.9369" lon="4.72348">
        <ele>174.199996948</ele>
        <time>2015-12-12T11:29:01.756Z</time>
      </trkpt>
      <trkpt lat="45.93685" lon="4.72346">
        <ele>174.199996948</ele>
        <time>2015-12-12T11:29:02.771Z</time>
      </trkpt>
      <trkpt lat="45.93681" lon="4.72339">
        <ele>174.300003052</ele>
        <time>2015-12-12T11:29:03.755Z</time>
      </trkpt>
      <trkpt lat="45.93678" lon="4.72334">
        <ele>174.199996948</ele>
        <time>2015-12-12T11:29:04.771Z</time>
      </trkpt>
      <trkpt lat="45.93675" lon="4.7233">
        <ele>174.199996948</ele>
        <time>2015-12-12T11:29:05.758Z</time>
      </trkpt>
      <trkpt lat="45.93668" lon="4.72323">
        <ele>173.5</ele>
        <time>2015-12-12T11:29:07.811Z</time>
      </trkpt>
      <trkpt lat="45.93664" lon="4.72318">
        <ele>173.399993896</ele>
        <time>2015-12-12T11:29:08.756Z</time>
      </trkpt>
      <trkpt lat="45.9366" lon="4.72314">
        <ele>173.699996948</ele>
        <time>2015-12-12T11:29:09.779Z</time>
      </trkpt>
      <trkpt lat="45.93655" lon="4.7231">
        <ele>173.800003052</ele>
        <time>2015-12-12T11:29:10.755Z</time>
      </trkpt>
      <trkpt lat="45.9365" lon="4.72305">
        <ele>173.800003052</ele>
        <time>2015-12-12T11:29:11.775Z</time>
      </trkpt>
      <trkpt lat="45.93645" lon="4.72301">
        <ele>173.699996948</ele>
        <time>2015-12-12T11:29:12.755Z</time>
      </trkpt>
      <trkpt lat="45.9364" lon="4.72297">
        <ele>173.699996948</ele>
        <time>2015-12-12T11:29:13.773Z</time>
      </trkpt>
      <trkpt lat="45.93636" lon="4.72292">
        <ele>173.699996948</ele>
        <time>2015-12-12T11:29:14.755Z</time>
      </trkpt>
      <trkpt lat="45.93631" lon="4.72286">
        <ele>173.5</ele>
        <time>2015-12-12T11:29:15.771Z</time>
      </trkpt>
      <trkpt lat="45.93626" lon="4.72281">
        <ele>173.399993896</ele>
        <time>2015-12-12T11:29:16.755Z</time>
      </trkpt>
      <trkpt lat="45.93621" lon="4.72276">
        <ele>173.399993896</ele>
        <time>2015-12-12T11:29:17.775Z</time>
      </trkpt>
      <trkpt lat="45.93616" lon="4.72271">
        <ele>173.199996948</ele>
        <time>2015-12-12T11:29:18.782Z</time>
      </trkpt>
      <trkpt lat="45.93611" lon="4.72267">
        <ele>173</ele>
        <time>2015-12-12T11:29:19.793Z</time>
      </trkpt>
      <trkpt lat="45.93606" lon="4.72262">
        <ele>173</ele>
        <time>2015-12-12T11:29:20.755Z</time>
      </trkpt>
      <trkpt lat="45.93602" lon="4.72258">
        <ele>173.100006104</ele>
        <time>2015-12-12T11:29:21.771Z</time>
      </trkpt>
      <trkpt lat="45.93598" lon="4.72254">
        <ele>173.300003052</ele>
        <time>2015-12-12T11:29:22.755Z</time>
      </trkpt>
      <trkpt lat="45.93594" lon="4.72249">
        <ele>173.5</ele>
        <time>2015-12-12T11:29:23.776Z</time>
      </trkpt>
      <trkpt lat="45.93591" lon="4.72245">
        <ele>173.600006104</ele>
        <time>2015-12-12T11:29:24.755Z</time>
      </trkpt>
      <trkpt lat="45.93587" lon="4.72241">
        <ele>173.699996948</ele>
        <time>2015-12-12T11:29:25.772Z</time>
      </trkpt>
      <trkpt lat="45.93584" lon="4.72237">
        <ele>173.699996948</ele>
        <time>2015-12-12T11:29:26.755Z</time>
      </trkpt>
      <trkpt lat="45.93579" lon="4.72234">
        <ele>174</ele>
        <time>2015-12-12T11:29:27.771Z</time>
      </trkpt>
      <trkpt lat="45.93576" lon="4.72229">
        <ele>174.199996948</ele>
        <time>2015-12-12T11:29:28.756Z</time>
      </trkpt>
      <trkpt lat="45.93571" lon="4.72219">
        <ele>174.800003052</ele>
        <time>2015-12-12T11:29:30.772Z</time>
      </trkpt>
      <trkpt lat="45.93569" lon="4.72214">
        <ele>175.100006104</ele>
        <time>2015-12-12T11:29:31.756Z</time>
      </trkpt>
      <trkpt lat="45.93567" lon="4.72209">
        <ele>175.399993896</ele>
        <time>2015-12-12T11:29:33.771Z</time>
      </trkpt>
      <trkpt lat="45.93567" lon="4.72208">
        <ele>175.300003052</ele>
        <time>2015-12-12T11:29:34.755Z</time>
      </trkpt>
      <trkpt lat="45.93564" lon="4.72205">
        <ele>174.899993896</ele>
        <time>2015-12-12T11:29:45.771Z</time>
      </trkpt>
      <trkpt lat="45.93562" lon="4.72203">
        <ele>175.300003052</ele>
        <time>2015-12-12T11:29:46.755Z</time>
      </trkpt>
      <trkpt lat="45.93554" lon="4.72201">
        <ele>176.100006104</ele>
        <time>2015-12-12T11:29:54.772Z</time>
      </trkpt>
      <trkpt lat="45.93552" lon="4.72202">
        <ele>176.399993896</ele>
        <time>2015-12-12T11:29:55.756Z</time>
      </trkpt>
      <trkpt lat="45.93547" lon="4.72208">
        <ele>176.600006104</ele>
        <time>2015-12-12T11:29:57.771Z</time>
      </trkpt>
      <trkpt lat="45.93545" lon="4.72213">
        <ele>176.600006104</ele>
        <time>2015-12-12T11:29:58.757Z</time>
      </trkpt>
      <trkpt lat="45.93542" lon="4.72222">
        <ele>176.300003052</ele>
        <time>2015-12-12T11:30:00.809Z</time>
      </trkpt>
      <trkpt lat="45.9354" lon="4.72227">
        <ele>176</ele>
        <time>2015-12-12T11:30:01.756Z</time>
      </trkpt>
      <trkpt lat="45.93536" lon="4.72238">
        <ele>175.600006104</ele>
        <time>2015-12-12T11:30:03.771Z</time>
      </trkpt>
      <trkpt lat="45.93534" lon="4.72243">
        <ele>175.800003052</ele>
        <time>2015-12-12T11:30:04.755Z</time>
      </trkpt>
      <trkpt lat="45.93532" lon="4.72249">
        <ele>175.800003052</ele>
        <time>2015-12-12T11:30:05.775Z</time>
      </trkpt>
      <trkpt lat="45.9353" lon="4.72256">
        <ele>175.899993896</ele>
        <time>2015-12-12T11:30:06.755Z</time>
      </trkpt>
      <trkpt lat="45.93528" lon="4.72262">
        <ele>175.800003052</ele>
        <time>2015-12-12T11:30:07.821Z</time>
      </trkpt>
      <trkpt lat="45.93526" lon="4.72268">
        <ele>176</ele>
        <time>2015-12-12T11:30:08.756Z</time>
      </trkpt>
      <trkpt lat="45.93523" lon="4.72275">
        <ele>176</ele>
        <time>2015-12-12T11:30:09.781Z</time>
      </trkpt>
      <trkpt lat="45.93521" lon="4.72282">
        <ele>176.100006104</ele>
        <time>2015-12-12T11:30:10.755Z</time>
      </trkpt>
      <trkpt lat="45.93518" lon="4.72289">
        <ele>176</ele>
        <time>2015-12-12T11:30:11.775Z</time>
      </trkpt>
      <trkpt lat="45.93515" lon="4.72296">
        <ele>175.199996948</ele>
        <time>2015-12-12T11:30:12.755Z</time>
      </trkpt>
      <trkpt lat="45.93511" lon="4.72303">
        <ele>174.699996948</ele>
        <time>2015-12-12T11:30:13.772Z</time>
      </trkpt>
      <trkpt lat="45.93507" lon="4.72309">
        <ele>174.5</ele>
        <time>2015-12-12T11:30:14.755Z</time>
      </trkpt>
      <trkpt lat="45.93503" lon="4.72316">
        <ele>174.399993896</ele>
        <time>2015-12-12T11:30:15.771Z</time>
      </trkpt>
      <trkpt lat="45.93498" lon="4.72323">
        <ele>174.399993896</ele>
        <time>2015-12-12T11:30:16.755Z</time>
      </trkpt>
      <trkpt lat="45.93493" lon="4.72329">
        <ele>174</ele>
        <time>2015-12-12T11:30:17.789Z</time>
      </trkpt>
      <trkpt lat="45.93489" lon="4.72335">
        <ele>173.899993896</ele>
        <time>2015-12-12T11:30:18.756Z</time>
      </trkpt>
      <trkpt lat="45.93484" lon="4.72341">
        <ele>173.800003052</ele>
        <time>2015-12-12T11:30:19.787Z</time>
      </trkpt>
      <trkpt lat="45.93479" lon="4.72347">
        <ele>173.600006104</ele>
        <time>2015-12-12T11:30:20.755Z</time>
      </trkpt>
      <trkpt lat="45.93475" lon="4.72354">
        <ele>173.800003052</ele>
        <time>2015-12-12T11:30:21.771Z</time>
      </trkpt>
      <trkpt lat="45.9347" lon="4.7236">
        <ele>174.199996948</ele>
        <time>2015-12-12T11:30:22.755Z</time>
      </trkpt>
      <trkpt lat="45.93466" lon="4.72366">
        <ele>174.300003052</ele>
        <time>2015-12-12T11:30:23.911Z</time>
      </trkpt>
      <trkpt lat="45.93461" lon="4.72372">
        <ele>174.300003052</ele>
        <time>2015-12-12T11:30:24.755Z</time>
      </trkpt>
      <trkpt lat="45.93456" lon="4.72378">
        <ele>174.699996948</ele>
        <time>2015-12-12T11:30:25.772Z</time>
      </trkpt>
      <trkpt lat="45.93451" lon="4.72383">
        <ele>174.699996948</ele>
        <time>2015-12-12T11:30:26.756Z</time>
      </trkpt>
      <trkpt lat="45.93446" lon="4.72387">
        <ele>174.800003052</ele>
        <time>2015-12-12T11:30:27.779Z</time>
      </trkpt>
      <trkpt lat="45.93441" lon="4.72392">
        <ele>174.5</ele>
        <time>2015-12-12T11:30:28.753Z</time>
      </trkpt>
      <trkpt lat="45.93436" lon="4.72396">
        <ele>174.399993896</ele>
        <time>2015-12-12T11:30:29.789Z</time>
      </trkpt>
      <trkpt lat="45.9343" lon="4.724">
        <ele>174.199996948</ele>
        <time>2015-12-12T11:30:30.756Z</time>
      </trkpt>
      <trkpt lat="45.93425" lon="4.72403">
        <ele>174.199996948</ele>
        <time>2015-12-12T11:30:31.772Z</time>
      </trkpt>
      <trkpt lat="45.93419" lon="4.72405">
        <ele>173.699996948</ele>
        <time>2015-12-12T11:30:32.754Z</time>
      </trkpt>
      <trkpt lat="45.93413" lon="4.72407">
        <ele>173.800003052</ele>
        <time>2015-12-12T11:30:33.771Z</time>
      </trkpt>
      <trkpt lat="45.93407" lon="4.72408">
        <ele>173.399993896</ele>
        <time>2015-12-12T11:30:34.755Z</time>
      </trkpt>
      <trkpt lat="45.93402" lon="4.72407">
        <ele>173.699996948</ele>
        <time>2015-12-12T11:30:35.774Z</time>
      </trkpt>
      <trkpt lat="45.93397" lon="4.72406">
        <ele>174</ele>
        <time>2015-12-12T11:30:36.755Z</time>
      </trkpt>
      <trkpt lat="45.93392" lon="4.72406">
        <ele>174.300003052</ele>
        <time>2015-12-12T11:30:37.811Z</time>
      </trkpt>
      <trkpt lat="45.93388" lon="4.72407">
        <ele>174.399993896</ele>
        <time>2015-12-12T11:30:38.756Z</time>
      </trkpt>
      <trkpt lat="45.93384" lon="4.72412">
        <ele>174.399993896</ele>
        <time>2015-12-12T11:30:39.783Z</time>
      </trkpt>
      <trkpt lat="45.93382" lon="4.72418">
        <ele>175.399993896</ele>
        <time>2015-12-12T11:30:40.755Z</time>
      </trkpt>
      <trkpt lat="45.93382" lon="4.72426">
        <ele>175.699996948</ele>
        <time>2015-12-12T11:30:41.775Z</time>
      </trkpt>
      <trkpt lat="45.93384" lon="4.72432">
        <ele>175.899993896</ele>
        <time>2015-12-12T11:30:42.755Z</time>
      </trkpt>
      <trkpt lat="45.93387" lon="4.72439">
        <ele>176.199996948</ele>
        <time>2015-12-12T11:30:43.772Z</time>
      </trkpt>
      <trkpt lat="45.93389" lon="4.72446">
        <ele>176.5</ele>
        <time>2015-12-12T11:30:44.755Z</time>
      </trkpt>
      <trkpt lat="45.9339" lon="4.72453">
        <ele>176.800003052</ele>
        <time>2015-12-12T11:30:45.771Z</time>
      </trkpt>
      <trkpt lat="45.93388" lon="4.72461">
        <ele>177</ele>
        <time>2015-12-12T11:30:46.754Z</time>
      </trkpt>
      <trkpt lat="45.93385" lon="4.72468">
        <ele>177.100006104</ele>
        <time>2015-12-12T11:30:47.774Z</time>
      </trkpt>
      <trkpt lat="45.93381" lon="4.72474">
        <ele>177.300003052</ele>
        <time>2015-12-12T11:30:48.756Z</time>
      </trkpt>
      <trkpt lat="45.93376" lon="4.7248">
        <ele>177.100006104</ele>
        <time>2015-12-12T11:30:49.784Z</time>
      </trkpt>
      <trkpt lat="45.93372" lon="4.72485">
        <ele>177.5</ele>
        <time>2015-12-12T11:30:50.756Z</time>
      </trkpt>
      <trkpt lat="45.93367" lon="4.72491">
        <ele>177.5</ele>
        <time>2015-12-12T11:30:51.771Z</time>
      </trkpt>
      <trkpt lat="45.93362" lon="4.72496">
        <ele>177.5</ele>
        <time>2015-12-12T11:30:52.755Z</time>
      </trkpt>
      <trkpt lat="45.93357" lon="4.72502">
        <ele>177.600006104</ele>
        <time>2015-12-12T11:30:53.775Z</time>
      </trkpt>
      <trkpt lat="45.93352" lon="4.72508">
        <ele>177.600006104</ele>
        <time>2015-12-12T11:30:54.754Z</time>
      </trkpt>
      <trkpt lat="45.93347" lon="4.72513">
        <ele>177.399993896</ele>
        <time>2015-12-12T11:30:55.772Z</time>
      </trkpt>
      <trkpt lat="45.93342" lon="4.72519">
        <ele>177.300003052</ele>
        <time>2015-12-12T11:30:56.754Z</time>
      </trkpt>
      <trkpt lat="45.93337" lon="4.72524">
        <ele>177.199996948</ele>
        <time>2015-12-12T11:30:57.771Z</time>
      </trkpt>
      <trkpt lat="45.93333" lon="4.72529">
        <ele>176.899993896</ele>
        <time>2015-12-12T11:30:58.756Z</time>
      </trkpt>
      <trkpt lat="45.93328" lon="4.72535">
        <ele>176.800003052</ele>
        <time>2015-12-12T11:30:59.821Z</time>
      </trkpt>
      <trkpt lat="45.93324" lon="4.7254">
        <ele>176.399993896</ele>
        <time>2015-12-12T11:31:00.755Z</time>
      </trkpt>
      <trkpt lat="45.9332" lon="4.72544">
        <ele>176.100006104</ele>
        <time>2015-12-12T11:31:01.772Z</time>
      </trkpt>
      <trkpt lat="45.93316" lon="4.72549">
        <ele>175.699996948</ele>
        <time>2015-12-12T11:31:02.754Z</time>
      </trkpt>
      <trkpt lat="45.93311" lon="4.72554">
        <ele>175.199996948</ele>
        <time>2015-12-12T11:31:03.771Z</time>
      </trkpt>
      <trkpt lat="45.93307" lon="4.72559">
        <ele>174.899993896</ele>
        <time>2015-12-12T11:31:04.754Z</time>
      </trkpt>
      <trkpt lat="45.93301" lon="4.72564">
        <ele>174.5</ele>
        <time>2015-12-12T11:31:05.775Z</time>
      </trkpt>
      <trkpt lat="45.93296" lon="4.7257">
        <ele>174.199996948</ele>
        <time>2015-12-12T11:31:06.754Z</time>
      </trkpt>
      <trkpt lat="45.93291" lon="4.72575">
        <ele>173.600006104</ele>
        <time>2015-12-12T11:31:07.772Z</time>
      </trkpt>
      <trkpt lat="45.93285" lon="4.72581">
        <ele>173.199996948</ele>
        <time>2015-12-12T11:31:08.756Z</time>
      </trkpt>
      <trkpt lat="45.9328" lon="4.72587">
        <ele>173.300003052</ele>
        <time>2015-12-12T11:31:09.784Z</time>
      </trkpt>
      <trkpt lat="45.93275" lon="4.72593">
        <ele>173.100006104</ele>
        <time>2015-12-12T11:31:10.754Z</time>
      </trkpt>
      <trkpt lat="45.9327" lon="4.72599">
        <ele>172.300003052</ele>
        <time>2015-12-12T11:31:11.776Z</time>
      </trkpt>
      <trkpt lat="45.93264" lon="4.72605">
        <ele>172</ele>
        <time>2015-12-12T11:31:12.755Z</time>
      </trkpt>
      <trkpt lat="45.93259" lon="4.7261">
        <ele>171.899993896</ele>
        <time>2015-12-12T11:31:13.772Z</time>
      </trkpt>
      <trkpt lat="45.93254" lon="4.72615">
        <ele>171.899993896</ele>
        <time>2015-12-12T11:31:14.754Z</time>
      </trkpt>
      <trkpt lat="45.9325" lon="4.7262">
        <ele>171.600006104</ele>
        <time>2015-12-12T11:31:15.785Z</time>
      </trkpt>
      <trkpt lat="45.93246" lon="4.72625">
        <ele>172.100006104</ele>
        <time>2015-12-12T11:31:16.754Z</time>
      </trkpt>
      <trkpt lat="45.93241" lon="4.7263">
        <ele>172.399993896</ele>
        <time>2015-12-12T11:31:17.811Z</time>
      </trkpt>
      <trkpt lat="45.93237" lon="4.72636">
        <ele>172.600006104</ele>
        <time>2015-12-12T11:31:18.756Z</time>
      </trkpt>
      <trkpt lat="45.93233" lon="4.72641">
        <ele>172.600006104</ele>
        <time>2015-12-12T11:31:19.772Z</time>
      </trkpt>
      <trkpt lat="45.93229" lon="4.72647">
        <ele>173</ele>
        <time>2015-12-12T11:31:20.754Z</time>
      </trkpt>
      <trkpt lat="45.93224" lon="4.72652">
        <ele>173.300003052</ele>
        <time>2015-12-12T11:31:21.783Z</time>
      </trkpt>
      <trkpt lat="45.9322" lon="4.72657">
        <ele>173.600006104</ele>
        <time>2015-12-12T11:31:22.754Z</time>
      </trkpt>
      <trkpt lat="45.93216" lon="4.72663">
        <ele>173.600006104</ele>
        <time>2015-12-12T11:31:23.776Z</time>
      </trkpt>
      <trkpt lat="45.93211" lon="4.72669">
        <ele>173.800003052</ele>
        <time>2015-12-12T11:31:24.754Z</time>
      </trkpt>
      <trkpt lat="45.93206" lon="4.72674">
        <ele>173.699996948</ele>
        <time>2015-12-12T11:31:25.772Z</time>
      </trkpt>
      <trkpt lat="45.93202" lon="4.7268">
        <ele>173.600006104</ele>
        <time>2015-12-12T11:31:26.754Z</time>
      </trkpt>
      <trkpt lat="45.93197" lon="4.72685">
        <ele>173.399993896</ele>
        <time>2015-12-12T11:31:27.771Z</time>
      </trkpt>
      <trkpt lat="45.93192" lon="4.72691">
        <ele>173.399993896</ele>
        <time>2015-12-12T11:31:28.756Z</time>
      </trkpt>
      <trkpt lat="45.93187" lon="4.72696">
        <ele>173</ele>
        <time>2015-12-12T11:31:29.776Z</time>
      </trkpt>
      <trkpt lat="45.93182" lon="4.72702">
        <ele>173.100006104</ele>
        <time>2015-12-12T11:31:30.754Z</time>
      </trkpt>
      <trkpt lat="45.93177" lon="4.72708">
        <ele>173.199996948</ele>
        <time>2015-12-12T11:31:31.772Z</time>
      </trkpt>
      <trkpt lat="45.93172" lon="4.72714">
        <ele>173.100006104</ele>
        <time>2015-12-12T11:31:32.754Z</time>
      </trkpt>
      <trkpt lat="45.93167" lon="4.72719">
        <ele>172.800003052</ele>
        <time>2015-12-12T11:31:33.771Z</time>
      </trkpt>
      <trkpt lat="45.93162" lon="4.72725">
        <ele>173</ele>
        <time>2015-12-12T11:31:34.754Z</time>
      </trkpt>
      <trkpt lat="45.93157" lon="4.7273">
        <ele>172.899993896</ele>
        <time>2015-12-12T11:31:35.774Z</time>
      </trkpt>
      <trkpt lat="45.93152" lon="4.72735">
        <ele>172.600006104</ele>
        <time>2015-12-12T11:31:36.754Z</time>
      </trkpt>
      <trkpt lat="45.93147" lon="4.72741">
        <ele>172.5</ele>
        <time>2015-12-12T11:31:37.772Z</time>
      </trkpt>
      <trkpt lat="45.93143" lon="4.72746">
        <ele>172.300003052</ele>
        <time>2015-12-12T11:31:38.756Z</time>
      </trkpt>
      <trkpt lat="45.93138" lon="4.72752">
        <ele>172.199996948</ele>
        <time>2015-12-12T11:31:39.77Z</time>
      </trkpt>
      <trkpt lat="45.93133" lon="4.72758">
        <ele>172</ele>
        <time>2015-12-12T11:31:40.754Z</time>
      </trkpt>
      <trkpt lat="45.93128" lon="4.72764">
        <ele>172.100006104</ele>
        <time>2015-12-12T11:31:41.793Z</time>
      </trkpt>
      <trkpt lat="45.93123" lon="4.7277">
        <ele>172.399993896</ele>
        <time>2015-12-12T11:31:42.754Z</time>
      </trkpt>
      <trkpt lat="45.93119" lon="4.72776">
        <ele>172.399993896</ele>
        <time>2015-12-12T11:31:43.772Z</time>
      </trkpt>
      <trkpt lat="45.93114" lon="4.72782">
        <ele>172.600006104</ele>
        <time>2015-12-12T11:31:44.754Z</time>
      </trkpt>
      <trkpt lat="45.9311" lon="4.72787">
        <ele>172.300003052</ele>
        <time>2015-12-12T11:31:45.771Z</time>
      </trkpt>
      <trkpt lat="45.93105" lon="4.72793">
        <ele>172.199996948</ele>
        <time>2015-12-12T11:31:46.754Z</time>
      </trkpt>
      <trkpt lat="45.931" lon="4.72798">
        <ele>172.199996948</ele>
        <time>2015-12-12T11:31:47.774Z</time>
      </trkpt>
      <trkpt lat="45.93096" lon="4.72803">
        <ele>172</ele>
        <time>2015-12-12T11:31:48.756Z</time>
      </trkpt>
      <trkpt lat="45.93092" lon="4.72808">
        <ele>172.399993896</ele>
        <time>2015-12-12T11:31:49.772Z</time>
      </trkpt>
      <trkpt lat="45.93087" lon="4.72813">
        <ele>172.699996948</ele>
        <time>2015-12-12T11:31:50.757Z</time>
      </trkpt>
      <trkpt lat="45.93083" lon="4.72817">
        <ele>173.100006104</ele>
        <time>2015-12-12T11:31:51.771Z</time>
      </trkpt>
      <trkpt lat="45.93079" lon="4.72822">
        <ele>173.300003052</ele>
        <time>2015-12-12T11:31:52.754Z</time>
      </trkpt>
      <trkpt lat="45.93074" lon="4.72826">
        <ele>173.300003052</ele>
        <time>2015-12-12T11:31:53.774Z</time>
      </trkpt>
      <trkpt lat="45.9307" lon="4.7283">
        <ele>173.300003052</ele>
        <time>2015-12-12T11:31:54.754Z</time>
      </trkpt>
      <trkpt lat="45.93065" lon="4.72835">
        <ele>173.300003052</ele>
        <time>2015-12-12T11:31:55.771Z</time>
      </trkpt>
      <trkpt lat="45.93061" lon="4.72839">
        <ele>173.199996948</ele>
        <time>2015-12-12T11:31:56.754Z</time>
      </trkpt>
      <trkpt lat="45.93058" lon="4.72848">
        <ele>173</ele>
        <time>2015-12-12T11:31:57.806Z</time>
      </trkpt>
      <trkpt lat="45.93053" lon="4.72854">
        <ele>172.899993896</ele>
        <time>2015-12-12T11:31:58.758Z</time>
      </trkpt>
      <trkpt lat="45.93046" lon="4.72858">
        <ele>173.300003052</ele>
        <time>2015-12-12T11:31:59.775Z</time>
      </trkpt>
      <trkpt lat="45.93041" lon="4.72864">
        <ele>173.699996948</ele>
        <time>2015-12-12T11:32:00.754Z</time>
      </trkpt>
      <trkpt lat="45.93037" lon="4.7287">
        <ele>174</ele>
        <time>2015-12-12T11:32:01.771Z</time>
      </trkpt>
      <trkpt lat="45.93032" lon="4.72876">
        <ele>174.100006104</ele>
        <time>2015-12-12T11:32:02.754Z</time>
      </trkpt>
      <trkpt lat="45.93028" lon="4.72882">
        <ele>174.199996948</ele>
        <time>2015-12-12T11:32:03.774Z</time>
      </trkpt>
      <trkpt lat="45.93023" lon="4.72887">
        <ele>174.100006104</ele>
        <time>2015-12-12T11:32:04.754Z</time>
      </trkpt>
      <trkpt lat="45.93019" lon="4.72892">
        <ele>173.899993896</ele>
        <time>2015-12-12T11:32:05.775Z</time>
      </trkpt>
      <trkpt lat="45.93015" lon="4.72896">
        <ele>173.600006104</ele>
        <time>2015-12-12T11:32:06.754Z</time>
      </trkpt>
      <trkpt lat="45.9301" lon="4.72901">
        <ele>173.5</ele>
        <time>2015-12-12T11:32:07.772Z</time>
      </trkpt>
      <trkpt lat="45.93006" lon="4.72906">
        <ele>174</ele>
        <time>2015-12-12T11:32:08.758Z</time>
      </trkpt>
      <trkpt lat="45.93001" lon="4.72912">
        <ele>173.800003052</ele>
        <time>2015-12-12T11:32:09.783Z</time>
      </trkpt>
      <trkpt lat="45.92998" lon="4.72918">
        <ele>173</ele>
        <time>2015-12-12T11:32:10.754Z</time>
      </trkpt>
      <trkpt lat="45.92993" lon="4.72923">
        <ele>172.800003052</ele>
        <time>2015-12-12T11:32:11.775Z</time>
      </trkpt>
      <trkpt lat="45.92989" lon="4.72927">
        <ele>172.899993896</ele>
        <time>2015-12-12T11:32:12.754Z</time>
      </trkpt>
      <trkpt lat="45.92984" lon="4.72932">
        <ele>172.899993896</ele>
        <time>2015-12-12T11:32:13.786Z</time>
      </trkpt>
      <trkpt lat="45.92981" lon="4.72937">
        <ele>173</ele>
        <time>2015-12-12T11:32:14.754Z</time>
      </trkpt>
      <trkpt lat="45.92977" lon="4.72941">
        <ele>173.100006104</ele>
        <time>2015-12-12T11:32:15.77Z</time>
      </trkpt>
      <trkpt lat="45.92973" lon="4.72946">
        <ele>173.100006104</ele>
        <time>2015-12-12T11:32:16.754Z</time>
      </trkpt>
      <trkpt lat="45.92969" lon="4.7295">
        <ele>172.800003052</ele>
        <time>2015-12-12T11:32:17.774Z</time>
      </trkpt>
      <trkpt lat="45.92965" lon="4.72955">
        <ele>172.800003052</ele>
        <time>2015-12-12T11:32:18.758Z</time>
      </trkpt>
      <trkpt lat="45.9296" lon="4.72959">
        <ele>172.899993896</ele>
        <time>2015-12-12T11:32:19.799Z</time>
      </trkpt>
      <trkpt lat="45.92956" lon="4.72965">
        <ele>172.699996948</ele>
        <time>2015-12-12T11:32:20.754Z</time>
      </trkpt>
      <trkpt lat="45.92952" lon="4.7297">
        <ele>172.600006104</ele>
        <time>2015-12-12T11:32:21.771Z</time>
      </trkpt>
      <trkpt lat="45.92948" lon="4.72976">
        <ele>172.600006104</ele>
        <time>2015-12-12T11:32:22.754Z</time>
      </trkpt>
      <trkpt lat="45.92943" lon="4.72981">
        <ele>172.699996948</ele>
        <time>2015-12-12T11:32:23.831Z</time>
      </trkpt>
      <trkpt lat="45.92939" lon="4.72986">
        <ele>173</ele>
        <time>2015-12-12T11:32:24.754Z</time>
      </trkpt>
      <trkpt lat="45.92934" lon="4.72991">
        <ele>173.100006104</ele>
        <time>2015-12-12T11:32:25.772Z</time>
      </trkpt>
      <trkpt lat="45.9293" lon="4.72996">
        <ele>173.100006104</ele>
        <time>2015-12-12T11:32:26.754Z</time>
      </trkpt>
      <trkpt lat="45.92925" lon="4.73001">
        <ele>173.5</ele>
        <time>2015-12-12T11:32:27.77Z</time>
      </trkpt>
      <trkpt lat="45.92921" lon="4.73007">
        <ele>173.899993896</ele>
        <time>2015-12-12T11:32:28.758Z</time>
      </trkpt>
      <trkpt lat="45.92917" lon="4.73012">
        <ele>174.100006104</ele>
        <time>2015-12-12T11:32:29.775Z</time>
      </trkpt>
      <trkpt lat="45.92912" lon="4.73017">
        <ele>174.399993896</ele>
        <time>2015-12-12T11:32:30.754Z</time>
      </trkpt>
      <trkpt lat="45.92908" lon="4.73023">
        <ele>174.100006104</ele>
        <time>2015-12-12T11:32:31.772Z</time>
      </trkpt>
      <trkpt lat="45.92904" lon="4.73029">
        <ele>174.699996948</ele>
        <time>2015-12-12T11:32:32.754Z</time>
      </trkpt>
      <trkpt lat="45.929" lon="4.73035">
        <ele>174.5</ele>
        <time>2015-12-12T11:32:33.77Z</time>
      </trkpt>
      <trkpt lat="45.92896" lon="4.73041">
        <ele>174.5</ele>
        <time>2015-12-12T11:32:34.754Z</time>
      </trkpt>
      <trkpt lat="45.92892" lon="4.73047">
        <ele>174.300003052</ele>
        <time>2015-12-12T11:32:35.775Z</time>
      </trkpt>
      <trkpt lat="45.92888" lon="4.73054">
        <ele>174.399993896</ele>
        <time>2015-12-12T11:32:36.754Z</time>
      </trkpt>
      <trkpt lat="45.92884" lon="4.73061">
        <ele>174.5</ele>
        <time>2015-12-12T11:32:37.772Z</time>
      </trkpt>
      <trkpt lat="45.9288" lon="4.73068">
        <ele>174.600006104</ele>
        <time>2015-12-12T11:32:38.76Z</time>
      </trkpt>
      <trkpt lat="45.92877" lon="4.73076">
        <ele>174.800003052</ele>
        <time>2015-12-12T11:32:39.772Z</time>
      </trkpt>
      <trkpt lat="45.92874" lon="4.73084">
        <ele>174.899993896</ele>
        <time>2015-12-12T11:32:40.755Z</time>
      </trkpt>
      <trkpt lat="45.92871" lon="4.73093">
        <ele>174.800003052</ele>
        <time>2015-12-12T11:32:41.775Z</time>
      </trkpt>
      <trkpt lat="45.92869" lon="4.73101">
        <ele>174.800003052</ele>
        <time>2015-12-12T11:32:42.754Z</time>
      </trkpt>
      <trkpt lat="45.92867" lon="4.7311">
        <ele>174.699996948</ele>
        <time>2015-12-12T11:32:43.779Z</time>
      </trkpt>
      <trkpt lat="45.92865" lon="4.73119">
        <ele>174.699996948</ele>
        <time>2015-12-12T11:32:44.754Z</time>
      </trkpt>
      <trkpt lat="45.92863" lon="4.73128">
        <ele>174.800003052</ele>
        <time>2015-12-12T11:32:45.777Z</time>
      </trkpt>
      <trkpt lat="45.92862" lon="4.73138">
        <ele>174.699996948</ele>
        <time>2015-12-12T11:32:46.754Z</time>
      </trkpt>
      <trkpt lat="45.9286" lon="4.73147">
        <ele>175</ele>
        <time>2015-12-12T11:32:47.774Z</time>
      </trkpt>
      <trkpt lat="45.92859" lon="4.73155">
        <ele>174.800003052</ele>
        <time>2015-12-12T11:32:48.76Z</time>
      </trkpt>
      <trkpt lat="45.92858" lon="4.73164">
        <ele>174.800003052</ele>
        <time>2015-12-12T11:32:49.771Z</time>
      </trkpt>
      <trkpt lat="45.92857" lon="4.73173">
        <ele>174.800003052</ele>
        <time>2015-12-12T11:32:50.756Z</time>
      </trkpt>
      <trkpt lat="45.92857" lon="4.73182">
        <ele>174.899993896</ele>
        <time>2015-12-12T11:32:51.77Z</time>
      </trkpt>
      <trkpt lat="45.92856" lon="4.73191">
        <ele>174.899993896</ele>
        <time>2015-12-12T11:32:52.754Z</time>
      </trkpt>
      <trkpt lat="45.92855" lon="4.732">
        <ele>174.899993896</ele>
        <time>2015-12-12T11:32:53.775Z</time>
      </trkpt>
      <trkpt lat="45.92854" lon="4.73209">
        <ele>175</ele>
        <time>2015-12-12T11:32:54.755Z</time>
      </trkpt>
      <trkpt lat="45.92853" lon="4.73218">
        <ele>175</ele>
        <time>2015-12-12T11:32:55.772Z</time>
      </trkpt>
      <trkpt lat="45.92852" lon="4.73227">
        <ele>174.899993896</ele>
        <time>2015-12-12T11:32:56.755Z</time>
      </trkpt>
      <trkpt lat="45.92851" lon="4.73236">
        <ele>174.899993896</ele>
        <time>2015-12-12T11:32:57.771Z</time>
      </trkpt>
      <trkpt lat="45.9285" lon="4.73245">
        <ele>174.800003052</ele>
        <time>2015-12-12T11:32:58.836Z</time>
      </trkpt>
      <trkpt lat="45.92849" lon="4.73254">
        <ele>174.800003052</ele>
        <time>2015-12-12T11:32:59.821Z</time>
      </trkpt>
      <trkpt lat="45.92848" lon="4.73264">
        <ele>174.800003052</ele>
        <time>2015-12-12T11:33:00.769Z</time>
      </trkpt>
      <trkpt lat="45.92847" lon="4.73273">
        <ele>174.800003052</ele>
        <time>2015-12-12T11:33:01.778Z</time>
      </trkpt>
      <trkpt lat="45.92846" lon="4.73283">
        <ele>174.800003052</ele>
        <time>2015-12-12T11:33:02.754Z</time>
      </trkpt>
      <trkpt lat="45.92844" lon="4.73292">
        <ele>174.800003052</ele>
        <time>2015-12-12T11:33:03.772Z</time>
      </trkpt>
      <trkpt lat="45.92843" lon="4.73301">
        <ele>174.899993896</ele>
        <time>2015-12-12T11:33:04.754Z</time>
      </trkpt>
      <trkpt lat="45.92842" lon="4.73311">
        <ele>174.899993896</ele>
        <time>2015-12-12T11:33:05.775Z</time>
      </trkpt>
      <trkpt lat="45.92841" lon="4.7332">
        <ele>175</ele>
        <time>2015-12-12T11:33:06.754Z</time>
      </trkpt>
      <trkpt lat="45.9284" lon="4.73329">
        <ele>174.800003052</ele>
        <time>2015-12-12T11:33:07.772Z</time>
      </trkpt>
      <trkpt lat="45.92839" lon="4.73338">
        <ele>174.699996948</ele>
        <time>2015-12-12T11:33:08.76Z</time>
      </trkpt>
      <trkpt lat="45.92838" lon="4.73347">
        <ele>174.5</ele>
        <time>2015-12-12T11:33:09.771Z</time>
      </trkpt>
      <trkpt lat="45.92837" lon="4.73355">
        <ele>174.5</ele>
        <time>2015-12-12T11:33:10.755Z</time>
      </trkpt>
      <trkpt lat="45.92835" lon="4.73363">
        <ele>174.399993896</ele>
        <time>2015-12-12T11:33:11.775Z</time>
      </trkpt>
      <trkpt lat="45.92835" lon="4.73371">
        <ele>174.300003052</ele>
        <time>2015-12-12T11:33:12.755Z</time>
      </trkpt>
      <trkpt lat="45.92834" lon="4.7338">
        <ele>174.300003052</ele>
        <time>2015-12-12T11:33:13.771Z</time>
      </trkpt>
      <trkpt lat="45.92832" lon="4.73388">
        <ele>174.399993896</ele>
        <time>2015-12-12T11:33:14.754Z</time>
      </trkpt>
      <trkpt lat="45.92831" lon="4.73396">
        <ele>174.100006104</ele>
        <time>2015-12-12T11:33:15.77Z</time>
      </trkpt>
      <trkpt lat="45.9283" lon="4.73405">
        <ele>174</ele>
        <time>2015-12-12T11:33:16.754Z</time>
      </trkpt>
      <trkpt lat="45.92829" lon="4.73413">
        <ele>174</ele>
        <time>2015-12-12T11:33:17.774Z</time>
      </trkpt>
      <trkpt lat="45.92828" lon="4.73421">
        <ele>174.100006104</ele>
        <time>2015-12-12T11:33:18.763Z</time>
      </trkpt>
      <trkpt lat="45.92826" lon="4.73429">
        <ele>174.100006104</ele>
        <time>2015-12-12T11:33:19.773Z</time>
      </trkpt>
      <trkpt lat="45.92825" lon="4.73438">
        <ele>174.100006104</ele>
        <time>2015-12-12T11:33:20.754Z</time>
      </trkpt>
      <trkpt lat="45.92824" lon="4.73447">
        <ele>173.899993896</ele>
        <time>2015-12-12T11:33:21.784Z</time>
      </trkpt>
      <trkpt lat="45.92823" lon="4.73455">
        <ele>174.100006104</ele>
        <time>2015-12-12T11:33:22.754Z</time>
      </trkpt>
      <trkpt lat="45.92822" lon="4.73464">
        <ele>174.199996948</ele>
        <time>2015-12-12T11:33:23.776Z</time>
      </trkpt>
      <trkpt lat="45.92822" lon="4.73472">
        <ele>174.5</ele>
        <time>2015-12-12T11:33:24.754Z</time>
      </trkpt>
      <trkpt lat="45.92821" lon="4.73481">
        <ele>174.399993896</ele>
        <time>2015-12-12T11:33:25.771Z</time>
      </trkpt>
      <trkpt lat="45.9282" lon="4.7349">
        <ele>174</ele>
        <time>2015-12-12T11:33:26.754Z</time>
      </trkpt>
      <trkpt lat="45.92819" lon="4.73499">
        <ele>174.100006104</ele>
        <time>2015-12-12T11:33:27.77Z</time>
      </trkpt>
      <trkpt lat="45.92818" lon="4.73508">
        <ele>174.199996948</ele>
        <time>2015-12-12T11:33:28.76Z</time>
      </trkpt>
      <trkpt lat="45.92817" lon="4.73517">
        <ele>173.899993896</ele>
        <time>2015-12-12T11:33:29.775Z</time>
      </trkpt>
      <trkpt lat="45.92816" lon="4.73526">
        <ele>173.800003052</ele>
        <time>2015-12-12T11:33:30.754Z</time>
      </trkpt>
      <trkpt lat="45.92815" lon="4.73535">
        <ele>173.899993896</ele>
        <time>2015-12-12T11:33:31.772Z</time>
      </trkpt>
      <trkpt lat="45.92815" lon="4.73544">
        <ele>174</ele>
        <time>2015-12-12T11:33:32.754Z</time>
      </trkpt>
      <trkpt lat="45.92815" lon="4.73553">
        <ele>173.800003052</ele>
        <time>2015-12-12T11:33:33.772Z</time>
      </trkpt>
      <trkpt lat="45.92814" lon="4.73562">
        <ele>173.600006104</ele>
        <time>2015-12-12T11:33:34.754Z</time>
      </trkpt>
      <trkpt lat="45.92813" lon="4.73571">
        <ele>173.899993896</ele>
        <time>2015-12-12T11:33:35.919Z</time>
      </trkpt>
      <trkpt lat="45.92813" lon="4.73581">
        <ele>174.100006104</ele>
        <time>2015-12-12T11:33:36.754Z</time>
      </trkpt>
      <trkpt lat="45.92813" lon="4.7359">
        <ele>174.199996948</ele>
        <time>2015-12-12T11:33:37.786Z</time>
      </trkpt>
      <trkpt lat="45.92813" lon="4.73599">
        <ele>174.199996948</ele>
        <time>2015-12-12T11:33:38.763Z</time>
      </trkpt>
      <trkpt lat="45.92813" lon="4.73607">
        <ele>174</ele>
        <time>2015-12-12T11:33:39.785Z</time>
      </trkpt>
      <trkpt lat="45.92812" lon="4.73615">
        <ele>173.699996948</ele>
        <time>2015-12-12T11:33:40.755Z</time>
      </trkpt>
      <trkpt lat="45.9281" lon="4.73622">
        <ele>174.100006104</ele>
        <time>2015-12-12T11:33:41.775Z</time>
      </trkpt>
      <trkpt lat="45.92807" lon="4.73628">
        <ele>174.199996948</ele>
        <time>2015-12-12T11:33:42.754Z</time>
      </trkpt>
      <trkpt lat="45.92804" lon="4.73633">
        <ele>174.100006104</ele>
        <time>2015-12-12T11:33:43.771Z</time>
      </trkpt>
      <trkpt lat="45.928" lon="4.73639">
        <ele>174.199996948</ele>
        <time>2015-12-12T11:33:44.754Z</time>
      </trkpt>
      <trkpt lat="45.92798" lon="4.73646">
        <ele>174.399993896</ele>
        <time>2015-12-12T11:33:45.771Z</time>
      </trkpt>
      <trkpt lat="45.92796" lon="4.73653">
        <ele>174.699996948</ele>
        <time>2015-12-12T11:33:46.754Z</time>
      </trkpt>
      <trkpt lat="45.92795" lon="4.73661">
        <ele>175.100006104</ele>
        <time>2015-12-12T11:33:47.829Z</time>
      </trkpt>
      <trkpt lat="45.92793" lon="4.73668">
        <ele>175.399993896</ele>
        <time>2015-12-12T11:33:48.764Z</time>
      </trkpt>
      <trkpt lat="45.92792" lon="4.73674">
        <ele>175.699996948</ele>
        <time>2015-12-12T11:33:49.784Z</time>
      </trkpt>
      <trkpt lat="45.9279" lon="4.73681">
        <ele>175.699996948</ele>
        <time>2015-12-12T11:33:50.756Z</time>
      </trkpt>
      <trkpt lat="45.92788" lon="4.73687">
        <ele>175.800003052</ele>
        <time>2015-12-12T11:33:51.77Z</time>
      </trkpt>
      <trkpt lat="45.92786" lon="4.73694">
        <ele>176.100006104</ele>
        <time>2015-12-12T11:33:52.754Z</time>
      </trkpt>
      <trkpt lat="45.92785" lon="4.737">
        <ele>176.300003052</ele>
        <time>2015-12-12T11:33:53.775Z</time>
      </trkpt>
      <trkpt lat="45.92784" lon="4.73707">
        <ele>176.399993896</ele>
        <time>2015-12-12T11:33:54.754Z</time>
      </trkpt>
      <trkpt lat="45.92782" lon="4.73719">
        <ele>176.600006104</ele>
        <time>2015-12-12T11:33:56.77Z</time>
      </trkpt>
      <trkpt lat="45.9278" lon="4.73724">
        <ele>176.399993896</ele>
        <time>2015-12-12T11:33:57.754Z</time>
      </trkpt>
      <trkpt lat="45.92774" lon="4.73729">
        <ele>176.5</ele>
        <time>2015-12-12T11:33:59.786Z</time>
      </trkpt>
      <trkpt lat="45.9277" lon="4.73728">
        <ele>176.5</ele>
        <time>2015-12-12T11:34:00.755Z</time>
      </trkpt>
      <trkpt lat="45.92763" lon="4.73725">
        <ele>176.699996948</ele>
        <time>2015-12-12T11:34:02.77Z</time>
      </trkpt>
      <trkpt lat="45.92758" lon="4.73723">
        <ele>176.699996948</ele>
        <time>2015-12-12T11:34:03.754Z</time>
      </trkpt>
      <trkpt lat="45.92753" lon="4.73721">
        <ele>176.899993896</ele>
        <time>2015-12-12T11:34:04.771Z</time>
      </trkpt>
      <trkpt lat="45.92748" lon="4.7372">
        <ele>177.100006104</ele>
        <time>2015-12-12T11:34:05.758Z</time>
      </trkpt>
      <trkpt lat="45.92743" lon="4.73719">
        <ele>177.199996948</ele>
        <time>2015-12-12T11:34:06.771Z</time>
      </trkpt>
      <trkpt lat="45.92738" lon="4.73717">
        <ele>177.5</ele>
        <time>2015-12-12T11:34:07.756Z</time>
      </trkpt>
      <trkpt lat="45.92732" lon="4.73716">
        <ele>177.5</ele>
        <time>2015-12-12T11:34:08.864Z</time>
      </trkpt>
      <trkpt lat="45.92727" lon="4.73715">
        <ele>177.600006104</ele>
        <time>2015-12-12T11:34:09.754Z</time>
      </trkpt>
      <trkpt lat="45.92722" lon="4.73713">
        <ele>177.600006104</ele>
        <time>2015-12-12T11:34:10.772Z</time>
      </trkpt>
      <trkpt lat="45.92716" lon="4.73712">
        <ele>177.100006104</ele>
        <time>2015-12-12T11:34:11.758Z</time>
      </trkpt>
      <trkpt lat="45.92711" lon="4.73711">
        <ele>176.699996948</ele>
        <time>2015-12-12T11:34:12.771Z</time>
      </trkpt>
      <trkpt lat="45.92706" lon="4.7371">
        <ele>177</ele>
        <time>2015-12-12T11:34:13.755Z</time>
      </trkpt>
      <trkpt lat="45.92699" lon="4.73709">
        <ele>176.699996948</ele>
        <time>2015-12-12T11:34:14.771Z</time>
      </trkpt>
      <trkpt lat="45.92693" lon="4.73707">
        <ele>176.199996948</ele>
        <time>2015-12-12T11:34:15.754Z</time>
      </trkpt>
      <trkpt lat="45.92687" lon="4.73706">
        <ele>175.800003052</ele>
        <time>2015-12-12T11:34:16.771Z</time>
      </trkpt>
      <trkpt lat="45.92682" lon="4.73704">
        <ele>175.399993896</ele>
        <time>2015-12-12T11:34:17.758Z</time>
      </trkpt>
      <trkpt lat="45.92676" lon="4.73702">
        <ele>175.399993896</ele>
        <time>2015-12-12T11:34:18.794Z</time>
      </trkpt>
      <trkpt lat="45.92671" lon="4.737">
        <ele>175.399993896</ele>
        <time>2015-12-12T11:34:19.768Z</time>
      </trkpt>
      <trkpt lat="45.92666" lon="4.73697">
        <ele>175.100006104</ele>
        <time>2015-12-12T11:34:20.771Z</time>
      </trkpt>
      <trkpt lat="45.9266" lon="4.73693">
        <ele>174.899993896</ele>
        <time>2015-12-12T11:34:21.754Z</time>
      </trkpt>
      <trkpt lat="45.92655" lon="4.73689">
        <ele>174.800003052</ele>
        <time>2015-12-12T11:34:22.77Z</time>
      </trkpt>
      <trkpt lat="45.92649" lon="4.73685">
        <ele>174.800003052</ele>
        <time>2015-12-12T11:34:23.758Z</time>
      </trkpt>
      <trkpt lat="45.92645" lon="4.73679">
        <ele>175</ele>
        <time>2015-12-12T11:34:24.788Z</time>
      </trkpt>
      <trkpt lat="45.92641" lon="4.73673">
        <ele>175</ele>
        <time>2015-12-12T11:34:25.755Z</time>
      </trkpt>
      <trkpt lat="45.92637" lon="4.73666">
        <ele>175.199996948</ele>
        <time>2015-12-12T11:34:26.77Z</time>
      </trkpt>
      <trkpt lat="45.92635" lon="4.73659">
        <ele>174.300003052</ele>
        <time>2015-12-12T11:34:27.754Z</time>
      </trkpt>
      <trkpt lat="45.92632" lon="4.73653">
        <ele>173.899993896</ele>
        <time>2015-12-12T11:34:28.792Z</time>
      </trkpt>
      <trkpt lat="45.92629" lon="4.73645">
        <ele>173.300003052</ele>
        <time>2015-12-12T11:34:29.758Z</time>
      </trkpt>
      <trkpt lat="45.92625" lon="4.73638">
        <ele>172.800003052</ele>
        <time>2015-12-12T11:34:30.77Z</time>
      </trkpt>
      <trkpt lat="45.9262" lon="4.73631">
        <ele>172.5</ele>
        <time>2015-12-12T11:34:31.78Z</time>
      </trkpt>
      <trkpt lat="45.92615" lon="4.73626">
        <ele>172.199996948</ele>
        <time>2015-12-12T11:34:32.772Z</time>
      </trkpt>
      <trkpt lat="45.92609" lon="4.73623">
        <ele>172.5</ele>
        <time>2015-12-12T11:34:33.754Z</time>
      </trkpt>
      <trkpt lat="45.92602" lon="4.73621">
        <ele>172.899993896</ele>
        <time>2015-12-12T11:34:34.77Z</time>
      </trkpt>
      <trkpt lat="45.92596" lon="4.73621">
        <ele>173</ele>
        <time>2015-12-12T11:34:35.754Z</time>
      </trkpt>
      <trkpt lat="45.9259" lon="4.73621">
        <ele>173.300003052</ele>
        <time>2015-12-12T11:34:36.77Z</time>
      </trkpt>
      <trkpt lat="45.92583" lon="4.73621">
        <ele>173.300003052</ele>
        <time>2015-12-12T11:34:37.756Z</time>
      </trkpt>
      <trkpt lat="45.92576" lon="4.73623">
        <ele>173.100006104</ele>
        <time>2015-12-12T11:34:38.79Z</time>
      </trkpt>
      <trkpt lat="45.9257" lon="4.73624">
        <ele>172.899993896</ele>
        <time>2015-12-12T11:34:39.754Z</time>
      </trkpt>
      <trkpt lat="45.92563" lon="4.73625">
        <ele>172.899993896</ele>
        <time>2015-12-12T11:34:40.786Z</time>
      </trkpt>
      <trkpt lat="45.92557" lon="4.73627">
        <ele>173</ele>
        <time>2015-12-12T11:34:41.758Z</time>
      </trkpt>
      <trkpt lat="45.92551" lon="4.73629">
        <ele>173</ele>
        <time>2015-12-12T11:34:42.771Z</time>
      </trkpt>
      <trkpt lat="45.92545" lon="4.73632">
        <ele>173.800003052</ele>
        <time>2015-12-12T11:34:43.755Z</time>
      </trkpt>
      <trkpt lat="45.92538" lon="4.73634">
        <ele>174.199996948</ele>
        <time>2015-12-12T11:34:44.771Z</time>
      </trkpt>
      <trkpt lat="45.92532" lon="4.73634">
        <ele>173.800003052</ele>
        <time>2015-12-12T11:34:45.781Z</time>
      </trkpt>
      <trkpt lat="45.92525" lon="4.73635">
        <ele>172.899993896</ele>
        <time>2015-12-12T11:34:46.914Z</time>
      </trkpt>
      <trkpt lat="45.92518" lon="4.73636">
        <ele>173.100006104</ele>
        <time>2015-12-12T11:34:47.757Z</time>
      </trkpt>
      <trkpt lat="45.92512" lon="4.73637">
        <ele>173</ele>
        <time>2015-12-12T11:34:48.786Z</time>
      </trkpt>
      <trkpt lat="45.92505" lon="4.73637">
        <ele>173.100006104</ele>
        <time>2015-12-12T11:34:49.755Z</time>
      </trkpt>
      <trkpt lat="45.92499" lon="4.73638">
        <ele>173.399993896</ele>
        <time>2015-12-12T11:34:50.777Z</time>
      </trkpt>
      <trkpt lat="45.92493" lon="4.73638">
        <ele>173.199996948</ele>
        <time>2015-12-12T11:34:51.754Z</time>
      </trkpt>
      <trkpt lat="45.92487" lon="4.73638">
        <ele>173</ele>
        <time>2015-12-12T11:34:52.77Z</time>
      </trkpt>
      <trkpt lat="45.92482" lon="4.73638">
        <ele>173.199996948</ele>
        <time>2015-12-12T11:34:53.758Z</time>
      </trkpt>
      <trkpt lat="45.92474" lon="4.7364">
        <ele>173.399993896</ele>
        <time>2015-12-12T11:34:55.772Z</time>
      </trkpt>
      <trkpt lat="45.9247" lon="4.73643">
        <ele>173.800003052</ele>
        <time>2015-12-12T11:34:56.768Z</time>
      </trkpt>
      <trkpt lat="45.92466" lon="4.73653">
        <ele>174</ele>
        <time>2015-12-12T11:34:58.784Z</time>
      </trkpt>
      <trkpt lat="45.92465" lon="4.73658">
        <ele>174.100006104</ele>
        <time>2015-12-12T11:34:59.758Z</time>
      </trkpt>
      <trkpt lat="45.92464" lon="4.73669">
        <ele>174.300003052</ele>
        <time>2015-12-12T11:35:01.771Z</time>
      </trkpt>
      <trkpt lat="45.92464" lon="4.73674">
        <ele>174.199996948</ele>
        <time>2015-12-12T11:35:02.754Z</time>
      </trkpt>
      <trkpt lat="45.92463" lon="4.73684">
        <ele>174.399993896</ele>
        <time>2015-12-12T11:35:04.77Z</time>
      </trkpt>
      <trkpt lat="45.92463" lon="4.73688">
        <ele>174.699996948</ele>
        <time>2015-12-12T11:35:05.758Z</time>
      </trkpt>
      <trkpt lat="45.92462" lon="4.73698">
        <ele>174.899993896</ele>
        <time>2015-12-12T11:35:07.773Z</time>
      </trkpt>
      <trkpt lat="45.92461" lon="4.73702">
        <ele>175</ele>
        <time>2015-12-12T11:35:08.834Z</time>
      </trkpt>
      <trkpt lat="45.92459" lon="4.7371">
        <ele>176.699996948</ele>
        <time>2015-12-12T11:35:45.86Z</time>
      </trkpt>
    </trkseg>
  </trk>
</gpx>